<?xml version="1.0" encoding="UTF-8" standalone="no" ?>
<gpx xmlns="http://www.topografix.com/GPX/1/1" xmlns:xsi="http://www.w3.org/2001/XMLSchema-instance" xsi:schemaLocation="http://www.topografix.com/GPX/1/1 http://www.topografix.com/GPX/1/1/gpx.xsd" version="1.1" creator="VisuGPX - https://www.visugpx.com">
  <metadata>
    <name>Mont Ventoux par Sault depuis Aubres</name>
  </metadata>
  <trk>
    <name><![CDATA[Mont Ventoux par Sault depuis Aubres_1]]></name>
    <trkseg>
      <trkpt lat="44.37959" lon="5.16938">
        <ele>318</ele>
        <time>2020-07-11T04:39:40.579Z</time>
      </trkpt>
      <trkpt lat="44.37959" lon="5.16938">
        <ele>318</ele>
        <time>2020-07-11T04:39:41.582Z</time>
      </trkpt>
      <trkpt lat="44.3796" lon="5.16936">
        <ele>318</ele>
        <time>2020-07-11T04:39:42.582Z</time>
      </trkpt>
      <trkpt lat="44.37958" lon="5.16934">
        <ele>318</ele>
        <time>2020-07-11T04:39:43.582Z</time>
      </trkpt>
      <trkpt lat="44.37957" lon="5.16932">
        <ele>319</ele>
        <time>2020-07-11T04:39:44.582Z</time>
      </trkpt>
      <trkpt lat="44.37958" lon="5.16933">
        <ele>319</ele>
        <time>2020-07-11T04:39:45.582Z</time>
      </trkpt>
      <trkpt lat="44.37958" lon="5.16933">
        <ele>319</ele>
        <time>2020-07-11T04:39:46.582Z</time>
      </trkpt>
      <trkpt lat="44.37957" lon="5.16933">
        <ele>320</ele>
        <time>2020-07-11T04:39:47.582Z</time>
      </trkpt>
      <trkpt lat="44.37955" lon="5.16933">
        <ele>320</ele>
        <time>2020-07-11T04:39:48.582Z</time>
      </trkpt>
      <trkpt lat="44.37951" lon="5.16932">
        <ele>320</ele>
        <time>2020-07-11T04:39:49.582Z</time>
      </trkpt>
      <trkpt lat="44.37948" lon="5.16932">
        <ele>321</ele>
        <time>2020-07-11T04:39:50.582Z</time>
      </trkpt>
      <trkpt lat="44.37945" lon="5.16933">
        <ele>321</ele>
        <time>2020-07-11T04:39:51.581Z</time>
      </trkpt>
      <trkpt lat="44.37943" lon="5.16935">
        <ele>321</ele>
        <time>2020-07-11T04:39:52.581Z</time>
      </trkpt>
      <trkpt lat="44.3794" lon="5.16936">
        <ele>322</ele>
        <time>2020-07-11T04:39:53.582Z</time>
      </trkpt>
      <trkpt lat="44.37936" lon="5.16938">
        <ele>322</ele>
        <time>2020-07-11T04:39:54.582Z</time>
      </trkpt>
      <trkpt lat="44.37932" lon="5.16939">
        <ele>322</ele>
        <time>2020-07-11T04:39:55.582Z</time>
      </trkpt>
      <trkpt lat="44.37928" lon="5.16941">
        <ele>323</ele>
        <time>2020-07-11T04:39:56.582Z</time>
      </trkpt>
      <trkpt lat="44.37924" lon="5.16942">
        <ele>323</ele>
        <time>2020-07-11T04:39:57.582Z</time>
      </trkpt>
      <trkpt lat="44.37919" lon="5.16942">
        <ele>323</ele>
        <time>2020-07-11T04:39:58.582Z</time>
      </trkpt>
      <trkpt lat="44.37915" lon="5.16943">
        <ele>324</ele>
        <time>2020-07-11T04:39:59.582Z</time>
      </trkpt>
      <trkpt lat="44.37913" lon="5.16945">
        <ele>324</ele>
        <time>2020-07-11T04:40:00.582Z</time>
      </trkpt>
      <trkpt lat="44.3791" lon="5.16947">
        <ele>324</ele>
        <time>2020-07-11T04:40:01.581Z</time>
      </trkpt>
      <trkpt lat="44.37908" lon="5.16948">
        <ele>323</ele>
        <time>2020-07-11T04:40:02.582Z</time>
      </trkpt>
      <trkpt lat="44.37904" lon="5.16949">
        <ele>323</ele>
        <time>2020-07-11T04:40:03.581Z</time>
      </trkpt>
      <trkpt lat="44.37903" lon="5.16951">
        <ele>323</ele>
        <time>2020-07-11T04:40:04.581Z</time>
      </trkpt>
      <trkpt lat="44.37899" lon="5.16952">
        <ele>323</ele>
        <time>2020-07-11T04:40:05.581Z</time>
      </trkpt>
      <trkpt lat="44.37894" lon="5.16954">
        <ele>322</ele>
        <time>2020-07-11T04:40:06.581Z</time>
      </trkpt>
      <trkpt lat="44.37889" lon="5.16956">
        <ele>322</ele>
        <time>2020-07-11T04:40:07.581Z</time>
      </trkpt>
      <trkpt lat="44.37884" lon="5.16958">
        <ele>322</ele>
        <time>2020-07-11T04:40:08.581Z</time>
      </trkpt>
      <trkpt lat="44.3788" lon="5.16958">
        <ele>321</ele>
        <time>2020-07-11T04:40:09.582Z</time>
      </trkpt>
      <trkpt lat="44.37875" lon="5.1696">
        <ele>321</ele>
        <time>2020-07-11T04:40:10.582Z</time>
      </trkpt>
      <trkpt lat="44.3787" lon="5.16962">
        <ele>321</ele>
        <time>2020-07-11T04:40:11.581Z</time>
      </trkpt>
      <trkpt lat="44.37867" lon="5.16964">
        <ele>320</ele>
        <time>2020-07-11T04:40:12.581Z</time>
      </trkpt>
      <trkpt lat="44.37864" lon="5.16966">
        <ele>320</ele>
        <time>2020-07-11T04:40:13.581Z</time>
      </trkpt>
      <trkpt lat="44.37861" lon="5.16969">
        <ele>320</ele>
        <time>2020-07-11T04:40:14.582Z</time>
      </trkpt>
      <trkpt lat="44.37857" lon="5.16971">
        <ele>320</ele>
        <time>2020-07-11T04:40:15.582Z</time>
      </trkpt>
      <trkpt lat="44.37853" lon="5.16974">
        <ele>319</ele>
        <time>2020-07-11T04:40:16.581Z</time>
      </trkpt>
      <trkpt lat="44.3785" lon="5.16977">
        <ele>319</ele>
        <time>2020-07-11T04:40:17.581Z</time>
      </trkpt>
      <trkpt lat="44.37847" lon="5.16979">
        <ele>318</ele>
        <time>2020-07-11T04:40:18.581Z</time>
      </trkpt>
      <trkpt lat="44.37844" lon="5.16981">
        <ele>318</ele>
        <time>2020-07-11T04:40:19.581Z</time>
      </trkpt>
      <trkpt lat="44.3784" lon="5.16985">
        <ele>317</ele>
        <time>2020-07-11T04:40:20.582Z</time>
      </trkpt>
      <trkpt lat="44.37835" lon="5.16988">
        <ele>316</ele>
        <time>2020-07-11T04:40:21.581Z</time>
      </trkpt>
      <trkpt lat="44.37831" lon="5.16992">
        <ele>316</ele>
        <time>2020-07-11T04:40:22.581Z</time>
      </trkpt>
      <trkpt lat="44.37826" lon="5.16996">
        <ele>315</ele>
        <time>2020-07-11T04:40:23.581Z</time>
      </trkpt>
      <trkpt lat="44.37821" lon="5.17">
        <ele>315</ele>
        <time>2020-07-11T04:40:24.582Z</time>
      </trkpt>
      <trkpt lat="44.37816" lon="5.17004">
        <ele>314</ele>
        <time>2020-07-11T04:40:25.581Z</time>
      </trkpt>
      <trkpt lat="44.37812" lon="5.17006">
        <ele>313</ele>
        <time>2020-07-11T04:40:26.581Z</time>
      </trkpt>
      <trkpt lat="44.37809" lon="5.17008">
        <ele>313</ele>
        <time>2020-07-11T04:40:27.581Z</time>
      </trkpt>
      <trkpt lat="44.37806" lon="5.1701">
        <ele>312</ele>
        <time>2020-07-11T04:40:28.582Z</time>
      </trkpt>
      <trkpt lat="44.37801" lon="5.17012">
        <ele>312</ele>
        <time>2020-07-11T04:40:29.581Z</time>
      </trkpt>
      <trkpt lat="44.37797" lon="5.17014">
        <ele>311</ele>
        <time>2020-07-11T04:40:30.581Z</time>
      </trkpt>
      <trkpt lat="44.37792" lon="5.17013">
        <ele>310</ele>
        <time>2020-07-11T04:40:31.581Z</time>
      </trkpt>
      <trkpt lat="44.37787" lon="5.17013">
        <ele>310</ele>
        <time>2020-07-11T04:40:32.582Z</time>
      </trkpt>
      <trkpt lat="44.37781" lon="5.1701">
        <ele>309</ele>
        <time>2020-07-11T04:40:33.581Z</time>
      </trkpt>
      <trkpt lat="44.37774" lon="5.17007">
        <ele>309</ele>
        <time>2020-07-11T04:40:34.581Z</time>
      </trkpt>
      <trkpt lat="44.37768" lon="5.17004">
        <ele>308</ele>
        <time>2020-07-11T04:40:35.581Z</time>
      </trkpt>
      <trkpt lat="44.37764" lon="5.17001">
        <ele>308</ele>
        <time>2020-07-11T04:40:36.581Z</time>
      </trkpt>
      <trkpt lat="44.3776" lon="5.17">
        <ele>308</ele>
        <time>2020-07-11T04:40:37.581Z</time>
      </trkpt>
      <trkpt lat="44.37756" lon="5.16999">
        <ele>307</ele>
        <time>2020-07-11T04:40:38.581Z</time>
      </trkpt>
      <trkpt lat="44.37752" lon="5.17001">
        <ele>307</ele>
        <time>2020-07-11T04:40:39.581Z</time>
      </trkpt>
      <trkpt lat="44.37749" lon="5.17003">
        <ele>307</ele>
        <time>2020-07-11T04:40:40.581Z</time>
      </trkpt>
      <trkpt lat="44.37745" lon="5.17007">
        <ele>306</ele>
        <time>2020-07-11T04:40:41.581Z</time>
      </trkpt>
      <trkpt lat="44.37741" lon="5.17012">
        <ele>306</ele>
        <time>2020-07-11T04:40:42.581Z</time>
      </trkpt>
      <trkpt lat="44.37736" lon="5.17016">
        <ele>305</ele>
        <time>2020-07-11T04:40:43.581Z</time>
      </trkpt>
      <trkpt lat="44.37731" lon="5.17019">
        <ele>305</ele>
        <time>2020-07-11T04:40:44.581Z</time>
      </trkpt>
      <trkpt lat="44.37727" lon="5.17019">
        <ele>305</ele>
        <time>2020-07-11T04:40:45.581Z</time>
      </trkpt>
      <trkpt lat="44.37721" lon="5.17017">
        <ele>304</ele>
        <time>2020-07-11T04:40:46.581Z</time>
      </trkpt>
      <trkpt lat="44.37717" lon="5.17013">
        <ele>303</ele>
        <time>2020-07-11T04:40:47.581Z</time>
      </trkpt>
      <trkpt lat="44.37714" lon="5.17007">
        <ele>303</ele>
        <time>2020-07-11T04:40:48.582Z</time>
      </trkpt>
      <trkpt lat="44.37713" lon="5.17001">
        <ele>302</ele>
        <time>2020-07-11T04:40:49.581Z</time>
      </trkpt>
      <trkpt lat="44.3771" lon="5.16992">
        <ele>302</ele>
        <time>2020-07-11T04:40:50.581Z</time>
      </trkpt>
      <trkpt lat="44.37708" lon="5.16984">
        <ele>301</ele>
        <time>2020-07-11T04:40:51.582Z</time>
      </trkpt>
      <trkpt lat="44.37706" lon="5.16974">
        <ele>301</ele>
        <time>2020-07-11T04:40:52.581Z</time>
      </trkpt>
      <trkpt lat="44.37704" lon="5.16965">
        <ele>301</ele>
        <time>2020-07-11T04:40:53.581Z</time>
      </trkpt>
      <trkpt lat="44.37702" lon="5.16958">
        <ele>300</ele>
        <time>2020-07-11T04:40:54.581Z</time>
      </trkpt>
      <trkpt lat="44.377" lon="5.16949">
        <ele>300</ele>
        <time>2020-07-11T04:40:55.582Z</time>
      </trkpt>
      <trkpt lat="44.37697" lon="5.16938">
        <ele>300</ele>
        <time>2020-07-11T04:40:56.581Z</time>
      </trkpt>
      <trkpt lat="44.37695" lon="5.16928">
        <ele>299</ele>
        <time>2020-07-11T04:40:57.581Z</time>
      </trkpt>
      <trkpt lat="44.37693" lon="5.16919">
        <ele>299</ele>
        <time>2020-07-11T04:40:58.581Z</time>
      </trkpt>
      <trkpt lat="44.3769" lon="5.1691">
        <ele>298</ele>
        <time>2020-07-11T04:40:59.581Z</time>
      </trkpt>
      <trkpt lat="44.37686" lon="5.16901">
        <ele>298</ele>
        <time>2020-07-11T04:41:00.581Z</time>
      </trkpt>
      <trkpt lat="44.37684" lon="5.16893">
        <ele>298</ele>
        <time>2020-07-11T04:41:01.581Z</time>
      </trkpt>
      <trkpt lat="44.37682" lon="5.16885">
        <ele>298</ele>
        <time>2020-07-11T04:41:02.582Z</time>
      </trkpt>
      <trkpt lat="44.3768" lon="5.16876">
        <ele>297</ele>
        <time>2020-07-11T04:41:03.581Z</time>
      </trkpt>
      <trkpt lat="44.37677" lon="5.16868">
        <ele>297</ele>
        <time>2020-07-11T04:41:04.582Z</time>
      </trkpt>
      <trkpt lat="44.37674" lon="5.16858">
        <ele>297</ele>
        <time>2020-07-11T04:41:05.582Z</time>
      </trkpt>
      <trkpt lat="44.37672" lon="5.16848">
        <ele>297</ele>
        <time>2020-07-11T04:41:06.581Z</time>
      </trkpt>
      <trkpt lat="44.37669" lon="5.16839">
        <ele>297</ele>
        <time>2020-07-11T04:41:07.581Z</time>
      </trkpt>
      <trkpt lat="44.37667" lon="5.1683">
        <ele>297</ele>
        <time>2020-07-11T04:41:08.581Z</time>
      </trkpt>
      <trkpt lat="44.37664" lon="5.16822">
        <ele>297</ele>
        <time>2020-07-11T04:41:09.582Z</time>
      </trkpt>
      <trkpt lat="44.37662" lon="5.16814">
        <ele>297</ele>
        <time>2020-07-11T04:41:10.581Z</time>
      </trkpt>
      <trkpt lat="44.3766" lon="5.16806">
        <ele>297</ele>
        <time>2020-07-11T04:41:11.582Z</time>
      </trkpt>
      <trkpt lat="44.37658" lon="5.16798">
        <ele>297</ele>
        <time>2020-07-11T04:41:12.582Z</time>
      </trkpt>
      <trkpt lat="44.37657" lon="5.16791">
        <ele>297</ele>
        <time>2020-07-11T04:41:13.581Z</time>
      </trkpt>
      <trkpt lat="44.37652" lon="5.16782">
        <ele>297</ele>
        <time>2020-07-11T04:41:14.582Z</time>
      </trkpt>
      <trkpt lat="44.37648" lon="5.16775">
        <ele>297</ele>
        <time>2020-07-11T04:41:15.581Z</time>
      </trkpt>
      <trkpt lat="44.37642" lon="5.16769">
        <ele>297</ele>
        <time>2020-07-11T04:41:16.582Z</time>
      </trkpt>
      <trkpt lat="44.37637" lon="5.16764">
        <ele>297</ele>
        <time>2020-07-11T04:41:17.581Z</time>
      </trkpt>
      <trkpt lat="44.37632" lon="5.16759">
        <ele>297</ele>
        <time>2020-07-11T04:41:18.581Z</time>
      </trkpt>
      <trkpt lat="44.37625" lon="5.16753">
        <ele>297</ele>
        <time>2020-07-11T04:41:19.581Z</time>
      </trkpt>
      <trkpt lat="44.37619" lon="5.1675">
        <ele>297</ele>
        <time>2020-07-11T04:41:20.581Z</time>
      </trkpt>
      <trkpt lat="44.37613" lon="5.16746">
        <ele>297</ele>
        <time>2020-07-11T04:41:21.582Z</time>
      </trkpt>
      <trkpt lat="44.37608" lon="5.16743">
        <ele>297</ele>
        <time>2020-07-11T04:41:22.582Z</time>
      </trkpt>
      <trkpt lat="44.37599" lon="5.16736">
        <ele>297</ele>
        <time>2020-07-11T04:41:23.581Z</time>
      </trkpt>
      <trkpt lat="44.37593" lon="5.16731">
        <ele>297</ele>
        <time>2020-07-11T04:41:24.581Z</time>
      </trkpt>
      <trkpt lat="44.37587" lon="5.16726">
        <ele>297</ele>
        <time>2020-07-11T04:41:25.581Z</time>
      </trkpt>
      <trkpt lat="44.37581" lon="5.16721">
        <ele>297</ele>
        <time>2020-07-11T04:41:26.581Z</time>
      </trkpt>
      <trkpt lat="44.37574" lon="5.16713">
        <ele>297</ele>
        <time>2020-07-11T04:41:27.581Z</time>
      </trkpt>
      <trkpt lat="44.37567" lon="5.16707">
        <ele>296</ele>
        <time>2020-07-11T04:41:28.582Z</time>
      </trkpt>
      <trkpt lat="44.37561" lon="5.167">
        <ele>296</ele>
        <time>2020-07-11T04:41:29.582Z</time>
      </trkpt>
      <trkpt lat="44.37554" lon="5.16692">
        <ele>296</ele>
        <time>2020-07-11T04:41:30.582Z</time>
      </trkpt>
      <trkpt lat="44.37549" lon="5.16685">
        <ele>296</ele>
        <time>2020-07-11T04:41:31.581Z</time>
      </trkpt>
      <trkpt lat="44.37542" lon="5.16678">
        <ele>295</ele>
        <time>2020-07-11T04:41:32.581Z</time>
      </trkpt>
      <trkpt lat="44.37536" lon="5.16671">
        <ele>295</ele>
        <time>2020-07-11T04:41:33.581Z</time>
      </trkpt>
      <trkpt lat="44.37529" lon="5.16665">
        <ele>295</ele>
        <time>2020-07-11T04:41:34.582Z</time>
      </trkpt>
      <trkpt lat="44.37523" lon="5.16658">
        <ele>295</ele>
        <time>2020-07-11T04:41:35.581Z</time>
      </trkpt>
      <trkpt lat="44.37518" lon="5.16654">
        <ele>296</ele>
        <time>2020-07-11T04:41:36.581Z</time>
      </trkpt>
      <trkpt lat="44.3751" lon="5.16646">
        <ele>296</ele>
        <time>2020-07-11T04:41:37.581Z</time>
      </trkpt>
      <trkpt lat="44.37505" lon="5.16641">
        <ele>296</ele>
        <time>2020-07-11T04:41:38.582Z</time>
      </trkpt>
      <trkpt lat="44.37498" lon="5.16635">
        <ele>295</ele>
        <time>2020-07-11T04:41:39.581Z</time>
      </trkpt>
      <trkpt lat="44.37492" lon="5.16629">
        <ele>295</ele>
        <time>2020-07-11T04:41:40.581Z</time>
      </trkpt>
      <trkpt lat="44.37485" lon="5.16622">
        <ele>295</ele>
        <time>2020-07-11T04:41:41.581Z</time>
      </trkpt>
      <trkpt lat="44.37478" lon="5.16615">
        <ele>295</ele>
        <time>2020-07-11T04:41:42.581Z</time>
      </trkpt>
      <trkpt lat="44.37472" lon="5.16608">
        <ele>295</ele>
        <time>2020-07-11T04:41:43.581Z</time>
      </trkpt>
      <trkpt lat="44.37468" lon="5.16602">
        <ele>295</ele>
        <time>2020-07-11T04:41:44.581Z</time>
      </trkpt>
      <trkpt lat="44.37461" lon="5.16593">
        <ele>295</ele>
        <time>2020-07-11T04:41:45.582Z</time>
      </trkpt>
      <trkpt lat="44.37456" lon="5.16585">
        <ele>295</ele>
        <time>2020-07-11T04:41:46.581Z</time>
      </trkpt>
      <trkpt lat="44.37453" lon="5.16579">
        <ele>294</ele>
        <time>2020-07-11T04:41:47.581Z</time>
      </trkpt>
      <trkpt lat="44.37448" lon="5.1657">
        <ele>294</ele>
        <time>2020-07-11T04:41:48.581Z</time>
      </trkpt>
      <trkpt lat="44.37444" lon="5.16562">
        <ele>294</ele>
        <time>2020-07-11T04:41:49.581Z</time>
      </trkpt>
      <trkpt lat="44.37439" lon="5.16552">
        <ele>294</ele>
        <time>2020-07-11T04:41:50.581Z</time>
      </trkpt>
      <trkpt lat="44.37434" lon="5.16543">
        <ele>293</ele>
        <time>2020-07-11T04:41:51.581Z</time>
      </trkpt>
      <trkpt lat="44.3743" lon="5.16535">
        <ele>293</ele>
        <time>2020-07-11T04:41:52.581Z</time>
      </trkpt>
      <trkpt lat="44.37426" lon="5.16529">
        <ele>293</ele>
        <time>2020-07-11T04:41:53.581Z</time>
      </trkpt>
      <trkpt lat="44.37419" lon="5.1652">
        <ele>292</ele>
        <time>2020-07-11T04:41:54.581Z</time>
      </trkpt>
      <trkpt lat="44.37413" lon="5.16514">
        <ele>291</ele>
        <time>2020-07-11T04:41:55.582Z</time>
      </trkpt>
      <trkpt lat="44.37407" lon="5.16509">
        <ele>291</ele>
        <time>2020-07-11T04:41:56.581Z</time>
      </trkpt>
      <trkpt lat="44.37402" lon="5.16505">
        <ele>290</ele>
        <time>2020-07-11T04:41:57.582Z</time>
      </trkpt>
      <trkpt lat="44.37395" lon="5.165">
        <ele>290</ele>
        <time>2020-07-11T04:41:58.581Z</time>
      </trkpt>
      <trkpt lat="44.37387" lon="5.16494">
        <ele>290</ele>
        <time>2020-07-11T04:41:59.582Z</time>
      </trkpt>
      <trkpt lat="44.37382" lon="5.1649">
        <ele>290</ele>
        <time>2020-07-11T04:42:00.582Z</time>
      </trkpt>
      <trkpt lat="44.37376" lon="5.16486">
        <ele>290</ele>
        <time>2020-07-11T04:42:01.581Z</time>
      </trkpt>
      <trkpt lat="44.37369" lon="5.1648">
        <ele>290</ele>
        <time>2020-07-11T04:42:02.582Z</time>
      </trkpt>
      <trkpt lat="44.37363" lon="5.16475">
        <ele>290</ele>
        <time>2020-07-11T04:42:03.581Z</time>
      </trkpt>
      <trkpt lat="44.37357" lon="5.16469">
        <ele>291</ele>
        <time>2020-07-11T04:42:04.581Z</time>
      </trkpt>
      <trkpt lat="44.37349" lon="5.16462">
        <ele>291</ele>
        <time>2020-07-11T04:42:05.582Z</time>
      </trkpt>
      <trkpt lat="44.37344" lon="5.16457">
        <ele>291</ele>
        <time>2020-07-11T04:42:06.581Z</time>
      </trkpt>
      <trkpt lat="44.37339" lon="5.1645">
        <ele>291</ele>
        <time>2020-07-11T04:42:07.581Z</time>
      </trkpt>
      <trkpt lat="44.37333" lon="5.16444">
        <ele>291</ele>
        <time>2020-07-11T04:42:08.581Z</time>
      </trkpt>
      <trkpt lat="44.37328" lon="5.16437">
        <ele>291</ele>
        <time>2020-07-11T04:42:09.582Z</time>
      </trkpt>
      <trkpt lat="44.37322" lon="5.16429">
        <ele>291</ele>
        <time>2020-07-11T04:42:10.582Z</time>
      </trkpt>
      <trkpt lat="44.37318" lon="5.16422">
        <ele>292</ele>
        <time>2020-07-11T04:42:11.581Z</time>
      </trkpt>
      <trkpt lat="44.37313" lon="5.16413">
        <ele>292</ele>
        <time>2020-07-11T04:42:12.581Z</time>
      </trkpt>
      <trkpt lat="44.37308" lon="5.16405">
        <ele>292</ele>
        <time>2020-07-11T04:42:13.582Z</time>
      </trkpt>
      <trkpt lat="44.37304" lon="5.16395">
        <ele>292</ele>
        <time>2020-07-11T04:42:14.582Z</time>
      </trkpt>
      <trkpt lat="44.373" lon="5.16386">
        <ele>292</ele>
        <time>2020-07-11T04:42:15.582Z</time>
      </trkpt>
      <trkpt lat="44.37297" lon="5.16379">
        <ele>292</ele>
        <time>2020-07-11T04:42:16.582Z</time>
      </trkpt>
      <trkpt lat="44.37293" lon="5.1637">
        <ele>292</ele>
        <time>2020-07-11T04:42:17.581Z</time>
      </trkpt>
      <trkpt lat="44.37289" lon="5.16359">
        <ele>293</ele>
        <time>2020-07-11T04:42:18.582Z</time>
      </trkpt>
      <trkpt lat="44.37286" lon="5.1635">
        <ele>293</ele>
        <time>2020-07-11T04:42:19.582Z</time>
      </trkpt>
      <trkpt lat="44.37283" lon="5.16342">
        <ele>293</ele>
        <time>2020-07-11T04:42:20.581Z</time>
      </trkpt>
      <trkpt lat="44.37281" lon="5.16332">
        <ele>293</ele>
        <time>2020-07-11T04:42:21.581Z</time>
      </trkpt>
      <trkpt lat="44.37278" lon="5.16322">
        <ele>293</ele>
        <time>2020-07-11T04:42:22.581Z</time>
      </trkpt>
      <trkpt lat="44.37276" lon="5.16312">
        <ele>293</ele>
        <time>2020-07-11T04:42:23.581Z</time>
      </trkpt>
      <trkpt lat="44.37275" lon="5.16302">
        <ele>294</ele>
        <time>2020-07-11T04:42:24.581Z</time>
      </trkpt>
      <trkpt lat="44.37273" lon="5.16292">
        <ele>293</ele>
        <time>2020-07-11T04:42:25.581Z</time>
      </trkpt>
      <trkpt lat="44.37272" lon="5.16282">
        <ele>293</ele>
        <time>2020-07-11T04:42:26.581Z</time>
      </trkpt>
      <trkpt lat="44.37271" lon="5.16272">
        <ele>293</ele>
        <time>2020-07-11T04:42:27.582Z</time>
      </trkpt>
      <trkpt lat="44.3727" lon="5.16261">
        <ele>293</ele>
        <time>2020-07-11T04:42:28.581Z</time>
      </trkpt>
      <trkpt lat="44.37269" lon="5.1625">
        <ele>293</ele>
        <time>2020-07-11T04:42:29.582Z</time>
      </trkpt>
      <trkpt lat="44.37269" lon="5.1624">
        <ele>293</ele>
        <time>2020-07-11T04:42:30.582Z</time>
      </trkpt>
      <trkpt lat="44.3727" lon="5.16227">
        <ele>293</ele>
        <time>2020-07-11T04:42:31.581Z</time>
      </trkpt>
      <trkpt lat="44.37271" lon="5.16218">
        <ele>293</ele>
        <time>2020-07-11T04:42:32.582Z</time>
      </trkpt>
      <trkpt lat="44.37272" lon="5.16206">
        <ele>293</ele>
        <time>2020-07-11T04:42:33.581Z</time>
      </trkpt>
      <trkpt lat="44.37273" lon="5.16197">
        <ele>293</ele>
        <time>2020-07-11T04:42:34.581Z</time>
      </trkpt>
      <trkpt lat="44.37274" lon="5.16187">
        <ele>293</ele>
        <time>2020-07-11T04:42:35.581Z</time>
      </trkpt>
      <trkpt lat="44.37274" lon="5.16174">
        <ele>293</ele>
        <time>2020-07-11T04:42:36.581Z</time>
      </trkpt>
      <trkpt lat="44.37275" lon="5.16162">
        <ele>292</ele>
        <time>2020-07-11T04:42:37.581Z</time>
      </trkpt>
      <trkpt lat="44.37276" lon="5.16153">
        <ele>292</ele>
        <time>2020-07-11T04:42:38.581Z</time>
      </trkpt>
      <trkpt lat="44.37276" lon="5.1614">
        <ele>292</ele>
        <time>2020-07-11T04:42:39.581Z</time>
      </trkpt>
      <trkpt lat="44.37276" lon="5.16129">
        <ele>292</ele>
        <time>2020-07-11T04:42:40.581Z</time>
      </trkpt>
      <trkpt lat="44.37276" lon="5.16118">
        <ele>292</ele>
        <time>2020-07-11T04:42:41.581Z</time>
      </trkpt>
      <trkpt lat="44.37276" lon="5.16107">
        <ele>292</ele>
        <time>2020-07-11T04:42:42.581Z</time>
      </trkpt>
      <trkpt lat="44.37275" lon="5.16098">
        <ele>291</ele>
        <time>2020-07-11T04:42:43.581Z</time>
      </trkpt>
      <trkpt lat="44.37275" lon="5.16085">
        <ele>291</ele>
        <time>2020-07-11T04:42:44.581Z</time>
      </trkpt>
      <trkpt lat="44.37274" lon="5.16075">
        <ele>291</ele>
        <time>2020-07-11T04:42:45.582Z</time>
      </trkpt>
      <trkpt lat="44.37273" lon="5.16066">
        <ele>291</ele>
        <time>2020-07-11T04:42:46.582Z</time>
      </trkpt>
      <trkpt lat="44.37271" lon="5.16053">
        <ele>291</ele>
        <time>2020-07-11T04:42:47.582Z</time>
      </trkpt>
      <trkpt lat="44.3727" lon="5.16042">
        <ele>291</ele>
        <time>2020-07-11T04:42:48.581Z</time>
      </trkpt>
      <trkpt lat="44.37269" lon="5.16031">
        <ele>291</ele>
        <time>2020-07-11T04:42:49.582Z</time>
      </trkpt>
      <trkpt lat="44.37267" lon="5.16019">
        <ele>291</ele>
        <time>2020-07-11T04:42:50.582Z</time>
      </trkpt>
      <trkpt lat="44.37266" lon="5.16007">
        <ele>291</ele>
        <time>2020-07-11T04:42:51.581Z</time>
      </trkpt>
      <trkpt lat="44.37266" lon="5.15998">
        <ele>291</ele>
        <time>2020-07-11T04:42:52.581Z</time>
      </trkpt>
      <trkpt lat="44.37267" lon="5.15985">
        <ele>291</ele>
        <time>2020-07-11T04:42:53.581Z</time>
      </trkpt>
      <trkpt lat="44.37268" lon="5.15974">
        <ele>291</ele>
        <time>2020-07-11T04:42:54.581Z</time>
      </trkpt>
      <trkpt lat="44.37269" lon="5.15963">
        <ele>290</ele>
        <time>2020-07-11T04:42:55.581Z</time>
      </trkpt>
      <trkpt lat="44.37269" lon="5.15953">
        <ele>290</ele>
        <time>2020-07-11T04:42:56.581Z</time>
      </trkpt>
      <trkpt lat="44.37269" lon="5.15942">
        <ele>290</ele>
        <time>2020-07-11T04:42:57.581Z</time>
      </trkpt>
      <trkpt lat="44.37268" lon="5.15931">
        <ele>289</ele>
        <time>2020-07-11T04:42:58.581Z</time>
      </trkpt>
      <trkpt lat="44.37268" lon="5.15921">
        <ele>289</ele>
        <time>2020-07-11T04:42:59.581Z</time>
      </trkpt>
      <trkpt lat="44.37267" lon="5.15911">
        <ele>288</ele>
        <time>2020-07-11T04:43:00.581Z</time>
      </trkpt>
      <trkpt lat="44.37265" lon="5.159">
        <ele>288</ele>
        <time>2020-07-11T04:43:01.582Z</time>
      </trkpt>
      <trkpt lat="44.37264" lon="5.1589">
        <ele>288</ele>
        <time>2020-07-11T04:43:02.581Z</time>
      </trkpt>
      <trkpt lat="44.37264" lon="5.15879">
        <ele>288</ele>
        <time>2020-07-11T04:43:03.582Z</time>
      </trkpt>
      <trkpt lat="44.37263" lon="5.15869">
        <ele>288</ele>
        <time>2020-07-11T04:43:04.581Z</time>
      </trkpt>
      <trkpt lat="44.37262" lon="5.15859">
        <ele>288</ele>
        <time>2020-07-11T04:43:05.582Z</time>
      </trkpt>
      <trkpt lat="44.37261" lon="5.15848">
        <ele>287</ele>
        <time>2020-07-11T04:43:06.581Z</time>
      </trkpt>
      <trkpt lat="44.3726" lon="5.15838">
        <ele>287</ele>
        <time>2020-07-11T04:43:07.581Z</time>
      </trkpt>
      <trkpt lat="44.37259" lon="5.15828">
        <ele>287</ele>
        <time>2020-07-11T04:43:08.581Z</time>
      </trkpt>
      <trkpt lat="44.37258" lon="5.15817">
        <ele>287</ele>
        <time>2020-07-11T04:43:09.582Z</time>
      </trkpt>
      <trkpt lat="44.37257" lon="5.15807">
        <ele>287</ele>
        <time>2020-07-11T04:43:10.581Z</time>
      </trkpt>
      <trkpt lat="44.37256" lon="5.15797">
        <ele>287</ele>
        <time>2020-07-11T04:43:11.581Z</time>
      </trkpt>
      <trkpt lat="44.37255" lon="5.15787">
        <ele>287</ele>
        <time>2020-07-11T04:43:12.582Z</time>
      </trkpt>
      <trkpt lat="44.37255" lon="5.15776">
        <ele>287</ele>
        <time>2020-07-11T04:43:13.582Z</time>
      </trkpt>
      <trkpt lat="44.37255" lon="5.15766">
        <ele>287</ele>
        <time>2020-07-11T04:43:14.581Z</time>
      </trkpt>
      <trkpt lat="44.37255" lon="5.15758">
        <ele>287</ele>
        <time>2020-07-11T04:43:15.581Z</time>
      </trkpt>
      <trkpt lat="44.37256" lon="5.15745">
        <ele>287</ele>
        <time>2020-07-11T04:43:16.581Z</time>
      </trkpt>
      <trkpt lat="44.37256" lon="5.15735">
        <ele>286</ele>
        <time>2020-07-11T04:43:17.581Z</time>
      </trkpt>
      <trkpt lat="44.37256" lon="5.15725">
        <ele>286</ele>
        <time>2020-07-11T04:43:18.581Z</time>
      </trkpt>
      <trkpt lat="44.37255" lon="5.15715">
        <ele>285</ele>
        <time>2020-07-11T04:43:19.581Z</time>
      </trkpt>
      <trkpt lat="44.37254" lon="5.15707">
        <ele>285</ele>
        <time>2020-07-11T04:43:20.581Z</time>
      </trkpt>
      <trkpt lat="44.37253" lon="5.15695">
        <ele>285</ele>
        <time>2020-07-11T04:43:21.581Z</time>
      </trkpt>
      <trkpt lat="44.37251" lon="5.15685">
        <ele>285</ele>
        <time>2020-07-11T04:43:22.581Z</time>
      </trkpt>
      <trkpt lat="44.37249" lon="5.15675">
        <ele>285</ele>
        <time>2020-07-11T04:43:23.581Z</time>
      </trkpt>
      <trkpt lat="44.37248" lon="5.15667">
        <ele>285</ele>
        <time>2020-07-11T04:43:24.582Z</time>
      </trkpt>
      <trkpt lat="44.37245" lon="5.15655">
        <ele>285</ele>
        <time>2020-07-11T04:43:25.581Z</time>
      </trkpt>
      <trkpt lat="44.37242" lon="5.15646">
        <ele>285</ele>
        <time>2020-07-11T04:43:26.582Z</time>
      </trkpt>
      <trkpt lat="44.37241" lon="5.15635">
        <ele>285</ele>
        <time>2020-07-11T04:43:27.581Z</time>
      </trkpt>
      <trkpt lat="44.37239" lon="5.15625">
        <ele>285</ele>
        <time>2020-07-11T04:43:28.582Z</time>
      </trkpt>
      <trkpt lat="44.37237" lon="5.15614">
        <ele>285</ele>
        <time>2020-07-11T04:43:29.582Z</time>
      </trkpt>
      <trkpt lat="44.37236" lon="5.15603">
        <ele>285</ele>
        <time>2020-07-11T04:43:30.581Z</time>
      </trkpt>
      <trkpt lat="44.37234" lon="5.15593">
        <ele>285</ele>
        <time>2020-07-11T04:43:31.582Z</time>
      </trkpt>
      <trkpt lat="44.37233" lon="5.15582">
        <ele>285</ele>
        <time>2020-07-11T04:43:32.581Z</time>
      </trkpt>
      <trkpt lat="44.37231" lon="5.15571">
        <ele>285</ele>
        <time>2020-07-11T04:43:33.582Z</time>
      </trkpt>
      <trkpt lat="44.37229" lon="5.1556">
        <ele>285</ele>
        <time>2020-07-11T04:43:34.582Z</time>
      </trkpt>
      <trkpt lat="44.37226" lon="5.1555">
        <ele>284</ele>
        <time>2020-07-11T04:43:35.581Z</time>
      </trkpt>
      <trkpt lat="44.37224" lon="5.1554">
        <ele>284</ele>
        <time>2020-07-11T04:43:36.581Z</time>
      </trkpt>
      <trkpt lat="44.37222" lon="5.15529">
        <ele>284</ele>
        <time>2020-07-11T04:43:37.581Z</time>
      </trkpt>
      <trkpt lat="44.37219" lon="5.15519">
        <ele>284</ele>
        <time>2020-07-11T04:43:38.581Z</time>
      </trkpt>
      <trkpt lat="44.37217" lon="5.15508">
        <ele>284</ele>
        <time>2020-07-11T04:43:39.582Z</time>
      </trkpt>
      <trkpt lat="44.37215" lon="5.15497">
        <ele>283</ele>
        <time>2020-07-11T04:43:40.582Z</time>
      </trkpt>
      <trkpt lat="44.37213" lon="5.15486">
        <ele>283</ele>
        <time>2020-07-11T04:43:41.582Z</time>
      </trkpt>
      <trkpt lat="44.37211" lon="5.15475">
        <ele>283</ele>
        <time>2020-07-11T04:43:42.581Z</time>
      </trkpt>
      <trkpt lat="44.3721" lon="5.15463">
        <ele>282</ele>
        <time>2020-07-11T04:43:43.581Z</time>
      </trkpt>
      <trkpt lat="44.37208" lon="5.15452">
        <ele>282</ele>
        <time>2020-07-11T04:43:44.581Z</time>
      </trkpt>
      <trkpt lat="44.37206" lon="5.15441">
        <ele>282</ele>
        <time>2020-07-11T04:43:45.581Z</time>
      </trkpt>
      <trkpt lat="44.37205" lon="5.15429">
        <ele>282</ele>
        <time>2020-07-11T04:43:46.582Z</time>
      </trkpt>
      <trkpt lat="44.37203" lon="5.15418">
        <ele>282</ele>
        <time>2020-07-11T04:43:47.581Z</time>
      </trkpt>
      <trkpt lat="44.37202" lon="5.15406">
        <ele>282</ele>
        <time>2020-07-11T04:43:48.581Z</time>
      </trkpt>
      <trkpt lat="44.372" lon="5.15395">
        <ele>281</ele>
        <time>2020-07-11T04:43:49.581Z</time>
      </trkpt>
      <trkpt lat="44.37199" lon="5.15385">
        <ele>281</ele>
        <time>2020-07-11T04:43:50.581Z</time>
      </trkpt>
      <trkpt lat="44.37196" lon="5.15372">
        <ele>281</ele>
        <time>2020-07-11T04:43:51.581Z</time>
      </trkpt>
      <trkpt lat="44.37194" lon="5.15361">
        <ele>280</ele>
        <time>2020-07-11T04:43:52.581Z</time>
      </trkpt>
      <trkpt lat="44.37192" lon="5.1535">
        <ele>280</ele>
        <time>2020-07-11T04:43:53.582Z</time>
      </trkpt>
      <trkpt lat="44.3719" lon="5.15339">
        <ele>279</ele>
        <time>2020-07-11T04:43:54.581Z</time>
      </trkpt>
      <trkpt lat="44.37187" lon="5.15331">
        <ele>279</ele>
        <time>2020-07-11T04:43:55.582Z</time>
      </trkpt>
      <trkpt lat="44.37184" lon="5.15319">
        <ele>279</ele>
        <time>2020-07-11T04:43:56.581Z</time>
      </trkpt>
      <trkpt lat="44.37181" lon="5.15309">
        <ele>278</ele>
        <time>2020-07-11T04:43:57.581Z</time>
      </trkpt>
      <trkpt lat="44.37178" lon="5.15299">
        <ele>278</ele>
        <time>2020-07-11T04:43:58.581Z</time>
      </trkpt>
      <trkpt lat="44.37176" lon="5.15291">
        <ele>279</ele>
        <time>2020-07-11T04:43:59.581Z</time>
      </trkpt>
      <trkpt lat="44.37172" lon="5.15279">
        <ele>279</ele>
        <time>2020-07-11T04:44:00.581Z</time>
      </trkpt>
      <trkpt lat="44.3717" lon="5.15271">
        <ele>279</ele>
        <time>2020-07-11T04:44:01.581Z</time>
      </trkpt>
      <trkpt lat="44.37167" lon="5.15261">
        <ele>279</ele>
        <time>2020-07-11T04:44:02.581Z</time>
      </trkpt>
      <trkpt lat="44.37165" lon="5.15251">
        <ele>280</ele>
        <time>2020-07-11T04:44:03.582Z</time>
      </trkpt>
      <trkpt lat="44.37161" lon="5.15241">
        <ele>280</ele>
        <time>2020-07-11T04:44:04.581Z</time>
      </trkpt>
      <trkpt lat="44.37158" lon="5.15231">
        <ele>280</ele>
        <time>2020-07-11T04:44:05.581Z</time>
      </trkpt>
      <trkpt lat="44.37154" lon="5.1522">
        <ele>280</ele>
        <time>2020-07-11T04:44:06.582Z</time>
      </trkpt>
      <trkpt lat="44.37151" lon="5.15211">
        <ele>280</ele>
        <time>2020-07-11T04:44:07.582Z</time>
      </trkpt>
      <trkpt lat="44.37148" lon="5.15203">
        <ele>280</ele>
        <time>2020-07-11T04:44:08.581Z</time>
      </trkpt>
      <trkpt lat="44.37143" lon="5.15194">
        <ele>281</ele>
        <time>2020-07-11T04:44:09.581Z</time>
      </trkpt>
      <trkpt lat="44.37139" lon="5.15186">
        <ele>281</ele>
        <time>2020-07-11T04:44:10.581Z</time>
      </trkpt>
      <trkpt lat="44.37134" lon="5.15178">
        <ele>281</ele>
        <time>2020-07-11T04:44:11.581Z</time>
      </trkpt>
      <trkpt lat="44.37129" lon="5.1517">
        <ele>281</ele>
        <time>2020-07-11T04:44:12.582Z</time>
      </trkpt>
      <trkpt lat="44.37123" lon="5.15162">
        <ele>281</ele>
        <time>2020-07-11T04:44:13.582Z</time>
      </trkpt>
      <trkpt lat="44.37118" lon="5.15155">
        <ele>281</ele>
        <time>2020-07-11T04:44:14.581Z</time>
      </trkpt>
      <trkpt lat="44.37112" lon="5.15148">
        <ele>281</ele>
        <time>2020-07-11T04:44:15.582Z</time>
      </trkpt>
      <trkpt lat="44.37105" lon="5.15141">
        <ele>281</ele>
        <time>2020-07-11T04:44:16.581Z</time>
      </trkpt>
      <trkpt lat="44.371" lon="5.15136">
        <ele>282</ele>
        <time>2020-07-11T04:44:17.582Z</time>
      </trkpt>
      <trkpt lat="44.37093" lon="5.15131">
        <ele>282</ele>
        <time>2020-07-11T04:44:18.582Z</time>
      </trkpt>
      <trkpt lat="44.37086" lon="5.15126">
        <ele>282</ele>
        <time>2020-07-11T04:44:19.582Z</time>
      </trkpt>
      <trkpt lat="44.37079" lon="5.15122">
        <ele>282</ele>
        <time>2020-07-11T04:44:20.582Z</time>
      </trkpt>
      <trkpt lat="44.37072" lon="5.15119">
        <ele>282</ele>
        <time>2020-07-11T04:44:21.582Z</time>
      </trkpt>
      <trkpt lat="44.37066" lon="5.15117">
        <ele>282</ele>
        <time>2020-07-11T04:44:22.582Z</time>
      </trkpt>
      <trkpt lat="44.3706" lon="5.15115">
        <ele>282</ele>
        <time>2020-07-11T04:44:23.581Z</time>
      </trkpt>
      <trkpt lat="44.37053" lon="5.15112">
        <ele>282</ele>
        <time>2020-07-11T04:44:24.581Z</time>
      </trkpt>
      <trkpt lat="44.37045" lon="5.15109">
        <ele>282</ele>
        <time>2020-07-11T04:44:25.581Z</time>
      </trkpt>
      <trkpt lat="44.3704" lon="5.15107">
        <ele>282</ele>
        <time>2020-07-11T04:44:26.582Z</time>
      </trkpt>
      <trkpt lat="44.37034" lon="5.15105">
        <ele>282</ele>
        <time>2020-07-11T04:44:27.581Z</time>
      </trkpt>
      <trkpt lat="44.37026" lon="5.15102">
        <ele>282</ele>
        <time>2020-07-11T04:44:28.581Z</time>
      </trkpt>
      <trkpt lat="44.37021" lon="5.151">
        <ele>282</ele>
        <time>2020-07-11T04:44:29.581Z</time>
      </trkpt>
      <trkpt lat="44.37014" lon="5.15098">
        <ele>282</ele>
        <time>2020-07-11T04:44:30.581Z</time>
      </trkpt>
      <trkpt lat="44.37007" lon="5.15096">
        <ele>283</ele>
        <time>2020-07-11T04:44:31.581Z</time>
      </trkpt>
      <trkpt lat="44.37" lon="5.15095">
        <ele>283</ele>
        <time>2020-07-11T04:44:32.581Z</time>
      </trkpt>
      <trkpt lat="44.36993" lon="5.15093">
        <ele>283</ele>
        <time>2020-07-11T04:44:33.581Z</time>
      </trkpt>
      <trkpt lat="44.36985" lon="5.15091">
        <ele>283</ele>
        <time>2020-07-11T04:44:34.581Z</time>
      </trkpt>
      <trkpt lat="44.3698" lon="5.1509">
        <ele>284</ele>
        <time>2020-07-11T04:44:35.581Z</time>
      </trkpt>
      <trkpt lat="44.36973" lon="5.15089">
        <ele>284</ele>
        <time>2020-07-11T04:44:36.582Z</time>
      </trkpt>
      <trkpt lat="44.36966" lon="5.15087">
        <ele>284</ele>
        <time>2020-07-11T04:44:37.582Z</time>
      </trkpt>
      <trkpt lat="44.36959" lon="5.15086">
        <ele>284</ele>
        <time>2020-07-11T04:44:38.581Z</time>
      </trkpt>
      <trkpt lat="44.36952" lon="5.15084">
        <ele>284</ele>
        <time>2020-07-11T04:44:39.582Z</time>
      </trkpt>
      <trkpt lat="44.36946" lon="5.15082">
        <ele>284</ele>
        <time>2020-07-11T04:44:40.581Z</time>
      </trkpt>
      <trkpt lat="44.36939" lon="5.15081">
        <ele>284</ele>
        <time>2020-07-11T04:44:41.581Z</time>
      </trkpt>
      <trkpt lat="44.36932" lon="5.15079">
        <ele>284</ele>
        <time>2020-07-11T04:44:42.582Z</time>
      </trkpt>
      <trkpt lat="44.36925" lon="5.15077">
        <ele>284</ele>
        <time>2020-07-11T04:44:43.581Z</time>
      </trkpt>
      <trkpt lat="44.36919" lon="5.15076">
        <ele>284</ele>
        <time>2020-07-11T04:44:44.582Z</time>
      </trkpt>
      <trkpt lat="44.36912" lon="5.15074">
        <ele>284</ele>
        <time>2020-07-11T04:44:45.582Z</time>
      </trkpt>
      <trkpt lat="44.36906" lon="5.15072">
        <ele>284</ele>
        <time>2020-07-11T04:44:46.582Z</time>
      </trkpt>
      <trkpt lat="44.36899" lon="5.15071">
        <ele>284</ele>
        <time>2020-07-11T04:44:47.581Z</time>
      </trkpt>
      <trkpt lat="44.36893" lon="5.15069">
        <ele>284</ele>
        <time>2020-07-11T04:44:48.581Z</time>
      </trkpt>
      <trkpt lat="44.36886" lon="5.15067">
        <ele>284</ele>
        <time>2020-07-11T04:44:49.582Z</time>
      </trkpt>
      <trkpt lat="44.3688" lon="5.15066">
        <ele>284</ele>
        <time>2020-07-11T04:44:50.582Z</time>
      </trkpt>
      <trkpt lat="44.36874" lon="5.15066">
        <ele>284</ele>
        <time>2020-07-11T04:44:51.581Z</time>
      </trkpt>
      <trkpt lat="44.36868" lon="5.15065">
        <ele>284</ele>
        <time>2020-07-11T04:44:52.581Z</time>
      </trkpt>
      <trkpt lat="44.36861" lon="5.15065">
        <ele>284</ele>
        <time>2020-07-11T04:44:53.582Z</time>
      </trkpt>
      <trkpt lat="44.36855" lon="5.15065">
        <ele>284</ele>
        <time>2020-07-11T04:44:54.582Z</time>
      </trkpt>
      <trkpt lat="44.36849" lon="5.15066">
        <ele>284</ele>
        <time>2020-07-11T04:44:55.582Z</time>
      </trkpt>
      <trkpt lat="44.36842" lon="5.15068">
        <ele>284</ele>
        <time>2020-07-11T04:44:56.581Z</time>
      </trkpt>
      <trkpt lat="44.36836" lon="5.1507">
        <ele>285</ele>
        <time>2020-07-11T04:44:57.581Z</time>
      </trkpt>
      <trkpt lat="44.36829" lon="5.15072">
        <ele>285</ele>
        <time>2020-07-11T04:44:58.582Z</time>
      </trkpt>
      <trkpt lat="44.36822" lon="5.15074">
        <ele>285</ele>
        <time>2020-07-11T04:44:59.581Z</time>
      </trkpt>
      <trkpt lat="44.36816" lon="5.15076">
        <ele>285</ele>
        <time>2020-07-11T04:45:00.582Z</time>
      </trkpt>
      <trkpt lat="44.36809" lon="5.15077">
        <ele>286</ele>
        <time>2020-07-11T04:45:01.581Z</time>
      </trkpt>
      <trkpt lat="44.36802" lon="5.15078">
        <ele>286</ele>
        <time>2020-07-11T04:45:02.581Z</time>
      </trkpt>
      <trkpt lat="44.36796" lon="5.15078">
        <ele>286</ele>
        <time>2020-07-11T04:45:03.582Z</time>
      </trkpt>
      <trkpt lat="44.3679" lon="5.15079">
        <ele>287</ele>
        <time>2020-07-11T04:45:04.581Z</time>
      </trkpt>
      <trkpt lat="44.36783" lon="5.15079">
        <ele>287</ele>
        <time>2020-07-11T04:45:05.582Z</time>
      </trkpt>
      <trkpt lat="44.36777" lon="5.15079">
        <ele>287</ele>
        <time>2020-07-11T04:45:06.581Z</time>
      </trkpt>
      <trkpt lat="44.3677" lon="5.1508">
        <ele>288</ele>
        <time>2020-07-11T04:45:07.581Z</time>
      </trkpt>
      <trkpt lat="44.36763" lon="5.1508">
        <ele>288</ele>
        <time>2020-07-11T04:45:08.581Z</time>
      </trkpt>
      <trkpt lat="44.36756" lon="5.15081">
        <ele>288</ele>
        <time>2020-07-11T04:45:09.581Z</time>
      </trkpt>
      <trkpt lat="44.36749" lon="5.15082">
        <ele>289</ele>
        <time>2020-07-11T04:45:10.581Z</time>
      </trkpt>
      <trkpt lat="44.36743" lon="5.15085">
        <ele>289</ele>
        <time>2020-07-11T04:45:11.582Z</time>
      </trkpt>
      <trkpt lat="44.36736" lon="5.15088">
        <ele>289</ele>
        <time>2020-07-11T04:45:12.582Z</time>
      </trkpt>
      <trkpt lat="44.3673" lon="5.15092">
        <ele>289</ele>
        <time>2020-07-11T04:45:13.581Z</time>
      </trkpt>
      <trkpt lat="44.36724" lon="5.15097">
        <ele>290</ele>
        <time>2020-07-11T04:45:14.581Z</time>
      </trkpt>
      <trkpt lat="44.36719" lon="5.15103">
        <ele>290</ele>
        <time>2020-07-11T04:45:15.581Z</time>
      </trkpt>
      <trkpt lat="44.36713" lon="5.15109">
        <ele>290</ele>
        <time>2020-07-11T04:45:16.582Z</time>
      </trkpt>
      <trkpt lat="44.36708" lon="5.15115">
        <ele>291</ele>
        <time>2020-07-11T04:45:17.581Z</time>
      </trkpt>
      <trkpt lat="44.36703" lon="5.15122">
        <ele>291</ele>
        <time>2020-07-11T04:45:18.582Z</time>
      </trkpt>
      <trkpt lat="44.36698" lon="5.15129">
        <ele>292</ele>
        <time>2020-07-11T04:45:19.581Z</time>
      </trkpt>
      <trkpt lat="44.36692" lon="5.15136">
        <ele>292</ele>
        <time>2020-07-11T04:45:20.581Z</time>
      </trkpt>
      <trkpt lat="44.36687" lon="5.15145">
        <ele>292</ele>
        <time>2020-07-11T04:45:21.581Z</time>
      </trkpt>
      <trkpt lat="44.36683" lon="5.15153">
        <ele>292</ele>
        <time>2020-07-11T04:45:22.582Z</time>
      </trkpt>
      <trkpt lat="44.36678" lon="5.15162">
        <ele>292</ele>
        <time>2020-07-11T04:45:23.582Z</time>
      </trkpt>
      <trkpt lat="44.36674" lon="5.15171">
        <ele>291</ele>
        <time>2020-07-11T04:45:24.581Z</time>
      </trkpt>
      <trkpt lat="44.36669" lon="5.15181">
        <ele>291</ele>
        <time>2020-07-11T04:45:25.581Z</time>
      </trkpt>
      <trkpt lat="44.36664" lon="5.15192">
        <ele>291</ele>
        <time>2020-07-11T04:45:26.581Z</time>
      </trkpt>
      <trkpt lat="44.3666" lon="5.152">
        <ele>291</ele>
        <time>2020-07-11T04:45:27.582Z</time>
      </trkpt>
      <trkpt lat="44.36656" lon="5.1521">
        <ele>290</ele>
        <time>2020-07-11T04:45:28.582Z</time>
      </trkpt>
      <trkpt lat="44.36652" lon="5.1522">
        <ele>290</ele>
        <time>2020-07-11T04:45:29.582Z</time>
      </trkpt>
      <trkpt lat="44.36647" lon="5.15231">
        <ele>290</ele>
        <time>2020-07-11T04:45:30.582Z</time>
      </trkpt>
      <trkpt lat="44.36642" lon="5.15242">
        <ele>290</ele>
        <time>2020-07-11T04:45:31.582Z</time>
      </trkpt>
      <trkpt lat="44.36638" lon="5.15253">
        <ele>290</ele>
        <time>2020-07-11T04:45:32.581Z</time>
      </trkpt>
      <trkpt lat="44.36633" lon="5.15263">
        <ele>290</ele>
        <time>2020-07-11T04:45:33.581Z</time>
      </trkpt>
      <trkpt lat="44.36628" lon="5.15274">
        <ele>290</ele>
        <time>2020-07-11T04:45:34.582Z</time>
      </trkpt>
      <trkpt lat="44.36621" lon="5.15287">
        <ele>290</ele>
        <time>2020-07-11T04:45:35.582Z</time>
      </trkpt>
      <trkpt lat="44.36616" lon="5.15295">
        <ele>289</ele>
        <time>2020-07-11T04:45:36.581Z</time>
      </trkpt>
      <trkpt lat="44.3661" lon="5.15305">
        <ele>289</ele>
        <time>2020-07-11T04:45:37.582Z</time>
      </trkpt>
      <trkpt lat="44.36603" lon="5.15315">
        <ele>289</ele>
        <time>2020-07-11T04:45:38.581Z</time>
      </trkpt>
      <trkpt lat="44.36594" lon="5.15326">
        <ele>288</ele>
        <time>2020-07-11T04:45:39.582Z</time>
      </trkpt>
      <trkpt lat="44.36588" lon="5.15332">
        <ele>288</ele>
        <time>2020-07-11T04:45:40.581Z</time>
      </trkpt>
      <trkpt lat="44.36579" lon="5.15339">
        <ele>288</ele>
        <time>2020-07-11T04:45:41.581Z</time>
      </trkpt>
      <trkpt lat="44.36571" lon="5.15346">
        <ele>287</ele>
        <time>2020-07-11T04:45:42.581Z</time>
      </trkpt>
      <trkpt lat="44.36561" lon="5.15352">
        <ele>286</ele>
        <time>2020-07-11T04:45:43.581Z</time>
      </trkpt>
      <trkpt lat="44.3655" lon="5.15358">
        <ele>285</ele>
        <time>2020-07-11T04:45:44.581Z</time>
      </trkpt>
      <trkpt lat="44.36539" lon="5.15362">
        <ele>285</ele>
        <time>2020-07-11T04:45:45.581Z</time>
      </trkpt>
      <trkpt lat="44.36531" lon="5.15363">
        <ele>284</ele>
        <time>2020-07-11T04:45:46.582Z</time>
      </trkpt>
      <trkpt lat="44.36518" lon="5.15364">
        <ele>283</ele>
        <time>2020-07-11T04:45:47.582Z</time>
      </trkpt>
      <trkpt lat="44.36509" lon="5.15364">
        <ele>283</ele>
        <time>2020-07-11T04:45:48.581Z</time>
      </trkpt>
      <trkpt lat="44.36496" lon="5.15362">
        <ele>282</ele>
        <time>2020-07-11T04:45:49.582Z</time>
      </trkpt>
      <trkpt lat="44.36488" lon="5.15359">
        <ele>282</ele>
        <time>2020-07-11T04:45:50.582Z</time>
      </trkpt>
      <trkpt lat="44.36478" lon="5.15355">
        <ele>281</ele>
        <time>2020-07-11T04:45:51.582Z</time>
      </trkpt>
      <trkpt lat="44.36466" lon="5.15349">
        <ele>280</ele>
        <time>2020-07-11T04:45:52.581Z</time>
      </trkpt>
      <trkpt lat="44.36456" lon="5.15342">
        <ele>280</ele>
        <time>2020-07-11T04:45:53.581Z</time>
      </trkpt>
      <trkpt lat="44.36447" lon="5.15334">
        <ele>279</ele>
        <time>2020-07-11T04:45:54.582Z</time>
      </trkpt>
      <trkpt lat="44.3644" lon="5.15327">
        <ele>279</ele>
        <time>2020-07-11T04:45:55.581Z</time>
      </trkpt>
      <trkpt lat="44.3643" lon="5.15317">
        <ele>279</ele>
        <time>2020-07-11T04:45:56.581Z</time>
      </trkpt>
      <trkpt lat="44.36422" lon="5.15308">
        <ele>279</ele>
        <time>2020-07-11T04:45:57.581Z</time>
      </trkpt>
      <trkpt lat="44.36414" lon="5.15298">
        <ele>279</ele>
        <time>2020-07-11T04:45:58.581Z</time>
      </trkpt>
      <trkpt lat="44.36408" lon="5.15291">
        <ele>279</ele>
        <time>2020-07-11T04:45:59.581Z</time>
      </trkpt>
      <trkpt lat="44.36399" lon="5.15279">
        <ele>278</ele>
        <time>2020-07-11T04:46:00.581Z</time>
      </trkpt>
      <trkpt lat="44.36391" lon="5.1527">
        <ele>278</ele>
        <time>2020-07-11T04:46:01.582Z</time>
      </trkpt>
      <trkpt lat="44.36384" lon="5.15261">
        <ele>278</ele>
        <time>2020-07-11T04:46:02.581Z</time>
      </trkpt>
      <trkpt lat="44.36376" lon="5.15252">
        <ele>278</ele>
        <time>2020-07-11T04:46:03.581Z</time>
      </trkpt>
      <trkpt lat="44.36369" lon="5.15243">
        <ele>277</ele>
        <time>2020-07-11T04:46:04.582Z</time>
      </trkpt>
      <trkpt lat="44.36362" lon="5.15234">
        <ele>276</ele>
        <time>2020-07-11T04:46:05.581Z</time>
      </trkpt>
      <trkpt lat="44.36355" lon="5.15225">
        <ele>276</ele>
        <time>2020-07-11T04:46:06.581Z</time>
      </trkpt>
      <trkpt lat="44.36348" lon="5.15215">
        <ele>275</ele>
        <time>2020-07-11T04:46:07.582Z</time>
      </trkpt>
      <trkpt lat="44.3634" lon="5.15206">
        <ele>275</ele>
        <time>2020-07-11T04:46:08.582Z</time>
      </trkpt>
      <trkpt lat="44.36333" lon="5.15197">
        <ele>274</ele>
        <time>2020-07-11T04:46:09.581Z</time>
      </trkpt>
      <trkpt lat="44.36326" lon="5.15188">
        <ele>274</ele>
        <time>2020-07-11T04:46:10.582Z</time>
      </trkpt>
      <trkpt lat="44.3632" lon="5.15181">
        <ele>274</ele>
        <time>2020-07-11T04:46:11.582Z</time>
      </trkpt>
      <trkpt lat="44.36313" lon="5.15172">
        <ele>273</ele>
        <time>2020-07-11T04:46:12.582Z</time>
      </trkpt>
      <trkpt lat="44.36306" lon="5.15163">
        <ele>273</ele>
        <time>2020-07-11T04:46:13.582Z</time>
      </trkpt>
      <trkpt lat="44.36299" lon="5.15154">
        <ele>273</ele>
        <time>2020-07-11T04:46:14.582Z</time>
      </trkpt>
      <trkpt lat="44.36291" lon="5.15144">
        <ele>272</ele>
        <time>2020-07-11T04:46:15.581Z</time>
      </trkpt>
      <trkpt lat="44.36284" lon="5.15135">
        <ele>272</ele>
        <time>2020-07-11T04:46:16.582Z</time>
      </trkpt>
      <trkpt lat="44.36277" lon="5.15126">
        <ele>272</ele>
        <time>2020-07-11T04:46:17.582Z</time>
      </trkpt>
      <trkpt lat="44.36271" lon="5.15119">
        <ele>272</ele>
        <time>2020-07-11T04:46:18.582Z</time>
      </trkpt>
      <trkpt lat="44.36262" lon="5.15109">
        <ele>272</ele>
        <time>2020-07-11T04:46:19.581Z</time>
      </trkpt>
      <trkpt lat="44.36256" lon="5.151">
        <ele>272</ele>
        <time>2020-07-11T04:46:20.581Z</time>
      </trkpt>
      <trkpt lat="44.3625" lon="5.15093">
        <ele>272</ele>
        <time>2020-07-11T04:46:21.582Z</time>
      </trkpt>
      <trkpt lat="44.36242" lon="5.15085">
        <ele>272</ele>
        <time>2020-07-11T04:46:22.581Z</time>
      </trkpt>
      <trkpt lat="44.36233" lon="5.15075">
        <ele>272</ele>
        <time>2020-07-11T04:46:23.582Z</time>
      </trkpt>
      <trkpt lat="44.36226" lon="5.15067">
        <ele>272</ele>
        <time>2020-07-11T04:46:24.582Z</time>
      </trkpt>
      <trkpt lat="44.36218" lon="5.15059">
        <ele>272</ele>
        <time>2020-07-11T04:46:25.582Z</time>
      </trkpt>
      <trkpt lat="44.36211" lon="5.15053">
        <ele>272</ele>
        <time>2020-07-11T04:46:26.582Z</time>
      </trkpt>
      <trkpt lat="44.36203" lon="5.15045">
        <ele>272</ele>
        <time>2020-07-11T04:46:27.582Z</time>
      </trkpt>
      <trkpt lat="44.36195" lon="5.15037">
        <ele>272</ele>
        <time>2020-07-11T04:46:28.582Z</time>
      </trkpt>
      <trkpt lat="44.36185" lon="5.15027">
        <ele>272</ele>
        <time>2020-07-11T04:46:29.582Z</time>
      </trkpt>
      <trkpt lat="44.36176" lon="5.1502">
        <ele>272</ele>
        <time>2020-07-11T04:46:30.582Z</time>
      </trkpt>
      <trkpt lat="44.3617" lon="5.15014">
        <ele>272</ele>
        <time>2020-07-11T04:46:31.582Z</time>
      </trkpt>
      <trkpt lat="44.3616" lon="5.15004">
        <ele>272</ele>
        <time>2020-07-11T04:46:32.582Z</time>
      </trkpt>
      <trkpt lat="44.36152" lon="5.14997">
        <ele>272</ele>
        <time>2020-07-11T04:46:33.582Z</time>
      </trkpt>
      <trkpt lat="44.36144" lon="5.14989">
        <ele>272</ele>
        <time>2020-07-11T04:46:34.582Z</time>
      </trkpt>
      <trkpt lat="44.36136" lon="5.14982">
        <ele>272</ele>
        <time>2020-07-11T04:46:35.582Z</time>
      </trkpt>
      <trkpt lat="44.36128" lon="5.14974">
        <ele>272</ele>
        <time>2020-07-11T04:46:36.581Z</time>
      </trkpt>
      <trkpt lat="44.36122" lon="5.14968">
        <ele>272</ele>
        <time>2020-07-11T04:46:37.581Z</time>
      </trkpt>
      <trkpt lat="44.36114" lon="5.1496">
        <ele>271</ele>
        <time>2020-07-11T04:46:38.581Z</time>
      </trkpt>
      <trkpt lat="44.36107" lon="5.14952">
        <ele>271</ele>
        <time>2020-07-11T04:46:39.581Z</time>
      </trkpt>
      <trkpt lat="44.361" lon="5.14944">
        <ele>271</ele>
        <time>2020-07-11T04:46:40.581Z</time>
      </trkpt>
      <trkpt lat="44.36094" lon="5.14938">
        <ele>271</ele>
        <time>2020-07-11T04:46:41.582Z</time>
      </trkpt>
      <trkpt lat="44.36088" lon="5.1493">
        <ele>271</ele>
        <time>2020-07-11T04:46:42.582Z</time>
      </trkpt>
      <trkpt lat="44.36081" lon="5.14922">
        <ele>271</ele>
        <time>2020-07-11T04:46:43.582Z</time>
      </trkpt>
      <trkpt lat="44.36074" lon="5.14914">
        <ele>271</ele>
        <time>2020-07-11T04:46:44.582Z</time>
      </trkpt>
      <trkpt lat="44.36068" lon="5.14906">
        <ele>271</ele>
        <time>2020-07-11T04:46:45.581Z</time>
      </trkpt>
      <trkpt lat="44.36062" lon="5.14898">
        <ele>271</ele>
        <time>2020-07-11T04:46:46.582Z</time>
      </trkpt>
      <trkpt lat="44.36056" lon="5.1489">
        <ele>271</ele>
        <time>2020-07-11T04:46:47.581Z</time>
      </trkpt>
      <trkpt lat="44.36049" lon="5.1488">
        <ele>271</ele>
        <time>2020-07-11T04:46:48.582Z</time>
      </trkpt>
      <trkpt lat="44.36043" lon="5.14871">
        <ele>271</ele>
        <time>2020-07-11T04:46:49.581Z</time>
      </trkpt>
      <trkpt lat="44.36039" lon="5.14863">
        <ele>271</ele>
        <time>2020-07-11T04:46:50.582Z</time>
      </trkpt>
      <trkpt lat="44.36033" lon="5.14854">
        <ele>271</ele>
        <time>2020-07-11T04:46:51.581Z</time>
      </trkpt>
      <trkpt lat="44.36026" lon="5.14843">
        <ele>271</ele>
        <time>2020-07-11T04:46:52.582Z</time>
      </trkpt>
      <trkpt lat="44.3602" lon="5.14834">
        <ele>271</ele>
        <time>2020-07-11T04:46:53.582Z</time>
      </trkpt>
      <trkpt lat="44.36016" lon="5.14826">
        <ele>271</ele>
        <time>2020-07-11T04:46:54.582Z</time>
      </trkpt>
      <trkpt lat="44.3601" lon="5.14816">
        <ele>271</ele>
        <time>2020-07-11T04:46:55.582Z</time>
      </trkpt>
      <trkpt lat="44.36004" lon="5.14804">
        <ele>271</ele>
        <time>2020-07-11T04:46:56.581Z</time>
      </trkpt>
      <trkpt lat="44.35998" lon="5.14794">
        <ele>271</ele>
        <time>2020-07-11T04:46:57.582Z</time>
      </trkpt>
      <trkpt lat="44.35992" lon="5.14784">
        <ele>271</ele>
        <time>2020-07-11T04:46:58.582Z</time>
      </trkpt>
      <trkpt lat="44.35988" lon="5.14776">
        <ele>271</ele>
        <time>2020-07-11T04:46:59.581Z</time>
      </trkpt>
      <trkpt lat="44.35982" lon="5.14764">
        <ele>271</ele>
        <time>2020-07-11T04:47:00.581Z</time>
      </trkpt>
      <trkpt lat="44.35978" lon="5.14756">
        <ele>270</ele>
        <time>2020-07-11T04:47:01.582Z</time>
      </trkpt>
      <trkpt lat="44.35973" lon="5.14746">
        <ele>270</ele>
        <time>2020-07-11T04:47:02.582Z</time>
      </trkpt>
      <trkpt lat="44.35967" lon="5.14737">
        <ele>269</ele>
        <time>2020-07-11T04:47:03.581Z</time>
      </trkpt>
      <trkpt lat="44.35962" lon="5.14727">
        <ele>269</ele>
        <time>2020-07-11T04:47:04.582Z</time>
      </trkpt>
      <trkpt lat="44.35957" lon="5.14718">
        <ele>269</ele>
        <time>2020-07-11T04:47:05.581Z</time>
      </trkpt>
      <trkpt lat="44.35953" lon="5.14709">
        <ele>269</ele>
        <time>2020-07-11T04:47:06.582Z</time>
      </trkpt>
      <trkpt lat="44.35948" lon="5.14699">
        <ele>269</ele>
        <time>2020-07-11T04:47:07.582Z</time>
      </trkpt>
      <trkpt lat="44.35944" lon="5.1469">
        <ele>268</ele>
        <time>2020-07-11T04:47:08.581Z</time>
      </trkpt>
      <trkpt lat="44.3594" lon="5.14681">
        <ele>268</ele>
        <time>2020-07-11T04:47:09.582Z</time>
      </trkpt>
      <trkpt lat="44.35937" lon="5.14672">
        <ele>269</ele>
        <time>2020-07-11T04:47:10.582Z</time>
      </trkpt>
      <trkpt lat="44.35934" lon="5.14663">
        <ele>269</ele>
        <time>2020-07-11T04:47:11.581Z</time>
      </trkpt>
      <trkpt lat="44.35932" lon="5.14654">
        <ele>269</ele>
        <time>2020-07-11T04:47:12.581Z</time>
      </trkpt>
      <trkpt lat="44.3593" lon="5.14645">
        <ele>269</ele>
        <time>2020-07-11T04:47:13.582Z</time>
      </trkpt>
      <trkpt lat="44.35928" lon="5.14636">
        <ele>269</ele>
        <time>2020-07-11T04:47:14.582Z</time>
      </trkpt>
      <trkpt lat="44.35926" lon="5.14627">
        <ele>269</ele>
        <time>2020-07-11T04:47:15.581Z</time>
      </trkpt>
      <trkpt lat="44.35925" lon="5.14617">
        <ele>270</ele>
        <time>2020-07-11T04:47:16.582Z</time>
      </trkpt>
      <trkpt lat="44.35924" lon="5.14608">
        <ele>270</ele>
        <time>2020-07-11T04:47:17.581Z</time>
      </trkpt>
      <trkpt lat="44.35924" lon="5.14599">
        <ele>270</ele>
        <time>2020-07-11T04:47:18.581Z</time>
      </trkpt>
      <trkpt lat="44.35924" lon="5.1459">
        <ele>270</ele>
        <time>2020-07-11T04:47:19.582Z</time>
      </trkpt>
      <trkpt lat="44.35924" lon="5.14581">
        <ele>270</ele>
        <time>2020-07-11T04:47:20.581Z</time>
      </trkpt>
      <trkpt lat="44.35924" lon="5.14572">
        <ele>270</ele>
        <time>2020-07-11T04:47:21.582Z</time>
      </trkpt>
      <trkpt lat="44.35925" lon="5.14563">
        <ele>271</ele>
        <time>2020-07-11T04:47:22.582Z</time>
      </trkpt>
      <trkpt lat="44.35926" lon="5.14555">
        <ele>271</ele>
        <time>2020-07-11T04:47:23.581Z</time>
      </trkpt>
      <trkpt lat="44.35927" lon="5.14546">
        <ele>271</ele>
        <time>2020-07-11T04:47:24.582Z</time>
      </trkpt>
      <trkpt lat="44.35928" lon="5.14537">
        <ele>272</ele>
        <time>2020-07-11T04:47:25.582Z</time>
      </trkpt>
      <trkpt lat="44.35929" lon="5.14529">
        <ele>272</ele>
        <time>2020-07-11T04:47:26.582Z</time>
      </trkpt>
      <trkpt lat="44.35929" lon="5.1452">
        <ele>272</ele>
        <time>2020-07-11T04:47:27.581Z</time>
      </trkpt>
      <trkpt lat="44.35929" lon="5.14511">
        <ele>273</ele>
        <time>2020-07-11T04:47:28.582Z</time>
      </trkpt>
      <trkpt lat="44.3593" lon="5.14503">
        <ele>273</ele>
        <time>2020-07-11T04:47:29.582Z</time>
      </trkpt>
      <trkpt lat="44.3593" lon="5.14494">
        <ele>273</ele>
        <time>2020-07-11T04:47:30.581Z</time>
      </trkpt>
      <trkpt lat="44.3593" lon="5.14485">
        <ele>274</ele>
        <time>2020-07-11T04:47:31.582Z</time>
      </trkpt>
      <trkpt lat="44.35931" lon="5.14477">
        <ele>274</ele>
        <time>2020-07-11T04:47:32.582Z</time>
      </trkpt>
      <trkpt lat="44.35931" lon="5.14468">
        <ele>275</ele>
        <time>2020-07-11T04:47:33.582Z</time>
      </trkpt>
      <trkpt lat="44.35931" lon="5.14458">
        <ele>275</ele>
        <time>2020-07-11T04:47:34.582Z</time>
      </trkpt>
      <trkpt lat="44.35931" lon="5.14449">
        <ele>275</ele>
        <time>2020-07-11T04:47:35.582Z</time>
      </trkpt>
      <trkpt lat="44.35932" lon="5.1444">
        <ele>275</ele>
        <time>2020-07-11T04:47:36.582Z</time>
      </trkpt>
      <trkpt lat="44.35931" lon="5.1443">
        <ele>275</ele>
        <time>2020-07-11T04:47:37.582Z</time>
      </trkpt>
      <trkpt lat="44.3593" lon="5.14421">
        <ele>275</ele>
        <time>2020-07-11T04:47:38.581Z</time>
      </trkpt>
      <trkpt lat="44.3593" lon="5.14412">
        <ele>275</ele>
        <time>2020-07-11T04:47:39.582Z</time>
      </trkpt>
      <trkpt lat="44.3593" lon="5.14403">
        <ele>275</ele>
        <time>2020-07-11T04:47:40.581Z</time>
      </trkpt>
      <trkpt lat="44.3593" lon="5.14394">
        <ele>275</ele>
        <time>2020-07-11T04:47:41.582Z</time>
      </trkpt>
      <trkpt lat="44.35929" lon="5.14384">
        <ele>275</ele>
        <time>2020-07-11T04:47:42.582Z</time>
      </trkpt>
      <trkpt lat="44.35928" lon="5.14376">
        <ele>275</ele>
        <time>2020-07-11T04:47:43.581Z</time>
      </trkpt>
      <trkpt lat="44.35927" lon="5.14365">
        <ele>275</ele>
        <time>2020-07-11T04:47:44.582Z</time>
      </trkpt>
      <trkpt lat="44.35921" lon="5.14361">
        <ele>274</ele>
        <time>2020-07-11T04:47:45.581Z</time>
      </trkpt>
      <trkpt lat="44.35918" lon="5.14356">
        <ele>274</ele>
        <time>2020-07-11T04:47:46.582Z</time>
      </trkpt>
      <trkpt lat="44.35914" lon="5.1435">
        <ele>274</ele>
        <time>2020-07-11T04:47:47.582Z</time>
      </trkpt>
      <trkpt lat="44.35911" lon="5.14342">
        <ele>273</ele>
        <time>2020-07-11T04:47:48.582Z</time>
      </trkpt>
      <trkpt lat="44.35907" lon="5.14335">
        <ele>273</ele>
        <time>2020-07-11T04:47:49.582Z</time>
      </trkpt>
      <trkpt lat="44.35903" lon="5.14328">
        <ele>272</ele>
        <time>2020-07-11T04:47:50.582Z</time>
      </trkpt>
      <trkpt lat="44.35899" lon="5.1432">
        <ele>272</ele>
        <time>2020-07-11T04:47:51.582Z</time>
      </trkpt>
      <trkpt lat="44.35894" lon="5.14313">
        <ele>272</ele>
        <time>2020-07-11T04:47:52.582Z</time>
      </trkpt>
      <trkpt lat="44.3589" lon="5.14306">
        <ele>272</ele>
        <time>2020-07-11T04:47:53.582Z</time>
      </trkpt>
      <trkpt lat="44.35885" lon="5.14299">
        <ele>272</ele>
        <time>2020-07-11T04:47:54.581Z</time>
      </trkpt>
      <trkpt lat="44.3588" lon="5.14292">
        <ele>272</ele>
        <time>2020-07-11T04:47:55.581Z</time>
      </trkpt>
      <trkpt lat="44.35875" lon="5.14285">
        <ele>272</ele>
        <time>2020-07-11T04:47:56.582Z</time>
      </trkpt>
      <trkpt lat="44.35869" lon="5.14278">
        <ele>272</ele>
        <time>2020-07-11T04:47:57.582Z</time>
      </trkpt>
      <trkpt lat="44.35863" lon="5.14272">
        <ele>272</ele>
        <time>2020-07-11T04:47:58.582Z</time>
      </trkpt>
      <trkpt lat="44.35857" lon="5.14265">
        <ele>273</ele>
        <time>2020-07-11T04:47:59.582Z</time>
      </trkpt>
      <trkpt lat="44.35851" lon="5.14257">
        <ele>273</ele>
        <time>2020-07-11T04:48:00.581Z</time>
      </trkpt>
      <trkpt lat="44.35845" lon="5.14251">
        <ele>274</ele>
        <time>2020-07-11T04:48:01.582Z</time>
      </trkpt>
      <trkpt lat="44.35838" lon="5.14242">
        <ele>274</ele>
        <time>2020-07-11T04:48:02.581Z</time>
      </trkpt>
      <trkpt lat="44.35831" lon="5.14235">
        <ele>274</ele>
        <time>2020-07-11T04:48:03.582Z</time>
      </trkpt>
      <trkpt lat="44.35826" lon="5.14229">
        <ele>273</ele>
        <time>2020-07-11T04:48:04.581Z</time>
      </trkpt>
      <trkpt lat="44.35818" lon="5.1422">
        <ele>273</ele>
        <time>2020-07-11T04:48:05.582Z</time>
      </trkpt>
      <trkpt lat="44.35813" lon="5.14214">
        <ele>273</ele>
        <time>2020-07-11T04:48:06.581Z</time>
      </trkpt>
      <trkpt lat="44.35805" lon="5.14204">
        <ele>272</ele>
        <time>2020-07-11T04:48:07.582Z</time>
      </trkpt>
      <trkpt lat="44.35799" lon="5.14194">
        <ele>272</ele>
        <time>2020-07-11T04:48:08.582Z</time>
      </trkpt>
      <trkpt lat="44.35794" lon="5.14187">
        <ele>272</ele>
        <time>2020-07-11T04:48:09.582Z</time>
      </trkpt>
      <trkpt lat="44.35787" lon="5.14176">
        <ele>272</ele>
        <time>2020-07-11T04:48:10.582Z</time>
      </trkpt>
      <trkpt lat="44.3578" lon="5.14169">
        <ele>272</ele>
        <time>2020-07-11T04:48:11.582Z</time>
      </trkpt>
      <trkpt lat="44.35773" lon="5.14164">
        <ele>272</ele>
        <time>2020-07-11T04:48:12.581Z</time>
      </trkpt>
      <trkpt lat="44.35766" lon="5.14158">
        <ele>272</ele>
        <time>2020-07-11T04:48:13.582Z</time>
      </trkpt>
      <trkpt lat="44.35759" lon="5.14153">
        <ele>272</ele>
        <time>2020-07-11T04:48:14.581Z</time>
      </trkpt>
      <trkpt lat="44.35752" lon="5.14148">
        <ele>272</ele>
        <time>2020-07-11T04:48:15.582Z</time>
      </trkpt>
      <trkpt lat="44.35747" lon="5.14142">
        <ele>273</ele>
        <time>2020-07-11T04:48:16.581Z</time>
      </trkpt>
      <trkpt lat="44.35741" lon="5.14136">
        <ele>273</ele>
        <time>2020-07-11T04:48:17.582Z</time>
      </trkpt>
      <trkpt lat="44.35735" lon="5.1413">
        <ele>273</ele>
        <time>2020-07-11T04:48:18.581Z</time>
      </trkpt>
      <trkpt lat="44.3573" lon="5.14123">
        <ele>273</ele>
        <time>2020-07-11T04:48:19.581Z</time>
      </trkpt>
      <trkpt lat="44.35726" lon="5.14118">
        <ele>273</ele>
        <time>2020-07-11T04:48:20.581Z</time>
      </trkpt>
      <trkpt lat="44.35722" lon="5.14113">
        <ele>272</ele>
        <time>2020-07-11T04:48:21.582Z</time>
      </trkpt>
      <trkpt lat="44.35719" lon="5.14109">
        <ele>272</ele>
        <time>2020-07-11T04:48:22.582Z</time>
      </trkpt>
      <trkpt lat="44.35715" lon="5.14104">
        <ele>272</ele>
        <time>2020-07-11T04:48:23.581Z</time>
      </trkpt>
      <trkpt lat="44.35712" lon="5.141">
        <ele>272</ele>
        <time>2020-07-11T04:48:24.582Z</time>
      </trkpt>
      <trkpt lat="44.35709" lon="5.14095">
        <ele>272</ele>
        <time>2020-07-11T04:48:25.581Z</time>
      </trkpt>
      <trkpt lat="44.35706" lon="5.14091">
        <ele>272</ele>
        <time>2020-07-11T04:48:26.582Z</time>
      </trkpt>
      <trkpt lat="44.35702" lon="5.14086">
        <ele>272</ele>
        <time>2020-07-11T04:48:27.582Z</time>
      </trkpt>
      <trkpt lat="44.357" lon="5.14082">
        <ele>273</ele>
        <time>2020-07-11T04:48:28.582Z</time>
      </trkpt>
      <trkpt lat="44.35696" lon="5.14077">
        <ele>273</ele>
        <time>2020-07-11T04:48:29.582Z</time>
      </trkpt>
      <trkpt lat="44.35693" lon="5.14073">
        <ele>274</ele>
        <time>2020-07-11T04:48:30.582Z</time>
      </trkpt>
      <trkpt lat="44.35691" lon="5.14068">
        <ele>274</ele>
        <time>2020-07-11T04:48:31.582Z</time>
      </trkpt>
      <trkpt lat="44.35689" lon="5.14066">
        <ele>274</ele>
        <time>2020-07-11T04:48:32.582Z</time>
      </trkpt>
      <trkpt lat="44.35687" lon="5.14062">
        <ele>274</ele>
        <time>2020-07-11T04:48:33.582Z</time>
      </trkpt>
      <trkpt lat="44.35686" lon="5.1406">
        <ele>274</ele>
        <time>2020-07-11T04:48:34.582Z</time>
      </trkpt>
      <trkpt lat="44.35685" lon="5.14059">
        <ele>274</ele>
        <time>2020-07-11T04:48:35.582Z</time>
      </trkpt>
      <trkpt lat="44.35685" lon="5.14058">
        <ele>274</ele>
        <time>2020-07-11T04:48:36.582Z</time>
      </trkpt>
      <trkpt lat="44.35685" lon="5.14058">
        <ele>275</ele>
        <time>2020-07-11T04:48:37.581Z</time>
      </trkpt>
      <trkpt lat="44.35685" lon="5.1406">
        <ele>276</ele>
        <time>2020-07-11T04:48:38.582Z</time>
      </trkpt>
      <trkpt lat="44.35685" lon="5.1406">
        <ele>277</ele>
        <time>2020-07-11T04:48:39.581Z</time>
      </trkpt>
      <trkpt lat="44.35685" lon="5.1406">
        <ele>278</ele>
        <time>2020-07-11T04:48:40.582Z</time>
      </trkpt>
      <trkpt lat="44.35682" lon="5.14058">
        <ele>280</ele>
        <time>2020-07-11T04:48:41.583Z</time>
      </trkpt>
      <trkpt lat="44.3568" lon="5.14056">
        <ele>279</ele>
        <time>2020-07-11T04:48:42.583Z</time>
      </trkpt>
      <trkpt lat="44.35678" lon="5.14053">
        <ele>279</ele>
        <time>2020-07-11T04:48:43.582Z</time>
      </trkpt>
      <trkpt lat="44.35676" lon="5.1405">
        <ele>279</ele>
        <time>2020-07-11T04:48:44.583Z</time>
      </trkpt>
      <trkpt lat="44.35674" lon="5.14047">
        <ele>278</ele>
        <time>2020-07-11T04:48:45.583Z</time>
      </trkpt>
      <trkpt lat="44.35671" lon="5.14043">
        <ele>278</ele>
        <time>2020-07-11T04:48:46.582Z</time>
      </trkpt>
      <trkpt lat="44.35668" lon="5.1404">
        <ele>278</ele>
        <time>2020-07-11T04:48:47.583Z</time>
      </trkpt>
      <trkpt lat="44.35665" lon="5.14036">
        <ele>277</ele>
        <time>2020-07-11T04:48:48.583Z</time>
      </trkpt>
      <trkpt lat="44.35662" lon="5.14031">
        <ele>277</ele>
        <time>2020-07-11T04:48:49.582Z</time>
      </trkpt>
      <trkpt lat="44.35658" lon="5.14025">
        <ele>277</ele>
        <time>2020-07-11T04:48:50.583Z</time>
      </trkpt>
      <trkpt lat="44.35654" lon="5.1402">
        <ele>276</ele>
        <time>2020-07-11T04:48:51.583Z</time>
      </trkpt>
      <trkpt lat="44.35651" lon="5.14014">
        <ele>275</ele>
        <time>2020-07-11T04:48:52.583Z</time>
      </trkpt>
      <trkpt lat="44.35647" lon="5.14008">
        <ele>274</ele>
        <time>2020-07-11T04:48:53.582Z</time>
      </trkpt>
      <trkpt lat="44.35643" lon="5.14001">
        <ele>274</ele>
        <time>2020-07-11T04:48:54.583Z</time>
      </trkpt>
      <trkpt lat="44.35639" lon="5.13995">
        <ele>274</ele>
        <time>2020-07-11T04:48:55.583Z</time>
      </trkpt>
      <trkpt lat="44.35635" lon="5.13988">
        <ele>273</ele>
        <time>2020-07-11T04:48:56.583Z</time>
      </trkpt>
      <trkpt lat="44.35631" lon="5.1398">
        <ele>273</ele>
        <time>2020-07-11T04:48:57.583Z</time>
      </trkpt>
      <trkpt lat="44.35627" lon="5.13972">
        <ele>273</ele>
        <time>2020-07-11T04:48:58.583Z</time>
      </trkpt>
      <trkpt lat="44.35623" lon="5.13964">
        <ele>273</ele>
        <time>2020-07-11T04:48:59.583Z</time>
      </trkpt>
      <trkpt lat="44.35619" lon="5.13955">
        <ele>273</ele>
        <time>2020-07-11T04:49:00.583Z</time>
      </trkpt>
      <trkpt lat="44.35615" lon="5.13948">
        <ele>272</ele>
        <time>2020-07-11T04:49:01.583Z</time>
      </trkpt>
      <trkpt lat="44.3561" lon="5.13937">
        <ele>272</ele>
        <time>2020-07-11T04:49:02.583Z</time>
      </trkpt>
      <trkpt lat="44.35606" lon="5.13927">
        <ele>272</ele>
        <time>2020-07-11T04:49:03.583Z</time>
      </trkpt>
      <trkpt lat="44.35601" lon="5.13918">
        <ele>272</ele>
        <time>2020-07-11T04:49:04.583Z</time>
      </trkpt>
      <trkpt lat="44.35596" lon="5.13908">
        <ele>272</ele>
        <time>2020-07-11T04:49:05.583Z</time>
      </trkpt>
      <trkpt lat="44.35592" lon="5.13897">
        <ele>273</ele>
        <time>2020-07-11T04:49:06.582Z</time>
      </trkpt>
      <trkpt lat="44.35587" lon="5.13887">
        <ele>273</ele>
        <time>2020-07-11T04:49:07.583Z</time>
      </trkpt>
      <trkpt lat="44.35582" lon="5.13876">
        <ele>274</ele>
        <time>2020-07-11T04:49:08.583Z</time>
      </trkpt>
      <trkpt lat="44.35577" lon="5.13866">
        <ele>274</ele>
        <time>2020-07-11T04:49:09.583Z</time>
      </trkpt>
      <trkpt lat="44.35572" lon="5.13855">
        <ele>275</ele>
        <time>2020-07-11T04:49:10.582Z</time>
      </trkpt>
      <trkpt lat="44.35568" lon="5.13844">
        <ele>275</ele>
        <time>2020-07-11T04:49:11.583Z</time>
      </trkpt>
      <trkpt lat="44.35563" lon="5.13833">
        <ele>274</ele>
        <time>2020-07-11T04:49:12.582Z</time>
      </trkpt>
      <trkpt lat="44.35558" lon="5.13821">
        <ele>274</ele>
        <time>2020-07-11T04:49:13.583Z</time>
      </trkpt>
      <trkpt lat="44.35553" lon="5.1381">
        <ele>273</ele>
        <time>2020-07-11T04:49:14.583Z</time>
      </trkpt>
      <trkpt lat="44.35549" lon="5.13801">
        <ele>273</ele>
        <time>2020-07-11T04:49:15.583Z</time>
      </trkpt>
      <trkpt lat="44.35543" lon="5.13787">
        <ele>272</ele>
        <time>2020-07-11T04:49:16.583Z</time>
      </trkpt>
      <trkpt lat="44.35537" lon="5.13776">
        <ele>272</ele>
        <time>2020-07-11T04:49:17.582Z</time>
      </trkpt>
      <trkpt lat="44.35533" lon="5.13767">
        <ele>272</ele>
        <time>2020-07-11T04:49:18.583Z</time>
      </trkpt>
      <trkpt lat="44.35527" lon="5.13755">
        <ele>273</ele>
        <time>2020-07-11T04:49:19.583Z</time>
      </trkpt>
      <trkpt lat="44.35522" lon="5.13743">
        <ele>273</ele>
        <time>2020-07-11T04:49:20.583Z</time>
      </trkpt>
      <trkpt lat="44.35517" lon="5.13732">
        <ele>273</ele>
        <time>2020-07-11T04:49:21.583Z</time>
      </trkpt>
      <trkpt lat="44.3551" lon="5.13718">
        <ele>273</ele>
        <time>2020-07-11T04:49:22.583Z</time>
      </trkpt>
      <trkpt lat="44.35505" lon="5.1371">
        <ele>273</ele>
        <time>2020-07-11T04:49:23.582Z</time>
      </trkpt>
      <trkpt lat="44.35499" lon="5.137">
        <ele>273</ele>
        <time>2020-07-11T04:49:24.582Z</time>
      </trkpt>
      <trkpt lat="44.3549" lon="5.13688">
        <ele>273</ele>
        <time>2020-07-11T04:49:25.582Z</time>
      </trkpt>
      <trkpt lat="44.35483" lon="5.13679">
        <ele>272</ele>
        <time>2020-07-11T04:49:26.582Z</time>
      </trkpt>
      <trkpt lat="44.35476" lon="5.13671">
        <ele>272</ele>
        <time>2020-07-11T04:49:27.582Z</time>
      </trkpt>
      <trkpt lat="44.35469" lon="5.13664">
        <ele>272</ele>
        <time>2020-07-11T04:49:28.582Z</time>
      </trkpt>
      <trkpt lat="44.35462" lon="5.13656">
        <ele>272</ele>
        <time>2020-07-11T04:49:29.583Z</time>
      </trkpt>
      <trkpt lat="44.35452" lon="5.13647">
        <ele>271</ele>
        <time>2020-07-11T04:49:30.582Z</time>
      </trkpt>
      <trkpt lat="44.35444" lon="5.13639">
        <ele>271</ele>
        <time>2020-07-11T04:49:31.583Z</time>
      </trkpt>
      <trkpt lat="44.35436" lon="5.13631">
        <ele>271</ele>
        <time>2020-07-11T04:49:32.583Z</time>
      </trkpt>
      <trkpt lat="44.35429" lon="5.13625">
        <ele>271</ele>
        <time>2020-07-11T04:49:33.583Z</time>
      </trkpt>
      <trkpt lat="44.3542" lon="5.13615">
        <ele>271</ele>
        <time>2020-07-11T04:49:34.583Z</time>
      </trkpt>
      <trkpt lat="44.35412" lon="5.13607">
        <ele>271</ele>
        <time>2020-07-11T04:49:35.583Z</time>
      </trkpt>
      <trkpt lat="44.35404" lon="5.13598">
        <ele>271</ele>
        <time>2020-07-11T04:49:36.583Z</time>
      </trkpt>
      <trkpt lat="44.35398" lon="5.13591">
        <ele>271</ele>
        <time>2020-07-11T04:49:37.582Z</time>
      </trkpt>
      <trkpt lat="44.35391" lon="5.13582">
        <ele>271</ele>
        <time>2020-07-11T04:49:38.583Z</time>
      </trkpt>
      <trkpt lat="44.35383" lon="5.13571">
        <ele>271</ele>
        <time>2020-07-11T04:49:39.582Z</time>
      </trkpt>
      <trkpt lat="44.35377" lon="5.13561">
        <ele>271</ele>
        <time>2020-07-11T04:49:40.583Z</time>
      </trkpt>
      <trkpt lat="44.35371" lon="5.13552">
        <ele>270</ele>
        <time>2020-07-11T04:49:41.583Z</time>
      </trkpt>
      <trkpt lat="44.35366" lon="5.13544">
        <ele>270</ele>
        <time>2020-07-11T04:49:42.583Z</time>
      </trkpt>
      <trkpt lat="44.3536" lon="5.13534">
        <ele>270</ele>
        <time>2020-07-11T04:49:43.583Z</time>
      </trkpt>
      <trkpt lat="44.35354" lon="5.13521">
        <ele>270</ele>
        <time>2020-07-11T04:49:44.583Z</time>
      </trkpt>
      <trkpt lat="44.3535" lon="5.13513">
        <ele>270</ele>
        <time>2020-07-11T04:49:45.583Z</time>
      </trkpt>
      <trkpt lat="44.35345" lon="5.13502">
        <ele>270</ele>
        <time>2020-07-11T04:49:46.583Z</time>
      </trkpt>
      <trkpt lat="44.35341" lon="5.1349">
        <ele>270</ele>
        <time>2020-07-11T04:49:47.583Z</time>
      </trkpt>
      <trkpt lat="44.35337" lon="5.13479">
        <ele>270</ele>
        <time>2020-07-11T04:49:48.583Z</time>
      </trkpt>
      <trkpt lat="44.35333" lon="5.13467">
        <ele>270</ele>
        <time>2020-07-11T04:49:49.583Z</time>
      </trkpt>
      <trkpt lat="44.3533" lon="5.13455">
        <ele>270</ele>
        <time>2020-07-11T04:49:50.583Z</time>
      </trkpt>
      <trkpt lat="44.35326" lon="5.13443">
        <ele>270</ele>
        <time>2020-07-11T04:49:51.583Z</time>
      </trkpt>
      <trkpt lat="44.35322" lon="5.13432">
        <ele>270</ele>
        <time>2020-07-11T04:49:52.583Z</time>
      </trkpt>
      <trkpt lat="44.35318" lon="5.13417">
        <ele>270</ele>
        <time>2020-07-11T04:49:53.583Z</time>
      </trkpt>
      <trkpt lat="44.35315" lon="5.13405">
        <ele>270</ele>
        <time>2020-07-11T04:49:54.583Z</time>
      </trkpt>
      <trkpt lat="44.35312" lon="5.13393">
        <ele>269</ele>
        <time>2020-07-11T04:49:55.583Z</time>
      </trkpt>
      <trkpt lat="44.3531" lon="5.13383">
        <ele>269</ele>
        <time>2020-07-11T04:49:56.582Z</time>
      </trkpt>
      <trkpt lat="44.35307" lon="5.13371">
        <ele>268</ele>
        <time>2020-07-11T04:49:57.582Z</time>
      </trkpt>
      <trkpt lat="44.35304" lon="5.13356">
        <ele>268</ele>
        <time>2020-07-11T04:49:58.583Z</time>
      </trkpt>
      <trkpt lat="44.35301" lon="5.13345">
        <ele>267</ele>
        <time>2020-07-11T04:49:59.582Z</time>
      </trkpt>
      <trkpt lat="44.35298" lon="5.13333">
        <ele>267</ele>
        <time>2020-07-11T04:50:00.583Z</time>
      </trkpt>
      <trkpt lat="44.35295" lon="5.13323">
        <ele>267</ele>
        <time>2020-07-11T04:50:01.583Z</time>
      </trkpt>
      <trkpt lat="44.35292" lon="5.13311">
        <ele>266</ele>
        <time>2020-07-11T04:50:02.582Z</time>
      </trkpt>
      <trkpt lat="44.35288" lon="5.13296">
        <ele>266</ele>
        <time>2020-07-11T04:50:03.582Z</time>
      </trkpt>
      <trkpt lat="44.35285" lon="5.13284">
        <ele>266</ele>
        <time>2020-07-11T04:50:04.583Z</time>
      </trkpt>
      <trkpt lat="44.35282" lon="5.13271">
        <ele>266</ele>
        <time>2020-07-11T04:50:05.583Z</time>
      </trkpt>
      <trkpt lat="44.35279" lon="5.13259">
        <ele>266</ele>
        <time>2020-07-11T04:50:06.583Z</time>
      </trkpt>
      <trkpt lat="44.35276" lon="5.13246">
        <ele>265</ele>
        <time>2020-07-11T04:50:07.583Z</time>
      </trkpt>
      <trkpt lat="44.35272" lon="5.13234">
        <ele>265</ele>
        <time>2020-07-11T04:50:08.583Z</time>
      </trkpt>
      <trkpt lat="44.35269" lon="5.13222">
        <ele>265</ele>
        <time>2020-07-11T04:50:09.583Z</time>
      </trkpt>
      <trkpt lat="44.35267" lon="5.13212">
        <ele>264</ele>
        <time>2020-07-11T04:50:10.583Z</time>
      </trkpt>
      <trkpt lat="44.35264" lon="5.13199">
        <ele>264</ele>
        <time>2020-07-11T04:50:11.582Z</time>
      </trkpt>
      <trkpt lat="44.3526" lon="5.13185">
        <ele>264</ele>
        <time>2020-07-11T04:50:12.583Z</time>
      </trkpt>
      <trkpt lat="44.35258" lon="5.13175">
        <ele>263</ele>
        <time>2020-07-11T04:50:13.583Z</time>
      </trkpt>
      <trkpt lat="44.35255" lon="5.13163">
        <ele>263</ele>
        <time>2020-07-11T04:50:14.583Z</time>
      </trkpt>
      <trkpt lat="44.35252" lon="5.13151">
        <ele>263</ele>
        <time>2020-07-11T04:50:15.582Z</time>
      </trkpt>
      <trkpt lat="44.35249" lon="5.13136">
        <ele>262</ele>
        <time>2020-07-11T04:50:16.583Z</time>
      </trkpt>
      <trkpt lat="44.35247" lon="5.13127">
        <ele>262</ele>
        <time>2020-07-11T04:50:17.583Z</time>
      </trkpt>
      <trkpt lat="44.35243" lon="5.13112">
        <ele>262</ele>
        <time>2020-07-11T04:50:18.582Z</time>
      </trkpt>
      <trkpt lat="44.35241" lon="5.13102">
        <ele>262</ele>
        <time>2020-07-11T04:50:19.582Z</time>
      </trkpt>
      <trkpt lat="44.35238" lon="5.1309">
        <ele>262</ele>
        <time>2020-07-11T04:50:20.583Z</time>
      </trkpt>
      <trkpt lat="44.35236" lon="5.13077">
        <ele>262</ele>
        <time>2020-07-11T04:50:21.583Z</time>
      </trkpt>
      <trkpt lat="44.35233" lon="5.13064">
        <ele>262</ele>
        <time>2020-07-11T04:50:22.582Z</time>
      </trkpt>
      <trkpt lat="44.35231" lon="5.13052">
        <ele>262</ele>
        <time>2020-07-11T04:50:23.583Z</time>
      </trkpt>
      <trkpt lat="44.35228" lon="5.1304">
        <ele>263</ele>
        <time>2020-07-11T04:50:24.583Z</time>
      </trkpt>
      <trkpt lat="44.35225" lon="5.13027">
        <ele>263</ele>
        <time>2020-07-11T04:50:25.582Z</time>
      </trkpt>
      <trkpt lat="44.35223" lon="5.13014">
        <ele>263</ele>
        <time>2020-07-11T04:50:26.582Z</time>
      </trkpt>
      <trkpt lat="44.35222" lon="5.13001">
        <ele>263</ele>
        <time>2020-07-11T04:50:27.583Z</time>
      </trkpt>
      <trkpt lat="44.35221" lon="5.12988">
        <ele>263</ele>
        <time>2020-07-11T04:50:28.582Z</time>
      </trkpt>
      <trkpt lat="44.35221" lon="5.12975">
        <ele>263</ele>
        <time>2020-07-11T04:50:29.583Z</time>
      </trkpt>
      <trkpt lat="44.3522" lon="5.12961">
        <ele>263</ele>
        <time>2020-07-11T04:50:30.583Z</time>
      </trkpt>
      <trkpt lat="44.3522" lon="5.12948">
        <ele>263</ele>
        <time>2020-07-11T04:50:31.583Z</time>
      </trkpt>
      <trkpt lat="44.35219" lon="5.12935">
        <ele>263</ele>
        <time>2020-07-11T04:50:32.582Z</time>
      </trkpt>
      <trkpt lat="44.35218" lon="5.12921">
        <ele>263</ele>
        <time>2020-07-11T04:50:33.582Z</time>
      </trkpt>
      <trkpt lat="44.35217" lon="5.12908">
        <ele>262</ele>
        <time>2020-07-11T04:50:34.583Z</time>
      </trkpt>
      <trkpt lat="44.35217" lon="5.12894">
        <ele>262</ele>
        <time>2020-07-11T04:50:35.582Z</time>
      </trkpt>
      <trkpt lat="44.35217" lon="5.12881">
        <ele>262</ele>
        <time>2020-07-11T04:50:36.583Z</time>
      </trkpt>
      <trkpt lat="44.35217" lon="5.12865">
        <ele>261</ele>
        <time>2020-07-11T04:50:37.583Z</time>
      </trkpt>
      <trkpt lat="44.35217" lon="5.12854">
        <ele>262</ele>
        <time>2020-07-11T04:50:38.583Z</time>
      </trkpt>
      <trkpt lat="44.35216" lon="5.12841">
        <ele>262</ele>
        <time>2020-07-11T04:50:39.582Z</time>
      </trkpt>
      <trkpt lat="44.35215" lon="5.12825">
        <ele>262</ele>
        <time>2020-07-11T04:50:40.583Z</time>
      </trkpt>
      <trkpt lat="44.35214" lon="5.12814">
        <ele>262</ele>
        <time>2020-07-11T04:50:41.582Z</time>
      </trkpt>
      <trkpt lat="44.35212" lon="5.128">
        <ele>262</ele>
        <time>2020-07-11T04:50:42.582Z</time>
      </trkpt>
      <trkpt lat="44.3521" lon="5.12787">
        <ele>262</ele>
        <time>2020-07-11T04:50:43.583Z</time>
      </trkpt>
      <trkpt lat="44.35207" lon="5.12774">
        <ele>262</ele>
        <time>2020-07-11T04:50:44.582Z</time>
      </trkpt>
      <trkpt lat="44.35204" lon="5.12761">
        <ele>262</ele>
        <time>2020-07-11T04:50:45.583Z</time>
      </trkpt>
      <trkpt lat="44.352" lon="5.12746">
        <ele>262</ele>
        <time>2020-07-11T04:50:46.583Z</time>
      </trkpt>
      <trkpt lat="44.35197" lon="5.12736">
        <ele>261</ele>
        <time>2020-07-11T04:50:47.583Z</time>
      </trkpt>
      <trkpt lat="44.35193" lon="5.12723">
        <ele>261</ele>
        <time>2020-07-11T04:50:48.583Z</time>
      </trkpt>
      <trkpt lat="44.35188" lon="5.12711">
        <ele>261</ele>
        <time>2020-07-11T04:50:49.583Z</time>
      </trkpt>
      <trkpt lat="44.35182" lon="5.12697">
        <ele>261</ele>
        <time>2020-07-11T04:50:50.583Z</time>
      </trkpt>
      <trkpt lat="44.35178" lon="5.12688">
        <ele>261</ele>
        <time>2020-07-11T04:50:51.582Z</time>
      </trkpt>
      <trkpt lat="44.35172" lon="5.12677">
        <ele>260</ele>
        <time>2020-07-11T04:50:52.583Z</time>
      </trkpt>
      <trkpt lat="44.35166" lon="5.12667">
        <ele>260</ele>
        <time>2020-07-11T04:50:53.583Z</time>
      </trkpt>
      <trkpt lat="44.3516" lon="5.12656">
        <ele>260</ele>
        <time>2020-07-11T04:50:54.583Z</time>
      </trkpt>
      <trkpt lat="44.35153" lon="5.12647">
        <ele>259</ele>
        <time>2020-07-11T04:50:55.583Z</time>
      </trkpt>
      <trkpt lat="44.35145" lon="5.12635">
        <ele>259</ele>
        <time>2020-07-11T04:50:56.583Z</time>
      </trkpt>
      <trkpt lat="44.3514" lon="5.12628">
        <ele>259</ele>
        <time>2020-07-11T04:50:57.583Z</time>
      </trkpt>
      <trkpt lat="44.35132" lon="5.1262">
        <ele>259</ele>
        <time>2020-07-11T04:50:58.583Z</time>
      </trkpt>
      <trkpt lat="44.35123" lon="5.1261">
        <ele>259</ele>
        <time>2020-07-11T04:50:59.583Z</time>
      </trkpt>
      <trkpt lat="44.35117" lon="5.12605">
        <ele>260</ele>
        <time>2020-07-11T04:51:00.583Z</time>
      </trkpt>
      <trkpt lat="44.35109" lon="5.12598">
        <ele>260</ele>
        <time>2020-07-11T04:51:01.583Z</time>
      </trkpt>
      <trkpt lat="44.35101" lon="5.12591">
        <ele>260</ele>
        <time>2020-07-11T04:51:02.583Z</time>
      </trkpt>
      <trkpt lat="44.35092" lon="5.12585">
        <ele>260</ele>
        <time>2020-07-11T04:51:03.583Z</time>
      </trkpt>
      <trkpt lat="44.35082" lon="5.12578">
        <ele>260</ele>
        <time>2020-07-11T04:51:04.583Z</time>
      </trkpt>
      <trkpt lat="44.35074" lon="5.12573">
        <ele>260</ele>
        <time>2020-07-11T04:51:05.583Z</time>
      </trkpt>
      <trkpt lat="44.35067" lon="5.1257">
        <ele>259</ele>
        <time>2020-07-11T04:51:06.583Z</time>
      </trkpt>
      <trkpt lat="44.35058" lon="5.12565">
        <ele>259</ele>
        <time>2020-07-11T04:51:07.583Z</time>
      </trkpt>
      <trkpt lat="44.35048" lon="5.12561">
        <ele>259</ele>
        <time>2020-07-11T04:51:08.582Z</time>
      </trkpt>
      <trkpt lat="44.35039" lon="5.12557">
        <ele>259</ele>
        <time>2020-07-11T04:51:09.582Z</time>
      </trkpt>
      <trkpt lat="44.35031" lon="5.12554">
        <ele>259</ele>
        <time>2020-07-11T04:51:10.583Z</time>
      </trkpt>
      <trkpt lat="44.35022" lon="5.12551">
        <ele>259</ele>
        <time>2020-07-11T04:51:11.583Z</time>
      </trkpt>
      <trkpt lat="44.35013" lon="5.12548">
        <ele>259</ele>
        <time>2020-07-11T04:51:12.583Z</time>
      </trkpt>
      <trkpt lat="44.35004" lon="5.12545">
        <ele>259</ele>
        <time>2020-07-11T04:51:13.583Z</time>
      </trkpt>
      <trkpt lat="44.34995" lon="5.12542">
        <ele>258</ele>
        <time>2020-07-11T04:51:14.583Z</time>
      </trkpt>
      <trkpt lat="44.34986" lon="5.12539">
        <ele>258</ele>
        <time>2020-07-11T04:51:15.583Z</time>
      </trkpt>
      <trkpt lat="44.34977" lon="5.12536">
        <ele>258</ele>
        <time>2020-07-11T04:51:16.583Z</time>
      </trkpt>
      <trkpt lat="44.34966" lon="5.12532">
        <ele>258</ele>
        <time>2020-07-11T04:51:17.582Z</time>
      </trkpt>
      <trkpt lat="44.34957" lon="5.12529">
        <ele>257</ele>
        <time>2020-07-11T04:51:18.583Z</time>
      </trkpt>
      <trkpt lat="44.3495" lon="5.12526">
        <ele>257</ele>
        <time>2020-07-11T04:51:19.583Z</time>
      </trkpt>
      <trkpt lat="44.34941" lon="5.12523">
        <ele>257</ele>
        <time>2020-07-11T04:51:20.583Z</time>
      </trkpt>
      <trkpt lat="44.34932" lon="5.1252">
        <ele>258</ele>
        <time>2020-07-11T04:51:21.583Z</time>
      </trkpt>
      <trkpt lat="44.34924" lon="5.12517">
        <ele>258</ele>
        <time>2020-07-11T04:51:22.583Z</time>
      </trkpt>
      <trkpt lat="44.34914" lon="5.12513">
        <ele>258</ele>
        <time>2020-07-11T04:51:23.583Z</time>
      </trkpt>
      <trkpt lat="44.34907" lon="5.12511">
        <ele>257</ele>
        <time>2020-07-11T04:51:24.582Z</time>
      </trkpt>
      <trkpt lat="44.34898" lon="5.12508">
        <ele>257</ele>
        <time>2020-07-11T04:51:25.583Z</time>
      </trkpt>
      <trkpt lat="44.34889" lon="5.12504">
        <ele>257</ele>
        <time>2020-07-11T04:51:26.583Z</time>
      </trkpt>
      <trkpt lat="44.34881" lon="5.125">
        <ele>257</ele>
        <time>2020-07-11T04:51:27.583Z</time>
      </trkpt>
      <trkpt lat="44.34874" lon="5.12497">
        <ele>257</ele>
        <time>2020-07-11T04:51:28.582Z</time>
      </trkpt>
      <trkpt lat="44.34866" lon="5.12494">
        <ele>257</ele>
        <time>2020-07-11T04:51:29.582Z</time>
      </trkpt>
      <trkpt lat="44.34857" lon="5.12488">
        <ele>257</ele>
        <time>2020-07-11T04:51:30.583Z</time>
      </trkpt>
      <trkpt lat="44.34851" lon="5.12485">
        <ele>257</ele>
        <time>2020-07-11T04:51:31.583Z</time>
      </trkpt>
      <trkpt lat="44.34843" lon="5.12479">
        <ele>257</ele>
        <time>2020-07-11T04:51:32.582Z</time>
      </trkpt>
      <trkpt lat="44.34837" lon="5.12474">
        <ele>257</ele>
        <time>2020-07-11T04:51:33.583Z</time>
      </trkpt>
      <trkpt lat="44.3483" lon="5.12469">
        <ele>257</ele>
        <time>2020-07-11T04:51:34.583Z</time>
      </trkpt>
      <trkpt lat="44.34823" lon="5.12463">
        <ele>257</ele>
        <time>2020-07-11T04:51:35.583Z</time>
      </trkpt>
      <trkpt lat="44.34817" lon="5.12458">
        <ele>257</ele>
        <time>2020-07-11T04:51:36.582Z</time>
      </trkpt>
      <trkpt lat="44.3481" lon="5.12451">
        <ele>256</ele>
        <time>2020-07-11T04:51:37.583Z</time>
      </trkpt>
      <trkpt lat="44.34804" lon="5.12445">
        <ele>255</ele>
        <time>2020-07-11T04:51:38.582Z</time>
      </trkpt>
      <trkpt lat="44.34796" lon="5.12438">
        <ele>255</ele>
        <time>2020-07-11T04:51:39.582Z</time>
      </trkpt>
      <trkpt lat="44.34791" lon="5.12433">
        <ele>254</ele>
        <time>2020-07-11T04:51:40.583Z</time>
      </trkpt>
      <trkpt lat="44.34784" lon="5.12425">
        <ele>254</ele>
        <time>2020-07-11T04:51:41.583Z</time>
      </trkpt>
      <trkpt lat="44.34778" lon="5.12418">
        <ele>254</ele>
        <time>2020-07-11T04:51:42.583Z</time>
      </trkpt>
      <trkpt lat="44.34773" lon="5.1241">
        <ele>254</ele>
        <time>2020-07-11T04:51:43.582Z</time>
      </trkpt>
      <trkpt lat="44.34767" lon="5.12403">
        <ele>254</ele>
        <time>2020-07-11T04:51:44.583Z</time>
      </trkpt>
      <trkpt lat="44.34761" lon="5.12393">
        <ele>254</ele>
        <time>2020-07-11T04:51:45.583Z</time>
      </trkpt>
      <trkpt lat="44.34757" lon="5.12387">
        <ele>255</ele>
        <time>2020-07-11T04:51:46.582Z</time>
      </trkpt>
      <trkpt lat="44.34752" lon="5.12379">
        <ele>255</ele>
        <time>2020-07-11T04:51:47.583Z</time>
      </trkpt>
      <trkpt lat="44.34745" lon="5.12369">
        <ele>255</ele>
        <time>2020-07-11T04:51:48.583Z</time>
      </trkpt>
      <trkpt lat="44.34741" lon="5.12362">
        <ele>256</ele>
        <time>2020-07-11T04:51:49.583Z</time>
      </trkpt>
      <trkpt lat="44.34735" lon="5.12352">
        <ele>257</ele>
        <time>2020-07-11T04:51:50.582Z</time>
      </trkpt>
      <trkpt lat="44.34731" lon="5.12346">
        <ele>257</ele>
        <time>2020-07-11T04:51:51.583Z</time>
      </trkpt>
      <trkpt lat="44.34725" lon="5.12337">
        <ele>258</ele>
        <time>2020-07-11T04:51:52.582Z</time>
      </trkpt>
      <trkpt lat="44.34719" lon="5.12327">
        <ele>258</ele>
        <time>2020-07-11T04:51:53.582Z</time>
      </trkpt>
      <trkpt lat="44.34715" lon="5.1232">
        <ele>259</ele>
        <time>2020-07-11T04:51:54.582Z</time>
      </trkpt>
      <trkpt lat="44.3471" lon="5.12311">
        <ele>259</ele>
        <time>2020-07-11T04:51:55.583Z</time>
      </trkpt>
      <trkpt lat="44.34705" lon="5.12303">
        <ele>259</ele>
        <time>2020-07-11T04:51:56.582Z</time>
      </trkpt>
      <trkpt lat="44.34701" lon="5.12294">
        <ele>259</ele>
        <time>2020-07-11T04:51:57.582Z</time>
      </trkpt>
      <trkpt lat="44.34696" lon="5.12284">
        <ele>259</ele>
        <time>2020-07-11T04:51:58.582Z</time>
      </trkpt>
      <trkpt lat="44.34691" lon="5.12273">
        <ele>259</ele>
        <time>2020-07-11T04:51:59.582Z</time>
      </trkpt>
      <trkpt lat="44.34687" lon="5.12265">
        <ele>259</ele>
        <time>2020-07-11T04:52:00.582Z</time>
      </trkpt>
      <trkpt lat="44.34684" lon="5.12255">
        <ele>259</ele>
        <time>2020-07-11T04:52:01.582Z</time>
      </trkpt>
      <trkpt lat="44.34681" lon="5.12245">
        <ele>260</ele>
        <time>2020-07-11T04:52:02.583Z</time>
      </trkpt>
      <trkpt lat="44.34678" lon="5.12235">
        <ele>259</ele>
        <time>2020-07-11T04:52:03.583Z</time>
      </trkpt>
      <trkpt lat="44.34676" lon="5.12222">
        <ele>259</ele>
        <time>2020-07-11T04:52:04.583Z</time>
      </trkpt>
      <trkpt lat="44.34675" lon="5.12212">
        <ele>258</ele>
        <time>2020-07-11T04:52:05.583Z</time>
      </trkpt>
      <trkpt lat="44.34675" lon="5.12203">
        <ele>258</ele>
        <time>2020-07-11T04:52:06.583Z</time>
      </trkpt>
      <trkpt lat="44.34674" lon="5.12192">
        <ele>257</ele>
        <time>2020-07-11T04:52:07.583Z</time>
      </trkpt>
      <trkpt lat="44.34674" lon="5.12179">
        <ele>257</ele>
        <time>2020-07-11T04:52:08.583Z</time>
      </trkpt>
      <trkpt lat="44.34674" lon="5.12169">
        <ele>256</ele>
        <time>2020-07-11T04:52:09.583Z</time>
      </trkpt>
      <trkpt lat="44.34675" lon="5.12161">
        <ele>256</ele>
        <time>2020-07-11T04:52:10.582Z</time>
      </trkpt>
      <trkpt lat="44.34676" lon="5.12148">
        <ele>256</ele>
        <time>2020-07-11T04:52:11.583Z</time>
      </trkpt>
      <trkpt lat="44.34679" lon="5.12139">
        <ele>255</ele>
        <time>2020-07-11T04:52:12.583Z</time>
      </trkpt>
      <trkpt lat="44.34682" lon="5.12132">
        <ele>255</ele>
        <time>2020-07-11T04:52:13.582Z</time>
      </trkpt>
      <trkpt lat="44.34685" lon="5.12123">
        <ele>255</ele>
        <time>2020-07-11T04:52:14.583Z</time>
      </trkpt>
      <trkpt lat="44.34689" lon="5.12116">
        <ele>254</ele>
        <time>2020-07-11T04:52:15.583Z</time>
      </trkpt>
      <trkpt lat="44.34693" lon="5.12109">
        <ele>254</ele>
        <time>2020-07-11T04:52:16.583Z</time>
      </trkpt>
      <trkpt lat="44.347" lon="5.12101">
        <ele>253</ele>
        <time>2020-07-11T04:52:17.582Z</time>
      </trkpt>
      <trkpt lat="44.34704" lon="5.12096">
        <ele>253</ele>
        <time>2020-07-11T04:52:18.583Z</time>
      </trkpt>
      <trkpt lat="44.34708" lon="5.12088">
        <ele>253</ele>
        <time>2020-07-11T04:52:19.582Z</time>
      </trkpt>
      <trkpt lat="44.3471" lon="5.12081">
        <ele>252</ele>
        <time>2020-07-11T04:52:20.583Z</time>
      </trkpt>
      <trkpt lat="44.3471" lon="5.12073">
        <ele>252</ele>
        <time>2020-07-11T04:52:21.582Z</time>
      </trkpt>
      <trkpt lat="44.34706" lon="5.12065">
        <ele>252</ele>
        <time>2020-07-11T04:52:22.582Z</time>
      </trkpt>
      <trkpt lat="44.34701" lon="5.12063">
        <ele>252</ele>
        <time>2020-07-11T04:52:23.582Z</time>
      </trkpt>
      <trkpt lat="44.34695" lon="5.12061">
        <ele>251</ele>
        <time>2020-07-11T04:52:24.583Z</time>
      </trkpt>
      <trkpt lat="44.34686" lon="5.12063">
        <ele>251</ele>
        <time>2020-07-11T04:52:25.583Z</time>
      </trkpt>
      <trkpt lat="44.34679" lon="5.12063">
        <ele>251</ele>
        <time>2020-07-11T04:52:26.583Z</time>
      </trkpt>
      <trkpt lat="44.3467" lon="5.1206">
        <ele>251</ele>
        <time>2020-07-11T04:52:27.582Z</time>
      </trkpt>
      <trkpt lat="44.34664" lon="5.12058">
        <ele>252</ele>
        <time>2020-07-11T04:52:28.582Z</time>
      </trkpt>
      <trkpt lat="44.34656" lon="5.12055">
        <ele>252</ele>
        <time>2020-07-11T04:52:29.583Z</time>
      </trkpt>
      <trkpt lat="44.34649" lon="5.12053">
        <ele>253</ele>
        <time>2020-07-11T04:52:30.583Z</time>
      </trkpt>
      <trkpt lat="44.34642" lon="5.12052">
        <ele>253</ele>
        <time>2020-07-11T04:52:31.583Z</time>
      </trkpt>
      <trkpt lat="44.34635" lon="5.12051">
        <ele>253</ele>
        <time>2020-07-11T04:52:32.582Z</time>
      </trkpt>
      <trkpt lat="44.34627" lon="5.12049">
        <ele>254</ele>
        <time>2020-07-11T04:52:33.583Z</time>
      </trkpt>
      <trkpt lat="44.3462" lon="5.12047">
        <ele>254</ele>
        <time>2020-07-11T04:52:34.583Z</time>
      </trkpt>
      <trkpt lat="44.34612" lon="5.12045">
        <ele>254</ele>
        <time>2020-07-11T04:52:35.583Z</time>
      </trkpt>
      <trkpt lat="44.34603" lon="5.12044">
        <ele>254</ele>
        <time>2020-07-11T04:52:36.583Z</time>
      </trkpt>
      <trkpt lat="44.34595" lon="5.12042">
        <ele>255</ele>
        <time>2020-07-11T04:52:37.582Z</time>
      </trkpt>
      <trkpt lat="44.34589" lon="5.1204">
        <ele>255</ele>
        <time>2020-07-11T04:52:38.583Z</time>
      </trkpt>
      <trkpt lat="44.34581" lon="5.12037">
        <ele>255</ele>
        <time>2020-07-11T04:52:39.583Z</time>
      </trkpt>
      <trkpt lat="44.34574" lon="5.12035">
        <ele>255</ele>
        <time>2020-07-11T04:52:40.582Z</time>
      </trkpt>
      <trkpt lat="44.34565" lon="5.12033">
        <ele>255</ele>
        <time>2020-07-11T04:52:41.583Z</time>
      </trkpt>
      <trkpt lat="44.34557" lon="5.1203">
        <ele>255</ele>
        <time>2020-07-11T04:52:42.583Z</time>
      </trkpt>
      <trkpt lat="44.34552" lon="5.12028">
        <ele>256</ele>
        <time>2020-07-11T04:52:43.582Z</time>
      </trkpt>
      <trkpt lat="44.34544" lon="5.12025">
        <ele>256</ele>
        <time>2020-07-11T04:52:44.583Z</time>
      </trkpt>
      <trkpt lat="44.34536" lon="5.12022">
        <ele>256</ele>
        <time>2020-07-11T04:52:45.583Z</time>
      </trkpt>
      <trkpt lat="44.34528" lon="5.12019">
        <ele>257</ele>
        <time>2020-07-11T04:52:46.583Z</time>
      </trkpt>
      <trkpt lat="44.34521" lon="5.12016">
        <ele>256</ele>
        <time>2020-07-11T04:52:47.582Z</time>
      </trkpt>
      <trkpt lat="44.34516" lon="5.12013">
        <ele>256</ele>
        <time>2020-07-11T04:52:48.583Z</time>
      </trkpt>
      <trkpt lat="44.34507" lon="5.12008">
        <ele>256</ele>
        <time>2020-07-11T04:52:49.583Z</time>
      </trkpt>
      <trkpt lat="44.345" lon="5.12004">
        <ele>256</ele>
        <time>2020-07-11T04:52:50.583Z</time>
      </trkpt>
      <trkpt lat="44.34494" lon="5.12">
        <ele>257</ele>
        <time>2020-07-11T04:52:51.583Z</time>
      </trkpt>
      <trkpt lat="44.34486" lon="5.11996">
        <ele>257</ele>
        <time>2020-07-11T04:52:52.583Z</time>
      </trkpt>
      <trkpt lat="44.3448" lon="5.11993">
        <ele>257</ele>
        <time>2020-07-11T04:52:53.583Z</time>
      </trkpt>
      <trkpt lat="44.34473" lon="5.11989">
        <ele>256</ele>
        <time>2020-07-11T04:52:54.583Z</time>
      </trkpt>
      <trkpt lat="44.34464" lon="5.11984">
        <ele>256</ele>
        <time>2020-07-11T04:52:55.582Z</time>
      </trkpt>
      <trkpt lat="44.34459" lon="5.1198">
        <ele>256</ele>
        <time>2020-07-11T04:52:56.582Z</time>
      </trkpt>
      <trkpt lat="44.34451" lon="5.11976">
        <ele>255</ele>
        <time>2020-07-11T04:52:57.582Z</time>
      </trkpt>
      <trkpt lat="44.34443" lon="5.11971">
        <ele>255</ele>
        <time>2020-07-11T04:52:58.582Z</time>
      </trkpt>
      <trkpt lat="44.34435" lon="5.11965">
        <ele>254</ele>
        <time>2020-07-11T04:52:59.583Z</time>
      </trkpt>
      <trkpt lat="44.3443" lon="5.11961">
        <ele>254</ele>
        <time>2020-07-11T04:53:00.583Z</time>
      </trkpt>
      <trkpt lat="44.34422" lon="5.11955">
        <ele>255</ele>
        <time>2020-07-11T04:53:01.583Z</time>
      </trkpt>
      <trkpt lat="44.34415" lon="5.11948">
        <ele>255</ele>
        <time>2020-07-11T04:53:02.583Z</time>
      </trkpt>
      <trkpt lat="44.34407" lon="5.1194">
        <ele>256</ele>
        <time>2020-07-11T04:53:03.582Z</time>
      </trkpt>
      <trkpt lat="44.34402" lon="5.11934">
        <ele>256</ele>
        <time>2020-07-11T04:53:04.583Z</time>
      </trkpt>
      <trkpt lat="44.34396" lon="5.11926">
        <ele>256</ele>
        <time>2020-07-11T04:53:05.583Z</time>
      </trkpt>
      <trkpt lat="44.3439" lon="5.11918">
        <ele>256</ele>
        <time>2020-07-11T04:53:06.583Z</time>
      </trkpt>
      <trkpt lat="44.34384" lon="5.1191">
        <ele>257</ele>
        <time>2020-07-11T04:53:07.583Z</time>
      </trkpt>
      <trkpt lat="44.34378" lon="5.11903">
        <ele>256</ele>
        <time>2020-07-11T04:53:08.582Z</time>
      </trkpt>
      <trkpt lat="44.3437" lon="5.11894">
        <ele>256</ele>
        <time>2020-07-11T04:53:09.583Z</time>
      </trkpt>
      <trkpt lat="44.34365" lon="5.11888">
        <ele>256</ele>
        <time>2020-07-11T04:53:10.583Z</time>
      </trkpt>
      <trkpt lat="44.3436" lon="5.1188">
        <ele>256</ele>
        <time>2020-07-11T04:53:11.583Z</time>
      </trkpt>
      <trkpt lat="44.34354" lon="5.11873">
        <ele>256</ele>
        <time>2020-07-11T04:53:12.583Z</time>
      </trkpt>
      <trkpt lat="44.34347" lon="5.11864">
        <ele>256</ele>
        <time>2020-07-11T04:53:13.583Z</time>
      </trkpt>
      <trkpt lat="44.34341" lon="5.11857">
        <ele>256</ele>
        <time>2020-07-11T04:53:14.583Z</time>
      </trkpt>
      <trkpt lat="44.34336" lon="5.11851">
        <ele>256</ele>
        <time>2020-07-11T04:53:15.583Z</time>
      </trkpt>
      <trkpt lat="44.34331" lon="5.11844">
        <ele>256</ele>
        <time>2020-07-11T04:53:16.583Z</time>
      </trkpt>
      <trkpt lat="44.34325" lon="5.11837">
        <ele>257</ele>
        <time>2020-07-11T04:53:17.583Z</time>
      </trkpt>
      <trkpt lat="44.34318" lon="5.11829">
        <ele>257</ele>
        <time>2020-07-11T04:53:18.583Z</time>
      </trkpt>
      <trkpt lat="44.34313" lon="5.11823">
        <ele>257</ele>
        <time>2020-07-11T04:53:19.583Z</time>
      </trkpt>
      <trkpt lat="44.34307" lon="5.11816">
        <ele>258</ele>
        <time>2020-07-11T04:53:20.583Z</time>
      </trkpt>
      <trkpt lat="44.34301" lon="5.1181">
        <ele>258</ele>
        <time>2020-07-11T04:53:21.583Z</time>
      </trkpt>
      <trkpt lat="44.34295" lon="5.11804">
        <ele>258</ele>
        <time>2020-07-11T04:53:22.582Z</time>
      </trkpt>
      <trkpt lat="44.34289" lon="5.11799">
        <ele>258</ele>
        <time>2020-07-11T04:53:23.583Z</time>
      </trkpt>
      <trkpt lat="44.34282" lon="5.11794">
        <ele>258</ele>
        <time>2020-07-11T04:53:24.583Z</time>
      </trkpt>
      <trkpt lat="44.34276" lon="5.11789">
        <ele>258</ele>
        <time>2020-07-11T04:53:25.583Z</time>
      </trkpt>
      <trkpt lat="44.3427" lon="5.11784">
        <ele>257</ele>
        <time>2020-07-11T04:53:26.582Z</time>
      </trkpt>
      <trkpt lat="44.34264" lon="5.11779">
        <ele>257</ele>
        <time>2020-07-11T04:53:27.583Z</time>
      </trkpt>
      <trkpt lat="44.34257" lon="5.11774">
        <ele>257</ele>
        <time>2020-07-11T04:53:28.583Z</time>
      </trkpt>
      <trkpt lat="44.34251" lon="5.1177">
        <ele>257</ele>
        <time>2020-07-11T04:53:29.583Z</time>
      </trkpt>
      <trkpt lat="44.34245" lon="5.11765">
        <ele>257</ele>
        <time>2020-07-11T04:53:30.582Z</time>
      </trkpt>
      <trkpt lat="44.34238" lon="5.1176">
        <ele>257</ele>
        <time>2020-07-11T04:53:31.582Z</time>
      </trkpt>
      <trkpt lat="44.34232" lon="5.11755">
        <ele>258</ele>
        <time>2020-07-11T04:53:32.583Z</time>
      </trkpt>
      <trkpt lat="44.34226" lon="5.11751">
        <ele>259</ele>
        <time>2020-07-11T04:53:33.583Z</time>
      </trkpt>
      <trkpt lat="44.3422" lon="5.11746">
        <ele>260</ele>
        <time>2020-07-11T04:53:34.583Z</time>
      </trkpt>
      <trkpt lat="44.34214" lon="5.11741">
        <ele>260</ele>
        <time>2020-07-11T04:53:35.582Z</time>
      </trkpt>
      <trkpt lat="44.34208" lon="5.11736">
        <ele>260</ele>
        <time>2020-07-11T04:53:36.583Z</time>
      </trkpt>
      <trkpt lat="44.34201" lon="5.11731">
        <ele>260</ele>
        <time>2020-07-11T04:53:37.583Z</time>
      </trkpt>
      <trkpt lat="44.34196" lon="5.11726">
        <ele>261</ele>
        <time>2020-07-11T04:53:38.583Z</time>
      </trkpt>
      <trkpt lat="44.3419" lon="5.11721">
        <ele>261</ele>
        <time>2020-07-11T04:53:39.583Z</time>
      </trkpt>
      <trkpt lat="44.34184" lon="5.11715">
        <ele>261</ele>
        <time>2020-07-11T04:53:40.582Z</time>
      </trkpt>
      <trkpt lat="44.34178" lon="5.1171">
        <ele>261</ele>
        <time>2020-07-11T04:53:41.582Z</time>
      </trkpt>
      <trkpt lat="44.34172" lon="5.11705">
        <ele>261</ele>
        <time>2020-07-11T04:53:42.583Z</time>
      </trkpt>
      <trkpt lat="44.34166" lon="5.11699">
        <ele>260</ele>
        <time>2020-07-11T04:53:43.583Z</time>
      </trkpt>
      <trkpt lat="44.3416" lon="5.11693">
        <ele>260</ele>
        <time>2020-07-11T04:53:44.583Z</time>
      </trkpt>
      <trkpt lat="44.34153" lon="5.11687">
        <ele>260</ele>
        <time>2020-07-11T04:53:45.583Z</time>
      </trkpt>
      <trkpt lat="44.34147" lon="5.11682">
        <ele>259</ele>
        <time>2020-07-11T04:53:46.583Z</time>
      </trkpt>
      <trkpt lat="44.3414" lon="5.11676">
        <ele>259</ele>
        <time>2020-07-11T04:53:47.582Z</time>
      </trkpt>
      <trkpt lat="44.34134" lon="5.1167">
        <ele>259</ele>
        <time>2020-07-11T04:53:48.583Z</time>
      </trkpt>
      <trkpt lat="44.34127" lon="5.11663">
        <ele>259</ele>
        <time>2020-07-11T04:53:49.582Z</time>
      </trkpt>
      <trkpt lat="44.3412" lon="5.11657">
        <ele>259</ele>
        <time>2020-07-11T04:53:50.583Z</time>
      </trkpt>
      <trkpt lat="44.34113" lon="5.11651">
        <ele>258</ele>
        <time>2020-07-11T04:53:51.583Z</time>
      </trkpt>
      <trkpt lat="44.34106" lon="5.11645">
        <ele>258</ele>
        <time>2020-07-11T04:53:52.583Z</time>
      </trkpt>
      <trkpt lat="44.34099" lon="5.11638">
        <ele>258</ele>
        <time>2020-07-11T04:53:53.583Z</time>
      </trkpt>
      <trkpt lat="44.34092" lon="5.11632">
        <ele>258</ele>
        <time>2020-07-11T04:53:54.582Z</time>
      </trkpt>
      <trkpt lat="44.34084" lon="5.11626">
        <ele>258</ele>
        <time>2020-07-11T04:53:55.583Z</time>
      </trkpt>
      <trkpt lat="44.34077" lon="5.1162">
        <ele>257</ele>
        <time>2020-07-11T04:53:56.583Z</time>
      </trkpt>
      <trkpt lat="44.3407" lon="5.11613">
        <ele>257</ele>
        <time>2020-07-11T04:53:57.582Z</time>
      </trkpt>
      <trkpt lat="44.34063" lon="5.11607">
        <ele>257</ele>
        <time>2020-07-11T04:53:58.583Z</time>
      </trkpt>
      <trkpt lat="44.34055" lon="5.11601">
        <ele>256</ele>
        <time>2020-07-11T04:53:59.583Z</time>
      </trkpt>
      <trkpt lat="44.34048" lon="5.11594">
        <ele>255</ele>
        <time>2020-07-11T04:54:00.583Z</time>
      </trkpt>
      <trkpt lat="44.34041" lon="5.11588">
        <ele>255</ele>
        <time>2020-07-11T04:54:01.583Z</time>
      </trkpt>
      <trkpt lat="44.34034" lon="5.11581">
        <ele>255</ele>
        <time>2020-07-11T04:54:02.583Z</time>
      </trkpt>
      <trkpt lat="44.34026" lon="5.11575">
        <ele>255</ele>
        <time>2020-07-11T04:54:03.582Z</time>
      </trkpt>
      <trkpt lat="44.34019" lon="5.11568">
        <ele>254</ele>
        <time>2020-07-11T04:54:04.583Z</time>
      </trkpt>
      <trkpt lat="44.34012" lon="5.11562">
        <ele>254</ele>
        <time>2020-07-11T04:54:05.583Z</time>
      </trkpt>
      <trkpt lat="44.34003" lon="5.11554">
        <ele>254</ele>
        <time>2020-07-11T04:54:06.583Z</time>
      </trkpt>
      <trkpt lat="44.33997" lon="5.11548">
        <ele>254</ele>
        <time>2020-07-11T04:54:07.583Z</time>
      </trkpt>
      <trkpt lat="44.3399" lon="5.11542">
        <ele>255</ele>
        <time>2020-07-11T04:54:08.582Z</time>
      </trkpt>
      <trkpt lat="44.33982" lon="5.11535">
        <ele>256</ele>
        <time>2020-07-11T04:54:09.583Z</time>
      </trkpt>
      <trkpt lat="44.33975" lon="5.11529">
        <ele>256</ele>
        <time>2020-07-11T04:54:10.583Z</time>
      </trkpt>
      <trkpt lat="44.33967" lon="5.11522">
        <ele>257</ele>
        <time>2020-07-11T04:54:11.583Z</time>
      </trkpt>
      <trkpt lat="44.33961" lon="5.11517">
        <ele>257</ele>
        <time>2020-07-11T04:54:12.582Z</time>
      </trkpt>
      <trkpt lat="44.33954" lon="5.11511">
        <ele>257</ele>
        <time>2020-07-11T04:54:13.583Z</time>
      </trkpt>
      <trkpt lat="44.33947" lon="5.11505">
        <ele>257</ele>
        <time>2020-07-11T04:54:14.582Z</time>
      </trkpt>
      <trkpt lat="44.3394" lon="5.11499">
        <ele>257</ele>
        <time>2020-07-11T04:54:15.583Z</time>
      </trkpt>
      <trkpt lat="44.33933" lon="5.11492">
        <ele>256</ele>
        <time>2020-07-11T04:54:16.583Z</time>
      </trkpt>
      <trkpt lat="44.33927" lon="5.11486">
        <ele>256</ele>
        <time>2020-07-11T04:54:17.583Z</time>
      </trkpt>
      <trkpt lat="44.3392" lon="5.1148">
        <ele>255</ele>
        <time>2020-07-11T04:54:18.583Z</time>
      </trkpt>
      <trkpt lat="44.33913" lon="5.11474">
        <ele>254</ele>
        <time>2020-07-11T04:54:19.583Z</time>
      </trkpt>
      <trkpt lat="44.33907" lon="5.11468">
        <ele>254</ele>
        <time>2020-07-11T04:54:20.583Z</time>
      </trkpt>
      <trkpt lat="44.339" lon="5.11463">
        <ele>254</ele>
        <time>2020-07-11T04:54:21.583Z</time>
      </trkpt>
      <trkpt lat="44.33891" lon="5.11457">
        <ele>254</ele>
        <time>2020-07-11T04:54:22.582Z</time>
      </trkpt>
      <trkpt lat="44.33885" lon="5.11454">
        <ele>254</ele>
        <time>2020-07-11T04:54:23.583Z</time>
      </trkpt>
      <trkpt lat="44.33877" lon="5.1145">
        <ele>254</ele>
        <time>2020-07-11T04:54:24.583Z</time>
      </trkpt>
      <trkpt lat="44.3387" lon="5.11447">
        <ele>254</ele>
        <time>2020-07-11T04:54:25.583Z</time>
      </trkpt>
      <trkpt lat="44.33862" lon="5.11445">
        <ele>255</ele>
        <time>2020-07-11T04:54:26.583Z</time>
      </trkpt>
      <trkpt lat="44.33854" lon="5.11442">
        <ele>255</ele>
        <time>2020-07-11T04:54:27.583Z</time>
      </trkpt>
      <trkpt lat="44.33845" lon="5.1144">
        <ele>255</ele>
        <time>2020-07-11T04:54:28.582Z</time>
      </trkpt>
      <trkpt lat="44.33837" lon="5.11437">
        <ele>255</ele>
        <time>2020-07-11T04:54:29.583Z</time>
      </trkpt>
      <trkpt lat="44.33829" lon="5.11434">
        <ele>254</ele>
        <time>2020-07-11T04:54:30.583Z</time>
      </trkpt>
      <trkpt lat="44.33822" lon="5.11431">
        <ele>254</ele>
        <time>2020-07-11T04:54:31.583Z</time>
      </trkpt>
      <trkpt lat="44.33814" lon="5.11428">
        <ele>254</ele>
        <time>2020-07-11T04:54:32.583Z</time>
      </trkpt>
      <trkpt lat="44.33806" lon="5.11426">
        <ele>254</ele>
        <time>2020-07-11T04:54:33.582Z</time>
      </trkpt>
      <trkpt lat="44.33799" lon="5.11423">
        <ele>254</ele>
        <time>2020-07-11T04:54:34.582Z</time>
      </trkpt>
      <trkpt lat="44.33791" lon="5.11419">
        <ele>255</ele>
        <time>2020-07-11T04:54:35.583Z</time>
      </trkpt>
      <trkpt lat="44.33784" lon="5.11416">
        <ele>255</ele>
        <time>2020-07-11T04:54:36.583Z</time>
      </trkpt>
      <trkpt lat="44.33777" lon="5.11411">
        <ele>255</ele>
        <time>2020-07-11T04:54:37.582Z</time>
      </trkpt>
      <trkpt lat="44.3377" lon="5.11405">
        <ele>255</ele>
        <time>2020-07-11T04:54:38.582Z</time>
      </trkpt>
      <trkpt lat="44.33763" lon="5.11399">
        <ele>256</ele>
        <time>2020-07-11T04:54:39.582Z</time>
      </trkpt>
      <trkpt lat="44.33757" lon="5.11392">
        <ele>255</ele>
        <time>2020-07-11T04:54:40.583Z</time>
      </trkpt>
      <trkpt lat="44.33752" lon="5.11383">
        <ele>255</ele>
        <time>2020-07-11T04:54:41.583Z</time>
      </trkpt>
      <trkpt lat="44.33747" lon="5.11375">
        <ele>254</ele>
        <time>2020-07-11T04:54:42.583Z</time>
      </trkpt>
      <trkpt lat="44.33742" lon="5.11365">
        <ele>254</ele>
        <time>2020-07-11T04:54:43.582Z</time>
      </trkpt>
      <trkpt lat="44.33738" lon="5.11356">
        <ele>254</ele>
        <time>2020-07-11T04:54:44.583Z</time>
      </trkpt>
      <trkpt lat="44.33733" lon="5.11346">
        <ele>253</ele>
        <time>2020-07-11T04:54:45.583Z</time>
      </trkpt>
      <trkpt lat="44.33729" lon="5.11336">
        <ele>253</ele>
        <time>2020-07-11T04:54:46.583Z</time>
      </trkpt>
      <trkpt lat="44.33725" lon="5.11325">
        <ele>254</ele>
        <time>2020-07-11T04:54:47.583Z</time>
      </trkpt>
      <trkpt lat="44.33721" lon="5.11316">
        <ele>254</ele>
        <time>2020-07-11T04:54:48.582Z</time>
      </trkpt>
      <trkpt lat="44.33717" lon="5.11306">
        <ele>253</ele>
        <time>2020-07-11T04:54:49.582Z</time>
      </trkpt>
      <trkpt lat="44.33713" lon="5.11296">
        <ele>253</ele>
        <time>2020-07-11T04:54:50.583Z</time>
      </trkpt>
      <trkpt lat="44.33709" lon="5.11286">
        <ele>252</ele>
        <time>2020-07-11T04:54:51.583Z</time>
      </trkpt>
      <trkpt lat="44.33705" lon="5.11276">
        <ele>252</ele>
        <time>2020-07-11T04:54:52.583Z</time>
      </trkpt>
      <trkpt lat="44.33701" lon="5.11266">
        <ele>252</ele>
        <time>2020-07-11T04:54:53.583Z</time>
      </trkpt>
      <trkpt lat="44.33697" lon="5.11256">
        <ele>252</ele>
        <time>2020-07-11T04:54:54.582Z</time>
      </trkpt>
      <trkpt lat="44.33692" lon="5.11246">
        <ele>252</ele>
        <time>2020-07-11T04:54:55.583Z</time>
      </trkpt>
      <trkpt lat="44.33688" lon="5.11236">
        <ele>252</ele>
        <time>2020-07-11T04:54:56.583Z</time>
      </trkpt>
      <trkpt lat="44.33684" lon="5.11226">
        <ele>252</ele>
        <time>2020-07-11T04:54:57.583Z</time>
      </trkpt>
      <trkpt lat="44.3368" lon="5.11216">
        <ele>253</ele>
        <time>2020-07-11T04:54:58.583Z</time>
      </trkpt>
      <trkpt lat="44.33676" lon="5.11206">
        <ele>252</ele>
        <time>2020-07-11T04:54:59.583Z</time>
      </trkpt>
      <trkpt lat="44.33671" lon="5.11196">
        <ele>252</ele>
        <time>2020-07-11T04:55:00.583Z</time>
      </trkpt>
      <trkpt lat="44.33667" lon="5.11186">
        <ele>252</ele>
        <time>2020-07-11T04:55:01.583Z</time>
      </trkpt>
      <trkpt lat="44.33663" lon="5.11177">
        <ele>252</ele>
        <time>2020-07-11T04:55:02.583Z</time>
      </trkpt>
      <trkpt lat="44.33659" lon="5.11167">
        <ele>252</ele>
        <time>2020-07-11T04:55:03.583Z</time>
      </trkpt>
      <trkpt lat="44.33654" lon="5.11158">
        <ele>252</ele>
        <time>2020-07-11T04:55:04.583Z</time>
      </trkpt>
      <trkpt lat="44.33649" lon="5.11149">
        <ele>252</ele>
        <time>2020-07-11T04:55:05.582Z</time>
      </trkpt>
      <trkpt lat="44.33644" lon="5.11141">
        <ele>251</ele>
        <time>2020-07-11T04:55:06.583Z</time>
      </trkpt>
      <trkpt lat="44.33638" lon="5.11133">
        <ele>251</ele>
        <time>2020-07-11T04:55:07.582Z</time>
      </trkpt>
      <trkpt lat="44.33632" lon="5.11126">
        <ele>251</ele>
        <time>2020-07-11T04:55:08.582Z</time>
      </trkpt>
      <trkpt lat="44.33626" lon="5.11118">
        <ele>251</ele>
        <time>2020-07-11T04:55:09.583Z</time>
      </trkpt>
      <trkpt lat="44.3362" lon="5.11111">
        <ele>251</ele>
        <time>2020-07-11T04:55:10.583Z</time>
      </trkpt>
      <trkpt lat="44.33614" lon="5.11104">
        <ele>251</ele>
        <time>2020-07-11T04:55:11.583Z</time>
      </trkpt>
      <trkpt lat="44.33608" lon="5.11097">
        <ele>251</ele>
        <time>2020-07-11T04:55:12.583Z</time>
      </trkpt>
      <trkpt lat="44.33601" lon="5.1109">
        <ele>251</ele>
        <time>2020-07-11T04:55:13.582Z</time>
      </trkpt>
      <trkpt lat="44.33593" lon="5.11083">
        <ele>251</ele>
        <time>2020-07-11T04:55:14.582Z</time>
      </trkpt>
      <trkpt lat="44.33587" lon="5.11078">
        <ele>251</ele>
        <time>2020-07-11T04:55:15.583Z</time>
      </trkpt>
      <trkpt lat="44.3358" lon="5.11073">
        <ele>251</ele>
        <time>2020-07-11T04:55:16.582Z</time>
      </trkpt>
      <trkpt lat="44.33572" lon="5.11068">
        <ele>251</ele>
        <time>2020-07-11T04:55:17.583Z</time>
      </trkpt>
      <trkpt lat="44.33565" lon="5.11063">
        <ele>251</ele>
        <time>2020-07-11T04:55:18.582Z</time>
      </trkpt>
      <trkpt lat="44.33557" lon="5.11058">
        <ele>251</ele>
        <time>2020-07-11T04:55:19.583Z</time>
      </trkpt>
      <trkpt lat="44.33549" lon="5.11054">
        <ele>251</ele>
        <time>2020-07-11T04:55:20.583Z</time>
      </trkpt>
      <trkpt lat="44.33542" lon="5.11051">
        <ele>250</ele>
        <time>2020-07-11T04:55:21.583Z</time>
      </trkpt>
      <trkpt lat="44.33534" lon="5.11048">
        <ele>250</ele>
        <time>2020-07-11T04:55:22.582Z</time>
      </trkpt>
      <trkpt lat="44.33524" lon="5.11045">
        <ele>250</ele>
        <time>2020-07-11T04:55:23.582Z</time>
      </trkpt>
      <trkpt lat="44.33518" lon="5.11044">
        <ele>250</ele>
        <time>2020-07-11T04:55:24.582Z</time>
      </trkpt>
      <trkpt lat="44.3351" lon="5.11042">
        <ele>250</ele>
        <time>2020-07-11T04:55:25.582Z</time>
      </trkpt>
      <trkpt lat="44.33501" lon="5.1104">
        <ele>249</ele>
        <time>2020-07-11T04:55:26.583Z</time>
      </trkpt>
      <trkpt lat="44.33493" lon="5.11038">
        <ele>249</ele>
        <time>2020-07-11T04:55:27.583Z</time>
      </trkpt>
      <trkpt lat="44.33485" lon="5.11035">
        <ele>249</ele>
        <time>2020-07-11T04:55:28.583Z</time>
      </trkpt>
      <trkpt lat="44.33476" lon="5.11032">
        <ele>248</ele>
        <time>2020-07-11T04:55:29.582Z</time>
      </trkpt>
      <trkpt lat="44.33468" lon="5.11028">
        <ele>248</ele>
        <time>2020-07-11T04:55:30.582Z</time>
      </trkpt>
      <trkpt lat="44.33461" lon="5.11022">
        <ele>247</ele>
        <time>2020-07-11T04:55:31.583Z</time>
      </trkpt>
      <trkpt lat="44.33453" lon="5.11015">
        <ele>247</ele>
        <time>2020-07-11T04:55:32.582Z</time>
      </trkpt>
      <trkpt lat="44.33446" lon="5.11008">
        <ele>247</ele>
        <time>2020-07-11T04:55:33.583Z</time>
      </trkpt>
      <trkpt lat="44.33439" lon="5.10999">
        <ele>247</ele>
        <time>2020-07-11T04:55:34.583Z</time>
      </trkpt>
      <trkpt lat="44.33432" lon="5.10991">
        <ele>247</ele>
        <time>2020-07-11T04:55:35.583Z</time>
      </trkpt>
      <trkpt lat="44.33426" lon="5.10983">
        <ele>247</ele>
        <time>2020-07-11T04:55:36.583Z</time>
      </trkpt>
      <trkpt lat="44.33419" lon="5.10974">
        <ele>247</ele>
        <time>2020-07-11T04:55:37.582Z</time>
      </trkpt>
      <trkpt lat="44.33412" lon="5.10966">
        <ele>247</ele>
        <time>2020-07-11T04:55:38.583Z</time>
      </trkpt>
      <trkpt lat="44.33405" lon="5.10958">
        <ele>247</ele>
        <time>2020-07-11T04:55:39.582Z</time>
      </trkpt>
      <trkpt lat="44.33399" lon="5.10951">
        <ele>247</ele>
        <time>2020-07-11T04:55:40.583Z</time>
      </trkpt>
      <trkpt lat="44.33391" lon="5.10943">
        <ele>247</ele>
        <time>2020-07-11T04:55:41.583Z</time>
      </trkpt>
      <trkpt lat="44.33384" lon="5.10936">
        <ele>247</ele>
        <time>2020-07-11T04:55:42.583Z</time>
      </trkpt>
      <trkpt lat="44.33377" lon="5.10929">
        <ele>247</ele>
        <time>2020-07-11T04:55:43.583Z</time>
      </trkpt>
      <trkpt lat="44.33369" lon="5.10921">
        <ele>247</ele>
        <time>2020-07-11T04:55:44.583Z</time>
      </trkpt>
      <trkpt lat="44.33362" lon="5.10914">
        <ele>247</ele>
        <time>2020-07-11T04:55:45.582Z</time>
      </trkpt>
      <trkpt lat="44.33354" lon="5.10907">
        <ele>247</ele>
        <time>2020-07-11T04:55:46.583Z</time>
      </trkpt>
      <trkpt lat="44.33347" lon="5.109">
        <ele>247</ele>
        <time>2020-07-11T04:55:47.583Z</time>
      </trkpt>
      <trkpt lat="44.33339" lon="5.10893">
        <ele>247</ele>
        <time>2020-07-11T04:55:48.583Z</time>
      </trkpt>
      <trkpt lat="44.33332" lon="5.10885">
        <ele>247</ele>
        <time>2020-07-11T04:55:49.583Z</time>
      </trkpt>
      <trkpt lat="44.33325" lon="5.10878">
        <ele>247</ele>
        <time>2020-07-11T04:55:50.583Z</time>
      </trkpt>
      <trkpt lat="44.33318" lon="5.1087">
        <ele>247</ele>
        <time>2020-07-11T04:55:51.582Z</time>
      </trkpt>
      <trkpt lat="44.33311" lon="5.10861">
        <ele>247</ele>
        <time>2020-07-11T04:55:52.583Z</time>
      </trkpt>
      <trkpt lat="44.33304" lon="5.10853">
        <ele>247</ele>
        <time>2020-07-11T04:55:53.583Z</time>
      </trkpt>
      <trkpt lat="44.33297" lon="5.10844">
        <ele>247</ele>
        <time>2020-07-11T04:55:54.582Z</time>
      </trkpt>
      <trkpt lat="44.33291" lon="5.10835">
        <ele>246</ele>
        <time>2020-07-11T04:55:55.582Z</time>
      </trkpt>
      <trkpt lat="44.33285" lon="5.10826">
        <ele>245</ele>
        <time>2020-07-11T04:55:56.583Z</time>
      </trkpt>
      <trkpt lat="44.33279" lon="5.10817">
        <ele>246</ele>
        <time>2020-07-11T04:55:57.582Z</time>
      </trkpt>
      <trkpt lat="44.33273" lon="5.10808">
        <ele>246</ele>
        <time>2020-07-11T04:55:58.583Z</time>
      </trkpt>
      <trkpt lat="44.33267" lon="5.10799">
        <ele>246</ele>
        <time>2020-07-11T04:55:59.582Z</time>
      </trkpt>
      <trkpt lat="44.3326" lon="5.1079">
        <ele>246</ele>
        <time>2020-07-11T04:56:00.583Z</time>
      </trkpt>
      <trkpt lat="44.33254" lon="5.10781">
        <ele>246</ele>
        <time>2020-07-11T04:56:01.583Z</time>
      </trkpt>
      <trkpt lat="44.33248" lon="5.10772">
        <ele>246</ele>
        <time>2020-07-11T04:56:02.583Z</time>
      </trkpt>
      <trkpt lat="44.33241" lon="5.10763">
        <ele>246</ele>
        <time>2020-07-11T04:56:03.582Z</time>
      </trkpt>
      <trkpt lat="44.33234" lon="5.10753">
        <ele>246</ele>
        <time>2020-07-11T04:56:04.583Z</time>
      </trkpt>
      <trkpt lat="44.33228" lon="5.10746">
        <ele>247</ele>
        <time>2020-07-11T04:56:05.582Z</time>
      </trkpt>
      <trkpt lat="44.33222" lon="5.10738">
        <ele>246</ele>
        <time>2020-07-11T04:56:06.583Z</time>
      </trkpt>
      <trkpt lat="44.33215" lon="5.10729">
        <ele>246</ele>
        <time>2020-07-11T04:56:07.583Z</time>
      </trkpt>
      <trkpt lat="44.33209" lon="5.10721">
        <ele>246</ele>
        <time>2020-07-11T04:56:08.583Z</time>
      </trkpt>
      <trkpt lat="44.33202" lon="5.10712">
        <ele>247</ele>
        <time>2020-07-11T04:56:09.583Z</time>
      </trkpt>
      <trkpt lat="44.33196" lon="5.10704">
        <ele>247</ele>
        <time>2020-07-11T04:56:10.583Z</time>
      </trkpt>
      <trkpt lat="44.3319" lon="5.10696">
        <ele>247</ele>
        <time>2020-07-11T04:56:11.583Z</time>
      </trkpt>
      <trkpt lat="44.33183" lon="5.10687">
        <ele>247</ele>
        <time>2020-07-11T04:56:12.583Z</time>
      </trkpt>
      <trkpt lat="44.33177" lon="5.10679">
        <ele>247</ele>
        <time>2020-07-11T04:56:13.583Z</time>
      </trkpt>
      <trkpt lat="44.33171" lon="5.10671">
        <ele>247</ele>
        <time>2020-07-11T04:56:14.583Z</time>
      </trkpt>
      <trkpt lat="44.33165" lon="5.10663">
        <ele>248</ele>
        <time>2020-07-11T04:56:15.583Z</time>
      </trkpt>
      <trkpt lat="44.33158" lon="5.10655">
        <ele>249</ele>
        <time>2020-07-11T04:56:16.583Z</time>
      </trkpt>
      <trkpt lat="44.33152" lon="5.10648">
        <ele>249</ele>
        <time>2020-07-11T04:56:17.583Z</time>
      </trkpt>
      <trkpt lat="44.33146" lon="5.1064">
        <ele>249</ele>
        <time>2020-07-11T04:56:18.583Z</time>
      </trkpt>
      <trkpt lat="44.3314" lon="5.10632">
        <ele>249</ele>
        <time>2020-07-11T04:56:19.583Z</time>
      </trkpt>
      <trkpt lat="44.33134" lon="5.10625">
        <ele>249</ele>
        <time>2020-07-11T04:56:20.583Z</time>
      </trkpt>
      <trkpt lat="44.33128" lon="5.10618">
        <ele>249</ele>
        <time>2020-07-11T04:56:21.582Z</time>
      </trkpt>
      <trkpt lat="44.3312" lon="5.10609">
        <ele>249</ele>
        <time>2020-07-11T04:56:22.583Z</time>
      </trkpt>
      <trkpt lat="44.33115" lon="5.10604">
        <ele>249</ele>
        <time>2020-07-11T04:56:23.582Z</time>
      </trkpt>
      <trkpt lat="44.33109" lon="5.10597">
        <ele>248</ele>
        <time>2020-07-11T04:56:24.583Z</time>
      </trkpt>
      <trkpt lat="44.33103" lon="5.1059">
        <ele>248</ele>
        <time>2020-07-11T04:56:25.583Z</time>
      </trkpt>
      <trkpt lat="44.33096" lon="5.10584">
        <ele>248</ele>
        <time>2020-07-11T04:56:26.583Z</time>
      </trkpt>
      <trkpt lat="44.3309" lon="5.10577">
        <ele>248</ele>
        <time>2020-07-11T04:56:27.583Z</time>
      </trkpt>
      <trkpt lat="44.33083" lon="5.1057">
        <ele>248</ele>
        <time>2020-07-11T04:56:28.583Z</time>
      </trkpt>
      <trkpt lat="44.33077" lon="5.10564">
        <ele>248</ele>
        <time>2020-07-11T04:56:29.583Z</time>
      </trkpt>
      <trkpt lat="44.33071" lon="5.10557">
        <ele>248</ele>
        <time>2020-07-11T04:56:30.583Z</time>
      </trkpt>
      <trkpt lat="44.33064" lon="5.1055">
        <ele>248</ele>
        <time>2020-07-11T04:56:31.583Z</time>
      </trkpt>
      <trkpt lat="44.33058" lon="5.10543">
        <ele>248</ele>
        <time>2020-07-11T04:56:32.583Z</time>
      </trkpt>
      <trkpt lat="44.33051" lon="5.10536">
        <ele>248</ele>
        <time>2020-07-11T04:56:33.583Z</time>
      </trkpt>
      <trkpt lat="44.33045" lon="5.10529">
        <ele>248</ele>
        <time>2020-07-11T04:56:34.583Z</time>
      </trkpt>
      <trkpt lat="44.33038" lon="5.10522">
        <ele>248</ele>
        <time>2020-07-11T04:56:35.583Z</time>
      </trkpt>
      <trkpt lat="44.33032" lon="5.10516">
        <ele>248</ele>
        <time>2020-07-11T04:56:36.583Z</time>
      </trkpt>
      <trkpt lat="44.33025" lon="5.10509">
        <ele>247</ele>
        <time>2020-07-11T04:56:37.582Z</time>
      </trkpt>
      <trkpt lat="44.33019" lon="5.10502">
        <ele>247</ele>
        <time>2020-07-11T04:56:38.582Z</time>
      </trkpt>
      <trkpt lat="44.33013" lon="5.10495">
        <ele>247</ele>
        <time>2020-07-11T04:56:39.583Z</time>
      </trkpt>
      <trkpt lat="44.33006" lon="5.10488">
        <ele>248</ele>
        <time>2020-07-11T04:56:40.583Z</time>
      </trkpt>
      <trkpt lat="44.33" lon="5.10481">
        <ele>248</ele>
        <time>2020-07-11T04:56:41.583Z</time>
      </trkpt>
      <trkpt lat="44.32994" lon="5.10475">
        <ele>248</ele>
        <time>2020-07-11T04:56:42.583Z</time>
      </trkpt>
      <trkpt lat="44.32988" lon="5.10468">
        <ele>248</ele>
        <time>2020-07-11T04:56:43.583Z</time>
      </trkpt>
      <trkpt lat="44.32982" lon="5.10461">
        <ele>248</ele>
        <time>2020-07-11T04:56:44.583Z</time>
      </trkpt>
      <trkpt lat="44.32976" lon="5.10455">
        <ele>248</ele>
        <time>2020-07-11T04:56:45.583Z</time>
      </trkpt>
      <trkpt lat="44.3297" lon="5.10448">
        <ele>248</ele>
        <time>2020-07-11T04:56:46.582Z</time>
      </trkpt>
      <trkpt lat="44.32964" lon="5.10441">
        <ele>248</ele>
        <time>2020-07-11T04:56:47.583Z</time>
      </trkpt>
      <trkpt lat="44.32958" lon="5.10435">
        <ele>248</ele>
        <time>2020-07-11T04:56:48.582Z</time>
      </trkpt>
      <trkpt lat="44.32952" lon="5.10429">
        <ele>248</ele>
        <time>2020-07-11T04:56:49.583Z</time>
      </trkpt>
      <trkpt lat="44.32945" lon="5.10422">
        <ele>248</ele>
        <time>2020-07-11T04:56:50.583Z</time>
      </trkpt>
      <trkpt lat="44.32939" lon="5.10416">
        <ele>248</ele>
        <time>2020-07-11T04:56:51.583Z</time>
      </trkpt>
      <trkpt lat="44.32933" lon="5.10409">
        <ele>248</ele>
        <time>2020-07-11T04:56:52.583Z</time>
      </trkpt>
      <trkpt lat="44.32927" lon="5.10403">
        <ele>248</ele>
        <time>2020-07-11T04:56:53.583Z</time>
      </trkpt>
      <trkpt lat="44.32921" lon="5.10397">
        <ele>248</ele>
        <time>2020-07-11T04:56:54.583Z</time>
      </trkpt>
      <trkpt lat="44.32915" lon="5.1039">
        <ele>248</ele>
        <time>2020-07-11T04:56:55.583Z</time>
      </trkpt>
      <trkpt lat="44.32909" lon="5.10384">
        <ele>247</ele>
        <time>2020-07-11T04:56:56.582Z</time>
      </trkpt>
      <trkpt lat="44.32902" lon="5.10378">
        <ele>247</ele>
        <time>2020-07-11T04:56:57.583Z</time>
      </trkpt>
      <trkpt lat="44.32896" lon="5.10372">
        <ele>247</ele>
        <time>2020-07-11T04:56:58.583Z</time>
      </trkpt>
      <trkpt lat="44.3289" lon="5.10366">
        <ele>247</ele>
        <time>2020-07-11T04:56:59.583Z</time>
      </trkpt>
      <trkpt lat="44.32884" lon="5.10359">
        <ele>247</ele>
        <time>2020-07-11T04:57:00.582Z</time>
      </trkpt>
      <trkpt lat="44.32878" lon="5.10353">
        <ele>247</ele>
        <time>2020-07-11T04:57:01.582Z</time>
      </trkpt>
      <trkpt lat="44.32871" lon="5.10347">
        <ele>247</ele>
        <time>2020-07-11T04:57:02.583Z</time>
      </trkpt>
      <trkpt lat="44.32865" lon="5.10341">
        <ele>246</ele>
        <time>2020-07-11T04:57:03.582Z</time>
      </trkpt>
      <trkpt lat="44.32859" lon="5.10334">
        <ele>246</ele>
        <time>2020-07-11T04:57:04.583Z</time>
      </trkpt>
      <trkpt lat="44.32853" lon="5.10328">
        <ele>246</ele>
        <time>2020-07-11T04:57:05.583Z</time>
      </trkpt>
      <trkpt lat="44.32846" lon="5.10322">
        <ele>247</ele>
        <time>2020-07-11T04:57:06.583Z</time>
      </trkpt>
      <trkpt lat="44.3284" lon="5.10316">
        <ele>247</ele>
        <time>2020-07-11T04:57:07.583Z</time>
      </trkpt>
      <trkpt lat="44.32834" lon="5.1031">
        <ele>247</ele>
        <time>2020-07-11T04:57:08.583Z</time>
      </trkpt>
      <trkpt lat="44.32828" lon="5.10304">
        <ele>247</ele>
        <time>2020-07-11T04:57:09.583Z</time>
      </trkpt>
      <trkpt lat="44.32822" lon="5.10298">
        <ele>247</ele>
        <time>2020-07-11T04:57:10.583Z</time>
      </trkpt>
      <trkpt lat="44.32816" lon="5.10291">
        <ele>247</ele>
        <time>2020-07-11T04:57:11.583Z</time>
      </trkpt>
      <trkpt lat="44.3281" lon="5.10285">
        <ele>246</ele>
        <time>2020-07-11T04:57:12.583Z</time>
      </trkpt>
      <trkpt lat="44.32805" lon="5.10279">
        <ele>246</ele>
        <time>2020-07-11T04:57:13.582Z</time>
      </trkpt>
      <trkpt lat="44.32799" lon="5.10273">
        <ele>245</ele>
        <time>2020-07-11T04:57:14.583Z</time>
      </trkpt>
      <trkpt lat="44.32793" lon="5.10267">
        <ele>245</ele>
        <time>2020-07-11T04:57:15.583Z</time>
      </trkpt>
      <trkpt lat="44.32786" lon="5.10261">
        <ele>245</ele>
        <time>2020-07-11T04:57:16.583Z</time>
      </trkpt>
      <trkpt lat="44.3278" lon="5.10255">
        <ele>245</ele>
        <time>2020-07-11T04:57:17.583Z</time>
      </trkpt>
      <trkpt lat="44.32774" lon="5.10249">
        <ele>245</ele>
        <time>2020-07-11T04:57:18.582Z</time>
      </trkpt>
      <trkpt lat="44.32768" lon="5.10243">
        <ele>245</ele>
        <time>2020-07-11T04:57:19.583Z</time>
      </trkpt>
      <trkpt lat="44.32762" lon="5.10237">
        <ele>246</ele>
        <time>2020-07-11T04:57:20.582Z</time>
      </trkpt>
      <trkpt lat="44.32757" lon="5.10231">
        <ele>246</ele>
        <time>2020-07-11T04:57:21.582Z</time>
      </trkpt>
      <trkpt lat="44.32751" lon="5.10225">
        <ele>246</ele>
        <time>2020-07-11T04:57:22.583Z</time>
      </trkpt>
      <trkpt lat="44.32745" lon="5.10219">
        <ele>246</ele>
        <time>2020-07-11T04:57:23.583Z</time>
      </trkpt>
      <trkpt lat="44.32739" lon="5.10213">
        <ele>246</ele>
        <time>2020-07-11T04:57:24.583Z</time>
      </trkpt>
      <trkpt lat="44.32734" lon="5.10207">
        <ele>246</ele>
        <time>2020-07-11T04:57:25.582Z</time>
      </trkpt>
      <trkpt lat="44.32728" lon="5.10202">
        <ele>247</ele>
        <time>2020-07-11T04:57:26.583Z</time>
      </trkpt>
      <trkpt lat="44.32722" lon="5.10196">
        <ele>247</ele>
        <time>2020-07-11T04:57:27.583Z</time>
      </trkpt>
      <trkpt lat="44.32717" lon="5.10191">
        <ele>247</ele>
        <time>2020-07-11T04:57:28.583Z</time>
      </trkpt>
      <trkpt lat="44.32711" lon="5.10185">
        <ele>247</ele>
        <time>2020-07-11T04:57:29.583Z</time>
      </trkpt>
      <trkpt lat="44.32705" lon="5.1018">
        <ele>248</ele>
        <time>2020-07-11T04:57:30.582Z</time>
      </trkpt>
      <trkpt lat="44.327" lon="5.10174">
        <ele>248</ele>
        <time>2020-07-11T04:57:31.582Z</time>
      </trkpt>
      <trkpt lat="44.32694" lon="5.10168">
        <ele>248</ele>
        <time>2020-07-11T04:57:32.583Z</time>
      </trkpt>
      <trkpt lat="44.32689" lon="5.10163">
        <ele>248</ele>
        <time>2020-07-11T04:57:33.583Z</time>
      </trkpt>
      <trkpt lat="44.32684" lon="5.10158">
        <ele>249</ele>
        <time>2020-07-11T04:57:34.583Z</time>
      </trkpt>
      <trkpt lat="44.32678" lon="5.10152">
        <ele>249</ele>
        <time>2020-07-11T04:57:35.583Z</time>
      </trkpt>
      <trkpt lat="44.32673" lon="5.10147">
        <ele>249</ele>
        <time>2020-07-11T04:57:36.582Z</time>
      </trkpt>
      <trkpt lat="44.32668" lon="5.10141">
        <ele>249</ele>
        <time>2020-07-11T04:57:37.582Z</time>
      </trkpt>
      <trkpt lat="44.32662" lon="5.10135">
        <ele>249</ele>
        <time>2020-07-11T04:57:38.582Z</time>
      </trkpt>
      <trkpt lat="44.32657" lon="5.1013">
        <ele>249</ele>
        <time>2020-07-11T04:57:39.583Z</time>
      </trkpt>
      <trkpt lat="44.32652" lon="5.10125">
        <ele>249</ele>
        <time>2020-07-11T04:57:40.582Z</time>
      </trkpt>
      <trkpt lat="44.32646" lon="5.1012">
        <ele>249</ele>
        <time>2020-07-11T04:57:41.582Z</time>
      </trkpt>
      <trkpt lat="44.32641" lon="5.10114">
        <ele>249</ele>
        <time>2020-07-11T04:57:42.582Z</time>
      </trkpt>
      <trkpt lat="44.32636" lon="5.10109">
        <ele>249</ele>
        <time>2020-07-11T04:57:43.583Z</time>
      </trkpt>
      <trkpt lat="44.3263" lon="5.10104">
        <ele>249</ele>
        <time>2020-07-11T04:57:44.583Z</time>
      </trkpt>
      <trkpt lat="44.32625" lon="5.10098">
        <ele>248</ele>
        <time>2020-07-11T04:57:45.582Z</time>
      </trkpt>
      <trkpt lat="44.3262" lon="5.10093">
        <ele>248</ele>
        <time>2020-07-11T04:57:46.583Z</time>
      </trkpt>
      <trkpt lat="44.32614" lon="5.10087">
        <ele>249</ele>
        <time>2020-07-11T04:57:47.583Z</time>
      </trkpt>
      <trkpt lat="44.32609" lon="5.10082">
        <ele>249</ele>
        <time>2020-07-11T04:57:48.583Z</time>
      </trkpt>
      <trkpt lat="44.32604" lon="5.10076">
        <ele>249</ele>
        <time>2020-07-11T04:57:49.582Z</time>
      </trkpt>
      <trkpt lat="44.32598" lon="5.10071">
        <ele>249</ele>
        <time>2020-07-11T04:57:50.582Z</time>
      </trkpt>
      <trkpt lat="44.32593" lon="5.10066">
        <ele>250</ele>
        <time>2020-07-11T04:57:51.582Z</time>
      </trkpt>
      <trkpt lat="44.32588" lon="5.1006">
        <ele>250</ele>
        <time>2020-07-11T04:57:52.583Z</time>
      </trkpt>
      <trkpt lat="44.32582" lon="5.10055">
        <ele>250</ele>
        <time>2020-07-11T04:57:53.583Z</time>
      </trkpt>
      <trkpt lat="44.32577" lon="5.1005">
        <ele>250</ele>
        <time>2020-07-11T04:57:54.582Z</time>
      </trkpt>
      <trkpt lat="44.32571" lon="5.10044">
        <ele>250</ele>
        <time>2020-07-11T04:57:55.583Z</time>
      </trkpt>
      <trkpt lat="44.32566" lon="5.10039">
        <ele>250</ele>
        <time>2020-07-11T04:57:56.583Z</time>
      </trkpt>
      <trkpt lat="44.32561" lon="5.10034">
        <ele>250</ele>
        <time>2020-07-11T04:57:57.583Z</time>
      </trkpt>
      <trkpt lat="44.32555" lon="5.10029">
        <ele>249</ele>
        <time>2020-07-11T04:57:58.582Z</time>
      </trkpt>
      <trkpt lat="44.3255" lon="5.10024">
        <ele>250</ele>
        <time>2020-07-11T04:57:59.583Z</time>
      </trkpt>
      <trkpt lat="44.32544" lon="5.1002">
        <ele>250</ele>
        <time>2020-07-11T04:58:00.583Z</time>
      </trkpt>
      <trkpt lat="44.32538" lon="5.10015">
        <ele>250</ele>
        <time>2020-07-11T04:58:01.582Z</time>
      </trkpt>
      <trkpt lat="44.32532" lon="5.10012">
        <ele>249</ele>
        <time>2020-07-11T04:58:02.583Z</time>
      </trkpt>
      <trkpt lat="44.32526" lon="5.10008">
        <ele>249</ele>
        <time>2020-07-11T04:58:03.583Z</time>
      </trkpt>
      <trkpt lat="44.3252" lon="5.10005">
        <ele>249</ele>
        <time>2020-07-11T04:58:04.582Z</time>
      </trkpt>
      <trkpt lat="44.32513" lon="5.10002">
        <ele>249</ele>
        <time>2020-07-11T04:58:05.583Z</time>
      </trkpt>
      <trkpt lat="44.32507" lon="5.1">
        <ele>249</ele>
        <time>2020-07-11T04:58:06.583Z</time>
      </trkpt>
      <trkpt lat="44.325" lon="5.09998">
        <ele>248</ele>
        <time>2020-07-11T04:58:07.583Z</time>
      </trkpt>
      <trkpt lat="44.32494" lon="5.09996">
        <ele>249</ele>
        <time>2020-07-11T04:58:08.583Z</time>
      </trkpt>
      <trkpt lat="44.32487" lon="5.09995">
        <ele>249</ele>
        <time>2020-07-11T04:58:09.582Z</time>
      </trkpt>
      <trkpt lat="44.3248" lon="5.09993">
        <ele>249</ele>
        <time>2020-07-11T04:58:10.583Z</time>
      </trkpt>
      <trkpt lat="44.32474" lon="5.09992">
        <ele>249</ele>
        <time>2020-07-11T04:58:11.582Z</time>
      </trkpt>
      <trkpt lat="44.32467" lon="5.0999">
        <ele>250</ele>
        <time>2020-07-11T04:58:12.583Z</time>
      </trkpt>
      <trkpt lat="44.32461" lon="5.09989">
        <ele>250</ele>
        <time>2020-07-11T04:58:13.582Z</time>
      </trkpt>
      <trkpt lat="44.32454" lon="5.09987">
        <ele>250</ele>
        <time>2020-07-11T04:58:14.583Z</time>
      </trkpt>
      <trkpt lat="44.32447" lon="5.09985">
        <ele>251</ele>
        <time>2020-07-11T04:58:15.583Z</time>
      </trkpt>
      <trkpt lat="44.32441" lon="5.09984">
        <ele>251</ele>
        <time>2020-07-11T04:58:16.583Z</time>
      </trkpt>
      <trkpt lat="44.32434" lon="5.09982">
        <ele>251</ele>
        <time>2020-07-11T04:58:17.582Z</time>
      </trkpt>
      <trkpt lat="44.32427" lon="5.09981">
        <ele>251</ele>
        <time>2020-07-11T04:58:18.582Z</time>
      </trkpt>
      <trkpt lat="44.32421" lon="5.09979">
        <ele>251</ele>
        <time>2020-07-11T04:58:19.582Z</time>
      </trkpt>
      <trkpt lat="44.32414" lon="5.09978">
        <ele>252</ele>
        <time>2020-07-11T04:58:20.582Z</time>
      </trkpt>
      <trkpt lat="44.32408" lon="5.09976">
        <ele>252</ele>
        <time>2020-07-11T04:58:21.583Z</time>
      </trkpt>
      <trkpt lat="44.32401" lon="5.09974">
        <ele>251</ele>
        <time>2020-07-11T04:58:22.583Z</time>
      </trkpt>
      <trkpt lat="44.32394" lon="5.09972">
        <ele>252</ele>
        <time>2020-07-11T04:58:23.582Z</time>
      </trkpt>
      <trkpt lat="44.32388" lon="5.0997">
        <ele>252</ele>
        <time>2020-07-11T04:58:24.583Z</time>
      </trkpt>
      <trkpt lat="44.32382" lon="5.09969">
        <ele>252</ele>
        <time>2020-07-11T04:58:25.583Z</time>
      </trkpt>
      <trkpt lat="44.32375" lon="5.09967">
        <ele>252</ele>
        <time>2020-07-11T04:58:26.583Z</time>
      </trkpt>
      <trkpt lat="44.32369" lon="5.09966">
        <ele>252</ele>
        <time>2020-07-11T04:58:27.583Z</time>
      </trkpt>
      <trkpt lat="44.32362" lon="5.09964">
        <ele>252</ele>
        <time>2020-07-11T04:58:28.583Z</time>
      </trkpt>
      <trkpt lat="44.32356" lon="5.09962">
        <ele>252</ele>
        <time>2020-07-11T04:58:29.582Z</time>
      </trkpt>
      <trkpt lat="44.32349" lon="5.09961">
        <ele>252</ele>
        <time>2020-07-11T04:58:30.582Z</time>
      </trkpt>
      <trkpt lat="44.32343" lon="5.09959">
        <ele>252</ele>
        <time>2020-07-11T04:58:31.583Z</time>
      </trkpt>
      <trkpt lat="44.32336" lon="5.09957">
        <ele>252</ele>
        <time>2020-07-11T04:58:32.583Z</time>
      </trkpt>
      <trkpt lat="44.3233" lon="5.09955">
        <ele>252</ele>
        <time>2020-07-11T04:58:33.582Z</time>
      </trkpt>
      <trkpt lat="44.32323" lon="5.09954">
        <ele>252</ele>
        <time>2020-07-11T04:58:34.582Z</time>
      </trkpt>
      <trkpt lat="44.32317" lon="5.09952">
        <ele>252</ele>
        <time>2020-07-11T04:58:35.583Z</time>
      </trkpt>
      <trkpt lat="44.32311" lon="5.09951">
        <ele>252</ele>
        <time>2020-07-11T04:58:36.582Z</time>
      </trkpt>
      <trkpt lat="44.32304" lon="5.09949">
        <ele>252</ele>
        <time>2020-07-11T04:58:37.582Z</time>
      </trkpt>
      <trkpt lat="44.32298" lon="5.09948">
        <ele>252</ele>
        <time>2020-07-11T04:58:38.583Z</time>
      </trkpt>
      <trkpt lat="44.32292" lon="5.09946">
        <ele>252</ele>
        <time>2020-07-11T04:58:39.582Z</time>
      </trkpt>
      <trkpt lat="44.32286" lon="5.09944">
        <ele>252</ele>
        <time>2020-07-11T04:58:40.582Z</time>
      </trkpt>
      <trkpt lat="44.32279" lon="5.09943">
        <ele>253</ele>
        <time>2020-07-11T04:58:41.583Z</time>
      </trkpt>
      <trkpt lat="44.32274" lon="5.09941">
        <ele>253</ele>
        <time>2020-07-11T04:58:42.583Z</time>
      </trkpt>
      <trkpt lat="44.32267" lon="5.0994">
        <ele>253</ele>
        <time>2020-07-11T04:58:43.583Z</time>
      </trkpt>
      <trkpt lat="44.32261" lon="5.09938">
        <ele>253</ele>
        <time>2020-07-11T04:58:44.583Z</time>
      </trkpt>
      <trkpt lat="44.32255" lon="5.09936">
        <ele>253</ele>
        <time>2020-07-11T04:58:45.583Z</time>
      </trkpt>
      <trkpt lat="44.32249" lon="5.09935">
        <ele>253</ele>
        <time>2020-07-11T04:58:46.583Z</time>
      </trkpt>
      <trkpt lat="44.32242" lon="5.09933">
        <ele>253</ele>
        <time>2020-07-11T04:58:47.583Z</time>
      </trkpt>
      <trkpt lat="44.32236" lon="5.09931">
        <ele>253</ele>
        <time>2020-07-11T04:58:48.582Z</time>
      </trkpt>
      <trkpt lat="44.3223" lon="5.0993">
        <ele>253</ele>
        <time>2020-07-11T04:58:49.582Z</time>
      </trkpt>
      <trkpt lat="44.32224" lon="5.09928">
        <ele>253</ele>
        <time>2020-07-11T04:58:50.583Z</time>
      </trkpt>
      <trkpt lat="44.32217" lon="5.09927">
        <ele>253</ele>
        <time>2020-07-11T04:58:51.583Z</time>
      </trkpt>
      <trkpt lat="44.32211" lon="5.09925">
        <ele>253</ele>
        <time>2020-07-11T04:58:52.583Z</time>
      </trkpt>
      <trkpt lat="44.32205" lon="5.09923">
        <ele>253</ele>
        <time>2020-07-11T04:58:53.582Z</time>
      </trkpt>
      <trkpt lat="44.32199" lon="5.09921">
        <ele>253</ele>
        <time>2020-07-11T04:58:54.582Z</time>
      </trkpt>
      <trkpt lat="44.32193" lon="5.09919">
        <ele>254</ele>
        <time>2020-07-11T04:58:55.583Z</time>
      </trkpt>
      <trkpt lat="44.32186" lon="5.09917">
        <ele>254</ele>
        <time>2020-07-11T04:58:56.583Z</time>
      </trkpt>
      <trkpt lat="44.3218" lon="5.09916">
        <ele>254</ele>
        <time>2020-07-11T04:58:57.583Z</time>
      </trkpt>
      <trkpt lat="44.32174" lon="5.09915">
        <ele>254</ele>
        <time>2020-07-11T04:58:58.582Z</time>
      </trkpt>
      <trkpt lat="44.32168" lon="5.09913">
        <ele>254</ele>
        <time>2020-07-11T04:58:59.583Z</time>
      </trkpt>
      <trkpt lat="44.32162" lon="5.09911">
        <ele>254</ele>
        <time>2020-07-11T04:59:00.582Z</time>
      </trkpt>
      <trkpt lat="44.32155" lon="5.09909">
        <ele>254</ele>
        <time>2020-07-11T04:59:01.582Z</time>
      </trkpt>
      <trkpt lat="44.32149" lon="5.09908">
        <ele>254</ele>
        <time>2020-07-11T04:59:02.583Z</time>
      </trkpt>
      <trkpt lat="44.32143" lon="5.09906">
        <ele>254</ele>
        <time>2020-07-11T04:59:03.582Z</time>
      </trkpt>
      <trkpt lat="44.32136" lon="5.09904">
        <ele>254</ele>
        <time>2020-07-11T04:59:04.583Z</time>
      </trkpt>
      <trkpt lat="44.3213" lon="5.09902">
        <ele>254</ele>
        <time>2020-07-11T04:59:05.583Z</time>
      </trkpt>
      <trkpt lat="44.32123" lon="5.099">
        <ele>254</ele>
        <time>2020-07-11T04:59:06.583Z</time>
      </trkpt>
      <trkpt lat="44.32117" lon="5.09899">
        <ele>254</ele>
        <time>2020-07-11T04:59:07.583Z</time>
      </trkpt>
      <trkpt lat="44.3211" lon="5.09897">
        <ele>254</ele>
        <time>2020-07-11T04:59:08.582Z</time>
      </trkpt>
      <trkpt lat="44.32104" lon="5.09895">
        <ele>254</ele>
        <time>2020-07-11T04:59:09.582Z</time>
      </trkpt>
      <trkpt lat="44.32097" lon="5.09893">
        <ele>253</ele>
        <time>2020-07-11T04:59:10.583Z</time>
      </trkpt>
      <trkpt lat="44.3209" lon="5.09891">
        <ele>253</ele>
        <time>2020-07-11T04:59:11.583Z</time>
      </trkpt>
      <trkpt lat="44.32083" lon="5.0989">
        <ele>254</ele>
        <time>2020-07-11T04:59:12.583Z</time>
      </trkpt>
      <trkpt lat="44.32076" lon="5.09888">
        <ele>254</ele>
        <time>2020-07-11T04:59:13.583Z</time>
      </trkpt>
      <trkpt lat="44.3207" lon="5.09887">
        <ele>254</ele>
        <time>2020-07-11T04:59:14.582Z</time>
      </trkpt>
      <trkpt lat="44.32063" lon="5.09886">
        <ele>254</ele>
        <time>2020-07-11T04:59:15.582Z</time>
      </trkpt>
      <trkpt lat="44.32057" lon="5.09885">
        <ele>255</ele>
        <time>2020-07-11T04:59:16.583Z</time>
      </trkpt>
      <trkpt lat="44.3205" lon="5.09885">
        <ele>255</ele>
        <time>2020-07-11T04:59:17.583Z</time>
      </trkpt>
      <trkpt lat="44.32043" lon="5.09884">
        <ele>256</ele>
        <time>2020-07-11T04:59:18.583Z</time>
      </trkpt>
      <trkpt lat="44.32036" lon="5.09883">
        <ele>256</ele>
        <time>2020-07-11T04:59:19.583Z</time>
      </trkpt>
      <trkpt lat="44.3203" lon="5.09883">
        <ele>255</ele>
        <time>2020-07-11T04:59:20.583Z</time>
      </trkpt>
      <trkpt lat="44.32023" lon="5.09883">
        <ele>255</ele>
        <time>2020-07-11T04:59:21.583Z</time>
      </trkpt>
      <trkpt lat="44.32016" lon="5.09883">
        <ele>255</ele>
        <time>2020-07-11T04:59:22.583Z</time>
      </trkpt>
      <trkpt lat="44.3201" lon="5.09883">
        <ele>255</ele>
        <time>2020-07-11T04:59:23.583Z</time>
      </trkpt>
      <trkpt lat="44.32003" lon="5.09884">
        <ele>255</ele>
        <time>2020-07-11T04:59:24.583Z</time>
      </trkpt>
      <trkpt lat="44.31997" lon="5.09885">
        <ele>255</ele>
        <time>2020-07-11T04:59:25.583Z</time>
      </trkpt>
      <trkpt lat="44.3199" lon="5.09885">
        <ele>255</ele>
        <time>2020-07-11T04:59:26.583Z</time>
      </trkpt>
      <trkpt lat="44.31983" lon="5.09886">
        <ele>255</ele>
        <time>2020-07-11T04:59:27.582Z</time>
      </trkpt>
      <trkpt lat="44.31976" lon="5.09887">
        <ele>255</ele>
        <time>2020-07-11T04:59:28.583Z</time>
      </trkpt>
      <trkpt lat="44.31969" lon="5.09888">
        <ele>256</ele>
        <time>2020-07-11T04:59:29.583Z</time>
      </trkpt>
      <trkpt lat="44.31962" lon="5.09889">
        <ele>256</ele>
        <time>2020-07-11T04:59:30.582Z</time>
      </trkpt>
      <trkpt lat="44.31955" lon="5.0989">
        <ele>256</ele>
        <time>2020-07-11T04:59:31.583Z</time>
      </trkpt>
      <trkpt lat="44.31948" lon="5.09891">
        <ele>257</ele>
        <time>2020-07-11T04:59:32.582Z</time>
      </trkpt>
      <trkpt lat="44.31941" lon="5.09892">
        <ele>257</ele>
        <time>2020-07-11T04:59:33.582Z</time>
      </trkpt>
      <trkpt lat="44.31934" lon="5.09893">
        <ele>257</ele>
        <time>2020-07-11T04:59:34.583Z</time>
      </trkpt>
      <trkpt lat="44.31927" lon="5.09894">
        <ele>257</ele>
        <time>2020-07-11T04:59:35.583Z</time>
      </trkpt>
      <trkpt lat="44.3192" lon="5.09895">
        <ele>257</ele>
        <time>2020-07-11T04:59:36.582Z</time>
      </trkpt>
      <trkpt lat="44.31913" lon="5.09896">
        <ele>258</ele>
        <time>2020-07-11T04:59:37.583Z</time>
      </trkpt>
      <trkpt lat="44.31906" lon="5.09898">
        <ele>258</ele>
        <time>2020-07-11T04:59:38.583Z</time>
      </trkpt>
      <trkpt lat="44.31899" lon="5.09899">
        <ele>258</ele>
        <time>2020-07-11T04:59:39.583Z</time>
      </trkpt>
      <trkpt lat="44.31892" lon="5.099">
        <ele>259</ele>
        <time>2020-07-11T04:59:40.583Z</time>
      </trkpt>
      <trkpt lat="44.31885" lon="5.09901">
        <ele>258</ele>
        <time>2020-07-11T04:59:41.582Z</time>
      </trkpt>
      <trkpt lat="44.31878" lon="5.09901">
        <ele>258</ele>
        <time>2020-07-11T04:59:42.583Z</time>
      </trkpt>
      <trkpt lat="44.31871" lon="5.09903">
        <ele>258</ele>
        <time>2020-07-11T04:59:43.583Z</time>
      </trkpt>
      <trkpt lat="44.31863" lon="5.09904">
        <ele>258</ele>
        <time>2020-07-11T04:59:44.582Z</time>
      </trkpt>
      <trkpt lat="44.31857" lon="5.09905">
        <ele>258</ele>
        <time>2020-07-11T04:59:45.583Z</time>
      </trkpt>
      <trkpt lat="44.31849" lon="5.09906">
        <ele>258</ele>
        <time>2020-07-11T04:59:46.582Z</time>
      </trkpt>
      <trkpt lat="44.31842" lon="5.09907">
        <ele>257</ele>
        <time>2020-07-11T04:59:47.583Z</time>
      </trkpt>
      <trkpt lat="44.31835" lon="5.09908">
        <ele>258</ele>
        <time>2020-07-11T04:59:48.583Z</time>
      </trkpt>
      <trkpt lat="44.31828" lon="5.09909">
        <ele>257</ele>
        <time>2020-07-11T04:59:49.583Z</time>
      </trkpt>
      <trkpt lat="44.31821" lon="5.0991">
        <ele>257</ele>
        <time>2020-07-11T04:59:50.583Z</time>
      </trkpt>
      <trkpt lat="44.31814" lon="5.09911">
        <ele>257</ele>
        <time>2020-07-11T04:59:51.583Z</time>
      </trkpt>
      <trkpt lat="44.31807" lon="5.09912">
        <ele>257</ele>
        <time>2020-07-11T04:59:52.583Z</time>
      </trkpt>
      <trkpt lat="44.318" lon="5.09913">
        <ele>257</ele>
        <time>2020-07-11T04:59:53.583Z</time>
      </trkpt>
      <trkpt lat="44.31792" lon="5.09914">
        <ele>257</ele>
        <time>2020-07-11T04:59:54.583Z</time>
      </trkpt>
      <trkpt lat="44.31785" lon="5.09915">
        <ele>257</ele>
        <time>2020-07-11T04:59:55.582Z</time>
      </trkpt>
      <trkpt lat="44.31778" lon="5.09916">
        <ele>257</ele>
        <time>2020-07-11T04:59:56.583Z</time>
      </trkpt>
      <trkpt lat="44.31771" lon="5.09917">
        <ele>257</ele>
        <time>2020-07-11T04:59:57.582Z</time>
      </trkpt>
      <trkpt lat="44.31764" lon="5.09918">
        <ele>257</ele>
        <time>2020-07-11T04:59:58.583Z</time>
      </trkpt>
      <trkpt lat="44.31757" lon="5.09919">
        <ele>257</ele>
        <time>2020-07-11T04:59:59.583Z</time>
      </trkpt>
      <trkpt lat="44.3175" lon="5.0992">
        <ele>257</ele>
        <time>2020-07-11T05:00:00.583Z</time>
      </trkpt>
      <trkpt lat="44.31743" lon="5.09921">
        <ele>257</ele>
        <time>2020-07-11T05:00:01.582Z</time>
      </trkpt>
      <trkpt lat="44.31736" lon="5.09923">
        <ele>257</ele>
        <time>2020-07-11T05:00:02.582Z</time>
      </trkpt>
      <trkpt lat="44.31729" lon="5.09924">
        <ele>257</ele>
        <time>2020-07-11T05:00:03.583Z</time>
      </trkpt>
      <trkpt lat="44.31722" lon="5.09925">
        <ele>257</ele>
        <time>2020-07-11T05:00:04.582Z</time>
      </trkpt>
      <trkpt lat="44.31715" lon="5.09926">
        <ele>256</ele>
        <time>2020-07-11T05:00:05.583Z</time>
      </trkpt>
      <trkpt lat="44.31708" lon="5.09927">
        <ele>256</ele>
        <time>2020-07-11T05:00:06.583Z</time>
      </trkpt>
      <trkpt lat="44.31701" lon="5.09927">
        <ele>256</ele>
        <time>2020-07-11T05:00:07.583Z</time>
      </trkpt>
      <trkpt lat="44.31693" lon="5.09928">
        <ele>256</ele>
        <time>2020-07-11T05:00:08.583Z</time>
      </trkpt>
      <trkpt lat="44.31686" lon="5.09929">
        <ele>255</ele>
        <time>2020-07-11T05:00:09.583Z</time>
      </trkpt>
      <trkpt lat="44.31679" lon="5.09928">
        <ele>255</ele>
        <time>2020-07-11T05:00:10.583Z</time>
      </trkpt>
      <trkpt lat="44.31671" lon="5.09927">
        <ele>255</ele>
        <time>2020-07-11T05:00:11.583Z</time>
      </trkpt>
      <trkpt lat="44.31664" lon="5.09925">
        <ele>255</ele>
        <time>2020-07-11T05:00:12.583Z</time>
      </trkpt>
      <trkpt lat="44.31656" lon="5.09922">
        <ele>255</ele>
        <time>2020-07-11T05:00:13.583Z</time>
      </trkpt>
      <trkpt lat="44.31649" lon="5.09918">
        <ele>255</ele>
        <time>2020-07-11T05:00:14.582Z</time>
      </trkpt>
      <trkpt lat="44.31641" lon="5.09913">
        <ele>255</ele>
        <time>2020-07-11T05:00:15.583Z</time>
      </trkpt>
      <trkpt lat="44.31634" lon="5.09908">
        <ele>255</ele>
        <time>2020-07-11T05:00:16.582Z</time>
      </trkpt>
      <trkpt lat="44.31627" lon="5.09903">
        <ele>255</ele>
        <time>2020-07-11T05:00:17.583Z</time>
      </trkpt>
      <trkpt lat="44.31621" lon="5.09898">
        <ele>255</ele>
        <time>2020-07-11T05:00:18.583Z</time>
      </trkpt>
      <trkpt lat="44.31614" lon="5.09892">
        <ele>254</ele>
        <time>2020-07-11T05:00:19.583Z</time>
      </trkpt>
      <trkpt lat="44.31607" lon="5.09887">
        <ele>254</ele>
        <time>2020-07-11T05:00:20.582Z</time>
      </trkpt>
      <trkpt lat="44.31601" lon="5.09881">
        <ele>254</ele>
        <time>2020-07-11T05:00:21.583Z</time>
      </trkpt>
      <trkpt lat="44.31595" lon="5.09875">
        <ele>254</ele>
        <time>2020-07-11T05:00:22.583Z</time>
      </trkpt>
      <trkpt lat="44.31589" lon="5.09868">
        <ele>254</ele>
        <time>2020-07-11T05:00:23.583Z</time>
      </trkpt>
      <trkpt lat="44.31583" lon="5.09861">
        <ele>254</ele>
        <time>2020-07-11T05:00:24.583Z</time>
      </trkpt>
      <trkpt lat="44.31577" lon="5.09854">
        <ele>253</ele>
        <time>2020-07-11T05:00:25.583Z</time>
      </trkpt>
      <trkpt lat="44.31571" lon="5.09847">
        <ele>253</ele>
        <time>2020-07-11T05:00:26.583Z</time>
      </trkpt>
      <trkpt lat="44.31566" lon="5.0984">
        <ele>253</ele>
        <time>2020-07-11T05:00:27.582Z</time>
      </trkpt>
      <trkpt lat="44.31561" lon="5.09832">
        <ele>252</ele>
        <time>2020-07-11T05:00:28.583Z</time>
      </trkpt>
      <trkpt lat="44.31556" lon="5.09825">
        <ele>252</ele>
        <time>2020-07-11T05:00:29.582Z</time>
      </trkpt>
      <trkpt lat="44.31552" lon="5.09818">
        <ele>251</ele>
        <time>2020-07-11T05:00:30.582Z</time>
      </trkpt>
      <trkpt lat="44.31546" lon="5.09813">
        <ele>251</ele>
        <time>2020-07-11T05:00:31.583Z</time>
      </trkpt>
      <trkpt lat="44.31539" lon="5.09811">
        <ele>251</ele>
        <time>2020-07-11T05:00:32.583Z</time>
      </trkpt>
      <trkpt lat="44.31532" lon="5.09811">
        <ele>251</ele>
        <time>2020-07-11T05:00:33.583Z</time>
      </trkpt>
      <trkpt lat="44.31525" lon="5.09811">
        <ele>251</ele>
        <time>2020-07-11T05:00:34.582Z</time>
      </trkpt>
      <trkpt lat="44.31517" lon="5.0981">
        <ele>250</ele>
        <time>2020-07-11T05:00:35.583Z</time>
      </trkpt>
      <trkpt lat="44.3151" lon="5.09807">
        <ele>250</ele>
        <time>2020-07-11T05:00:36.582Z</time>
      </trkpt>
      <trkpt lat="44.31502" lon="5.09803">
        <ele>249</ele>
        <time>2020-07-11T05:00:37.582Z</time>
      </trkpt>
      <trkpt lat="44.31494" lon="5.09798">
        <ele>249</ele>
        <time>2020-07-11T05:00:38.583Z</time>
      </trkpt>
      <trkpt lat="44.31486" lon="5.09792">
        <ele>248</ele>
        <time>2020-07-11T05:00:39.582Z</time>
      </trkpt>
      <trkpt lat="44.31478" lon="5.09787">
        <ele>248</ele>
        <time>2020-07-11T05:00:40.583Z</time>
      </trkpt>
      <trkpt lat="44.3147" lon="5.09781">
        <ele>248</ele>
        <time>2020-07-11T05:00:41.583Z</time>
      </trkpt>
      <trkpt lat="44.31462" lon="5.09774">
        <ele>248</ele>
        <time>2020-07-11T05:00:42.582Z</time>
      </trkpt>
      <trkpt lat="44.31453" lon="5.09767">
        <ele>248</ele>
        <time>2020-07-11T05:00:43.582Z</time>
      </trkpt>
      <trkpt lat="44.31445" lon="5.09762">
        <ele>249</ele>
        <time>2020-07-11T05:00:44.583Z</time>
      </trkpt>
      <trkpt lat="44.31437" lon="5.09756">
        <ele>249</ele>
        <time>2020-07-11T05:00:45.583Z</time>
      </trkpt>
      <trkpt lat="44.31429" lon="5.0975">
        <ele>249</ele>
        <time>2020-07-11T05:00:46.583Z</time>
      </trkpt>
      <trkpt lat="44.31422" lon="5.09745">
        <ele>249</ele>
        <time>2020-07-11T05:00:47.583Z</time>
      </trkpt>
      <trkpt lat="44.31414" lon="5.0974">
        <ele>249</ele>
        <time>2020-07-11T05:00:48.583Z</time>
      </trkpt>
      <trkpt lat="44.31406" lon="5.09736">
        <ele>248</ele>
        <time>2020-07-11T05:00:49.583Z</time>
      </trkpt>
      <trkpt lat="44.31399" lon="5.09733">
        <ele>248</ele>
        <time>2020-07-11T05:00:50.583Z</time>
      </trkpt>
      <trkpt lat="44.31391" lon="5.09731">
        <ele>247</ele>
        <time>2020-07-11T05:00:51.583Z</time>
      </trkpt>
      <trkpt lat="44.31384" lon="5.0973">
        <ele>247</ele>
        <time>2020-07-11T05:00:52.583Z</time>
      </trkpt>
      <trkpt lat="44.31377" lon="5.09729">
        <ele>247</ele>
        <time>2020-07-11T05:00:53.583Z</time>
      </trkpt>
      <trkpt lat="44.3137" lon="5.09728">
        <ele>247</ele>
        <time>2020-07-11T05:00:54.582Z</time>
      </trkpt>
      <trkpt lat="44.31363" lon="5.09727">
        <ele>247</ele>
        <time>2020-07-11T05:00:55.583Z</time>
      </trkpt>
      <trkpt lat="44.31357" lon="5.09726">
        <ele>247</ele>
        <time>2020-07-11T05:00:56.583Z</time>
      </trkpt>
      <trkpt lat="44.3135" lon="5.09725">
        <ele>247</ele>
        <time>2020-07-11T05:00:57.583Z</time>
      </trkpt>
      <trkpt lat="44.31344" lon="5.09725">
        <ele>247</ele>
        <time>2020-07-11T05:00:58.583Z</time>
      </trkpt>
      <trkpt lat="44.31338" lon="5.09724">
        <ele>247</ele>
        <time>2020-07-11T05:00:59.583Z</time>
      </trkpt>
      <trkpt lat="44.31332" lon="5.09723">
        <ele>247</ele>
        <time>2020-07-11T05:01:00.583Z</time>
      </trkpt>
      <trkpt lat="44.31326" lon="5.09722">
        <ele>247</ele>
        <time>2020-07-11T05:01:01.583Z</time>
      </trkpt>
      <trkpt lat="44.3132" lon="5.09721">
        <ele>248</ele>
        <time>2020-07-11T05:01:02.583Z</time>
      </trkpt>
      <trkpt lat="44.31315" lon="5.0972">
        <ele>248</ele>
        <time>2020-07-11T05:01:03.583Z</time>
      </trkpt>
      <trkpt lat="44.31309" lon="5.09718">
        <ele>249</ele>
        <time>2020-07-11T05:01:04.583Z</time>
      </trkpt>
      <trkpt lat="44.31304" lon="5.09717">
        <ele>249</ele>
        <time>2020-07-11T05:01:05.583Z</time>
      </trkpt>
      <trkpt lat="44.31299" lon="5.09715">
        <ele>249</ele>
        <time>2020-07-11T05:01:06.583Z</time>
      </trkpt>
      <trkpt lat="44.31294" lon="5.09715">
        <ele>249</ele>
        <time>2020-07-11T05:01:07.583Z</time>
      </trkpt>
      <trkpt lat="44.31288" lon="5.09714">
        <ele>249</ele>
        <time>2020-07-11T05:01:08.583Z</time>
      </trkpt>
      <trkpt lat="44.31283" lon="5.09714">
        <ele>249</ele>
        <time>2020-07-11T05:01:09.583Z</time>
      </trkpt>
      <trkpt lat="44.31278" lon="5.09715">
        <ele>249</ele>
        <time>2020-07-11T05:01:10.583Z</time>
      </trkpt>
      <trkpt lat="44.31273" lon="5.09716">
        <ele>249</ele>
        <time>2020-07-11T05:01:11.583Z</time>
      </trkpt>
      <trkpt lat="44.31268" lon="5.09716">
        <ele>250</ele>
        <time>2020-07-11T05:01:12.582Z</time>
      </trkpt>
      <trkpt lat="44.31263" lon="5.09717">
        <ele>250</ele>
        <time>2020-07-11T05:01:13.583Z</time>
      </trkpt>
      <trkpt lat="44.31258" lon="5.09717">
        <ele>250</ele>
        <time>2020-07-11T05:01:14.583Z</time>
      </trkpt>
      <trkpt lat="44.31253" lon="5.09718">
        <ele>250</ele>
        <time>2020-07-11T05:01:15.582Z</time>
      </trkpt>
      <trkpt lat="44.31249" lon="5.09718">
        <ele>250</ele>
        <time>2020-07-11T05:01:16.582Z</time>
      </trkpt>
      <trkpt lat="44.31244" lon="5.09718">
        <ele>250</ele>
        <time>2020-07-11T05:01:17.583Z</time>
      </trkpt>
      <trkpt lat="44.31239" lon="5.09719">
        <ele>250</ele>
        <time>2020-07-11T05:01:18.582Z</time>
      </trkpt>
      <trkpt lat="44.31234" lon="5.0972">
        <ele>251</ele>
        <time>2020-07-11T05:01:19.583Z</time>
      </trkpt>
      <trkpt lat="44.3123" lon="5.09721">
        <ele>252</ele>
        <time>2020-07-11T05:01:20.583Z</time>
      </trkpt>
      <trkpt lat="44.31225" lon="5.09722">
        <ele>253</ele>
        <time>2020-07-11T05:01:21.583Z</time>
      </trkpt>
      <trkpt lat="44.31221" lon="5.09723">
        <ele>253</ele>
        <time>2020-07-11T05:01:22.582Z</time>
      </trkpt>
      <trkpt lat="44.31216" lon="5.09724">
        <ele>254</ele>
        <time>2020-07-11T05:01:23.583Z</time>
      </trkpt>
      <trkpt lat="44.31211" lon="5.09725">
        <ele>254</ele>
        <time>2020-07-11T05:01:24.583Z</time>
      </trkpt>
      <trkpt lat="44.31207" lon="5.09727">
        <ele>254</ele>
        <time>2020-07-11T05:01:25.583Z</time>
      </trkpt>
      <trkpt lat="44.31202" lon="5.09729">
        <ele>254</ele>
        <time>2020-07-11T05:01:26.582Z</time>
      </trkpt>
      <trkpt lat="44.31198" lon="5.09731">
        <ele>255</ele>
        <time>2020-07-11T05:01:27.583Z</time>
      </trkpt>
      <trkpt lat="44.31193" lon="5.09732">
        <ele>256</ele>
        <time>2020-07-11T05:01:28.583Z</time>
      </trkpt>
      <trkpt lat="44.31189" lon="5.09734">
        <ele>256</ele>
        <time>2020-07-11T05:01:29.582Z</time>
      </trkpt>
      <trkpt lat="44.31184" lon="5.09737">
        <ele>257</ele>
        <time>2020-07-11T05:01:30.583Z</time>
      </trkpt>
      <trkpt lat="44.3118" lon="5.09738">
        <ele>257</ele>
        <time>2020-07-11T05:01:31.582Z</time>
      </trkpt>
      <trkpt lat="44.31176" lon="5.0974">
        <ele>257</ele>
        <time>2020-07-11T05:01:32.582Z</time>
      </trkpt>
      <trkpt lat="44.31172" lon="5.09743">
        <ele>257</ele>
        <time>2020-07-11T05:01:33.582Z</time>
      </trkpt>
      <trkpt lat="44.31167" lon="5.09745">
        <ele>257</ele>
        <time>2020-07-11T05:01:34.583Z</time>
      </trkpt>
      <trkpt lat="44.31163" lon="5.09747">
        <ele>256</ele>
        <time>2020-07-11T05:01:35.582Z</time>
      </trkpt>
      <trkpt lat="44.31159" lon="5.0975">
        <ele>256</ele>
        <time>2020-07-11T05:01:36.582Z</time>
      </trkpt>
      <trkpt lat="44.31155" lon="5.09752">
        <ele>255</ele>
        <time>2020-07-11T05:01:37.582Z</time>
      </trkpt>
      <trkpt lat="44.31151" lon="5.09755">
        <ele>255</ele>
        <time>2020-07-11T05:01:38.583Z</time>
      </trkpt>
      <trkpt lat="44.31147" lon="5.09758">
        <ele>255</ele>
        <time>2020-07-11T05:01:39.583Z</time>
      </trkpt>
      <trkpt lat="44.31143" lon="5.09761">
        <ele>255</ele>
        <time>2020-07-11T05:01:40.582Z</time>
      </trkpt>
      <trkpt lat="44.31139" lon="5.09764">
        <ele>255</ele>
        <time>2020-07-11T05:01:41.582Z</time>
      </trkpt>
      <trkpt lat="44.31136" lon="5.09768">
        <ele>255</ele>
        <time>2020-07-11T05:01:42.583Z</time>
      </trkpt>
      <trkpt lat="44.31132" lon="5.09772">
        <ele>256</ele>
        <time>2020-07-11T05:01:43.583Z</time>
      </trkpt>
      <trkpt lat="44.31129" lon="5.09777">
        <ele>257</ele>
        <time>2020-07-11T05:01:44.582Z</time>
      </trkpt>
      <trkpt lat="44.31126" lon="5.09781">
        <ele>257</ele>
        <time>2020-07-11T05:01:45.583Z</time>
      </trkpt>
      <trkpt lat="44.31123" lon="5.09786">
        <ele>258</ele>
        <time>2020-07-11T05:01:46.582Z</time>
      </trkpt>
      <trkpt lat="44.3112" lon="5.09791">
        <ele>258</ele>
        <time>2020-07-11T05:01:47.583Z</time>
      </trkpt>
      <trkpt lat="44.31117" lon="5.09797">
        <ele>259</ele>
        <time>2020-07-11T05:01:48.583Z</time>
      </trkpt>
      <trkpt lat="44.31114" lon="5.09802">
        <ele>260</ele>
        <time>2020-07-11T05:01:49.583Z</time>
      </trkpt>
      <trkpt lat="44.31111" lon="5.09807">
        <ele>260</ele>
        <time>2020-07-11T05:01:50.583Z</time>
      </trkpt>
      <trkpt lat="44.31109" lon="5.09812">
        <ele>260</ele>
        <time>2020-07-11T05:01:51.583Z</time>
      </trkpt>
      <trkpt lat="44.31106" lon="5.09817">
        <ele>260</ele>
        <time>2020-07-11T05:01:52.583Z</time>
      </trkpt>
      <trkpt lat="44.31102" lon="5.09821">
        <ele>261</ele>
        <time>2020-07-11T05:01:53.583Z</time>
      </trkpt>
      <trkpt lat="44.31099" lon="5.09826">
        <ele>261</ele>
        <time>2020-07-11T05:01:54.582Z</time>
      </trkpt>
      <trkpt lat="44.31095" lon="5.0983">
        <ele>261</ele>
        <time>2020-07-11T05:01:55.583Z</time>
      </trkpt>
      <trkpt lat="44.31091" lon="5.09835">
        <ele>261</ele>
        <time>2020-07-11T05:01:56.582Z</time>
      </trkpt>
      <trkpt lat="44.31088" lon="5.09839">
        <ele>261</ele>
        <time>2020-07-11T05:01:57.582Z</time>
      </trkpt>
      <trkpt lat="44.31084" lon="5.09842">
        <ele>261</ele>
        <time>2020-07-11T05:01:58.583Z</time>
      </trkpt>
      <trkpt lat="44.3108" lon="5.09846">
        <ele>261</ele>
        <time>2020-07-11T05:01:59.583Z</time>
      </trkpt>
      <trkpt lat="44.31076" lon="5.09849">
        <ele>262</ele>
        <time>2020-07-11T05:02:00.583Z</time>
      </trkpt>
      <trkpt lat="44.31072" lon="5.09852">
        <ele>262</ele>
        <time>2020-07-11T05:02:01.583Z</time>
      </trkpt>
      <trkpt lat="44.31068" lon="5.09855">
        <ele>263</ele>
        <time>2020-07-11T05:02:02.582Z</time>
      </trkpt>
      <trkpt lat="44.31065" lon="5.09859">
        <ele>263</ele>
        <time>2020-07-11T05:02:03.582Z</time>
      </trkpt>
      <trkpt lat="44.31061" lon="5.09863">
        <ele>264</ele>
        <time>2020-07-11T05:02:04.583Z</time>
      </trkpt>
      <trkpt lat="44.31056" lon="5.09866">
        <ele>264</ele>
        <time>2020-07-11T05:02:05.583Z</time>
      </trkpt>
      <trkpt lat="44.31052" lon="5.09869">
        <ele>265</ele>
        <time>2020-07-11T05:02:06.583Z</time>
      </trkpt>
      <trkpt lat="44.31048" lon="5.09873">
        <ele>265</ele>
        <time>2020-07-11T05:02:07.583Z</time>
      </trkpt>
      <trkpt lat="44.31044" lon="5.09875">
        <ele>266</ele>
        <time>2020-07-11T05:02:08.583Z</time>
      </trkpt>
      <trkpt lat="44.3104" lon="5.09879">
        <ele>266</ele>
        <time>2020-07-11T05:02:09.583Z</time>
      </trkpt>
      <trkpt lat="44.31036" lon="5.09883">
        <ele>266</ele>
        <time>2020-07-11T05:02:10.583Z</time>
      </trkpt>
      <trkpt lat="44.31032" lon="5.09885">
        <ele>266</ele>
        <time>2020-07-11T05:02:11.583Z</time>
      </trkpt>
      <trkpt lat="44.31027" lon="5.09885">
        <ele>266</ele>
        <time>2020-07-11T05:02:12.583Z</time>
      </trkpt>
      <trkpt lat="44.31022" lon="5.09885">
        <ele>266</ele>
        <time>2020-07-11T05:02:13.582Z</time>
      </trkpt>
      <trkpt lat="44.31017" lon="5.09884">
        <ele>267</ele>
        <time>2020-07-11T05:02:14.583Z</time>
      </trkpt>
      <trkpt lat="44.31012" lon="5.09881">
        <ele>267</ele>
        <time>2020-07-11T05:02:15.583Z</time>
      </trkpt>
      <trkpt lat="44.31007" lon="5.09879">
        <ele>267</ele>
        <time>2020-07-11T05:02:16.583Z</time>
      </trkpt>
      <trkpt lat="44.31003" lon="5.09878">
        <ele>267</ele>
        <time>2020-07-11T05:02:17.583Z</time>
      </trkpt>
      <trkpt lat="44.30998" lon="5.09876">
        <ele>267</ele>
        <time>2020-07-11T05:02:18.583Z</time>
      </trkpt>
      <trkpt lat="44.30994" lon="5.09874">
        <ele>267</ele>
        <time>2020-07-11T05:02:19.583Z</time>
      </trkpt>
      <trkpt lat="44.30989" lon="5.09872">
        <ele>268</ele>
        <time>2020-07-11T05:02:20.583Z</time>
      </trkpt>
      <trkpt lat="44.30986" lon="5.09871">
        <ele>268</ele>
        <time>2020-07-11T05:02:21.583Z</time>
      </trkpt>
      <trkpt lat="44.30982" lon="5.09871">
        <ele>267</ele>
        <time>2020-07-11T05:02:22.583Z</time>
      </trkpt>
      <trkpt lat="44.30977" lon="5.09871">
        <ele>267</ele>
        <time>2020-07-11T05:02:23.582Z</time>
      </trkpt>
      <trkpt lat="44.30972" lon="5.09872">
        <ele>266</ele>
        <time>2020-07-11T05:02:24.583Z</time>
      </trkpt>
      <trkpt lat="44.30967" lon="5.09873">
        <ele>266</ele>
        <time>2020-07-11T05:02:25.582Z</time>
      </trkpt>
      <trkpt lat="44.30962" lon="5.09873">
        <ele>265</ele>
        <time>2020-07-11T05:02:26.582Z</time>
      </trkpt>
      <trkpt lat="44.30958" lon="5.09874">
        <ele>265</ele>
        <time>2020-07-11T05:02:27.582Z</time>
      </trkpt>
      <trkpt lat="44.30952" lon="5.09874">
        <ele>265</ele>
        <time>2020-07-11T05:02:28.582Z</time>
      </trkpt>
      <trkpt lat="44.30948" lon="5.09874">
        <ele>264</ele>
        <time>2020-07-11T05:02:29.582Z</time>
      </trkpt>
      <trkpt lat="44.30943" lon="5.09875">
        <ele>265</ele>
        <time>2020-07-11T05:02:30.582Z</time>
      </trkpt>
      <trkpt lat="44.30938" lon="5.09876">
        <ele>265</ele>
        <time>2020-07-11T05:02:31.583Z</time>
      </trkpt>
      <trkpt lat="44.30933" lon="5.09877">
        <ele>265</ele>
        <time>2020-07-11T05:02:32.583Z</time>
      </trkpt>
      <trkpt lat="44.30928" lon="5.09877">
        <ele>266</ele>
        <time>2020-07-11T05:02:33.582Z</time>
      </trkpt>
      <trkpt lat="44.30922" lon="5.09877">
        <ele>266</ele>
        <time>2020-07-11T05:02:34.583Z</time>
      </trkpt>
      <trkpt lat="44.30917" lon="5.09878">
        <ele>266</ele>
        <time>2020-07-11T05:02:35.583Z</time>
      </trkpt>
      <trkpt lat="44.30911" lon="5.09878">
        <ele>267</ele>
        <time>2020-07-11T05:02:36.583Z</time>
      </trkpt>
      <trkpt lat="44.30906" lon="5.09878">
        <ele>267</ele>
        <time>2020-07-11T05:02:37.582Z</time>
      </trkpt>
      <trkpt lat="44.30901" lon="5.09878">
        <ele>267</ele>
        <time>2020-07-11T05:02:38.583Z</time>
      </trkpt>
      <trkpt lat="44.30897" lon="5.09878">
        <ele>267</ele>
        <time>2020-07-11T05:02:39.583Z</time>
      </trkpt>
      <trkpt lat="44.30891" lon="5.09879">
        <ele>267</ele>
        <time>2020-07-11T05:02:40.583Z</time>
      </trkpt>
      <trkpt lat="44.30887" lon="5.09881">
        <ele>267</ele>
        <time>2020-07-11T05:02:41.583Z</time>
      </trkpt>
      <trkpt lat="44.30883" lon="5.09882">
        <ele>267</ele>
        <time>2020-07-11T05:02:42.583Z</time>
      </trkpt>
      <trkpt lat="44.30878" lon="5.09884">
        <ele>267</ele>
        <time>2020-07-11T05:02:43.583Z</time>
      </trkpt>
      <trkpt lat="44.30874" lon="5.09887">
        <ele>267</ele>
        <time>2020-07-11T05:02:44.583Z</time>
      </trkpt>
      <trkpt lat="44.30869" lon="5.09891">
        <ele>267</ele>
        <time>2020-07-11T05:02:45.583Z</time>
      </trkpt>
      <trkpt lat="44.30865" lon="5.09895">
        <ele>267</ele>
        <time>2020-07-11T05:02:46.583Z</time>
      </trkpt>
      <trkpt lat="44.30862" lon="5.09898">
        <ele>268</ele>
        <time>2020-07-11T05:02:47.582Z</time>
      </trkpt>
      <trkpt lat="44.30858" lon="5.09903">
        <ele>268</ele>
        <time>2020-07-11T05:02:48.583Z</time>
      </trkpt>
      <trkpt lat="44.30853" lon="5.09908">
        <ele>268</ele>
        <time>2020-07-11T05:02:49.583Z</time>
      </trkpt>
      <trkpt lat="44.30849" lon="5.09913">
        <ele>268</ele>
        <time>2020-07-11T05:02:50.583Z</time>
      </trkpt>
      <trkpt lat="44.30845" lon="5.09917">
        <ele>268</ele>
        <time>2020-07-11T05:02:51.583Z</time>
      </trkpt>
      <trkpt lat="44.30841" lon="5.09921">
        <ele>268</ele>
        <time>2020-07-11T05:02:52.583Z</time>
      </trkpt>
      <trkpt lat="44.30835" lon="5.09925">
        <ele>268</ele>
        <time>2020-07-11T05:02:53.583Z</time>
      </trkpt>
      <trkpt lat="44.30831" lon="5.09927">
        <ele>268</ele>
        <time>2020-07-11T05:02:54.583Z</time>
      </trkpt>
      <trkpt lat="44.30826" lon="5.09931">
        <ele>268</ele>
        <time>2020-07-11T05:02:55.582Z</time>
      </trkpt>
      <trkpt lat="44.30821" lon="5.09933">
        <ele>268</ele>
        <time>2020-07-11T05:02:56.583Z</time>
      </trkpt>
      <trkpt lat="44.30815" lon="5.09935">
        <ele>269</ele>
        <time>2020-07-11T05:02:57.583Z</time>
      </trkpt>
      <trkpt lat="44.30809" lon="5.09936">
        <ele>269</ele>
        <time>2020-07-11T05:02:58.583Z</time>
      </trkpt>
      <trkpt lat="44.30803" lon="5.09937">
        <ele>270</ele>
        <time>2020-07-11T05:02:59.583Z</time>
      </trkpt>
      <trkpt lat="44.30797" lon="5.09938">
        <ele>271</ele>
        <time>2020-07-11T05:03:00.583Z</time>
      </trkpt>
      <trkpt lat="44.30791" lon="5.09938">
        <ele>271</ele>
        <time>2020-07-11T05:03:01.583Z</time>
      </trkpt>
      <trkpt lat="44.30785" lon="5.09937">
        <ele>272</ele>
        <time>2020-07-11T05:03:02.583Z</time>
      </trkpt>
      <trkpt lat="44.30778" lon="5.09938">
        <ele>272</ele>
        <time>2020-07-11T05:03:03.583Z</time>
      </trkpt>
      <trkpt lat="44.30771" lon="5.09938">
        <ele>273</ele>
        <time>2020-07-11T05:03:04.583Z</time>
      </trkpt>
      <trkpt lat="44.30764" lon="5.09938">
        <ele>273</ele>
        <time>2020-07-11T05:03:05.583Z</time>
      </trkpt>
      <trkpt lat="44.30758" lon="5.09939">
        <ele>274</ele>
        <time>2020-07-11T05:03:06.583Z</time>
      </trkpt>
      <trkpt lat="44.30751" lon="5.0994">
        <ele>275</ele>
        <time>2020-07-11T05:03:07.583Z</time>
      </trkpt>
      <trkpt lat="44.30744" lon="5.09941">
        <ele>275</ele>
        <time>2020-07-11T05:03:08.583Z</time>
      </trkpt>
      <trkpt lat="44.30738" lon="5.09943">
        <ele>275</ele>
        <time>2020-07-11T05:03:09.583Z</time>
      </trkpt>
      <trkpt lat="44.30732" lon="5.09945">
        <ele>275</ele>
        <time>2020-07-11T05:03:10.583Z</time>
      </trkpt>
      <trkpt lat="44.30725" lon="5.09948">
        <ele>275</ele>
        <time>2020-07-11T05:03:11.583Z</time>
      </trkpt>
      <trkpt lat="44.30719" lon="5.0995">
        <ele>275</ele>
        <time>2020-07-11T05:03:12.583Z</time>
      </trkpt>
      <trkpt lat="44.30713" lon="5.09952">
        <ele>276</ele>
        <time>2020-07-11T05:03:13.583Z</time>
      </trkpt>
      <trkpt lat="44.30706" lon="5.09954">
        <ele>276</ele>
        <time>2020-07-11T05:03:14.583Z</time>
      </trkpt>
      <trkpt lat="44.307" lon="5.09957">
        <ele>276</ele>
        <time>2020-07-11T05:03:15.583Z</time>
      </trkpt>
      <trkpt lat="44.30693" lon="5.0996">
        <ele>276</ele>
        <time>2020-07-11T05:03:16.583Z</time>
      </trkpt>
      <trkpt lat="44.30686" lon="5.09962">
        <ele>277</ele>
        <time>2020-07-11T05:03:17.583Z</time>
      </trkpt>
      <trkpt lat="44.30679" lon="5.09964">
        <ele>276</ele>
        <time>2020-07-11T05:03:18.583Z</time>
      </trkpt>
      <trkpt lat="44.30674" lon="5.09967">
        <ele>276</ele>
        <time>2020-07-11T05:03:19.583Z</time>
      </trkpt>
      <trkpt lat="44.30668" lon="5.09969">
        <ele>277</ele>
        <time>2020-07-11T05:03:20.582Z</time>
      </trkpt>
      <trkpt lat="44.30661" lon="5.09971">
        <ele>277</ele>
        <time>2020-07-11T05:03:21.583Z</time>
      </trkpt>
      <trkpt lat="44.30654" lon="5.09974">
        <ele>277</ele>
        <time>2020-07-11T05:03:22.583Z</time>
      </trkpt>
      <trkpt lat="44.30648" lon="5.09977">
        <ele>278</ele>
        <time>2020-07-11T05:03:23.583Z</time>
      </trkpt>
      <trkpt lat="44.30642" lon="5.09979">
        <ele>278</ele>
        <time>2020-07-11T05:03:24.583Z</time>
      </trkpt>
      <trkpt lat="44.30635" lon="5.09982">
        <ele>278</ele>
        <time>2020-07-11T05:03:25.583Z</time>
      </trkpt>
      <trkpt lat="44.30628" lon="5.09985">
        <ele>279</ele>
        <time>2020-07-11T05:03:26.583Z</time>
      </trkpt>
      <trkpt lat="44.30622" lon="5.09988">
        <ele>279</ele>
        <time>2020-07-11T05:03:27.583Z</time>
      </trkpt>
      <trkpt lat="44.30617" lon="5.0999">
        <ele>279</ele>
        <time>2020-07-11T05:03:28.582Z</time>
      </trkpt>
      <trkpt lat="44.3061" lon="5.09993">
        <ele>279</ele>
        <time>2020-07-11T05:03:29.582Z</time>
      </trkpt>
      <trkpt lat="44.30603" lon="5.09996">
        <ele>279</ele>
        <time>2020-07-11T05:03:30.583Z</time>
      </trkpt>
      <trkpt lat="44.30596" lon="5.09998">
        <ele>279</ele>
        <time>2020-07-11T05:03:31.583Z</time>
      </trkpt>
      <trkpt lat="44.3059" lon="5.1">
        <ele>279</ele>
        <time>2020-07-11T05:03:32.583Z</time>
      </trkpt>
      <trkpt lat="44.30585" lon="5.10002">
        <ele>279</ele>
        <time>2020-07-11T05:03:33.583Z</time>
      </trkpt>
      <trkpt lat="44.30577" lon="5.10004">
        <ele>279</ele>
        <time>2020-07-11T05:03:34.583Z</time>
      </trkpt>
      <trkpt lat="44.30571" lon="5.10007">
        <ele>278</ele>
        <time>2020-07-11T05:03:35.583Z</time>
      </trkpt>
      <trkpt lat="44.30566" lon="5.10008">
        <ele>278</ele>
        <time>2020-07-11T05:03:36.583Z</time>
      </trkpt>
      <trkpt lat="44.30559" lon="5.10011">
        <ele>278</ele>
        <time>2020-07-11T05:03:37.583Z</time>
      </trkpt>
      <trkpt lat="44.30552" lon="5.10013">
        <ele>278</ele>
        <time>2020-07-11T05:03:38.582Z</time>
      </trkpt>
      <trkpt lat="44.30546" lon="5.10016">
        <ele>278</ele>
        <time>2020-07-11T05:03:39.583Z</time>
      </trkpt>
      <trkpt lat="44.30537" lon="5.10019">
        <ele>278</ele>
        <time>2020-07-11T05:03:40.583Z</time>
      </trkpt>
      <trkpt lat="44.30532" lon="5.1002">
        <ele>277</ele>
        <time>2020-07-11T05:03:41.583Z</time>
      </trkpt>
      <trkpt lat="44.30524" lon="5.10023">
        <ele>277</ele>
        <time>2020-07-11T05:03:42.583Z</time>
      </trkpt>
      <trkpt lat="44.30517" lon="5.10025">
        <ele>277</ele>
        <time>2020-07-11T05:03:43.583Z</time>
      </trkpt>
      <trkpt lat="44.3051" lon="5.10028">
        <ele>276</ele>
        <time>2020-07-11T05:03:44.583Z</time>
      </trkpt>
      <trkpt lat="44.30502" lon="5.10031">
        <ele>276</ele>
        <time>2020-07-11T05:03:45.583Z</time>
      </trkpt>
      <trkpt lat="44.30494" lon="5.10033">
        <ele>276</ele>
        <time>2020-07-11T05:03:46.583Z</time>
      </trkpt>
      <trkpt lat="44.30486" lon="5.10035">
        <ele>276</ele>
        <time>2020-07-11T05:03:47.582Z</time>
      </trkpt>
      <trkpt lat="44.30477" lon="5.10038">
        <ele>276</ele>
        <time>2020-07-11T05:03:48.582Z</time>
      </trkpt>
      <trkpt lat="44.30468" lon="5.10041">
        <ele>276</ele>
        <time>2020-07-11T05:03:49.583Z</time>
      </trkpt>
      <trkpt lat="44.30461" lon="5.10043">
        <ele>276</ele>
        <time>2020-07-11T05:03:50.582Z</time>
      </trkpt>
      <trkpt lat="44.30453" lon="5.10045">
        <ele>276</ele>
        <time>2020-07-11T05:03:51.583Z</time>
      </trkpt>
      <trkpt lat="44.30444" lon="5.10048">
        <ele>276</ele>
        <time>2020-07-11T05:03:52.583Z</time>
      </trkpt>
      <trkpt lat="44.30436" lon="5.1005">
        <ele>276</ele>
        <time>2020-07-11T05:03:53.583Z</time>
      </trkpt>
      <trkpt lat="44.30428" lon="5.10051">
        <ele>275</ele>
        <time>2020-07-11T05:03:54.583Z</time>
      </trkpt>
      <trkpt lat="44.3042" lon="5.10053">
        <ele>275</ele>
        <time>2020-07-11T05:03:55.583Z</time>
      </trkpt>
      <trkpt lat="44.30412" lon="5.10055">
        <ele>275</ele>
        <time>2020-07-11T05:03:56.583Z</time>
      </trkpt>
      <trkpt lat="44.30405" lon="5.10057">
        <ele>275</ele>
        <time>2020-07-11T05:03:57.583Z</time>
      </trkpt>
      <trkpt lat="44.30397" lon="5.10059">
        <ele>275</ele>
        <time>2020-07-11T05:03:58.583Z</time>
      </trkpt>
      <trkpt lat="44.3039" lon="5.10061">
        <ele>275</ele>
        <time>2020-07-11T05:03:59.583Z</time>
      </trkpt>
      <trkpt lat="44.30383" lon="5.10063">
        <ele>275</ele>
        <time>2020-07-11T05:04:00.583Z</time>
      </trkpt>
      <trkpt lat="44.30377" lon="5.10064">
        <ele>275</ele>
        <time>2020-07-11T05:04:01.583Z</time>
      </trkpt>
      <trkpt lat="44.3037" lon="5.10065">
        <ele>275</ele>
        <time>2020-07-11T05:04:02.583Z</time>
      </trkpt>
      <trkpt lat="44.30364" lon="5.10066">
        <ele>275</ele>
        <time>2020-07-11T05:04:03.583Z</time>
      </trkpt>
      <trkpt lat="44.30357" lon="5.10068">
        <ele>275</ele>
        <time>2020-07-11T05:04:04.583Z</time>
      </trkpt>
      <trkpt lat="44.30351" lon="5.10069">
        <ele>275</ele>
        <time>2020-07-11T05:04:05.582Z</time>
      </trkpt>
      <trkpt lat="44.30343" lon="5.10071">
        <ele>275</ele>
        <time>2020-07-11T05:04:06.583Z</time>
      </trkpt>
      <trkpt lat="44.30337" lon="5.10072">
        <ele>275</ele>
        <time>2020-07-11T05:04:07.583Z</time>
      </trkpt>
      <trkpt lat="44.3033" lon="5.10074">
        <ele>275</ele>
        <time>2020-07-11T05:04:08.583Z</time>
      </trkpt>
      <trkpt lat="44.30325" lon="5.10076">
        <ele>276</ele>
        <time>2020-07-11T05:04:09.583Z</time>
      </trkpt>
      <trkpt lat="44.30317" lon="5.10078">
        <ele>276</ele>
        <time>2020-07-11T05:04:10.582Z</time>
      </trkpt>
      <trkpt lat="44.3031" lon="5.10079">
        <ele>276</ele>
        <time>2020-07-11T05:04:11.583Z</time>
      </trkpt>
      <trkpt lat="44.30303" lon="5.1008">
        <ele>276</ele>
        <time>2020-07-11T05:04:12.583Z</time>
      </trkpt>
      <trkpt lat="44.30298" lon="5.10081">
        <ele>276</ele>
        <time>2020-07-11T05:04:13.582Z</time>
      </trkpt>
      <trkpt lat="44.30291" lon="5.10083">
        <ele>276</ele>
        <time>2020-07-11T05:04:14.583Z</time>
      </trkpt>
      <trkpt lat="44.30283" lon="5.10085">
        <ele>276</ele>
        <time>2020-07-11T05:04:15.583Z</time>
      </trkpt>
      <trkpt lat="44.30275" lon="5.10086">
        <ele>275</ele>
        <time>2020-07-11T05:04:16.582Z</time>
      </trkpt>
      <trkpt lat="44.30269" lon="5.10087">
        <ele>275</ele>
        <time>2020-07-11T05:04:17.583Z</time>
      </trkpt>
      <trkpt lat="44.30262" lon="5.1009">
        <ele>275</ele>
        <time>2020-07-11T05:04:18.583Z</time>
      </trkpt>
      <trkpt lat="44.30253" lon="5.10092">
        <ele>275</ele>
        <time>2020-07-11T05:04:19.583Z</time>
      </trkpt>
      <trkpt lat="44.30246" lon="5.10094">
        <ele>275</ele>
        <time>2020-07-11T05:04:20.583Z</time>
      </trkpt>
      <trkpt lat="44.30239" lon="5.10095">
        <ele>274</ele>
        <time>2020-07-11T05:04:21.583Z</time>
      </trkpt>
      <trkpt lat="44.30233" lon="5.10097">
        <ele>274</ele>
        <time>2020-07-11T05:04:22.583Z</time>
      </trkpt>
      <trkpt lat="44.30225" lon="5.10098">
        <ele>274</ele>
        <time>2020-07-11T05:04:23.582Z</time>
      </trkpt>
      <trkpt lat="44.30218" lon="5.101">
        <ele>274</ele>
        <time>2020-07-11T05:04:24.583Z</time>
      </trkpt>
      <trkpt lat="44.30213" lon="5.10102">
        <ele>274</ele>
        <time>2020-07-11T05:04:25.582Z</time>
      </trkpt>
      <trkpt lat="44.30206" lon="5.10104">
        <ele>274</ele>
        <time>2020-07-11T05:04:26.583Z</time>
      </trkpt>
      <trkpt lat="44.30199" lon="5.10106">
        <ele>274</ele>
        <time>2020-07-11T05:04:27.583Z</time>
      </trkpt>
      <trkpt lat="44.3019" lon="5.10109">
        <ele>274</ele>
        <time>2020-07-11T05:04:28.583Z</time>
      </trkpt>
      <trkpt lat="44.30184" lon="5.10113">
        <ele>274</ele>
        <time>2020-07-11T05:04:29.583Z</time>
      </trkpt>
      <trkpt lat="44.30178" lon="5.10116">
        <ele>274</ele>
        <time>2020-07-11T05:04:30.583Z</time>
      </trkpt>
      <trkpt lat="44.30171" lon="5.10119">
        <ele>274</ele>
        <time>2020-07-11T05:04:31.583Z</time>
      </trkpt>
      <trkpt lat="44.30164" lon="5.10122">
        <ele>274</ele>
        <time>2020-07-11T05:04:32.582Z</time>
      </trkpt>
      <trkpt lat="44.30157" lon="5.10125">
        <ele>275</ele>
        <time>2020-07-11T05:04:33.582Z</time>
      </trkpt>
      <trkpt lat="44.3015" lon="5.10128">
        <ele>275</ele>
        <time>2020-07-11T05:04:34.583Z</time>
      </trkpt>
      <trkpt lat="44.30143" lon="5.10132">
        <ele>275</ele>
        <time>2020-07-11T05:04:35.582Z</time>
      </trkpt>
      <trkpt lat="44.30136" lon="5.10135">
        <ele>276</ele>
        <time>2020-07-11T05:04:36.583Z</time>
      </trkpt>
      <trkpt lat="44.3013" lon="5.10137">
        <ele>276</ele>
        <time>2020-07-11T05:04:37.583Z</time>
      </trkpt>
      <trkpt lat="44.30123" lon="5.1014">
        <ele>276</ele>
        <time>2020-07-11T05:04:38.583Z</time>
      </trkpt>
      <trkpt lat="44.30116" lon="5.10142">
        <ele>275</ele>
        <time>2020-07-11T05:04:39.582Z</time>
      </trkpt>
      <trkpt lat="44.30108" lon="5.10145">
        <ele>275</ele>
        <time>2020-07-11T05:04:40.583Z</time>
      </trkpt>
      <trkpt lat="44.30102" lon="5.10146">
        <ele>274</ele>
        <time>2020-07-11T05:04:41.583Z</time>
      </trkpt>
      <trkpt lat="44.30094" lon="5.10148">
        <ele>274</ele>
        <time>2020-07-11T05:04:42.583Z</time>
      </trkpt>
      <trkpt lat="44.30088" lon="5.10149">
        <ele>274</ele>
        <time>2020-07-11T05:04:43.583Z</time>
      </trkpt>
      <trkpt lat="44.30081" lon="5.1015">
        <ele>274</ele>
        <time>2020-07-11T05:04:44.583Z</time>
      </trkpt>
      <trkpt lat="44.30074" lon="5.10151">
        <ele>274</ele>
        <time>2020-07-11T05:04:45.582Z</time>
      </trkpt>
      <trkpt lat="44.30067" lon="5.10152">
        <ele>274</ele>
        <time>2020-07-11T05:04:46.582Z</time>
      </trkpt>
      <trkpt lat="44.3006" lon="5.10153">
        <ele>274</ele>
        <time>2020-07-11T05:04:47.583Z</time>
      </trkpt>
      <trkpt lat="44.30052" lon="5.10153">
        <ele>274</ele>
        <time>2020-07-11T05:04:48.582Z</time>
      </trkpt>
      <trkpt lat="44.30045" lon="5.10154">
        <ele>274</ele>
        <time>2020-07-11T05:04:49.582Z</time>
      </trkpt>
      <trkpt lat="44.30038" lon="5.10155">
        <ele>274</ele>
        <time>2020-07-11T05:04:50.582Z</time>
      </trkpt>
      <trkpt lat="44.30031" lon="5.10156">
        <ele>274</ele>
        <time>2020-07-11T05:04:51.583Z</time>
      </trkpt>
      <trkpt lat="44.30024" lon="5.10157">
        <ele>274</ele>
        <time>2020-07-11T05:04:52.583Z</time>
      </trkpt>
      <trkpt lat="44.30016" lon="5.10158">
        <ele>274</ele>
        <time>2020-07-11T05:04:53.583Z</time>
      </trkpt>
      <trkpt lat="44.30009" lon="5.10158">
        <ele>274</ele>
        <time>2020-07-11T05:04:54.583Z</time>
      </trkpt>
      <trkpt lat="44.30002" lon="5.10159">
        <ele>275</ele>
        <time>2020-07-11T05:04:55.582Z</time>
      </trkpt>
      <trkpt lat="44.29994" lon="5.1016">
        <ele>275</ele>
        <time>2020-07-11T05:04:56.583Z</time>
      </trkpt>
      <trkpt lat="44.29987" lon="5.1016">
        <ele>274</ele>
        <time>2020-07-11T05:04:57.583Z</time>
      </trkpt>
      <trkpt lat="44.2998" lon="5.10161">
        <ele>274</ele>
        <time>2020-07-11T05:04:58.582Z</time>
      </trkpt>
      <trkpt lat="44.29973" lon="5.10162">
        <ele>274</ele>
        <time>2020-07-11T05:04:59.583Z</time>
      </trkpt>
      <trkpt lat="44.29966" lon="5.10162">
        <ele>274</ele>
        <time>2020-07-11T05:05:00.582Z</time>
      </trkpt>
      <trkpt lat="44.29959" lon="5.10163">
        <ele>274</ele>
        <time>2020-07-11T05:05:01.583Z</time>
      </trkpt>
      <trkpt lat="44.29952" lon="5.10164">
        <ele>273</ele>
        <time>2020-07-11T05:05:02.583Z</time>
      </trkpt>
      <trkpt lat="44.29945" lon="5.10165">
        <ele>274</ele>
        <time>2020-07-11T05:05:03.583Z</time>
      </trkpt>
      <trkpt lat="44.29938" lon="5.10166">
        <ele>274</ele>
        <time>2020-07-11T05:05:04.583Z</time>
      </trkpt>
      <trkpt lat="44.29931" lon="5.10167">
        <ele>274</ele>
        <time>2020-07-11T05:05:05.582Z</time>
      </trkpt>
      <trkpt lat="44.29924" lon="5.10168">
        <ele>274</ele>
        <time>2020-07-11T05:05:06.583Z</time>
      </trkpt>
      <trkpt lat="44.29917" lon="5.10168">
        <ele>274</ele>
        <time>2020-07-11T05:05:07.583Z</time>
      </trkpt>
      <trkpt lat="44.29909" lon="5.10169">
        <ele>273</ele>
        <time>2020-07-11T05:05:08.583Z</time>
      </trkpt>
      <trkpt lat="44.29902" lon="5.1017">
        <ele>273</ele>
        <time>2020-07-11T05:05:09.582Z</time>
      </trkpt>
      <trkpt lat="44.29894" lon="5.10171">
        <ele>273</ele>
        <time>2020-07-11T05:05:10.583Z</time>
      </trkpt>
      <trkpt lat="44.29888" lon="5.10172">
        <ele>273</ele>
        <time>2020-07-11T05:05:11.582Z</time>
      </trkpt>
      <trkpt lat="44.29879" lon="5.10173">
        <ele>273</ele>
        <time>2020-07-11T05:05:12.582Z</time>
      </trkpt>
      <trkpt lat="44.29874" lon="5.10173">
        <ele>272</ele>
        <time>2020-07-11T05:05:13.582Z</time>
      </trkpt>
      <trkpt lat="44.29866" lon="5.10174">
        <ele>272</ele>
        <time>2020-07-11T05:05:14.582Z</time>
      </trkpt>
      <trkpt lat="44.29858" lon="5.10175">
        <ele>272</ele>
        <time>2020-07-11T05:05:15.583Z</time>
      </trkpt>
      <trkpt lat="44.29851" lon="5.10176">
        <ele>272</ele>
        <time>2020-07-11T05:05:16.583Z</time>
      </trkpt>
      <trkpt lat="44.29845" lon="5.10176">
        <ele>272</ele>
        <time>2020-07-11T05:05:17.583Z</time>
      </trkpt>
      <trkpt lat="44.29838" lon="5.10177">
        <ele>272</ele>
        <time>2020-07-11T05:05:18.583Z</time>
      </trkpt>
      <trkpt lat="44.29831" lon="5.10178">
        <ele>272</ele>
        <time>2020-07-11T05:05:19.583Z</time>
      </trkpt>
      <trkpt lat="44.29824" lon="5.10178">
        <ele>272</ele>
        <time>2020-07-11T05:05:20.583Z</time>
      </trkpt>
      <trkpt lat="44.29816" lon="5.10178">
        <ele>271</ele>
        <time>2020-07-11T05:05:21.583Z</time>
      </trkpt>
      <trkpt lat="44.2981" lon="5.10179">
        <ele>271</ele>
        <time>2020-07-11T05:05:22.583Z</time>
      </trkpt>
      <trkpt lat="44.29803" lon="5.10179">
        <ele>271</ele>
        <time>2020-07-11T05:05:23.583Z</time>
      </trkpt>
      <trkpt lat="44.29796" lon="5.10179">
        <ele>272</ele>
        <time>2020-07-11T05:05:24.582Z</time>
      </trkpt>
      <trkpt lat="44.29789" lon="5.10178">
        <ele>272</ele>
        <time>2020-07-11T05:05:25.582Z</time>
      </trkpt>
      <trkpt lat="44.29781" lon="5.10177">
        <ele>273</ele>
        <time>2020-07-11T05:05:26.583Z</time>
      </trkpt>
      <trkpt lat="44.29774" lon="5.10176">
        <ele>273</ele>
        <time>2020-07-11T05:05:27.583Z</time>
      </trkpt>
      <trkpt lat="44.29767" lon="5.10174">
        <ele>273</ele>
        <time>2020-07-11T05:05:28.583Z</time>
      </trkpt>
      <trkpt lat="44.2976" lon="5.10172">
        <ele>273</ele>
        <time>2020-07-11T05:05:29.583Z</time>
      </trkpt>
      <trkpt lat="44.29753" lon="5.1017">
        <ele>272</ele>
        <time>2020-07-11T05:05:30.583Z</time>
      </trkpt>
      <trkpt lat="44.29746" lon="5.10168">
        <ele>272</ele>
        <time>2020-07-11T05:05:31.583Z</time>
      </trkpt>
      <trkpt lat="44.2974" lon="5.10166">
        <ele>272</ele>
        <time>2020-07-11T05:05:32.582Z</time>
      </trkpt>
      <trkpt lat="44.29733" lon="5.10163">
        <ele>273</ele>
        <time>2020-07-11T05:05:33.582Z</time>
      </trkpt>
      <trkpt lat="44.29726" lon="5.10161">
        <ele>273</ele>
        <time>2020-07-11T05:05:34.583Z</time>
      </trkpt>
      <trkpt lat="44.29719" lon="5.10159">
        <ele>273</ele>
        <time>2020-07-11T05:05:35.582Z</time>
      </trkpt>
      <trkpt lat="44.29713" lon="5.10156">
        <ele>274</ele>
        <time>2020-07-11T05:05:36.583Z</time>
      </trkpt>
      <trkpt lat="44.29706" lon="5.10154">
        <ele>274</ele>
        <time>2020-07-11T05:05:37.583Z</time>
      </trkpt>
      <trkpt lat="44.297" lon="5.10152">
        <ele>274</ele>
        <time>2020-07-11T05:05:38.583Z</time>
      </trkpt>
      <trkpt lat="44.29693" lon="5.10149">
        <ele>274</ele>
        <time>2020-07-11T05:05:39.583Z</time>
      </trkpt>
      <trkpt lat="44.29687" lon="5.10147">
        <ele>274</ele>
        <time>2020-07-11T05:05:40.583Z</time>
      </trkpt>
      <trkpt lat="44.29681" lon="5.10144">
        <ele>274</ele>
        <time>2020-07-11T05:05:41.583Z</time>
      </trkpt>
      <trkpt lat="44.29675" lon="5.10142">
        <ele>275</ele>
        <time>2020-07-11T05:05:42.583Z</time>
      </trkpt>
      <trkpt lat="44.29668" lon="5.1014">
        <ele>275</ele>
        <time>2020-07-11T05:05:43.583Z</time>
      </trkpt>
      <trkpt lat="44.29662" lon="5.10138">
        <ele>275</ele>
        <time>2020-07-11T05:05:44.583Z</time>
      </trkpt>
      <trkpt lat="44.29656" lon="5.10136">
        <ele>275</ele>
        <time>2020-07-11T05:05:45.583Z</time>
      </trkpt>
      <trkpt lat="44.2965" lon="5.10134">
        <ele>275</ele>
        <time>2020-07-11T05:05:46.583Z</time>
      </trkpt>
      <trkpt lat="44.29644" lon="5.10132">
        <ele>275</ele>
        <time>2020-07-11T05:05:47.582Z</time>
      </trkpt>
      <trkpt lat="44.29638" lon="5.1013">
        <ele>276</ele>
        <time>2020-07-11T05:05:48.582Z</time>
      </trkpt>
      <trkpt lat="44.29632" lon="5.10129">
        <ele>276</ele>
        <time>2020-07-11T05:05:49.583Z</time>
      </trkpt>
      <trkpt lat="44.29626" lon="5.10127">
        <ele>277</ele>
        <time>2020-07-11T05:05:50.583Z</time>
      </trkpt>
      <trkpt lat="44.2962" lon="5.10126">
        <ele>277</ele>
        <time>2020-07-11T05:05:51.583Z</time>
      </trkpt>
      <trkpt lat="44.29614" lon="5.10124">
        <ele>277</ele>
        <time>2020-07-11T05:05:52.583Z</time>
      </trkpt>
      <trkpt lat="44.29608" lon="5.10123">
        <ele>277</ele>
        <time>2020-07-11T05:05:53.582Z</time>
      </trkpt>
      <trkpt lat="44.29602" lon="5.10122">
        <ele>277</ele>
        <time>2020-07-11T05:05:54.583Z</time>
      </trkpt>
      <trkpt lat="44.29596" lon="5.10121">
        <ele>277</ele>
        <time>2020-07-11T05:05:55.583Z</time>
      </trkpt>
      <trkpt lat="44.2959" lon="5.1012">
        <ele>278</ele>
        <time>2020-07-11T05:05:56.583Z</time>
      </trkpt>
      <trkpt lat="44.29584" lon="5.10119">
        <ele>278</ele>
        <time>2020-07-11T05:05:57.582Z</time>
      </trkpt>
      <trkpt lat="44.29578" lon="5.10118">
        <ele>278</ele>
        <time>2020-07-11T05:05:58.583Z</time>
      </trkpt>
      <trkpt lat="44.29572" lon="5.10118">
        <ele>278</ele>
        <time>2020-07-11T05:05:59.583Z</time>
      </trkpt>
      <trkpt lat="44.29566" lon="5.10118">
        <ele>279</ele>
        <time>2020-07-11T05:06:00.583Z</time>
      </trkpt>
      <trkpt lat="44.29559" lon="5.10117">
        <ele>279</ele>
        <time>2020-07-11T05:06:01.583Z</time>
      </trkpt>
      <trkpt lat="44.29553" lon="5.10117">
        <ele>279</ele>
        <time>2020-07-11T05:06:02.583Z</time>
      </trkpt>
      <trkpt lat="44.29547" lon="5.10117">
        <ele>280</ele>
        <time>2020-07-11T05:06:03.583Z</time>
      </trkpt>
      <trkpt lat="44.29541" lon="5.10117">
        <ele>280</ele>
        <time>2020-07-11T05:06:04.583Z</time>
      </trkpt>
      <trkpt lat="44.29535" lon="5.10116">
        <ele>280</ele>
        <time>2020-07-11T05:06:05.583Z</time>
      </trkpt>
      <trkpt lat="44.29529" lon="5.10116">
        <ele>279</ele>
        <time>2020-07-11T05:06:06.583Z</time>
      </trkpt>
      <trkpt lat="44.29524" lon="5.10116">
        <ele>279</ele>
        <time>2020-07-11T05:06:07.583Z</time>
      </trkpt>
      <trkpt lat="44.29518" lon="5.10116">
        <ele>279</ele>
        <time>2020-07-11T05:06:08.582Z</time>
      </trkpt>
      <trkpt lat="44.29512" lon="5.10116">
        <ele>279</ele>
        <time>2020-07-11T05:06:09.583Z</time>
      </trkpt>
      <trkpt lat="44.29506" lon="5.10116">
        <ele>279</ele>
        <time>2020-07-11T05:06:10.583Z</time>
      </trkpt>
      <trkpt lat="44.295" lon="5.10116">
        <ele>280</ele>
        <time>2020-07-11T05:06:11.583Z</time>
      </trkpt>
      <trkpt lat="44.29493" lon="5.10116">
        <ele>280</ele>
        <time>2020-07-11T05:06:12.583Z</time>
      </trkpt>
      <trkpt lat="44.29487" lon="5.10117">
        <ele>280</ele>
        <time>2020-07-11T05:06:13.583Z</time>
      </trkpt>
      <trkpt lat="44.2948" lon="5.10117">
        <ele>280</ele>
        <time>2020-07-11T05:06:14.583Z</time>
      </trkpt>
      <trkpt lat="44.29473" lon="5.10117">
        <ele>280</ele>
        <time>2020-07-11T05:06:15.583Z</time>
      </trkpt>
      <trkpt lat="44.29466" lon="5.10118">
        <ele>280</ele>
        <time>2020-07-11T05:06:16.582Z</time>
      </trkpt>
      <trkpt lat="44.29459" lon="5.10119">
        <ele>279</ele>
        <time>2020-07-11T05:06:17.583Z</time>
      </trkpt>
      <trkpt lat="44.29452" lon="5.1012">
        <ele>279</ele>
        <time>2020-07-11T05:06:18.583Z</time>
      </trkpt>
      <trkpt lat="44.29445" lon="5.10121">
        <ele>278</ele>
        <time>2020-07-11T05:06:19.582Z</time>
      </trkpt>
      <trkpt lat="44.29437" lon="5.10122">
        <ele>278</ele>
        <time>2020-07-11T05:06:20.583Z</time>
      </trkpt>
      <trkpt lat="44.2943" lon="5.10123">
        <ele>278</ele>
        <time>2020-07-11T05:06:21.583Z</time>
      </trkpt>
      <trkpt lat="44.29423" lon="5.10125">
        <ele>279</ele>
        <time>2020-07-11T05:06:22.583Z</time>
      </trkpt>
      <trkpt lat="44.29415" lon="5.10126">
        <ele>278</ele>
        <time>2020-07-11T05:06:23.583Z</time>
      </trkpt>
      <trkpt lat="44.29408" lon="5.10129">
        <ele>278</ele>
        <time>2020-07-11T05:06:24.582Z</time>
      </trkpt>
      <trkpt lat="44.29401" lon="5.10131">
        <ele>278</ele>
        <time>2020-07-11T05:06:25.583Z</time>
      </trkpt>
      <trkpt lat="44.29394" lon="5.10134">
        <ele>278</ele>
        <time>2020-07-11T05:06:26.582Z</time>
      </trkpt>
      <trkpt lat="44.29387" lon="5.10138">
        <ele>279</ele>
        <time>2020-07-11T05:06:27.583Z</time>
      </trkpt>
      <trkpt lat="44.2938" lon="5.10141">
        <ele>279</ele>
        <time>2020-07-11T05:06:28.582Z</time>
      </trkpt>
      <trkpt lat="44.29373" lon="5.10145">
        <ele>279</ele>
        <time>2020-07-11T05:06:29.583Z</time>
      </trkpt>
      <trkpt lat="44.29367" lon="5.10148">
        <ele>279</ele>
        <time>2020-07-11T05:06:30.583Z</time>
      </trkpt>
      <trkpt lat="44.2936" lon="5.10152">
        <ele>280</ele>
        <time>2020-07-11T05:06:31.583Z</time>
      </trkpt>
      <trkpt lat="44.29353" lon="5.10156">
        <ele>280</ele>
        <time>2020-07-11T05:06:32.583Z</time>
      </trkpt>
      <trkpt lat="44.29347" lon="5.1016">
        <ele>281</ele>
        <time>2020-07-11T05:06:33.583Z</time>
      </trkpt>
      <trkpt lat="44.2934" lon="5.10164">
        <ele>281</ele>
        <time>2020-07-11T05:06:34.583Z</time>
      </trkpt>
      <trkpt lat="44.29334" lon="5.10168">
        <ele>282</ele>
        <time>2020-07-11T05:06:35.582Z</time>
      </trkpt>
      <trkpt lat="44.29328" lon="5.10171">
        <ele>282</ele>
        <time>2020-07-11T05:06:36.582Z</time>
      </trkpt>
      <trkpt lat="44.29321" lon="5.10175">
        <ele>283</ele>
        <time>2020-07-11T05:06:37.583Z</time>
      </trkpt>
      <trkpt lat="44.29315" lon="5.10178">
        <ele>283</ele>
        <time>2020-07-11T05:06:38.583Z</time>
      </trkpt>
      <trkpt lat="44.29309" lon="5.10182">
        <ele>283</ele>
        <time>2020-07-11T05:06:39.582Z</time>
      </trkpt>
      <trkpt lat="44.29303" lon="5.10186">
        <ele>283</ele>
        <time>2020-07-11T05:06:40.583Z</time>
      </trkpt>
      <trkpt lat="44.29298" lon="5.10189">
        <ele>284</ele>
        <time>2020-07-11T05:06:41.582Z</time>
      </trkpt>
      <trkpt lat="44.29292" lon="5.10193">
        <ele>284</ele>
        <time>2020-07-11T05:06:42.583Z</time>
      </trkpt>
      <trkpt lat="44.29286" lon="5.10196">
        <ele>284</ele>
        <time>2020-07-11T05:06:43.583Z</time>
      </trkpt>
      <trkpt lat="44.2928" lon="5.102">
        <ele>284</ele>
        <time>2020-07-11T05:06:44.583Z</time>
      </trkpt>
      <trkpt lat="44.29275" lon="5.10203">
        <ele>284</ele>
        <time>2020-07-11T05:06:45.583Z</time>
      </trkpt>
      <trkpt lat="44.29269" lon="5.10205">
        <ele>284</ele>
        <time>2020-07-11T05:06:46.582Z</time>
      </trkpt>
      <trkpt lat="44.29264" lon="5.10208">
        <ele>284</ele>
        <time>2020-07-11T05:06:47.583Z</time>
      </trkpt>
      <trkpt lat="44.29259" lon="5.1021">
        <ele>283</ele>
        <time>2020-07-11T05:06:48.583Z</time>
      </trkpt>
      <trkpt lat="44.29254" lon="5.10212">
        <ele>283</ele>
        <time>2020-07-11T05:06:49.582Z</time>
      </trkpt>
      <trkpt lat="44.29248" lon="5.10215">
        <ele>283</ele>
        <time>2020-07-11T05:06:50.583Z</time>
      </trkpt>
      <trkpt lat="44.29243" lon="5.10219">
        <ele>283</ele>
        <time>2020-07-11T05:06:51.583Z</time>
      </trkpt>
      <trkpt lat="44.29237" lon="5.10222">
        <ele>283</ele>
        <time>2020-07-11T05:06:52.583Z</time>
      </trkpt>
      <trkpt lat="44.29231" lon="5.10226">
        <ele>284</ele>
        <time>2020-07-11T05:06:53.583Z</time>
      </trkpt>
      <trkpt lat="44.29225" lon="5.1023">
        <ele>284</ele>
        <time>2020-07-11T05:06:54.583Z</time>
      </trkpt>
      <trkpt lat="44.2922" lon="5.10234">
        <ele>285</ele>
        <time>2020-07-11T05:06:55.583Z</time>
      </trkpt>
      <trkpt lat="44.29214" lon="5.10237">
        <ele>285</ele>
        <time>2020-07-11T05:06:56.582Z</time>
      </trkpt>
      <trkpt lat="44.29208" lon="5.1024">
        <ele>286</ele>
        <time>2020-07-11T05:06:57.583Z</time>
      </trkpt>
      <trkpt lat="44.29203" lon="5.10243">
        <ele>286</ele>
        <time>2020-07-11T05:06:58.582Z</time>
      </trkpt>
      <trkpt lat="44.29198" lon="5.10246">
        <ele>286</ele>
        <time>2020-07-11T05:06:59.583Z</time>
      </trkpt>
      <trkpt lat="44.29192" lon="5.10249">
        <ele>286</ele>
        <time>2020-07-11T05:07:00.583Z</time>
      </trkpt>
      <trkpt lat="44.29187" lon="5.10252">
        <ele>286</ele>
        <time>2020-07-11T05:07:01.583Z</time>
      </trkpt>
      <trkpt lat="44.29182" lon="5.10256">
        <ele>287</ele>
        <time>2020-07-11T05:07:02.583Z</time>
      </trkpt>
      <trkpt lat="44.29177" lon="5.10259">
        <ele>287</ele>
        <time>2020-07-11T05:07:03.583Z</time>
      </trkpt>
      <trkpt lat="44.29171" lon="5.10262">
        <ele>287</ele>
        <time>2020-07-11T05:07:04.583Z</time>
      </trkpt>
      <trkpt lat="44.29166" lon="5.10265">
        <ele>286</ele>
        <time>2020-07-11T05:07:05.583Z</time>
      </trkpt>
      <trkpt lat="44.29161" lon="5.10268">
        <ele>286</ele>
        <time>2020-07-11T05:07:06.583Z</time>
      </trkpt>
      <trkpt lat="44.29155" lon="5.10271">
        <ele>286</ele>
        <time>2020-07-11T05:07:07.583Z</time>
      </trkpt>
      <trkpt lat="44.2915" lon="5.10274">
        <ele>286</ele>
        <time>2020-07-11T05:07:08.583Z</time>
      </trkpt>
      <trkpt lat="44.29145" lon="5.10277">
        <ele>287</ele>
        <time>2020-07-11T05:07:09.583Z</time>
      </trkpt>
      <trkpt lat="44.29139" lon="5.1028">
        <ele>287</ele>
        <time>2020-07-11T05:07:10.583Z</time>
      </trkpt>
      <trkpt lat="44.29134" lon="5.10284">
        <ele>288</ele>
        <time>2020-07-11T05:07:11.583Z</time>
      </trkpt>
      <trkpt lat="44.29129" lon="5.10287">
        <ele>288</ele>
        <time>2020-07-11T05:07:12.583Z</time>
      </trkpt>
      <trkpt lat="44.29124" lon="5.10289">
        <ele>288</ele>
        <time>2020-07-11T05:07:13.582Z</time>
      </trkpt>
      <trkpt lat="44.29118" lon="5.10292">
        <ele>288</ele>
        <time>2020-07-11T05:07:14.583Z</time>
      </trkpt>
      <trkpt lat="44.29113" lon="5.10295">
        <ele>288</ele>
        <time>2020-07-11T05:07:15.583Z</time>
      </trkpt>
      <trkpt lat="44.29108" lon="5.10299">
        <ele>289</ele>
        <time>2020-07-11T05:07:16.582Z</time>
      </trkpt>
      <trkpt lat="44.29102" lon="5.10302">
        <ele>289</ele>
        <time>2020-07-11T05:07:17.583Z</time>
      </trkpt>
      <trkpt lat="44.29097" lon="5.10305">
        <ele>289</ele>
        <time>2020-07-11T05:07:18.583Z</time>
      </trkpt>
      <trkpt lat="44.29091" lon="5.10308">
        <ele>289</ele>
        <time>2020-07-11T05:07:19.583Z</time>
      </trkpt>
      <trkpt lat="44.29085" lon="5.10311">
        <ele>289</ele>
        <time>2020-07-11T05:07:20.583Z</time>
      </trkpt>
      <trkpt lat="44.2908" lon="5.10314">
        <ele>289</ele>
        <time>2020-07-11T05:07:21.583Z</time>
      </trkpt>
      <trkpt lat="44.29075" lon="5.10317">
        <ele>289</ele>
        <time>2020-07-11T05:07:22.583Z</time>
      </trkpt>
      <trkpt lat="44.29069" lon="5.1032">
        <ele>289</ele>
        <time>2020-07-11T05:07:23.583Z</time>
      </trkpt>
      <trkpt lat="44.29064" lon="5.10323">
        <ele>289</ele>
        <time>2020-07-11T05:07:24.583Z</time>
      </trkpt>
      <trkpt lat="44.29058" lon="5.10326">
        <ele>288</ele>
        <time>2020-07-11T05:07:25.582Z</time>
      </trkpt>
      <trkpt lat="44.29053" lon="5.10329">
        <ele>288</ele>
        <time>2020-07-11T05:07:26.583Z</time>
      </trkpt>
      <trkpt lat="44.29048" lon="5.10332">
        <ele>288</ele>
        <time>2020-07-11T05:07:27.582Z</time>
      </trkpt>
      <trkpt lat="44.29042" lon="5.10335">
        <ele>288</ele>
        <time>2020-07-11T05:07:28.583Z</time>
      </trkpt>
      <trkpt lat="44.29037" lon="5.10338">
        <ele>288</ele>
        <time>2020-07-11T05:07:29.583Z</time>
      </trkpt>
      <trkpt lat="44.29032" lon="5.10341">
        <ele>288</ele>
        <time>2020-07-11T05:07:30.583Z</time>
      </trkpt>
      <trkpt lat="44.29026" lon="5.10344">
        <ele>289</ele>
        <time>2020-07-11T05:07:31.583Z</time>
      </trkpt>
      <trkpt lat="44.29021" lon="5.10347">
        <ele>289</ele>
        <time>2020-07-11T05:07:32.583Z</time>
      </trkpt>
      <trkpt lat="44.29015" lon="5.10349">
        <ele>289</ele>
        <time>2020-07-11T05:07:33.582Z</time>
      </trkpt>
      <trkpt lat="44.2901" lon="5.10352">
        <ele>289</ele>
        <time>2020-07-11T05:07:34.583Z</time>
      </trkpt>
      <trkpt lat="44.29004" lon="5.10355">
        <ele>290</ele>
        <time>2020-07-11T05:07:35.583Z</time>
      </trkpt>
      <trkpt lat="44.28999" lon="5.10358">
        <ele>290</ele>
        <time>2020-07-11T05:07:36.582Z</time>
      </trkpt>
      <trkpt lat="44.28994" lon="5.10361">
        <ele>290</ele>
        <time>2020-07-11T05:07:37.583Z</time>
      </trkpt>
      <trkpt lat="44.28988" lon="5.10364">
        <ele>290</ele>
        <time>2020-07-11T05:07:38.583Z</time>
      </trkpt>
      <trkpt lat="44.28983" lon="5.10367">
        <ele>290</ele>
        <time>2020-07-11T05:07:39.583Z</time>
      </trkpt>
      <trkpt lat="44.28977" lon="5.1037">
        <ele>291</ele>
        <time>2020-07-11T05:07:40.583Z</time>
      </trkpt>
      <trkpt lat="44.28972" lon="5.10373">
        <ele>291</ele>
        <time>2020-07-11T05:07:41.582Z</time>
      </trkpt>
      <trkpt lat="44.28966" lon="5.10376">
        <ele>291</ele>
        <time>2020-07-11T05:07:42.583Z</time>
      </trkpt>
      <trkpt lat="44.28961" lon="5.10379">
        <ele>291</ele>
        <time>2020-07-11T05:07:43.583Z</time>
      </trkpt>
      <trkpt lat="44.28956" lon="5.10382">
        <ele>291</ele>
        <time>2020-07-11T05:07:44.583Z</time>
      </trkpt>
      <trkpt lat="44.2895" lon="5.10385">
        <ele>291</ele>
        <time>2020-07-11T05:07:45.582Z</time>
      </trkpt>
      <trkpt lat="44.28945" lon="5.10388">
        <ele>291</ele>
        <time>2020-07-11T05:07:46.582Z</time>
      </trkpt>
      <trkpt lat="44.28939" lon="5.10391">
        <ele>291</ele>
        <time>2020-07-11T05:07:47.583Z</time>
      </trkpt>
      <trkpt lat="44.28934" lon="5.10394">
        <ele>291</ele>
        <time>2020-07-11T05:07:48.583Z</time>
      </trkpt>
      <trkpt lat="44.28928" lon="5.10397">
        <ele>291</ele>
        <time>2020-07-11T05:07:49.583Z</time>
      </trkpt>
      <trkpt lat="44.28923" lon="5.104">
        <ele>291</ele>
        <time>2020-07-11T05:07:50.582Z</time>
      </trkpt>
      <trkpt lat="44.28917" lon="5.10403">
        <ele>291</ele>
        <time>2020-07-11T05:07:51.583Z</time>
      </trkpt>
      <trkpt lat="44.28912" lon="5.10406">
        <ele>291</ele>
        <time>2020-07-11T05:07:52.582Z</time>
      </trkpt>
      <trkpt lat="44.28906" lon="5.10409">
        <ele>291</ele>
        <time>2020-07-11T05:07:53.583Z</time>
      </trkpt>
      <trkpt lat="44.28901" lon="5.10412">
        <ele>291</ele>
        <time>2020-07-11T05:07:54.583Z</time>
      </trkpt>
      <trkpt lat="44.28896" lon="5.10415">
        <ele>291</ele>
        <time>2020-07-11T05:07:55.583Z</time>
      </trkpt>
      <trkpt lat="44.28891" lon="5.10418">
        <ele>291</ele>
        <time>2020-07-11T05:07:56.582Z</time>
      </trkpt>
      <trkpt lat="44.28885" lon="5.10421">
        <ele>291</ele>
        <time>2020-07-11T05:07:57.583Z</time>
      </trkpt>
      <trkpt lat="44.2888" lon="5.10424">
        <ele>291</ele>
        <time>2020-07-11T05:07:58.583Z</time>
      </trkpt>
      <trkpt lat="44.28875" lon="5.10427">
        <ele>292</ele>
        <time>2020-07-11T05:07:59.583Z</time>
      </trkpt>
      <trkpt lat="44.28869" lon="5.10429">
        <ele>292</ele>
        <time>2020-07-11T05:08:00.583Z</time>
      </trkpt>
      <trkpt lat="44.28864" lon="5.10432">
        <ele>292</ele>
        <time>2020-07-11T05:08:01.583Z</time>
      </trkpt>
      <trkpt lat="44.28859" lon="5.10434">
        <ele>292</ele>
        <time>2020-07-11T05:08:02.582Z</time>
      </trkpt>
      <trkpt lat="44.28853" lon="5.10437">
        <ele>291</ele>
        <time>2020-07-11T05:08:03.583Z</time>
      </trkpt>
      <trkpt lat="44.28848" lon="5.1044">
        <ele>292</ele>
        <time>2020-07-11T05:08:04.583Z</time>
      </trkpt>
      <trkpt lat="44.28843" lon="5.10443">
        <ele>292</ele>
        <time>2020-07-11T05:08:05.583Z</time>
      </trkpt>
      <trkpt lat="44.28837" lon="5.10445">
        <ele>292</ele>
        <time>2020-07-11T05:08:06.583Z</time>
      </trkpt>
      <trkpt lat="44.28832" lon="5.10448">
        <ele>293</ele>
        <time>2020-07-11T05:08:07.582Z</time>
      </trkpt>
      <trkpt lat="44.28826" lon="5.1045">
        <ele>292</ele>
        <time>2020-07-11T05:08:08.583Z</time>
      </trkpt>
      <trkpt lat="44.28821" lon="5.10452">
        <ele>292</ele>
        <time>2020-07-11T05:08:09.583Z</time>
      </trkpt>
      <trkpt lat="44.28816" lon="5.10454">
        <ele>292</ele>
        <time>2020-07-11T05:08:10.583Z</time>
      </trkpt>
      <trkpt lat="44.2881" lon="5.10457">
        <ele>292</ele>
        <time>2020-07-11T05:08:11.582Z</time>
      </trkpt>
      <trkpt lat="44.28805" lon="5.10459">
        <ele>292</ele>
        <time>2020-07-11T05:08:12.583Z</time>
      </trkpt>
      <trkpt lat="44.28799" lon="5.10461">
        <ele>292</ele>
        <time>2020-07-11T05:08:13.583Z</time>
      </trkpt>
      <trkpt lat="44.28794" lon="5.10463">
        <ele>292</ele>
        <time>2020-07-11T05:08:14.582Z</time>
      </trkpt>
      <trkpt lat="44.28788" lon="5.10465">
        <ele>292</ele>
        <time>2020-07-11T05:08:15.583Z</time>
      </trkpt>
      <trkpt lat="44.28783" lon="5.10467">
        <ele>292</ele>
        <time>2020-07-11T05:08:16.583Z</time>
      </trkpt>
      <trkpt lat="44.28778" lon="5.10469">
        <ele>292</ele>
        <time>2020-07-11T05:08:17.583Z</time>
      </trkpt>
      <trkpt lat="44.28772" lon="5.10471">
        <ele>293</ele>
        <time>2020-07-11T05:08:18.583Z</time>
      </trkpt>
      <trkpt lat="44.28767" lon="5.10473">
        <ele>293</ele>
        <time>2020-07-11T05:08:19.583Z</time>
      </trkpt>
      <trkpt lat="44.28761" lon="5.10475">
        <ele>293</ele>
        <time>2020-07-11T05:08:20.582Z</time>
      </trkpt>
      <trkpt lat="44.28756" lon="5.10477">
        <ele>294</ele>
        <time>2020-07-11T05:08:21.583Z</time>
      </trkpt>
      <trkpt lat="44.28751" lon="5.10479">
        <ele>294</ele>
        <time>2020-07-11T05:08:22.582Z</time>
      </trkpt>
      <trkpt lat="44.28745" lon="5.10481">
        <ele>295</ele>
        <time>2020-07-11T05:08:23.583Z</time>
      </trkpt>
      <trkpt lat="44.2874" lon="5.10483">
        <ele>295</ele>
        <time>2020-07-11T05:08:24.582Z</time>
      </trkpt>
      <trkpt lat="44.28735" lon="5.10485">
        <ele>295</ele>
        <time>2020-07-11T05:08:25.582Z</time>
      </trkpt>
      <trkpt lat="44.2873" lon="5.10487">
        <ele>296</ele>
        <time>2020-07-11T05:08:26.583Z</time>
      </trkpt>
      <trkpt lat="44.28725" lon="5.10489">
        <ele>296</ele>
        <time>2020-07-11T05:08:27.582Z</time>
      </trkpt>
      <trkpt lat="44.28719" lon="5.10491">
        <ele>296</ele>
        <time>2020-07-11T05:08:28.583Z</time>
      </trkpt>
      <trkpt lat="44.28714" lon="5.10493">
        <ele>295</ele>
        <time>2020-07-11T05:08:29.582Z</time>
      </trkpt>
      <trkpt lat="44.28709" lon="5.10495">
        <ele>295</ele>
        <time>2020-07-11T05:08:30.583Z</time>
      </trkpt>
      <trkpt lat="44.28704" lon="5.10497">
        <ele>295</ele>
        <time>2020-07-11T05:08:31.583Z</time>
      </trkpt>
      <trkpt lat="44.28699" lon="5.10499">
        <ele>295</ele>
        <time>2020-07-11T05:08:32.583Z</time>
      </trkpt>
      <trkpt lat="44.28694" lon="5.10501">
        <ele>295</ele>
        <time>2020-07-11T05:08:33.583Z</time>
      </trkpt>
      <trkpt lat="44.2869" lon="5.10503">
        <ele>295</ele>
        <time>2020-07-11T05:08:34.582Z</time>
      </trkpt>
      <trkpt lat="44.28685" lon="5.10505">
        <ele>295</ele>
        <time>2020-07-11T05:08:35.583Z</time>
      </trkpt>
      <trkpt lat="44.2868" lon="5.10507">
        <ele>295</ele>
        <time>2020-07-11T05:08:36.583Z</time>
      </trkpt>
      <trkpt lat="44.28675" lon="5.10509">
        <ele>295</ele>
        <time>2020-07-11T05:08:37.582Z</time>
      </trkpt>
      <trkpt lat="44.2867" lon="5.10511">
        <ele>296</ele>
        <time>2020-07-11T05:08:38.583Z</time>
      </trkpt>
      <trkpt lat="44.28665" lon="5.10512">
        <ele>296</ele>
        <time>2020-07-11T05:08:39.583Z</time>
      </trkpt>
      <trkpt lat="44.2866" lon="5.10514">
        <ele>296</ele>
        <time>2020-07-11T05:08:40.583Z</time>
      </trkpt>
      <trkpt lat="44.28655" lon="5.10516">
        <ele>296</ele>
        <time>2020-07-11T05:08:41.583Z</time>
      </trkpt>
      <trkpt lat="44.2865" lon="5.10519">
        <ele>297</ele>
        <time>2020-07-11T05:08:42.582Z</time>
      </trkpt>
      <trkpt lat="44.28645" lon="5.10521">
        <ele>297</ele>
        <time>2020-07-11T05:08:43.582Z</time>
      </trkpt>
      <trkpt lat="44.2864" lon="5.10523">
        <ele>298</ele>
        <time>2020-07-11T05:08:44.583Z</time>
      </trkpt>
      <trkpt lat="44.28635" lon="5.10525">
        <ele>298</ele>
        <time>2020-07-11T05:08:45.583Z</time>
      </trkpt>
      <trkpt lat="44.2863" lon="5.10527">
        <ele>299</ele>
        <time>2020-07-11T05:08:46.583Z</time>
      </trkpt>
      <trkpt lat="44.28625" lon="5.10528">
        <ele>299</ele>
        <time>2020-07-11T05:08:47.583Z</time>
      </trkpt>
      <trkpt lat="44.2862" lon="5.1053">
        <ele>299</ele>
        <time>2020-07-11T05:08:48.583Z</time>
      </trkpt>
      <trkpt lat="44.28615" lon="5.10532">
        <ele>300</ele>
        <time>2020-07-11T05:08:49.583Z</time>
      </trkpt>
      <trkpt lat="44.2861" lon="5.10534">
        <ele>300</ele>
        <time>2020-07-11T05:08:50.583Z</time>
      </trkpt>
      <trkpt lat="44.28605" lon="5.10536">
        <ele>300</ele>
        <time>2020-07-11T05:08:51.583Z</time>
      </trkpt>
      <trkpt lat="44.286" lon="5.10537">
        <ele>300</ele>
        <time>2020-07-11T05:08:52.583Z</time>
      </trkpt>
      <trkpt lat="44.28596" lon="5.10539">
        <ele>300</ele>
        <time>2020-07-11T05:08:53.583Z</time>
      </trkpt>
      <trkpt lat="44.28591" lon="5.10541">
        <ele>300</ele>
        <time>2020-07-11T05:08:54.582Z</time>
      </trkpt>
      <trkpt lat="44.28586" lon="5.10543">
        <ele>301</ele>
        <time>2020-07-11T05:08:55.583Z</time>
      </trkpt>
      <trkpt lat="44.28581" lon="5.10545">
        <ele>302</ele>
        <time>2020-07-11T05:08:56.582Z</time>
      </trkpt>
      <trkpt lat="44.28576" lon="5.10548">
        <ele>302</ele>
        <time>2020-07-11T05:08:57.583Z</time>
      </trkpt>
      <trkpt lat="44.28571" lon="5.1055">
        <ele>303</ele>
        <time>2020-07-11T05:08:58.583Z</time>
      </trkpt>
      <trkpt lat="44.28567" lon="5.10552">
        <ele>304</ele>
        <time>2020-07-11T05:08:59.583Z</time>
      </trkpt>
      <trkpt lat="44.28562" lon="5.10554">
        <ele>304</ele>
        <time>2020-07-11T05:09:00.582Z</time>
      </trkpt>
      <trkpt lat="44.28557" lon="5.10556">
        <ele>304</ele>
        <time>2020-07-11T05:09:01.582Z</time>
      </trkpt>
      <trkpt lat="44.28552" lon="5.10558">
        <ele>304</ele>
        <time>2020-07-11T05:09:02.583Z</time>
      </trkpt>
      <trkpt lat="44.28547" lon="5.1056">
        <ele>304</ele>
        <time>2020-07-11T05:09:03.583Z</time>
      </trkpt>
      <trkpt lat="44.28541" lon="5.10562">
        <ele>304</ele>
        <time>2020-07-11T05:09:04.582Z</time>
      </trkpt>
      <trkpt lat="44.28537" lon="5.10564">
        <ele>305</ele>
        <time>2020-07-11T05:09:05.583Z</time>
      </trkpt>
      <trkpt lat="44.28532" lon="5.10566">
        <ele>305</ele>
        <time>2020-07-11T05:09:06.583Z</time>
      </trkpt>
      <trkpt lat="44.28527" lon="5.10568">
        <ele>305</ele>
        <time>2020-07-11T05:09:07.583Z</time>
      </trkpt>
      <trkpt lat="44.28522" lon="5.10571">
        <ele>305</ele>
        <time>2020-07-11T05:09:08.583Z</time>
      </trkpt>
      <trkpt lat="44.28517" lon="5.10573">
        <ele>305</ele>
        <time>2020-07-11T05:09:09.582Z</time>
      </trkpt>
      <trkpt lat="44.28512" lon="5.10574">
        <ele>306</ele>
        <time>2020-07-11T05:09:10.583Z</time>
      </trkpt>
      <trkpt lat="44.28507" lon="5.10576">
        <ele>306</ele>
        <time>2020-07-11T05:09:11.583Z</time>
      </trkpt>
      <trkpt lat="44.28501" lon="5.10578">
        <ele>306</ele>
        <time>2020-07-11T05:09:12.582Z</time>
      </trkpt>
      <trkpt lat="44.28497" lon="5.1058">
        <ele>306</ele>
        <time>2020-07-11T05:09:13.582Z</time>
      </trkpt>
      <trkpt lat="44.28492" lon="5.10582">
        <ele>306</ele>
        <time>2020-07-11T05:09:14.582Z</time>
      </trkpt>
      <trkpt lat="44.28486" lon="5.10584">
        <ele>306</ele>
        <time>2020-07-11T05:09:15.582Z</time>
      </trkpt>
      <trkpt lat="44.2848" lon="5.10586">
        <ele>306</ele>
        <time>2020-07-11T05:09:16.583Z</time>
      </trkpt>
      <trkpt lat="44.28475" lon="5.10588">
        <ele>306</ele>
        <time>2020-07-11T05:09:17.583Z</time>
      </trkpt>
      <trkpt lat="44.28469" lon="5.1059">
        <ele>306</ele>
        <time>2020-07-11T05:09:18.583Z</time>
      </trkpt>
      <trkpt lat="44.28463" lon="5.10592">
        <ele>307</ele>
        <time>2020-07-11T05:09:19.583Z</time>
      </trkpt>
      <trkpt lat="44.28457" lon="5.10594">
        <ele>307</ele>
        <time>2020-07-11T05:09:20.583Z</time>
      </trkpt>
      <trkpt lat="44.28452" lon="5.10596">
        <ele>307</ele>
        <time>2020-07-11T05:09:21.583Z</time>
      </trkpt>
      <trkpt lat="44.28446" lon="5.10598">
        <ele>308</ele>
        <time>2020-07-11T05:09:22.582Z</time>
      </trkpt>
      <trkpt lat="44.2844" lon="5.10599">
        <ele>308</ele>
        <time>2020-07-11T05:09:23.583Z</time>
      </trkpt>
      <trkpt lat="44.28434" lon="5.10601">
        <ele>307</ele>
        <time>2020-07-11T05:09:24.583Z</time>
      </trkpt>
      <trkpt lat="44.28428" lon="5.10603">
        <ele>307</ele>
        <time>2020-07-11T05:09:25.583Z</time>
      </trkpt>
      <trkpt lat="44.28422" lon="5.10605">
        <ele>307</ele>
        <time>2020-07-11T05:09:26.583Z</time>
      </trkpt>
      <trkpt lat="44.28416" lon="5.10608">
        <ele>307</ele>
        <time>2020-07-11T05:09:27.583Z</time>
      </trkpt>
      <trkpt lat="44.2841" lon="5.1061">
        <ele>307</ele>
        <time>2020-07-11T05:09:28.583Z</time>
      </trkpt>
      <trkpt lat="44.28404" lon="5.10612">
        <ele>307</ele>
        <time>2020-07-11T05:09:29.583Z</time>
      </trkpt>
      <trkpt lat="44.28398" lon="5.10615">
        <ele>308</ele>
        <time>2020-07-11T05:09:30.583Z</time>
      </trkpt>
      <trkpt lat="44.28392" lon="5.10617">
        <ele>308</ele>
        <time>2020-07-11T05:09:31.583Z</time>
      </trkpt>
      <trkpt lat="44.28385" lon="5.10619">
        <ele>308</ele>
        <time>2020-07-11T05:09:32.583Z</time>
      </trkpt>
      <trkpt lat="44.28379" lon="5.10621">
        <ele>308</ele>
        <time>2020-07-11T05:09:33.582Z</time>
      </trkpt>
      <trkpt lat="44.28372" lon="5.10622">
        <ele>308</ele>
        <time>2020-07-11T05:09:34.582Z</time>
      </trkpt>
      <trkpt lat="44.28365" lon="5.10624">
        <ele>308</ele>
        <time>2020-07-11T05:09:35.583Z</time>
      </trkpt>
      <trkpt lat="44.28358" lon="5.10625">
        <ele>308</ele>
        <time>2020-07-11T05:09:36.583Z</time>
      </trkpt>
      <trkpt lat="44.28351" lon="5.10626">
        <ele>308</ele>
        <time>2020-07-11T05:09:37.583Z</time>
      </trkpt>
      <trkpt lat="44.28344" lon="5.10627">
        <ele>308</ele>
        <time>2020-07-11T05:09:38.583Z</time>
      </trkpt>
      <trkpt lat="44.28336" lon="5.10627">
        <ele>308</ele>
        <time>2020-07-11T05:09:39.583Z</time>
      </trkpt>
      <trkpt lat="44.28329" lon="5.10627">
        <ele>308</ele>
        <time>2020-07-11T05:09:40.583Z</time>
      </trkpt>
      <trkpt lat="44.28321" lon="5.10626">
        <ele>308</ele>
        <time>2020-07-11T05:09:41.583Z</time>
      </trkpt>
      <trkpt lat="44.28313" lon="5.10626">
        <ele>307</ele>
        <time>2020-07-11T05:09:42.583Z</time>
      </trkpt>
      <trkpt lat="44.28306" lon="5.10625">
        <ele>307</ele>
        <time>2020-07-11T05:09:43.583Z</time>
      </trkpt>
      <trkpt lat="44.28298" lon="5.10624">
        <ele>307</ele>
        <time>2020-07-11T05:09:44.582Z</time>
      </trkpt>
      <trkpt lat="44.28291" lon="5.10622">
        <ele>307</ele>
        <time>2020-07-11T05:09:45.583Z</time>
      </trkpt>
      <trkpt lat="44.28283" lon="5.1062">
        <ele>307</ele>
        <time>2020-07-11T05:09:46.583Z</time>
      </trkpt>
      <trkpt lat="44.28275" lon="5.10619">
        <ele>307</ele>
        <time>2020-07-11T05:09:47.583Z</time>
      </trkpt>
      <trkpt lat="44.28268" lon="5.10616">
        <ele>306</ele>
        <time>2020-07-11T05:09:48.583Z</time>
      </trkpt>
      <trkpt lat="44.2826" lon="5.10614">
        <ele>306</ele>
        <time>2020-07-11T05:09:49.582Z</time>
      </trkpt>
      <trkpt lat="44.28252" lon="5.10611">
        <ele>306</ele>
        <time>2020-07-11T05:09:50.583Z</time>
      </trkpt>
      <trkpt lat="44.28245" lon="5.10609">
        <ele>306</ele>
        <time>2020-07-11T05:09:51.582Z</time>
      </trkpt>
      <trkpt lat="44.28237" lon="5.10606">
        <ele>306</ele>
        <time>2020-07-11T05:09:52.582Z</time>
      </trkpt>
      <trkpt lat="44.28229" lon="5.10603">
        <ele>306</ele>
        <time>2020-07-11T05:09:53.583Z</time>
      </trkpt>
      <trkpt lat="44.28222" lon="5.10599">
        <ele>306</ele>
        <time>2020-07-11T05:09:54.582Z</time>
      </trkpt>
      <trkpt lat="44.28214" lon="5.10596">
        <ele>306</ele>
        <time>2020-07-11T05:09:55.583Z</time>
      </trkpt>
      <trkpt lat="44.28206" lon="5.10593">
        <ele>306</ele>
        <time>2020-07-11T05:09:56.583Z</time>
      </trkpt>
      <trkpt lat="44.28199" lon="5.1059">
        <ele>306</ele>
        <time>2020-07-11T05:09:57.583Z</time>
      </trkpt>
      <trkpt lat="44.28191" lon="5.10587">
        <ele>306</ele>
        <time>2020-07-11T05:09:58.582Z</time>
      </trkpt>
      <trkpt lat="44.28184" lon="5.10584">
        <ele>305</ele>
        <time>2020-07-11T05:09:59.583Z</time>
      </trkpt>
      <trkpt lat="44.28177" lon="5.10581">
        <ele>305</ele>
        <time>2020-07-11T05:10:00.583Z</time>
      </trkpt>
      <trkpt lat="44.28169" lon="5.10578">
        <ele>305</ele>
        <time>2020-07-11T05:10:01.583Z</time>
      </trkpt>
      <trkpt lat="44.28162" lon="5.10575">
        <ele>305</ele>
        <time>2020-07-11T05:10:02.583Z</time>
      </trkpt>
      <trkpt lat="44.28154" lon="5.10572">
        <ele>305</ele>
        <time>2020-07-11T05:10:03.583Z</time>
      </trkpt>
      <trkpt lat="44.28147" lon="5.1057">
        <ele>304</ele>
        <time>2020-07-11T05:10:04.583Z</time>
      </trkpt>
      <trkpt lat="44.2814" lon="5.10567">
        <ele>304</ele>
        <time>2020-07-11T05:10:05.582Z</time>
      </trkpt>
      <trkpt lat="44.28133" lon="5.10565">
        <ele>304</ele>
        <time>2020-07-11T05:10:06.582Z</time>
      </trkpt>
      <trkpt lat="44.28126" lon="5.10563">
        <ele>304</ele>
        <time>2020-07-11T05:10:07.583Z</time>
      </trkpt>
      <trkpt lat="44.28119" lon="5.1056">
        <ele>303</ele>
        <time>2020-07-11T05:10:08.582Z</time>
      </trkpt>
      <trkpt lat="44.28112" lon="5.10557">
        <ele>303</ele>
        <time>2020-07-11T05:10:09.583Z</time>
      </trkpt>
      <trkpt lat="44.28105" lon="5.10555">
        <ele>303</ele>
        <time>2020-07-11T05:10:10.582Z</time>
      </trkpt>
      <trkpt lat="44.28098" lon="5.10553">
        <ele>303</ele>
        <time>2020-07-11T05:10:11.583Z</time>
      </trkpt>
      <trkpt lat="44.2809" lon="5.1055">
        <ele>303</ele>
        <time>2020-07-11T05:10:12.582Z</time>
      </trkpt>
      <trkpt lat="44.28083" lon="5.10549">
        <ele>303</ele>
        <time>2020-07-11T05:10:13.583Z</time>
      </trkpt>
      <trkpt lat="44.28076" lon="5.10548">
        <ele>303</ele>
        <time>2020-07-11T05:10:14.583Z</time>
      </trkpt>
      <trkpt lat="44.28069" lon="5.10547">
        <ele>304</ele>
        <time>2020-07-11T05:10:15.583Z</time>
      </trkpt>
      <trkpt lat="44.28061" lon="5.10546">
        <ele>304</ele>
        <time>2020-07-11T05:10:16.583Z</time>
      </trkpt>
      <trkpt lat="44.28054" lon="5.10546">
        <ele>305</ele>
        <time>2020-07-11T05:10:17.583Z</time>
      </trkpt>
      <trkpt lat="44.28047" lon="5.10546">
        <ele>305</ele>
        <time>2020-07-11T05:10:18.583Z</time>
      </trkpt>
      <trkpt lat="44.2804" lon="5.10547">
        <ele>305</ele>
        <time>2020-07-11T05:10:19.582Z</time>
      </trkpt>
      <trkpt lat="44.28032" lon="5.10548">
        <ele>306</ele>
        <time>2020-07-11T05:10:20.582Z</time>
      </trkpt>
      <trkpt lat="44.28025" lon="5.1055">
        <ele>306</ele>
        <time>2020-07-11T05:10:21.583Z</time>
      </trkpt>
      <trkpt lat="44.28018" lon="5.10553">
        <ele>306</ele>
        <time>2020-07-11T05:10:22.583Z</time>
      </trkpt>
      <trkpt lat="44.2801" lon="5.10556">
        <ele>307</ele>
        <time>2020-07-11T05:10:23.583Z</time>
      </trkpt>
      <trkpt lat="44.28003" lon="5.1056">
        <ele>307</ele>
        <time>2020-07-11T05:10:24.583Z</time>
      </trkpt>
      <trkpt lat="44.27996" lon="5.10564">
        <ele>307</ele>
        <time>2020-07-11T05:10:25.582Z</time>
      </trkpt>
      <trkpt lat="44.27989" lon="5.10569">
        <ele>307</ele>
        <time>2020-07-11T05:10:26.583Z</time>
      </trkpt>
      <trkpt lat="44.27982" lon="5.10575">
        <ele>307</ele>
        <time>2020-07-11T05:10:27.583Z</time>
      </trkpt>
      <trkpt lat="44.27975" lon="5.1058">
        <ele>307</ele>
        <time>2020-07-11T05:10:28.582Z</time>
      </trkpt>
      <trkpt lat="44.27967" lon="5.10586">
        <ele>307</ele>
        <time>2020-07-11T05:10:29.583Z</time>
      </trkpt>
      <trkpt lat="44.2796" lon="5.10592">
        <ele>307</ele>
        <time>2020-07-11T05:10:30.583Z</time>
      </trkpt>
      <trkpt lat="44.27952" lon="5.10598">
        <ele>307</ele>
        <time>2020-07-11T05:10:31.582Z</time>
      </trkpt>
      <trkpt lat="44.27945" lon="5.10603">
        <ele>307</ele>
        <time>2020-07-11T05:10:32.583Z</time>
      </trkpt>
      <trkpt lat="44.27937" lon="5.10609">
        <ele>307</ele>
        <time>2020-07-11T05:10:33.583Z</time>
      </trkpt>
      <trkpt lat="44.27929" lon="5.10615">
        <ele>307</ele>
        <time>2020-07-11T05:10:34.582Z</time>
      </trkpt>
      <trkpt lat="44.27922" lon="5.10621">
        <ele>307</ele>
        <time>2020-07-11T05:10:35.583Z</time>
      </trkpt>
      <trkpt lat="44.27914" lon="5.10627">
        <ele>307</ele>
        <time>2020-07-11T05:10:36.583Z</time>
      </trkpt>
      <trkpt lat="44.27906" lon="5.10633">
        <ele>307</ele>
        <time>2020-07-11T05:10:37.582Z</time>
      </trkpt>
      <trkpt lat="44.27899" lon="5.10639">
        <ele>307</ele>
        <time>2020-07-11T05:10:38.583Z</time>
      </trkpt>
      <trkpt lat="44.27891" lon="5.10644">
        <ele>306</ele>
        <time>2020-07-11T05:10:39.582Z</time>
      </trkpt>
      <trkpt lat="44.27884" lon="5.10649">
        <ele>305</ele>
        <time>2020-07-11T05:10:40.582Z</time>
      </trkpt>
      <trkpt lat="44.27876" lon="5.10655">
        <ele>304</ele>
        <time>2020-07-11T05:10:41.583Z</time>
      </trkpt>
      <trkpt lat="44.27869" lon="5.1066">
        <ele>303</ele>
        <time>2020-07-11T05:10:42.583Z</time>
      </trkpt>
      <trkpt lat="44.27861" lon="5.10666">
        <ele>303</ele>
        <time>2020-07-11T05:10:43.582Z</time>
      </trkpt>
      <trkpt lat="44.27853" lon="5.10672">
        <ele>303</ele>
        <time>2020-07-11T05:10:44.582Z</time>
      </trkpt>
      <trkpt lat="44.27845" lon="5.10677">
        <ele>303</ele>
        <time>2020-07-11T05:10:45.582Z</time>
      </trkpt>
      <trkpt lat="44.27837" lon="5.10681">
        <ele>302</ele>
        <time>2020-07-11T05:10:46.583Z</time>
      </trkpt>
      <trkpt lat="44.27829" lon="5.10686">
        <ele>303</ele>
        <time>2020-07-11T05:10:47.583Z</time>
      </trkpt>
      <trkpt lat="44.27821" lon="5.1069">
        <ele>303</ele>
        <time>2020-07-11T05:10:48.583Z</time>
      </trkpt>
      <trkpt lat="44.27813" lon="5.10694">
        <ele>303</ele>
        <time>2020-07-11T05:10:49.583Z</time>
      </trkpt>
      <trkpt lat="44.27804" lon="5.10698">
        <ele>303</ele>
        <time>2020-07-11T05:10:50.582Z</time>
      </trkpt>
      <trkpt lat="44.27796" lon="5.10702">
        <ele>303</ele>
        <time>2020-07-11T05:10:51.583Z</time>
      </trkpt>
      <trkpt lat="44.27788" lon="5.10706">
        <ele>303</ele>
        <time>2020-07-11T05:10:52.583Z</time>
      </trkpt>
      <trkpt lat="44.2778" lon="5.10709">
        <ele>302</ele>
        <time>2020-07-11T05:10:53.582Z</time>
      </trkpt>
      <trkpt lat="44.27772" lon="5.10713">
        <ele>302</ele>
        <time>2020-07-11T05:10:54.583Z</time>
      </trkpt>
      <trkpt lat="44.27763" lon="5.10717">
        <ele>302</ele>
        <time>2020-07-11T05:10:55.583Z</time>
      </trkpt>
      <trkpt lat="44.27755" lon="5.1072">
        <ele>301</ele>
        <time>2020-07-11T05:10:56.583Z</time>
      </trkpt>
      <trkpt lat="44.27746" lon="5.10724">
        <ele>301</ele>
        <time>2020-07-11T05:10:57.583Z</time>
      </trkpt>
      <trkpt lat="44.27737" lon="5.10728">
        <ele>301</ele>
        <time>2020-07-11T05:10:58.583Z</time>
      </trkpt>
      <trkpt lat="44.27729" lon="5.10732">
        <ele>301</ele>
        <time>2020-07-11T05:10:59.582Z</time>
      </trkpt>
      <trkpt lat="44.2772" lon="5.10735">
        <ele>301</ele>
        <time>2020-07-11T05:11:00.582Z</time>
      </trkpt>
      <trkpt lat="44.27712" lon="5.10738">
        <ele>301</ele>
        <time>2020-07-11T05:11:01.582Z</time>
      </trkpt>
      <trkpt lat="44.27704" lon="5.10741">
        <ele>301</ele>
        <time>2020-07-11T05:11:02.583Z</time>
      </trkpt>
      <trkpt lat="44.27695" lon="5.10744">
        <ele>301</ele>
        <time>2020-07-11T05:11:03.583Z</time>
      </trkpt>
      <trkpt lat="44.27687" lon="5.10746">
        <ele>300</ele>
        <time>2020-07-11T05:11:04.583Z</time>
      </trkpt>
      <trkpt lat="44.27679" lon="5.10749">
        <ele>300</ele>
        <time>2020-07-11T05:11:05.582Z</time>
      </trkpt>
      <trkpt lat="44.2767" lon="5.10752">
        <ele>299</ele>
        <time>2020-07-11T05:11:06.582Z</time>
      </trkpt>
      <trkpt lat="44.27662" lon="5.10754">
        <ele>299</ele>
        <time>2020-07-11T05:11:07.583Z</time>
      </trkpt>
      <trkpt lat="44.27654" lon="5.10756">
        <ele>298</ele>
        <time>2020-07-11T05:11:08.582Z</time>
      </trkpt>
      <trkpt lat="44.27646" lon="5.10758">
        <ele>298</ele>
        <time>2020-07-11T05:11:09.582Z</time>
      </trkpt>
      <trkpt lat="44.27638" lon="5.10759">
        <ele>297</ele>
        <time>2020-07-11T05:11:10.583Z</time>
      </trkpt>
      <trkpt lat="44.2763" lon="5.1076">
        <ele>296</ele>
        <time>2020-07-11T05:11:11.583Z</time>
      </trkpt>
      <trkpt lat="44.27622" lon="5.10759">
        <ele>296</ele>
        <time>2020-07-11T05:11:12.583Z</time>
      </trkpt>
      <trkpt lat="44.27614" lon="5.10758">
        <ele>295</ele>
        <time>2020-07-11T05:11:13.582Z</time>
      </trkpt>
      <trkpt lat="44.27607" lon="5.10757">
        <ele>295</ele>
        <time>2020-07-11T05:11:14.582Z</time>
      </trkpt>
      <trkpt lat="44.27599" lon="5.10758">
        <ele>295</ele>
        <time>2020-07-11T05:11:15.583Z</time>
      </trkpt>
      <trkpt lat="44.27591" lon="5.10758">
        <ele>295</ele>
        <time>2020-07-11T05:11:16.583Z</time>
      </trkpt>
      <trkpt lat="44.27582" lon="5.10758">
        <ele>294</ele>
        <time>2020-07-11T05:11:17.583Z</time>
      </trkpt>
      <trkpt lat="44.27574" lon="5.10756">
        <ele>294</ele>
        <time>2020-07-11T05:11:18.582Z</time>
      </trkpt>
      <trkpt lat="44.27566" lon="5.10754">
        <ele>294</ele>
        <time>2020-07-11T05:11:19.583Z</time>
      </trkpt>
      <trkpt lat="44.27558" lon="5.10752">
        <ele>294</ele>
        <time>2020-07-11T05:11:20.582Z</time>
      </trkpt>
      <trkpt lat="44.27549" lon="5.10749">
        <ele>294</ele>
        <time>2020-07-11T05:11:21.583Z</time>
      </trkpt>
      <trkpt lat="44.27541" lon="5.10747">
        <ele>293</ele>
        <time>2020-07-11T05:11:22.583Z</time>
      </trkpt>
      <trkpt lat="44.27532" lon="5.10744">
        <ele>293</ele>
        <time>2020-07-11T05:11:23.583Z</time>
      </trkpt>
      <trkpt lat="44.27524" lon="5.10741">
        <ele>293</ele>
        <time>2020-07-11T05:11:24.582Z</time>
      </trkpt>
      <trkpt lat="44.27516" lon="5.10739">
        <ele>293</ele>
        <time>2020-07-11T05:11:25.582Z</time>
      </trkpt>
      <trkpt lat="44.27508" lon="5.10735">
        <ele>292</ele>
        <time>2020-07-11T05:11:26.583Z</time>
      </trkpt>
      <trkpt lat="44.275" lon="5.10732">
        <ele>292</ele>
        <time>2020-07-11T05:11:27.583Z</time>
      </trkpt>
      <trkpt lat="44.27491" lon="5.10729">
        <ele>292</ele>
        <time>2020-07-11T05:11:28.583Z</time>
      </trkpt>
      <trkpt lat="44.27483" lon="5.10725">
        <ele>292</ele>
        <time>2020-07-11T05:11:29.583Z</time>
      </trkpt>
      <trkpt lat="44.27475" lon="5.10721">
        <ele>292</ele>
        <time>2020-07-11T05:11:30.582Z</time>
      </trkpt>
      <trkpt lat="44.27467" lon="5.10716">
        <ele>292</ele>
        <time>2020-07-11T05:11:31.583Z</time>
      </trkpt>
      <trkpt lat="44.27459" lon="5.1071">
        <ele>292</ele>
        <time>2020-07-11T05:11:32.583Z</time>
      </trkpt>
      <trkpt lat="44.27452" lon="5.10703">
        <ele>292</ele>
        <time>2020-07-11T05:11:33.582Z</time>
      </trkpt>
      <trkpt lat="44.27444" lon="5.10696">
        <ele>292</ele>
        <time>2020-07-11T05:11:34.582Z</time>
      </trkpt>
      <trkpt lat="44.27438" lon="5.10687">
        <ele>292</ele>
        <time>2020-07-11T05:11:35.582Z</time>
      </trkpt>
      <trkpt lat="44.27431" lon="5.10679">
        <ele>292</ele>
        <time>2020-07-11T05:11:36.583Z</time>
      </trkpt>
      <trkpt lat="44.27424" lon="5.1067">
        <ele>292</ele>
        <time>2020-07-11T05:11:37.583Z</time>
      </trkpt>
      <trkpt lat="44.27418" lon="5.10661">
        <ele>292</ele>
        <time>2020-07-11T05:11:38.582Z</time>
      </trkpt>
      <trkpt lat="44.27412" lon="5.10653">
        <ele>292</ele>
        <time>2020-07-11T05:11:39.582Z</time>
      </trkpt>
      <trkpt lat="44.27407" lon="5.10644">
        <ele>292</ele>
        <time>2020-07-11T05:11:40.582Z</time>
      </trkpt>
      <trkpt lat="44.27402" lon="5.10636">
        <ele>292</ele>
        <time>2020-07-11T05:11:41.583Z</time>
      </trkpt>
      <trkpt lat="44.27396" lon="5.10628">
        <ele>292</ele>
        <time>2020-07-11T05:11:42.583Z</time>
      </trkpt>
      <trkpt lat="44.27391" lon="5.1062">
        <ele>292</ele>
        <time>2020-07-11T05:11:43.582Z</time>
      </trkpt>
      <trkpt lat="44.27386" lon="5.10612">
        <ele>292</ele>
        <time>2020-07-11T05:11:44.582Z</time>
      </trkpt>
      <trkpt lat="44.27381" lon="5.10605">
        <ele>291</ele>
        <time>2020-07-11T05:11:45.582Z</time>
      </trkpt>
      <trkpt lat="44.27375" lon="5.10598">
        <ele>292</ele>
        <time>2020-07-11T05:11:46.583Z</time>
      </trkpt>
      <trkpt lat="44.2737" lon="5.10591">
        <ele>292</ele>
        <time>2020-07-11T05:11:47.582Z</time>
      </trkpt>
      <trkpt lat="44.27365" lon="5.10583">
        <ele>292</ele>
        <time>2020-07-11T05:11:48.583Z</time>
      </trkpt>
      <trkpt lat="44.2736" lon="5.10576">
        <ele>292</ele>
        <time>2020-07-11T05:11:49.582Z</time>
      </trkpt>
      <trkpt lat="44.27356" lon="5.1057">
        <ele>292</ele>
        <time>2020-07-11T05:11:50.582Z</time>
      </trkpt>
      <trkpt lat="44.27352" lon="5.10564">
        <ele>292</ele>
        <time>2020-07-11T05:11:51.583Z</time>
      </trkpt>
      <trkpt lat="44.27348" lon="5.10558">
        <ele>291</ele>
        <time>2020-07-11T05:11:52.582Z</time>
      </trkpt>
      <trkpt lat="44.27343" lon="5.10552">
        <ele>291</ele>
        <time>2020-07-11T05:11:53.583Z</time>
      </trkpt>
      <trkpt lat="44.27339" lon="5.10546">
        <ele>291</ele>
        <time>2020-07-11T05:11:54.583Z</time>
      </trkpt>
      <trkpt lat="44.27335" lon="5.1054">
        <ele>291</ele>
        <time>2020-07-11T05:11:55.582Z</time>
      </trkpt>
      <trkpt lat="44.27331" lon="5.10534">
        <ele>292</ele>
        <time>2020-07-11T05:11:56.582Z</time>
      </trkpt>
      <trkpt lat="44.27328" lon="5.10529">
        <ele>292</ele>
        <time>2020-07-11T05:11:57.583Z</time>
      </trkpt>
      <trkpt lat="44.27324" lon="5.10523">
        <ele>291</ele>
        <time>2020-07-11T05:11:58.582Z</time>
      </trkpt>
      <trkpt lat="44.2732" lon="5.10518">
        <ele>291</ele>
        <time>2020-07-11T05:11:59.582Z</time>
      </trkpt>
      <trkpt lat="44.27317" lon="5.10512">
        <ele>292</ele>
        <time>2020-07-11T05:12:00.582Z</time>
      </trkpt>
      <trkpt lat="44.27313" lon="5.10507">
        <ele>292</ele>
        <time>2020-07-11T05:12:01.583Z</time>
      </trkpt>
      <trkpt lat="44.27309" lon="5.10501">
        <ele>292</ele>
        <time>2020-07-11T05:12:02.583Z</time>
      </trkpt>
      <trkpt lat="44.27305" lon="5.10496">
        <ele>292</ele>
        <time>2020-07-11T05:12:03.582Z</time>
      </trkpt>
      <trkpt lat="44.27301" lon="5.10491">
        <ele>293</ele>
        <time>2020-07-11T05:12:04.582Z</time>
      </trkpt>
      <trkpt lat="44.27297" lon="5.10486">
        <ele>293</ele>
        <time>2020-07-11T05:12:05.582Z</time>
      </trkpt>
      <trkpt lat="44.27293" lon="5.1048">
        <ele>294</ele>
        <time>2020-07-11T05:12:06.583Z</time>
      </trkpt>
      <trkpt lat="44.27288" lon="5.10475">
        <ele>294</ele>
        <time>2020-07-11T05:12:07.582Z</time>
      </trkpt>
      <trkpt lat="44.27284" lon="5.1047">
        <ele>294</ele>
        <time>2020-07-11T05:12:08.583Z</time>
      </trkpt>
      <trkpt lat="44.27279" lon="5.10465">
        <ele>294</ele>
        <time>2020-07-11T05:12:09.582Z</time>
      </trkpt>
      <trkpt lat="44.27274" lon="5.1046">
        <ele>295</ele>
        <time>2020-07-11T05:12:10.582Z</time>
      </trkpt>
      <trkpt lat="44.27268" lon="5.10455">
        <ele>295</ele>
        <time>2020-07-11T05:12:11.582Z</time>
      </trkpt>
      <trkpt lat="44.27263" lon="5.1045">
        <ele>295</ele>
        <time>2020-07-11T05:12:12.583Z</time>
      </trkpt>
      <trkpt lat="44.27257" lon="5.10444">
        <ele>295</ele>
        <time>2020-07-11T05:12:13.582Z</time>
      </trkpt>
      <trkpt lat="44.27251" lon="5.10439">
        <ele>295</ele>
        <time>2020-07-11T05:12:14.582Z</time>
      </trkpt>
      <trkpt lat="44.27245" lon="5.10434">
        <ele>295</ele>
        <time>2020-07-11T05:12:15.582Z</time>
      </trkpt>
      <trkpt lat="44.27238" lon="5.10429">
        <ele>295</ele>
        <time>2020-07-11T05:12:16.582Z</time>
      </trkpt>
      <trkpt lat="44.27231" lon="5.10424">
        <ele>295</ele>
        <time>2020-07-11T05:12:17.582Z</time>
      </trkpt>
      <trkpt lat="44.27225" lon="5.10419">
        <ele>295</ele>
        <time>2020-07-11T05:12:18.583Z</time>
      </trkpt>
      <trkpt lat="44.27218" lon="5.10415">
        <ele>295</ele>
        <time>2020-07-11T05:12:19.582Z</time>
      </trkpt>
      <trkpt lat="44.27212" lon="5.10411">
        <ele>295</ele>
        <time>2020-07-11T05:12:20.583Z</time>
      </trkpt>
      <trkpt lat="44.27206" lon="5.10407">
        <ele>295</ele>
        <time>2020-07-11T05:12:21.583Z</time>
      </trkpt>
      <trkpt lat="44.27199" lon="5.10403">
        <ele>295</ele>
        <time>2020-07-11T05:12:22.583Z</time>
      </trkpt>
      <trkpt lat="44.27192" lon="5.104">
        <ele>295</ele>
        <time>2020-07-11T05:12:23.583Z</time>
      </trkpt>
      <trkpt lat="44.27185" lon="5.10397">
        <ele>295</ele>
        <time>2020-07-11T05:12:24.583Z</time>
      </trkpt>
      <trkpt lat="44.27178" lon="5.10394">
        <ele>294</ele>
        <time>2020-07-11T05:12:25.583Z</time>
      </trkpt>
      <trkpt lat="44.2717" lon="5.10392">
        <ele>294</ele>
        <time>2020-07-11T05:12:26.583Z</time>
      </trkpt>
      <trkpt lat="44.27162" lon="5.10389">
        <ele>294</ele>
        <time>2020-07-11T05:12:27.582Z</time>
      </trkpt>
      <trkpt lat="44.27155" lon="5.10387">
        <ele>294</ele>
        <time>2020-07-11T05:12:28.583Z</time>
      </trkpt>
      <trkpt lat="44.27147" lon="5.10385">
        <ele>294</ele>
        <time>2020-07-11T05:12:29.583Z</time>
      </trkpt>
      <trkpt lat="44.27139" lon="5.10382">
        <ele>295</ele>
        <time>2020-07-11T05:12:30.582Z</time>
      </trkpt>
      <trkpt lat="44.27132" lon="5.1038">
        <ele>295</ele>
        <time>2020-07-11T05:12:31.583Z</time>
      </trkpt>
      <trkpt lat="44.27123" lon="5.10377">
        <ele>295</ele>
        <time>2020-07-11T05:12:32.583Z</time>
      </trkpt>
      <trkpt lat="44.27115" lon="5.10374">
        <ele>295</ele>
        <time>2020-07-11T05:12:33.583Z</time>
      </trkpt>
      <trkpt lat="44.27107" lon="5.10371">
        <ele>295</ele>
        <time>2020-07-11T05:12:34.583Z</time>
      </trkpt>
      <trkpt lat="44.27099" lon="5.10368">
        <ele>295</ele>
        <time>2020-07-11T05:12:35.583Z</time>
      </trkpt>
      <trkpt lat="44.27091" lon="5.10365">
        <ele>294</ele>
        <time>2020-07-11T05:12:36.583Z</time>
      </trkpt>
      <trkpt lat="44.27084" lon="5.10362">
        <ele>294</ele>
        <time>2020-07-11T05:12:37.582Z</time>
      </trkpt>
      <trkpt lat="44.27076" lon="5.10359">
        <ele>294</ele>
        <time>2020-07-11T05:12:38.583Z</time>
      </trkpt>
      <trkpt lat="44.27068" lon="5.10356">
        <ele>293</ele>
        <time>2020-07-11T05:12:39.583Z</time>
      </trkpt>
      <trkpt lat="44.27059" lon="5.10353">
        <ele>293</ele>
        <time>2020-07-11T05:12:40.582Z</time>
      </trkpt>
      <trkpt lat="44.27051" lon="5.1035">
        <ele>293</ele>
        <time>2020-07-11T05:12:41.583Z</time>
      </trkpt>
      <trkpt lat="44.27043" lon="5.10347">
        <ele>292</ele>
        <time>2020-07-11T05:12:42.583Z</time>
      </trkpt>
      <trkpt lat="44.27035" lon="5.10344">
        <ele>292</ele>
        <time>2020-07-11T05:12:43.583Z</time>
      </trkpt>
      <trkpt lat="44.27027" lon="5.1034">
        <ele>292</ele>
        <time>2020-07-11T05:12:44.583Z</time>
      </trkpt>
      <trkpt lat="44.27019" lon="5.10337">
        <ele>292</ele>
        <time>2020-07-11T05:12:45.583Z</time>
      </trkpt>
      <trkpt lat="44.2701" lon="5.10334">
        <ele>292</ele>
        <time>2020-07-11T05:12:46.583Z</time>
      </trkpt>
      <trkpt lat="44.27002" lon="5.10332">
        <ele>292</ele>
        <time>2020-07-11T05:12:47.583Z</time>
      </trkpt>
      <trkpt lat="44.26994" lon="5.10329">
        <ele>292</ele>
        <time>2020-07-11T05:12:48.582Z</time>
      </trkpt>
      <trkpt lat="44.26986" lon="5.10326">
        <ele>292</ele>
        <time>2020-07-11T05:12:49.583Z</time>
      </trkpt>
      <trkpt lat="44.26977" lon="5.10323">
        <ele>292</ele>
        <time>2020-07-11T05:12:50.583Z</time>
      </trkpt>
      <trkpt lat="44.26969" lon="5.10321">
        <ele>292</ele>
        <time>2020-07-11T05:12:51.583Z</time>
      </trkpt>
      <trkpt lat="44.2696" lon="5.10318">
        <ele>292</ele>
        <time>2020-07-11T05:12:52.583Z</time>
      </trkpt>
      <trkpt lat="44.26952" lon="5.10316">
        <ele>291</ele>
        <time>2020-07-11T05:12:53.582Z</time>
      </trkpt>
      <trkpt lat="44.26943" lon="5.10315">
        <ele>291</ele>
        <time>2020-07-11T05:12:54.583Z</time>
      </trkpt>
      <trkpt lat="44.26935" lon="5.10315">
        <ele>291</ele>
        <time>2020-07-11T05:12:55.583Z</time>
      </trkpt>
      <trkpt lat="44.26926" lon="5.10315">
        <ele>291</ele>
        <time>2020-07-11T05:12:56.583Z</time>
      </trkpt>
      <trkpt lat="44.26917" lon="5.10315">
        <ele>291</ele>
        <time>2020-07-11T05:12:57.582Z</time>
      </trkpt>
      <trkpt lat="44.26909" lon="5.10316">
        <ele>291</ele>
        <time>2020-07-11T05:12:58.583Z</time>
      </trkpt>
      <trkpt lat="44.269" lon="5.10316">
        <ele>290</ele>
        <time>2020-07-11T05:12:59.582Z</time>
      </trkpt>
      <trkpt lat="44.26891" lon="5.10317">
        <ele>290</ele>
        <time>2020-07-11T05:13:00.583Z</time>
      </trkpt>
      <trkpt lat="44.26882" lon="5.10318">
        <ele>290</ele>
        <time>2020-07-11T05:13:01.583Z</time>
      </trkpt>
      <trkpt lat="44.26873" lon="5.10319">
        <ele>289</ele>
        <time>2020-07-11T05:13:02.583Z</time>
      </trkpt>
      <trkpt lat="44.26864" lon="5.1032">
        <ele>290</ele>
        <time>2020-07-11T05:13:03.582Z</time>
      </trkpt>
      <trkpt lat="44.26855" lon="5.10321">
        <ele>290</ele>
        <time>2020-07-11T05:13:04.583Z</time>
      </trkpt>
      <trkpt lat="44.26846" lon="5.10322">
        <ele>290</ele>
        <time>2020-07-11T05:13:05.583Z</time>
      </trkpt>
      <trkpt lat="44.26838" lon="5.10323">
        <ele>289</ele>
        <time>2020-07-11T05:13:06.583Z</time>
      </trkpt>
      <trkpt lat="44.26829" lon="5.10324">
        <ele>289</ele>
        <time>2020-07-11T05:13:07.583Z</time>
      </trkpt>
      <trkpt lat="44.2682" lon="5.10324">
        <ele>290</ele>
        <time>2020-07-11T05:13:08.582Z</time>
      </trkpt>
      <trkpt lat="44.26811" lon="5.10326">
        <ele>290</ele>
        <time>2020-07-11T05:13:09.582Z</time>
      </trkpt>
      <trkpt lat="44.26803" lon="5.10326">
        <ele>290</ele>
        <time>2020-07-11T05:13:10.583Z</time>
      </trkpt>
      <trkpt lat="44.26794" lon="5.10327">
        <ele>289</ele>
        <time>2020-07-11T05:13:11.582Z</time>
      </trkpt>
      <trkpt lat="44.26785" lon="5.10328">
        <ele>289</ele>
        <time>2020-07-11T05:13:12.583Z</time>
      </trkpt>
      <trkpt lat="44.26776" lon="5.10329">
        <ele>289</ele>
        <time>2020-07-11T05:13:13.583Z</time>
      </trkpt>
      <trkpt lat="44.26768" lon="5.1033">
        <ele>289</ele>
        <time>2020-07-11T05:13:14.583Z</time>
      </trkpt>
      <trkpt lat="44.26759" lon="5.10331">
        <ele>289</ele>
        <time>2020-07-11T05:13:15.583Z</time>
      </trkpt>
      <trkpt lat="44.26751" lon="5.10331">
        <ele>288</ele>
        <time>2020-07-11T05:13:16.583Z</time>
      </trkpt>
      <trkpt lat="44.26742" lon="5.10332">
        <ele>288</ele>
        <time>2020-07-11T05:13:17.583Z</time>
      </trkpt>
      <trkpt lat="44.26734" lon="5.10333">
        <ele>288</ele>
        <time>2020-07-11T05:13:18.583Z</time>
      </trkpt>
      <trkpt lat="44.26725" lon="5.10334">
        <ele>288</ele>
        <time>2020-07-11T05:13:19.583Z</time>
      </trkpt>
      <trkpt lat="44.26717" lon="5.10335">
        <ele>288</ele>
        <time>2020-07-11T05:13:20.583Z</time>
      </trkpt>
      <trkpt lat="44.26709" lon="5.10336">
        <ele>288</ele>
        <time>2020-07-11T05:13:21.583Z</time>
      </trkpt>
      <trkpt lat="44.26701" lon="5.10336">
        <ele>288</ele>
        <time>2020-07-11T05:13:22.583Z</time>
      </trkpt>
      <trkpt lat="44.26693" lon="5.10337">
        <ele>288</ele>
        <time>2020-07-11T05:13:23.582Z</time>
      </trkpt>
      <trkpt lat="44.26685" lon="5.10338">
        <ele>287</ele>
        <time>2020-07-11T05:13:24.582Z</time>
      </trkpt>
      <trkpt lat="44.26677" lon="5.10339">
        <ele>287</ele>
        <time>2020-07-11T05:13:25.583Z</time>
      </trkpt>
      <trkpt lat="44.26669" lon="5.1034">
        <ele>287</ele>
        <time>2020-07-11T05:13:26.582Z</time>
      </trkpt>
      <trkpt lat="44.26661" lon="5.10341">
        <ele>287</ele>
        <time>2020-07-11T05:13:27.582Z</time>
      </trkpt>
      <trkpt lat="44.26653" lon="5.10342">
        <ele>286</ele>
        <time>2020-07-11T05:13:28.582Z</time>
      </trkpt>
      <trkpt lat="44.26644" lon="5.10342">
        <ele>287</ele>
        <time>2020-07-11T05:13:29.583Z</time>
      </trkpt>
      <trkpt lat="44.26636" lon="5.10343">
        <ele>287</ele>
        <time>2020-07-11T05:13:30.582Z</time>
      </trkpt>
      <trkpt lat="44.26628" lon="5.10344">
        <ele>287</ele>
        <time>2020-07-11T05:13:31.583Z</time>
      </trkpt>
      <trkpt lat="44.2662" lon="5.10345">
        <ele>287</ele>
        <time>2020-07-11T05:13:32.583Z</time>
      </trkpt>
      <trkpt lat="44.26612" lon="5.10345">
        <ele>287</ele>
        <time>2020-07-11T05:13:33.583Z</time>
      </trkpt>
      <trkpt lat="44.26605" lon="5.10346">
        <ele>286</ele>
        <time>2020-07-11T05:13:34.583Z</time>
      </trkpt>
      <trkpt lat="44.26597" lon="5.10347">
        <ele>286</ele>
        <time>2020-07-11T05:13:35.583Z</time>
      </trkpt>
      <trkpt lat="44.26589" lon="5.10348">
        <ele>286</ele>
        <time>2020-07-11T05:13:36.582Z</time>
      </trkpt>
      <trkpt lat="44.26581" lon="5.10348">
        <ele>286</ele>
        <time>2020-07-11T05:13:37.583Z</time>
      </trkpt>
      <trkpt lat="44.26573" lon="5.10349">
        <ele>286</ele>
        <time>2020-07-11T05:13:38.583Z</time>
      </trkpt>
      <trkpt lat="44.26565" lon="5.1035">
        <ele>286</ele>
        <time>2020-07-11T05:13:39.582Z</time>
      </trkpt>
      <trkpt lat="44.26557" lon="5.1035">
        <ele>286</ele>
        <time>2020-07-11T05:13:40.583Z</time>
      </trkpt>
      <trkpt lat="44.26549" lon="5.10349">
        <ele>286</ele>
        <time>2020-07-11T05:13:41.583Z</time>
      </trkpt>
      <trkpt lat="44.26541" lon="5.10348">
        <ele>286</ele>
        <time>2020-07-11T05:13:42.583Z</time>
      </trkpt>
      <trkpt lat="44.26533" lon="5.10346">
        <ele>286</ele>
        <time>2020-07-11T05:13:43.583Z</time>
      </trkpt>
      <trkpt lat="44.26525" lon="5.10343">
        <ele>286</ele>
        <time>2020-07-11T05:13:44.583Z</time>
      </trkpt>
      <trkpt lat="44.26517" lon="5.1034">
        <ele>286</ele>
        <time>2020-07-11T05:13:45.583Z</time>
      </trkpt>
      <trkpt lat="44.26509" lon="5.10336">
        <ele>286</ele>
        <time>2020-07-11T05:13:46.583Z</time>
      </trkpt>
      <trkpt lat="44.26501" lon="5.10331">
        <ele>286</ele>
        <time>2020-07-11T05:13:47.583Z</time>
      </trkpt>
      <trkpt lat="44.26494" lon="5.10326">
        <ele>286</ele>
        <time>2020-07-11T05:13:48.582Z</time>
      </trkpt>
      <trkpt lat="44.26487" lon="5.10321">
        <ele>286</ele>
        <time>2020-07-11T05:13:49.582Z</time>
      </trkpt>
      <trkpt lat="44.2648" lon="5.10315">
        <ele>286</ele>
        <time>2020-07-11T05:13:50.583Z</time>
      </trkpt>
      <trkpt lat="44.26473" lon="5.10308">
        <ele>286</ele>
        <time>2020-07-11T05:13:51.583Z</time>
      </trkpt>
      <trkpt lat="44.26467" lon="5.10301">
        <ele>286</ele>
        <time>2020-07-11T05:13:52.583Z</time>
      </trkpt>
      <trkpt lat="44.2646" lon="5.10294">
        <ele>286</ele>
        <time>2020-07-11T05:13:53.583Z</time>
      </trkpt>
      <trkpt lat="44.26454" lon="5.10287">
        <ele>286</ele>
        <time>2020-07-11T05:13:54.583Z</time>
      </trkpt>
      <trkpt lat="44.26448" lon="5.10281">
        <ele>286</ele>
        <time>2020-07-11T05:13:55.583Z</time>
      </trkpt>
      <trkpt lat="44.26441" lon="5.10274">
        <ele>285</ele>
        <time>2020-07-11T05:13:56.583Z</time>
      </trkpt>
      <trkpt lat="44.26435" lon="5.10267">
        <ele>285</ele>
        <time>2020-07-11T05:13:57.583Z</time>
      </trkpt>
      <trkpt lat="44.26429" lon="5.1026">
        <ele>285</ele>
        <time>2020-07-11T05:13:58.582Z</time>
      </trkpt>
      <trkpt lat="44.26423" lon="5.10253">
        <ele>285</ele>
        <time>2020-07-11T05:13:59.583Z</time>
      </trkpt>
      <trkpt lat="44.26417" lon="5.10246">
        <ele>285</ele>
        <time>2020-07-11T05:14:00.583Z</time>
      </trkpt>
      <trkpt lat="44.26411" lon="5.1024">
        <ele>286</ele>
        <time>2020-07-11T05:14:01.582Z</time>
      </trkpt>
      <trkpt lat="44.26404" lon="5.10234">
        <ele>286</ele>
        <time>2020-07-11T05:14:02.582Z</time>
      </trkpt>
      <trkpt lat="44.26398" lon="5.10228">
        <ele>286</ele>
        <time>2020-07-11T05:14:03.583Z</time>
      </trkpt>
      <trkpt lat="44.26391" lon="5.10224">
        <ele>287</ele>
        <time>2020-07-11T05:14:04.583Z</time>
      </trkpt>
      <trkpt lat="44.26384" lon="5.1022">
        <ele>287</ele>
        <time>2020-07-11T05:14:05.583Z</time>
      </trkpt>
      <trkpt lat="44.26377" lon="5.10216">
        <ele>287</ele>
        <time>2020-07-11T05:14:06.583Z</time>
      </trkpt>
      <trkpt lat="44.2637" lon="5.10213">
        <ele>287</ele>
        <time>2020-07-11T05:14:07.582Z</time>
      </trkpt>
      <trkpt lat="44.26362" lon="5.1021">
        <ele>287</ele>
        <time>2020-07-11T05:14:08.582Z</time>
      </trkpt>
      <trkpt lat="44.26355" lon="5.10207">
        <ele>287</ele>
        <time>2020-07-11T05:14:09.583Z</time>
      </trkpt>
      <trkpt lat="44.26348" lon="5.10205">
        <ele>287</ele>
        <time>2020-07-11T05:14:10.582Z</time>
      </trkpt>
      <trkpt lat="44.26341" lon="5.10202">
        <ele>287</ele>
        <time>2020-07-11T05:14:11.582Z</time>
      </trkpt>
      <trkpt lat="44.26333" lon="5.10199">
        <ele>287</ele>
        <time>2020-07-11T05:14:12.583Z</time>
      </trkpt>
      <trkpt lat="44.26326" lon="5.10196">
        <ele>287</ele>
        <time>2020-07-11T05:14:13.582Z</time>
      </trkpt>
      <trkpt lat="44.26319" lon="5.10193">
        <ele>287</ele>
        <time>2020-07-11T05:14:14.583Z</time>
      </trkpt>
      <trkpt lat="44.26312" lon="5.1019">
        <ele>287</ele>
        <time>2020-07-11T05:14:15.583Z</time>
      </trkpt>
      <trkpt lat="44.26305" lon="5.10186">
        <ele>288</ele>
        <time>2020-07-11T05:14:16.583Z</time>
      </trkpt>
      <trkpt lat="44.26298" lon="5.10181">
        <ele>288</ele>
        <time>2020-07-11T05:14:17.583Z</time>
      </trkpt>
      <trkpt lat="44.26291" lon="5.10175">
        <ele>289</ele>
        <time>2020-07-11T05:14:18.582Z</time>
      </trkpt>
      <trkpt lat="44.26285" lon="5.10169">
        <ele>289</ele>
        <time>2020-07-11T05:14:19.582Z</time>
      </trkpt>
      <trkpt lat="44.26279" lon="5.10161">
        <ele>289</ele>
        <time>2020-07-11T05:14:20.583Z</time>
      </trkpt>
      <trkpt lat="44.26273" lon="5.10154">
        <ele>289</ele>
        <time>2020-07-11T05:14:21.583Z</time>
      </trkpt>
      <trkpt lat="44.26268" lon="5.10145">
        <ele>289</ele>
        <time>2020-07-11T05:14:22.583Z</time>
      </trkpt>
      <trkpt lat="44.26263" lon="5.10136">
        <ele>289</ele>
        <time>2020-07-11T05:14:23.582Z</time>
      </trkpt>
      <trkpt lat="44.26258" lon="5.10126">
        <ele>289</ele>
        <time>2020-07-11T05:14:24.582Z</time>
      </trkpt>
      <trkpt lat="44.26254" lon="5.10116">
        <ele>289</ele>
        <time>2020-07-11T05:14:25.583Z</time>
      </trkpt>
      <trkpt lat="44.2625" lon="5.10106">
        <ele>289</ele>
        <time>2020-07-11T05:14:26.582Z</time>
      </trkpt>
      <trkpt lat="44.26246" lon="5.10096">
        <ele>288</ele>
        <time>2020-07-11T05:14:27.583Z</time>
      </trkpt>
      <trkpt lat="44.26242" lon="5.10086">
        <ele>288</ele>
        <time>2020-07-11T05:14:28.583Z</time>
      </trkpt>
      <trkpt lat="44.26237" lon="5.10076">
        <ele>288</ele>
        <time>2020-07-11T05:14:29.582Z</time>
      </trkpt>
      <trkpt lat="44.26232" lon="5.10066">
        <ele>288</ele>
        <time>2020-07-11T05:14:30.582Z</time>
      </trkpt>
      <trkpt lat="44.26226" lon="5.10057">
        <ele>288</ele>
        <time>2020-07-11T05:14:31.583Z</time>
      </trkpt>
      <trkpt lat="44.2622" lon="5.10049">
        <ele>288</ele>
        <time>2020-07-11T05:14:32.583Z</time>
      </trkpt>
      <trkpt lat="44.26213" lon="5.10042">
        <ele>287</ele>
        <time>2020-07-11T05:14:33.583Z</time>
      </trkpt>
      <trkpt lat="44.26205" lon="5.10036">
        <ele>287</ele>
        <time>2020-07-11T05:14:34.583Z</time>
      </trkpt>
      <trkpt lat="44.26197" lon="5.1003">
        <ele>286</ele>
        <time>2020-07-11T05:14:35.583Z</time>
      </trkpt>
      <trkpt lat="44.26188" lon="5.10025">
        <ele>286</ele>
        <time>2020-07-11T05:14:36.583Z</time>
      </trkpt>
      <trkpt lat="44.2618" lon="5.1002">
        <ele>286</ele>
        <time>2020-07-11T05:14:37.582Z</time>
      </trkpt>
      <trkpt lat="44.26171" lon="5.10016">
        <ele>285</ele>
        <time>2020-07-11T05:14:38.582Z</time>
      </trkpt>
      <trkpt lat="44.26162" lon="5.10011">
        <ele>285</ele>
        <time>2020-07-11T05:14:39.583Z</time>
      </trkpt>
      <trkpt lat="44.26152" lon="5.10007">
        <ele>284</ele>
        <time>2020-07-11T05:14:40.583Z</time>
      </trkpt>
      <trkpt lat="44.26143" lon="5.10002">
        <ele>284</ele>
        <time>2020-07-11T05:14:41.583Z</time>
      </trkpt>
      <trkpt lat="44.26133" lon="5.09997">
        <ele>283</ele>
        <time>2020-07-11T05:14:42.583Z</time>
      </trkpt>
      <trkpt lat="44.26126" lon="5.09993">
        <ele>283</ele>
        <time>2020-07-11T05:14:43.582Z</time>
      </trkpt>
      <trkpt lat="44.26115" lon="5.09985">
        <ele>283</ele>
        <time>2020-07-11T05:14:44.583Z</time>
      </trkpt>
      <trkpt lat="44.26106" lon="5.09978">
        <ele>282</ele>
        <time>2020-07-11T05:14:45.582Z</time>
      </trkpt>
      <trkpt lat="44.26097" lon="5.0997">
        <ele>282</ele>
        <time>2020-07-11T05:14:46.582Z</time>
      </trkpt>
      <trkpt lat="44.26088" lon="5.09963">
        <ele>282</ele>
        <time>2020-07-11T05:14:47.583Z</time>
      </trkpt>
      <trkpt lat="44.26079" lon="5.09955">
        <ele>282</ele>
        <time>2020-07-11T05:14:48.583Z</time>
      </trkpt>
      <trkpt lat="44.26071" lon="5.09947">
        <ele>282</ele>
        <time>2020-07-11T05:14:49.583Z</time>
      </trkpt>
      <trkpt lat="44.26062" lon="5.09939">
        <ele>281</ele>
        <time>2020-07-11T05:14:50.583Z</time>
      </trkpt>
      <trkpt lat="44.26054" lon="5.09931">
        <ele>280</ele>
        <time>2020-07-11T05:14:51.583Z</time>
      </trkpt>
      <trkpt lat="44.26045" lon="5.09923">
        <ele>279</ele>
        <time>2020-07-11T05:14:52.583Z</time>
      </trkpt>
      <trkpt lat="44.26037" lon="5.09915">
        <ele>278</ele>
        <time>2020-07-11T05:14:53.582Z</time>
      </trkpt>
      <trkpt lat="44.26029" lon="5.09908">
        <ele>277</ele>
        <time>2020-07-11T05:14:54.583Z</time>
      </trkpt>
      <trkpt lat="44.2602" lon="5.09901">
        <ele>277</ele>
        <time>2020-07-11T05:14:55.583Z</time>
      </trkpt>
      <trkpt lat="44.26012" lon="5.09894">
        <ele>276</ele>
        <time>2020-07-11T05:14:56.582Z</time>
      </trkpt>
      <trkpt lat="44.26004" lon="5.09888">
        <ele>275</ele>
        <time>2020-07-11T05:14:57.583Z</time>
      </trkpt>
      <trkpt lat="44.25996" lon="5.09881">
        <ele>275</ele>
        <time>2020-07-11T05:14:58.583Z</time>
      </trkpt>
      <trkpt lat="44.25988" lon="5.09876">
        <ele>275</ele>
        <time>2020-07-11T05:14:59.583Z</time>
      </trkpt>
      <trkpt lat="44.25979" lon="5.0987">
        <ele>275</ele>
        <time>2020-07-11T05:15:00.582Z</time>
      </trkpt>
      <trkpt lat="44.25971" lon="5.09864">
        <ele>275</ele>
        <time>2020-07-11T05:15:01.582Z</time>
      </trkpt>
      <trkpt lat="44.25963" lon="5.09859">
        <ele>275</ele>
        <time>2020-07-11T05:15:02.582Z</time>
      </trkpt>
      <trkpt lat="44.25955" lon="5.09852">
        <ele>275</ele>
        <time>2020-07-11T05:15:03.582Z</time>
      </trkpt>
      <trkpt lat="44.25948" lon="5.09845">
        <ele>275</ele>
        <time>2020-07-11T05:15:04.583Z</time>
      </trkpt>
      <trkpt lat="44.25941" lon="5.09838">
        <ele>275</ele>
        <time>2020-07-11T05:15:05.583Z</time>
      </trkpt>
      <trkpt lat="44.25934" lon="5.09829">
        <ele>275</ele>
        <time>2020-07-11T05:15:06.583Z</time>
      </trkpt>
      <trkpt lat="44.25928" lon="5.0982">
        <ele>274</ele>
        <time>2020-07-11T05:15:07.583Z</time>
      </trkpt>
      <trkpt lat="44.25922" lon="5.0981">
        <ele>274</ele>
        <time>2020-07-11T05:15:08.583Z</time>
      </trkpt>
      <trkpt lat="44.25917" lon="5.09801">
        <ele>274</ele>
        <time>2020-07-11T05:15:09.582Z</time>
      </trkpt>
      <trkpt lat="44.25911" lon="5.09791">
        <ele>273</ele>
        <time>2020-07-11T05:15:10.583Z</time>
      </trkpt>
      <trkpt lat="44.25905" lon="5.09782">
        <ele>272</ele>
        <time>2020-07-11T05:15:11.583Z</time>
      </trkpt>
      <trkpt lat="44.25899" lon="5.09773">
        <ele>272</ele>
        <time>2020-07-11T05:15:12.583Z</time>
      </trkpt>
      <trkpt lat="44.25893" lon="5.09765">
        <ele>272</ele>
        <time>2020-07-11T05:15:13.583Z</time>
      </trkpt>
      <trkpt lat="44.25887" lon="5.09757">
        <ele>272</ele>
        <time>2020-07-11T05:15:14.583Z</time>
      </trkpt>
      <trkpt lat="44.25879" lon="5.0975">
        <ele>272</ele>
        <time>2020-07-11T05:15:15.583Z</time>
      </trkpt>
      <trkpt lat="44.25872" lon="5.09744">
        <ele>272</ele>
        <time>2020-07-11T05:15:16.583Z</time>
      </trkpt>
      <trkpt lat="44.25864" lon="5.09739">
        <ele>272</ele>
        <time>2020-07-11T05:15:17.583Z</time>
      </trkpt>
      <trkpt lat="44.25856" lon="5.09735">
        <ele>272</ele>
        <time>2020-07-11T05:15:18.583Z</time>
      </trkpt>
      <trkpt lat="44.25847" lon="5.09731">
        <ele>272</ele>
        <time>2020-07-11T05:15:19.583Z</time>
      </trkpt>
      <trkpt lat="44.25839" lon="5.09727">
        <ele>272</ele>
        <time>2020-07-11T05:15:20.583Z</time>
      </trkpt>
      <trkpt lat="44.2583" lon="5.09723">
        <ele>272</ele>
        <time>2020-07-11T05:15:21.583Z</time>
      </trkpt>
      <trkpt lat="44.25822" lon="5.0972">
        <ele>272</ele>
        <time>2020-07-11T05:15:22.583Z</time>
      </trkpt>
      <trkpt lat="44.25813" lon="5.09716">
        <ele>271</ele>
        <time>2020-07-11T05:15:23.583Z</time>
      </trkpt>
      <trkpt lat="44.25804" lon="5.09712">
        <ele>271</ele>
        <time>2020-07-11T05:15:24.582Z</time>
      </trkpt>
      <trkpt lat="44.25795" lon="5.09708">
        <ele>270</ele>
        <time>2020-07-11T05:15:25.583Z</time>
      </trkpt>
      <trkpt lat="44.25787" lon="5.09704">
        <ele>270</ele>
        <time>2020-07-11T05:15:26.583Z</time>
      </trkpt>
      <trkpt lat="44.25778" lon="5.09701">
        <ele>270</ele>
        <time>2020-07-11T05:15:27.583Z</time>
      </trkpt>
      <trkpt lat="44.25769" lon="5.09697">
        <ele>270</ele>
        <time>2020-07-11T05:15:28.583Z</time>
      </trkpt>
      <trkpt lat="44.2576" lon="5.09694">
        <ele>270</ele>
        <time>2020-07-11T05:15:29.583Z</time>
      </trkpt>
      <trkpt lat="44.25751" lon="5.0969">
        <ele>269</ele>
        <time>2020-07-11T05:15:30.583Z</time>
      </trkpt>
      <trkpt lat="44.25742" lon="5.09686">
        <ele>269</ele>
        <time>2020-07-11T05:15:31.583Z</time>
      </trkpt>
      <trkpt lat="44.25733" lon="5.09682">
        <ele>268</ele>
        <time>2020-07-11T05:15:32.583Z</time>
      </trkpt>
      <trkpt lat="44.25724" lon="5.09678">
        <ele>268</ele>
        <time>2020-07-11T05:15:33.583Z</time>
      </trkpt>
      <trkpt lat="44.25715" lon="5.09674">
        <ele>267</ele>
        <time>2020-07-11T05:15:34.583Z</time>
      </trkpt>
      <trkpt lat="44.25706" lon="5.09671">
        <ele>267</ele>
        <time>2020-07-11T05:15:35.583Z</time>
      </trkpt>
      <trkpt lat="44.25697" lon="5.09667">
        <ele>266</ele>
        <time>2020-07-11T05:15:36.583Z</time>
      </trkpt>
      <trkpt lat="44.25688" lon="5.09663">
        <ele>266</ele>
        <time>2020-07-11T05:15:37.583Z</time>
      </trkpt>
      <trkpt lat="44.25678" lon="5.09659">
        <ele>266</ele>
        <time>2020-07-11T05:15:38.583Z</time>
      </trkpt>
      <trkpt lat="44.25669" lon="5.09655">
        <ele>265</ele>
        <time>2020-07-11T05:15:39.583Z</time>
      </trkpt>
      <trkpt lat="44.2566" lon="5.09651">
        <ele>265</ele>
        <time>2020-07-11T05:15:40.583Z</time>
      </trkpt>
      <trkpt lat="44.25651" lon="5.09647">
        <ele>264</ele>
        <time>2020-07-11T05:15:41.583Z</time>
      </trkpt>
      <trkpt lat="44.25641" lon="5.09643">
        <ele>263</ele>
        <time>2020-07-11T05:15:42.582Z</time>
      </trkpt>
      <trkpt lat="44.25632" lon="5.0964">
        <ele>263</ele>
        <time>2020-07-11T05:15:43.583Z</time>
      </trkpt>
      <trkpt lat="44.25623" lon="5.09636">
        <ele>263</ele>
        <time>2020-07-11T05:15:44.583Z</time>
      </trkpt>
      <trkpt lat="44.25614" lon="5.09632">
        <ele>262</ele>
        <time>2020-07-11T05:15:45.583Z</time>
      </trkpt>
      <trkpt lat="44.25604" lon="5.09628">
        <ele>262</ele>
        <time>2020-07-11T05:15:46.582Z</time>
      </trkpt>
      <trkpt lat="44.25595" lon="5.09624">
        <ele>262</ele>
        <time>2020-07-11T05:15:47.583Z</time>
      </trkpt>
      <trkpt lat="44.25586" lon="5.09621">
        <ele>262</ele>
        <time>2020-07-11T05:15:48.582Z</time>
      </trkpt>
      <trkpt lat="44.25577" lon="5.09617">
        <ele>261</ele>
        <time>2020-07-11T05:15:49.583Z</time>
      </trkpt>
      <trkpt lat="44.25569" lon="5.09614">
        <ele>261</ele>
        <time>2020-07-11T05:15:50.583Z</time>
      </trkpt>
      <trkpt lat="44.25561" lon="5.09611">
        <ele>261</ele>
        <time>2020-07-11T05:15:51.583Z</time>
      </trkpt>
      <trkpt lat="44.25553" lon="5.09609">
        <ele>261</ele>
        <time>2020-07-11T05:15:52.583Z</time>
      </trkpt>
      <trkpt lat="44.25546" lon="5.09606">
        <ele>261</ele>
        <time>2020-07-11T05:15:53.583Z</time>
      </trkpt>
      <trkpt lat="44.2554" lon="5.09602">
        <ele>260</ele>
        <time>2020-07-11T05:15:54.583Z</time>
      </trkpt>
      <trkpt lat="44.25535" lon="5.09596">
        <ele>259</ele>
        <time>2020-07-11T05:15:55.582Z</time>
      </trkpt>
      <trkpt lat="44.2553" lon="5.0959">
        <ele>259</ele>
        <time>2020-07-11T05:15:56.583Z</time>
      </trkpt>
      <trkpt lat="44.25524" lon="5.09584">
        <ele>258</ele>
        <time>2020-07-11T05:15:57.583Z</time>
      </trkpt>
      <trkpt lat="44.25519" lon="5.09579">
        <ele>258</ele>
        <time>2020-07-11T05:15:58.583Z</time>
      </trkpt>
      <trkpt lat="44.25513" lon="5.09577">
        <ele>257</ele>
        <time>2020-07-11T05:15:59.582Z</time>
      </trkpt>
      <trkpt lat="44.25506" lon="5.09577">
        <ele>256</ele>
        <time>2020-07-11T05:16:00.582Z</time>
      </trkpt>
      <trkpt lat="44.25499" lon="5.09577">
        <ele>256</ele>
        <time>2020-07-11T05:16:01.582Z</time>
      </trkpt>
      <trkpt lat="44.25491" lon="5.09574">
        <ele>256</ele>
        <time>2020-07-11T05:16:02.583Z</time>
      </trkpt>
      <trkpt lat="44.25483" lon="5.0957">
        <ele>256</ele>
        <time>2020-07-11T05:16:03.582Z</time>
      </trkpt>
      <trkpt lat="44.25476" lon="5.09565">
        <ele>256</ele>
        <time>2020-07-11T05:16:04.583Z</time>
      </trkpt>
      <trkpt lat="44.25468" lon="5.0956">
        <ele>256</ele>
        <time>2020-07-11T05:16:05.583Z</time>
      </trkpt>
      <trkpt lat="44.2546" lon="5.09555">
        <ele>256</ele>
        <time>2020-07-11T05:16:06.582Z</time>
      </trkpt>
      <trkpt lat="44.25452" lon="5.0955">
        <ele>256</ele>
        <time>2020-07-11T05:16:07.583Z</time>
      </trkpt>
      <trkpt lat="44.25444" lon="5.09545">
        <ele>256</ele>
        <time>2020-07-11T05:16:08.583Z</time>
      </trkpt>
      <trkpt lat="44.25435" lon="5.0954">
        <ele>255</ele>
        <time>2020-07-11T05:16:09.583Z</time>
      </trkpt>
      <trkpt lat="44.25427" lon="5.09535">
        <ele>254</ele>
        <time>2020-07-11T05:16:10.582Z</time>
      </trkpt>
      <trkpt lat="44.25418" lon="5.0953">
        <ele>254</ele>
        <time>2020-07-11T05:16:11.583Z</time>
      </trkpt>
      <trkpt lat="44.25409" lon="5.09525">
        <ele>254</ele>
        <time>2020-07-11T05:16:12.583Z</time>
      </trkpt>
      <trkpt lat="44.254" lon="5.0952">
        <ele>253</ele>
        <time>2020-07-11T05:16:13.583Z</time>
      </trkpt>
      <trkpt lat="44.25391" lon="5.09515">
        <ele>253</ele>
        <time>2020-07-11T05:16:14.582Z</time>
      </trkpt>
      <trkpt lat="44.25382" lon="5.0951">
        <ele>253</ele>
        <time>2020-07-11T05:16:15.582Z</time>
      </trkpt>
      <trkpt lat="44.25373" lon="5.09506">
        <ele>253</ele>
        <time>2020-07-11T05:16:16.583Z</time>
      </trkpt>
      <trkpt lat="44.25364" lon="5.09501">
        <ele>253</ele>
        <time>2020-07-11T05:16:17.583Z</time>
      </trkpt>
      <trkpt lat="44.25354" lon="5.09496">
        <ele>253</ele>
        <time>2020-07-11T05:16:18.583Z</time>
      </trkpt>
      <trkpt lat="44.25345" lon="5.0949">
        <ele>252</ele>
        <time>2020-07-11T05:16:19.583Z</time>
      </trkpt>
      <trkpt lat="44.25336" lon="5.09485">
        <ele>252</ele>
        <time>2020-07-11T05:16:20.583Z</time>
      </trkpt>
      <trkpt lat="44.25327" lon="5.0948">
        <ele>251</ele>
        <time>2020-07-11T05:16:21.583Z</time>
      </trkpt>
      <trkpt lat="44.25317" lon="5.09475">
        <ele>251</ele>
        <time>2020-07-11T05:16:22.583Z</time>
      </trkpt>
      <trkpt lat="44.25308" lon="5.0947">
        <ele>250</ele>
        <time>2020-07-11T05:16:23.582Z</time>
      </trkpt>
      <trkpt lat="44.25299" lon="5.09465">
        <ele>250</ele>
        <time>2020-07-11T05:16:24.582Z</time>
      </trkpt>
      <trkpt lat="44.25289" lon="5.0946">
        <ele>249</ele>
        <time>2020-07-11T05:16:25.582Z</time>
      </trkpt>
      <trkpt lat="44.2528" lon="5.09456">
        <ele>249</ele>
        <time>2020-07-11T05:16:26.583Z</time>
      </trkpt>
      <trkpt lat="44.25271" lon="5.09452">
        <ele>249</ele>
        <time>2020-07-11T05:16:27.582Z</time>
      </trkpt>
      <trkpt lat="44.25262" lon="5.09448">
        <ele>249</ele>
        <time>2020-07-11T05:16:28.583Z</time>
      </trkpt>
      <trkpt lat="44.25253" lon="5.09444">
        <ele>248</ele>
        <time>2020-07-11T05:16:29.583Z</time>
      </trkpt>
      <trkpt lat="44.25245" lon="5.0944">
        <ele>247</ele>
        <time>2020-07-11T05:16:30.583Z</time>
      </trkpt>
      <trkpt lat="44.25236" lon="5.09437">
        <ele>247</ele>
        <time>2020-07-11T05:16:31.583Z</time>
      </trkpt>
      <trkpt lat="44.25227" lon="5.09433">
        <ele>246</ele>
        <time>2020-07-11T05:16:32.583Z</time>
      </trkpt>
      <trkpt lat="44.25218" lon="5.0943">
        <ele>246</ele>
        <time>2020-07-11T05:16:33.583Z</time>
      </trkpt>
      <trkpt lat="44.25209" lon="5.09426">
        <ele>245</ele>
        <time>2020-07-11T05:16:34.583Z</time>
      </trkpt>
      <trkpt lat="44.25201" lon="5.09423">
        <ele>245</ele>
        <time>2020-07-11T05:16:35.583Z</time>
      </trkpt>
      <trkpt lat="44.25192" lon="5.09419">
        <ele>245</ele>
        <time>2020-07-11T05:16:36.583Z</time>
      </trkpt>
      <trkpt lat="44.25183" lon="5.09416">
        <ele>245</ele>
        <time>2020-07-11T05:16:37.583Z</time>
      </trkpt>
      <trkpt lat="44.25174" lon="5.09413">
        <ele>245</ele>
        <time>2020-07-11T05:16:38.582Z</time>
      </trkpt>
      <trkpt lat="44.25166" lon="5.09409">
        <ele>245</ele>
        <time>2020-07-11T05:16:39.583Z</time>
      </trkpt>
      <trkpt lat="44.25157" lon="5.09406">
        <ele>245</ele>
        <time>2020-07-11T05:16:40.583Z</time>
      </trkpt>
      <trkpt lat="44.25148" lon="5.09402">
        <ele>245</ele>
        <time>2020-07-11T05:16:41.583Z</time>
      </trkpt>
      <trkpt lat="44.2514" lon="5.09399">
        <ele>246</ele>
        <time>2020-07-11T05:16:42.583Z</time>
      </trkpt>
      <trkpt lat="44.25131" lon="5.09396">
        <ele>245</ele>
        <time>2020-07-11T05:16:43.583Z</time>
      </trkpt>
      <trkpt lat="44.25122" lon="5.09393">
        <ele>245</ele>
        <time>2020-07-11T05:16:44.582Z</time>
      </trkpt>
      <trkpt lat="44.25114" lon="5.09389">
        <ele>245</ele>
        <time>2020-07-11T05:16:45.583Z</time>
      </trkpt>
      <trkpt lat="44.25105" lon="5.09386">
        <ele>245</ele>
        <time>2020-07-11T05:16:46.583Z</time>
      </trkpt>
      <trkpt lat="44.25097" lon="5.09383">
        <ele>245</ele>
        <time>2020-07-11T05:16:47.583Z</time>
      </trkpt>
      <trkpt lat="44.25088" lon="5.09379">
        <ele>245</ele>
        <time>2020-07-11T05:16:48.583Z</time>
      </trkpt>
      <trkpt lat="44.2508" lon="5.09376">
        <ele>245</ele>
        <time>2020-07-11T05:16:49.582Z</time>
      </trkpt>
      <trkpt lat="44.25072" lon="5.09373">
        <ele>245</ele>
        <time>2020-07-11T05:16:50.582Z</time>
      </trkpt>
      <trkpt lat="44.25063" lon="5.09369">
        <ele>245</ele>
        <time>2020-07-11T05:16:51.582Z</time>
      </trkpt>
      <trkpt lat="44.25055" lon="5.09366">
        <ele>245</ele>
        <time>2020-07-11T05:16:52.582Z</time>
      </trkpt>
      <trkpt lat="44.25047" lon="5.09363">
        <ele>245</ele>
        <time>2020-07-11T05:16:53.583Z</time>
      </trkpt>
      <trkpt lat="44.25038" lon="5.09359">
        <ele>244</ele>
        <time>2020-07-11T05:16:54.583Z</time>
      </trkpt>
      <trkpt lat="44.2503" lon="5.09356">
        <ele>244</ele>
        <time>2020-07-11T05:16:55.582Z</time>
      </trkpt>
      <trkpt lat="44.25022" lon="5.09352">
        <ele>244</ele>
        <time>2020-07-11T05:16:56.583Z</time>
      </trkpt>
      <trkpt lat="44.25013" lon="5.09349">
        <ele>244</ele>
        <time>2020-07-11T05:16:57.583Z</time>
      </trkpt>
      <trkpt lat="44.25005" lon="5.09346">
        <ele>244</ele>
        <time>2020-07-11T05:16:58.583Z</time>
      </trkpt>
      <trkpt lat="44.24997" lon="5.09342">
        <ele>244</ele>
        <time>2020-07-11T05:16:59.583Z</time>
      </trkpt>
      <trkpt lat="44.24988" lon="5.09339">
        <ele>244</ele>
        <time>2020-07-11T05:17:00.583Z</time>
      </trkpt>
      <trkpt lat="44.2498" lon="5.09336">
        <ele>244</ele>
        <time>2020-07-11T05:17:01.582Z</time>
      </trkpt>
      <trkpt lat="44.24971" lon="5.09332">
        <ele>244</ele>
        <time>2020-07-11T05:17:02.583Z</time>
      </trkpt>
      <trkpt lat="44.24963" lon="5.09329">
        <ele>244</ele>
        <time>2020-07-11T05:17:03.582Z</time>
      </trkpt>
      <trkpt lat="44.24954" lon="5.09325">
        <ele>244</ele>
        <time>2020-07-11T05:17:04.583Z</time>
      </trkpt>
      <trkpt lat="44.24946" lon="5.09322">
        <ele>243</ele>
        <time>2020-07-11T05:17:05.583Z</time>
      </trkpt>
      <trkpt lat="44.24937" lon="5.09318">
        <ele>243</ele>
        <time>2020-07-11T05:17:06.583Z</time>
      </trkpt>
      <trkpt lat="44.24929" lon="5.09315">
        <ele>243</ele>
        <time>2020-07-11T05:17:07.583Z</time>
      </trkpt>
      <trkpt lat="44.2492" lon="5.09312">
        <ele>243</ele>
        <time>2020-07-11T05:17:08.582Z</time>
      </trkpt>
      <trkpt lat="44.24911" lon="5.09308">
        <ele>243</ele>
        <time>2020-07-11T05:17:09.583Z</time>
      </trkpt>
      <trkpt lat="44.24903" lon="5.09304">
        <ele>243</ele>
        <time>2020-07-11T05:17:10.583Z</time>
      </trkpt>
      <trkpt lat="44.24894" lon="5.09301">
        <ele>242</ele>
        <time>2020-07-11T05:17:11.582Z</time>
      </trkpt>
      <trkpt lat="44.24885" lon="5.09298">
        <ele>242</ele>
        <time>2020-07-11T05:17:12.583Z</time>
      </trkpt>
      <trkpt lat="44.24876" lon="5.09295">
        <ele>242</ele>
        <time>2020-07-11T05:17:13.583Z</time>
      </trkpt>
      <trkpt lat="44.24868" lon="5.09291">
        <ele>242</ele>
        <time>2020-07-11T05:17:14.583Z</time>
      </trkpt>
      <trkpt lat="44.24859" lon="5.09288">
        <ele>242</ele>
        <time>2020-07-11T05:17:15.583Z</time>
      </trkpt>
      <trkpt lat="44.2485" lon="5.09284">
        <ele>242</ele>
        <time>2020-07-11T05:17:16.583Z</time>
      </trkpt>
      <trkpt lat="44.24841" lon="5.09281">
        <ele>242</ele>
        <time>2020-07-11T05:17:17.583Z</time>
      </trkpt>
      <trkpt lat="44.24832" lon="5.09278">
        <ele>242</ele>
        <time>2020-07-11T05:17:18.583Z</time>
      </trkpt>
      <trkpt lat="44.24824" lon="5.09274">
        <ele>241</ele>
        <time>2020-07-11T05:17:19.583Z</time>
      </trkpt>
      <trkpt lat="44.24815" lon="5.09271">
        <ele>241</ele>
        <time>2020-07-11T05:17:20.583Z</time>
      </trkpt>
      <trkpt lat="44.24807" lon="5.09267">
        <ele>240</ele>
        <time>2020-07-11T05:17:21.583Z</time>
      </trkpt>
      <trkpt lat="44.24798" lon="5.09264">
        <ele>240</ele>
        <time>2020-07-11T05:17:22.582Z</time>
      </trkpt>
      <trkpt lat="44.2479" lon="5.09261">
        <ele>239</ele>
        <time>2020-07-11T05:17:23.583Z</time>
      </trkpt>
      <trkpt lat="44.24782" lon="5.09258">
        <ele>240</ele>
        <time>2020-07-11T05:17:24.583Z</time>
      </trkpt>
      <trkpt lat="44.24774" lon="5.09255">
        <ele>239</ele>
        <time>2020-07-11T05:17:25.582Z</time>
      </trkpt>
      <trkpt lat="44.24767" lon="5.09252">
        <ele>239</ele>
        <time>2020-07-11T05:17:26.583Z</time>
      </trkpt>
      <trkpt lat="44.2476" lon="5.09248">
        <ele>239</ele>
        <time>2020-07-11T05:17:27.582Z</time>
      </trkpt>
      <trkpt lat="44.24755" lon="5.09243">
        <ele>239</ele>
        <time>2020-07-11T05:17:28.582Z</time>
      </trkpt>
      <trkpt lat="44.24749" lon="5.09238">
        <ele>239</ele>
        <time>2020-07-11T05:17:29.583Z</time>
      </trkpt>
      <trkpt lat="44.24743" lon="5.09233">
        <ele>238</ele>
        <time>2020-07-11T05:17:30.583Z</time>
      </trkpt>
      <trkpt lat="44.24736" lon="5.0923">
        <ele>238</ele>
        <time>2020-07-11T05:17:31.583Z</time>
      </trkpt>
      <trkpt lat="44.24729" lon="5.0923">
        <ele>238</ele>
        <time>2020-07-11T05:17:32.583Z</time>
      </trkpt>
      <trkpt lat="44.24721" lon="5.09229">
        <ele>239</ele>
        <time>2020-07-11T05:17:33.583Z</time>
      </trkpt>
      <trkpt lat="44.24713" lon="5.09228">
        <ele>239</ele>
        <time>2020-07-11T05:17:34.583Z</time>
      </trkpt>
      <trkpt lat="44.24705" lon="5.09225">
        <ele>239</ele>
        <time>2020-07-11T05:17:35.583Z</time>
      </trkpt>
      <trkpt lat="44.24697" lon="5.09221">
        <ele>239</ele>
        <time>2020-07-11T05:17:36.583Z</time>
      </trkpt>
      <trkpt lat="44.2469" lon="5.09217">
        <ele>238</ele>
        <time>2020-07-11T05:17:37.582Z</time>
      </trkpt>
      <trkpt lat="44.24682" lon="5.09212">
        <ele>238</ele>
        <time>2020-07-11T05:17:38.583Z</time>
      </trkpt>
      <trkpt lat="44.24674" lon="5.09208">
        <ele>237</ele>
        <time>2020-07-11T05:17:39.582Z</time>
      </trkpt>
      <trkpt lat="44.24667" lon="5.09203">
        <ele>237</ele>
        <time>2020-07-11T05:17:40.582Z</time>
      </trkpt>
      <trkpt lat="44.24659" lon="5.09198">
        <ele>236</ele>
        <time>2020-07-11T05:17:41.583Z</time>
      </trkpt>
      <trkpt lat="44.24652" lon="5.09194">
        <ele>236</ele>
        <time>2020-07-11T05:17:42.582Z</time>
      </trkpt>
      <trkpt lat="44.24644" lon="5.09189">
        <ele>235</ele>
        <time>2020-07-11T05:17:43.583Z</time>
      </trkpt>
      <trkpt lat="44.24637" lon="5.09184">
        <ele>235</ele>
        <time>2020-07-11T05:17:44.583Z</time>
      </trkpt>
      <trkpt lat="44.24629" lon="5.09179">
        <ele>236</ele>
        <time>2020-07-11T05:17:45.583Z</time>
      </trkpt>
      <trkpt lat="44.24621" lon="5.09174">
        <ele>236</ele>
        <time>2020-07-11T05:17:46.583Z</time>
      </trkpt>
      <trkpt lat="44.24613" lon="5.09169">
        <ele>236</ele>
        <time>2020-07-11T05:17:47.583Z</time>
      </trkpt>
      <trkpt lat="44.24605" lon="5.09164">
        <ele>237</ele>
        <time>2020-07-11T05:17:48.582Z</time>
      </trkpt>
      <trkpt lat="44.24597" lon="5.09159">
        <ele>237</ele>
        <time>2020-07-11T05:17:49.583Z</time>
      </trkpt>
      <trkpt lat="44.24589" lon="5.09155">
        <ele>236</ele>
        <time>2020-07-11T05:17:50.583Z</time>
      </trkpt>
      <trkpt lat="44.24581" lon="5.09151">
        <ele>235</ele>
        <time>2020-07-11T05:17:51.583Z</time>
      </trkpt>
      <trkpt lat="44.24573" lon="5.09147">
        <ele>235</ele>
        <time>2020-07-11T05:17:52.582Z</time>
      </trkpt>
      <trkpt lat="44.24565" lon="5.09143">
        <ele>235</ele>
        <time>2020-07-11T05:17:53.583Z</time>
      </trkpt>
      <trkpt lat="44.24557" lon="5.09139">
        <ele>234</ele>
        <time>2020-07-11T05:17:54.582Z</time>
      </trkpt>
      <trkpt lat="44.24549" lon="5.09134">
        <ele>234</ele>
        <time>2020-07-11T05:17:55.582Z</time>
      </trkpt>
      <trkpt lat="44.24541" lon="5.09128">
        <ele>234</ele>
        <time>2020-07-11T05:17:56.583Z</time>
      </trkpt>
      <trkpt lat="44.24533" lon="5.09122">
        <ele>234</ele>
        <time>2020-07-11T05:17:57.583Z</time>
      </trkpt>
      <trkpt lat="44.24527" lon="5.09115">
        <ele>235</ele>
        <time>2020-07-11T05:17:58.583Z</time>
      </trkpt>
      <trkpt lat="44.2452" lon="5.09107">
        <ele>235</ele>
        <time>2020-07-11T05:17:59.582Z</time>
      </trkpt>
      <trkpt lat="44.24514" lon="5.09098">
        <ele>235</ele>
        <time>2020-07-11T05:18:00.583Z</time>
      </trkpt>
      <trkpt lat="44.24508" lon="5.09088">
        <ele>235</ele>
        <time>2020-07-11T05:18:01.583Z</time>
      </trkpt>
      <trkpt lat="44.24504" lon="5.09078">
        <ele>235</ele>
        <time>2020-07-11T05:18:02.583Z</time>
      </trkpt>
      <trkpt lat="44.245" lon="5.09068">
        <ele>235</ele>
        <time>2020-07-11T05:18:03.582Z</time>
      </trkpt>
      <trkpt lat="44.24496" lon="5.09057">
        <ele>234</ele>
        <time>2020-07-11T05:18:04.583Z</time>
      </trkpt>
      <trkpt lat="44.24492" lon="5.09045">
        <ele>234</ele>
        <time>2020-07-11T05:18:05.582Z</time>
      </trkpt>
      <trkpt lat="44.24489" lon="5.09033">
        <ele>234</ele>
        <time>2020-07-11T05:18:06.583Z</time>
      </trkpt>
      <trkpt lat="44.24486" lon="5.09022">
        <ele>233</ele>
        <time>2020-07-11T05:18:07.583Z</time>
      </trkpt>
      <trkpt lat="44.24482" lon="5.09011">
        <ele>233</ele>
        <time>2020-07-11T05:18:08.582Z</time>
      </trkpt>
      <trkpt lat="44.24478" lon="5.09">
        <ele>233</ele>
        <time>2020-07-11T05:18:09.583Z</time>
      </trkpt>
      <trkpt lat="44.24475" lon="5.08989">
        <ele>233</ele>
        <time>2020-07-11T05:18:10.582Z</time>
      </trkpt>
      <trkpt lat="44.24472" lon="5.08978">
        <ele>232</ele>
        <time>2020-07-11T05:18:11.583Z</time>
      </trkpt>
      <trkpt lat="44.24468" lon="5.08967">
        <ele>232</ele>
        <time>2020-07-11T05:18:12.583Z</time>
      </trkpt>
      <trkpt lat="44.24465" lon="5.08956">
        <ele>231</ele>
        <time>2020-07-11T05:18:13.583Z</time>
      </trkpt>
      <trkpt lat="44.24462" lon="5.08945">
        <ele>231</ele>
        <time>2020-07-11T05:18:14.583Z</time>
      </trkpt>
      <trkpt lat="44.24458" lon="5.08936">
        <ele>231</ele>
        <time>2020-07-11T05:18:15.583Z</time>
      </trkpt>
      <trkpt lat="44.24454" lon="5.0893">
        <ele>231</ele>
        <time>2020-07-11T05:18:16.583Z</time>
      </trkpt>
      <trkpt lat="44.24449" lon="5.08925">
        <ele>231</ele>
        <time>2020-07-11T05:18:17.583Z</time>
      </trkpt>
      <trkpt lat="44.24444" lon="5.08923">
        <ele>231</ele>
        <time>2020-07-11T05:18:18.583Z</time>
      </trkpt>
      <trkpt lat="44.24437" lon="5.08923">
        <ele>231</ele>
        <time>2020-07-11T05:18:19.583Z</time>
      </trkpt>
      <trkpt lat="44.2443" lon="5.08922">
        <ele>231</ele>
        <time>2020-07-11T05:18:20.583Z</time>
      </trkpt>
      <trkpt lat="44.24423" lon="5.08922">
        <ele>231</ele>
        <time>2020-07-11T05:18:21.583Z</time>
      </trkpt>
      <trkpt lat="44.24415" lon="5.08921">
        <ele>230</ele>
        <time>2020-07-11T05:18:22.583Z</time>
      </trkpt>
      <trkpt lat="44.24406" lon="5.08921">
        <ele>230</ele>
        <time>2020-07-11T05:18:23.583Z</time>
      </trkpt>
      <trkpt lat="44.24397" lon="5.0892">
        <ele>229</ele>
        <time>2020-07-11T05:18:24.583Z</time>
      </trkpt>
      <trkpt lat="44.24388" lon="5.0892">
        <ele>229</ele>
        <time>2020-07-11T05:18:25.583Z</time>
      </trkpt>
      <trkpt lat="44.24379" lon="5.08919">
        <ele>228</ele>
        <time>2020-07-11T05:18:26.583Z</time>
      </trkpt>
      <trkpt lat="44.2437" lon="5.08918">
        <ele>228</ele>
        <time>2020-07-11T05:18:27.583Z</time>
      </trkpt>
      <trkpt lat="44.2436" lon="5.08917">
        <ele>227</ele>
        <time>2020-07-11T05:18:28.582Z</time>
      </trkpt>
      <trkpt lat="44.24352" lon="5.08916">
        <ele>227</ele>
        <time>2020-07-11T05:18:29.582Z</time>
      </trkpt>
      <trkpt lat="44.24343" lon="5.08915">
        <ele>227</ele>
        <time>2020-07-11T05:18:30.583Z</time>
      </trkpt>
      <trkpt lat="44.24334" lon="5.08914">
        <ele>226</ele>
        <time>2020-07-11T05:18:31.583Z</time>
      </trkpt>
      <trkpt lat="44.24325" lon="5.08913">
        <ele>226</ele>
        <time>2020-07-11T05:18:32.583Z</time>
      </trkpt>
      <trkpt lat="44.24316" lon="5.08911">
        <ele>225</ele>
        <time>2020-07-11T05:18:33.582Z</time>
      </trkpt>
      <trkpt lat="44.24307" lon="5.0891">
        <ele>225</ele>
        <time>2020-07-11T05:18:34.583Z</time>
      </trkpt>
      <trkpt lat="44.24299" lon="5.08909">
        <ele>224</ele>
        <time>2020-07-11T05:18:35.583Z</time>
      </trkpt>
      <trkpt lat="44.2429" lon="5.08908">
        <ele>224</ele>
        <time>2020-07-11T05:18:36.583Z</time>
      </trkpt>
      <trkpt lat="44.24281" lon="5.08907">
        <ele>224</ele>
        <time>2020-07-11T05:18:37.583Z</time>
      </trkpt>
      <trkpt lat="44.24272" lon="5.08905">
        <ele>224</ele>
        <time>2020-07-11T05:18:38.583Z</time>
      </trkpt>
      <trkpt lat="44.24263" lon="5.08903">
        <ele>224</ele>
        <time>2020-07-11T05:18:39.582Z</time>
      </trkpt>
      <trkpt lat="44.24254" lon="5.08902">
        <ele>223</ele>
        <time>2020-07-11T05:18:40.582Z</time>
      </trkpt>
      <trkpt lat="44.24245" lon="5.089">
        <ele>223</ele>
        <time>2020-07-11T05:18:41.583Z</time>
      </trkpt>
      <trkpt lat="44.24236" lon="5.08898">
        <ele>223</ele>
        <time>2020-07-11T05:18:42.583Z</time>
      </trkpt>
      <trkpt lat="44.24227" lon="5.08895">
        <ele>223</ele>
        <time>2020-07-11T05:18:43.583Z</time>
      </trkpt>
      <trkpt lat="44.24218" lon="5.08891">
        <ele>222</ele>
        <time>2020-07-11T05:18:44.583Z</time>
      </trkpt>
      <trkpt lat="44.2421" lon="5.08888">
        <ele>222</ele>
        <time>2020-07-11T05:18:45.583Z</time>
      </trkpt>
      <trkpt lat="44.24201" lon="5.08885">
        <ele>222</ele>
        <time>2020-07-11T05:18:46.583Z</time>
      </trkpt>
      <trkpt lat="44.24192" lon="5.08883">
        <ele>222</ele>
        <time>2020-07-11T05:18:47.583Z</time>
      </trkpt>
      <trkpt lat="44.24183" lon="5.08882">
        <ele>222</ele>
        <time>2020-07-11T05:18:48.582Z</time>
      </trkpt>
      <trkpt lat="44.24174" lon="5.08882">
        <ele>221</ele>
        <time>2020-07-11T05:18:49.583Z</time>
      </trkpt>
      <trkpt lat="44.24165" lon="5.08883">
        <ele>221</ele>
        <time>2020-07-11T05:18:50.583Z</time>
      </trkpt>
      <trkpt lat="44.24156" lon="5.08884">
        <ele>222</ele>
        <time>2020-07-11T05:18:51.582Z</time>
      </trkpt>
      <trkpt lat="44.24147" lon="5.08885">
        <ele>222</ele>
        <time>2020-07-11T05:18:52.583Z</time>
      </trkpt>
      <trkpt lat="44.24138" lon="5.08886">
        <ele>222</ele>
        <time>2020-07-11T05:18:53.582Z</time>
      </trkpt>
      <trkpt lat="44.24129" lon="5.08887">
        <ele>222</ele>
        <time>2020-07-11T05:18:54.582Z</time>
      </trkpt>
      <trkpt lat="44.24121" lon="5.08888">
        <ele>222</ele>
        <time>2020-07-11T05:18:55.583Z</time>
      </trkpt>
      <trkpt lat="44.24112" lon="5.08888">
        <ele>221</ele>
        <time>2020-07-11T05:18:56.582Z</time>
      </trkpt>
      <trkpt lat="44.24103" lon="5.08889">
        <ele>221</ele>
        <time>2020-07-11T05:18:57.583Z</time>
      </trkpt>
      <trkpt lat="44.24094" lon="5.0889">
        <ele>221</ele>
        <time>2020-07-11T05:18:58.582Z</time>
      </trkpt>
      <trkpt lat="44.24085" lon="5.08892">
        <ele>220</ele>
        <time>2020-07-11T05:18:59.582Z</time>
      </trkpt>
      <trkpt lat="44.24077" lon="5.08892">
        <ele>220</ele>
        <time>2020-07-11T05:19:00.582Z</time>
      </trkpt>
      <trkpt lat="44.24068" lon="5.08893">
        <ele>220</ele>
        <time>2020-07-11T05:19:01.582Z</time>
      </trkpt>
      <trkpt lat="44.24059" lon="5.08894">
        <ele>219</ele>
        <time>2020-07-11T05:19:02.582Z</time>
      </trkpt>
      <trkpt lat="44.2405" lon="5.08895">
        <ele>219</ele>
        <time>2020-07-11T05:19:03.582Z</time>
      </trkpt>
      <trkpt lat="44.24042" lon="5.08896">
        <ele>219</ele>
        <time>2020-07-11T05:19:04.583Z</time>
      </trkpt>
      <trkpt lat="44.24033" lon="5.08897">
        <ele>219</ele>
        <time>2020-07-11T05:19:05.583Z</time>
      </trkpt>
      <trkpt lat="44.24025" lon="5.08897">
        <ele>218</ele>
        <time>2020-07-11T05:19:06.582Z</time>
      </trkpt>
      <trkpt lat="44.24017" lon="5.08896">
        <ele>218</ele>
        <time>2020-07-11T05:19:07.583Z</time>
      </trkpt>
      <trkpt lat="44.24009" lon="5.08896">
        <ele>218</ele>
        <time>2020-07-11T05:19:08.582Z</time>
      </trkpt>
      <trkpt lat="44.24001" lon="5.08896">
        <ele>218</ele>
        <time>2020-07-11T05:19:09.582Z</time>
      </trkpt>
      <trkpt lat="44.23993" lon="5.08894">
        <ele>218</ele>
        <time>2020-07-11T05:19:10.583Z</time>
      </trkpt>
      <trkpt lat="44.23986" lon="5.0889">
        <ele>218</ele>
        <time>2020-07-11T05:19:11.583Z</time>
      </trkpt>
      <trkpt lat="44.23981" lon="5.08883">
        <ele>217</ele>
        <time>2020-07-11T05:19:12.583Z</time>
      </trkpt>
      <trkpt lat="44.23977" lon="5.08874">
        <ele>217</ele>
        <time>2020-07-11T05:19:13.582Z</time>
      </trkpt>
      <trkpt lat="44.23975" lon="5.08864">
        <ele>216</ele>
        <time>2020-07-11T05:19:14.583Z</time>
      </trkpt>
      <trkpt lat="44.23973" lon="5.08854">
        <ele>215</ele>
        <time>2020-07-11T05:19:15.583Z</time>
      </trkpt>
      <trkpt lat="44.23973" lon="5.08844">
        <ele>214</ele>
        <time>2020-07-11T05:19:16.583Z</time>
      </trkpt>
      <trkpt lat="44.23972" lon="5.08834">
        <ele>214</ele>
        <time>2020-07-11T05:19:17.582Z</time>
      </trkpt>
      <trkpt lat="44.23971" lon="5.08824">
        <ele>214</ele>
        <time>2020-07-11T05:19:18.582Z</time>
      </trkpt>
      <trkpt lat="44.2397" lon="5.08815">
        <ele>214</ele>
        <time>2020-07-11T05:19:19.582Z</time>
      </trkpt>
      <trkpt lat="44.2397" lon="5.08805">
        <ele>214</ele>
        <time>2020-07-11T05:19:20.583Z</time>
      </trkpt>
      <trkpt lat="44.23969" lon="5.08796">
        <ele>214</ele>
        <time>2020-07-11T05:19:21.583Z</time>
      </trkpt>
      <trkpt lat="44.23968" lon="5.08787">
        <ele>214</ele>
        <time>2020-07-11T05:19:22.582Z</time>
      </trkpt>
      <trkpt lat="44.23967" lon="5.08779">
        <ele>214</ele>
        <time>2020-07-11T05:19:23.582Z</time>
      </trkpt>
      <trkpt lat="44.23966" lon="5.0877">
        <ele>215</ele>
        <time>2020-07-11T05:19:24.582Z</time>
      </trkpt>
      <trkpt lat="44.23965" lon="5.08761">
        <ele>215</ele>
        <time>2020-07-11T05:19:25.583Z</time>
      </trkpt>
      <trkpt lat="44.23964" lon="5.08753">
        <ele>215</ele>
        <time>2020-07-11T05:19:26.582Z</time>
      </trkpt>
      <trkpt lat="44.23963" lon="5.08744">
        <ele>216</ele>
        <time>2020-07-11T05:19:27.583Z</time>
      </trkpt>
      <trkpt lat="44.23962" lon="5.08737">
        <ele>216</ele>
        <time>2020-07-11T05:19:28.583Z</time>
      </trkpt>
      <trkpt lat="44.23961" lon="5.08729">
        <ele>217</ele>
        <time>2020-07-11T05:19:29.582Z</time>
      </trkpt>
      <trkpt lat="44.23961" lon="5.08722">
        <ele>217</ele>
        <time>2020-07-11T05:19:30.583Z</time>
      </trkpt>
      <trkpt lat="44.2396" lon="5.08715">
        <ele>218</ele>
        <time>2020-07-11T05:19:31.583Z</time>
      </trkpt>
      <trkpt lat="44.23959" lon="5.08709">
        <ele>217</ele>
        <time>2020-07-11T05:19:32.583Z</time>
      </trkpt>
      <trkpt lat="44.23959" lon="5.08702">
        <ele>217</ele>
        <time>2020-07-11T05:19:33.583Z</time>
      </trkpt>
      <trkpt lat="44.23958" lon="5.08695">
        <ele>217</ele>
        <time>2020-07-11T05:19:34.582Z</time>
      </trkpt>
      <trkpt lat="44.23957" lon="5.08688">
        <ele>218</ele>
        <time>2020-07-11T05:19:35.583Z</time>
      </trkpt>
      <trkpt lat="44.23956" lon="5.08681">
        <ele>218</ele>
        <time>2020-07-11T05:19:36.583Z</time>
      </trkpt>
      <trkpt lat="44.23955" lon="5.08674">
        <ele>218</ele>
        <time>2020-07-11T05:19:37.582Z</time>
      </trkpt>
      <trkpt lat="44.23955" lon="5.08667">
        <ele>218</ele>
        <time>2020-07-11T05:19:38.582Z</time>
      </trkpt>
      <trkpt lat="44.23954" lon="5.08661">
        <ele>217</ele>
        <time>2020-07-11T05:19:39.582Z</time>
      </trkpt>
      <trkpt lat="44.23954" lon="5.08657">
        <ele>217</ele>
        <time>2020-07-11T05:19:40.583Z</time>
      </trkpt>
      <trkpt lat="44.23952" lon="5.08653">
        <ele>217</ele>
        <time>2020-07-11T05:19:41.583Z</time>
      </trkpt>
      <trkpt lat="44.23949" lon="5.08651">
        <ele>216</ele>
        <time>2020-07-11T05:19:42.582Z</time>
      </trkpt>
      <trkpt lat="44.23946" lon="5.08651">
        <ele>217</ele>
        <time>2020-07-11T05:19:43.583Z</time>
      </trkpt>
      <trkpt lat="44.23942" lon="5.08651">
        <ele>217</ele>
        <time>2020-07-11T05:19:44.583Z</time>
      </trkpt>
      <trkpt lat="44.23937" lon="5.08652">
        <ele>217</ele>
        <time>2020-07-11T05:19:45.582Z</time>
      </trkpt>
      <trkpt lat="44.23931" lon="5.08653">
        <ele>217</ele>
        <time>2020-07-11T05:19:46.583Z</time>
      </trkpt>
      <trkpt lat="44.23925" lon="5.08655">
        <ele>217</ele>
        <time>2020-07-11T05:19:47.583Z</time>
      </trkpt>
      <trkpt lat="44.23918" lon="5.08656">
        <ele>217</ele>
        <time>2020-07-11T05:19:48.582Z</time>
      </trkpt>
      <trkpt lat="44.23911" lon="5.08657">
        <ele>216</ele>
        <time>2020-07-11T05:19:49.582Z</time>
      </trkpt>
      <trkpt lat="44.23904" lon="5.08658">
        <ele>216</ele>
        <time>2020-07-11T05:19:50.583Z</time>
      </trkpt>
      <trkpt lat="44.23897" lon="5.08659">
        <ele>216</ele>
        <time>2020-07-11T05:19:51.583Z</time>
      </trkpt>
      <trkpt lat="44.2389" lon="5.08659">
        <ele>216</ele>
        <time>2020-07-11T05:19:52.583Z</time>
      </trkpt>
      <trkpt lat="44.23883" lon="5.0866">
        <ele>216</ele>
        <time>2020-07-11T05:19:53.583Z</time>
      </trkpt>
      <trkpt lat="44.23875" lon="5.0866">
        <ele>217</ele>
        <time>2020-07-11T05:19:54.582Z</time>
      </trkpt>
      <trkpt lat="44.23867" lon="5.0866">
        <ele>217</ele>
        <time>2020-07-11T05:19:55.583Z</time>
      </trkpt>
      <trkpt lat="44.2386" lon="5.0866">
        <ele>216</ele>
        <time>2020-07-11T05:19:56.582Z</time>
      </trkpt>
      <trkpt lat="44.23852" lon="5.0866">
        <ele>216</ele>
        <time>2020-07-11T05:19:57.583Z</time>
      </trkpt>
      <trkpt lat="44.23844" lon="5.08659">
        <ele>216</ele>
        <time>2020-07-11T05:19:58.582Z</time>
      </trkpt>
      <trkpt lat="44.23836" lon="5.08658">
        <ele>216</ele>
        <time>2020-07-11T05:19:59.583Z</time>
      </trkpt>
      <trkpt lat="44.23828" lon="5.08658">
        <ele>216</ele>
        <time>2020-07-11T05:20:00.583Z</time>
      </trkpt>
      <trkpt lat="44.23819" lon="5.08657">
        <ele>216</ele>
        <time>2020-07-11T05:20:01.583Z</time>
      </trkpt>
      <trkpt lat="44.23811" lon="5.08656">
        <ele>216</ele>
        <time>2020-07-11T05:20:02.583Z</time>
      </trkpt>
      <trkpt lat="44.23803" lon="5.08655">
        <ele>216</ele>
        <time>2020-07-11T05:20:03.583Z</time>
      </trkpt>
      <trkpt lat="44.23795" lon="5.08654">
        <ele>216</ele>
        <time>2020-07-11T05:20:04.583Z</time>
      </trkpt>
      <trkpt lat="44.23787" lon="5.08654">
        <ele>216</ele>
        <time>2020-07-11T05:20:05.583Z</time>
      </trkpt>
      <trkpt lat="44.23778" lon="5.08653">
        <ele>216</ele>
        <time>2020-07-11T05:20:06.583Z</time>
      </trkpt>
      <trkpt lat="44.2377" lon="5.08653">
        <ele>216</ele>
        <time>2020-07-11T05:20:07.583Z</time>
      </trkpt>
      <trkpt lat="44.23762" lon="5.08652">
        <ele>216</ele>
        <time>2020-07-11T05:20:08.582Z</time>
      </trkpt>
      <trkpt lat="44.23754" lon="5.08652">
        <ele>215</ele>
        <time>2020-07-11T05:20:09.582Z</time>
      </trkpt>
      <trkpt lat="44.23746" lon="5.08651">
        <ele>215</ele>
        <time>2020-07-11T05:20:10.583Z</time>
      </trkpt>
      <trkpt lat="44.23738" lon="5.08651">
        <ele>214</ele>
        <time>2020-07-11T05:20:11.583Z</time>
      </trkpt>
      <trkpt lat="44.2373" lon="5.0865">
        <ele>214</ele>
        <time>2020-07-11T05:20:12.583Z</time>
      </trkpt>
      <trkpt lat="44.23722" lon="5.0865">
        <ele>214</ele>
        <time>2020-07-11T05:20:13.582Z</time>
      </trkpt>
      <trkpt lat="44.23714" lon="5.08649">
        <ele>213</ele>
        <time>2020-07-11T05:20:14.583Z</time>
      </trkpt>
      <trkpt lat="44.23706" lon="5.08649">
        <ele>213</ele>
        <time>2020-07-11T05:20:15.583Z</time>
      </trkpt>
      <trkpt lat="44.23698" lon="5.08648">
        <ele>213</ele>
        <time>2020-07-11T05:20:16.582Z</time>
      </trkpt>
      <trkpt lat="44.2369" lon="5.08648">
        <ele>214</ele>
        <time>2020-07-11T05:20:17.582Z</time>
      </trkpt>
      <trkpt lat="44.23683" lon="5.08647">
        <ele>214</ele>
        <time>2020-07-11T05:20:18.582Z</time>
      </trkpt>
      <trkpt lat="44.23675" lon="5.08647">
        <ele>214</ele>
        <time>2020-07-11T05:20:19.583Z</time>
      </trkpt>
      <trkpt lat="44.23667" lon="5.08647">
        <ele>214</ele>
        <time>2020-07-11T05:20:20.583Z</time>
      </trkpt>
      <trkpt lat="44.23659" lon="5.08646">
        <ele>214</ele>
        <time>2020-07-11T05:20:21.583Z</time>
      </trkpt>
      <trkpt lat="44.23652" lon="5.08646">
        <ele>215</ele>
        <time>2020-07-11T05:20:22.583Z</time>
      </trkpt>
      <trkpt lat="44.23644" lon="5.08647">
        <ele>215</ele>
        <time>2020-07-11T05:20:23.582Z</time>
      </trkpt>
      <trkpt lat="44.23636" lon="5.08647">
        <ele>215</ele>
        <time>2020-07-11T05:20:24.583Z</time>
      </trkpt>
      <trkpt lat="44.23628" lon="5.08649">
        <ele>215</ele>
        <time>2020-07-11T05:20:25.583Z</time>
      </trkpt>
      <trkpt lat="44.2362" lon="5.0865">
        <ele>215</ele>
        <time>2020-07-11T05:20:26.582Z</time>
      </trkpt>
      <trkpt lat="44.23612" lon="5.08651">
        <ele>215</ele>
        <time>2020-07-11T05:20:27.582Z</time>
      </trkpt>
      <trkpt lat="44.23605" lon="5.08653">
        <ele>214</ele>
        <time>2020-07-11T05:20:28.582Z</time>
      </trkpt>
      <trkpt lat="44.23597" lon="5.08656">
        <ele>214</ele>
        <time>2020-07-11T05:20:29.583Z</time>
      </trkpt>
      <trkpt lat="44.2359" lon="5.08658">
        <ele>214</ele>
        <time>2020-07-11T05:20:30.583Z</time>
      </trkpt>
      <trkpt lat="44.23582" lon="5.08662">
        <ele>214</ele>
        <time>2020-07-11T05:20:31.583Z</time>
      </trkpt>
      <trkpt lat="44.23575" lon="5.08665">
        <ele>214</ele>
        <time>2020-07-11T05:20:32.583Z</time>
      </trkpt>
      <trkpt lat="44.23568" lon="5.0867">
        <ele>213</ele>
        <time>2020-07-11T05:20:33.583Z</time>
      </trkpt>
      <trkpt lat="44.23561" lon="5.08675">
        <ele>213</ele>
        <time>2020-07-11T05:20:34.582Z</time>
      </trkpt>
      <trkpt lat="44.23554" lon="5.08681">
        <ele>212</ele>
        <time>2020-07-11T05:20:35.582Z</time>
      </trkpt>
      <trkpt lat="44.23547" lon="5.08687">
        <ele>212</ele>
        <time>2020-07-11T05:20:36.582Z</time>
      </trkpt>
      <trkpt lat="44.2354" lon="5.08693">
        <ele>213</ele>
        <time>2020-07-11T05:20:37.583Z</time>
      </trkpt>
      <trkpt lat="44.23533" lon="5.087">
        <ele>213</ele>
        <time>2020-07-11T05:20:38.583Z</time>
      </trkpt>
      <trkpt lat="44.23527" lon="5.08707">
        <ele>213</ele>
        <time>2020-07-11T05:20:39.582Z</time>
      </trkpt>
      <trkpt lat="44.23521" lon="5.08713">
        <ele>213</ele>
        <time>2020-07-11T05:20:40.583Z</time>
      </trkpt>
      <trkpt lat="44.23514" lon="5.0872">
        <ele>213</ele>
        <time>2020-07-11T05:20:41.583Z</time>
      </trkpt>
      <trkpt lat="44.23508" lon="5.08727">
        <ele>212</ele>
        <time>2020-07-11T05:20:42.583Z</time>
      </trkpt>
      <trkpt lat="44.23502" lon="5.08733">
        <ele>212</ele>
        <time>2020-07-11T05:20:43.583Z</time>
      </trkpt>
      <trkpt lat="44.23496" lon="5.08741">
        <ele>212</ele>
        <time>2020-07-11T05:20:44.582Z</time>
      </trkpt>
      <trkpt lat="44.2349" lon="5.08748">
        <ele>212</ele>
        <time>2020-07-11T05:20:45.583Z</time>
      </trkpt>
      <trkpt lat="44.23484" lon="5.08755">
        <ele>213</ele>
        <time>2020-07-11T05:20:46.583Z</time>
      </trkpt>
      <trkpt lat="44.23477" lon="5.08762">
        <ele>213</ele>
        <time>2020-07-11T05:20:47.583Z</time>
      </trkpt>
      <trkpt lat="44.23471" lon="5.08768">
        <ele>213</ele>
        <time>2020-07-11T05:20:48.583Z</time>
      </trkpt>
      <trkpt lat="44.23465" lon="5.08775">
        <ele>214</ele>
        <time>2020-07-11T05:20:49.582Z</time>
      </trkpt>
      <trkpt lat="44.23459" lon="5.08782">
        <ele>214</ele>
        <time>2020-07-11T05:20:50.583Z</time>
      </trkpt>
      <trkpt lat="44.23452" lon="5.08789">
        <ele>215</ele>
        <time>2020-07-11T05:20:51.583Z</time>
      </trkpt>
      <trkpt lat="44.23446" lon="5.08796">
        <ele>215</ele>
        <time>2020-07-11T05:20:52.583Z</time>
      </trkpt>
      <trkpt lat="44.2344" lon="5.08803">
        <ele>216</ele>
        <time>2020-07-11T05:20:53.583Z</time>
      </trkpt>
      <trkpt lat="44.23434" lon="5.0881">
        <ele>216</ele>
        <time>2020-07-11T05:20:54.583Z</time>
      </trkpt>
      <trkpt lat="44.23427" lon="5.08817">
        <ele>217</ele>
        <time>2020-07-11T05:20:55.582Z</time>
      </trkpt>
      <trkpt lat="44.23421" lon="5.08824">
        <ele>218</ele>
        <time>2020-07-11T05:20:56.583Z</time>
      </trkpt>
      <trkpt lat="44.23415" lon="5.08831">
        <ele>218</ele>
        <time>2020-07-11T05:20:57.583Z</time>
      </trkpt>
      <trkpt lat="44.23409" lon="5.08838">
        <ele>218</ele>
        <time>2020-07-11T05:20:58.582Z</time>
      </trkpt>
      <trkpt lat="44.23403" lon="5.08844">
        <ele>218</ele>
        <time>2020-07-11T05:20:59.583Z</time>
      </trkpt>
      <trkpt lat="44.23397" lon="5.08851">
        <ele>217</ele>
        <time>2020-07-11T05:21:00.582Z</time>
      </trkpt>
      <trkpt lat="44.23391" lon="5.08858">
        <ele>217</ele>
        <time>2020-07-11T05:21:01.583Z</time>
      </trkpt>
      <trkpt lat="44.23385" lon="5.08865">
        <ele>217</ele>
        <time>2020-07-11T05:21:02.583Z</time>
      </trkpt>
      <trkpt lat="44.23379" lon="5.08871">
        <ele>217</ele>
        <time>2020-07-11T05:21:03.582Z</time>
      </trkpt>
      <trkpt lat="44.23372" lon="5.08878">
        <ele>217</ele>
        <time>2020-07-11T05:21:04.582Z</time>
      </trkpt>
      <trkpt lat="44.23366" lon="5.08884">
        <ele>217</ele>
        <time>2020-07-11T05:21:05.583Z</time>
      </trkpt>
      <trkpt lat="44.2336" lon="5.08891">
        <ele>217</ele>
        <time>2020-07-11T05:21:06.583Z</time>
      </trkpt>
      <trkpt lat="44.23354" lon="5.08897">
        <ele>217</ele>
        <time>2020-07-11T05:21:07.582Z</time>
      </trkpt>
      <trkpt lat="44.23348" lon="5.08904">
        <ele>218</ele>
        <time>2020-07-11T05:21:08.583Z</time>
      </trkpt>
      <trkpt lat="44.23341" lon="5.0891">
        <ele>218</ele>
        <time>2020-07-11T05:21:09.582Z</time>
      </trkpt>
      <trkpt lat="44.23335" lon="5.08916">
        <ele>218</ele>
        <time>2020-07-11T05:21:10.583Z</time>
      </trkpt>
      <trkpt lat="44.23329" lon="5.08922">
        <ele>218</ele>
        <time>2020-07-11T05:21:11.583Z</time>
      </trkpt>
      <trkpt lat="44.23322" lon="5.08927">
        <ele>218</ele>
        <time>2020-07-11T05:21:12.583Z</time>
      </trkpt>
      <trkpt lat="44.23316" lon="5.08932">
        <ele>217</ele>
        <time>2020-07-11T05:21:13.583Z</time>
      </trkpt>
      <trkpt lat="44.23309" lon="5.08938">
        <ele>218</ele>
        <time>2020-07-11T05:21:14.582Z</time>
      </trkpt>
      <trkpt lat="44.23302" lon="5.08943">
        <ele>218</ele>
        <time>2020-07-11T05:21:15.583Z</time>
      </trkpt>
      <trkpt lat="44.23295" lon="5.08947">
        <ele>218</ele>
        <time>2020-07-11T05:21:16.583Z</time>
      </trkpt>
      <trkpt lat="44.23288" lon="5.08951">
        <ele>218</ele>
        <time>2020-07-11T05:21:17.583Z</time>
      </trkpt>
      <trkpt lat="44.23281" lon="5.08955">
        <ele>219</ele>
        <time>2020-07-11T05:21:18.583Z</time>
      </trkpt>
      <trkpt lat="44.23274" lon="5.08959">
        <ele>219</ele>
        <time>2020-07-11T05:21:19.583Z</time>
      </trkpt>
      <trkpt lat="44.23267" lon="5.08962">
        <ele>219</ele>
        <time>2020-07-11T05:21:20.583Z</time>
      </trkpt>
      <trkpt lat="44.23259" lon="5.08964">
        <ele>219</ele>
        <time>2020-07-11T05:21:21.583Z</time>
      </trkpt>
      <trkpt lat="44.23251" lon="5.08967">
        <ele>219</ele>
        <time>2020-07-11T05:21:22.582Z</time>
      </trkpt>
      <trkpt lat="44.23245" lon="5.08969">
        <ele>219</ele>
        <time>2020-07-11T05:21:23.583Z</time>
      </trkpt>
      <trkpt lat="44.23237" lon="5.0897">
        <ele>219</ele>
        <time>2020-07-11T05:21:24.582Z</time>
      </trkpt>
      <trkpt lat="44.2323" lon="5.08971">
        <ele>219</ele>
        <time>2020-07-11T05:21:25.583Z</time>
      </trkpt>
      <trkpt lat="44.23223" lon="5.08972">
        <ele>219</ele>
        <time>2020-07-11T05:21:26.582Z</time>
      </trkpt>
      <trkpt lat="44.23215" lon="5.08971">
        <ele>219</ele>
        <time>2020-07-11T05:21:27.583Z</time>
      </trkpt>
      <trkpt lat="44.23208" lon="5.08971">
        <ele>218</ele>
        <time>2020-07-11T05:21:28.583Z</time>
      </trkpt>
      <trkpt lat="44.232" lon="5.0897">
        <ele>218</ele>
        <time>2020-07-11T05:21:29.583Z</time>
      </trkpt>
      <trkpt lat="44.23193" lon="5.08969">
        <ele>217</ele>
        <time>2020-07-11T05:21:30.583Z</time>
      </trkpt>
      <trkpt lat="44.23186" lon="5.08968">
        <ele>217</ele>
        <time>2020-07-11T05:21:31.583Z</time>
      </trkpt>
      <trkpt lat="44.23179" lon="5.08967">
        <ele>217</ele>
        <time>2020-07-11T05:21:32.583Z</time>
      </trkpt>
      <trkpt lat="44.23172" lon="5.08965">
        <ele>216</ele>
        <time>2020-07-11T05:21:33.583Z</time>
      </trkpt>
      <trkpt lat="44.23165" lon="5.08963">
        <ele>216</ele>
        <time>2020-07-11T05:21:34.583Z</time>
      </trkpt>
      <trkpt lat="44.23158" lon="5.08961">
        <ele>215</ele>
        <time>2020-07-11T05:21:35.583Z</time>
      </trkpt>
      <trkpt lat="44.23151" lon="5.08959">
        <ele>215</ele>
        <time>2020-07-11T05:21:36.583Z</time>
      </trkpt>
      <trkpt lat="44.23144" lon="5.08957">
        <ele>215</ele>
        <time>2020-07-11T05:21:37.583Z</time>
      </trkpt>
      <trkpt lat="44.23137" lon="5.08954">
        <ele>214</ele>
        <time>2020-07-11T05:21:38.582Z</time>
      </trkpt>
      <trkpt lat="44.2313" lon="5.08952">
        <ele>214</ele>
        <time>2020-07-11T05:21:39.583Z</time>
      </trkpt>
      <trkpt lat="44.23124" lon="5.08949">
        <ele>214</ele>
        <time>2020-07-11T05:21:40.582Z</time>
      </trkpt>
      <trkpt lat="44.23117" lon="5.08947">
        <ele>214</ele>
        <time>2020-07-11T05:21:41.583Z</time>
      </trkpt>
      <trkpt lat="44.2311" lon="5.08944">
        <ele>214</ele>
        <time>2020-07-11T05:21:42.583Z</time>
      </trkpt>
      <trkpt lat="44.23103" lon="5.08942">
        <ele>214</ele>
        <time>2020-07-11T05:21:43.582Z</time>
      </trkpt>
      <trkpt lat="44.23096" lon="5.08939">
        <ele>214</ele>
        <time>2020-07-11T05:21:44.582Z</time>
      </trkpt>
      <trkpt lat="44.23089" lon="5.08937">
        <ele>214</ele>
        <time>2020-07-11T05:21:45.582Z</time>
      </trkpt>
      <trkpt lat="44.23083" lon="5.08934">
        <ele>213</ele>
        <time>2020-07-11T05:21:46.582Z</time>
      </trkpt>
      <trkpt lat="44.23076" lon="5.08932">
        <ele>213</ele>
        <time>2020-07-11T05:21:47.583Z</time>
      </trkpt>
      <trkpt lat="44.23069" lon="5.08929">
        <ele>213</ele>
        <time>2020-07-11T05:21:48.583Z</time>
      </trkpt>
      <trkpt lat="44.23062" lon="5.08927">
        <ele>213</ele>
        <time>2020-07-11T05:21:49.583Z</time>
      </trkpt>
      <trkpt lat="44.23056" lon="5.08924">
        <ele>213</ele>
        <time>2020-07-11T05:21:50.583Z</time>
      </trkpt>
      <trkpt lat="44.23049" lon="5.08922">
        <ele>213</ele>
        <time>2020-07-11T05:21:51.583Z</time>
      </trkpt>
      <trkpt lat="44.23043" lon="5.08919">
        <ele>213</ele>
        <time>2020-07-11T05:21:52.583Z</time>
      </trkpt>
      <trkpt lat="44.23036" lon="5.08917">
        <ele>213</ele>
        <time>2020-07-11T05:21:53.583Z</time>
      </trkpt>
      <trkpt lat="44.23029" lon="5.08914">
        <ele>213</ele>
        <time>2020-07-11T05:21:54.583Z</time>
      </trkpt>
      <trkpt lat="44.23022" lon="5.08912">
        <ele>213</ele>
        <time>2020-07-11T05:21:55.583Z</time>
      </trkpt>
      <trkpt lat="44.23016" lon="5.08909">
        <ele>213</ele>
        <time>2020-07-11T05:21:56.583Z</time>
      </trkpt>
      <trkpt lat="44.23009" lon="5.08906">
        <ele>212</ele>
        <time>2020-07-11T05:21:57.583Z</time>
      </trkpt>
      <trkpt lat="44.23002" lon="5.08903">
        <ele>212</ele>
        <time>2020-07-11T05:21:58.583Z</time>
      </trkpt>
      <trkpt lat="44.22996" lon="5.089">
        <ele>212</ele>
        <time>2020-07-11T05:21:59.583Z</time>
      </trkpt>
      <trkpt lat="44.22989" lon="5.08897">
        <ele>212</ele>
        <time>2020-07-11T05:22:00.583Z</time>
      </trkpt>
      <trkpt lat="44.22983" lon="5.08893">
        <ele>213</ele>
        <time>2020-07-11T05:22:01.582Z</time>
      </trkpt>
      <trkpt lat="44.22976" lon="5.08889">
        <ele>213</ele>
        <time>2020-07-11T05:22:02.583Z</time>
      </trkpt>
      <trkpt lat="44.2297" lon="5.08885">
        <ele>213</ele>
        <time>2020-07-11T05:22:03.582Z</time>
      </trkpt>
      <trkpt lat="44.22964" lon="5.08881">
        <ele>213</ele>
        <time>2020-07-11T05:22:04.583Z</time>
      </trkpt>
      <trkpt lat="44.22958" lon="5.08877">
        <ele>213</ele>
        <time>2020-07-11T05:22:05.582Z</time>
      </trkpt>
      <trkpt lat="44.22952" lon="5.08872">
        <ele>213</ele>
        <time>2020-07-11T05:22:06.582Z</time>
      </trkpt>
      <trkpt lat="44.22947" lon="5.08868">
        <ele>213</ele>
        <time>2020-07-11T05:22:07.583Z</time>
      </trkpt>
      <trkpt lat="44.22941" lon="5.08863">
        <ele>213</ele>
        <time>2020-07-11T05:22:08.583Z</time>
      </trkpt>
      <trkpt lat="44.22936" lon="5.08858">
        <ele>213</ele>
        <time>2020-07-11T05:22:09.583Z</time>
      </trkpt>
      <trkpt lat="44.2293" lon="5.08854">
        <ele>213</ele>
        <time>2020-07-11T05:22:10.583Z</time>
      </trkpt>
      <trkpt lat="44.22925" lon="5.08849">
        <ele>214</ele>
        <time>2020-07-11T05:22:11.582Z</time>
      </trkpt>
      <trkpt lat="44.22919" lon="5.08845">
        <ele>214</ele>
        <time>2020-07-11T05:22:12.583Z</time>
      </trkpt>
      <trkpt lat="44.22914" lon="5.08841">
        <ele>214</ele>
        <time>2020-07-11T05:22:13.583Z</time>
      </trkpt>
      <trkpt lat="44.22909" lon="5.08836">
        <ele>214</ele>
        <time>2020-07-11T05:22:14.583Z</time>
      </trkpt>
      <trkpt lat="44.22905" lon="5.08831">
        <ele>213</ele>
        <time>2020-07-11T05:22:15.582Z</time>
      </trkpt>
      <trkpt lat="44.22901" lon="5.08825">
        <ele>213</ele>
        <time>2020-07-11T05:22:16.583Z</time>
      </trkpt>
      <trkpt lat="44.22898" lon="5.08818">
        <ele>212</ele>
        <time>2020-07-11T05:22:17.582Z</time>
      </trkpt>
      <trkpt lat="44.22894" lon="5.08812">
        <ele>212</ele>
        <time>2020-07-11T05:22:18.583Z</time>
      </trkpt>
      <trkpt lat="44.22891" lon="5.08807">
        <ele>212</ele>
        <time>2020-07-11T05:22:19.582Z</time>
      </trkpt>
      <trkpt lat="44.22886" lon="5.08802">
        <ele>212</ele>
        <time>2020-07-11T05:22:20.583Z</time>
      </trkpt>
      <trkpt lat="44.22881" lon="5.088">
        <ele>212</ele>
        <time>2020-07-11T05:22:21.583Z</time>
      </trkpt>
      <trkpt lat="44.22876" lon="5.088">
        <ele>212</ele>
        <time>2020-07-11T05:22:22.583Z</time>
      </trkpt>
      <trkpt lat="44.2287" lon="5.08801">
        <ele>212</ele>
        <time>2020-07-11T05:22:23.583Z</time>
      </trkpt>
      <trkpt lat="44.22864" lon="5.08804">
        <ele>213</ele>
        <time>2020-07-11T05:22:24.582Z</time>
      </trkpt>
      <trkpt lat="44.22859" lon="5.08807">
        <ele>213</ele>
        <time>2020-07-11T05:22:25.582Z</time>
      </trkpt>
      <trkpt lat="44.22853" lon="5.0881">
        <ele>214</ele>
        <time>2020-07-11T05:22:26.583Z</time>
      </trkpt>
      <trkpt lat="44.22847" lon="5.08813">
        <ele>214</ele>
        <time>2020-07-11T05:22:27.582Z</time>
      </trkpt>
      <trkpt lat="44.22842" lon="5.08815">
        <ele>214</ele>
        <time>2020-07-11T05:22:28.582Z</time>
      </trkpt>
      <trkpt lat="44.22835" lon="5.08816">
        <ele>213</ele>
        <time>2020-07-11T05:22:29.583Z</time>
      </trkpt>
      <trkpt lat="44.22829" lon="5.08818">
        <ele>213</ele>
        <time>2020-07-11T05:22:30.582Z</time>
      </trkpt>
      <trkpt lat="44.22823" lon="5.08818">
        <ele>214</ele>
        <time>2020-07-11T05:22:31.583Z</time>
      </trkpt>
      <trkpt lat="44.22818" lon="5.08818">
        <ele>214</ele>
        <time>2020-07-11T05:22:32.582Z</time>
      </trkpt>
      <trkpt lat="44.22812" lon="5.08818">
        <ele>214</ele>
        <time>2020-07-11T05:22:33.583Z</time>
      </trkpt>
      <trkpt lat="44.22806" lon="5.08818">
        <ele>214</ele>
        <time>2020-07-11T05:22:34.583Z</time>
      </trkpt>
      <trkpt lat="44.228" lon="5.08818">
        <ele>214</ele>
        <time>2020-07-11T05:22:35.583Z</time>
      </trkpt>
      <trkpt lat="44.22794" lon="5.08818">
        <ele>214</ele>
        <time>2020-07-11T05:22:36.583Z</time>
      </trkpt>
      <trkpt lat="44.22788" lon="5.08819">
        <ele>215</ele>
        <time>2020-07-11T05:22:37.583Z</time>
      </trkpt>
      <trkpt lat="44.22782" lon="5.08819">
        <ele>215</ele>
        <time>2020-07-11T05:22:38.583Z</time>
      </trkpt>
      <trkpt lat="44.22775" lon="5.08819">
        <ele>215</ele>
        <time>2020-07-11T05:22:39.583Z</time>
      </trkpt>
      <trkpt lat="44.22769" lon="5.0882">
        <ele>216</ele>
        <time>2020-07-11T05:22:40.582Z</time>
      </trkpt>
      <trkpt lat="44.22763" lon="5.0882">
        <ele>217</ele>
        <time>2020-07-11T05:22:41.583Z</time>
      </trkpt>
      <trkpt lat="44.22756" lon="5.0882">
        <ele>217</ele>
        <time>2020-07-11T05:22:42.583Z</time>
      </trkpt>
      <trkpt lat="44.2275" lon="5.0882">
        <ele>217</ele>
        <time>2020-07-11T05:22:43.583Z</time>
      </trkpt>
      <trkpt lat="44.22744" lon="5.0882">
        <ele>218</ele>
        <time>2020-07-11T05:22:44.582Z</time>
      </trkpt>
      <trkpt lat="44.22738" lon="5.0882">
        <ele>218</ele>
        <time>2020-07-11T05:22:45.582Z</time>
      </trkpt>
      <trkpt lat="44.22732" lon="5.0882">
        <ele>219</ele>
        <time>2020-07-11T05:22:46.583Z</time>
      </trkpt>
      <trkpt lat="44.22726" lon="5.0882">
        <ele>219</ele>
        <time>2020-07-11T05:22:47.583Z</time>
      </trkpt>
      <trkpt lat="44.2272" lon="5.08821">
        <ele>219</ele>
        <time>2020-07-11T05:22:48.583Z</time>
      </trkpt>
      <trkpt lat="44.22714" lon="5.08821">
        <ele>220</ele>
        <time>2020-07-11T05:22:49.583Z</time>
      </trkpt>
      <trkpt lat="44.22708" lon="5.08821">
        <ele>220</ele>
        <time>2020-07-11T05:22:50.583Z</time>
      </trkpt>
      <trkpt lat="44.22702" lon="5.08822">
        <ele>220</ele>
        <time>2020-07-11T05:22:51.583Z</time>
      </trkpt>
      <trkpt lat="44.22696" lon="5.08822">
        <ele>221</ele>
        <time>2020-07-11T05:22:52.583Z</time>
      </trkpt>
      <trkpt lat="44.2269" lon="5.08822">
        <ele>221</ele>
        <time>2020-07-11T05:22:53.582Z</time>
      </trkpt>
      <trkpt lat="44.22684" lon="5.08822">
        <ele>221</ele>
        <time>2020-07-11T05:22:54.582Z</time>
      </trkpt>
      <trkpt lat="44.22678" lon="5.08822">
        <ele>221</ele>
        <time>2020-07-11T05:22:55.583Z</time>
      </trkpt>
      <trkpt lat="44.22672" lon="5.08822">
        <ele>221</ele>
        <time>2020-07-11T05:22:56.583Z</time>
      </trkpt>
      <trkpt lat="44.22667" lon="5.08822">
        <ele>221</ele>
        <time>2020-07-11T05:22:57.582Z</time>
      </trkpt>
      <trkpt lat="44.2266" lon="5.08823">
        <ele>221</ele>
        <time>2020-07-11T05:22:58.582Z</time>
      </trkpt>
      <trkpt lat="44.22654" lon="5.08824">
        <ele>222</ele>
        <time>2020-07-11T05:22:59.583Z</time>
      </trkpt>
      <trkpt lat="44.22648" lon="5.08825">
        <ele>222</ele>
        <time>2020-07-11T05:23:00.583Z</time>
      </trkpt>
      <trkpt lat="44.22642" lon="5.08826">
        <ele>222</ele>
        <time>2020-07-11T05:23:01.582Z</time>
      </trkpt>
      <trkpt lat="44.22636" lon="5.08827">
        <ele>222</ele>
        <time>2020-07-11T05:23:02.583Z</time>
      </trkpt>
      <trkpt lat="44.22631" lon="5.08828">
        <ele>222</ele>
        <time>2020-07-11T05:23:03.583Z</time>
      </trkpt>
      <trkpt lat="44.22625" lon="5.08829">
        <ele>222</ele>
        <time>2020-07-11T05:23:04.583Z</time>
      </trkpt>
      <trkpt lat="44.22619" lon="5.08831">
        <ele>222</ele>
        <time>2020-07-11T05:23:05.582Z</time>
      </trkpt>
      <trkpt lat="44.22613" lon="5.08833">
        <ele>223</ele>
        <time>2020-07-11T05:23:06.583Z</time>
      </trkpt>
      <trkpt lat="44.22607" lon="5.08835">
        <ele>223</ele>
        <time>2020-07-11T05:23:07.582Z</time>
      </trkpt>
      <trkpt lat="44.22602" lon="5.08837">
        <ele>223</ele>
        <time>2020-07-11T05:23:08.583Z</time>
      </trkpt>
      <trkpt lat="44.22596" lon="5.0884">
        <ele>223</ele>
        <time>2020-07-11T05:23:09.583Z</time>
      </trkpt>
      <trkpt lat="44.2259" lon="5.08843">
        <ele>223</ele>
        <time>2020-07-11T05:23:10.582Z</time>
      </trkpt>
      <trkpt lat="44.22584" lon="5.08846">
        <ele>223</ele>
        <time>2020-07-11T05:23:11.582Z</time>
      </trkpt>
      <trkpt lat="44.22579" lon="5.08849">
        <ele>223</ele>
        <time>2020-07-11T05:23:12.582Z</time>
      </trkpt>
      <trkpt lat="44.22573" lon="5.08852">
        <ele>223</ele>
        <time>2020-07-11T05:23:13.583Z</time>
      </trkpt>
      <trkpt lat="44.22568" lon="5.08856">
        <ele>223</ele>
        <time>2020-07-11T05:23:14.583Z</time>
      </trkpt>
      <trkpt lat="44.22562" lon="5.0886">
        <ele>223</ele>
        <time>2020-07-11T05:23:15.583Z</time>
      </trkpt>
      <trkpt lat="44.22557" lon="5.08864">
        <ele>223</ele>
        <time>2020-07-11T05:23:16.583Z</time>
      </trkpt>
      <trkpt lat="44.22551" lon="5.08869">
        <ele>223</ele>
        <time>2020-07-11T05:23:17.583Z</time>
      </trkpt>
      <trkpt lat="44.22546" lon="5.08873">
        <ele>223</ele>
        <time>2020-07-11T05:23:18.583Z</time>
      </trkpt>
      <trkpt lat="44.22541" lon="5.08877">
        <ele>223</ele>
        <time>2020-07-11T05:23:19.583Z</time>
      </trkpt>
      <trkpt lat="44.22535" lon="5.08881">
        <ele>223</ele>
        <time>2020-07-11T05:23:20.583Z</time>
      </trkpt>
      <trkpt lat="44.2253" lon="5.08886">
        <ele>223</ele>
        <time>2020-07-11T05:23:21.582Z</time>
      </trkpt>
      <trkpt lat="44.22524" lon="5.08891">
        <ele>223</ele>
        <time>2020-07-11T05:23:22.583Z</time>
      </trkpt>
      <trkpt lat="44.22519" lon="5.08896">
        <ele>223</ele>
        <time>2020-07-11T05:23:23.583Z</time>
      </trkpt>
      <trkpt lat="44.22514" lon="5.08902">
        <ele>223</ele>
        <time>2020-07-11T05:23:24.583Z</time>
      </trkpt>
      <trkpt lat="44.22509" lon="5.08907">
        <ele>223</ele>
        <time>2020-07-11T05:23:25.583Z</time>
      </trkpt>
      <trkpt lat="44.22504" lon="5.08913">
        <ele>222</ele>
        <time>2020-07-11T05:23:26.583Z</time>
      </trkpt>
      <trkpt lat="44.22499" lon="5.08919">
        <ele>222</ele>
        <time>2020-07-11T05:23:27.582Z</time>
      </trkpt>
      <trkpt lat="44.22495" lon="5.08924">
        <ele>222</ele>
        <time>2020-07-11T05:23:28.583Z</time>
      </trkpt>
      <trkpt lat="44.2249" lon="5.08931">
        <ele>222</ele>
        <time>2020-07-11T05:23:29.582Z</time>
      </trkpt>
      <trkpt lat="44.22486" lon="5.08937">
        <ele>222</ele>
        <time>2020-07-11T05:23:30.583Z</time>
      </trkpt>
      <trkpt lat="44.22482" lon="5.08943">
        <ele>222</ele>
        <time>2020-07-11T05:23:31.582Z</time>
      </trkpt>
      <trkpt lat="44.22477" lon="5.0895">
        <ele>221</ele>
        <time>2020-07-11T05:23:32.582Z</time>
      </trkpt>
      <trkpt lat="44.22473" lon="5.08956">
        <ele>221</ele>
        <time>2020-07-11T05:23:33.582Z</time>
      </trkpt>
      <trkpt lat="44.22469" lon="5.08962">
        <ele>220</ele>
        <time>2020-07-11T05:23:34.583Z</time>
      </trkpt>
      <trkpt lat="44.22465" lon="5.08969">
        <ele>220</ele>
        <time>2020-07-11T05:23:35.583Z</time>
      </trkpt>
      <trkpt lat="44.22461" lon="5.08975">
        <ele>220</ele>
        <time>2020-07-11T05:23:36.582Z</time>
      </trkpt>
      <trkpt lat="44.22457" lon="5.08981">
        <ele>220</ele>
        <time>2020-07-11T05:23:37.582Z</time>
      </trkpt>
      <trkpt lat="44.22453" lon="5.08988">
        <ele>220</ele>
        <time>2020-07-11T05:23:38.583Z</time>
      </trkpt>
      <trkpt lat="44.22449" lon="5.08995">
        <ele>221</ele>
        <time>2020-07-11T05:23:39.583Z</time>
      </trkpt>
      <trkpt lat="44.22445" lon="5.09001">
        <ele>222</ele>
        <time>2020-07-11T05:23:40.583Z</time>
      </trkpt>
      <trkpt lat="44.22441" lon="5.09008">
        <ele>222</ele>
        <time>2020-07-11T05:23:41.583Z</time>
      </trkpt>
      <trkpt lat="44.22437" lon="5.09014">
        <ele>223</ele>
        <time>2020-07-11T05:23:42.583Z</time>
      </trkpt>
      <trkpt lat="44.22432" lon="5.0902">
        <ele>224</ele>
        <time>2020-07-11T05:23:43.582Z</time>
      </trkpt>
      <trkpt lat="44.22428" lon="5.09027">
        <ele>224</ele>
        <time>2020-07-11T05:23:44.583Z</time>
      </trkpt>
      <trkpt lat="44.22425" lon="5.09033">
        <ele>225</ele>
        <time>2020-07-11T05:23:45.583Z</time>
      </trkpt>
      <trkpt lat="44.22421" lon="5.0904">
        <ele>225</ele>
        <time>2020-07-11T05:23:46.582Z</time>
      </trkpt>
      <trkpt lat="44.22417" lon="5.09046">
        <ele>225</ele>
        <time>2020-07-11T05:23:47.583Z</time>
      </trkpt>
      <trkpt lat="44.22413" lon="5.09052">
        <ele>225</ele>
        <time>2020-07-11T05:23:48.582Z</time>
      </trkpt>
      <trkpt lat="44.22409" lon="5.09059">
        <ele>226</ele>
        <time>2020-07-11T05:23:49.583Z</time>
      </trkpt>
      <trkpt lat="44.22405" lon="5.09066">
        <ele>225</ele>
        <time>2020-07-11T05:23:50.582Z</time>
      </trkpt>
      <trkpt lat="44.22401" lon="5.09073">
        <ele>225</ele>
        <time>2020-07-11T05:23:51.583Z</time>
      </trkpt>
      <trkpt lat="44.22397" lon="5.0908">
        <ele>225</ele>
        <time>2020-07-11T05:23:52.583Z</time>
      </trkpt>
      <trkpt lat="44.22394" lon="5.09088">
        <ele>224</ele>
        <time>2020-07-11T05:23:53.583Z</time>
      </trkpt>
      <trkpt lat="44.2239" lon="5.09095">
        <ele>224</ele>
        <time>2020-07-11T05:23:54.583Z</time>
      </trkpt>
      <trkpt lat="44.22386" lon="5.09104">
        <ele>224</ele>
        <time>2020-07-11T05:23:55.583Z</time>
      </trkpt>
      <trkpt lat="44.22383" lon="5.09112">
        <ele>224</ele>
        <time>2020-07-11T05:23:56.583Z</time>
      </trkpt>
      <trkpt lat="44.2238" lon="5.0912">
        <ele>224</ele>
        <time>2020-07-11T05:23:57.583Z</time>
      </trkpt>
      <trkpt lat="44.22377" lon="5.09128">
        <ele>224</ele>
        <time>2020-07-11T05:23:58.582Z</time>
      </trkpt>
      <trkpt lat="44.22374" lon="5.09137">
        <ele>225</ele>
        <time>2020-07-11T05:23:59.583Z</time>
      </trkpt>
      <trkpt lat="44.22371" lon="5.09146">
        <ele>225</ele>
        <time>2020-07-11T05:24:00.583Z</time>
      </trkpt>
      <trkpt lat="44.22368" lon="5.09155">
        <ele>225</ele>
        <time>2020-07-11T05:24:01.583Z</time>
      </trkpt>
      <trkpt lat="44.22365" lon="5.09164">
        <ele>225</ele>
        <time>2020-07-11T05:24:02.583Z</time>
      </trkpt>
      <trkpt lat="44.22363" lon="5.09173">
        <ele>226</ele>
        <time>2020-07-11T05:24:03.583Z</time>
      </trkpt>
      <trkpt lat="44.2236" lon="5.09182">
        <ele>227</ele>
        <time>2020-07-11T05:24:04.582Z</time>
      </trkpt>
      <trkpt lat="44.22357" lon="5.09191">
        <ele>227</ele>
        <time>2020-07-11T05:24:05.583Z</time>
      </trkpt>
      <trkpt lat="44.22355" lon="5.092">
        <ele>228</ele>
        <time>2020-07-11T05:24:06.582Z</time>
      </trkpt>
      <trkpt lat="44.22352" lon="5.0921">
        <ele>228</ele>
        <time>2020-07-11T05:24:07.582Z</time>
      </trkpt>
      <trkpt lat="44.22349" lon="5.09219">
        <ele>228</ele>
        <time>2020-07-11T05:24:08.583Z</time>
      </trkpt>
      <trkpt lat="44.22347" lon="5.09228">
        <ele>228</ele>
        <time>2020-07-11T05:24:09.583Z</time>
      </trkpt>
      <trkpt lat="44.22344" lon="5.09237">
        <ele>228</ele>
        <time>2020-07-11T05:24:10.583Z</time>
      </trkpt>
      <trkpt lat="44.22341" lon="5.09247">
        <ele>228</ele>
        <time>2020-07-11T05:24:11.583Z</time>
      </trkpt>
      <trkpt lat="44.22339" lon="5.09256">
        <ele>228</ele>
        <time>2020-07-11T05:24:12.583Z</time>
      </trkpt>
      <trkpt lat="44.22336" lon="5.09266">
        <ele>228</ele>
        <time>2020-07-11T05:24:13.582Z</time>
      </trkpt>
      <trkpt lat="44.22333" lon="5.09275">
        <ele>228</ele>
        <time>2020-07-11T05:24:14.582Z</time>
      </trkpt>
      <trkpt lat="44.2233" lon="5.09284">
        <ele>227</ele>
        <time>2020-07-11T05:24:15.582Z</time>
      </trkpt>
      <trkpt lat="44.22327" lon="5.09293">
        <ele>227</ele>
        <time>2020-07-11T05:24:16.582Z</time>
      </trkpt>
      <trkpt lat="44.22324" lon="5.09302">
        <ele>227</ele>
        <time>2020-07-11T05:24:17.583Z</time>
      </trkpt>
      <trkpt lat="44.2232" lon="5.09311">
        <ele>228</ele>
        <time>2020-07-11T05:24:18.583Z</time>
      </trkpt>
      <trkpt lat="44.22316" lon="5.0932">
        <ele>228</ele>
        <time>2020-07-11T05:24:19.583Z</time>
      </trkpt>
      <trkpt lat="44.22312" lon="5.09328">
        <ele>228</ele>
        <time>2020-07-11T05:24:20.582Z</time>
      </trkpt>
      <trkpt lat="44.22308" lon="5.09336">
        <ele>228</ele>
        <time>2020-07-11T05:24:21.583Z</time>
      </trkpt>
      <trkpt lat="44.22303" lon="5.09343">
        <ele>227</ele>
        <time>2020-07-11T05:24:22.583Z</time>
      </trkpt>
      <trkpt lat="44.22297" lon="5.0935">
        <ele>227</ele>
        <time>2020-07-11T05:24:23.583Z</time>
      </trkpt>
      <trkpt lat="44.22292" lon="5.09357">
        <ele>228</ele>
        <time>2020-07-11T05:24:24.583Z</time>
      </trkpt>
      <trkpt lat="44.22286" lon="5.09364">
        <ele>228</ele>
        <time>2020-07-11T05:24:25.582Z</time>
      </trkpt>
      <trkpt lat="44.22281" lon="5.0937">
        <ele>228</ele>
        <time>2020-07-11T05:24:26.583Z</time>
      </trkpt>
      <trkpt lat="44.22275" lon="5.09378">
        <ele>228</ele>
        <time>2020-07-11T05:24:27.582Z</time>
      </trkpt>
      <trkpt lat="44.22269" lon="5.09384">
        <ele>228</ele>
        <time>2020-07-11T05:24:28.582Z</time>
      </trkpt>
      <trkpt lat="44.22263" lon="5.0939">
        <ele>228</ele>
        <time>2020-07-11T05:24:29.582Z</time>
      </trkpt>
      <trkpt lat="44.22257" lon="5.09397">
        <ele>228</ele>
        <time>2020-07-11T05:24:30.582Z</time>
      </trkpt>
      <trkpt lat="44.22251" lon="5.09403">
        <ele>229</ele>
        <time>2020-07-11T05:24:31.583Z</time>
      </trkpt>
      <trkpt lat="44.22246" lon="5.09409">
        <ele>228</ele>
        <time>2020-07-11T05:24:32.583Z</time>
      </trkpt>
      <trkpt lat="44.2224" lon="5.09416">
        <ele>228</ele>
        <time>2020-07-11T05:24:33.583Z</time>
      </trkpt>
      <trkpt lat="44.22234" lon="5.09422">
        <ele>228</ele>
        <time>2020-07-11T05:24:34.583Z</time>
      </trkpt>
      <trkpt lat="44.22228" lon="5.09428">
        <ele>228</ele>
        <time>2020-07-11T05:24:35.583Z</time>
      </trkpt>
      <trkpt lat="44.22223" lon="5.09434">
        <ele>227</ele>
        <time>2020-07-11T05:24:36.582Z</time>
      </trkpt>
      <trkpt lat="44.22217" lon="5.0944">
        <ele>226</ele>
        <time>2020-07-11T05:24:37.583Z</time>
      </trkpt>
      <trkpt lat="44.22211" lon="5.09446">
        <ele>225</ele>
        <time>2020-07-11T05:24:38.583Z</time>
      </trkpt>
      <trkpt lat="44.22205" lon="5.09452">
        <ele>224</ele>
        <time>2020-07-11T05:24:39.582Z</time>
      </trkpt>
      <trkpt lat="44.22199" lon="5.09458">
        <ele>224</ele>
        <time>2020-07-11T05:24:40.583Z</time>
      </trkpt>
      <trkpt lat="44.22194" lon="5.09464">
        <ele>224</ele>
        <time>2020-07-11T05:24:41.582Z</time>
      </trkpt>
      <trkpt lat="44.22188" lon="5.0947">
        <ele>224</ele>
        <time>2020-07-11T05:24:42.583Z</time>
      </trkpt>
      <trkpt lat="44.22182" lon="5.09476">
        <ele>224</ele>
        <time>2020-07-11T05:24:43.582Z</time>
      </trkpt>
      <trkpt lat="44.22176" lon="5.09482">
        <ele>224</ele>
        <time>2020-07-11T05:24:44.582Z</time>
      </trkpt>
      <trkpt lat="44.22171" lon="5.09488">
        <ele>224</ele>
        <time>2020-07-11T05:24:45.583Z</time>
      </trkpt>
      <trkpt lat="44.22165" lon="5.09493">
        <ele>225</ele>
        <time>2020-07-11T05:24:46.583Z</time>
      </trkpt>
      <trkpt lat="44.22159" lon="5.09499">
        <ele>225</ele>
        <time>2020-07-11T05:24:47.582Z</time>
      </trkpt>
      <trkpt lat="44.22154" lon="5.09505">
        <ele>226</ele>
        <time>2020-07-11T05:24:48.583Z</time>
      </trkpt>
      <trkpt lat="44.22148" lon="5.0951">
        <ele>226</ele>
        <time>2020-07-11T05:24:49.583Z</time>
      </trkpt>
      <trkpt lat="44.22142" lon="5.09516">
        <ele>226</ele>
        <time>2020-07-11T05:24:50.583Z</time>
      </trkpt>
      <trkpt lat="44.22136" lon="5.09522">
        <ele>226</ele>
        <time>2020-07-11T05:24:51.583Z</time>
      </trkpt>
      <trkpt lat="44.22131" lon="5.09528">
        <ele>227</ele>
        <time>2020-07-11T05:24:52.583Z</time>
      </trkpt>
      <trkpt lat="44.22125" lon="5.09534">
        <ele>227</ele>
        <time>2020-07-11T05:24:53.582Z</time>
      </trkpt>
      <trkpt lat="44.22119" lon="5.0954">
        <ele>228</ele>
        <time>2020-07-11T05:24:54.582Z</time>
      </trkpt>
      <trkpt lat="44.22113" lon="5.09546">
        <ele>228</ele>
        <time>2020-07-11T05:24:55.583Z</time>
      </trkpt>
      <trkpt lat="44.22108" lon="5.09551">
        <ele>228</ele>
        <time>2020-07-11T05:24:56.583Z</time>
      </trkpt>
      <trkpt lat="44.22102" lon="5.09557">
        <ele>229</ele>
        <time>2020-07-11T05:24:57.582Z</time>
      </trkpt>
      <trkpt lat="44.22096" lon="5.09563">
        <ele>229</ele>
        <time>2020-07-11T05:24:58.582Z</time>
      </trkpt>
      <trkpt lat="44.22091" lon="5.09568">
        <ele>229</ele>
        <time>2020-07-11T05:24:59.582Z</time>
      </trkpt>
      <trkpt lat="44.22085" lon="5.09574">
        <ele>229</ele>
        <time>2020-07-11T05:25:00.583Z</time>
      </trkpt>
      <trkpt lat="44.22079" lon="5.0958">
        <ele>229</ele>
        <time>2020-07-11T05:25:01.582Z</time>
      </trkpt>
      <trkpt lat="44.22073" lon="5.09585">
        <ele>229</ele>
        <time>2020-07-11T05:25:02.582Z</time>
      </trkpt>
      <trkpt lat="44.22068" lon="5.0959">
        <ele>229</ele>
        <time>2020-07-11T05:25:03.583Z</time>
      </trkpt>
      <trkpt lat="44.22062" lon="5.09596">
        <ele>230</ele>
        <time>2020-07-11T05:25:04.582Z</time>
      </trkpt>
      <trkpt lat="44.22056" lon="5.09601">
        <ele>230</ele>
        <time>2020-07-11T05:25:05.583Z</time>
      </trkpt>
      <trkpt lat="44.22051" lon="5.09606">
        <ele>231</ele>
        <time>2020-07-11T05:25:06.583Z</time>
      </trkpt>
      <trkpt lat="44.22045" lon="5.09611">
        <ele>231</ele>
        <time>2020-07-11T05:25:07.583Z</time>
      </trkpt>
      <trkpt lat="44.22039" lon="5.09616">
        <ele>231</ele>
        <time>2020-07-11T05:25:08.582Z</time>
      </trkpt>
      <trkpt lat="44.22034" lon="5.09622">
        <ele>231</ele>
        <time>2020-07-11T05:25:09.583Z</time>
      </trkpt>
      <trkpt lat="44.22028" lon="5.09627">
        <ele>231</ele>
        <time>2020-07-11T05:25:10.582Z</time>
      </trkpt>
      <trkpt lat="44.22022" lon="5.09632">
        <ele>232</ele>
        <time>2020-07-11T05:25:11.583Z</time>
      </trkpt>
      <trkpt lat="44.22017" lon="5.09637">
        <ele>232</ele>
        <time>2020-07-11T05:25:12.583Z</time>
      </trkpt>
      <trkpt lat="44.22011" lon="5.09642">
        <ele>232</ele>
        <time>2020-07-11T05:25:13.583Z</time>
      </trkpt>
      <trkpt lat="44.22005" lon="5.09647">
        <ele>231</ele>
        <time>2020-07-11T05:25:14.583Z</time>
      </trkpt>
      <trkpt lat="44.22" lon="5.09652">
        <ele>231</ele>
        <time>2020-07-11T05:25:15.582Z</time>
      </trkpt>
      <trkpt lat="44.21994" lon="5.09657">
        <ele>231</ele>
        <time>2020-07-11T05:25:16.583Z</time>
      </trkpt>
      <trkpt lat="44.21988" lon="5.09662">
        <ele>231</ele>
        <time>2020-07-11T05:25:17.582Z</time>
      </trkpt>
      <trkpt lat="44.21982" lon="5.09667">
        <ele>231</ele>
        <time>2020-07-11T05:25:18.582Z</time>
      </trkpt>
      <trkpt lat="44.21977" lon="5.09671">
        <ele>230</ele>
        <time>2020-07-11T05:25:19.582Z</time>
      </trkpt>
      <trkpt lat="44.21971" lon="5.09676">
        <ele>230</ele>
        <time>2020-07-11T05:25:20.583Z</time>
      </trkpt>
      <trkpt lat="44.21965" lon="5.0968">
        <ele>230</ele>
        <time>2020-07-11T05:25:21.583Z</time>
      </trkpt>
      <trkpt lat="44.21959" lon="5.09684">
        <ele>230</ele>
        <time>2020-07-11T05:25:22.583Z</time>
      </trkpt>
      <trkpt lat="44.21953" lon="5.09687">
        <ele>230</ele>
        <time>2020-07-11T05:25:23.582Z</time>
      </trkpt>
      <trkpt lat="44.21947" lon="5.09691">
        <ele>231</ele>
        <time>2020-07-11T05:25:24.583Z</time>
      </trkpt>
      <trkpt lat="44.21941" lon="5.09695">
        <ele>231</ele>
        <time>2020-07-11T05:25:25.583Z</time>
      </trkpt>
      <trkpt lat="44.21935" lon="5.097">
        <ele>231</ele>
        <time>2020-07-11T05:25:26.583Z</time>
      </trkpt>
      <trkpt lat="44.2193" lon="5.09705">
        <ele>232</ele>
        <time>2020-07-11T05:25:27.582Z</time>
      </trkpt>
      <trkpt lat="44.21926" lon="5.09711">
        <ele>232</ele>
        <time>2020-07-11T05:25:28.582Z</time>
      </trkpt>
      <trkpt lat="44.21921" lon="5.09717">
        <ele>233</ele>
        <time>2020-07-11T05:25:29.583Z</time>
      </trkpt>
      <trkpt lat="44.21916" lon="5.09722">
        <ele>233</ele>
        <time>2020-07-11T05:25:30.582Z</time>
      </trkpt>
      <trkpt lat="44.2191" lon="5.09725">
        <ele>233</ele>
        <time>2020-07-11T05:25:31.582Z</time>
      </trkpt>
      <trkpt lat="44.21905" lon="5.09726">
        <ele>233</ele>
        <time>2020-07-11T05:25:32.583Z</time>
      </trkpt>
      <trkpt lat="44.21899" lon="5.09727">
        <ele>233</ele>
        <time>2020-07-11T05:25:33.583Z</time>
      </trkpt>
      <trkpt lat="44.21893" lon="5.09729">
        <ele>233</ele>
        <time>2020-07-11T05:25:34.582Z</time>
      </trkpt>
      <trkpt lat="44.21887" lon="5.09731">
        <ele>233</ele>
        <time>2020-07-11T05:25:35.583Z</time>
      </trkpt>
      <trkpt lat="44.21882" lon="5.09734">
        <ele>232</ele>
        <time>2020-07-11T05:25:36.582Z</time>
      </trkpt>
      <trkpt lat="44.21876" lon="5.09736">
        <ele>232</ele>
        <time>2020-07-11T05:25:37.582Z</time>
      </trkpt>
      <trkpt lat="44.2187" lon="5.09738">
        <ele>232</ele>
        <time>2020-07-11T05:25:38.582Z</time>
      </trkpt>
      <trkpt lat="44.21864" lon="5.0974">
        <ele>232</ele>
        <time>2020-07-11T05:25:39.582Z</time>
      </trkpt>
      <trkpt lat="44.21858" lon="5.09741">
        <ele>232</ele>
        <time>2020-07-11T05:25:40.583Z</time>
      </trkpt>
      <trkpt lat="44.21851" lon="5.09743">
        <ele>232</ele>
        <time>2020-07-11T05:25:41.583Z</time>
      </trkpt>
      <trkpt lat="44.21845" lon="5.09746">
        <ele>232</ele>
        <time>2020-07-11T05:25:42.583Z</time>
      </trkpt>
      <trkpt lat="44.21839" lon="5.09749">
        <ele>232</ele>
        <time>2020-07-11T05:25:43.582Z</time>
      </trkpt>
      <trkpt lat="44.21833" lon="5.09752">
        <ele>232</ele>
        <time>2020-07-11T05:25:44.583Z</time>
      </trkpt>
      <trkpt lat="44.21827" lon="5.09755">
        <ele>233</ele>
        <time>2020-07-11T05:25:45.583Z</time>
      </trkpt>
      <trkpt lat="44.21821" lon="5.09759">
        <ele>233</ele>
        <time>2020-07-11T05:25:46.583Z</time>
      </trkpt>
      <trkpt lat="44.21815" lon="5.09762">
        <ele>233</ele>
        <time>2020-07-11T05:25:47.583Z</time>
      </trkpt>
      <trkpt lat="44.21809" lon="5.09766">
        <ele>233</ele>
        <time>2020-07-11T05:25:48.583Z</time>
      </trkpt>
      <trkpt lat="44.21803" lon="5.0977">
        <ele>234</ele>
        <time>2020-07-11T05:25:49.583Z</time>
      </trkpt>
      <trkpt lat="44.21797" lon="5.09773">
        <ele>234</ele>
        <time>2020-07-11T05:25:50.582Z</time>
      </trkpt>
      <trkpt lat="44.21791" lon="5.09777">
        <ele>234</ele>
        <time>2020-07-11T05:25:51.583Z</time>
      </trkpt>
      <trkpt lat="44.21785" lon="5.0978">
        <ele>235</ele>
        <time>2020-07-11T05:25:52.582Z</time>
      </trkpt>
      <trkpt lat="44.21779" lon="5.09784">
        <ele>235</ele>
        <time>2020-07-11T05:25:53.582Z</time>
      </trkpt>
      <trkpt lat="44.21773" lon="5.09788">
        <ele>235</ele>
        <time>2020-07-11T05:25:54.582Z</time>
      </trkpt>
      <trkpt lat="44.21767" lon="5.09792">
        <ele>234</ele>
        <time>2020-07-11T05:25:55.582Z</time>
      </trkpt>
      <trkpt lat="44.21761" lon="5.09796">
        <ele>234</ele>
        <time>2020-07-11T05:25:56.583Z</time>
      </trkpt>
      <trkpt lat="44.21755" lon="5.098">
        <ele>234</ele>
        <time>2020-07-11T05:25:57.583Z</time>
      </trkpt>
      <trkpt lat="44.21749" lon="5.09804">
        <ele>233</ele>
        <time>2020-07-11T05:25:58.583Z</time>
      </trkpt>
      <trkpt lat="44.21743" lon="5.09808">
        <ele>233</ele>
        <time>2020-07-11T05:25:59.583Z</time>
      </trkpt>
      <trkpt lat="44.21736" lon="5.09812">
        <ele>233</ele>
        <time>2020-07-11T05:26:00.583Z</time>
      </trkpt>
      <trkpt lat="44.2173" lon="5.09816">
        <ele>233</ele>
        <time>2020-07-11T05:26:01.583Z</time>
      </trkpt>
      <trkpt lat="44.21724" lon="5.0982">
        <ele>233</ele>
        <time>2020-07-11T05:26:02.583Z</time>
      </trkpt>
      <trkpt lat="44.21718" lon="5.09824">
        <ele>232</ele>
        <time>2020-07-11T05:26:03.582Z</time>
      </trkpt>
      <trkpt lat="44.21712" lon="5.09829">
        <ele>233</ele>
        <time>2020-07-11T05:26:04.582Z</time>
      </trkpt>
      <trkpt lat="44.21706" lon="5.09833">
        <ele>233</ele>
        <time>2020-07-11T05:26:05.582Z</time>
      </trkpt>
      <trkpt lat="44.217" lon="5.09837">
        <ele>234</ele>
        <time>2020-07-11T05:26:06.582Z</time>
      </trkpt>
      <trkpt lat="44.21694" lon="5.09841">
        <ele>234</ele>
        <time>2020-07-11T05:26:07.583Z</time>
      </trkpt>
      <trkpt lat="44.21688" lon="5.09845">
        <ele>234</ele>
        <time>2020-07-11T05:26:08.583Z</time>
      </trkpt>
      <trkpt lat="44.21682" lon="5.09849">
        <ele>234</ele>
        <time>2020-07-11T05:26:09.582Z</time>
      </trkpt>
      <trkpt lat="44.21676" lon="5.09853">
        <ele>234</ele>
        <time>2020-07-11T05:26:10.583Z</time>
      </trkpt>
      <trkpt lat="44.2167" lon="5.09857">
        <ele>234</ele>
        <time>2020-07-11T05:26:11.582Z</time>
      </trkpt>
      <trkpt lat="44.21664" lon="5.09861">
        <ele>235</ele>
        <time>2020-07-11T05:26:12.582Z</time>
      </trkpt>
      <trkpt lat="44.21658" lon="5.09866">
        <ele>235</ele>
        <time>2020-07-11T05:26:13.583Z</time>
      </trkpt>
      <trkpt lat="44.21652" lon="5.0987">
        <ele>235</ele>
        <time>2020-07-11T05:26:14.583Z</time>
      </trkpt>
      <trkpt lat="44.21647" lon="5.09874">
        <ele>235</ele>
        <time>2020-07-11T05:26:15.582Z</time>
      </trkpt>
      <trkpt lat="44.21641" lon="5.09878">
        <ele>235</ele>
        <time>2020-07-11T05:26:16.582Z</time>
      </trkpt>
      <trkpt lat="44.21635" lon="5.09882">
        <ele>235</ele>
        <time>2020-07-11T05:26:17.582Z</time>
      </trkpt>
      <trkpt lat="44.21629" lon="5.09886">
        <ele>235</ele>
        <time>2020-07-11T05:26:18.582Z</time>
      </trkpt>
      <trkpt lat="44.21623" lon="5.0989">
        <ele>235</ele>
        <time>2020-07-11T05:26:19.583Z</time>
      </trkpt>
      <trkpt lat="44.21618" lon="5.09894">
        <ele>235</ele>
        <time>2020-07-11T05:26:20.582Z</time>
      </trkpt>
      <trkpt lat="44.21612" lon="5.09899">
        <ele>234</ele>
        <time>2020-07-11T05:26:21.583Z</time>
      </trkpt>
      <trkpt lat="44.21607" lon="5.09903">
        <ele>234</ele>
        <time>2020-07-11T05:26:22.583Z</time>
      </trkpt>
      <trkpt lat="44.21601" lon="5.09908">
        <ele>234</ele>
        <time>2020-07-11T05:26:23.582Z</time>
      </trkpt>
      <trkpt lat="44.21596" lon="5.09912">
        <ele>233</ele>
        <time>2020-07-11T05:26:24.582Z</time>
      </trkpt>
      <trkpt lat="44.21591" lon="5.09917">
        <ele>233</ele>
        <time>2020-07-11T05:26:25.582Z</time>
      </trkpt>
      <trkpt lat="44.21585" lon="5.09922">
        <ele>234</ele>
        <time>2020-07-11T05:26:26.583Z</time>
      </trkpt>
      <trkpt lat="44.21579" lon="5.09927">
        <ele>234</ele>
        <time>2020-07-11T05:26:27.582Z</time>
      </trkpt>
      <trkpt lat="44.21574" lon="5.09931">
        <ele>234</ele>
        <time>2020-07-11T05:26:28.583Z</time>
      </trkpt>
      <trkpt lat="44.21568" lon="5.09936">
        <ele>234</ele>
        <time>2020-07-11T05:26:29.582Z</time>
      </trkpt>
      <trkpt lat="44.21563" lon="5.09941">
        <ele>234</ele>
        <time>2020-07-11T05:26:30.582Z</time>
      </trkpt>
      <trkpt lat="44.21557" lon="5.09946">
        <ele>235</ele>
        <time>2020-07-11T05:26:31.582Z</time>
      </trkpt>
      <trkpt lat="44.21551" lon="5.0995">
        <ele>235</ele>
        <time>2020-07-11T05:26:32.583Z</time>
      </trkpt>
      <trkpt lat="44.21546" lon="5.09955">
        <ele>235</ele>
        <time>2020-07-11T05:26:33.582Z</time>
      </trkpt>
      <trkpt lat="44.2154" lon="5.09959">
        <ele>235</ele>
        <time>2020-07-11T05:26:34.583Z</time>
      </trkpt>
      <trkpt lat="44.21534" lon="5.09964">
        <ele>236</ele>
        <time>2020-07-11T05:26:35.582Z</time>
      </trkpt>
      <trkpt lat="44.21529" lon="5.09967">
        <ele>236</ele>
        <time>2020-07-11T05:26:36.582Z</time>
      </trkpt>
      <trkpt lat="44.21523" lon="5.09971">
        <ele>236</ele>
        <time>2020-07-11T05:26:37.582Z</time>
      </trkpt>
      <trkpt lat="44.21517" lon="5.09974">
        <ele>237</ele>
        <time>2020-07-11T05:26:38.583Z</time>
      </trkpt>
      <trkpt lat="44.21511" lon="5.09977">
        <ele>236</ele>
        <time>2020-07-11T05:26:39.582Z</time>
      </trkpt>
      <trkpt lat="44.21505" lon="5.0998">
        <ele>236</ele>
        <time>2020-07-11T05:26:40.583Z</time>
      </trkpt>
      <trkpt lat="44.21499" lon="5.09983">
        <ele>236</ele>
        <time>2020-07-11T05:26:41.583Z</time>
      </trkpt>
      <trkpt lat="44.21493" lon="5.09986">
        <ele>237</ele>
        <time>2020-07-11T05:26:42.583Z</time>
      </trkpt>
      <trkpt lat="44.21487" lon="5.09988">
        <ele>237</ele>
        <time>2020-07-11T05:26:43.582Z</time>
      </trkpt>
      <trkpt lat="44.21481" lon="5.09991">
        <ele>238</ele>
        <time>2020-07-11T05:26:44.583Z</time>
      </trkpt>
      <trkpt lat="44.21474" lon="5.09993">
        <ele>238</ele>
        <time>2020-07-11T05:26:45.583Z</time>
      </trkpt>
      <trkpt lat="44.21468" lon="5.09995">
        <ele>238</ele>
        <time>2020-07-11T05:26:46.582Z</time>
      </trkpt>
      <trkpt lat="44.21462" lon="5.09997">
        <ele>239</ele>
        <time>2020-07-11T05:26:47.582Z</time>
      </trkpt>
      <trkpt lat="44.21456" lon="5.09999">
        <ele>239</ele>
        <time>2020-07-11T05:26:48.582Z</time>
      </trkpt>
      <trkpt lat="44.2145" lon="5.10001">
        <ele>239</ele>
        <time>2020-07-11T05:26:49.582Z</time>
      </trkpt>
      <trkpt lat="44.21445" lon="5.10002">
        <ele>240</ele>
        <time>2020-07-11T05:26:50.583Z</time>
      </trkpt>
      <trkpt lat="44.21438" lon="5.10004">
        <ele>240</ele>
        <time>2020-07-11T05:26:51.583Z</time>
      </trkpt>
      <trkpt lat="44.21432" lon="5.10006">
        <ele>240</ele>
        <time>2020-07-11T05:26:52.583Z</time>
      </trkpt>
      <trkpt lat="44.21427" lon="5.10007">
        <ele>240</ele>
        <time>2020-07-11T05:26:53.582Z</time>
      </trkpt>
      <trkpt lat="44.21421" lon="5.10009">
        <ele>240</ele>
        <time>2020-07-11T05:26:54.582Z</time>
      </trkpt>
      <trkpt lat="44.21416" lon="5.1001">
        <ele>239</ele>
        <time>2020-07-11T05:26:55.583Z</time>
      </trkpt>
      <trkpt lat="44.21409" lon="5.10012">
        <ele>239</ele>
        <time>2020-07-11T05:26:56.582Z</time>
      </trkpt>
      <trkpt lat="44.21403" lon="5.10014">
        <ele>239</ele>
        <time>2020-07-11T05:26:57.583Z</time>
      </trkpt>
      <trkpt lat="44.21397" lon="5.10015">
        <ele>239</ele>
        <time>2020-07-11T05:26:58.583Z</time>
      </trkpt>
      <trkpt lat="44.21391" lon="5.10017">
        <ele>239</ele>
        <time>2020-07-11T05:26:59.583Z</time>
      </trkpt>
      <trkpt lat="44.21387" lon="5.10019">
        <ele>239</ele>
        <time>2020-07-11T05:27:00.583Z</time>
      </trkpt>
      <trkpt lat="44.2138" lon="5.10021">
        <ele>240</ele>
        <time>2020-07-11T05:27:01.583Z</time>
      </trkpt>
      <trkpt lat="44.21374" lon="5.10023">
        <ele>240</ele>
        <time>2020-07-11T05:27:02.583Z</time>
      </trkpt>
      <trkpt lat="44.21369" lon="5.10024">
        <ele>241</ele>
        <time>2020-07-11T05:27:03.583Z</time>
      </trkpt>
      <trkpt lat="44.21363" lon="5.10026">
        <ele>241</ele>
        <time>2020-07-11T05:27:04.583Z</time>
      </trkpt>
      <trkpt lat="44.21357" lon="5.10027">
        <ele>241</ele>
        <time>2020-07-11T05:27:05.583Z</time>
      </trkpt>
      <trkpt lat="44.21352" lon="5.10029">
        <ele>241</ele>
        <time>2020-07-11T05:27:06.583Z</time>
      </trkpt>
      <trkpt lat="44.21346" lon="5.1003">
        <ele>241</ele>
        <time>2020-07-11T05:27:07.582Z</time>
      </trkpt>
      <trkpt lat="44.21341" lon="5.10032">
        <ele>241</ele>
        <time>2020-07-11T05:27:08.583Z</time>
      </trkpt>
      <trkpt lat="44.21336" lon="5.10033">
        <ele>241</ele>
        <time>2020-07-11T05:27:09.583Z</time>
      </trkpt>
      <trkpt lat="44.2133" lon="5.10034">
        <ele>241</ele>
        <time>2020-07-11T05:27:10.582Z</time>
      </trkpt>
      <trkpt lat="44.21325" lon="5.10035">
        <ele>241</ele>
        <time>2020-07-11T05:27:11.582Z</time>
      </trkpt>
      <trkpt lat="44.21319" lon="5.10037">
        <ele>241</ele>
        <time>2020-07-11T05:27:12.583Z</time>
      </trkpt>
      <trkpt lat="44.21314" lon="5.10037">
        <ele>241</ele>
        <time>2020-07-11T05:27:13.583Z</time>
      </trkpt>
      <trkpt lat="44.21309" lon="5.10038">
        <ele>241</ele>
        <time>2020-07-11T05:27:14.583Z</time>
      </trkpt>
      <trkpt lat="44.21304" lon="5.10039">
        <ele>241</ele>
        <time>2020-07-11T05:27:15.583Z</time>
      </trkpt>
      <trkpt lat="44.21297" lon="5.1004">
        <ele>241</ele>
        <time>2020-07-11T05:27:16.582Z</time>
      </trkpt>
      <trkpt lat="44.21292" lon="5.1004">
        <ele>241</ele>
        <time>2020-07-11T05:27:17.583Z</time>
      </trkpt>
      <trkpt lat="44.21287" lon="5.10041">
        <ele>240</ele>
        <time>2020-07-11T05:27:18.583Z</time>
      </trkpt>
      <trkpt lat="44.21281" lon="5.10042">
        <ele>240</ele>
        <time>2020-07-11T05:27:19.583Z</time>
      </trkpt>
      <trkpt lat="44.21276" lon="5.10043">
        <ele>240</ele>
        <time>2020-07-11T05:27:20.583Z</time>
      </trkpt>
      <trkpt lat="44.2127" lon="5.10043">
        <ele>240</ele>
        <time>2020-07-11T05:27:21.582Z</time>
      </trkpt>
      <trkpt lat="44.21265" lon="5.10044">
        <ele>240</ele>
        <time>2020-07-11T05:27:22.583Z</time>
      </trkpt>
      <trkpt lat="44.21259" lon="5.10044">
        <ele>240</ele>
        <time>2020-07-11T05:27:23.583Z</time>
      </trkpt>
      <trkpt lat="44.21253" lon="5.10044">
        <ele>240</ele>
        <time>2020-07-11T05:27:24.582Z</time>
      </trkpt>
      <trkpt lat="44.21248" lon="5.10045">
        <ele>240</ele>
        <time>2020-07-11T05:27:25.582Z</time>
      </trkpt>
      <trkpt lat="44.21242" lon="5.10046">
        <ele>241</ele>
        <time>2020-07-11T05:27:26.582Z</time>
      </trkpt>
      <trkpt lat="44.21237" lon="5.10046">
        <ele>241</ele>
        <time>2020-07-11T05:27:27.583Z</time>
      </trkpt>
      <trkpt lat="44.21231" lon="5.10047">
        <ele>241</ele>
        <time>2020-07-11T05:27:28.582Z</time>
      </trkpt>
      <trkpt lat="44.21226" lon="5.10047">
        <ele>242</ele>
        <time>2020-07-11T05:27:29.582Z</time>
      </trkpt>
      <trkpt lat="44.2122" lon="5.10048">
        <ele>242</ele>
        <time>2020-07-11T05:27:30.583Z</time>
      </trkpt>
      <trkpt lat="44.21214" lon="5.10048">
        <ele>242</ele>
        <time>2020-07-11T05:27:31.582Z</time>
      </trkpt>
      <trkpt lat="44.21208" lon="5.10048">
        <ele>243</ele>
        <time>2020-07-11T05:27:32.582Z</time>
      </trkpt>
      <trkpt lat="44.21202" lon="5.10049">
        <ele>243</ele>
        <time>2020-07-11T05:27:33.583Z</time>
      </trkpt>
      <trkpt lat="44.21196" lon="5.1005">
        <ele>244</ele>
        <time>2020-07-11T05:27:34.582Z</time>
      </trkpt>
      <trkpt lat="44.2119" lon="5.10051">
        <ele>244</ele>
        <time>2020-07-11T05:27:35.582Z</time>
      </trkpt>
      <trkpt lat="44.21184" lon="5.10053">
        <ele>244</ele>
        <time>2020-07-11T05:27:36.582Z</time>
      </trkpt>
      <trkpt lat="44.21179" lon="5.10055">
        <ele>244</ele>
        <time>2020-07-11T05:27:37.583Z</time>
      </trkpt>
      <trkpt lat="44.21173" lon="5.10057">
        <ele>244</ele>
        <time>2020-07-11T05:27:38.583Z</time>
      </trkpt>
      <trkpt lat="44.21168" lon="5.1006">
        <ele>244</ele>
        <time>2020-07-11T05:27:39.583Z</time>
      </trkpt>
      <trkpt lat="44.21162" lon="5.10065">
        <ele>244</ele>
        <time>2020-07-11T05:27:40.583Z</time>
      </trkpt>
      <trkpt lat="44.21157" lon="5.10069">
        <ele>245</ele>
        <time>2020-07-11T05:27:41.583Z</time>
      </trkpt>
      <trkpt lat="44.21151" lon="5.10074">
        <ele>245</ele>
        <time>2020-07-11T05:27:42.582Z</time>
      </trkpt>
      <trkpt lat="44.21146" lon="5.10079">
        <ele>246</ele>
        <time>2020-07-11T05:27:43.582Z</time>
      </trkpt>
      <trkpt lat="44.21141" lon="5.10084">
        <ele>247</ele>
        <time>2020-07-11T05:27:44.582Z</time>
      </trkpt>
      <trkpt lat="44.21135" lon="5.1009">
        <ele>247</ele>
        <time>2020-07-11T05:27:45.582Z</time>
      </trkpt>
      <trkpt lat="44.21129" lon="5.10096">
        <ele>247</ele>
        <time>2020-07-11T05:27:46.583Z</time>
      </trkpt>
      <trkpt lat="44.21124" lon="5.10102">
        <ele>247</ele>
        <time>2020-07-11T05:27:47.582Z</time>
      </trkpt>
      <trkpt lat="44.21118" lon="5.10108">
        <ele>247</ele>
        <time>2020-07-11T05:27:48.582Z</time>
      </trkpt>
      <trkpt lat="44.21112" lon="5.10114">
        <ele>247</ele>
        <time>2020-07-11T05:27:49.582Z</time>
      </trkpt>
      <trkpt lat="44.21107" lon="5.1012">
        <ele>247</ele>
        <time>2020-07-11T05:27:50.582Z</time>
      </trkpt>
      <trkpt lat="44.21101" lon="5.10126">
        <ele>247</ele>
        <time>2020-07-11T05:27:51.582Z</time>
      </trkpt>
      <trkpt lat="44.21095" lon="5.10131">
        <ele>247</ele>
        <time>2020-07-11T05:27:52.582Z</time>
      </trkpt>
      <trkpt lat="44.21091" lon="5.10136">
        <ele>248</ele>
        <time>2020-07-11T05:27:53.583Z</time>
      </trkpt>
      <trkpt lat="44.21084" lon="5.10143">
        <ele>248</ele>
        <time>2020-07-11T05:27:54.583Z</time>
      </trkpt>
      <trkpt lat="44.2108" lon="5.10148">
        <ele>248</ele>
        <time>2020-07-11T05:27:55.583Z</time>
      </trkpt>
      <trkpt lat="44.21073" lon="5.10155">
        <ele>248</ele>
        <time>2020-07-11T05:27:56.583Z</time>
      </trkpt>
      <trkpt lat="44.21068" lon="5.10161">
        <ele>248</ele>
        <time>2020-07-11T05:27:57.583Z</time>
      </trkpt>
      <trkpt lat="44.21063" lon="5.10167">
        <ele>248</ele>
        <time>2020-07-11T05:27:58.583Z</time>
      </trkpt>
      <trkpt lat="44.21059" lon="5.10172">
        <ele>249</ele>
        <time>2020-07-11T05:27:59.583Z</time>
      </trkpt>
      <trkpt lat="44.21054" lon="5.10179">
        <ele>249</ele>
        <time>2020-07-11T05:28:00.582Z</time>
      </trkpt>
      <trkpt lat="44.21049" lon="5.10185">
        <ele>249</ele>
        <time>2020-07-11T05:28:01.582Z</time>
      </trkpt>
      <trkpt lat="44.21043" lon="5.10193">
        <ele>250</ele>
        <time>2020-07-11T05:28:02.582Z</time>
      </trkpt>
      <trkpt lat="44.21039" lon="5.102">
        <ele>250</ele>
        <time>2020-07-11T05:28:03.582Z</time>
      </trkpt>
      <trkpt lat="44.21035" lon="5.10205">
        <ele>250</ele>
        <time>2020-07-11T05:28:04.582Z</time>
      </trkpt>
      <trkpt lat="44.2103" lon="5.10212">
        <ele>251</ele>
        <time>2020-07-11T05:28:05.583Z</time>
      </trkpt>
      <trkpt lat="44.21026" lon="5.10218">
        <ele>250</ele>
        <time>2020-07-11T05:28:06.583Z</time>
      </trkpt>
      <trkpt lat="44.21021" lon="5.10225">
        <ele>250</ele>
        <time>2020-07-11T05:28:07.583Z</time>
      </trkpt>
      <trkpt lat="44.21017" lon="5.10231">
        <ele>250</ele>
        <time>2020-07-11T05:28:08.582Z</time>
      </trkpt>
      <trkpt lat="44.21014" lon="5.10235">
        <ele>250</ele>
        <time>2020-07-11T05:28:09.583Z</time>
      </trkpt>
      <trkpt lat="44.2101" lon="5.10241">
        <ele>251</ele>
        <time>2020-07-11T05:28:10.583Z</time>
      </trkpt>
      <trkpt lat="44.21005" lon="5.10248">
        <ele>251</ele>
        <time>2020-07-11T05:28:11.582Z</time>
      </trkpt>
      <trkpt lat="44.21" lon="5.10253">
        <ele>250</ele>
        <time>2020-07-11T05:28:12.582Z</time>
      </trkpt>
      <trkpt lat="44.20996" lon="5.10258">
        <ele>250</ele>
        <time>2020-07-11T05:28:13.582Z</time>
      </trkpt>
      <trkpt lat="44.20991" lon="5.10263">
        <ele>251</ele>
        <time>2020-07-11T05:28:14.583Z</time>
      </trkpt>
      <trkpt lat="44.20987" lon="5.10268">
        <ele>251</ele>
        <time>2020-07-11T05:28:15.583Z</time>
      </trkpt>
      <trkpt lat="44.20983" lon="5.10272">
        <ele>251</ele>
        <time>2020-07-11T05:28:16.583Z</time>
      </trkpt>
      <trkpt lat="44.20978" lon="5.10277">
        <ele>251</ele>
        <time>2020-07-11T05:28:17.583Z</time>
      </trkpt>
      <trkpt lat="44.20973" lon="5.10281">
        <ele>252</ele>
        <time>2020-07-11T05:28:18.583Z</time>
      </trkpt>
      <trkpt lat="44.2097" lon="5.10284">
        <ele>253</ele>
        <time>2020-07-11T05:28:19.583Z</time>
      </trkpt>
      <trkpt lat="44.20965" lon="5.10289">
        <ele>253</ele>
        <time>2020-07-11T05:28:20.583Z</time>
      </trkpt>
      <trkpt lat="44.20961" lon="5.10293">
        <ele>254</ele>
        <time>2020-07-11T05:28:21.582Z</time>
      </trkpt>
      <trkpt lat="44.20956" lon="5.10297">
        <ele>254</ele>
        <time>2020-07-11T05:28:22.582Z</time>
      </trkpt>
      <trkpt lat="44.20952" lon="5.10301">
        <ele>255</ele>
        <time>2020-07-11T05:28:23.583Z</time>
      </trkpt>
      <trkpt lat="44.20947" lon="5.10306">
        <ele>255</ele>
        <time>2020-07-11T05:28:24.583Z</time>
      </trkpt>
      <trkpt lat="44.20943" lon="5.1031">
        <ele>255</ele>
        <time>2020-07-11T05:28:25.583Z</time>
      </trkpt>
      <trkpt lat="44.20939" lon="5.10314">
        <ele>256</ele>
        <time>2020-07-11T05:28:26.583Z</time>
      </trkpt>
      <trkpt lat="44.20935" lon="5.10318">
        <ele>256</ele>
        <time>2020-07-11T05:28:27.583Z</time>
      </trkpt>
      <trkpt lat="44.20931" lon="5.10323">
        <ele>256</ele>
        <time>2020-07-11T05:28:28.582Z</time>
      </trkpt>
      <trkpt lat="44.20927" lon="5.10327">
        <ele>257</ele>
        <time>2020-07-11T05:28:29.583Z</time>
      </trkpt>
      <trkpt lat="44.20922" lon="5.10332">
        <ele>258</ele>
        <time>2020-07-11T05:28:30.583Z</time>
      </trkpt>
      <trkpt lat="44.20918" lon="5.10336">
        <ele>258</ele>
        <time>2020-07-11T05:28:31.583Z</time>
      </trkpt>
      <trkpt lat="44.20914" lon="5.10341">
        <ele>258</ele>
        <time>2020-07-11T05:28:32.583Z</time>
      </trkpt>
      <trkpt lat="44.2091" lon="5.10347">
        <ele>259</ele>
        <time>2020-07-11T05:28:33.583Z</time>
      </trkpt>
      <trkpt lat="44.20905" lon="5.10352">
        <ele>259</ele>
        <time>2020-07-11T05:28:34.583Z</time>
      </trkpt>
      <trkpt lat="44.20901" lon="5.10358">
        <ele>259</ele>
        <time>2020-07-11T05:28:35.583Z</time>
      </trkpt>
      <trkpt lat="44.20897" lon="5.10364">
        <ele>259</ele>
        <time>2020-07-11T05:28:36.583Z</time>
      </trkpt>
      <trkpt lat="44.20892" lon="5.10369">
        <ele>259</ele>
        <time>2020-07-11T05:28:37.583Z</time>
      </trkpt>
      <trkpt lat="44.20888" lon="5.10375">
        <ele>260</ele>
        <time>2020-07-11T05:28:38.583Z</time>
      </trkpt>
      <trkpt lat="44.20883" lon="5.10381">
        <ele>260</ele>
        <time>2020-07-11T05:28:39.583Z</time>
      </trkpt>
      <trkpt lat="44.20878" lon="5.10386">
        <ele>259</ele>
        <time>2020-07-11T05:28:40.583Z</time>
      </trkpt>
      <trkpt lat="44.20874" lon="5.10392">
        <ele>259</ele>
        <time>2020-07-11T05:28:41.583Z</time>
      </trkpt>
      <trkpt lat="44.20869" lon="5.10398">
        <ele>259</ele>
        <time>2020-07-11T05:28:42.583Z</time>
      </trkpt>
      <trkpt lat="44.20864" lon="5.10404">
        <ele>259</ele>
        <time>2020-07-11T05:28:43.582Z</time>
      </trkpt>
      <trkpt lat="44.2086" lon="5.1041">
        <ele>259</ele>
        <time>2020-07-11T05:28:44.582Z</time>
      </trkpt>
      <trkpt lat="44.20855" lon="5.10416">
        <ele>259</ele>
        <time>2020-07-11T05:28:45.582Z</time>
      </trkpt>
      <trkpt lat="44.2085" lon="5.10422">
        <ele>259</ele>
        <time>2020-07-11T05:28:46.583Z</time>
      </trkpt>
      <trkpt lat="44.20845" lon="5.10428">
        <ele>259</ele>
        <time>2020-07-11T05:28:47.582Z</time>
      </trkpt>
      <trkpt lat="44.2084" lon="5.10433">
        <ele>259</ele>
        <time>2020-07-11T05:28:48.583Z</time>
      </trkpt>
      <trkpt lat="44.20834" lon="5.10439">
        <ele>259</ele>
        <time>2020-07-11T05:28:49.582Z</time>
      </trkpt>
      <trkpt lat="44.20829" lon="5.10443">
        <ele>259</ele>
        <time>2020-07-11T05:28:50.583Z</time>
      </trkpt>
      <trkpt lat="44.20823" lon="5.10448">
        <ele>258</ele>
        <time>2020-07-11T05:28:51.582Z</time>
      </trkpt>
      <trkpt lat="44.20817" lon="5.10453">
        <ele>258</ele>
        <time>2020-07-11T05:28:52.583Z</time>
      </trkpt>
      <trkpt lat="44.2081" lon="5.10457">
        <ele>258</ele>
        <time>2020-07-11T05:28:53.583Z</time>
      </trkpt>
      <trkpt lat="44.20804" lon="5.10461">
        <ele>258</ele>
        <time>2020-07-11T05:28:54.583Z</time>
      </trkpt>
      <trkpt lat="44.20798" lon="5.10465">
        <ele>257</ele>
        <time>2020-07-11T05:28:55.582Z</time>
      </trkpt>
      <trkpt lat="44.20791" lon="5.10468">
        <ele>257</ele>
        <time>2020-07-11T05:28:56.582Z</time>
      </trkpt>
      <trkpt lat="44.20785" lon="5.10472">
        <ele>257</ele>
        <time>2020-07-11T05:28:57.582Z</time>
      </trkpt>
      <trkpt lat="44.20779" lon="5.10476">
        <ele>256</ele>
        <time>2020-07-11T05:28:58.583Z</time>
      </trkpt>
      <trkpt lat="44.20772" lon="5.1048">
        <ele>256</ele>
        <time>2020-07-11T05:28:59.582Z</time>
      </trkpt>
      <trkpt lat="44.20766" lon="5.10484">
        <ele>256</ele>
        <time>2020-07-11T05:29:00.583Z</time>
      </trkpt>
      <trkpt lat="44.2076" lon="5.10487">
        <ele>256</ele>
        <time>2020-07-11T05:29:01.583Z</time>
      </trkpt>
      <trkpt lat="44.20754" lon="5.10491">
        <ele>256</ele>
        <time>2020-07-11T05:29:02.583Z</time>
      </trkpt>
      <trkpt lat="44.20748" lon="5.10495">
        <ele>256</ele>
        <time>2020-07-11T05:29:03.583Z</time>
      </trkpt>
      <trkpt lat="44.20741" lon="5.10498">
        <ele>256</ele>
        <time>2020-07-11T05:29:04.583Z</time>
      </trkpt>
      <trkpt lat="44.20735" lon="5.10502">
        <ele>256</ele>
        <time>2020-07-11T05:29:05.583Z</time>
      </trkpt>
      <trkpt lat="44.20729" lon="5.10506">
        <ele>255</ele>
        <time>2020-07-11T05:29:06.583Z</time>
      </trkpt>
      <trkpt lat="44.20723" lon="5.1051">
        <ele>255</ele>
        <time>2020-07-11T05:29:07.583Z</time>
      </trkpt>
      <trkpt lat="44.20717" lon="5.10514">
        <ele>255</ele>
        <time>2020-07-11T05:29:08.583Z</time>
      </trkpt>
      <trkpt lat="44.20711" lon="5.10519">
        <ele>255</ele>
        <time>2020-07-11T05:29:09.582Z</time>
      </trkpt>
      <trkpt lat="44.20704" lon="5.10523">
        <ele>255</ele>
        <time>2020-07-11T05:29:10.582Z</time>
      </trkpt>
      <trkpt lat="44.20698" lon="5.10527">
        <ele>255</ele>
        <time>2020-07-11T05:29:11.582Z</time>
      </trkpt>
      <trkpt lat="44.20692" lon="5.10531">
        <ele>255</ele>
        <time>2020-07-11T05:29:12.583Z</time>
      </trkpt>
      <trkpt lat="44.20686" lon="5.10535">
        <ele>255</ele>
        <time>2020-07-11T05:29:13.583Z</time>
      </trkpt>
      <trkpt lat="44.20679" lon="5.10539">
        <ele>255</ele>
        <time>2020-07-11T05:29:14.582Z</time>
      </trkpt>
      <trkpt lat="44.20673" lon="5.10542">
        <ele>256</ele>
        <time>2020-07-11T05:29:15.582Z</time>
      </trkpt>
      <trkpt lat="44.20667" lon="5.10546">
        <ele>256</ele>
        <time>2020-07-11T05:29:16.582Z</time>
      </trkpt>
      <trkpt lat="44.2066" lon="5.1055">
        <ele>256</ele>
        <time>2020-07-11T05:29:17.583Z</time>
      </trkpt>
      <trkpt lat="44.20654" lon="5.10554">
        <ele>256</ele>
        <time>2020-07-11T05:29:18.583Z</time>
      </trkpt>
      <trkpt lat="44.20647" lon="5.10559">
        <ele>256</ele>
        <time>2020-07-11T05:29:19.583Z</time>
      </trkpt>
      <trkpt lat="44.20641" lon="5.10563">
        <ele>257</ele>
        <time>2020-07-11T05:29:20.583Z</time>
      </trkpt>
      <trkpt lat="44.20634" lon="5.10567">
        <ele>257</ele>
        <time>2020-07-11T05:29:21.582Z</time>
      </trkpt>
      <trkpt lat="44.20628" lon="5.10571">
        <ele>257</ele>
        <time>2020-07-11T05:29:22.583Z</time>
      </trkpt>
      <trkpt lat="44.20622" lon="5.10574">
        <ele>258</ele>
        <time>2020-07-11T05:29:23.583Z</time>
      </trkpt>
      <trkpt lat="44.20616" lon="5.10578">
        <ele>258</ele>
        <time>2020-07-11T05:29:24.582Z</time>
      </trkpt>
      <trkpt lat="44.2061" lon="5.10582">
        <ele>258</ele>
        <time>2020-07-11T05:29:25.582Z</time>
      </trkpt>
      <trkpt lat="44.20604" lon="5.10586">
        <ele>258</ele>
        <time>2020-07-11T05:29:26.582Z</time>
      </trkpt>
      <trkpt lat="44.20598" lon="5.10589">
        <ele>258</ele>
        <time>2020-07-11T05:29:27.583Z</time>
      </trkpt>
      <trkpt lat="44.20592" lon="5.10593">
        <ele>258</ele>
        <time>2020-07-11T05:29:28.583Z</time>
      </trkpt>
      <trkpt lat="44.20586" lon="5.10597">
        <ele>258</ele>
        <time>2020-07-11T05:29:29.583Z</time>
      </trkpt>
      <trkpt lat="44.20579" lon="5.10601">
        <ele>258</ele>
        <time>2020-07-11T05:29:30.582Z</time>
      </trkpt>
      <trkpt lat="44.20573" lon="5.10604">
        <ele>259</ele>
        <time>2020-07-11T05:29:31.582Z</time>
      </trkpt>
      <trkpt lat="44.20567" lon="5.10608">
        <ele>259</ele>
        <time>2020-07-11T05:29:32.583Z</time>
      </trkpt>
      <trkpt lat="44.20561" lon="5.10612">
        <ele>260</ele>
        <time>2020-07-11T05:29:33.582Z</time>
      </trkpt>
      <trkpt lat="44.20555" lon="5.10615">
        <ele>260</ele>
        <time>2020-07-11T05:29:34.583Z</time>
      </trkpt>
      <trkpt lat="44.20548" lon="5.1062">
        <ele>261</ele>
        <time>2020-07-11T05:29:35.582Z</time>
      </trkpt>
      <trkpt lat="44.20543" lon="5.10622">
        <ele>261</ele>
        <time>2020-07-11T05:29:36.582Z</time>
      </trkpt>
      <trkpt lat="44.20538" lon="5.10626">
        <ele>261</ele>
        <time>2020-07-11T05:29:37.582Z</time>
      </trkpt>
      <trkpt lat="44.20532" lon="5.10629">
        <ele>261</ele>
        <time>2020-07-11T05:29:38.583Z</time>
      </trkpt>
      <trkpt lat="44.20526" lon="5.10633">
        <ele>261</ele>
        <time>2020-07-11T05:29:39.582Z</time>
      </trkpt>
      <trkpt lat="44.2052" lon="5.10636">
        <ele>261</ele>
        <time>2020-07-11T05:29:40.583Z</time>
      </trkpt>
      <trkpt lat="44.20515" lon="5.10639">
        <ele>261</ele>
        <time>2020-07-11T05:29:41.583Z</time>
      </trkpt>
      <trkpt lat="44.20509" lon="5.10642">
        <ele>261</ele>
        <time>2020-07-11T05:29:42.583Z</time>
      </trkpt>
      <trkpt lat="44.20503" lon="5.10646">
        <ele>261</ele>
        <time>2020-07-11T05:29:43.582Z</time>
      </trkpt>
      <trkpt lat="44.20497" lon="5.10649">
        <ele>261</ele>
        <time>2020-07-11T05:29:44.583Z</time>
      </trkpt>
      <trkpt lat="44.20491" lon="5.10652">
        <ele>261</ele>
        <time>2020-07-11T05:29:45.582Z</time>
      </trkpt>
      <trkpt lat="44.20485" lon="5.10656">
        <ele>261</ele>
        <time>2020-07-11T05:29:46.583Z</time>
      </trkpt>
      <trkpt lat="44.20479" lon="5.1066">
        <ele>261</ele>
        <time>2020-07-11T05:29:47.583Z</time>
      </trkpt>
      <trkpt lat="44.20472" lon="5.10664">
        <ele>261</ele>
        <time>2020-07-11T05:29:48.583Z</time>
      </trkpt>
      <trkpt lat="44.20466" lon="5.10668">
        <ele>262</ele>
        <time>2020-07-11T05:29:49.583Z</time>
      </trkpt>
      <trkpt lat="44.20459" lon="5.10673">
        <ele>262</ele>
        <time>2020-07-11T05:29:50.582Z</time>
      </trkpt>
      <trkpt lat="44.20453" lon="5.10678">
        <ele>262</ele>
        <time>2020-07-11T05:29:51.583Z</time>
      </trkpt>
      <trkpt lat="44.20445" lon="5.10685">
        <ele>262</ele>
        <time>2020-07-11T05:29:52.582Z</time>
      </trkpt>
      <trkpt lat="44.2044" lon="5.1069">
        <ele>262</ele>
        <time>2020-07-11T05:29:53.583Z</time>
      </trkpt>
      <trkpt lat="44.20434" lon="5.10696">
        <ele>262</ele>
        <time>2020-07-11T05:29:54.583Z</time>
      </trkpt>
      <trkpt lat="44.20429" lon="5.10703">
        <ele>262</ele>
        <time>2020-07-11T05:29:55.582Z</time>
      </trkpt>
      <trkpt lat="44.20423" lon="5.10711">
        <ele>262</ele>
        <time>2020-07-11T05:29:56.583Z</time>
      </trkpt>
      <trkpt lat="44.20418" lon="5.10718">
        <ele>261</ele>
        <time>2020-07-11T05:29:57.582Z</time>
      </trkpt>
      <trkpt lat="44.20413" lon="5.10726">
        <ele>261</ele>
        <time>2020-07-11T05:29:58.582Z</time>
      </trkpt>
      <trkpt lat="44.20408" lon="5.10733">
        <ele>261</ele>
        <time>2020-07-11T05:29:59.582Z</time>
      </trkpt>
      <trkpt lat="44.20403" lon="5.10741">
        <ele>261</ele>
        <time>2020-07-11T05:30:00.582Z</time>
      </trkpt>
      <trkpt lat="44.20397" lon="5.10749">
        <ele>261</ele>
        <time>2020-07-11T05:30:01.582Z</time>
      </trkpt>
      <trkpt lat="44.20392" lon="5.10758">
        <ele>261</ele>
        <time>2020-07-11T05:30:02.582Z</time>
      </trkpt>
      <trkpt lat="44.20387" lon="5.10766">
        <ele>261</ele>
        <time>2020-07-11T05:30:03.583Z</time>
      </trkpt>
      <trkpt lat="44.20382" lon="5.10773">
        <ele>261</ele>
        <time>2020-07-11T05:30:04.582Z</time>
      </trkpt>
      <trkpt lat="44.20377" lon="5.10781">
        <ele>261</ele>
        <time>2020-07-11T05:30:05.583Z</time>
      </trkpt>
      <trkpt lat="44.20372" lon="5.10789">
        <ele>260</ele>
        <time>2020-07-11T05:30:06.582Z</time>
      </trkpt>
      <trkpt lat="44.20367" lon="5.10797">
        <ele>260</ele>
        <time>2020-07-11T05:30:07.582Z</time>
      </trkpt>
      <trkpt lat="44.20362" lon="5.10805">
        <ele>260</ele>
        <time>2020-07-11T05:30:08.582Z</time>
      </trkpt>
      <trkpt lat="44.20357" lon="5.10813">
        <ele>260</ele>
        <time>2020-07-11T05:30:09.583Z</time>
      </trkpt>
      <trkpt lat="44.20352" lon="5.10821">
        <ele>260</ele>
        <time>2020-07-11T05:30:10.583Z</time>
      </trkpt>
      <trkpt lat="44.20347" lon="5.10829">
        <ele>261</ele>
        <time>2020-07-11T05:30:11.583Z</time>
      </trkpt>
      <trkpt lat="44.20342" lon="5.10837">
        <ele>261</ele>
        <time>2020-07-11T05:30:12.583Z</time>
      </trkpt>
      <trkpt lat="44.20337" lon="5.10844">
        <ele>261</ele>
        <time>2020-07-11T05:30:13.583Z</time>
      </trkpt>
      <trkpt lat="44.20332" lon="5.10852">
        <ele>261</ele>
        <time>2020-07-11T05:30:14.582Z</time>
      </trkpt>
      <trkpt lat="44.20327" lon="5.10859">
        <ele>261</ele>
        <time>2020-07-11T05:30:15.582Z</time>
      </trkpt>
      <trkpt lat="44.20322" lon="5.10866">
        <ele>261</ele>
        <time>2020-07-11T05:30:16.583Z</time>
      </trkpt>
      <trkpt lat="44.20318" lon="5.10873">
        <ele>260</ele>
        <time>2020-07-11T05:30:17.582Z</time>
      </trkpt>
      <trkpt lat="44.20313" lon="5.1088">
        <ele>260</ele>
        <time>2020-07-11T05:30:18.583Z</time>
      </trkpt>
      <trkpt lat="44.20308" lon="5.10887">
        <ele>260</ele>
        <time>2020-07-11T05:30:19.583Z</time>
      </trkpt>
      <trkpt lat="44.20303" lon="5.10894">
        <ele>259</ele>
        <time>2020-07-11T05:30:20.582Z</time>
      </trkpt>
      <trkpt lat="44.20298" lon="5.10902">
        <ele>260</ele>
        <time>2020-07-11T05:30:21.582Z</time>
      </trkpt>
      <trkpt lat="44.20293" lon="5.10909">
        <ele>259</ele>
        <time>2020-07-11T05:30:22.583Z</time>
      </trkpt>
      <trkpt lat="44.20288" lon="5.10915">
        <ele>259</ele>
        <time>2020-07-11T05:30:23.582Z</time>
      </trkpt>
      <trkpt lat="44.20283" lon="5.10922">
        <ele>259</ele>
        <time>2020-07-11T05:30:24.582Z</time>
      </trkpt>
      <trkpt lat="44.20278" lon="5.10929">
        <ele>259</ele>
        <time>2020-07-11T05:30:25.583Z</time>
      </trkpt>
      <trkpt lat="44.20273" lon="5.10936">
        <ele>259</ele>
        <time>2020-07-11T05:30:26.582Z</time>
      </trkpt>
      <trkpt lat="44.20268" lon="5.10943">
        <ele>259</ele>
        <time>2020-07-11T05:30:27.583Z</time>
      </trkpt>
      <trkpt lat="44.20263" lon="5.1095">
        <ele>259</ele>
        <time>2020-07-11T05:30:28.583Z</time>
      </trkpt>
      <trkpt lat="44.20258" lon="5.10957">
        <ele>259</ele>
        <time>2020-07-11T05:30:29.583Z</time>
      </trkpt>
      <trkpt lat="44.20253" lon="5.10964">
        <ele>259</ele>
        <time>2020-07-11T05:30:30.583Z</time>
      </trkpt>
      <trkpt lat="44.20248" lon="5.10971">
        <ele>259</ele>
        <time>2020-07-11T05:30:31.582Z</time>
      </trkpt>
      <trkpt lat="44.20243" lon="5.10977">
        <ele>260</ele>
        <time>2020-07-11T05:30:32.583Z</time>
      </trkpt>
      <trkpt lat="44.20238" lon="5.10984">
        <ele>260</ele>
        <time>2020-07-11T05:30:33.582Z</time>
      </trkpt>
      <trkpt lat="44.20233" lon="5.10991">
        <ele>260</ele>
        <time>2020-07-11T05:30:34.583Z</time>
      </trkpt>
      <trkpt lat="44.20228" lon="5.10998">
        <ele>260</ele>
        <time>2020-07-11T05:30:35.583Z</time>
      </trkpt>
      <trkpt lat="44.20223" lon="5.11005">
        <ele>260</ele>
        <time>2020-07-11T05:30:36.583Z</time>
      </trkpt>
      <trkpt lat="44.20218" lon="5.11012">
        <ele>261</ele>
        <time>2020-07-11T05:30:37.582Z</time>
      </trkpt>
      <trkpt lat="44.20213" lon="5.11019">
        <ele>261</ele>
        <time>2020-07-11T05:30:38.583Z</time>
      </trkpt>
      <trkpt lat="44.20208" lon="5.11027">
        <ele>262</ele>
        <time>2020-07-11T05:30:39.583Z</time>
      </trkpt>
      <trkpt lat="44.20203" lon="5.11034">
        <ele>263</ele>
        <time>2020-07-11T05:30:40.582Z</time>
      </trkpt>
      <trkpt lat="44.20198" lon="5.11041">
        <ele>263</ele>
        <time>2020-07-11T05:30:41.583Z</time>
      </trkpt>
      <trkpt lat="44.20193" lon="5.11048">
        <ele>264</ele>
        <time>2020-07-11T05:30:42.582Z</time>
      </trkpt>
      <trkpt lat="44.20188" lon="5.11055">
        <ele>264</ele>
        <time>2020-07-11T05:30:43.582Z</time>
      </trkpt>
      <trkpt lat="44.20183" lon="5.11062">
        <ele>264</ele>
        <time>2020-07-11T05:30:44.582Z</time>
      </trkpt>
      <trkpt lat="44.20178" lon="5.11068">
        <ele>264</ele>
        <time>2020-07-11T05:30:45.583Z</time>
      </trkpt>
      <trkpt lat="44.20174" lon="5.11075">
        <ele>264</ele>
        <time>2020-07-11T05:30:46.583Z</time>
      </trkpt>
      <trkpt lat="44.20169" lon="5.11082">
        <ele>264</ele>
        <time>2020-07-11T05:30:47.582Z</time>
      </trkpt>
      <trkpt lat="44.20164" lon="5.11089">
        <ele>264</ele>
        <time>2020-07-11T05:30:48.583Z</time>
      </trkpt>
      <trkpt lat="44.20159" lon="5.11096">
        <ele>263</ele>
        <time>2020-07-11T05:30:49.583Z</time>
      </trkpt>
      <trkpt lat="44.20155" lon="5.11103">
        <ele>263</ele>
        <time>2020-07-11T05:30:50.583Z</time>
      </trkpt>
      <trkpt lat="44.2015" lon="5.11109">
        <ele>264</ele>
        <time>2020-07-11T05:30:51.583Z</time>
      </trkpt>
      <trkpt lat="44.20145" lon="5.11116">
        <ele>264</ele>
        <time>2020-07-11T05:30:52.582Z</time>
      </trkpt>
      <trkpt lat="44.2014" lon="5.11122">
        <ele>265</ele>
        <time>2020-07-11T05:30:53.582Z</time>
      </trkpt>
      <trkpt lat="44.20135" lon="5.11129">
        <ele>265</ele>
        <time>2020-07-11T05:30:54.582Z</time>
      </trkpt>
      <trkpt lat="44.20131" lon="5.11135">
        <ele>264</ele>
        <time>2020-07-11T05:30:55.583Z</time>
      </trkpt>
      <trkpt lat="44.20126" lon="5.11141">
        <ele>264</ele>
        <time>2020-07-11T05:30:56.582Z</time>
      </trkpt>
      <trkpt lat="44.20121" lon="5.11148">
        <ele>264</ele>
        <time>2020-07-11T05:30:57.582Z</time>
      </trkpt>
      <trkpt lat="44.20117" lon="5.11155">
        <ele>264</ele>
        <time>2020-07-11T05:30:58.582Z</time>
      </trkpt>
      <trkpt lat="44.20112" lon="5.11162">
        <ele>264</ele>
        <time>2020-07-11T05:30:59.583Z</time>
      </trkpt>
      <trkpt lat="44.20108" lon="5.11168">
        <ele>264</ele>
        <time>2020-07-11T05:31:00.583Z</time>
      </trkpt>
      <trkpt lat="44.20103" lon="5.11174">
        <ele>264</ele>
        <time>2020-07-11T05:31:01.583Z</time>
      </trkpt>
      <trkpt lat="44.20099" lon="5.1118">
        <ele>264</ele>
        <time>2020-07-11T05:31:02.583Z</time>
      </trkpt>
      <trkpt lat="44.20094" lon="5.11186">
        <ele>264</ele>
        <time>2020-07-11T05:31:03.582Z</time>
      </trkpt>
      <trkpt lat="44.2009" lon="5.11193">
        <ele>263</ele>
        <time>2020-07-11T05:31:04.583Z</time>
      </trkpt>
      <trkpt lat="44.20085" lon="5.11199">
        <ele>264</ele>
        <time>2020-07-11T05:31:05.583Z</time>
      </trkpt>
      <trkpt lat="44.2008" lon="5.11205">
        <ele>264</ele>
        <time>2020-07-11T05:31:06.582Z</time>
      </trkpt>
      <trkpt lat="44.20076" lon="5.11211">
        <ele>264</ele>
        <time>2020-07-11T05:31:07.582Z</time>
      </trkpt>
      <trkpt lat="44.20071" lon="5.11217">
        <ele>264</ele>
        <time>2020-07-11T05:31:08.583Z</time>
      </trkpt>
      <trkpt lat="44.20066" lon="5.11223">
        <ele>265</ele>
        <time>2020-07-11T05:31:09.582Z</time>
      </trkpt>
      <trkpt lat="44.20062" lon="5.11228">
        <ele>265</ele>
        <time>2020-07-11T05:31:10.583Z</time>
      </trkpt>
      <trkpt lat="44.20057" lon="5.11234">
        <ele>266</ele>
        <time>2020-07-11T05:31:11.583Z</time>
      </trkpt>
      <trkpt lat="44.20052" lon="5.11239">
        <ele>267</ele>
        <time>2020-07-11T05:31:12.583Z</time>
      </trkpt>
      <trkpt lat="44.20047" lon="5.11245">
        <ele>267</ele>
        <time>2020-07-11T05:31:13.583Z</time>
      </trkpt>
      <trkpt lat="44.20042" lon="5.11251">
        <ele>267</ele>
        <time>2020-07-11T05:31:14.582Z</time>
      </trkpt>
      <trkpt lat="44.20036" lon="5.11256">
        <ele>267</ele>
        <time>2020-07-11T05:31:15.583Z</time>
      </trkpt>
      <trkpt lat="44.20031" lon="5.11262">
        <ele>267</ele>
        <time>2020-07-11T05:31:16.582Z</time>
      </trkpt>
      <trkpt lat="44.20026" lon="5.11268">
        <ele>268</ele>
        <time>2020-07-11T05:31:17.583Z</time>
      </trkpt>
      <trkpt lat="44.20021" lon="5.11274">
        <ele>268</ele>
        <time>2020-07-11T05:31:18.583Z</time>
      </trkpt>
      <trkpt lat="44.20015" lon="5.1128">
        <ele>268</ele>
        <time>2020-07-11T05:31:19.583Z</time>
      </trkpt>
      <trkpt lat="44.2001" lon="5.11286">
        <ele>268</ele>
        <time>2020-07-11T05:31:20.582Z</time>
      </trkpt>
      <trkpt lat="44.20005" lon="5.11291">
        <ele>268</ele>
        <time>2020-07-11T05:31:21.582Z</time>
      </trkpt>
      <trkpt lat="44.2" lon="5.11297">
        <ele>268</ele>
        <time>2020-07-11T05:31:22.583Z</time>
      </trkpt>
      <trkpt lat="44.19995" lon="5.11303">
        <ele>269</ele>
        <time>2020-07-11T05:31:23.582Z</time>
      </trkpt>
      <trkpt lat="44.19989" lon="5.11309">
        <ele>269</ele>
        <time>2020-07-11T05:31:24.583Z</time>
      </trkpt>
      <trkpt lat="44.19984" lon="5.11315">
        <ele>270</ele>
        <time>2020-07-11T05:31:25.582Z</time>
      </trkpt>
      <trkpt lat="44.1998" lon="5.1132">
        <ele>270</ele>
        <time>2020-07-11T05:31:26.583Z</time>
      </trkpt>
      <trkpt lat="44.19975" lon="5.11327">
        <ele>270</ele>
        <time>2020-07-11T05:31:27.582Z</time>
      </trkpt>
      <trkpt lat="44.1997" lon="5.11333">
        <ele>271</ele>
        <time>2020-07-11T05:31:28.583Z</time>
      </trkpt>
      <trkpt lat="44.19965" lon="5.11339">
        <ele>271</ele>
        <time>2020-07-11T05:31:29.582Z</time>
      </trkpt>
      <trkpt lat="44.1996" lon="5.11346">
        <ele>272</ele>
        <time>2020-07-11T05:31:30.583Z</time>
      </trkpt>
      <trkpt lat="44.19956" lon="5.11352">
        <ele>272</ele>
        <time>2020-07-11T05:31:31.582Z</time>
      </trkpt>
      <trkpt lat="44.19952" lon="5.11358">
        <ele>273</ele>
        <time>2020-07-11T05:31:32.582Z</time>
      </trkpt>
      <trkpt lat="44.19947" lon="5.11365">
        <ele>274</ele>
        <time>2020-07-11T05:31:33.583Z</time>
      </trkpt>
      <trkpt lat="44.19943" lon="5.11371">
        <ele>274</ele>
        <time>2020-07-11T05:31:34.582Z</time>
      </trkpt>
      <trkpt lat="44.19939" lon="5.11378">
        <ele>274</ele>
        <time>2020-07-11T05:31:35.583Z</time>
      </trkpt>
      <trkpt lat="44.19935" lon="5.11384">
        <ele>274</ele>
        <time>2020-07-11T05:31:36.582Z</time>
      </trkpt>
      <trkpt lat="44.1993" lon="5.11391">
        <ele>274</ele>
        <time>2020-07-11T05:31:37.582Z</time>
      </trkpt>
      <trkpt lat="44.19926" lon="5.11398">
        <ele>273</ele>
        <time>2020-07-11T05:31:38.583Z</time>
      </trkpt>
      <trkpt lat="44.19923" lon="5.11405">
        <ele>273</ele>
        <time>2020-07-11T05:31:39.583Z</time>
      </trkpt>
      <trkpt lat="44.19919" lon="5.11413">
        <ele>273</ele>
        <time>2020-07-11T05:31:40.583Z</time>
      </trkpt>
      <trkpt lat="44.19915" lon="5.1142">
        <ele>273</ele>
        <time>2020-07-11T05:31:41.583Z</time>
      </trkpt>
      <trkpt lat="44.19911" lon="5.11428">
        <ele>273</ele>
        <time>2020-07-11T05:31:42.583Z</time>
      </trkpt>
      <trkpt lat="44.19907" lon="5.11435">
        <ele>273</ele>
        <time>2020-07-11T05:31:43.582Z</time>
      </trkpt>
      <trkpt lat="44.19903" lon="5.11442">
        <ele>273</ele>
        <time>2020-07-11T05:31:44.583Z</time>
      </trkpt>
      <trkpt lat="44.199" lon="5.1145">
        <ele>273</ele>
        <time>2020-07-11T05:31:45.583Z</time>
      </trkpt>
      <trkpt lat="44.19896" lon="5.11457">
        <ele>273</ele>
        <time>2020-07-11T05:31:46.582Z</time>
      </trkpt>
      <trkpt lat="44.19892" lon="5.11464">
        <ele>273</ele>
        <time>2020-07-11T05:31:47.583Z</time>
      </trkpt>
      <trkpt lat="44.19888" lon="5.11472">
        <ele>273</ele>
        <time>2020-07-11T05:31:48.583Z</time>
      </trkpt>
      <trkpt lat="44.19884" lon="5.11479">
        <ele>272</ele>
        <time>2020-07-11T05:31:49.583Z</time>
      </trkpt>
      <trkpt lat="44.19881" lon="5.11486">
        <ele>272</ele>
        <time>2020-07-11T05:31:50.583Z</time>
      </trkpt>
      <trkpt lat="44.19877" lon="5.11493">
        <ele>272</ele>
        <time>2020-07-11T05:31:51.582Z</time>
      </trkpt>
      <trkpt lat="44.19873" lon="5.115">
        <ele>273</ele>
        <time>2020-07-11T05:31:52.583Z</time>
      </trkpt>
      <trkpt lat="44.19868" lon="5.11507">
        <ele>273</ele>
        <time>2020-07-11T05:31:53.583Z</time>
      </trkpt>
      <trkpt lat="44.19864" lon="5.11514">
        <ele>273</ele>
        <time>2020-07-11T05:31:54.583Z</time>
      </trkpt>
      <trkpt lat="44.1986" lon="5.11521">
        <ele>274</ele>
        <time>2020-07-11T05:31:55.583Z</time>
      </trkpt>
      <trkpt lat="44.19856" lon="5.11528">
        <ele>274</ele>
        <time>2020-07-11T05:31:56.582Z</time>
      </trkpt>
      <trkpt lat="44.19851" lon="5.11535">
        <ele>275</ele>
        <time>2020-07-11T05:31:57.583Z</time>
      </trkpt>
      <trkpt lat="44.19847" lon="5.11542">
        <ele>275</ele>
        <time>2020-07-11T05:31:58.583Z</time>
      </trkpt>
      <trkpt lat="44.19843" lon="5.11548">
        <ele>276</ele>
        <time>2020-07-11T05:31:59.582Z</time>
      </trkpt>
      <trkpt lat="44.19838" lon="5.11555">
        <ele>276</ele>
        <time>2020-07-11T05:32:00.582Z</time>
      </trkpt>
      <trkpt lat="44.19834" lon="5.11561">
        <ele>276</ele>
        <time>2020-07-11T05:32:01.583Z</time>
      </trkpt>
      <trkpt lat="44.19829" lon="5.11568">
        <ele>276</ele>
        <time>2020-07-11T05:32:02.582Z</time>
      </trkpt>
      <trkpt lat="44.19825" lon="5.11574">
        <ele>276</ele>
        <time>2020-07-11T05:32:03.583Z</time>
      </trkpt>
      <trkpt lat="44.1982" lon="5.1158">
        <ele>276</ele>
        <time>2020-07-11T05:32:04.582Z</time>
      </trkpt>
      <trkpt lat="44.19815" lon="5.11586">
        <ele>277</ele>
        <time>2020-07-11T05:32:05.583Z</time>
      </trkpt>
      <trkpt lat="44.19811" lon="5.11592">
        <ele>277</ele>
        <time>2020-07-11T05:32:06.583Z</time>
      </trkpt>
      <trkpt lat="44.19806" lon="5.11598">
        <ele>277</ele>
        <time>2020-07-11T05:32:07.583Z</time>
      </trkpt>
      <trkpt lat="44.19801" lon="5.11604">
        <ele>277</ele>
        <time>2020-07-11T05:32:08.583Z</time>
      </trkpt>
      <trkpt lat="44.19796" lon="5.1161">
        <ele>277</ele>
        <time>2020-07-11T05:32:09.583Z</time>
      </trkpt>
      <trkpt lat="44.19791" lon="5.11615">
        <ele>277</ele>
        <time>2020-07-11T05:32:10.583Z</time>
      </trkpt>
      <trkpt lat="44.19786" lon="5.1162">
        <ele>276</ele>
        <time>2020-07-11T05:32:11.582Z</time>
      </trkpt>
      <trkpt lat="44.19781" lon="5.11626">
        <ele>276</ele>
        <time>2020-07-11T05:32:12.583Z</time>
      </trkpt>
      <trkpt lat="44.19776" lon="5.11631">
        <ele>276</ele>
        <time>2020-07-11T05:32:13.583Z</time>
      </trkpt>
      <trkpt lat="44.19771" lon="5.11636">
        <ele>276</ele>
        <time>2020-07-11T05:32:14.583Z</time>
      </trkpt>
      <trkpt lat="44.19764" lon="5.11642">
        <ele>276</ele>
        <time>2020-07-11T05:32:15.582Z</time>
      </trkpt>
      <trkpt lat="44.1976" lon="5.11646">
        <ele>276</ele>
        <time>2020-07-11T05:32:16.583Z</time>
      </trkpt>
      <trkpt lat="44.19755" lon="5.11651">
        <ele>276</ele>
        <time>2020-07-11T05:32:17.583Z</time>
      </trkpt>
      <trkpt lat="44.1975" lon="5.11656">
        <ele>276</ele>
        <time>2020-07-11T05:32:18.583Z</time>
      </trkpt>
      <trkpt lat="44.19744" lon="5.11661">
        <ele>275</ele>
        <time>2020-07-11T05:32:19.582Z</time>
      </trkpt>
      <trkpt lat="44.19739" lon="5.11666">
        <ele>275</ele>
        <time>2020-07-11T05:32:20.583Z</time>
      </trkpt>
      <trkpt lat="44.19732" lon="5.11672">
        <ele>276</ele>
        <time>2020-07-11T05:32:21.582Z</time>
      </trkpt>
      <trkpt lat="44.19728" lon="5.11677">
        <ele>276</ele>
        <time>2020-07-11T05:32:22.583Z</time>
      </trkpt>
      <trkpt lat="44.19722" lon="5.11682">
        <ele>276</ele>
        <time>2020-07-11T05:32:23.583Z</time>
      </trkpt>
      <trkpt lat="44.19717" lon="5.11687">
        <ele>276</ele>
        <time>2020-07-11T05:32:24.583Z</time>
      </trkpt>
      <trkpt lat="44.19711" lon="5.11692">
        <ele>276</ele>
        <time>2020-07-11T05:32:25.582Z</time>
      </trkpt>
      <trkpt lat="44.19705" lon="5.11697">
        <ele>276</ele>
        <time>2020-07-11T05:32:26.583Z</time>
      </trkpt>
      <trkpt lat="44.197" lon="5.11702">
        <ele>276</ele>
        <time>2020-07-11T05:32:27.582Z</time>
      </trkpt>
      <trkpt lat="44.19694" lon="5.11707">
        <ele>276</ele>
        <time>2020-07-11T05:32:28.583Z</time>
      </trkpt>
      <trkpt lat="44.19688" lon="5.11712">
        <ele>276</ele>
        <time>2020-07-11T05:32:29.583Z</time>
      </trkpt>
      <trkpt lat="44.19683" lon="5.11717">
        <ele>276</ele>
        <time>2020-07-11T05:32:30.583Z</time>
      </trkpt>
      <trkpt lat="44.19677" lon="5.11722">
        <ele>275</ele>
        <time>2020-07-11T05:32:31.583Z</time>
      </trkpt>
      <trkpt lat="44.19671" lon="5.11727">
        <ele>275</ele>
        <time>2020-07-11T05:32:32.583Z</time>
      </trkpt>
      <trkpt lat="44.19666" lon="5.11732">
        <ele>275</ele>
        <time>2020-07-11T05:32:33.582Z</time>
      </trkpt>
      <trkpt lat="44.1966" lon="5.11737">
        <ele>274</ele>
        <time>2020-07-11T05:32:34.583Z</time>
      </trkpt>
      <trkpt lat="44.19654" lon="5.11742">
        <ele>274</ele>
        <time>2020-07-11T05:32:35.582Z</time>
      </trkpt>
      <trkpt lat="44.19648" lon="5.11747">
        <ele>275</ele>
        <time>2020-07-11T05:32:36.583Z</time>
      </trkpt>
      <trkpt lat="44.19642" lon="5.11753">
        <ele>275</ele>
        <time>2020-07-11T05:32:37.582Z</time>
      </trkpt>
      <trkpt lat="44.19636" lon="5.11758">
        <ele>276</ele>
        <time>2020-07-11T05:32:38.582Z</time>
      </trkpt>
      <trkpt lat="44.19631" lon="5.11764">
        <ele>277</ele>
        <time>2020-07-11T05:32:39.583Z</time>
      </trkpt>
      <trkpt lat="44.19625" lon="5.11769">
        <ele>278</ele>
        <time>2020-07-11T05:32:40.583Z</time>
      </trkpt>
      <trkpt lat="44.19619" lon="5.11774">
        <ele>278</ele>
        <time>2020-07-11T05:32:41.583Z</time>
      </trkpt>
      <trkpt lat="44.19613" lon="5.11779">
        <ele>279</ele>
        <time>2020-07-11T05:32:42.583Z</time>
      </trkpt>
      <trkpt lat="44.19607" lon="5.11785">
        <ele>279</ele>
        <time>2020-07-11T05:32:43.582Z</time>
      </trkpt>
      <trkpt lat="44.19601" lon="5.11789">
        <ele>280</ele>
        <time>2020-07-11T05:32:44.583Z</time>
      </trkpt>
      <trkpt lat="44.19595" lon="5.11793">
        <ele>279</ele>
        <time>2020-07-11T05:32:45.583Z</time>
      </trkpt>
      <trkpt lat="44.19588" lon="5.11796">
        <ele>279</ele>
        <time>2020-07-11T05:32:46.582Z</time>
      </trkpt>
      <trkpt lat="44.19582" lon="5.11799">
        <ele>279</ele>
        <time>2020-07-11T05:32:47.583Z</time>
      </trkpt>
      <trkpt lat="44.19576" lon="5.11801">
        <ele>279</ele>
        <time>2020-07-11T05:32:48.582Z</time>
      </trkpt>
      <trkpt lat="44.19569" lon="5.11803">
        <ele>279</ele>
        <time>2020-07-11T05:32:49.583Z</time>
      </trkpt>
      <trkpt lat="44.19563" lon="5.11805">
        <ele>279</ele>
        <time>2020-07-11T05:32:50.583Z</time>
      </trkpt>
      <trkpt lat="44.19557" lon="5.11806">
        <ele>279</ele>
        <time>2020-07-11T05:32:51.583Z</time>
      </trkpt>
      <trkpt lat="44.1955" lon="5.11807">
        <ele>278</ele>
        <time>2020-07-11T05:32:52.582Z</time>
      </trkpt>
      <trkpt lat="44.19544" lon="5.11807">
        <ele>278</ele>
        <time>2020-07-11T05:32:53.583Z</time>
      </trkpt>
      <trkpt lat="44.19538" lon="5.11807">
        <ele>278</ele>
        <time>2020-07-11T05:32:54.583Z</time>
      </trkpt>
      <trkpt lat="44.19533" lon="5.11808">
        <ele>277</ele>
        <time>2020-07-11T05:32:55.582Z</time>
      </trkpt>
      <trkpt lat="44.19527" lon="5.11808">
        <ele>277</ele>
        <time>2020-07-11T05:32:56.583Z</time>
      </trkpt>
      <trkpt lat="44.19522" lon="5.11808">
        <ele>277</ele>
        <time>2020-07-11T05:32:57.583Z</time>
      </trkpt>
      <trkpt lat="44.19516" lon="5.11809">
        <ele>277</ele>
        <time>2020-07-11T05:32:58.583Z</time>
      </trkpt>
      <trkpt lat="44.19511" lon="5.1181">
        <ele>277</ele>
        <time>2020-07-11T05:32:59.583Z</time>
      </trkpt>
      <trkpt lat="44.19506" lon="5.11811">
        <ele>276</ele>
        <time>2020-07-11T05:33:00.583Z</time>
      </trkpt>
      <trkpt lat="44.19501" lon="5.11812">
        <ele>276</ele>
        <time>2020-07-11T05:33:01.583Z</time>
      </trkpt>
      <trkpt lat="44.19495" lon="5.11813">
        <ele>276</ele>
        <time>2020-07-11T05:33:02.582Z</time>
      </trkpt>
      <trkpt lat="44.1949" lon="5.11815">
        <ele>276</ele>
        <time>2020-07-11T05:33:03.583Z</time>
      </trkpt>
      <trkpt lat="44.19485" lon="5.11816">
        <ele>276</ele>
        <time>2020-07-11T05:33:04.582Z</time>
      </trkpt>
      <trkpt lat="44.1948" lon="5.11818">
        <ele>276</ele>
        <time>2020-07-11T05:33:05.583Z</time>
      </trkpt>
      <trkpt lat="44.19475" lon="5.11821">
        <ele>277</ele>
        <time>2020-07-11T05:33:06.582Z</time>
      </trkpt>
      <trkpt lat="44.1947" lon="5.11823">
        <ele>277</ele>
        <time>2020-07-11T05:33:07.582Z</time>
      </trkpt>
      <trkpt lat="44.19465" lon="5.11825">
        <ele>277</ele>
        <time>2020-07-11T05:33:08.582Z</time>
      </trkpt>
      <trkpt lat="44.1946" lon="5.11828">
        <ele>278</ele>
        <time>2020-07-11T05:33:09.582Z</time>
      </trkpt>
      <trkpt lat="44.19456" lon="5.11831">
        <ele>278</ele>
        <time>2020-07-11T05:33:10.583Z</time>
      </trkpt>
      <trkpt lat="44.19451" lon="5.11834">
        <ele>278</ele>
        <time>2020-07-11T05:33:11.582Z</time>
      </trkpt>
      <trkpt lat="44.19447" lon="5.11837">
        <ele>277</ele>
        <time>2020-07-11T05:33:12.583Z</time>
      </trkpt>
      <trkpt lat="44.19442" lon="5.1184">
        <ele>277</ele>
        <time>2020-07-11T05:33:13.583Z</time>
      </trkpt>
      <trkpt lat="44.19438" lon="5.11843">
        <ele>277</ele>
        <time>2020-07-11T05:33:14.583Z</time>
      </trkpt>
      <trkpt lat="44.19433" lon="5.11846">
        <ele>277</ele>
        <time>2020-07-11T05:33:15.582Z</time>
      </trkpt>
      <trkpt lat="44.19429" lon="5.11849">
        <ele>278</ele>
        <time>2020-07-11T05:33:16.583Z</time>
      </trkpt>
      <trkpt lat="44.19424" lon="5.11852">
        <ele>278</ele>
        <time>2020-07-11T05:33:17.583Z</time>
      </trkpt>
      <trkpt lat="44.19419" lon="5.11855">
        <ele>279</ele>
        <time>2020-07-11T05:33:18.583Z</time>
      </trkpt>
      <trkpt lat="44.19415" lon="5.11858">
        <ele>279</ele>
        <time>2020-07-11T05:33:19.583Z</time>
      </trkpt>
      <trkpt lat="44.1941" lon="5.11861">
        <ele>279</ele>
        <time>2020-07-11T05:33:20.583Z</time>
      </trkpt>
      <trkpt lat="44.19405" lon="5.11864">
        <ele>280</ele>
        <time>2020-07-11T05:33:21.583Z</time>
      </trkpt>
      <trkpt lat="44.194" lon="5.11867">
        <ele>281</ele>
        <time>2020-07-11T05:33:22.583Z</time>
      </trkpt>
      <trkpt lat="44.19396" lon="5.1187">
        <ele>282</ele>
        <time>2020-07-11T05:33:23.582Z</time>
      </trkpt>
      <trkpt lat="44.1939" lon="5.11874">
        <ele>283</ele>
        <time>2020-07-11T05:33:24.582Z</time>
      </trkpt>
      <trkpt lat="44.19386" lon="5.11876">
        <ele>283</ele>
        <time>2020-07-11T05:33:25.583Z</time>
      </trkpt>
      <trkpt lat="44.19381" lon="5.11878">
        <ele>283</ele>
        <time>2020-07-11T05:33:26.583Z</time>
      </trkpt>
      <trkpt lat="44.19376" lon="5.11881">
        <ele>283</ele>
        <time>2020-07-11T05:33:27.582Z</time>
      </trkpt>
      <trkpt lat="44.19371" lon="5.11884">
        <ele>283</ele>
        <time>2020-07-11T05:33:28.583Z</time>
      </trkpt>
      <trkpt lat="44.19367" lon="5.11887">
        <ele>283</ele>
        <time>2020-07-11T05:33:29.582Z</time>
      </trkpt>
      <trkpt lat="44.19362" lon="5.11889">
        <ele>283</ele>
        <time>2020-07-11T05:33:30.582Z</time>
      </trkpt>
      <trkpt lat="44.19357" lon="5.11892">
        <ele>284</ele>
        <time>2020-07-11T05:33:31.582Z</time>
      </trkpt>
      <trkpt lat="44.19352" lon="5.11895">
        <ele>284</ele>
        <time>2020-07-11T05:33:32.582Z</time>
      </trkpt>
      <trkpt lat="44.19347" lon="5.11897">
        <ele>284</ele>
        <time>2020-07-11T05:33:33.583Z</time>
      </trkpt>
      <trkpt lat="44.19342" lon="5.119">
        <ele>284</ele>
        <time>2020-07-11T05:33:34.583Z</time>
      </trkpt>
      <trkpt lat="44.19337" lon="5.11903">
        <ele>285</ele>
        <time>2020-07-11T05:33:35.583Z</time>
      </trkpt>
      <trkpt lat="44.19332" lon="5.11905">
        <ele>285</ele>
        <time>2020-07-11T05:33:36.583Z</time>
      </trkpt>
      <trkpt lat="44.19327" lon="5.11907">
        <ele>286</ele>
        <time>2020-07-11T05:33:37.583Z</time>
      </trkpt>
      <trkpt lat="44.19322" lon="5.1191">
        <ele>286</ele>
        <time>2020-07-11T05:33:38.583Z</time>
      </trkpt>
      <trkpt lat="44.19317" lon="5.11913">
        <ele>287</ele>
        <time>2020-07-11T05:33:39.583Z</time>
      </trkpt>
      <trkpt lat="44.19312" lon="5.11915">
        <ele>287</ele>
        <time>2020-07-11T05:33:40.583Z</time>
      </trkpt>
      <trkpt lat="44.19306" lon="5.11918">
        <ele>287</ele>
        <time>2020-07-11T05:33:41.583Z</time>
      </trkpt>
      <trkpt lat="44.19301" lon="5.11921">
        <ele>287</ele>
        <time>2020-07-11T05:33:42.582Z</time>
      </trkpt>
      <trkpt lat="44.19296" lon="5.11923">
        <ele>286</ele>
        <time>2020-07-11T05:33:43.582Z</time>
      </trkpt>
      <trkpt lat="44.19291" lon="5.11926">
        <ele>286</ele>
        <time>2020-07-11T05:33:44.582Z</time>
      </trkpt>
      <trkpt lat="44.19286" lon="5.11929">
        <ele>286</ele>
        <time>2020-07-11T05:33:45.583Z</time>
      </trkpt>
      <trkpt lat="44.1928" lon="5.11932">
        <ele>286</ele>
        <time>2020-07-11T05:33:46.583Z</time>
      </trkpt>
      <trkpt lat="44.19275" lon="5.11934">
        <ele>287</ele>
        <time>2020-07-11T05:33:47.582Z</time>
      </trkpt>
      <trkpt lat="44.19269" lon="5.11937">
        <ele>287</ele>
        <time>2020-07-11T05:33:48.582Z</time>
      </trkpt>
      <trkpt lat="44.19263" lon="5.11939">
        <ele>287</ele>
        <time>2020-07-11T05:33:49.583Z</time>
      </trkpt>
      <trkpt lat="44.19257" lon="5.11942">
        <ele>288</ele>
        <time>2020-07-11T05:33:50.582Z</time>
      </trkpt>
      <trkpt lat="44.19251" lon="5.11945">
        <ele>288</ele>
        <time>2020-07-11T05:33:51.582Z</time>
      </trkpt>
      <trkpt lat="44.19246" lon="5.11947">
        <ele>288</ele>
        <time>2020-07-11T05:33:52.583Z</time>
      </trkpt>
      <trkpt lat="44.19239" lon="5.11949">
        <ele>288</ele>
        <time>2020-07-11T05:33:53.582Z</time>
      </trkpt>
      <trkpt lat="44.19233" lon="5.11952">
        <ele>288</ele>
        <time>2020-07-11T05:33:54.583Z</time>
      </trkpt>
      <trkpt lat="44.19227" lon="5.11954">
        <ele>288</ele>
        <time>2020-07-11T05:33:55.583Z</time>
      </trkpt>
      <trkpt lat="44.1922" lon="5.11956">
        <ele>288</ele>
        <time>2020-07-11T05:33:56.583Z</time>
      </trkpt>
      <trkpt lat="44.19214" lon="5.11958">
        <ele>288</ele>
        <time>2020-07-11T05:33:57.583Z</time>
      </trkpt>
      <trkpt lat="44.19208" lon="5.11961">
        <ele>288</ele>
        <time>2020-07-11T05:33:58.583Z</time>
      </trkpt>
      <trkpt lat="44.19201" lon="5.11963">
        <ele>288</ele>
        <time>2020-07-11T05:33:59.583Z</time>
      </trkpt>
      <trkpt lat="44.19194" lon="5.11965">
        <ele>288</ele>
        <time>2020-07-11T05:34:00.583Z</time>
      </trkpt>
      <trkpt lat="44.19188" lon="5.11968">
        <ele>288</ele>
        <time>2020-07-11T05:34:01.583Z</time>
      </trkpt>
      <trkpt lat="44.19182" lon="5.1197">
        <ele>289</ele>
        <time>2020-07-11T05:34:02.583Z</time>
      </trkpt>
      <trkpt lat="44.19176" lon="5.11972">
        <ele>289</ele>
        <time>2020-07-11T05:34:03.582Z</time>
      </trkpt>
      <trkpt lat="44.19169" lon="5.11975">
        <ele>289</ele>
        <time>2020-07-11T05:34:04.583Z</time>
      </trkpt>
      <trkpt lat="44.19163" lon="5.11977">
        <ele>289</ele>
        <time>2020-07-11T05:34:05.582Z</time>
      </trkpt>
      <trkpt lat="44.19156" lon="5.11979">
        <ele>289</ele>
        <time>2020-07-11T05:34:06.583Z</time>
      </trkpt>
      <trkpt lat="44.1915" lon="5.11981">
        <ele>290</ele>
        <time>2020-07-11T05:34:07.583Z</time>
      </trkpt>
      <trkpt lat="44.19144" lon="5.11983">
        <ele>290</ele>
        <time>2020-07-11T05:34:08.583Z</time>
      </trkpt>
      <trkpt lat="44.19137" lon="5.11986">
        <ele>290</ele>
        <time>2020-07-11T05:34:09.583Z</time>
      </trkpt>
      <trkpt lat="44.19131" lon="5.11988">
        <ele>290</ele>
        <time>2020-07-11T05:34:10.583Z</time>
      </trkpt>
      <trkpt lat="44.19124" lon="5.1199">
        <ele>290</ele>
        <time>2020-07-11T05:34:11.582Z</time>
      </trkpt>
      <trkpt lat="44.19117" lon="5.11992">
        <ele>290</ele>
        <time>2020-07-11T05:34:12.583Z</time>
      </trkpt>
      <trkpt lat="44.19111" lon="5.11994">
        <ele>290</ele>
        <time>2020-07-11T05:34:13.583Z</time>
      </trkpt>
      <trkpt lat="44.19105" lon="5.11996">
        <ele>290</ele>
        <time>2020-07-11T05:34:14.583Z</time>
      </trkpt>
      <trkpt lat="44.19098" lon="5.11998">
        <ele>289</ele>
        <time>2020-07-11T05:34:15.583Z</time>
      </trkpt>
      <trkpt lat="44.1909" lon="5.12">
        <ele>289</ele>
        <time>2020-07-11T05:34:16.583Z</time>
      </trkpt>
      <trkpt lat="44.19085" lon="5.12001">
        <ele>289</ele>
        <time>2020-07-11T05:34:17.583Z</time>
      </trkpt>
      <trkpt lat="44.19079" lon="5.12003">
        <ele>289</ele>
        <time>2020-07-11T05:34:18.583Z</time>
      </trkpt>
      <trkpt lat="44.19072" lon="5.12004">
        <ele>289</ele>
        <time>2020-07-11T05:34:19.583Z</time>
      </trkpt>
      <trkpt lat="44.19066" lon="5.12006">
        <ele>289</ele>
        <time>2020-07-11T05:34:20.582Z</time>
      </trkpt>
      <trkpt lat="44.19058" lon="5.12009">
        <ele>290</ele>
        <time>2020-07-11T05:34:21.583Z</time>
      </trkpt>
      <trkpt lat="44.19052" lon="5.1201">
        <ele>289</ele>
        <time>2020-07-11T05:34:22.583Z</time>
      </trkpt>
      <trkpt lat="44.19046" lon="5.12011">
        <ele>289</ele>
        <time>2020-07-11T05:34:23.582Z</time>
      </trkpt>
      <trkpt lat="44.19039" lon="5.12013">
        <ele>289</ele>
        <time>2020-07-11T05:34:24.582Z</time>
      </trkpt>
      <trkpt lat="44.19031" lon="5.12016">
        <ele>289</ele>
        <time>2020-07-11T05:34:25.583Z</time>
      </trkpt>
      <trkpt lat="44.19026" lon="5.12017">
        <ele>289</ele>
        <time>2020-07-11T05:34:26.583Z</time>
      </trkpt>
      <trkpt lat="44.1902" lon="5.12019">
        <ele>288</ele>
        <time>2020-07-11T05:34:27.582Z</time>
      </trkpt>
      <trkpt lat="44.19013" lon="5.12021">
        <ele>288</ele>
        <time>2020-07-11T05:34:28.583Z</time>
      </trkpt>
      <trkpt lat="44.19005" lon="5.12024">
        <ele>288</ele>
        <time>2020-07-11T05:34:29.583Z</time>
      </trkpt>
      <trkpt lat="44.19" lon="5.12026">
        <ele>288</ele>
        <time>2020-07-11T05:34:30.583Z</time>
      </trkpt>
      <trkpt lat="44.18993" lon="5.12028">
        <ele>288</ele>
        <time>2020-07-11T05:34:31.583Z</time>
      </trkpt>
      <trkpt lat="44.18987" lon="5.1203">
        <ele>288</ele>
        <time>2020-07-11T05:34:32.582Z</time>
      </trkpt>
      <trkpt lat="44.1898" lon="5.12032">
        <ele>288</ele>
        <time>2020-07-11T05:34:33.583Z</time>
      </trkpt>
      <trkpt lat="44.18974" lon="5.12034">
        <ele>288</ele>
        <time>2020-07-11T05:34:34.583Z</time>
      </trkpt>
      <trkpt lat="44.18967" lon="5.12036">
        <ele>288</ele>
        <time>2020-07-11T05:34:35.583Z</time>
      </trkpt>
      <trkpt lat="44.1896" lon="5.12038">
        <ele>288</ele>
        <time>2020-07-11T05:34:36.583Z</time>
      </trkpt>
      <trkpt lat="44.18953" lon="5.12041">
        <ele>288</ele>
        <time>2020-07-11T05:34:37.583Z</time>
      </trkpt>
      <trkpt lat="44.18947" lon="5.12043">
        <ele>288</ele>
        <time>2020-07-11T05:34:38.583Z</time>
      </trkpt>
      <trkpt lat="44.1894" lon="5.12045">
        <ele>289</ele>
        <time>2020-07-11T05:34:39.582Z</time>
      </trkpt>
      <trkpt lat="44.18934" lon="5.12047">
        <ele>289</ele>
        <time>2020-07-11T05:34:40.583Z</time>
      </trkpt>
      <trkpt lat="44.18927" lon="5.12049">
        <ele>289</ele>
        <time>2020-07-11T05:34:41.583Z</time>
      </trkpt>
      <trkpt lat="44.18921" lon="5.12051">
        <ele>289</ele>
        <time>2020-07-11T05:34:42.582Z</time>
      </trkpt>
      <trkpt lat="44.18914" lon="5.12053">
        <ele>289</ele>
        <time>2020-07-11T05:34:43.583Z</time>
      </trkpt>
      <trkpt lat="44.18908" lon="5.12055">
        <ele>288</ele>
        <time>2020-07-11T05:34:44.582Z</time>
      </trkpt>
      <trkpt lat="44.18901" lon="5.12057">
        <ele>288</ele>
        <time>2020-07-11T05:34:45.583Z</time>
      </trkpt>
      <trkpt lat="44.18895" lon="5.12059">
        <ele>288</ele>
        <time>2020-07-11T05:34:46.583Z</time>
      </trkpt>
      <trkpt lat="44.18889" lon="5.12061">
        <ele>289</ele>
        <time>2020-07-11T05:34:47.583Z</time>
      </trkpt>
      <trkpt lat="44.18882" lon="5.12063">
        <ele>289</ele>
        <time>2020-07-11T05:34:48.583Z</time>
      </trkpt>
      <trkpt lat="44.18876" lon="5.12065">
        <ele>289</ele>
        <time>2020-07-11T05:34:49.583Z</time>
      </trkpt>
      <trkpt lat="44.1887" lon="5.12067">
        <ele>289</ele>
        <time>2020-07-11T05:34:50.583Z</time>
      </trkpt>
      <trkpt lat="44.18863" lon="5.12069">
        <ele>289</ele>
        <time>2020-07-11T05:34:51.583Z</time>
      </trkpt>
      <trkpt lat="44.18857" lon="5.12071">
        <ele>289</ele>
        <time>2020-07-11T05:34:52.583Z</time>
      </trkpt>
      <trkpt lat="44.18851" lon="5.12073">
        <ele>289</ele>
        <time>2020-07-11T05:34:53.582Z</time>
      </trkpt>
      <trkpt lat="44.18844" lon="5.12075">
        <ele>290</ele>
        <time>2020-07-11T05:34:54.582Z</time>
      </trkpt>
      <trkpt lat="44.18838" lon="5.12077">
        <ele>290</ele>
        <time>2020-07-11T05:34:55.582Z</time>
      </trkpt>
      <trkpt lat="44.18832" lon="5.12079">
        <ele>290</ele>
        <time>2020-07-11T05:34:56.583Z</time>
      </trkpt>
      <trkpt lat="44.18826" lon="5.12081">
        <ele>290</ele>
        <time>2020-07-11T05:34:57.582Z</time>
      </trkpt>
      <trkpt lat="44.1882" lon="5.12083">
        <ele>290</ele>
        <time>2020-07-11T05:34:58.582Z</time>
      </trkpt>
      <trkpt lat="44.18814" lon="5.12086">
        <ele>291</ele>
        <time>2020-07-11T05:34:59.583Z</time>
      </trkpt>
      <trkpt lat="44.18807" lon="5.12088">
        <ele>291</ele>
        <time>2020-07-11T05:35:00.582Z</time>
      </trkpt>
      <trkpt lat="44.18801" lon="5.1209">
        <ele>291</ele>
        <time>2020-07-11T05:35:01.583Z</time>
      </trkpt>
      <trkpt lat="44.18795" lon="5.12093">
        <ele>291</ele>
        <time>2020-07-11T05:35:02.583Z</time>
      </trkpt>
      <trkpt lat="44.18789" lon="5.12096">
        <ele>291</ele>
        <time>2020-07-11T05:35:03.583Z</time>
      </trkpt>
      <trkpt lat="44.18783" lon="5.12099">
        <ele>291</ele>
        <time>2020-07-11T05:35:04.582Z</time>
      </trkpt>
      <trkpt lat="44.18777" lon="5.12103">
        <ele>291</ele>
        <time>2020-07-11T05:35:05.582Z</time>
      </trkpt>
      <trkpt lat="44.18771" lon="5.12106">
        <ele>291</ele>
        <time>2020-07-11T05:35:06.583Z</time>
      </trkpt>
      <trkpt lat="44.18765" lon="5.1211">
        <ele>291</ele>
        <time>2020-07-11T05:35:07.583Z</time>
      </trkpt>
      <trkpt lat="44.18759" lon="5.12115">
        <ele>292</ele>
        <time>2020-07-11T05:35:08.583Z</time>
      </trkpt>
      <trkpt lat="44.18753" lon="5.12119">
        <ele>292</ele>
        <time>2020-07-11T05:35:09.582Z</time>
      </trkpt>
      <trkpt lat="44.18747" lon="5.12124">
        <ele>293</ele>
        <time>2020-07-11T05:35:10.583Z</time>
      </trkpt>
      <trkpt lat="44.18741" lon="5.12128">
        <ele>294</ele>
        <time>2020-07-11T05:35:11.583Z</time>
      </trkpt>
      <trkpt lat="44.18735" lon="5.12133">
        <ele>294</ele>
        <time>2020-07-11T05:35:12.583Z</time>
      </trkpt>
      <trkpt lat="44.18728" lon="5.12137">
        <ele>295</ele>
        <time>2020-07-11T05:35:13.582Z</time>
      </trkpt>
      <trkpt lat="44.18722" lon="5.12142">
        <ele>295</ele>
        <time>2020-07-11T05:35:14.583Z</time>
      </trkpt>
      <trkpt lat="44.18716" lon="5.12147">
        <ele>295</ele>
        <time>2020-07-11T05:35:15.582Z</time>
      </trkpt>
      <trkpt lat="44.1871" lon="5.12151">
        <ele>295</ele>
        <time>2020-07-11T05:35:16.583Z</time>
      </trkpt>
      <trkpt lat="44.18705" lon="5.12155">
        <ele>295</ele>
        <time>2020-07-11T05:35:17.583Z</time>
      </trkpt>
      <trkpt lat="44.18699" lon="5.1216">
        <ele>295</ele>
        <time>2020-07-11T05:35:18.583Z</time>
      </trkpt>
      <trkpt lat="44.18693" lon="5.12164">
        <ele>295</ele>
        <time>2020-07-11T05:35:19.582Z</time>
      </trkpt>
      <trkpt lat="44.18687" lon="5.12168">
        <ele>295</ele>
        <time>2020-07-11T05:35:20.582Z</time>
      </trkpt>
      <trkpt lat="44.18681" lon="5.12173">
        <ele>295</ele>
        <time>2020-07-11T05:35:21.582Z</time>
      </trkpt>
      <trkpt lat="44.18676" lon="5.12177">
        <ele>295</ele>
        <time>2020-07-11T05:35:22.582Z</time>
      </trkpt>
      <trkpt lat="44.1867" lon="5.12181">
        <ele>295</ele>
        <time>2020-07-11T05:35:23.583Z</time>
      </trkpt>
      <trkpt lat="44.18664" lon="5.12186">
        <ele>295</ele>
        <time>2020-07-11T05:35:24.583Z</time>
      </trkpt>
      <trkpt lat="44.18658" lon="5.1219">
        <ele>295</ele>
        <time>2020-07-11T05:35:25.582Z</time>
      </trkpt>
      <trkpt lat="44.18653" lon="5.12194">
        <ele>295</ele>
        <time>2020-07-11T05:35:26.583Z</time>
      </trkpt>
      <trkpt lat="44.18647" lon="5.12199">
        <ele>295</ele>
        <time>2020-07-11T05:35:27.583Z</time>
      </trkpt>
      <trkpt lat="44.18641" lon="5.12203">
        <ele>295</ele>
        <time>2020-07-11T05:35:28.582Z</time>
      </trkpt>
      <trkpt lat="44.18635" lon="5.12208">
        <ele>296</ele>
        <time>2020-07-11T05:35:29.582Z</time>
      </trkpt>
      <trkpt lat="44.18629" lon="5.12212">
        <ele>296</ele>
        <time>2020-07-11T05:35:30.583Z</time>
      </trkpt>
      <trkpt lat="44.18624" lon="5.12216">
        <ele>295</ele>
        <time>2020-07-11T05:35:31.583Z</time>
      </trkpt>
      <trkpt lat="44.18618" lon="5.1222">
        <ele>295</ele>
        <time>2020-07-11T05:35:32.583Z</time>
      </trkpt>
      <trkpt lat="44.18612" lon="5.12225">
        <ele>295</ele>
        <time>2020-07-11T05:35:33.583Z</time>
      </trkpt>
      <trkpt lat="44.18606" lon="5.12229">
        <ele>296</ele>
        <time>2020-07-11T05:35:34.583Z</time>
      </trkpt>
      <trkpt lat="44.186" lon="5.12233">
        <ele>296</ele>
        <time>2020-07-11T05:35:35.582Z</time>
      </trkpt>
      <trkpt lat="44.18594" lon="5.12237">
        <ele>296</ele>
        <time>2020-07-11T05:35:36.582Z</time>
      </trkpt>
      <trkpt lat="44.18589" lon="5.12242">
        <ele>296</ele>
        <time>2020-07-11T05:35:37.582Z</time>
      </trkpt>
      <trkpt lat="44.18583" lon="5.12246">
        <ele>297</ele>
        <time>2020-07-11T05:35:38.582Z</time>
      </trkpt>
      <trkpt lat="44.18577" lon="5.1225">
        <ele>297</ele>
        <time>2020-07-11T05:35:39.583Z</time>
      </trkpt>
      <trkpt lat="44.18572" lon="5.12254">
        <ele>297</ele>
        <time>2020-07-11T05:35:40.583Z</time>
      </trkpt>
      <trkpt lat="44.18566" lon="5.12259">
        <ele>298</ele>
        <time>2020-07-11T05:35:41.582Z</time>
      </trkpt>
      <trkpt lat="44.1856" lon="5.12263">
        <ele>298</ele>
        <time>2020-07-11T05:35:42.583Z</time>
      </trkpt>
      <trkpt lat="44.18554" lon="5.12267">
        <ele>298</ele>
        <time>2020-07-11T05:35:43.583Z</time>
      </trkpt>
      <trkpt lat="44.18549" lon="5.12271">
        <ele>298</ele>
        <time>2020-07-11T05:35:44.583Z</time>
      </trkpt>
      <trkpt lat="44.18543" lon="5.12275">
        <ele>299</ele>
        <time>2020-07-11T05:35:45.583Z</time>
      </trkpt>
      <trkpt lat="44.18537" lon="5.12279">
        <ele>299</ele>
        <time>2020-07-11T05:35:46.582Z</time>
      </trkpt>
      <trkpt lat="44.18532" lon="5.12283">
        <ele>299</ele>
        <time>2020-07-11T05:35:47.583Z</time>
      </trkpt>
      <trkpt lat="44.18526" lon="5.12287">
        <ele>299</ele>
        <time>2020-07-11T05:35:48.583Z</time>
      </trkpt>
      <trkpt lat="44.1852" lon="5.12291">
        <ele>298</ele>
        <time>2020-07-11T05:35:49.583Z</time>
      </trkpt>
      <trkpt lat="44.18515" lon="5.12295">
        <ele>298</ele>
        <time>2020-07-11T05:35:50.582Z</time>
      </trkpt>
      <trkpt lat="44.18509" lon="5.12299">
        <ele>298</ele>
        <time>2020-07-11T05:35:51.582Z</time>
      </trkpt>
      <trkpt lat="44.18504" lon="5.12303">
        <ele>299</ele>
        <time>2020-07-11T05:35:52.582Z</time>
      </trkpt>
      <trkpt lat="44.18499" lon="5.12307">
        <ele>299</ele>
        <time>2020-07-11T05:35:53.583Z</time>
      </trkpt>
      <trkpt lat="44.18493" lon="5.12311">
        <ele>299</ele>
        <time>2020-07-11T05:35:54.582Z</time>
      </trkpt>
      <trkpt lat="44.18487" lon="5.12315">
        <ele>299</ele>
        <time>2020-07-11T05:35:55.583Z</time>
      </trkpt>
      <trkpt lat="44.18482" lon="5.12319">
        <ele>299</ele>
        <time>2020-07-11T05:35:56.582Z</time>
      </trkpt>
      <trkpt lat="44.18477" lon="5.12323">
        <ele>299</ele>
        <time>2020-07-11T05:35:57.582Z</time>
      </trkpt>
      <trkpt lat="44.18472" lon="5.12328">
        <ele>299</ele>
        <time>2020-07-11T05:35:58.582Z</time>
      </trkpt>
      <trkpt lat="44.18466" lon="5.12334">
        <ele>299</ele>
        <time>2020-07-11T05:35:59.583Z</time>
      </trkpt>
      <trkpt lat="44.18462" lon="5.12338">
        <ele>300</ele>
        <time>2020-07-11T05:36:00.582Z</time>
      </trkpt>
      <trkpt lat="44.18458" lon="5.12343">
        <ele>300</ele>
        <time>2020-07-11T05:36:01.582Z</time>
      </trkpt>
      <trkpt lat="44.18453" lon="5.12348">
        <ele>301</ele>
        <time>2020-07-11T05:36:02.583Z</time>
      </trkpt>
      <trkpt lat="44.18449" lon="5.12354">
        <ele>301</ele>
        <time>2020-07-11T05:36:03.583Z</time>
      </trkpt>
      <trkpt lat="44.18444" lon="5.1236">
        <ele>301</ele>
        <time>2020-07-11T05:36:04.583Z</time>
      </trkpt>
      <trkpt lat="44.1844" lon="5.12365">
        <ele>301</ele>
        <time>2020-07-11T05:36:05.583Z</time>
      </trkpt>
      <trkpt lat="44.18436" lon="5.12371">
        <ele>301</ele>
        <time>2020-07-11T05:36:06.582Z</time>
      </trkpt>
      <trkpt lat="44.18431" lon="5.12377">
        <ele>302</ele>
        <time>2020-07-11T05:36:07.583Z</time>
      </trkpt>
      <trkpt lat="44.18426" lon="5.12383">
        <ele>302</ele>
        <time>2020-07-11T05:36:08.582Z</time>
      </trkpt>
      <trkpt lat="44.18422" lon="5.12388">
        <ele>303</ele>
        <time>2020-07-11T05:36:09.583Z</time>
      </trkpt>
      <trkpt lat="44.18417" lon="5.12394">
        <ele>303</ele>
        <time>2020-07-11T05:36:10.583Z</time>
      </trkpt>
      <trkpt lat="44.18413" lon="5.124">
        <ele>303</ele>
        <time>2020-07-11T05:36:11.583Z</time>
      </trkpt>
      <trkpt lat="44.18409" lon="5.12406">
        <ele>304</ele>
        <time>2020-07-11T05:36:12.582Z</time>
      </trkpt>
      <trkpt lat="44.18404" lon="5.12411">
        <ele>304</ele>
        <time>2020-07-11T05:36:13.583Z</time>
      </trkpt>
      <trkpt lat="44.184" lon="5.12417">
        <ele>304</ele>
        <time>2020-07-11T05:36:14.583Z</time>
      </trkpt>
      <trkpt lat="44.18396" lon="5.12423">
        <ele>304</ele>
        <time>2020-07-11T05:36:15.582Z</time>
      </trkpt>
      <trkpt lat="44.18391" lon="5.12429">
        <ele>305</ele>
        <time>2020-07-11T05:36:16.582Z</time>
      </trkpt>
      <trkpt lat="44.18387" lon="5.12434">
        <ele>305</ele>
        <time>2020-07-11T05:36:17.582Z</time>
      </trkpt>
      <trkpt lat="44.18382" lon="5.1244">
        <ele>305</ele>
        <time>2020-07-11T05:36:18.583Z</time>
      </trkpt>
      <trkpt lat="44.18377" lon="5.12445">
        <ele>306</ele>
        <time>2020-07-11T05:36:19.583Z</time>
      </trkpt>
      <trkpt lat="44.18372" lon="5.12451">
        <ele>306</ele>
        <time>2020-07-11T05:36:20.582Z</time>
      </trkpt>
      <trkpt lat="44.18368" lon="5.12457">
        <ele>306</ele>
        <time>2020-07-11T05:36:21.583Z</time>
      </trkpt>
      <trkpt lat="44.18363" lon="5.12463">
        <ele>306</ele>
        <time>2020-07-11T05:36:22.583Z</time>
      </trkpt>
      <trkpt lat="44.18359" lon="5.12469">
        <ele>305</ele>
        <time>2020-07-11T05:36:23.583Z</time>
      </trkpt>
      <trkpt lat="44.18353" lon="5.12475">
        <ele>305</ele>
        <time>2020-07-11T05:36:24.582Z</time>
      </trkpt>
      <trkpt lat="44.1835" lon="5.1248">
        <ele>305</ele>
        <time>2020-07-11T05:36:25.582Z</time>
      </trkpt>
      <trkpt lat="44.18345" lon="5.12486">
        <ele>305</ele>
        <time>2020-07-11T05:36:26.583Z</time>
      </trkpt>
      <trkpt lat="44.1834" lon="5.12492">
        <ele>305</ele>
        <time>2020-07-11T05:36:27.583Z</time>
      </trkpt>
      <trkpt lat="44.18336" lon="5.12498">
        <ele>305</ele>
        <time>2020-07-11T05:36:28.583Z</time>
      </trkpt>
      <trkpt lat="44.18331" lon="5.12504">
        <ele>305</ele>
        <time>2020-07-11T05:36:29.583Z</time>
      </trkpt>
      <trkpt lat="44.18327" lon="5.12509">
        <ele>305</ele>
        <time>2020-07-11T05:36:30.582Z</time>
      </trkpt>
      <trkpt lat="44.18323" lon="5.12515">
        <ele>305</ele>
        <time>2020-07-11T05:36:31.582Z</time>
      </trkpt>
      <trkpt lat="44.18318" lon="5.12521">
        <ele>306</ele>
        <time>2020-07-11T05:36:32.583Z</time>
      </trkpt>
      <trkpt lat="44.18313" lon="5.12527">
        <ele>306</ele>
        <time>2020-07-11T05:36:33.582Z</time>
      </trkpt>
      <trkpt lat="44.18309" lon="5.12532">
        <ele>306</ele>
        <time>2020-07-11T05:36:34.583Z</time>
      </trkpt>
      <trkpt lat="44.18305" lon="5.12538">
        <ele>306</ele>
        <time>2020-07-11T05:36:35.583Z</time>
      </trkpt>
      <trkpt lat="44.183" lon="5.12543">
        <ele>307</ele>
        <time>2020-07-11T05:36:36.583Z</time>
      </trkpt>
      <trkpt lat="44.18296" lon="5.12549">
        <ele>307</ele>
        <time>2020-07-11T05:36:37.583Z</time>
      </trkpt>
      <trkpt lat="44.18292" lon="5.12555">
        <ele>308</ele>
        <time>2020-07-11T05:36:38.583Z</time>
      </trkpt>
      <trkpt lat="44.18287" lon="5.12561">
        <ele>308</ele>
        <time>2020-07-11T05:36:39.583Z</time>
      </trkpt>
      <trkpt lat="44.18283" lon="5.12567">
        <ele>309</ele>
        <time>2020-07-11T05:36:40.583Z</time>
      </trkpt>
      <trkpt lat="44.18279" lon="5.12572">
        <ele>310</ele>
        <time>2020-07-11T05:36:41.583Z</time>
      </trkpt>
      <trkpt lat="44.18274" lon="5.12578">
        <ele>310</ele>
        <time>2020-07-11T05:36:42.582Z</time>
      </trkpt>
      <trkpt lat="44.1827" lon="5.12583">
        <ele>311</ele>
        <time>2020-07-11T05:36:43.583Z</time>
      </trkpt>
      <trkpt lat="44.18266" lon="5.12588">
        <ele>311</ele>
        <time>2020-07-11T05:36:44.583Z</time>
      </trkpt>
      <trkpt lat="44.18261" lon="5.12594">
        <ele>311</ele>
        <time>2020-07-11T05:36:45.583Z</time>
      </trkpt>
      <trkpt lat="44.18257" lon="5.12599">
        <ele>311</ele>
        <time>2020-07-11T05:36:46.583Z</time>
      </trkpt>
      <trkpt lat="44.18253" lon="5.12604">
        <ele>311</ele>
        <time>2020-07-11T05:36:47.583Z</time>
      </trkpt>
      <trkpt lat="44.18249" lon="5.1261">
        <ele>311</ele>
        <time>2020-07-11T05:36:48.583Z</time>
      </trkpt>
      <trkpt lat="44.18245" lon="5.12615">
        <ele>310</ele>
        <time>2020-07-11T05:36:49.582Z</time>
      </trkpt>
      <trkpt lat="44.1824" lon="5.1262">
        <ele>310</ele>
        <time>2020-07-11T05:36:50.582Z</time>
      </trkpt>
      <trkpt lat="44.18235" lon="5.12627">
        <ele>310</ele>
        <time>2020-07-11T05:36:51.583Z</time>
      </trkpt>
      <trkpt lat="44.18232" lon="5.12631">
        <ele>310</ele>
        <time>2020-07-11T05:36:52.582Z</time>
      </trkpt>
      <trkpt lat="44.18226" lon="5.12638">
        <ele>310</ele>
        <time>2020-07-11T05:36:53.583Z</time>
      </trkpt>
      <trkpt lat="44.18222" lon="5.12642">
        <ele>310</ele>
        <time>2020-07-11T05:36:54.582Z</time>
      </trkpt>
      <trkpt lat="44.18218" lon="5.12647">
        <ele>310</ele>
        <time>2020-07-11T05:36:55.582Z</time>
      </trkpt>
      <trkpt lat="44.18213" lon="5.12652">
        <ele>310</ele>
        <time>2020-07-11T05:36:56.583Z</time>
      </trkpt>
      <trkpt lat="44.18208" lon="5.12657">
        <ele>310</ele>
        <time>2020-07-11T05:36:57.583Z</time>
      </trkpt>
      <trkpt lat="44.18203" lon="5.12661">
        <ele>310</ele>
        <time>2020-07-11T05:36:58.583Z</time>
      </trkpt>
      <trkpt lat="44.18198" lon="5.12665">
        <ele>309</ele>
        <time>2020-07-11T05:36:59.582Z</time>
      </trkpt>
      <trkpt lat="44.18193" lon="5.12668">
        <ele>309</ele>
        <time>2020-07-11T05:37:00.583Z</time>
      </trkpt>
      <trkpt lat="44.18188" lon="5.12671">
        <ele>309</ele>
        <time>2020-07-11T05:37:01.582Z</time>
      </trkpt>
      <trkpt lat="44.18182" lon="5.12673">
        <ele>308</ele>
        <time>2020-07-11T05:37:02.582Z</time>
      </trkpt>
      <trkpt lat="44.18175" lon="5.12677">
        <ele>308</ele>
        <time>2020-07-11T05:37:03.583Z</time>
      </trkpt>
      <trkpt lat="44.1817" lon="5.12679">
        <ele>308</ele>
        <time>2020-07-11T05:37:04.582Z</time>
      </trkpt>
      <trkpt lat="44.18164" lon="5.12681">
        <ele>307</ele>
        <time>2020-07-11T05:37:05.582Z</time>
      </trkpt>
      <trkpt lat="44.18157" lon="5.12684">
        <ele>307</ele>
        <time>2020-07-11T05:37:06.582Z</time>
      </trkpt>
      <trkpt lat="44.18152" lon="5.12685">
        <ele>307</ele>
        <time>2020-07-11T05:37:07.583Z</time>
      </trkpt>
      <trkpt lat="44.18145" lon="5.12689">
        <ele>307</ele>
        <time>2020-07-11T05:37:08.583Z</time>
      </trkpt>
      <trkpt lat="44.1814" lon="5.1269">
        <ele>307</ele>
        <time>2020-07-11T05:37:09.583Z</time>
      </trkpt>
      <trkpt lat="44.18133" lon="5.12693">
        <ele>307</ele>
        <time>2020-07-11T05:37:10.582Z</time>
      </trkpt>
      <trkpt lat="44.18127" lon="5.12695">
        <ele>307</ele>
        <time>2020-07-11T05:37:11.583Z</time>
      </trkpt>
      <trkpt lat="44.18121" lon="5.12698">
        <ele>308</ele>
        <time>2020-07-11T05:37:12.583Z</time>
      </trkpt>
      <trkpt lat="44.18114" lon="5.127">
        <ele>308</ele>
        <time>2020-07-11T05:37:13.583Z</time>
      </trkpt>
      <trkpt lat="44.18108" lon="5.12702">
        <ele>308</ele>
        <time>2020-07-11T05:37:14.583Z</time>
      </trkpt>
      <trkpt lat="44.18103" lon="5.12704">
        <ele>308</ele>
        <time>2020-07-11T05:37:15.583Z</time>
      </trkpt>
      <trkpt lat="44.18096" lon="5.12707">
        <ele>308</ele>
        <time>2020-07-11T05:37:16.582Z</time>
      </trkpt>
      <trkpt lat="44.1809" lon="5.12709">
        <ele>309</ele>
        <time>2020-07-11T05:37:17.582Z</time>
      </trkpt>
      <trkpt lat="44.18085" lon="5.12711">
        <ele>309</ele>
        <time>2020-07-11T05:37:18.583Z</time>
      </trkpt>
      <trkpt lat="44.18078" lon="5.12714">
        <ele>309</ele>
        <time>2020-07-11T05:37:19.583Z</time>
      </trkpt>
      <trkpt lat="44.18073" lon="5.12716">
        <ele>310</ele>
        <time>2020-07-11T05:37:20.582Z</time>
      </trkpt>
      <trkpt lat="44.18067" lon="5.12718">
        <ele>310</ele>
        <time>2020-07-11T05:37:21.583Z</time>
      </trkpt>
      <trkpt lat="44.18061" lon="5.12721">
        <ele>310</ele>
        <time>2020-07-11T05:37:22.583Z</time>
      </trkpt>
      <trkpt lat="44.18055" lon="5.12724">
        <ele>310</ele>
        <time>2020-07-11T05:37:23.583Z</time>
      </trkpt>
      <trkpt lat="44.1805" lon="5.12726">
        <ele>310</ele>
        <time>2020-07-11T05:37:24.583Z</time>
      </trkpt>
      <trkpt lat="44.18044" lon="5.12729">
        <ele>310</ele>
        <time>2020-07-11T05:37:25.582Z</time>
      </trkpt>
      <trkpt lat="44.18037" lon="5.12732">
        <ele>310</ele>
        <time>2020-07-11T05:37:26.582Z</time>
      </trkpt>
      <trkpt lat="44.18033" lon="5.12734">
        <ele>310</ele>
        <time>2020-07-11T05:37:27.583Z</time>
      </trkpt>
      <trkpt lat="44.18027" lon="5.12736">
        <ele>310</ele>
        <time>2020-07-11T05:37:28.583Z</time>
      </trkpt>
      <trkpt lat="44.1802" lon="5.12739">
        <ele>310</ele>
        <time>2020-07-11T05:37:29.582Z</time>
      </trkpt>
      <trkpt lat="44.18014" lon="5.12741">
        <ele>310</ele>
        <time>2020-07-11T05:37:30.582Z</time>
      </trkpt>
      <trkpt lat="44.18008" lon="5.12744">
        <ele>310</ele>
        <time>2020-07-11T05:37:31.582Z</time>
      </trkpt>
      <trkpt lat="44.18003" lon="5.12746">
        <ele>310</ele>
        <time>2020-07-11T05:37:32.582Z</time>
      </trkpt>
      <trkpt lat="44.17998" lon="5.12749">
        <ele>311</ele>
        <time>2020-07-11T05:37:33.582Z</time>
      </trkpt>
      <trkpt lat="44.17992" lon="5.12751">
        <ele>311</ele>
        <time>2020-07-11T05:37:34.582Z</time>
      </trkpt>
      <trkpt lat="44.17986" lon="5.12754">
        <ele>311</ele>
        <time>2020-07-11T05:37:35.583Z</time>
      </trkpt>
      <trkpt lat="44.1798" lon="5.12756">
        <ele>310</ele>
        <time>2020-07-11T05:37:36.583Z</time>
      </trkpt>
      <trkpt lat="44.17974" lon="5.12759">
        <ele>310</ele>
        <time>2020-07-11T05:37:37.583Z</time>
      </trkpt>
      <trkpt lat="44.17969" lon="5.12762">
        <ele>310</ele>
        <time>2020-07-11T05:37:38.582Z</time>
      </trkpt>
      <trkpt lat="44.17963" lon="5.12765">
        <ele>310</ele>
        <time>2020-07-11T05:37:39.582Z</time>
      </trkpt>
      <trkpt lat="44.17957" lon="5.12767">
        <ele>310</ele>
        <time>2020-07-11T05:37:40.582Z</time>
      </trkpt>
      <trkpt lat="44.17951" lon="5.1277">
        <ele>311</ele>
        <time>2020-07-11T05:37:41.582Z</time>
      </trkpt>
      <trkpt lat="44.17945" lon="5.12773">
        <ele>311</ele>
        <time>2020-07-11T05:37:42.582Z</time>
      </trkpt>
      <trkpt lat="44.17939" lon="5.12776">
        <ele>311</ele>
        <time>2020-07-11T05:37:43.583Z</time>
      </trkpt>
      <trkpt lat="44.17933" lon="5.12778">
        <ele>311</ele>
        <time>2020-07-11T05:37:44.583Z</time>
      </trkpt>
      <trkpt lat="44.17927" lon="5.12781">
        <ele>311</ele>
        <time>2020-07-11T05:37:45.583Z</time>
      </trkpt>
      <trkpt lat="44.17921" lon="5.12783">
        <ele>312</ele>
        <time>2020-07-11T05:37:46.583Z</time>
      </trkpt>
      <trkpt lat="44.17915" lon="5.12786">
        <ele>312</ele>
        <time>2020-07-11T05:37:47.583Z</time>
      </trkpt>
      <trkpt lat="44.17908" lon="5.1279">
        <ele>312</ele>
        <time>2020-07-11T05:37:48.583Z</time>
      </trkpt>
      <trkpt lat="44.17904" lon="5.12792">
        <ele>312</ele>
        <time>2020-07-11T05:37:49.582Z</time>
      </trkpt>
      <trkpt lat="44.17898" lon="5.12794">
        <ele>312</ele>
        <time>2020-07-11T05:37:50.583Z</time>
      </trkpt>
      <trkpt lat="44.17892" lon="5.12797">
        <ele>312</ele>
        <time>2020-07-11T05:37:51.582Z</time>
      </trkpt>
      <trkpt lat="44.17886" lon="5.12799">
        <ele>312</ele>
        <time>2020-07-11T05:37:52.582Z</time>
      </trkpt>
      <trkpt lat="44.17881" lon="5.12802">
        <ele>312</ele>
        <time>2020-07-11T05:37:53.583Z</time>
      </trkpt>
      <trkpt lat="44.17875" lon="5.12805">
        <ele>312</ele>
        <time>2020-07-11T05:37:54.583Z</time>
      </trkpt>
      <trkpt lat="44.1787" lon="5.12807">
        <ele>312</ele>
        <time>2020-07-11T05:37:55.583Z</time>
      </trkpt>
      <trkpt lat="44.17864" lon="5.1281">
        <ele>312</ele>
        <time>2020-07-11T05:37:56.582Z</time>
      </trkpt>
      <trkpt lat="44.17858" lon="5.12813">
        <ele>312</ele>
        <time>2020-07-11T05:37:57.582Z</time>
      </trkpt>
      <trkpt lat="44.17852" lon="5.12816">
        <ele>312</ele>
        <time>2020-07-11T05:37:58.583Z</time>
      </trkpt>
      <trkpt lat="44.17846" lon="5.12818">
        <ele>313</ele>
        <time>2020-07-11T05:37:59.583Z</time>
      </trkpt>
      <trkpt lat="44.1784" lon="5.1282">
        <ele>313</ele>
        <time>2020-07-11T05:38:00.582Z</time>
      </trkpt>
      <trkpt lat="44.17834" lon="5.12823">
        <ele>313</ele>
        <time>2020-07-11T05:38:01.583Z</time>
      </trkpt>
      <trkpt lat="44.17828" lon="5.12826">
        <ele>312</ele>
        <time>2020-07-11T05:38:02.583Z</time>
      </trkpt>
      <trkpt lat="44.17822" lon="5.12828">
        <ele>312</ele>
        <time>2020-07-11T05:38:03.583Z</time>
      </trkpt>
      <trkpt lat="44.17816" lon="5.1283">
        <ele>313</ele>
        <time>2020-07-11T05:38:04.582Z</time>
      </trkpt>
      <trkpt lat="44.1781" lon="5.12833">
        <ele>313</ele>
        <time>2020-07-11T05:38:05.582Z</time>
      </trkpt>
      <trkpt lat="44.17805" lon="5.12836">
        <ele>313</ele>
        <time>2020-07-11T05:38:06.583Z</time>
      </trkpt>
      <trkpt lat="44.178" lon="5.12838">
        <ele>313</ele>
        <time>2020-07-11T05:38:07.583Z</time>
      </trkpt>
      <trkpt lat="44.17794" lon="5.1284">
        <ele>313</ele>
        <time>2020-07-11T05:38:08.583Z</time>
      </trkpt>
      <trkpt lat="44.17788" lon="5.12843">
        <ele>314</ele>
        <time>2020-07-11T05:38:09.583Z</time>
      </trkpt>
      <trkpt lat="44.17782" lon="5.12845">
        <ele>314</ele>
        <time>2020-07-11T05:38:10.583Z</time>
      </trkpt>
      <trkpt lat="44.17776" lon="5.12848">
        <ele>314</ele>
        <time>2020-07-11T05:38:11.583Z</time>
      </trkpt>
      <trkpt lat="44.17771" lon="5.1285">
        <ele>314</ele>
        <time>2020-07-11T05:38:12.583Z</time>
      </trkpt>
      <trkpt lat="44.17765" lon="5.12852">
        <ele>314</ele>
        <time>2020-07-11T05:38:13.583Z</time>
      </trkpt>
      <trkpt lat="44.17759" lon="5.12855">
        <ele>314</ele>
        <time>2020-07-11T05:38:14.583Z</time>
      </trkpt>
      <trkpt lat="44.17754" lon="5.12857">
        <ele>314</ele>
        <time>2020-07-11T05:38:15.582Z</time>
      </trkpt>
      <trkpt lat="44.17748" lon="5.12859">
        <ele>314</ele>
        <time>2020-07-11T05:38:16.582Z</time>
      </trkpt>
      <trkpt lat="44.17743" lon="5.12861">
        <ele>314</ele>
        <time>2020-07-11T05:38:17.583Z</time>
      </trkpt>
      <trkpt lat="44.17737" lon="5.12864">
        <ele>314</ele>
        <time>2020-07-11T05:38:18.582Z</time>
      </trkpt>
      <trkpt lat="44.17731" lon="5.12866">
        <ele>314</ele>
        <time>2020-07-11T05:38:19.583Z</time>
      </trkpt>
      <trkpt lat="44.17726" lon="5.12869">
        <ele>314</ele>
        <time>2020-07-11T05:38:20.583Z</time>
      </trkpt>
      <trkpt lat="44.17721" lon="5.12872">
        <ele>314</ele>
        <time>2020-07-11T05:38:21.583Z</time>
      </trkpt>
      <trkpt lat="44.17715" lon="5.12875">
        <ele>315</ele>
        <time>2020-07-11T05:38:22.583Z</time>
      </trkpt>
      <trkpt lat="44.1771" lon="5.12878">
        <ele>315</ele>
        <time>2020-07-11T05:38:23.583Z</time>
      </trkpt>
      <trkpt lat="44.17704" lon="5.1288">
        <ele>315</ele>
        <time>2020-07-11T05:38:24.583Z</time>
      </trkpt>
      <trkpt lat="44.17698" lon="5.12883">
        <ele>315</ele>
        <time>2020-07-11T05:38:25.582Z</time>
      </trkpt>
      <trkpt lat="44.17693" lon="5.12885">
        <ele>315</ele>
        <time>2020-07-11T05:38:26.583Z</time>
      </trkpt>
      <trkpt lat="44.17687" lon="5.12887">
        <ele>315</ele>
        <time>2020-07-11T05:38:27.583Z</time>
      </trkpt>
      <trkpt lat="44.17682" lon="5.12889">
        <ele>314</ele>
        <time>2020-07-11T05:38:28.583Z</time>
      </trkpt>
      <trkpt lat="44.17675" lon="5.12892">
        <ele>314</ele>
        <time>2020-07-11T05:38:29.583Z</time>
      </trkpt>
      <trkpt lat="44.1767" lon="5.12894">
        <ele>314</ele>
        <time>2020-07-11T05:38:30.582Z</time>
      </trkpt>
      <trkpt lat="44.17665" lon="5.12897">
        <ele>314</ele>
        <time>2020-07-11T05:38:31.582Z</time>
      </trkpt>
      <trkpt lat="44.17659" lon="5.12899">
        <ele>314</ele>
        <time>2020-07-11T05:38:32.583Z</time>
      </trkpt>
      <trkpt lat="44.17654" lon="5.12901">
        <ele>314</ele>
        <time>2020-07-11T05:38:33.583Z</time>
      </trkpt>
      <trkpt lat="44.17648" lon="5.12903">
        <ele>314</ele>
        <time>2020-07-11T05:38:34.583Z</time>
      </trkpt>
      <trkpt lat="44.17642" lon="5.12905">
        <ele>314</ele>
        <time>2020-07-11T05:38:35.583Z</time>
      </trkpt>
      <trkpt lat="44.17637" lon="5.12908">
        <ele>314</ele>
        <time>2020-07-11T05:38:36.582Z</time>
      </trkpt>
      <trkpt lat="44.17632" lon="5.1291">
        <ele>314</ele>
        <time>2020-07-11T05:38:37.583Z</time>
      </trkpt>
      <trkpt lat="44.17625" lon="5.12914">
        <ele>313</ele>
        <time>2020-07-11T05:38:38.583Z</time>
      </trkpt>
      <trkpt lat="44.17621" lon="5.12916">
        <ele>314</ele>
        <time>2020-07-11T05:38:39.582Z</time>
      </trkpt>
      <trkpt lat="44.17615" lon="5.12918">
        <ele>314</ele>
        <time>2020-07-11T05:38:40.583Z</time>
      </trkpt>
      <trkpt lat="44.17609" lon="5.1292">
        <ele>314</ele>
        <time>2020-07-11T05:38:41.583Z</time>
      </trkpt>
      <trkpt lat="44.17604" lon="5.12922">
        <ele>314</ele>
        <time>2020-07-11T05:38:42.582Z</time>
      </trkpt>
      <trkpt lat="44.17598" lon="5.12925">
        <ele>315</ele>
        <time>2020-07-11T05:38:43.583Z</time>
      </trkpt>
      <trkpt lat="44.17592" lon="5.12927">
        <ele>315</ele>
        <time>2020-07-11T05:38:44.583Z</time>
      </trkpt>
      <trkpt lat="44.17587" lon="5.12929">
        <ele>315</ele>
        <time>2020-07-11T05:38:45.583Z</time>
      </trkpt>
      <trkpt lat="44.17581" lon="5.12932">
        <ele>315</ele>
        <time>2020-07-11T05:38:46.583Z</time>
      </trkpt>
      <trkpt lat="44.17575" lon="5.12934">
        <ele>315</ele>
        <time>2020-07-11T05:38:47.583Z</time>
      </trkpt>
      <trkpt lat="44.1757" lon="5.12937">
        <ele>315</ele>
        <time>2020-07-11T05:38:48.583Z</time>
      </trkpt>
      <trkpt lat="44.17564" lon="5.1294">
        <ele>316</ele>
        <time>2020-07-11T05:38:49.583Z</time>
      </trkpt>
      <trkpt lat="44.17559" lon="5.12943">
        <ele>316</ele>
        <time>2020-07-11T05:38:50.583Z</time>
      </trkpt>
      <trkpt lat="44.17554" lon="5.12946">
        <ele>316</ele>
        <time>2020-07-11T05:38:51.583Z</time>
      </trkpt>
      <trkpt lat="44.17549" lon="5.12949">
        <ele>316</ele>
        <time>2020-07-11T05:38:52.582Z</time>
      </trkpt>
      <trkpt lat="44.17544" lon="5.12953">
        <ele>317</ele>
        <time>2020-07-11T05:38:53.582Z</time>
      </trkpt>
      <trkpt lat="44.17539" lon="5.12956">
        <ele>318</ele>
        <time>2020-07-11T05:38:54.583Z</time>
      </trkpt>
      <trkpt lat="44.17534" lon="5.12959">
        <ele>319</ele>
        <time>2020-07-11T05:38:55.583Z</time>
      </trkpt>
      <trkpt lat="44.17529" lon="5.12962">
        <ele>319</ele>
        <time>2020-07-11T05:38:56.582Z</time>
      </trkpt>
      <trkpt lat="44.17524" lon="5.12965">
        <ele>319</ele>
        <time>2020-07-11T05:38:57.583Z</time>
      </trkpt>
      <trkpt lat="44.17519" lon="5.12967">
        <ele>319</ele>
        <time>2020-07-11T05:38:58.583Z</time>
      </trkpt>
      <trkpt lat="44.17514" lon="5.12967">
        <ele>320</ele>
        <time>2020-07-11T05:38:59.583Z</time>
      </trkpt>
      <trkpt lat="44.17508" lon="5.12967">
        <ele>320</ele>
        <time>2020-07-11T05:39:00.583Z</time>
      </trkpt>
      <trkpt lat="44.17503" lon="5.12967">
        <ele>321</ele>
        <time>2020-07-11T05:39:01.583Z</time>
      </trkpt>
      <trkpt lat="44.17498" lon="5.12968">
        <ele>321</ele>
        <time>2020-07-11T05:39:02.583Z</time>
      </trkpt>
      <trkpt lat="44.17492" lon="5.12968">
        <ele>322</ele>
        <time>2020-07-11T05:39:03.583Z</time>
      </trkpt>
      <trkpt lat="44.17487" lon="5.12969">
        <ele>322</ele>
        <time>2020-07-11T05:39:04.583Z</time>
      </trkpt>
      <trkpt lat="44.17481" lon="5.12969">
        <ele>323</ele>
        <time>2020-07-11T05:39:05.583Z</time>
      </trkpt>
      <trkpt lat="44.17476" lon="5.1297">
        <ele>323</ele>
        <time>2020-07-11T05:39:06.583Z</time>
      </trkpt>
      <trkpt lat="44.17471" lon="5.12971">
        <ele>323</ele>
        <time>2020-07-11T05:39:07.582Z</time>
      </trkpt>
      <trkpt lat="44.17465" lon="5.12973">
        <ele>323</ele>
        <time>2020-07-11T05:39:08.583Z</time>
      </trkpt>
      <trkpt lat="44.1746" lon="5.12974">
        <ele>323</ele>
        <time>2020-07-11T05:39:09.583Z</time>
      </trkpt>
      <trkpt lat="44.17455" lon="5.12977">
        <ele>324</ele>
        <time>2020-07-11T05:39:10.582Z</time>
      </trkpt>
      <trkpt lat="44.1745" lon="5.12979">
        <ele>324</ele>
        <time>2020-07-11T05:39:11.583Z</time>
      </trkpt>
      <trkpt lat="44.17445" lon="5.12982">
        <ele>325</ele>
        <time>2020-07-11T05:39:12.583Z</time>
      </trkpt>
      <trkpt lat="44.1744" lon="5.12986">
        <ele>325</ele>
        <time>2020-07-11T05:39:13.583Z</time>
      </trkpt>
      <trkpt lat="44.17436" lon="5.1299">
        <ele>326</ele>
        <time>2020-07-11T05:39:14.583Z</time>
      </trkpt>
      <trkpt lat="44.17431" lon="5.12995">
        <ele>326</ele>
        <time>2020-07-11T05:39:15.583Z</time>
      </trkpt>
      <trkpt lat="44.17427" lon="5.13">
        <ele>327</ele>
        <time>2020-07-11T05:39:16.583Z</time>
      </trkpt>
      <trkpt lat="44.17423" lon="5.13005">
        <ele>328</ele>
        <time>2020-07-11T05:39:17.583Z</time>
      </trkpt>
      <trkpt lat="44.17418" lon="5.13012">
        <ele>328</ele>
        <time>2020-07-11T05:39:18.583Z</time>
      </trkpt>
      <trkpt lat="44.17415" lon="5.13016">
        <ele>329</ele>
        <time>2020-07-11T05:39:19.582Z</time>
      </trkpt>
      <trkpt lat="44.17411" lon="5.13021">
        <ele>329</ele>
        <time>2020-07-11T05:39:20.583Z</time>
      </trkpt>
      <trkpt lat="44.17407" lon="5.13026">
        <ele>330</ele>
        <time>2020-07-11T05:39:21.583Z</time>
      </trkpt>
      <trkpt lat="44.17403" lon="5.13031">
        <ele>330</ele>
        <time>2020-07-11T05:39:22.582Z</time>
      </trkpt>
      <trkpt lat="44.17398" lon="5.13036">
        <ele>331</ele>
        <time>2020-07-11T05:39:23.583Z</time>
      </trkpt>
      <trkpt lat="44.17394" lon="5.1304">
        <ele>332</ele>
        <time>2020-07-11T05:39:24.583Z</time>
      </trkpt>
      <trkpt lat="44.17389" lon="5.13045">
        <ele>332</ele>
        <time>2020-07-11T05:39:25.583Z</time>
      </trkpt>
      <trkpt lat="44.17385" lon="5.13048">
        <ele>333</ele>
        <time>2020-07-11T05:39:26.582Z</time>
      </trkpt>
      <trkpt lat="44.17382" lon="5.13051">
        <ele>334</ele>
        <time>2020-07-11T05:39:27.583Z</time>
      </trkpt>
      <trkpt lat="44.17377" lon="5.13053">
        <ele>334</ele>
        <time>2020-07-11T05:39:28.583Z</time>
      </trkpt>
      <trkpt lat="44.17373" lon="5.13057">
        <ele>334</ele>
        <time>2020-07-11T05:39:29.583Z</time>
      </trkpt>
      <trkpt lat="44.17369" lon="5.13061">
        <ele>335</ele>
        <time>2020-07-11T05:39:30.583Z</time>
      </trkpt>
      <trkpt lat="44.17365" lon="5.13065">
        <ele>335</ele>
        <time>2020-07-11T05:39:31.583Z</time>
      </trkpt>
      <trkpt lat="44.17361" lon="5.13069">
        <ele>336</ele>
        <time>2020-07-11T05:39:32.583Z</time>
      </trkpt>
      <trkpt lat="44.17358" lon="5.13074">
        <ele>336</ele>
        <time>2020-07-11T05:39:33.583Z</time>
      </trkpt>
      <trkpt lat="44.17355" lon="5.13079">
        <ele>336</ele>
        <time>2020-07-11T05:39:34.582Z</time>
      </trkpt>
      <trkpt lat="44.17351" lon="5.13082">
        <ele>336</ele>
        <time>2020-07-11T05:39:35.583Z</time>
      </trkpt>
      <trkpt lat="44.17346" lon="5.13085">
        <ele>336</ele>
        <time>2020-07-11T05:39:36.582Z</time>
      </trkpt>
      <trkpt lat="44.17342" lon="5.13086">
        <ele>337</ele>
        <time>2020-07-11T05:39:37.583Z</time>
      </trkpt>
      <trkpt lat="44.17337" lon="5.13087">
        <ele>337</ele>
        <time>2020-07-11T05:39:38.583Z</time>
      </trkpt>
      <trkpt lat="44.17332" lon="5.13088">
        <ele>337</ele>
        <time>2020-07-11T05:39:39.583Z</time>
      </trkpt>
      <trkpt lat="44.17327" lon="5.13089">
        <ele>337</ele>
        <time>2020-07-11T05:39:40.583Z</time>
      </trkpt>
      <trkpt lat="44.17322" lon="5.13091">
        <ele>337</ele>
        <time>2020-07-11T05:39:41.582Z</time>
      </trkpt>
      <trkpt lat="44.17318" lon="5.13092">
        <ele>337</ele>
        <time>2020-07-11T05:39:42.583Z</time>
      </trkpt>
      <trkpt lat="44.17313" lon="5.13093">
        <ele>336</ele>
        <time>2020-07-11T05:39:43.583Z</time>
      </trkpt>
      <trkpt lat="44.17309" lon="5.13096">
        <ele>336</ele>
        <time>2020-07-11T05:39:44.583Z</time>
      </trkpt>
      <trkpt lat="44.17304" lon="5.13098">
        <ele>336</ele>
        <time>2020-07-11T05:39:45.583Z</time>
      </trkpt>
      <trkpt lat="44.17298" lon="5.13101">
        <ele>336</ele>
        <time>2020-07-11T05:39:46.582Z</time>
      </trkpt>
      <trkpt lat="44.17295" lon="5.13104">
        <ele>336</ele>
        <time>2020-07-11T05:39:47.582Z</time>
      </trkpt>
      <trkpt lat="44.17291" lon="5.13107">
        <ele>336</ele>
        <time>2020-07-11T05:39:48.583Z</time>
      </trkpt>
      <trkpt lat="44.17287" lon="5.13111">
        <ele>336</ele>
        <time>2020-07-11T05:39:49.582Z</time>
      </trkpt>
      <trkpt lat="44.17283" lon="5.13115">
        <ele>336</ele>
        <time>2020-07-11T05:39:50.583Z</time>
      </trkpt>
      <trkpt lat="44.17279" lon="5.13118">
        <ele>336</ele>
        <time>2020-07-11T05:39:51.583Z</time>
      </trkpt>
      <trkpt lat="44.17275" lon="5.13121">
        <ele>336</ele>
        <time>2020-07-11T05:39:52.583Z</time>
      </trkpt>
      <trkpt lat="44.17271" lon="5.13124">
        <ele>337</ele>
        <time>2020-07-11T05:39:53.583Z</time>
      </trkpt>
      <trkpt lat="44.17267" lon="5.13127">
        <ele>336</ele>
        <time>2020-07-11T05:39:54.583Z</time>
      </trkpt>
      <trkpt lat="44.17264" lon="5.13131">
        <ele>336</ele>
        <time>2020-07-11T05:39:55.582Z</time>
      </trkpt>
      <trkpt lat="44.1726" lon="5.13134">
        <ele>336</ele>
        <time>2020-07-11T05:39:56.582Z</time>
      </trkpt>
      <trkpt lat="44.17257" lon="5.13136">
        <ele>336</ele>
        <time>2020-07-11T05:39:57.583Z</time>
      </trkpt>
      <trkpt lat="44.17254" lon="5.13139">
        <ele>336</ele>
        <time>2020-07-11T05:39:58.583Z</time>
      </trkpt>
      <trkpt lat="44.17251" lon="5.13142">
        <ele>336</ele>
        <time>2020-07-11T05:39:59.582Z</time>
      </trkpt>
      <trkpt lat="44.17247" lon="5.13144">
        <ele>336</ele>
        <time>2020-07-11T05:40:00.583Z</time>
      </trkpt>
      <trkpt lat="44.17243" lon="5.13146">
        <ele>336</ele>
        <time>2020-07-11T05:40:01.583Z</time>
      </trkpt>
      <trkpt lat="44.17239" lon="5.13148">
        <ele>337</ele>
        <time>2020-07-11T05:40:02.583Z</time>
      </trkpt>
      <trkpt lat="44.17236" lon="5.1315">
        <ele>337</ele>
        <time>2020-07-11T05:40:03.583Z</time>
      </trkpt>
      <trkpt lat="44.17232" lon="5.13152">
        <ele>338</ele>
        <time>2020-07-11T05:40:04.583Z</time>
      </trkpt>
      <trkpt lat="44.17228" lon="5.13154">
        <ele>338</ele>
        <time>2020-07-11T05:40:05.583Z</time>
      </trkpt>
      <trkpt lat="44.17225" lon="5.13157">
        <ele>338</ele>
        <time>2020-07-11T05:40:06.583Z</time>
      </trkpt>
      <trkpt lat="44.17221" lon="5.13159">
        <ele>339</ele>
        <time>2020-07-11T05:40:07.583Z</time>
      </trkpt>
      <trkpt lat="44.17217" lon="5.13162">
        <ele>339</ele>
        <time>2020-07-11T05:40:08.583Z</time>
      </trkpt>
      <trkpt lat="44.17213" lon="5.13164">
        <ele>339</ele>
        <time>2020-07-11T05:40:09.582Z</time>
      </trkpt>
      <trkpt lat="44.17209" lon="5.13167">
        <ele>340</ele>
        <time>2020-07-11T05:40:10.583Z</time>
      </trkpt>
      <trkpt lat="44.17206" lon="5.13169">
        <ele>340</ele>
        <time>2020-07-11T05:40:11.583Z</time>
      </trkpt>
      <trkpt lat="44.17202" lon="5.13171">
        <ele>340</ele>
        <time>2020-07-11T05:40:12.583Z</time>
      </trkpt>
      <trkpt lat="44.17199" lon="5.13174">
        <ele>340</ele>
        <time>2020-07-11T05:40:13.582Z</time>
      </trkpt>
      <trkpt lat="44.17195" lon="5.13176">
        <ele>340</ele>
        <time>2020-07-11T05:40:14.582Z</time>
      </trkpt>
      <trkpt lat="44.17192" lon="5.13179">
        <ele>340</ele>
        <time>2020-07-11T05:40:15.583Z</time>
      </trkpt>
      <trkpt lat="44.17188" lon="5.13181">
        <ele>341</ele>
        <time>2020-07-11T05:40:16.582Z</time>
      </trkpt>
      <trkpt lat="44.17185" lon="5.13183">
        <ele>341</ele>
        <time>2020-07-11T05:40:17.583Z</time>
      </trkpt>
      <trkpt lat="44.17181" lon="5.13185">
        <ele>341</ele>
        <time>2020-07-11T05:40:18.583Z</time>
      </trkpt>
      <trkpt lat="44.17178" lon="5.13187">
        <ele>341</ele>
        <time>2020-07-11T05:40:19.583Z</time>
      </trkpt>
      <trkpt lat="44.17175" lon="5.1319">
        <ele>341</ele>
        <time>2020-07-11T05:40:20.582Z</time>
      </trkpt>
      <trkpt lat="44.17172" lon="5.13192">
        <ele>342</ele>
        <time>2020-07-11T05:40:21.583Z</time>
      </trkpt>
      <trkpt lat="44.17169" lon="5.13194">
        <ele>342</ele>
        <time>2020-07-11T05:40:22.583Z</time>
      </trkpt>
      <trkpt lat="44.17165" lon="5.13197">
        <ele>342</ele>
        <time>2020-07-11T05:40:23.583Z</time>
      </trkpt>
      <trkpt lat="44.17162" lon="5.13199">
        <ele>342</ele>
        <time>2020-07-11T05:40:24.583Z</time>
      </trkpt>
      <trkpt lat="44.17159" lon="5.13201">
        <ele>343</ele>
        <time>2020-07-11T05:40:25.583Z</time>
      </trkpt>
      <trkpt lat="44.17154" lon="5.13204">
        <ele>343</ele>
        <time>2020-07-11T05:40:26.582Z</time>
      </trkpt>
      <trkpt lat="44.17151" lon="5.13206">
        <ele>344</ele>
        <time>2020-07-11T05:40:27.582Z</time>
      </trkpt>
      <trkpt lat="44.17147" lon="5.13208">
        <ele>344</ele>
        <time>2020-07-11T05:40:28.582Z</time>
      </trkpt>
      <trkpt lat="44.17144" lon="5.1321">
        <ele>345</ele>
        <time>2020-07-11T05:40:29.583Z</time>
      </trkpt>
      <trkpt lat="44.1714" lon="5.1321">
        <ele>345</ele>
        <time>2020-07-11T05:40:30.583Z</time>
      </trkpt>
      <trkpt lat="44.17136" lon="5.1321">
        <ele>345</ele>
        <time>2020-07-11T05:40:31.582Z</time>
      </trkpt>
      <trkpt lat="44.17133" lon="5.13208">
        <ele>345</ele>
        <time>2020-07-11T05:40:32.583Z</time>
      </trkpt>
      <trkpt lat="44.17129" lon="5.13206">
        <ele>346</ele>
        <time>2020-07-11T05:40:33.582Z</time>
      </trkpt>
      <trkpt lat="44.17125" lon="5.13204">
        <ele>346</ele>
        <time>2020-07-11T05:40:34.583Z</time>
      </trkpt>
      <trkpt lat="44.1712" lon="5.13202">
        <ele>347</ele>
        <time>2020-07-11T05:40:35.583Z</time>
      </trkpt>
      <trkpt lat="44.17116" lon="5.13201">
        <ele>347</ele>
        <time>2020-07-11T05:40:36.583Z</time>
      </trkpt>
      <trkpt lat="44.17112" lon="5.13199">
        <ele>347</ele>
        <time>2020-07-11T05:40:37.583Z</time>
      </trkpt>
      <trkpt lat="44.17108" lon="5.13196">
        <ele>348</ele>
        <time>2020-07-11T05:40:38.582Z</time>
      </trkpt>
      <trkpt lat="44.17104" lon="5.13194">
        <ele>348</ele>
        <time>2020-07-11T05:40:39.583Z</time>
      </trkpt>
      <trkpt lat="44.17099" lon="5.13192">
        <ele>349</ele>
        <time>2020-07-11T05:40:40.583Z</time>
      </trkpt>
      <trkpt lat="44.17095" lon="5.1319">
        <ele>349</ele>
        <time>2020-07-11T05:40:41.582Z</time>
      </trkpt>
      <trkpt lat="44.17091" lon="5.13188">
        <ele>349</ele>
        <time>2020-07-11T05:40:42.582Z</time>
      </trkpt>
      <trkpt lat="44.17087" lon="5.13186">
        <ele>350</ele>
        <time>2020-07-11T05:40:43.583Z</time>
      </trkpt>
      <trkpt lat="44.17082" lon="5.13184">
        <ele>350</ele>
        <time>2020-07-11T05:40:44.583Z</time>
      </trkpt>
      <trkpt lat="44.17078" lon="5.13182">
        <ele>350</ele>
        <time>2020-07-11T05:40:45.583Z</time>
      </trkpt>
      <trkpt lat="44.17074" lon="5.13179">
        <ele>350</ele>
        <time>2020-07-11T05:40:46.582Z</time>
      </trkpt>
      <trkpt lat="44.1707" lon="5.13177">
        <ele>351</ele>
        <time>2020-07-11T05:40:47.582Z</time>
      </trkpt>
      <trkpt lat="44.17065" lon="5.13176">
        <ele>351</ele>
        <time>2020-07-11T05:40:48.583Z</time>
      </trkpt>
      <trkpt lat="44.17061" lon="5.13174">
        <ele>351</ele>
        <time>2020-07-11T05:40:49.582Z</time>
      </trkpt>
      <trkpt lat="44.17057" lon="5.13172">
        <ele>351</ele>
        <time>2020-07-11T05:40:50.583Z</time>
      </trkpt>
      <trkpt lat="44.17052" lon="5.1317">
        <ele>352</ele>
        <time>2020-07-11T05:40:51.583Z</time>
      </trkpt>
      <trkpt lat="44.17048" lon="5.13169">
        <ele>351</ele>
        <time>2020-07-11T05:40:52.583Z</time>
      </trkpt>
      <trkpt lat="44.17044" lon="5.13168">
        <ele>351</ele>
        <time>2020-07-11T05:40:53.583Z</time>
      </trkpt>
      <trkpt lat="44.1704" lon="5.13166">
        <ele>351</ele>
        <time>2020-07-11T05:40:54.582Z</time>
      </trkpt>
      <trkpt lat="44.17035" lon="5.13164">
        <ele>351</ele>
        <time>2020-07-11T05:40:55.582Z</time>
      </trkpt>
      <trkpt lat="44.17031" lon="5.13162">
        <ele>351</ele>
        <time>2020-07-11T05:40:56.583Z</time>
      </trkpt>
      <trkpt lat="44.17027" lon="5.1316">
        <ele>351</ele>
        <time>2020-07-11T05:40:57.583Z</time>
      </trkpt>
      <trkpt lat="44.17023" lon="5.13158">
        <ele>351</ele>
        <time>2020-07-11T05:40:58.583Z</time>
      </trkpt>
      <trkpt lat="44.17019" lon="5.13157">
        <ele>351</ele>
        <time>2020-07-11T05:40:59.582Z</time>
      </trkpt>
      <trkpt lat="44.17015" lon="5.13155">
        <ele>351</ele>
        <time>2020-07-11T05:41:00.582Z</time>
      </trkpt>
      <trkpt lat="44.1701" lon="5.13154">
        <ele>352</ele>
        <time>2020-07-11T05:41:01.582Z</time>
      </trkpt>
      <trkpt lat="44.17006" lon="5.13152">
        <ele>352</ele>
        <time>2020-07-11T05:41:02.582Z</time>
      </trkpt>
      <trkpt lat="44.17002" lon="5.1315">
        <ele>352</ele>
        <time>2020-07-11T05:41:03.582Z</time>
      </trkpt>
      <trkpt lat="44.16998" lon="5.13148">
        <ele>352</ele>
        <time>2020-07-11T05:41:04.582Z</time>
      </trkpt>
      <trkpt lat="44.16994" lon="5.13147">
        <ele>352</ele>
        <time>2020-07-11T05:41:05.583Z</time>
      </trkpt>
      <trkpt lat="44.1699" lon="5.13145">
        <ele>352</ele>
        <time>2020-07-11T05:41:06.583Z</time>
      </trkpt>
      <trkpt lat="44.16985" lon="5.13143">
        <ele>352</ele>
        <time>2020-07-11T05:41:07.583Z</time>
      </trkpt>
      <trkpt lat="44.16981" lon="5.13141">
        <ele>351</ele>
        <time>2020-07-11T05:41:08.582Z</time>
      </trkpt>
      <trkpt lat="44.16977" lon="5.13139">
        <ele>351</ele>
        <time>2020-07-11T05:41:09.583Z</time>
      </trkpt>
      <trkpt lat="44.16973" lon="5.13138">
        <ele>351</ele>
        <time>2020-07-11T05:41:10.582Z</time>
      </trkpt>
      <trkpt lat="44.16969" lon="5.13136">
        <ele>351</ele>
        <time>2020-07-11T05:41:11.582Z</time>
      </trkpt>
      <trkpt lat="44.16965" lon="5.13134">
        <ele>350</ele>
        <time>2020-07-11T05:41:12.583Z</time>
      </trkpt>
      <trkpt lat="44.1696" lon="5.13132">
        <ele>350</ele>
        <time>2020-07-11T05:41:13.583Z</time>
      </trkpt>
      <trkpt lat="44.16956" lon="5.1313">
        <ele>350</ele>
        <time>2020-07-11T05:41:14.582Z</time>
      </trkpt>
      <trkpt lat="44.16952" lon="5.13128">
        <ele>350</ele>
        <time>2020-07-11T05:41:15.582Z</time>
      </trkpt>
      <trkpt lat="44.16948" lon="5.13126">
        <ele>350</ele>
        <time>2020-07-11T05:41:16.583Z</time>
      </trkpt>
      <trkpt lat="44.16944" lon="5.13124">
        <ele>350</ele>
        <time>2020-07-11T05:41:17.583Z</time>
      </trkpt>
      <trkpt lat="44.16939" lon="5.13122">
        <ele>351</ele>
        <time>2020-07-11T05:41:18.583Z</time>
      </trkpt>
      <trkpt lat="44.16935" lon="5.13121">
        <ele>351</ele>
        <time>2020-07-11T05:41:19.582Z</time>
      </trkpt>
      <trkpt lat="44.16931" lon="5.13119">
        <ele>351</ele>
        <time>2020-07-11T05:41:20.582Z</time>
      </trkpt>
      <trkpt lat="44.16927" lon="5.13117">
        <ele>351</ele>
        <time>2020-07-11T05:41:21.582Z</time>
      </trkpt>
      <trkpt lat="44.16922" lon="5.13115">
        <ele>351</ele>
        <time>2020-07-11T05:41:22.583Z</time>
      </trkpt>
      <trkpt lat="44.16918" lon="5.13114">
        <ele>352</ele>
        <time>2020-07-11T05:41:23.583Z</time>
      </trkpt>
      <trkpt lat="44.16914" lon="5.13112">
        <ele>352</ele>
        <time>2020-07-11T05:41:24.582Z</time>
      </trkpt>
      <trkpt lat="44.16909" lon="5.1311">
        <ele>353</ele>
        <time>2020-07-11T05:41:25.582Z</time>
      </trkpt>
      <trkpt lat="44.16905" lon="5.13107">
        <ele>353</ele>
        <time>2020-07-11T05:41:26.583Z</time>
      </trkpt>
      <trkpt lat="44.16901" lon="5.13105">
        <ele>352</ele>
        <time>2020-07-11T05:41:27.582Z</time>
      </trkpt>
      <trkpt lat="44.16897" lon="5.13102">
        <ele>353</ele>
        <time>2020-07-11T05:41:28.582Z</time>
      </trkpt>
      <trkpt lat="44.16893" lon="5.13098">
        <ele>353</ele>
        <time>2020-07-11T05:41:29.582Z</time>
      </trkpt>
      <trkpt lat="44.16889" lon="5.13094">
        <ele>353</ele>
        <time>2020-07-11T05:41:30.583Z</time>
      </trkpt>
      <trkpt lat="44.16886" lon="5.13089">
        <ele>353</ele>
        <time>2020-07-11T05:41:31.583Z</time>
      </trkpt>
      <trkpt lat="44.16883" lon="5.13084">
        <ele>353</ele>
        <time>2020-07-11T05:41:32.583Z</time>
      </trkpt>
      <trkpt lat="44.16881" lon="5.13078">
        <ele>353</ele>
        <time>2020-07-11T05:41:33.583Z</time>
      </trkpt>
      <trkpt lat="44.16879" lon="5.13072">
        <ele>353</ele>
        <time>2020-07-11T05:41:34.583Z</time>
      </trkpt>
      <trkpt lat="44.16878" lon="5.13066">
        <ele>353</ele>
        <time>2020-07-11T05:41:35.583Z</time>
      </trkpt>
      <trkpt lat="44.16877" lon="5.1306">
        <ele>353</ele>
        <time>2020-07-11T05:41:36.582Z</time>
      </trkpt>
      <trkpt lat="44.16877" lon="5.13053">
        <ele>353</ele>
        <time>2020-07-11T05:41:37.583Z</time>
      </trkpt>
      <trkpt lat="44.16877" lon="5.13047">
        <ele>352</ele>
        <time>2020-07-11T05:41:38.583Z</time>
      </trkpt>
      <trkpt lat="44.16878" lon="5.13041">
        <ele>352</ele>
        <time>2020-07-11T05:41:39.582Z</time>
      </trkpt>
      <trkpt lat="44.16879" lon="5.13034">
        <ele>352</ele>
        <time>2020-07-11T05:41:40.582Z</time>
      </trkpt>
      <trkpt lat="44.1688" lon="5.13028">
        <ele>352</ele>
        <time>2020-07-11T05:41:41.582Z</time>
      </trkpt>
      <trkpt lat="44.16882" lon="5.13021">
        <ele>352</ele>
        <time>2020-07-11T05:41:42.583Z</time>
      </trkpt>
      <trkpt lat="44.16883" lon="5.13015">
        <ele>352</ele>
        <time>2020-07-11T05:41:43.583Z</time>
      </trkpt>
      <trkpt lat="44.16885" lon="5.13008">
        <ele>352</ele>
        <time>2020-07-11T05:41:44.583Z</time>
      </trkpt>
      <trkpt lat="44.16886" lon="5.13002">
        <ele>352</ele>
        <time>2020-07-11T05:41:45.583Z</time>
      </trkpt>
      <trkpt lat="44.16888" lon="5.12996">
        <ele>353</ele>
        <time>2020-07-11T05:41:46.582Z</time>
      </trkpt>
      <trkpt lat="44.16889" lon="5.1299">
        <ele>353</ele>
        <time>2020-07-11T05:41:47.583Z</time>
      </trkpt>
      <trkpt lat="44.16891" lon="5.12983">
        <ele>354</ele>
        <time>2020-07-11T05:41:48.583Z</time>
      </trkpt>
      <trkpt lat="44.16892" lon="5.12977">
        <ele>354</ele>
        <time>2020-07-11T05:41:49.583Z</time>
      </trkpt>
      <trkpt lat="44.16894" lon="5.12971">
        <ele>354</ele>
        <time>2020-07-11T05:41:50.582Z</time>
      </trkpt>
      <trkpt lat="44.16896" lon="5.12965">
        <ele>355</ele>
        <time>2020-07-11T05:41:51.583Z</time>
      </trkpt>
      <trkpt lat="44.16897" lon="5.12958">
        <ele>355</ele>
        <time>2020-07-11T05:41:52.583Z</time>
      </trkpt>
      <trkpt lat="44.16899" lon="5.12952">
        <ele>355</ele>
        <time>2020-07-11T05:41:53.583Z</time>
      </trkpt>
      <trkpt lat="44.16901" lon="5.12946">
        <ele>355</ele>
        <time>2020-07-11T05:41:54.583Z</time>
      </trkpt>
      <trkpt lat="44.16902" lon="5.12939">
        <ele>355</ele>
        <time>2020-07-11T05:41:55.582Z</time>
      </trkpt>
      <trkpt lat="44.16904" lon="5.12933">
        <ele>355</ele>
        <time>2020-07-11T05:41:56.582Z</time>
      </trkpt>
      <trkpt lat="44.16906" lon="5.12926">
        <ele>355</ele>
        <time>2020-07-11T05:41:57.583Z</time>
      </trkpt>
      <trkpt lat="44.16907" lon="5.1292">
        <ele>356</ele>
        <time>2020-07-11T05:41:58.582Z</time>
      </trkpt>
      <trkpt lat="44.16908" lon="5.12914">
        <ele>356</ele>
        <time>2020-07-11T05:41:59.583Z</time>
      </trkpt>
      <trkpt lat="44.1691" lon="5.12908">
        <ele>356</ele>
        <time>2020-07-11T05:42:00.582Z</time>
      </trkpt>
      <trkpt lat="44.16911" lon="5.12902">
        <ele>357</ele>
        <time>2020-07-11T05:42:01.582Z</time>
      </trkpt>
      <trkpt lat="44.16913" lon="5.12896">
        <ele>357</ele>
        <time>2020-07-11T05:42:02.582Z</time>
      </trkpt>
      <trkpt lat="44.16914" lon="5.1289">
        <ele>357</ele>
        <time>2020-07-11T05:42:03.582Z</time>
      </trkpt>
      <trkpt lat="44.16915" lon="5.12883">
        <ele>357</ele>
        <time>2020-07-11T05:42:04.583Z</time>
      </trkpt>
      <trkpt lat="44.16917" lon="5.12877">
        <ele>357</ele>
        <time>2020-07-11T05:42:05.582Z</time>
      </trkpt>
      <trkpt lat="44.16919" lon="5.1287">
        <ele>358</ele>
        <time>2020-07-11T05:42:06.582Z</time>
      </trkpt>
      <trkpt lat="44.1692" lon="5.12864">
        <ele>358</ele>
        <time>2020-07-11T05:42:07.583Z</time>
      </trkpt>
      <trkpt lat="44.16922" lon="5.12858">
        <ele>358</ele>
        <time>2020-07-11T05:42:08.583Z</time>
      </trkpt>
      <trkpt lat="44.16923" lon="5.12852">
        <ele>357</ele>
        <time>2020-07-11T05:42:09.583Z</time>
      </trkpt>
      <trkpt lat="44.16925" lon="5.12846">
        <ele>357</ele>
        <time>2020-07-11T05:42:10.582Z</time>
      </trkpt>
      <trkpt lat="44.16927" lon="5.12839">
        <ele>357</ele>
        <time>2020-07-11T05:42:11.582Z</time>
      </trkpt>
      <trkpt lat="44.16928" lon="5.12833">
        <ele>358</ele>
        <time>2020-07-11T05:42:12.583Z</time>
      </trkpt>
      <trkpt lat="44.1693" lon="5.12826">
        <ele>359</ele>
        <time>2020-07-11T05:42:13.583Z</time>
      </trkpt>
      <trkpt lat="44.16932" lon="5.1282">
        <ele>359</ele>
        <time>2020-07-11T05:42:14.582Z</time>
      </trkpt>
      <trkpt lat="44.16934" lon="5.12814">
        <ele>358</ele>
        <time>2020-07-11T05:42:15.582Z</time>
      </trkpt>
      <trkpt lat="44.16935" lon="5.12807">
        <ele>358</ele>
        <time>2020-07-11T05:42:16.582Z</time>
      </trkpt>
      <trkpt lat="44.16937" lon="5.12801">
        <ele>358</ele>
        <time>2020-07-11T05:42:17.582Z</time>
      </trkpt>
      <trkpt lat="44.16939" lon="5.12795">
        <ele>359</ele>
        <time>2020-07-11T05:42:18.583Z</time>
      </trkpt>
      <trkpt lat="44.16941" lon="5.12788">
        <ele>359</ele>
        <time>2020-07-11T05:42:19.582Z</time>
      </trkpt>
      <trkpt lat="44.16943" lon="5.12783">
        <ele>359</ele>
        <time>2020-07-11T05:42:20.582Z</time>
      </trkpt>
      <trkpt lat="44.16945" lon="5.12777">
        <ele>360</ele>
        <time>2020-07-11T05:42:21.582Z</time>
      </trkpt>
      <trkpt lat="44.16948" lon="5.12772">
        <ele>360</ele>
        <time>2020-07-11T05:42:22.582Z</time>
      </trkpt>
      <trkpt lat="44.1695" lon="5.12766">
        <ele>360</ele>
        <time>2020-07-11T05:42:23.582Z</time>
      </trkpt>
      <trkpt lat="44.16953" lon="5.12761">
        <ele>360</ele>
        <time>2020-07-11T05:42:24.582Z</time>
      </trkpt>
      <trkpt lat="44.16956" lon="5.12756">
        <ele>360</ele>
        <time>2020-07-11T05:42:25.582Z</time>
      </trkpt>
      <trkpt lat="44.1696" lon="5.12752">
        <ele>361</ele>
        <time>2020-07-11T05:42:26.582Z</time>
      </trkpt>
      <trkpt lat="44.16963" lon="5.12747">
        <ele>361</ele>
        <time>2020-07-11T05:42:27.582Z</time>
      </trkpt>
      <trkpt lat="44.16967" lon="5.12743">
        <ele>361</ele>
        <time>2020-07-11T05:42:28.582Z</time>
      </trkpt>
      <trkpt lat="44.16971" lon="5.12739">
        <ele>361</ele>
        <time>2020-07-11T05:42:29.583Z</time>
      </trkpt>
      <trkpt lat="44.16975" lon="5.12735">
        <ele>361</ele>
        <time>2020-07-11T05:42:30.582Z</time>
      </trkpt>
      <trkpt lat="44.16979" lon="5.12731">
        <ele>361</ele>
        <time>2020-07-11T05:42:31.583Z</time>
      </trkpt>
      <trkpt lat="44.16983" lon="5.12727">
        <ele>362</ele>
        <time>2020-07-11T05:42:32.582Z</time>
      </trkpt>
      <trkpt lat="44.16987" lon="5.12724">
        <ele>362</ele>
        <time>2020-07-11T05:42:33.582Z</time>
      </trkpt>
      <trkpt lat="44.16991" lon="5.1272">
        <ele>362</ele>
        <time>2020-07-11T05:42:34.583Z</time>
      </trkpt>
      <trkpt lat="44.16995" lon="5.12717">
        <ele>363</ele>
        <time>2020-07-11T05:42:35.583Z</time>
      </trkpt>
      <trkpt lat="44.16999" lon="5.12714">
        <ele>363</ele>
        <time>2020-07-11T05:42:36.582Z</time>
      </trkpt>
      <trkpt lat="44.17003" lon="5.12711">
        <ele>364</ele>
        <time>2020-07-11T05:42:37.583Z</time>
      </trkpt>
      <trkpt lat="44.17007" lon="5.12708">
        <ele>364</ele>
        <time>2020-07-11T05:42:38.583Z</time>
      </trkpt>
      <trkpt lat="44.17012" lon="5.12705">
        <ele>364</ele>
        <time>2020-07-11T05:42:39.582Z</time>
      </trkpt>
      <trkpt lat="44.17016" lon="5.12702">
        <ele>364</ele>
        <time>2020-07-11T05:42:40.582Z</time>
      </trkpt>
      <trkpt lat="44.17021" lon="5.12699">
        <ele>364</ele>
        <time>2020-07-11T05:42:41.583Z</time>
      </trkpt>
      <trkpt lat="44.17025" lon="5.12695">
        <ele>363</ele>
        <time>2020-07-11T05:42:42.583Z</time>
      </trkpt>
      <trkpt lat="44.17029" lon="5.12692">
        <ele>363</ele>
        <time>2020-07-11T05:42:43.583Z</time>
      </trkpt>
      <trkpt lat="44.17034" lon="5.12689">
        <ele>363</ele>
        <time>2020-07-11T05:42:44.582Z</time>
      </trkpt>
      <trkpt lat="44.17038" lon="5.12686">
        <ele>363</ele>
        <time>2020-07-11T05:42:45.583Z</time>
      </trkpt>
      <trkpt lat="44.17042" lon="5.12683">
        <ele>363</ele>
        <time>2020-07-11T05:42:46.583Z</time>
      </trkpt>
      <trkpt lat="44.17047" lon="5.12679">
        <ele>363</ele>
        <time>2020-07-11T05:42:47.583Z</time>
      </trkpt>
      <trkpt lat="44.17051" lon="5.12676">
        <ele>364</ele>
        <time>2020-07-11T05:42:48.583Z</time>
      </trkpt>
      <trkpt lat="44.17055" lon="5.12673">
        <ele>364</ele>
        <time>2020-07-11T05:42:49.583Z</time>
      </trkpt>
      <trkpt lat="44.17059" lon="5.1267">
        <ele>364</ele>
        <time>2020-07-11T05:42:50.583Z</time>
      </trkpt>
      <trkpt lat="44.17063" lon="5.12667">
        <ele>364</ele>
        <time>2020-07-11T05:42:51.583Z</time>
      </trkpt>
      <trkpt lat="44.17068" lon="5.12663">
        <ele>364</ele>
        <time>2020-07-11T05:42:52.583Z</time>
      </trkpt>
      <trkpt lat="44.17072" lon="5.1266">
        <ele>364</ele>
        <time>2020-07-11T05:42:53.582Z</time>
      </trkpt>
      <trkpt lat="44.17076" lon="5.12657">
        <ele>364</ele>
        <time>2020-07-11T05:42:54.583Z</time>
      </trkpt>
      <trkpt lat="44.17081" lon="5.12654">
        <ele>364</ele>
        <time>2020-07-11T05:42:55.582Z</time>
      </trkpt>
      <trkpt lat="44.17085" lon="5.1265">
        <ele>364</ele>
        <time>2020-07-11T05:42:56.583Z</time>
      </trkpt>
      <trkpt lat="44.17089" lon="5.12647">
        <ele>364</ele>
        <time>2020-07-11T05:42:57.583Z</time>
      </trkpt>
      <trkpt lat="44.17094" lon="5.12644">
        <ele>365</ele>
        <time>2020-07-11T05:42:58.583Z</time>
      </trkpt>
      <trkpt lat="44.17098" lon="5.12641">
        <ele>365</ele>
        <time>2020-07-11T05:42:59.582Z</time>
      </trkpt>
      <trkpt lat="44.17102" lon="5.12638">
        <ele>365</ele>
        <time>2020-07-11T05:43:00.583Z</time>
      </trkpt>
      <trkpt lat="44.17107" lon="5.12634">
        <ele>365</ele>
        <time>2020-07-11T05:43:01.583Z</time>
      </trkpt>
      <trkpt lat="44.17111" lon="5.12631">
        <ele>366</ele>
        <time>2020-07-11T05:43:02.583Z</time>
      </trkpt>
      <trkpt lat="44.17115" lon="5.12627">
        <ele>367</ele>
        <time>2020-07-11T05:43:03.583Z</time>
      </trkpt>
      <trkpt lat="44.17119" lon="5.12623">
        <ele>367</ele>
        <time>2020-07-11T05:43:04.582Z</time>
      </trkpt>
      <trkpt lat="44.17122" lon="5.12619">
        <ele>367</ele>
        <time>2020-07-11T05:43:05.583Z</time>
      </trkpt>
      <trkpt lat="44.17125" lon="5.12614">
        <ele>368</ele>
        <time>2020-07-11T05:43:06.583Z</time>
      </trkpt>
      <trkpt lat="44.17128" lon="5.12609">
        <ele>368</ele>
        <time>2020-07-11T05:43:07.583Z</time>
      </trkpt>
      <trkpt lat="44.17131" lon="5.12603">
        <ele>368</ele>
        <time>2020-07-11T05:43:08.583Z</time>
      </trkpt>
      <trkpt lat="44.17133" lon="5.12597">
        <ele>369</ele>
        <time>2020-07-11T05:43:09.583Z</time>
      </trkpt>
      <trkpt lat="44.17135" lon="5.12591">
        <ele>369</ele>
        <time>2020-07-11T05:43:10.583Z</time>
      </trkpt>
      <trkpt lat="44.17136" lon="5.12585">
        <ele>369</ele>
        <time>2020-07-11T05:43:11.583Z</time>
      </trkpt>
      <trkpt lat="44.17136" lon="5.12578">
        <ele>369</ele>
        <time>2020-07-11T05:43:12.583Z</time>
      </trkpt>
      <trkpt lat="44.17136" lon="5.12571">
        <ele>369</ele>
        <time>2020-07-11T05:43:13.583Z</time>
      </trkpt>
      <trkpt lat="44.17135" lon="5.12565">
        <ele>369</ele>
        <time>2020-07-11T05:43:14.582Z</time>
      </trkpt>
      <trkpt lat="44.17134" lon="5.12558">
        <ele>370</ele>
        <time>2020-07-11T05:43:15.582Z</time>
      </trkpt>
      <trkpt lat="44.17132" lon="5.12552">
        <ele>370</ele>
        <time>2020-07-11T05:43:16.583Z</time>
      </trkpt>
      <trkpt lat="44.1713" lon="5.12546">
        <ele>371</ele>
        <time>2020-07-11T05:43:17.582Z</time>
      </trkpt>
      <trkpt lat="44.17127" lon="5.1254">
        <ele>371</ele>
        <time>2020-07-11T05:43:18.583Z</time>
      </trkpt>
      <trkpt lat="44.17124" lon="5.12535">
        <ele>371</ele>
        <time>2020-07-11T05:43:19.583Z</time>
      </trkpt>
      <trkpt lat="44.1712" lon="5.1253">
        <ele>371</ele>
        <time>2020-07-11T05:43:20.582Z</time>
      </trkpt>
      <trkpt lat="44.17115" lon="5.12526">
        <ele>371</ele>
        <time>2020-07-11T05:43:21.582Z</time>
      </trkpt>
      <trkpt lat="44.1711" lon="5.12522">
        <ele>371</ele>
        <time>2020-07-11T05:43:22.583Z</time>
      </trkpt>
      <trkpt lat="44.17105" lon="5.12519">
        <ele>371</ele>
        <time>2020-07-11T05:43:23.582Z</time>
      </trkpt>
      <trkpt lat="44.171" lon="5.12517">
        <ele>372</ele>
        <time>2020-07-11T05:43:24.583Z</time>
      </trkpt>
      <trkpt lat="44.17095" lon="5.12516">
        <ele>372</ele>
        <time>2020-07-11T05:43:25.582Z</time>
      </trkpt>
      <trkpt lat="44.1709" lon="5.12515">
        <ele>372</ele>
        <time>2020-07-11T05:43:26.583Z</time>
      </trkpt>
      <trkpt lat="44.17083" lon="5.12515">
        <ele>372</ele>
        <time>2020-07-11T05:43:27.582Z</time>
      </trkpt>
      <trkpt lat="44.17079" lon="5.12515">
        <ele>372</ele>
        <time>2020-07-11T05:43:28.583Z</time>
      </trkpt>
      <trkpt lat="44.17073" lon="5.12516">
        <ele>372</ele>
        <time>2020-07-11T05:43:29.583Z</time>
      </trkpt>
      <trkpt lat="44.17067" lon="5.12517">
        <ele>373</ele>
        <time>2020-07-11T05:43:30.583Z</time>
      </trkpt>
      <trkpt lat="44.17062" lon="5.12517">
        <ele>373</ele>
        <time>2020-07-11T05:43:31.583Z</time>
      </trkpt>
      <trkpt lat="44.17056" lon="5.12518">
        <ele>373</ele>
        <time>2020-07-11T05:43:32.583Z</time>
      </trkpt>
      <trkpt lat="44.17051" lon="5.12519">
        <ele>373</ele>
        <time>2020-07-11T05:43:33.583Z</time>
      </trkpt>
      <trkpt lat="44.17046" lon="5.1252">
        <ele>373</ele>
        <time>2020-07-11T05:43:34.582Z</time>
      </trkpt>
      <trkpt lat="44.1704" lon="5.12521">
        <ele>373</ele>
        <time>2020-07-11T05:43:35.582Z</time>
      </trkpt>
      <trkpt lat="44.17035" lon="5.12521">
        <ele>373</ele>
        <time>2020-07-11T05:43:36.582Z</time>
      </trkpt>
      <trkpt lat="44.17029" lon="5.12522">
        <ele>373</ele>
        <time>2020-07-11T05:43:37.583Z</time>
      </trkpt>
      <trkpt lat="44.17024" lon="5.12523">
        <ele>373</ele>
        <time>2020-07-11T05:43:38.582Z</time>
      </trkpt>
      <trkpt lat="44.17018" lon="5.12523">
        <ele>373</ele>
        <time>2020-07-11T05:43:39.583Z</time>
      </trkpt>
      <trkpt lat="44.17013" lon="5.12524">
        <ele>373</ele>
        <time>2020-07-11T05:43:40.583Z</time>
      </trkpt>
      <trkpt lat="44.17007" lon="5.12525">
        <ele>373</ele>
        <time>2020-07-11T05:43:41.582Z</time>
      </trkpt>
      <trkpt lat="44.17002" lon="5.12526">
        <ele>373</ele>
        <time>2020-07-11T05:43:42.583Z</time>
      </trkpt>
      <trkpt lat="44.16996" lon="5.12527">
        <ele>373</ele>
        <time>2020-07-11T05:43:43.583Z</time>
      </trkpt>
      <trkpt lat="44.16991" lon="5.12528">
        <ele>374</ele>
        <time>2020-07-11T05:43:44.583Z</time>
      </trkpt>
      <trkpt lat="44.16985" lon="5.12529">
        <ele>374</ele>
        <time>2020-07-11T05:43:45.583Z</time>
      </trkpt>
      <trkpt lat="44.16979" lon="5.1253">
        <ele>374</ele>
        <time>2020-07-11T05:43:46.583Z</time>
      </trkpt>
      <trkpt lat="44.16974" lon="5.12531">
        <ele>374</ele>
        <time>2020-07-11T05:43:47.582Z</time>
      </trkpt>
      <trkpt lat="44.16968" lon="5.12532">
        <ele>375</ele>
        <time>2020-07-11T05:43:48.583Z</time>
      </trkpt>
      <trkpt lat="44.16963" lon="5.12533">
        <ele>375</ele>
        <time>2020-07-11T05:43:49.582Z</time>
      </trkpt>
      <trkpt lat="44.16958" lon="5.12534">
        <ele>376</ele>
        <time>2020-07-11T05:43:50.582Z</time>
      </trkpt>
      <trkpt lat="44.16953" lon="5.12535">
        <ele>376</ele>
        <time>2020-07-11T05:43:51.582Z</time>
      </trkpt>
      <trkpt lat="44.16947" lon="5.12537">
        <ele>376</ele>
        <time>2020-07-11T05:43:52.582Z</time>
      </trkpt>
      <trkpt lat="44.16942" lon="5.12538">
        <ele>377</ele>
        <time>2020-07-11T05:43:53.583Z</time>
      </trkpt>
      <trkpt lat="44.16937" lon="5.12539">
        <ele>377</ele>
        <time>2020-07-11T05:43:54.582Z</time>
      </trkpt>
      <trkpt lat="44.16932" lon="5.12541">
        <ele>377</ele>
        <time>2020-07-11T05:43:55.582Z</time>
      </trkpt>
      <trkpt lat="44.16926" lon="5.12542">
        <ele>377</ele>
        <time>2020-07-11T05:43:56.582Z</time>
      </trkpt>
      <trkpt lat="44.16921" lon="5.12544">
        <ele>377</ele>
        <time>2020-07-11T05:43:57.583Z</time>
      </trkpt>
      <trkpt lat="44.16916" lon="5.12545">
        <ele>377</ele>
        <time>2020-07-11T05:43:58.582Z</time>
      </trkpt>
      <trkpt lat="44.16911" lon="5.12547">
        <ele>377</ele>
        <time>2020-07-11T05:43:59.583Z</time>
      </trkpt>
      <trkpt lat="44.16906" lon="5.12548">
        <ele>378</ele>
        <time>2020-07-11T05:44:00.583Z</time>
      </trkpt>
      <trkpt lat="44.16901" lon="5.1255">
        <ele>378</ele>
        <time>2020-07-11T05:44:01.583Z</time>
      </trkpt>
      <trkpt lat="44.16896" lon="5.12551">
        <ele>378</ele>
        <time>2020-07-11T05:44:02.582Z</time>
      </trkpt>
      <trkpt lat="44.16891" lon="5.12553">
        <ele>378</ele>
        <time>2020-07-11T05:44:03.583Z</time>
      </trkpt>
      <trkpt lat="44.16886" lon="5.12554">
        <ele>378</ele>
        <time>2020-07-11T05:44:04.583Z</time>
      </trkpt>
      <trkpt lat="44.16881" lon="5.12555">
        <ele>378</ele>
        <time>2020-07-11T05:44:05.582Z</time>
      </trkpt>
      <trkpt lat="44.16876" lon="5.12557">
        <ele>379</ele>
        <time>2020-07-11T05:44:06.583Z</time>
      </trkpt>
      <trkpt lat="44.16871" lon="5.12558">
        <ele>379</ele>
        <time>2020-07-11T05:44:07.583Z</time>
      </trkpt>
      <trkpt lat="44.16866" lon="5.1256">
        <ele>379</ele>
        <time>2020-07-11T05:44:08.582Z</time>
      </trkpt>
      <trkpt lat="44.16861" lon="5.12561">
        <ele>379</ele>
        <time>2020-07-11T05:44:09.582Z</time>
      </trkpt>
      <trkpt lat="44.16856" lon="5.12563">
        <ele>380</ele>
        <time>2020-07-11T05:44:10.583Z</time>
      </trkpt>
      <trkpt lat="44.1685" lon="5.12564">
        <ele>380</ele>
        <time>2020-07-11T05:44:11.583Z</time>
      </trkpt>
      <trkpt lat="44.16845" lon="5.12566">
        <ele>380</ele>
        <time>2020-07-11T05:44:12.582Z</time>
      </trkpt>
      <trkpt lat="44.1684" lon="5.12567">
        <ele>381</ele>
        <time>2020-07-11T05:44:13.582Z</time>
      </trkpt>
      <trkpt lat="44.16835" lon="5.12569">
        <ele>381</ele>
        <time>2020-07-11T05:44:14.583Z</time>
      </trkpt>
      <trkpt lat="44.1683" lon="5.1257">
        <ele>381</ele>
        <time>2020-07-11T05:44:15.583Z</time>
      </trkpt>
      <trkpt lat="44.16825" lon="5.12572">
        <ele>381</ele>
        <time>2020-07-11T05:44:16.582Z</time>
      </trkpt>
      <trkpt lat="44.1682" lon="5.12573">
        <ele>381</ele>
        <time>2020-07-11T05:44:17.583Z</time>
      </trkpt>
      <trkpt lat="44.16815" lon="5.12574">
        <ele>380</ele>
        <time>2020-07-11T05:44:18.583Z</time>
      </trkpt>
      <trkpt lat="44.1681" lon="5.12576">
        <ele>380</ele>
        <time>2020-07-11T05:44:19.583Z</time>
      </trkpt>
      <trkpt lat="44.16805" lon="5.12577">
        <ele>380</ele>
        <time>2020-07-11T05:44:20.582Z</time>
      </trkpt>
      <trkpt lat="44.168" lon="5.12578">
        <ele>380</ele>
        <time>2020-07-11T05:44:21.583Z</time>
      </trkpt>
      <trkpt lat="44.16795" lon="5.1258">
        <ele>380</ele>
        <time>2020-07-11T05:44:22.583Z</time>
      </trkpt>
      <trkpt lat="44.1679" lon="5.12581">
        <ele>380</ele>
        <time>2020-07-11T05:44:23.583Z</time>
      </trkpt>
      <trkpt lat="44.16784" lon="5.12583">
        <ele>380</ele>
        <time>2020-07-11T05:44:24.583Z</time>
      </trkpt>
      <trkpt lat="44.16779" lon="5.12584">
        <ele>380</ele>
        <time>2020-07-11T05:44:25.583Z</time>
      </trkpt>
      <trkpt lat="44.16774" lon="5.12586">
        <ele>381</ele>
        <time>2020-07-11T05:44:26.583Z</time>
      </trkpt>
      <trkpt lat="44.16769" lon="5.12587">
        <ele>381</ele>
        <time>2020-07-11T05:44:27.583Z</time>
      </trkpt>
      <trkpt lat="44.16764" lon="5.12589">
        <ele>381</ele>
        <time>2020-07-11T05:44:28.583Z</time>
      </trkpt>
      <trkpt lat="44.16759" lon="5.1259">
        <ele>381</ele>
        <time>2020-07-11T05:44:29.583Z</time>
      </trkpt>
      <trkpt lat="44.16754" lon="5.12592">
        <ele>381</ele>
        <time>2020-07-11T05:44:30.583Z</time>
      </trkpt>
      <trkpt lat="44.16749" lon="5.12593">
        <ele>381</ele>
        <time>2020-07-11T05:44:31.582Z</time>
      </trkpt>
      <trkpt lat="44.16744" lon="5.12595">
        <ele>381</ele>
        <time>2020-07-11T05:44:32.583Z</time>
      </trkpt>
      <trkpt lat="44.16739" lon="5.12596">
        <ele>382</ele>
        <time>2020-07-11T05:44:33.583Z</time>
      </trkpt>
      <trkpt lat="44.16732" lon="5.12598">
        <ele>382</ele>
        <time>2020-07-11T05:44:34.583Z</time>
      </trkpt>
      <trkpt lat="44.16727" lon="5.126">
        <ele>382</ele>
        <time>2020-07-11T05:44:35.582Z</time>
      </trkpt>
      <trkpt lat="44.16722" lon="5.12601">
        <ele>383</ele>
        <time>2020-07-11T05:44:36.583Z</time>
      </trkpt>
      <trkpt lat="44.16717" lon="5.12602">
        <ele>383</ele>
        <time>2020-07-11T05:44:37.583Z</time>
      </trkpt>
      <trkpt lat="44.16713" lon="5.12604">
        <ele>384</ele>
        <time>2020-07-11T05:44:38.583Z</time>
      </trkpt>
      <trkpt lat="44.16708" lon="5.12605">
        <ele>384</ele>
        <time>2020-07-11T05:44:39.582Z</time>
      </trkpt>
      <trkpt lat="44.16703" lon="5.12607">
        <ele>384</ele>
        <time>2020-07-11T05:44:40.583Z</time>
      </trkpt>
      <trkpt lat="44.16698" lon="5.12608">
        <ele>384</ele>
        <time>2020-07-11T05:44:41.582Z</time>
      </trkpt>
      <trkpt lat="44.16693" lon="5.12609">
        <ele>385</ele>
        <time>2020-07-11T05:44:42.583Z</time>
      </trkpt>
      <trkpt lat="44.16688" lon="5.12611">
        <ele>385</ele>
        <time>2020-07-11T05:44:43.583Z</time>
      </trkpt>
      <trkpt lat="44.16683" lon="5.12612">
        <ele>385</ele>
        <time>2020-07-11T05:44:44.583Z</time>
      </trkpt>
      <trkpt lat="44.16678" lon="5.12613">
        <ele>385</ele>
        <time>2020-07-11T05:44:45.582Z</time>
      </trkpt>
      <trkpt lat="44.16672" lon="5.12615">
        <ele>385</ele>
        <time>2020-07-11T05:44:46.582Z</time>
      </trkpt>
      <trkpt lat="44.16667" lon="5.12616">
        <ele>385</ele>
        <time>2020-07-11T05:44:47.583Z</time>
      </trkpt>
      <trkpt lat="44.16662" lon="5.12618">
        <ele>384</ele>
        <time>2020-07-11T05:44:48.583Z</time>
      </trkpt>
      <trkpt lat="44.16657" lon="5.12619">
        <ele>384</ele>
        <time>2020-07-11T05:44:49.582Z</time>
      </trkpt>
      <trkpt lat="44.16652" lon="5.12621">
        <ele>384</ele>
        <time>2020-07-11T05:44:50.583Z</time>
      </trkpt>
      <trkpt lat="44.16646" lon="5.12622">
        <ele>384</ele>
        <time>2020-07-11T05:44:51.582Z</time>
      </trkpt>
      <trkpt lat="44.16641" lon="5.12624">
        <ele>384</ele>
        <time>2020-07-11T05:44:52.582Z</time>
      </trkpt>
      <trkpt lat="44.16636" lon="5.12625">
        <ele>384</ele>
        <time>2020-07-11T05:44:53.582Z</time>
      </trkpt>
      <trkpt lat="44.1663" lon="5.12627">
        <ele>385</ele>
        <time>2020-07-11T05:44:54.582Z</time>
      </trkpt>
      <trkpt lat="44.16625" lon="5.12628">
        <ele>385</ele>
        <time>2020-07-11T05:44:55.582Z</time>
      </trkpt>
      <trkpt lat="44.1662" lon="5.1263">
        <ele>385</ele>
        <time>2020-07-11T05:44:56.582Z</time>
      </trkpt>
      <trkpt lat="44.16615" lon="5.12631">
        <ele>386</ele>
        <time>2020-07-11T05:44:57.583Z</time>
      </trkpt>
      <trkpt lat="44.16609" lon="5.12633">
        <ele>386</ele>
        <time>2020-07-11T05:44:58.582Z</time>
      </trkpt>
      <trkpt lat="44.16604" lon="5.12634">
        <ele>386</ele>
        <time>2020-07-11T05:44:59.583Z</time>
      </trkpt>
      <trkpt lat="44.16599" lon="5.12636">
        <ele>387</ele>
        <time>2020-07-11T05:45:00.583Z</time>
      </trkpt>
      <trkpt lat="44.16594" lon="5.12637">
        <ele>387</ele>
        <time>2020-07-11T05:45:01.583Z</time>
      </trkpt>
      <trkpt lat="44.16589" lon="5.12639">
        <ele>387</ele>
        <time>2020-07-11T05:45:02.583Z</time>
      </trkpt>
      <trkpt lat="44.16584" lon="5.1264">
        <ele>387</ele>
        <time>2020-07-11T05:45:03.583Z</time>
      </trkpt>
      <trkpt lat="44.16579" lon="5.12642">
        <ele>387</ele>
        <time>2020-07-11T05:45:04.583Z</time>
      </trkpt>
      <trkpt lat="44.16573" lon="5.12644">
        <ele>387</ele>
        <time>2020-07-11T05:45:05.582Z</time>
      </trkpt>
      <trkpt lat="44.16568" lon="5.12646">
        <ele>388</ele>
        <time>2020-07-11T05:45:06.583Z</time>
      </trkpt>
      <trkpt lat="44.16563" lon="5.12649">
        <ele>388</ele>
        <time>2020-07-11T05:45:07.583Z</time>
      </trkpt>
      <trkpt lat="44.16558" lon="5.12651">
        <ele>388</ele>
        <time>2020-07-11T05:45:08.583Z</time>
      </trkpt>
      <trkpt lat="44.16552" lon="5.12654">
        <ele>389</ele>
        <time>2020-07-11T05:45:09.583Z</time>
      </trkpt>
      <trkpt lat="44.16547" lon="5.12656">
        <ele>389</ele>
        <time>2020-07-11T05:45:10.583Z</time>
      </trkpt>
      <trkpt lat="44.16542" lon="5.12659">
        <ele>389</ele>
        <time>2020-07-11T05:45:11.583Z</time>
      </trkpt>
      <trkpt lat="44.16537" lon="5.12661">
        <ele>389</ele>
        <time>2020-07-11T05:45:12.582Z</time>
      </trkpt>
      <trkpt lat="44.16532" lon="5.12664">
        <ele>390</ele>
        <time>2020-07-11T05:45:13.583Z</time>
      </trkpt>
      <trkpt lat="44.16527" lon="5.12668">
        <ele>390</ele>
        <time>2020-07-11T05:45:14.583Z</time>
      </trkpt>
      <trkpt lat="44.16523" lon="5.12671">
        <ele>391</ele>
        <time>2020-07-11T05:45:15.583Z</time>
      </trkpt>
      <trkpt lat="44.16518" lon="5.12674">
        <ele>391</ele>
        <time>2020-07-11T05:45:16.583Z</time>
      </trkpt>
      <trkpt lat="44.16513" lon="5.12678">
        <ele>391</ele>
        <time>2020-07-11T05:45:17.582Z</time>
      </trkpt>
      <trkpt lat="44.16508" lon="5.12681">
        <ele>392</ele>
        <time>2020-07-11T05:45:18.583Z</time>
      </trkpt>
      <trkpt lat="44.16503" lon="5.12685">
        <ele>393</ele>
        <time>2020-07-11T05:45:19.582Z</time>
      </trkpt>
      <trkpt lat="44.16499" lon="5.12689">
        <ele>393</ele>
        <time>2020-07-11T05:45:20.582Z</time>
      </trkpt>
      <trkpt lat="44.16494" lon="5.12693">
        <ele>393</ele>
        <time>2020-07-11T05:45:21.582Z</time>
      </trkpt>
      <trkpt lat="44.1649" lon="5.12697">
        <ele>394</ele>
        <time>2020-07-11T05:45:22.582Z</time>
      </trkpt>
      <trkpt lat="44.16486" lon="5.12702">
        <ele>394</ele>
        <time>2020-07-11T05:45:23.582Z</time>
      </trkpt>
      <trkpt lat="44.16482" lon="5.12707">
        <ele>394</ele>
        <time>2020-07-11T05:45:24.582Z</time>
      </trkpt>
      <trkpt lat="44.16477" lon="5.12711">
        <ele>394</ele>
        <time>2020-07-11T05:45:25.583Z</time>
      </trkpt>
      <trkpt lat="44.16473" lon="5.12716">
        <ele>394</ele>
        <time>2020-07-11T05:45:26.583Z</time>
      </trkpt>
      <trkpt lat="44.16469" lon="5.12721">
        <ele>394</ele>
        <time>2020-07-11T05:45:27.583Z</time>
      </trkpt>
      <trkpt lat="44.16465" lon="5.12726">
        <ele>395</ele>
        <time>2020-07-11T05:45:28.583Z</time>
      </trkpt>
      <trkpt lat="44.16461" lon="5.12731">
        <ele>395</ele>
        <time>2020-07-11T05:45:29.582Z</time>
      </trkpt>
      <trkpt lat="44.16457" lon="5.12736">
        <ele>396</ele>
        <time>2020-07-11T05:45:30.583Z</time>
      </trkpt>
      <trkpt lat="44.16453" lon="5.12741">
        <ele>396</ele>
        <time>2020-07-11T05:45:31.583Z</time>
      </trkpt>
      <trkpt lat="44.1645" lon="5.12747">
        <ele>396</ele>
        <time>2020-07-11T05:45:32.583Z</time>
      </trkpt>
      <trkpt lat="44.16446" lon="5.12752">
        <ele>396</ele>
        <time>2020-07-11T05:45:33.583Z</time>
      </trkpt>
      <trkpt lat="44.16443" lon="5.12758">
        <ele>397</ele>
        <time>2020-07-11T05:45:34.583Z</time>
      </trkpt>
      <trkpt lat="44.1644" lon="5.12763">
        <ele>397</ele>
        <time>2020-07-11T05:45:35.583Z</time>
      </trkpt>
      <trkpt lat="44.16436" lon="5.12769">
        <ele>397</ele>
        <time>2020-07-11T05:45:36.582Z</time>
      </trkpt>
      <trkpt lat="44.16433" lon="5.12774">
        <ele>397</ele>
        <time>2020-07-11T05:45:37.583Z</time>
      </trkpt>
      <trkpt lat="44.1643" lon="5.1278">
        <ele>398</ele>
        <time>2020-07-11T05:45:38.582Z</time>
      </trkpt>
      <trkpt lat="44.16427" lon="5.12786">
        <ele>398</ele>
        <time>2020-07-11T05:45:39.583Z</time>
      </trkpt>
      <trkpt lat="44.16424" lon="5.12792">
        <ele>398</ele>
        <time>2020-07-11T05:45:40.583Z</time>
      </trkpt>
      <trkpt lat="44.16421" lon="5.12799">
        <ele>399</ele>
        <time>2020-07-11T05:45:41.583Z</time>
      </trkpt>
      <trkpt lat="44.16418" lon="5.12805">
        <ele>399</ele>
        <time>2020-07-11T05:45:42.583Z</time>
      </trkpt>
      <trkpt lat="44.16415" lon="5.12811">
        <ele>399</ele>
        <time>2020-07-11T05:45:43.582Z</time>
      </trkpt>
      <trkpt lat="44.16413" lon="5.12818">
        <ele>398</ele>
        <time>2020-07-11T05:45:44.583Z</time>
      </trkpt>
      <trkpt lat="44.1641" lon="5.12825">
        <ele>398</ele>
        <time>2020-07-11T05:45:45.583Z</time>
      </trkpt>
      <trkpt lat="44.16407" lon="5.12831">
        <ele>398</ele>
        <time>2020-07-11T05:45:46.583Z</time>
      </trkpt>
      <trkpt lat="44.16405" lon="5.12838">
        <ele>398</ele>
        <time>2020-07-11T05:45:47.583Z</time>
      </trkpt>
      <trkpt lat="44.16402" lon="5.12845">
        <ele>399</ele>
        <time>2020-07-11T05:45:48.583Z</time>
      </trkpt>
      <trkpt lat="44.16399" lon="5.12852">
        <ele>400</ele>
        <time>2020-07-11T05:45:49.582Z</time>
      </trkpt>
      <trkpt lat="44.16397" lon="5.12859">
        <ele>400</ele>
        <time>2020-07-11T05:45:50.583Z</time>
      </trkpt>
      <trkpt lat="44.16394" lon="5.12866">
        <ele>400</ele>
        <time>2020-07-11T05:45:51.582Z</time>
      </trkpt>
      <trkpt lat="44.16392" lon="5.12872">
        <ele>400</ele>
        <time>2020-07-11T05:45:52.582Z</time>
      </trkpt>
      <trkpt lat="44.16389" lon="5.12879">
        <ele>400</ele>
        <time>2020-07-11T05:45:53.583Z</time>
      </trkpt>
      <trkpt lat="44.16386" lon="5.12886">
        <ele>401</ele>
        <time>2020-07-11T05:45:54.583Z</time>
      </trkpt>
      <trkpt lat="44.16384" lon="5.12892">
        <ele>401</ele>
        <time>2020-07-11T05:45:55.583Z</time>
      </trkpt>
      <trkpt lat="44.16381" lon="5.12899">
        <ele>401</ele>
        <time>2020-07-11T05:45:56.582Z</time>
      </trkpt>
      <trkpt lat="44.16379" lon="5.12906">
        <ele>402</ele>
        <time>2020-07-11T05:45:57.583Z</time>
      </trkpt>
      <trkpt lat="44.16376" lon="5.12912">
        <ele>402</ele>
        <time>2020-07-11T05:45:58.583Z</time>
      </trkpt>
      <trkpt lat="44.16374" lon="5.12919">
        <ele>403</ele>
        <time>2020-07-11T05:45:59.583Z</time>
      </trkpt>
      <trkpt lat="44.16371" lon="5.12926">
        <ele>403</ele>
        <time>2020-07-11T05:46:00.583Z</time>
      </trkpt>
      <trkpt lat="44.16369" lon="5.12933">
        <ele>404</ele>
        <time>2020-07-11T05:46:01.583Z</time>
      </trkpt>
      <trkpt lat="44.16366" lon="5.12939">
        <ele>404</ele>
        <time>2020-07-11T05:46:02.583Z</time>
      </trkpt>
      <trkpt lat="44.16363" lon="5.12946">
        <ele>404</ele>
        <time>2020-07-11T05:46:03.583Z</time>
      </trkpt>
      <trkpt lat="44.1636" lon="5.12952">
        <ele>404</ele>
        <time>2020-07-11T05:46:04.582Z</time>
      </trkpt>
      <trkpt lat="44.16357" lon="5.12958">
        <ele>403</ele>
        <time>2020-07-11T05:46:05.582Z</time>
      </trkpt>
      <trkpt lat="44.16353" lon="5.12964">
        <ele>402</ele>
        <time>2020-07-11T05:46:06.582Z</time>
      </trkpt>
      <trkpt lat="44.1635" lon="5.12969">
        <ele>402</ele>
        <time>2020-07-11T05:46:07.583Z</time>
      </trkpt>
      <trkpt lat="44.16346" lon="5.12973">
        <ele>401</ele>
        <time>2020-07-11T05:46:08.582Z</time>
      </trkpt>
      <trkpt lat="44.16341" lon="5.12978">
        <ele>400</ele>
        <time>2020-07-11T05:46:09.583Z</time>
      </trkpt>
      <trkpt lat="44.16337" lon="5.12981">
        <ele>400</ele>
        <time>2020-07-11T05:46:10.583Z</time>
      </trkpt>
      <trkpt lat="44.16332" lon="5.12985">
        <ele>400</ele>
        <time>2020-07-11T05:46:11.583Z</time>
      </trkpt>
      <trkpt lat="44.16327" lon="5.12988">
        <ele>400</ele>
        <time>2020-07-11T05:46:12.583Z</time>
      </trkpt>
      <trkpt lat="44.16322" lon="5.12989">
        <ele>400</ele>
        <time>2020-07-11T05:46:13.582Z</time>
      </trkpt>
      <trkpt lat="44.16317" lon="5.12991">
        <ele>400</ele>
        <time>2020-07-11T05:46:14.582Z</time>
      </trkpt>
      <trkpt lat="44.16312" lon="5.12991">
        <ele>400</ele>
        <time>2020-07-11T05:46:15.583Z</time>
      </trkpt>
      <trkpt lat="44.16306" lon="5.12991">
        <ele>400</ele>
        <time>2020-07-11T05:46:16.583Z</time>
      </trkpt>
      <trkpt lat="44.16301" lon="5.1299">
        <ele>399</ele>
        <time>2020-07-11T05:46:17.583Z</time>
      </trkpt>
      <trkpt lat="44.16296" lon="5.12988">
        <ele>399</ele>
        <time>2020-07-11T05:46:18.583Z</time>
      </trkpt>
      <trkpt lat="44.16291" lon="5.12985">
        <ele>399</ele>
        <time>2020-07-11T05:46:19.583Z</time>
      </trkpt>
      <trkpt lat="44.16286" lon="5.12981">
        <ele>398</ele>
        <time>2020-07-11T05:46:20.583Z</time>
      </trkpt>
      <trkpt lat="44.16281" lon="5.12978">
        <ele>398</ele>
        <time>2020-07-11T05:46:21.583Z</time>
      </trkpt>
      <trkpt lat="44.16276" lon="5.12973">
        <ele>398</ele>
        <time>2020-07-11T05:46:22.583Z</time>
      </trkpt>
      <trkpt lat="44.16271" lon="5.12968">
        <ele>398</ele>
        <time>2020-07-11T05:46:23.583Z</time>
      </trkpt>
      <trkpt lat="44.16266" lon="5.12964">
        <ele>398</ele>
        <time>2020-07-11T05:46:24.583Z</time>
      </trkpt>
      <trkpt lat="44.16261" lon="5.12959">
        <ele>397</ele>
        <time>2020-07-11T05:46:25.583Z</time>
      </trkpt>
      <trkpt lat="44.16256" lon="5.12954">
        <ele>397</ele>
        <time>2020-07-11T05:46:26.582Z</time>
      </trkpt>
      <trkpt lat="44.16251" lon="5.12949">
        <ele>396</ele>
        <time>2020-07-11T05:46:27.582Z</time>
      </trkpt>
      <trkpt lat="44.16246" lon="5.12945">
        <ele>396</ele>
        <time>2020-07-11T05:46:28.583Z</time>
      </trkpt>
      <trkpt lat="44.16241" lon="5.1294">
        <ele>396</ele>
        <time>2020-07-11T05:46:29.583Z</time>
      </trkpt>
      <trkpt lat="44.16236" lon="5.12935">
        <ele>396</ele>
        <time>2020-07-11T05:46:30.583Z</time>
      </trkpt>
      <trkpt lat="44.16231" lon="5.12929">
        <ele>396</ele>
        <time>2020-07-11T05:46:31.583Z</time>
      </trkpt>
      <trkpt lat="44.16226" lon="5.12924">
        <ele>397</ele>
        <time>2020-07-11T05:46:32.583Z</time>
      </trkpt>
      <trkpt lat="44.16221" lon="5.12919">
        <ele>397</ele>
        <time>2020-07-11T05:46:33.583Z</time>
      </trkpt>
      <trkpt lat="44.16215" lon="5.12914">
        <ele>398</ele>
        <time>2020-07-11T05:46:34.583Z</time>
      </trkpt>
      <trkpt lat="44.1621" lon="5.12909">
        <ele>398</ele>
        <time>2020-07-11T05:46:35.583Z</time>
      </trkpt>
      <trkpt lat="44.16205" lon="5.12903">
        <ele>399</ele>
        <time>2020-07-11T05:46:36.582Z</time>
      </trkpt>
      <trkpt lat="44.162" lon="5.12898">
        <ele>399</ele>
        <time>2020-07-11T05:46:37.582Z</time>
      </trkpt>
      <trkpt lat="44.16195" lon="5.12892">
        <ele>399</ele>
        <time>2020-07-11T05:46:38.583Z</time>
      </trkpt>
      <trkpt lat="44.1619" lon="5.12886">
        <ele>399</ele>
        <time>2020-07-11T05:46:39.583Z</time>
      </trkpt>
      <trkpt lat="44.16186" lon="5.12881">
        <ele>399</ele>
        <time>2020-07-11T05:46:40.582Z</time>
      </trkpt>
      <trkpt lat="44.16181" lon="5.12875">
        <ele>399</ele>
        <time>2020-07-11T05:46:41.583Z</time>
      </trkpt>
      <trkpt lat="44.16176" lon="5.12869">
        <ele>399</ele>
        <time>2020-07-11T05:46:42.583Z</time>
      </trkpt>
      <trkpt lat="44.16171" lon="5.12863">
        <ele>399</ele>
        <time>2020-07-11T05:46:43.583Z</time>
      </trkpt>
      <trkpt lat="44.16167" lon="5.12857">
        <ele>399</ele>
        <time>2020-07-11T05:46:44.583Z</time>
      </trkpt>
      <trkpt lat="44.16162" lon="5.12851">
        <ele>399</ele>
        <time>2020-07-11T05:46:45.583Z</time>
      </trkpt>
      <trkpt lat="44.16158" lon="5.12844">
        <ele>400</ele>
        <time>2020-07-11T05:46:46.583Z</time>
      </trkpt>
      <trkpt lat="44.16154" lon="5.12838">
        <ele>400</ele>
        <time>2020-07-11T05:46:47.583Z</time>
      </trkpt>
      <trkpt lat="44.1615" lon="5.12832">
        <ele>401</ele>
        <time>2020-07-11T05:46:48.583Z</time>
      </trkpt>
      <trkpt lat="44.16147" lon="5.12824">
        <ele>401</ele>
        <time>2020-07-11T05:46:49.582Z</time>
      </trkpt>
      <trkpt lat="44.16144" lon="5.12817">
        <ele>401</ele>
        <time>2020-07-11T05:46:50.583Z</time>
      </trkpt>
      <trkpt lat="44.16141" lon="5.12809">
        <ele>402</ele>
        <time>2020-07-11T05:46:51.583Z</time>
      </trkpt>
      <trkpt lat="44.16138" lon="5.12801">
        <ele>402</ele>
        <time>2020-07-11T05:46:52.583Z</time>
      </trkpt>
      <trkpt lat="44.16136" lon="5.12793">
        <ele>402</ele>
        <time>2020-07-11T05:46:53.583Z</time>
      </trkpt>
      <trkpt lat="44.16134" lon="5.12785">
        <ele>401</ele>
        <time>2020-07-11T05:46:54.583Z</time>
      </trkpt>
      <trkpt lat="44.16131" lon="5.12778">
        <ele>401</ele>
        <time>2020-07-11T05:46:55.583Z</time>
      </trkpt>
      <trkpt lat="44.16129" lon="5.1277">
        <ele>401</ele>
        <time>2020-07-11T05:46:56.583Z</time>
      </trkpt>
      <trkpt lat="44.16126" lon="5.12762">
        <ele>402</ele>
        <time>2020-07-11T05:46:57.583Z</time>
      </trkpt>
      <trkpt lat="44.16124" lon="5.12754">
        <ele>402</ele>
        <time>2020-07-11T05:46:58.583Z</time>
      </trkpt>
      <trkpt lat="44.16121" lon="5.12746">
        <ele>402</ele>
        <time>2020-07-11T05:46:59.582Z</time>
      </trkpt>
      <trkpt lat="44.16118" lon="5.12739">
        <ele>402</ele>
        <time>2020-07-11T05:47:00.582Z</time>
      </trkpt>
      <trkpt lat="44.16116" lon="5.12731">
        <ele>402</ele>
        <time>2020-07-11T05:47:01.583Z</time>
      </trkpt>
      <trkpt lat="44.16113" lon="5.12723">
        <ele>402</ele>
        <time>2020-07-11T05:47:02.583Z</time>
      </trkpt>
      <trkpt lat="44.1611" lon="5.12716">
        <ele>402</ele>
        <time>2020-07-11T05:47:03.582Z</time>
      </trkpt>
      <trkpt lat="44.16108" lon="5.12709">
        <ele>403</ele>
        <time>2020-07-11T05:47:04.583Z</time>
      </trkpt>
      <trkpt lat="44.16104" lon="5.12702">
        <ele>403</ele>
        <time>2020-07-11T05:47:05.583Z</time>
      </trkpt>
      <trkpt lat="44.16101" lon="5.12695">
        <ele>404</ele>
        <time>2020-07-11T05:47:06.583Z</time>
      </trkpt>
      <trkpt lat="44.16098" lon="5.12688">
        <ele>404</ele>
        <time>2020-07-11T05:47:07.583Z</time>
      </trkpt>
      <trkpt lat="44.16095" lon="5.12682">
        <ele>405</ele>
        <time>2020-07-11T05:47:08.583Z</time>
      </trkpt>
      <trkpt lat="44.16091" lon="5.12676">
        <ele>405</ele>
        <time>2020-07-11T05:47:09.583Z</time>
      </trkpt>
      <trkpt lat="44.16087" lon="5.1267">
        <ele>406</ele>
        <time>2020-07-11T05:47:10.582Z</time>
      </trkpt>
      <trkpt lat="44.16083" lon="5.12664">
        <ele>406</ele>
        <time>2020-07-11T05:47:11.582Z</time>
      </trkpt>
      <trkpt lat="44.16079" lon="5.12658">
        <ele>406</ele>
        <time>2020-07-11T05:47:12.583Z</time>
      </trkpt>
      <trkpt lat="44.16074" lon="5.12652">
        <ele>406</ele>
        <time>2020-07-11T05:47:13.583Z</time>
      </trkpt>
      <trkpt lat="44.1607" lon="5.12646">
        <ele>406</ele>
        <time>2020-07-11T05:47:14.582Z</time>
      </trkpt>
      <trkpt lat="44.16065" lon="5.12641">
        <ele>406</ele>
        <time>2020-07-11T05:47:15.583Z</time>
      </trkpt>
      <trkpt lat="44.16059" lon="5.12635">
        <ele>406</ele>
        <time>2020-07-11T05:47:16.582Z</time>
      </trkpt>
      <trkpt lat="44.16053" lon="5.1263">
        <ele>406</ele>
        <time>2020-07-11T05:47:17.583Z</time>
      </trkpt>
      <trkpt lat="44.16048" lon="5.12624">
        <ele>406</ele>
        <time>2020-07-11T05:47:18.582Z</time>
      </trkpt>
      <trkpt lat="44.16042" lon="5.12619">
        <ele>406</ele>
        <time>2020-07-11T05:47:19.583Z</time>
      </trkpt>
      <trkpt lat="44.16036" lon="5.12613">
        <ele>405</ele>
        <time>2020-07-11T05:47:20.582Z</time>
      </trkpt>
      <trkpt lat="44.1603" lon="5.12607">
        <ele>404</ele>
        <time>2020-07-11T05:47:21.583Z</time>
      </trkpt>
      <trkpt lat="44.16024" lon="5.12601">
        <ele>403</ele>
        <time>2020-07-11T05:47:22.583Z</time>
      </trkpt>
      <trkpt lat="44.16017" lon="5.12596">
        <ele>403</ele>
        <time>2020-07-11T05:47:23.582Z</time>
      </trkpt>
      <trkpt lat="44.16011" lon="5.1259">
        <ele>402</ele>
        <time>2020-07-11T05:47:24.583Z</time>
      </trkpt>
      <trkpt lat="44.16005" lon="5.12584">
        <ele>402</ele>
        <time>2020-07-11T05:47:25.583Z</time>
      </trkpt>
      <trkpt lat="44.15998" lon="5.12578">
        <ele>401</ele>
        <time>2020-07-11T05:47:26.583Z</time>
      </trkpt>
      <trkpt lat="44.15991" lon="5.12573">
        <ele>401</ele>
        <time>2020-07-11T05:47:27.583Z</time>
      </trkpt>
      <trkpt lat="44.15984" lon="5.12569">
        <ele>401</ele>
        <time>2020-07-11T05:47:28.582Z</time>
      </trkpt>
      <trkpt lat="44.15976" lon="5.12567">
        <ele>401</ele>
        <time>2020-07-11T05:47:29.583Z</time>
      </trkpt>
      <trkpt lat="44.15968" lon="5.12565">
        <ele>401</ele>
        <time>2020-07-11T05:47:30.583Z</time>
      </trkpt>
      <trkpt lat="44.1596" lon="5.12565">
        <ele>401</ele>
        <time>2020-07-11T05:47:31.582Z</time>
      </trkpt>
      <trkpt lat="44.15953" lon="5.12566">
        <ele>402</ele>
        <time>2020-07-11T05:47:32.583Z</time>
      </trkpt>
      <trkpt lat="44.15945" lon="5.12569">
        <ele>402</ele>
        <time>2020-07-11T05:47:33.583Z</time>
      </trkpt>
      <trkpt lat="44.15937" lon="5.12574">
        <ele>402</ele>
        <time>2020-07-11T05:47:34.582Z</time>
      </trkpt>
      <trkpt lat="44.1593" lon="5.12579">
        <ele>402</ele>
        <time>2020-07-11T05:47:35.582Z</time>
      </trkpt>
      <trkpt lat="44.15923" lon="5.12586">
        <ele>403</ele>
        <time>2020-07-11T05:47:36.582Z</time>
      </trkpt>
      <trkpt lat="44.15916" lon="5.12594">
        <ele>403</ele>
        <time>2020-07-11T05:47:37.582Z</time>
      </trkpt>
      <trkpt lat="44.15909" lon="5.12602">
        <ele>403</ele>
        <time>2020-07-11T05:47:38.582Z</time>
      </trkpt>
      <trkpt lat="44.15903" lon="5.1261">
        <ele>403</ele>
        <time>2020-07-11T05:47:39.582Z</time>
      </trkpt>
      <trkpt lat="44.15896" lon="5.12619">
        <ele>403</ele>
        <time>2020-07-11T05:47:40.582Z</time>
      </trkpt>
      <trkpt lat="44.15889" lon="5.12628">
        <ele>403</ele>
        <time>2020-07-11T05:47:41.582Z</time>
      </trkpt>
      <trkpt lat="44.15883" lon="5.12637">
        <ele>403</ele>
        <time>2020-07-11T05:47:42.583Z</time>
      </trkpt>
      <trkpt lat="44.15876" lon="5.12646">
        <ele>403</ele>
        <time>2020-07-11T05:47:43.583Z</time>
      </trkpt>
      <trkpt lat="44.15869" lon="5.12656">
        <ele>402</ele>
        <time>2020-07-11T05:47:44.582Z</time>
      </trkpt>
      <trkpt lat="44.15862" lon="5.12665">
        <ele>402</ele>
        <time>2020-07-11T05:47:45.582Z</time>
      </trkpt>
      <trkpt lat="44.15854" lon="5.12675">
        <ele>401</ele>
        <time>2020-07-11T05:47:46.583Z</time>
      </trkpt>
      <trkpt lat="44.15847" lon="5.12684">
        <ele>401</ele>
        <time>2020-07-11T05:47:47.583Z</time>
      </trkpt>
      <trkpt lat="44.1584" lon="5.12694">
        <ele>401</ele>
        <time>2020-07-11T05:47:48.583Z</time>
      </trkpt>
      <trkpt lat="44.15834" lon="5.12703">
        <ele>400</ele>
        <time>2020-07-11T05:47:49.582Z</time>
      </trkpt>
      <trkpt lat="44.15827" lon="5.12712">
        <ele>400</ele>
        <time>2020-07-11T05:47:50.582Z</time>
      </trkpt>
      <trkpt lat="44.1582" lon="5.12722">
        <ele>400</ele>
        <time>2020-07-11T05:47:51.583Z</time>
      </trkpt>
      <trkpt lat="44.15812" lon="5.12731">
        <ele>400</ele>
        <time>2020-07-11T05:47:52.583Z</time>
      </trkpt>
      <trkpt lat="44.15805" lon="5.12741">
        <ele>399</ele>
        <time>2020-07-11T05:47:53.583Z</time>
      </trkpt>
      <trkpt lat="44.15798" lon="5.1275">
        <ele>399</ele>
        <time>2020-07-11T05:47:54.582Z</time>
      </trkpt>
      <trkpt lat="44.1579" lon="5.1276">
        <ele>399</ele>
        <time>2020-07-11T05:47:55.583Z</time>
      </trkpt>
      <trkpt lat="44.15783" lon="5.1277">
        <ele>398</ele>
        <time>2020-07-11T05:47:56.582Z</time>
      </trkpt>
      <trkpt lat="44.15776" lon="5.12779">
        <ele>398</ele>
        <time>2020-07-11T05:47:57.583Z</time>
      </trkpt>
      <trkpt lat="44.15769" lon="5.12789">
        <ele>398</ele>
        <time>2020-07-11T05:47:58.582Z</time>
      </trkpt>
      <trkpt lat="44.15761" lon="5.12799">
        <ele>398</ele>
        <time>2020-07-11T05:47:59.582Z</time>
      </trkpt>
      <trkpt lat="44.15754" lon="5.12809">
        <ele>397</ele>
        <time>2020-07-11T05:48:00.582Z</time>
      </trkpt>
      <trkpt lat="44.15746" lon="5.12818">
        <ele>397</ele>
        <time>2020-07-11T05:48:01.583Z</time>
      </trkpt>
      <trkpt lat="44.15737" lon="5.12827">
        <ele>397</ele>
        <time>2020-07-11T05:48:02.582Z</time>
      </trkpt>
      <trkpt lat="44.15728" lon="5.12834">
        <ele>397</ele>
        <time>2020-07-11T05:48:03.582Z</time>
      </trkpt>
      <trkpt lat="44.15719" lon="5.12842">
        <ele>396</ele>
        <time>2020-07-11T05:48:04.583Z</time>
      </trkpt>
      <trkpt lat="44.15709" lon="5.12848">
        <ele>396</ele>
        <time>2020-07-11T05:48:05.582Z</time>
      </trkpt>
      <trkpt lat="44.15699" lon="5.12854">
        <ele>395</ele>
        <time>2020-07-11T05:48:06.582Z</time>
      </trkpt>
      <trkpt lat="44.15689" lon="5.1286">
        <ele>395</ele>
        <time>2020-07-11T05:48:07.583Z</time>
      </trkpt>
      <trkpt lat="44.15679" lon="5.12865">
        <ele>394</ele>
        <time>2020-07-11T05:48:08.583Z</time>
      </trkpt>
      <trkpt lat="44.15669" lon="5.12871">
        <ele>394</ele>
        <time>2020-07-11T05:48:09.583Z</time>
      </trkpt>
      <trkpt lat="44.15659" lon="5.12876">
        <ele>395</ele>
        <time>2020-07-11T05:48:10.583Z</time>
      </trkpt>
      <trkpt lat="44.1565" lon="5.12882">
        <ele>395</ele>
        <time>2020-07-11T05:48:11.583Z</time>
      </trkpt>
      <trkpt lat="44.1564" lon="5.12887">
        <ele>394</ele>
        <time>2020-07-11T05:48:12.582Z</time>
      </trkpt>
      <trkpt lat="44.15631" lon="5.12893">
        <ele>394</ele>
        <time>2020-07-11T05:48:13.583Z</time>
      </trkpt>
      <trkpt lat="44.15621" lon="5.12898">
        <ele>393</ele>
        <time>2020-07-11T05:48:14.583Z</time>
      </trkpt>
      <trkpt lat="44.15612" lon="5.12903">
        <ele>393</ele>
        <time>2020-07-11T05:48:15.582Z</time>
      </trkpt>
      <trkpt lat="44.15602" lon="5.12908">
        <ele>392</ele>
        <time>2020-07-11T05:48:16.582Z</time>
      </trkpt>
      <trkpt lat="44.15593" lon="5.12914">
        <ele>392</ele>
        <time>2020-07-11T05:48:17.583Z</time>
      </trkpt>
      <trkpt lat="44.15584" lon="5.12919">
        <ele>391</ele>
        <time>2020-07-11T05:48:18.583Z</time>
      </trkpt>
      <trkpt lat="44.15575" lon="5.12924">
        <ele>391</ele>
        <time>2020-07-11T05:48:19.582Z</time>
      </trkpt>
      <trkpt lat="44.15566" lon="5.1293">
        <ele>390</ele>
        <time>2020-07-11T05:48:20.582Z</time>
      </trkpt>
      <trkpt lat="44.15557" lon="5.12935">
        <ele>389</ele>
        <time>2020-07-11T05:48:21.583Z</time>
      </trkpt>
      <trkpt lat="44.15548" lon="5.1294">
        <ele>389</ele>
        <time>2020-07-11T05:48:22.583Z</time>
      </trkpt>
      <trkpt lat="44.15539" lon="5.12945">
        <ele>389</ele>
        <time>2020-07-11T05:48:23.583Z</time>
      </trkpt>
      <trkpt lat="44.1553" lon="5.1295">
        <ele>388</ele>
        <time>2020-07-11T05:48:24.582Z</time>
      </trkpt>
      <trkpt lat="44.15521" lon="5.12954">
        <ele>388</ele>
        <time>2020-07-11T05:48:25.582Z</time>
      </trkpt>
      <trkpt lat="44.15512" lon="5.12959">
        <ele>388</ele>
        <time>2020-07-11T05:48:26.582Z</time>
      </trkpt>
      <trkpt lat="44.15502" lon="5.12962">
        <ele>387</ele>
        <time>2020-07-11T05:48:27.583Z</time>
      </trkpt>
      <trkpt lat="44.15493" lon="5.12965">
        <ele>387</ele>
        <time>2020-07-11T05:48:28.583Z</time>
      </trkpt>
      <trkpt lat="44.15483" lon="5.12966">
        <ele>387</ele>
        <time>2020-07-11T05:48:29.583Z</time>
      </trkpt>
      <trkpt lat="44.15473" lon="5.12968">
        <ele>386</ele>
        <time>2020-07-11T05:48:30.583Z</time>
      </trkpt>
      <trkpt lat="44.15464" lon="5.12971">
        <ele>386</ele>
        <time>2020-07-11T05:48:31.583Z</time>
      </trkpt>
      <trkpt lat="44.15456" lon="5.12975">
        <ele>386</ele>
        <time>2020-07-11T05:48:32.583Z</time>
      </trkpt>
      <trkpt lat="44.15449" lon="5.1298">
        <ele>386</ele>
        <time>2020-07-11T05:48:33.583Z</time>
      </trkpt>
      <trkpt lat="44.15441" lon="5.12984">
        <ele>386</ele>
        <time>2020-07-11T05:48:34.582Z</time>
      </trkpt>
      <trkpt lat="44.15434" lon="5.12987">
        <ele>386</ele>
        <time>2020-07-11T05:48:35.583Z</time>
      </trkpt>
      <trkpt lat="44.15427" lon="5.12988">
        <ele>386</ele>
        <time>2020-07-11T05:48:36.583Z</time>
      </trkpt>
      <trkpt lat="44.15419" lon="5.12989">
        <ele>386</ele>
        <time>2020-07-11T05:48:37.583Z</time>
      </trkpt>
      <trkpt lat="44.15412" lon="5.12989">
        <ele>386</ele>
        <time>2020-07-11T05:48:38.583Z</time>
      </trkpt>
      <trkpt lat="44.15405" lon="5.12989">
        <ele>386</ele>
        <time>2020-07-11T05:48:39.583Z</time>
      </trkpt>
      <trkpt lat="44.15397" lon="5.1299">
        <ele>387</ele>
        <time>2020-07-11T05:48:40.583Z</time>
      </trkpt>
      <trkpt lat="44.1539" lon="5.1299">
        <ele>387</ele>
        <time>2020-07-11T05:48:41.582Z</time>
      </trkpt>
      <trkpt lat="44.15382" lon="5.12991">
        <ele>387</ele>
        <time>2020-07-11T05:48:42.583Z</time>
      </trkpt>
      <trkpt lat="44.15375" lon="5.12994">
        <ele>387</ele>
        <time>2020-07-11T05:48:43.582Z</time>
      </trkpt>
      <trkpt lat="44.15368" lon="5.12996">
        <ele>387</ele>
        <time>2020-07-11T05:48:44.582Z</time>
      </trkpt>
      <trkpt lat="44.15362" lon="5.13">
        <ele>387</ele>
        <time>2020-07-11T05:48:45.582Z</time>
      </trkpt>
      <trkpt lat="44.15355" lon="5.13004">
        <ele>387</ele>
        <time>2020-07-11T05:48:46.582Z</time>
      </trkpt>
      <trkpt lat="44.15348" lon="5.13008">
        <ele>387</ele>
        <time>2020-07-11T05:48:47.582Z</time>
      </trkpt>
      <trkpt lat="44.15342" lon="5.13014">
        <ele>388</ele>
        <time>2020-07-11T05:48:48.583Z</time>
      </trkpt>
      <trkpt lat="44.15335" lon="5.1302">
        <ele>388</ele>
        <time>2020-07-11T05:48:49.582Z</time>
      </trkpt>
      <trkpt lat="44.15329" lon="5.13026">
        <ele>388</ele>
        <time>2020-07-11T05:48:50.583Z</time>
      </trkpt>
      <trkpt lat="44.15323" lon="5.13032">
        <ele>388</ele>
        <time>2020-07-11T05:48:51.582Z</time>
      </trkpt>
      <trkpt lat="44.15317" lon="5.13039">
        <ele>387</ele>
        <time>2020-07-11T05:48:52.583Z</time>
      </trkpt>
      <trkpt lat="44.15311" lon="5.13046">
        <ele>388</ele>
        <time>2020-07-11T05:48:53.583Z</time>
      </trkpt>
      <trkpt lat="44.15304" lon="5.13053">
        <ele>388</ele>
        <time>2020-07-11T05:48:54.582Z</time>
      </trkpt>
      <trkpt lat="44.15298" lon="5.1306">
        <ele>387</ele>
        <time>2020-07-11T05:48:55.583Z</time>
      </trkpt>
      <trkpt lat="44.15291" lon="5.13067">
        <ele>387</ele>
        <time>2020-07-11T05:48:56.583Z</time>
      </trkpt>
      <trkpt lat="44.15285" lon="5.13075">
        <ele>387</ele>
        <time>2020-07-11T05:48:57.583Z</time>
      </trkpt>
      <trkpt lat="44.15278" lon="5.13082">
        <ele>387</ele>
        <time>2020-07-11T05:48:58.583Z</time>
      </trkpt>
      <trkpt lat="44.15272" lon="5.13089">
        <ele>386</ele>
        <time>2020-07-11T05:48:59.582Z</time>
      </trkpt>
      <trkpt lat="44.15266" lon="5.13096">
        <ele>386</ele>
        <time>2020-07-11T05:49:00.583Z</time>
      </trkpt>
      <trkpt lat="44.15259" lon="5.13103">
        <ele>386</ele>
        <time>2020-07-11T05:49:01.582Z</time>
      </trkpt>
      <trkpt lat="44.15253" lon="5.13111">
        <ele>386</ele>
        <time>2020-07-11T05:49:02.582Z</time>
      </trkpt>
      <trkpt lat="44.15246" lon="5.13118">
        <ele>386</ele>
        <time>2020-07-11T05:49:03.582Z</time>
      </trkpt>
      <trkpt lat="44.1524" lon="5.13125">
        <ele>386</ele>
        <time>2020-07-11T05:49:04.583Z</time>
      </trkpt>
      <trkpt lat="44.15233" lon="5.13132">
        <ele>385</ele>
        <time>2020-07-11T05:49:05.582Z</time>
      </trkpt>
      <trkpt lat="44.15226" lon="5.13139">
        <ele>385</ele>
        <time>2020-07-11T05:49:06.583Z</time>
      </trkpt>
      <trkpt lat="44.1522" lon="5.13146">
        <ele>385</ele>
        <time>2020-07-11T05:49:07.583Z</time>
      </trkpt>
      <trkpt lat="44.15214" lon="5.13153">
        <ele>385</ele>
        <time>2020-07-11T05:49:08.583Z</time>
      </trkpt>
      <trkpt lat="44.15207" lon="5.1316">
        <ele>384</ele>
        <time>2020-07-11T05:49:09.583Z</time>
      </trkpt>
      <trkpt lat="44.15201" lon="5.13167">
        <ele>384</ele>
        <time>2020-07-11T05:49:10.583Z</time>
      </trkpt>
      <trkpt lat="44.15194" lon="5.13175">
        <ele>384</ele>
        <time>2020-07-11T05:49:11.583Z</time>
      </trkpt>
      <trkpt lat="44.15188" lon="5.13182">
        <ele>384</ele>
        <time>2020-07-11T05:49:12.583Z</time>
      </trkpt>
      <trkpt lat="44.15182" lon="5.1319">
        <ele>384</ele>
        <time>2020-07-11T05:49:13.583Z</time>
      </trkpt>
      <trkpt lat="44.15176" lon="5.13197">
        <ele>384</ele>
        <time>2020-07-11T05:49:14.582Z</time>
      </trkpt>
      <trkpt lat="44.15171" lon="5.13205">
        <ele>383</ele>
        <time>2020-07-11T05:49:15.583Z</time>
      </trkpt>
      <trkpt lat="44.15165" lon="5.13213">
        <ele>383</ele>
        <time>2020-07-11T05:49:16.582Z</time>
      </trkpt>
      <trkpt lat="44.1516" lon="5.1322">
        <ele>382</ele>
        <time>2020-07-11T05:49:17.583Z</time>
      </trkpt>
      <trkpt lat="44.15155" lon="5.13228">
        <ele>382</ele>
        <time>2020-07-11T05:49:18.582Z</time>
      </trkpt>
      <trkpt lat="44.15151" lon="5.13236">
        <ele>382</ele>
        <time>2020-07-11T05:49:19.582Z</time>
      </trkpt>
      <trkpt lat="44.15146" lon="5.13244">
        <ele>382</ele>
        <time>2020-07-11T05:49:20.582Z</time>
      </trkpt>
      <trkpt lat="44.15141" lon="5.13251">
        <ele>383</ele>
        <time>2020-07-11T05:49:21.582Z</time>
      </trkpt>
      <trkpt lat="44.15136" lon="5.13259">
        <ele>383</ele>
        <time>2020-07-11T05:49:22.582Z</time>
      </trkpt>
      <trkpt lat="44.15131" lon="5.13266">
        <ele>384</ele>
        <time>2020-07-11T05:49:23.583Z</time>
      </trkpt>
      <trkpt lat="44.15126" lon="5.13273">
        <ele>384</ele>
        <time>2020-07-11T05:49:24.582Z</time>
      </trkpt>
      <trkpt lat="44.15122" lon="5.1328">
        <ele>384</ele>
        <time>2020-07-11T05:49:25.583Z</time>
      </trkpt>
      <trkpt lat="44.15118" lon="5.13287">
        <ele>385</ele>
        <time>2020-07-11T05:49:26.583Z</time>
      </trkpt>
      <trkpt lat="44.15114" lon="5.13293">
        <ele>385</ele>
        <time>2020-07-11T05:49:27.582Z</time>
      </trkpt>
      <trkpt lat="44.1511" lon="5.13299">
        <ele>386</ele>
        <time>2020-07-11T05:49:28.582Z</time>
      </trkpt>
      <trkpt lat="44.15106" lon="5.13305">
        <ele>386</ele>
        <time>2020-07-11T05:49:29.583Z</time>
      </trkpt>
      <trkpt lat="44.15103" lon="5.1331">
        <ele>386</ele>
        <time>2020-07-11T05:49:30.583Z</time>
      </trkpt>
      <trkpt lat="44.151" lon="5.13316">
        <ele>386</ele>
        <time>2020-07-11T05:49:31.583Z</time>
      </trkpt>
      <trkpt lat="44.15097" lon="5.13321">
        <ele>386</ele>
        <time>2020-07-11T05:49:32.583Z</time>
      </trkpt>
      <trkpt lat="44.15093" lon="5.13326">
        <ele>386</ele>
        <time>2020-07-11T05:49:33.582Z</time>
      </trkpt>
      <trkpt lat="44.1509" lon="5.13331">
        <ele>386</ele>
        <time>2020-07-11T05:49:34.583Z</time>
      </trkpt>
      <trkpt lat="44.15087" lon="5.13336">
        <ele>386</ele>
        <time>2020-07-11T05:49:35.583Z</time>
      </trkpt>
      <trkpt lat="44.15084" lon="5.13341">
        <ele>386</ele>
        <time>2020-07-11T05:49:36.583Z</time>
      </trkpt>
      <trkpt lat="44.15081" lon="5.13346">
        <ele>386</ele>
        <time>2020-07-11T05:49:37.583Z</time>
      </trkpt>
      <trkpt lat="44.15078" lon="5.13351">
        <ele>386</ele>
        <time>2020-07-11T05:49:38.583Z</time>
      </trkpt>
      <trkpt lat="44.15075" lon="5.13356">
        <ele>386</ele>
        <time>2020-07-11T05:49:39.582Z</time>
      </trkpt>
      <trkpt lat="44.15072" lon="5.1336">
        <ele>386</ele>
        <time>2020-07-11T05:49:40.582Z</time>
      </trkpt>
      <trkpt lat="44.15069" lon="5.13365">
        <ele>386</ele>
        <time>2020-07-11T05:49:41.583Z</time>
      </trkpt>
      <trkpt lat="44.15066" lon="5.1337">
        <ele>386</ele>
        <time>2020-07-11T05:49:42.583Z</time>
      </trkpt>
      <trkpt lat="44.15063" lon="5.13374">
        <ele>386</ele>
        <time>2020-07-11T05:49:43.582Z</time>
      </trkpt>
      <trkpt lat="44.1506" lon="5.13378">
        <ele>386</ele>
        <time>2020-07-11T05:49:44.583Z</time>
      </trkpt>
      <trkpt lat="44.15058" lon="5.13382">
        <ele>387</ele>
        <time>2020-07-11T05:49:45.582Z</time>
      </trkpt>
      <trkpt lat="44.15054" lon="5.13386">
        <ele>387</ele>
        <time>2020-07-11T05:49:46.582Z</time>
      </trkpt>
      <trkpt lat="44.15052" lon="5.1339">
        <ele>387</ele>
        <time>2020-07-11T05:49:47.582Z</time>
      </trkpt>
      <trkpt lat="44.15048" lon="5.13394">
        <ele>388</ele>
        <time>2020-07-11T05:49:48.582Z</time>
      </trkpt>
      <trkpt lat="44.15045" lon="5.13397">
        <ele>388</ele>
        <time>2020-07-11T05:49:49.582Z</time>
      </trkpt>
      <trkpt lat="44.15042" lon="5.134">
        <ele>388</ele>
        <time>2020-07-11T05:49:50.583Z</time>
      </trkpt>
      <trkpt lat="44.15038" lon="5.13403">
        <ele>388</ele>
        <time>2020-07-11T05:49:51.583Z</time>
      </trkpt>
      <trkpt lat="44.15035" lon="5.13405">
        <ele>389</ele>
        <time>2020-07-11T05:49:52.583Z</time>
      </trkpt>
      <trkpt lat="44.15031" lon="5.13407">
        <ele>389</ele>
        <time>2020-07-11T05:49:53.583Z</time>
      </trkpt>
      <trkpt lat="44.15027" lon="5.13408">
        <ele>390</ele>
        <time>2020-07-11T05:49:54.583Z</time>
      </trkpt>
      <trkpt lat="44.15023" lon="5.13409">
        <ele>390</ele>
        <time>2020-07-11T05:49:55.583Z</time>
      </trkpt>
      <trkpt lat="44.15019" lon="5.13409">
        <ele>390</ele>
        <time>2020-07-11T05:49:56.583Z</time>
      </trkpt>
      <trkpt lat="44.15015" lon="5.13408">
        <ele>390</ele>
        <time>2020-07-11T05:49:57.583Z</time>
      </trkpt>
      <trkpt lat="44.15011" lon="5.13407">
        <ele>390</ele>
        <time>2020-07-11T05:49:58.582Z</time>
      </trkpt>
      <trkpt lat="44.15007" lon="5.13404">
        <ele>390</ele>
        <time>2020-07-11T05:49:59.583Z</time>
      </trkpt>
      <trkpt lat="44.15003" lon="5.13401">
        <ele>389</ele>
        <time>2020-07-11T05:50:00.583Z</time>
      </trkpt>
      <trkpt lat="44.15" lon="5.13398">
        <ele>390</ele>
        <time>2020-07-11T05:50:01.582Z</time>
      </trkpt>
      <trkpt lat="44.14998" lon="5.13394">
        <ele>390</ele>
        <time>2020-07-11T05:50:02.583Z</time>
      </trkpt>
      <trkpt lat="44.14996" lon="5.1339">
        <ele>390</ele>
        <time>2020-07-11T05:50:03.582Z</time>
      </trkpt>
      <trkpt lat="44.14996" lon="5.13385">
        <ele>390</ele>
        <time>2020-07-11T05:50:04.582Z</time>
      </trkpt>
      <trkpt lat="44.14996" lon="5.1338">
        <ele>390</ele>
        <time>2020-07-11T05:50:05.583Z</time>
      </trkpt>
      <trkpt lat="44.14996" lon="5.13375">
        <ele>390</ele>
        <time>2020-07-11T05:50:06.583Z</time>
      </trkpt>
      <trkpt lat="44.14997" lon="5.13369">
        <ele>391</ele>
        <time>2020-07-11T05:50:07.582Z</time>
      </trkpt>
      <trkpt lat="44.14998" lon="5.13364">
        <ele>391</ele>
        <time>2020-07-11T05:50:08.583Z</time>
      </trkpt>
      <trkpt lat="44.14999" lon="5.13356">
        <ele>392</ele>
        <time>2020-07-11T05:50:09.583Z</time>
      </trkpt>
      <trkpt lat="44.14999" lon="5.1335">
        <ele>392</ele>
        <time>2020-07-11T05:50:10.583Z</time>
      </trkpt>
      <trkpt lat="44.14999" lon="5.13344">
        <ele>392</ele>
        <time>2020-07-11T05:50:11.582Z</time>
      </trkpt>
      <trkpt lat="44.14999" lon="5.13338">
        <ele>392</ele>
        <time>2020-07-11T05:50:12.583Z</time>
      </trkpt>
      <trkpt lat="44.15" lon="5.13331">
        <ele>393</ele>
        <time>2020-07-11T05:50:13.583Z</time>
      </trkpt>
      <trkpt lat="44.15" lon="5.13325">
        <ele>393</ele>
        <time>2020-07-11T05:50:14.583Z</time>
      </trkpt>
      <trkpt lat="44.15" lon="5.13318">
        <ele>393</ele>
        <time>2020-07-11T05:50:15.583Z</time>
      </trkpt>
      <trkpt lat="44.15" lon="5.13312">
        <ele>393</ele>
        <time>2020-07-11T05:50:16.582Z</time>
      </trkpt>
      <trkpt lat="44.15" lon="5.13305">
        <ele>393</ele>
        <time>2020-07-11T05:50:17.582Z</time>
      </trkpt>
      <trkpt lat="44.15" lon="5.13298">
        <ele>393</ele>
        <time>2020-07-11T05:50:18.582Z</time>
      </trkpt>
      <trkpt lat="44.14999" lon="5.1329">
        <ele>393</ele>
        <time>2020-07-11T05:50:19.583Z</time>
      </trkpt>
      <trkpt lat="44.14999" lon="5.13282">
        <ele>393</ele>
        <time>2020-07-11T05:50:20.583Z</time>
      </trkpt>
      <trkpt lat="44.14999" lon="5.13276">
        <ele>394</ele>
        <time>2020-07-11T05:50:21.582Z</time>
      </trkpt>
      <trkpt lat="44.14999" lon="5.13271">
        <ele>394</ele>
        <time>2020-07-11T05:50:22.583Z</time>
      </trkpt>
      <trkpt lat="44.14999" lon="5.13265">
        <ele>394</ele>
        <time>2020-07-11T05:50:23.582Z</time>
      </trkpt>
      <trkpt lat="44.14999" lon="5.1326">
        <ele>394</ele>
        <time>2020-07-11T05:50:24.583Z</time>
      </trkpt>
      <trkpt lat="44.14998" lon="5.13253">
        <ele>394</ele>
        <time>2020-07-11T05:50:25.582Z</time>
      </trkpt>
      <trkpt lat="44.14998" lon="5.13248">
        <ele>394</ele>
        <time>2020-07-11T05:50:26.583Z</time>
      </trkpt>
      <trkpt lat="44.14998" lon="5.13244">
        <ele>394</ele>
        <time>2020-07-11T05:50:27.583Z</time>
      </trkpt>
      <trkpt lat="44.14998" lon="5.13239">
        <ele>395</ele>
        <time>2020-07-11T05:50:28.582Z</time>
      </trkpt>
      <trkpt lat="44.14997" lon="5.13234">
        <ele>395</ele>
        <time>2020-07-11T05:50:29.583Z</time>
      </trkpt>
      <trkpt lat="44.14997" lon="5.13227">
        <ele>395</ele>
        <time>2020-07-11T05:50:30.582Z</time>
      </trkpt>
      <trkpt lat="44.14996" lon="5.13221">
        <ele>395</ele>
        <time>2020-07-11T05:50:31.583Z</time>
      </trkpt>
      <trkpt lat="44.14996" lon="5.13215">
        <ele>396</ele>
        <time>2020-07-11T05:50:32.582Z</time>
      </trkpt>
      <trkpt lat="44.14994" lon="5.13207">
        <ele>396</ele>
        <time>2020-07-11T05:50:33.583Z</time>
      </trkpt>
      <trkpt lat="44.14993" lon="5.132">
        <ele>396</ele>
        <time>2020-07-11T05:50:34.583Z</time>
      </trkpt>
      <trkpt lat="44.14992" lon="5.13194">
        <ele>397</ele>
        <time>2020-07-11T05:50:35.583Z</time>
      </trkpt>
      <trkpt lat="44.14992" lon="5.13187">
        <ele>397</ele>
        <time>2020-07-11T05:50:36.582Z</time>
      </trkpt>
      <trkpt lat="44.14991" lon="5.1318">
        <ele>398</ele>
        <time>2020-07-11T05:50:37.583Z</time>
      </trkpt>
      <trkpt lat="44.14991" lon="5.13173">
        <ele>398</ele>
        <time>2020-07-11T05:50:38.583Z</time>
      </trkpt>
      <trkpt lat="44.14991" lon="5.13165">
        <ele>399</ele>
        <time>2020-07-11T05:50:39.582Z</time>
      </trkpt>
      <trkpt lat="44.1499" lon="5.13159">
        <ele>400</ele>
        <time>2020-07-11T05:50:40.583Z</time>
      </trkpt>
      <trkpt lat="44.1499" lon="5.13154">
        <ele>401</ele>
        <time>2020-07-11T05:50:41.583Z</time>
      </trkpt>
      <trkpt lat="44.1499" lon="5.1315">
        <ele>402</ele>
        <time>2020-07-11T05:50:42.582Z</time>
      </trkpt>
      <trkpt lat="44.1499" lon="5.13144">
        <ele>403</ele>
        <time>2020-07-11T05:50:43.583Z</time>
      </trkpt>
      <trkpt lat="44.14989" lon="5.13139">
        <ele>404</ele>
        <time>2020-07-11T05:50:44.583Z</time>
      </trkpt>
      <trkpt lat="44.14989" lon="5.13134">
        <ele>406</ele>
        <time>2020-07-11T05:50:45.583Z</time>
      </trkpt>
      <trkpt lat="44.14989" lon="5.13127">
        <ele>406</ele>
        <time>2020-07-11T05:50:46.583Z</time>
      </trkpt>
      <trkpt lat="44.14988" lon="5.13122">
        <ele>407</ele>
        <time>2020-07-11T05:50:47.583Z</time>
      </trkpt>
      <trkpt lat="44.14987" lon="5.13118">
        <ele>407</ele>
        <time>2020-07-11T05:50:48.583Z</time>
      </trkpt>
      <trkpt lat="44.14985" lon="5.13111">
        <ele>407</ele>
        <time>2020-07-11T05:50:49.583Z</time>
      </trkpt>
      <trkpt lat="44.14983" lon="5.13106">
        <ele>407</ele>
        <time>2020-07-11T05:50:50.583Z</time>
      </trkpt>
      <trkpt lat="44.14982" lon="5.13102">
        <ele>406</ele>
        <time>2020-07-11T05:50:51.583Z</time>
      </trkpt>
      <trkpt lat="44.14979" lon="5.13097">
        <ele>406</ele>
        <time>2020-07-11T05:50:52.583Z</time>
      </trkpt>
      <trkpt lat="44.14977" lon="5.13094">
        <ele>406</ele>
        <time>2020-07-11T05:50:53.583Z</time>
      </trkpt>
      <trkpt lat="44.14975" lon="5.13088">
        <ele>406</ele>
        <time>2020-07-11T05:50:54.582Z</time>
      </trkpt>
      <trkpt lat="44.14973" lon="5.13085">
        <ele>406</ele>
        <time>2020-07-11T05:50:55.583Z</time>
      </trkpt>
      <trkpt lat="44.14969" lon="5.13081">
        <ele>406</ele>
        <time>2020-07-11T05:50:56.583Z</time>
      </trkpt>
      <trkpt lat="44.14967" lon="5.13077">
        <ele>406</ele>
        <time>2020-07-11T05:50:57.583Z</time>
      </trkpt>
      <trkpt lat="44.14965" lon="5.13074">
        <ele>406</ele>
        <time>2020-07-11T05:50:58.583Z</time>
      </trkpt>
      <trkpt lat="44.14962" lon="5.13069">
        <ele>405</ele>
        <time>2020-07-11T05:50:59.583Z</time>
      </trkpt>
      <trkpt lat="44.14959" lon="5.13064">
        <ele>405</ele>
        <time>2020-07-11T05:51:00.582Z</time>
      </trkpt>
      <trkpt lat="44.14956" lon="5.13059">
        <ele>405</ele>
        <time>2020-07-11T05:51:01.582Z</time>
      </trkpt>
      <trkpt lat="44.14954" lon="5.13055">
        <ele>404</ele>
        <time>2020-07-11T05:51:02.583Z</time>
      </trkpt>
      <trkpt lat="44.14952" lon="5.13051">
        <ele>404</ele>
        <time>2020-07-11T05:51:03.582Z</time>
      </trkpt>
      <trkpt lat="44.14949" lon="5.13047">
        <ele>404</ele>
        <time>2020-07-11T05:51:04.582Z</time>
      </trkpt>
      <trkpt lat="44.14947" lon="5.13042">
        <ele>404</ele>
        <time>2020-07-11T05:51:05.582Z</time>
      </trkpt>
      <trkpt lat="44.14943" lon="5.13037">
        <ele>405</ele>
        <time>2020-07-11T05:51:06.582Z</time>
      </trkpt>
      <trkpt lat="44.1494" lon="5.13033">
        <ele>405</ele>
        <time>2020-07-11T05:51:07.582Z</time>
      </trkpt>
      <trkpt lat="44.14938" lon="5.1303">
        <ele>405</ele>
        <time>2020-07-11T05:51:08.582Z</time>
      </trkpt>
      <trkpt lat="44.14936" lon="5.13026">
        <ele>405</ele>
        <time>2020-07-11T05:51:09.583Z</time>
      </trkpt>
      <trkpt lat="44.14933" lon="5.13021">
        <ele>405</ele>
        <time>2020-07-11T05:51:10.582Z</time>
      </trkpt>
      <trkpt lat="44.14931" lon="5.13017">
        <ele>405</ele>
        <time>2020-07-11T05:51:11.583Z</time>
      </trkpt>
      <trkpt lat="44.14928" lon="5.13012">
        <ele>405</ele>
        <time>2020-07-11T05:51:12.582Z</time>
      </trkpt>
      <trkpt lat="44.14925" lon="5.13007">
        <ele>405</ele>
        <time>2020-07-11T05:51:13.583Z</time>
      </trkpt>
      <trkpt lat="44.14922" lon="5.13003">
        <ele>405</ele>
        <time>2020-07-11T05:51:14.583Z</time>
      </trkpt>
      <trkpt lat="44.14919" lon="5.13">
        <ele>405</ele>
        <time>2020-07-11T05:51:15.583Z</time>
      </trkpt>
      <trkpt lat="44.14915" lon="5.12996">
        <ele>406</ele>
        <time>2020-07-11T05:51:16.582Z</time>
      </trkpt>
      <trkpt lat="44.14912" lon="5.12994">
        <ele>406</ele>
        <time>2020-07-11T05:51:17.582Z</time>
      </trkpt>
      <trkpt lat="44.14909" lon="5.1299">
        <ele>406</ele>
        <time>2020-07-11T05:51:18.582Z</time>
      </trkpt>
      <trkpt lat="44.14905" lon="5.12987">
        <ele>407</ele>
        <time>2020-07-11T05:51:19.583Z</time>
      </trkpt>
      <trkpt lat="44.14902" lon="5.12985">
        <ele>407</ele>
        <time>2020-07-11T05:51:20.582Z</time>
      </trkpt>
      <trkpt lat="44.14898" lon="5.12982">
        <ele>408</ele>
        <time>2020-07-11T05:51:21.582Z</time>
      </trkpt>
      <trkpt lat="44.14894" lon="5.1298">
        <ele>408</ele>
        <time>2020-07-11T05:51:22.583Z</time>
      </trkpt>
      <trkpt lat="44.14892" lon="5.12977">
        <ele>409</ele>
        <time>2020-07-11T05:51:23.582Z</time>
      </trkpt>
      <trkpt lat="44.14888" lon="5.12974">
        <ele>409</ele>
        <time>2020-07-11T05:51:24.583Z</time>
      </trkpt>
      <trkpt lat="44.14884" lon="5.12971">
        <ele>409</ele>
        <time>2020-07-11T05:51:25.582Z</time>
      </trkpt>
      <trkpt lat="44.14881" lon="5.12969">
        <ele>409</ele>
        <time>2020-07-11T05:51:26.583Z</time>
      </trkpt>
      <trkpt lat="44.14878" lon="5.12966">
        <ele>409</ele>
        <time>2020-07-11T05:51:27.583Z</time>
      </trkpt>
      <trkpt lat="44.14874" lon="5.12963">
        <ele>408</ele>
        <time>2020-07-11T05:51:28.583Z</time>
      </trkpt>
      <trkpt lat="44.14871" lon="5.12961">
        <ele>408</ele>
        <time>2020-07-11T05:51:29.582Z</time>
      </trkpt>
      <trkpt lat="44.14868" lon="5.12958">
        <ele>408</ele>
        <time>2020-07-11T05:51:30.583Z</time>
      </trkpt>
      <trkpt lat="44.14864" lon="5.12955">
        <ele>408</ele>
        <time>2020-07-11T05:51:31.583Z</time>
      </trkpt>
      <trkpt lat="44.14862" lon="5.12953">
        <ele>409</ele>
        <time>2020-07-11T05:51:32.583Z</time>
      </trkpt>
      <trkpt lat="44.14858" lon="5.12949">
        <ele>409</ele>
        <time>2020-07-11T05:51:33.582Z</time>
      </trkpt>
      <trkpt lat="44.14855" lon="5.12947">
        <ele>410</ele>
        <time>2020-07-11T05:51:34.583Z</time>
      </trkpt>
      <trkpt lat="44.14851" lon="5.12944">
        <ele>410</ele>
        <time>2020-07-11T05:51:35.583Z</time>
      </trkpt>
      <trkpt lat="44.14849" lon="5.12942">
        <ele>411</ele>
        <time>2020-07-11T05:51:36.583Z</time>
      </trkpt>
      <trkpt lat="44.14845" lon="5.1294">
        <ele>411</ele>
        <time>2020-07-11T05:51:37.582Z</time>
      </trkpt>
      <trkpt lat="44.14841" lon="5.12938">
        <ele>411</ele>
        <time>2020-07-11T05:51:38.583Z</time>
      </trkpt>
      <trkpt lat="44.14839" lon="5.12936">
        <ele>411</ele>
        <time>2020-07-11T05:51:39.583Z</time>
      </trkpt>
      <trkpt lat="44.14835" lon="5.12935">
        <ele>411</ele>
        <time>2020-07-11T05:51:40.583Z</time>
      </trkpt>
      <trkpt lat="44.14832" lon="5.12933">
        <ele>412</ele>
        <time>2020-07-11T05:51:41.583Z</time>
      </trkpt>
      <trkpt lat="44.14829" lon="5.12931">
        <ele>412</ele>
        <time>2020-07-11T05:51:42.583Z</time>
      </trkpt>
      <trkpt lat="44.14825" lon="5.1293">
        <ele>412</ele>
        <time>2020-07-11T05:51:43.583Z</time>
      </trkpt>
      <trkpt lat="44.1482" lon="5.12928">
        <ele>413</ele>
        <time>2020-07-11T05:51:44.583Z</time>
      </trkpt>
      <trkpt lat="44.14817" lon="5.12927">
        <ele>413</ele>
        <time>2020-07-11T05:51:45.582Z</time>
      </trkpt>
      <trkpt lat="44.14813" lon="5.12926">
        <ele>413</ele>
        <time>2020-07-11T05:51:46.582Z</time>
      </trkpt>
      <trkpt lat="44.14807" lon="5.12924">
        <ele>413</ele>
        <time>2020-07-11T05:51:47.583Z</time>
      </trkpt>
      <trkpt lat="44.14803" lon="5.12922">
        <ele>413</ele>
        <time>2020-07-11T05:51:48.583Z</time>
      </trkpt>
      <trkpt lat="44.14799" lon="5.12922">
        <ele>414</ele>
        <time>2020-07-11T05:51:49.583Z</time>
      </trkpt>
      <trkpt lat="44.14795" lon="5.12921">
        <ele>414</ele>
        <time>2020-07-11T05:51:50.583Z</time>
      </trkpt>
      <trkpt lat="44.14791" lon="5.1292">
        <ele>414</ele>
        <time>2020-07-11T05:51:51.583Z</time>
      </trkpt>
      <trkpt lat="44.14787" lon="5.12919">
        <ele>414</ele>
        <time>2020-07-11T05:51:52.582Z</time>
      </trkpt>
      <trkpt lat="44.14782" lon="5.12918">
        <ele>415</ele>
        <time>2020-07-11T05:51:53.583Z</time>
      </trkpt>
      <trkpt lat="44.14778" lon="5.12918">
        <ele>415</ele>
        <time>2020-07-11T05:51:54.583Z</time>
      </trkpt>
      <trkpt lat="44.14774" lon="5.12918">
        <ele>415</ele>
        <time>2020-07-11T05:51:55.582Z</time>
      </trkpt>
      <trkpt lat="44.1477" lon="5.12918">
        <ele>415</ele>
        <time>2020-07-11T05:51:56.583Z</time>
      </trkpt>
      <trkpt lat="44.14765" lon="5.12918">
        <ele>415</ele>
        <time>2020-07-11T05:51:57.583Z</time>
      </trkpt>
      <trkpt lat="44.1476" lon="5.12918">
        <ele>415</ele>
        <time>2020-07-11T05:51:58.583Z</time>
      </trkpt>
      <trkpt lat="44.14756" lon="5.12919">
        <ele>415</ele>
        <time>2020-07-11T05:51:59.583Z</time>
      </trkpt>
      <trkpt lat="44.14752" lon="5.1292">
        <ele>415</ele>
        <time>2020-07-11T05:52:00.583Z</time>
      </trkpt>
      <trkpt lat="44.14748" lon="5.12921">
        <ele>415</ele>
        <time>2020-07-11T05:52:01.583Z</time>
      </trkpt>
      <trkpt lat="44.14744" lon="5.12923">
        <ele>415</ele>
        <time>2020-07-11T05:52:02.583Z</time>
      </trkpt>
      <trkpt lat="44.1474" lon="5.12926">
        <ele>415</ele>
        <time>2020-07-11T05:52:03.583Z</time>
      </trkpt>
      <trkpt lat="44.14736" lon="5.12929">
        <ele>415</ele>
        <time>2020-07-11T05:52:04.582Z</time>
      </trkpt>
      <trkpt lat="44.14732" lon="5.12931">
        <ele>416</ele>
        <time>2020-07-11T05:52:05.583Z</time>
      </trkpt>
      <trkpt lat="44.14728" lon="5.12934">
        <ele>417</ele>
        <time>2020-07-11T05:52:06.583Z</time>
      </trkpt>
      <trkpt lat="44.14725" lon="5.12938">
        <ele>417</ele>
        <time>2020-07-11T05:52:07.583Z</time>
      </trkpt>
      <trkpt lat="44.14721" lon="5.12942">
        <ele>418</ele>
        <time>2020-07-11T05:52:08.583Z</time>
      </trkpt>
      <trkpt lat="44.14718" lon="5.12945">
        <ele>418</ele>
        <time>2020-07-11T05:52:09.583Z</time>
      </trkpt>
      <trkpt lat="44.14715" lon="5.12949">
        <ele>419</ele>
        <time>2020-07-11T05:52:10.583Z</time>
      </trkpt>
      <trkpt lat="44.14711" lon="5.12954">
        <ele>419</ele>
        <time>2020-07-11T05:52:11.582Z</time>
      </trkpt>
      <trkpt lat="44.14708" lon="5.12958">
        <ele>419</ele>
        <time>2020-07-11T05:52:12.583Z</time>
      </trkpt>
      <trkpt lat="44.14705" lon="5.12962">
        <ele>420</ele>
        <time>2020-07-11T05:52:13.582Z</time>
      </trkpt>
      <trkpt lat="44.14703" lon="5.12967">
        <ele>420</ele>
        <time>2020-07-11T05:52:14.582Z</time>
      </trkpt>
      <trkpt lat="44.147" lon="5.12971">
        <ele>421</ele>
        <time>2020-07-11T05:52:15.583Z</time>
      </trkpt>
      <trkpt lat="44.14698" lon="5.12976">
        <ele>421</ele>
        <time>2020-07-11T05:52:16.582Z</time>
      </trkpt>
      <trkpt lat="44.14696" lon="5.12981">
        <ele>421</ele>
        <time>2020-07-11T05:52:17.582Z</time>
      </trkpt>
      <trkpt lat="44.14694" lon="5.12986">
        <ele>422</ele>
        <time>2020-07-11T05:52:18.582Z</time>
      </trkpt>
      <trkpt lat="44.14692" lon="5.12992">
        <ele>422</ele>
        <time>2020-07-11T05:52:19.582Z</time>
      </trkpt>
      <trkpt lat="44.1469" lon="5.12997">
        <ele>423</ele>
        <time>2020-07-11T05:52:20.583Z</time>
      </trkpt>
      <trkpt lat="44.14688" lon="5.13003">
        <ele>423</ele>
        <time>2020-07-11T05:52:21.582Z</time>
      </trkpt>
      <trkpt lat="44.14686" lon="5.13008">
        <ele>424</ele>
        <time>2020-07-11T05:52:22.583Z</time>
      </trkpt>
      <trkpt lat="44.14684" lon="5.13014">
        <ele>424</ele>
        <time>2020-07-11T05:52:23.582Z</time>
      </trkpt>
      <trkpt lat="44.14682" lon="5.13019">
        <ele>425</ele>
        <time>2020-07-11T05:52:24.583Z</time>
      </trkpt>
      <trkpt lat="44.14681" lon="5.13025">
        <ele>425</ele>
        <time>2020-07-11T05:52:25.582Z</time>
      </trkpt>
      <trkpt lat="44.14679" lon="5.1303">
        <ele>426</ele>
        <time>2020-07-11T05:52:26.583Z</time>
      </trkpt>
      <trkpt lat="44.14677" lon="5.13036">
        <ele>426</ele>
        <time>2020-07-11T05:52:27.582Z</time>
      </trkpt>
      <trkpt lat="44.14675" lon="5.13043">
        <ele>427</ele>
        <time>2020-07-11T05:52:28.583Z</time>
      </trkpt>
      <trkpt lat="44.14673" lon="5.13048">
        <ele>427</ele>
        <time>2020-07-11T05:52:29.583Z</time>
      </trkpt>
      <trkpt lat="44.14671" lon="5.13054">
        <ele>427</ele>
        <time>2020-07-11T05:52:30.583Z</time>
      </trkpt>
      <trkpt lat="44.14669" lon="5.1306">
        <ele>428</ele>
        <time>2020-07-11T05:52:31.583Z</time>
      </trkpt>
      <trkpt lat="44.14666" lon="5.13065">
        <ele>428</ele>
        <time>2020-07-11T05:52:32.583Z</time>
      </trkpt>
      <trkpt lat="44.14664" lon="5.13071">
        <ele>428</ele>
        <time>2020-07-11T05:52:33.583Z</time>
      </trkpt>
      <trkpt lat="44.14661" lon="5.13075">
        <ele>428</ele>
        <time>2020-07-11T05:52:34.583Z</time>
      </trkpt>
      <trkpt lat="44.14658" lon="5.13081">
        <ele>428</ele>
        <time>2020-07-11T05:52:35.582Z</time>
      </trkpt>
      <trkpt lat="44.14655" lon="5.13086">
        <ele>428</ele>
        <time>2020-07-11T05:52:36.583Z</time>
      </trkpt>
      <trkpt lat="44.14652" lon="5.13091">
        <ele>429</ele>
        <time>2020-07-11T05:52:37.582Z</time>
      </trkpt>
      <trkpt lat="44.14648" lon="5.13097">
        <ele>429</ele>
        <time>2020-07-11T05:52:38.583Z</time>
      </trkpt>
      <trkpt lat="44.14645" lon="5.13103">
        <ele>429</ele>
        <time>2020-07-11T05:52:39.582Z</time>
      </trkpt>
      <trkpt lat="44.14641" lon="5.13108">
        <ele>429</ele>
        <time>2020-07-11T05:52:40.583Z</time>
      </trkpt>
      <trkpt lat="44.14636" lon="5.13113">
        <ele>430</ele>
        <time>2020-07-11T05:52:41.583Z</time>
      </trkpt>
      <trkpt lat="44.14632" lon="5.13117">
        <ele>430</ele>
        <time>2020-07-11T05:52:42.582Z</time>
      </trkpt>
      <trkpt lat="44.14629" lon="5.13123">
        <ele>430</ele>
        <time>2020-07-11T05:52:43.582Z</time>
      </trkpt>
      <trkpt lat="44.14625" lon="5.13128">
        <ele>430</ele>
        <time>2020-07-11T05:52:44.582Z</time>
      </trkpt>
      <trkpt lat="44.14622" lon="5.13133">
        <ele>430</ele>
        <time>2020-07-11T05:52:45.583Z</time>
      </trkpt>
      <trkpt lat="44.14619" lon="5.13138">
        <ele>431</ele>
        <time>2020-07-11T05:52:46.582Z</time>
      </trkpt>
      <trkpt lat="44.14616" lon="5.13144">
        <ele>431</ele>
        <time>2020-07-11T05:52:47.583Z</time>
      </trkpt>
      <trkpt lat="44.14612" lon="5.13149">
        <ele>431</ele>
        <time>2020-07-11T05:52:48.583Z</time>
      </trkpt>
      <trkpt lat="44.14608" lon="5.13156">
        <ele>430</ele>
        <time>2020-07-11T05:52:49.582Z</time>
      </trkpt>
      <trkpt lat="44.14606" lon="5.1316">
        <ele>430</ele>
        <time>2020-07-11T05:52:50.583Z</time>
      </trkpt>
      <trkpt lat="44.14602" lon="5.13166">
        <ele>430</ele>
        <time>2020-07-11T05:52:51.582Z</time>
      </trkpt>
      <trkpt lat="44.14599" lon="5.13172">
        <ele>430</ele>
        <time>2020-07-11T05:52:52.582Z</time>
      </trkpt>
      <trkpt lat="44.14596" lon="5.13177">
        <ele>430</ele>
        <time>2020-07-11T05:52:53.583Z</time>
      </trkpt>
      <trkpt lat="44.14594" lon="5.13183">
        <ele>430</ele>
        <time>2020-07-11T05:52:54.583Z</time>
      </trkpt>
      <trkpt lat="44.14592" lon="5.13189">
        <ele>430</ele>
        <time>2020-07-11T05:52:55.582Z</time>
      </trkpt>
      <trkpt lat="44.1459" lon="5.13195">
        <ele>430</ele>
        <time>2020-07-11T05:52:56.582Z</time>
      </trkpt>
      <trkpt lat="44.14588" lon="5.13202">
        <ele>430</ele>
        <time>2020-07-11T05:52:57.583Z</time>
      </trkpt>
      <trkpt lat="44.14586" lon="5.13208">
        <ele>430</ele>
        <time>2020-07-11T05:52:58.582Z</time>
      </trkpt>
      <trkpt lat="44.14585" lon="5.13214">
        <ele>430</ele>
        <time>2020-07-11T05:52:59.582Z</time>
      </trkpt>
      <trkpt lat="44.14583" lon="5.13219">
        <ele>430</ele>
        <time>2020-07-11T05:53:00.582Z</time>
      </trkpt>
      <trkpt lat="44.14582" lon="5.13226">
        <ele>430</ele>
        <time>2020-07-11T05:53:01.583Z</time>
      </trkpt>
      <trkpt lat="44.14581" lon="5.13232">
        <ele>430</ele>
        <time>2020-07-11T05:53:02.583Z</time>
      </trkpt>
      <trkpt lat="44.1458" lon="5.13238">
        <ele>430</ele>
        <time>2020-07-11T05:53:03.583Z</time>
      </trkpt>
      <trkpt lat="44.1458" lon="5.13245">
        <ele>431</ele>
        <time>2020-07-11T05:53:04.582Z</time>
      </trkpt>
      <trkpt lat="44.14579" lon="5.13251">
        <ele>431</ele>
        <time>2020-07-11T05:53:05.583Z</time>
      </trkpt>
      <trkpt lat="44.14578" lon="5.13257">
        <ele>431</ele>
        <time>2020-07-11T05:53:06.582Z</time>
      </trkpt>
      <trkpt lat="44.14578" lon="5.13263">
        <ele>432</ele>
        <time>2020-07-11T05:53:07.583Z</time>
      </trkpt>
      <trkpt lat="44.14577" lon="5.13271">
        <ele>433</ele>
        <time>2020-07-11T05:53:08.583Z</time>
      </trkpt>
      <trkpt lat="44.14577" lon="5.13276">
        <ele>433</ele>
        <time>2020-07-11T05:53:09.583Z</time>
      </trkpt>
      <trkpt lat="44.14577" lon="5.13282">
        <ele>434</ele>
        <time>2020-07-11T05:53:10.582Z</time>
      </trkpt>
      <trkpt lat="44.14578" lon="5.13288">
        <ele>434</ele>
        <time>2020-07-11T05:53:11.582Z</time>
      </trkpt>
      <trkpt lat="44.14578" lon="5.13295">
        <ele>434</ele>
        <time>2020-07-11T05:53:12.583Z</time>
      </trkpt>
      <trkpt lat="44.14578" lon="5.13299">
        <ele>433</ele>
        <time>2020-07-11T05:53:13.583Z</time>
      </trkpt>
      <trkpt lat="44.14578" lon="5.13305">
        <ele>433</ele>
        <time>2020-07-11T05:53:14.582Z</time>
      </trkpt>
      <trkpt lat="44.14578" lon="5.13311">
        <ele>433</ele>
        <time>2020-07-11T05:53:15.583Z</time>
      </trkpt>
      <trkpt lat="44.14579" lon="5.13317">
        <ele>433</ele>
        <time>2020-07-11T05:53:16.583Z</time>
      </trkpt>
      <trkpt lat="44.14579" lon="5.13324">
        <ele>432</ele>
        <time>2020-07-11T05:53:17.583Z</time>
      </trkpt>
      <trkpt lat="44.14579" lon="5.1333">
        <ele>432</ele>
        <time>2020-07-11T05:53:18.583Z</time>
      </trkpt>
      <trkpt lat="44.14579" lon="5.13336">
        <ele>432</ele>
        <time>2020-07-11T05:53:19.582Z</time>
      </trkpt>
      <trkpt lat="44.14578" lon="5.13343">
        <ele>433</ele>
        <time>2020-07-11T05:53:20.583Z</time>
      </trkpt>
      <trkpt lat="44.14578" lon="5.13349">
        <ele>433</ele>
        <time>2020-07-11T05:53:21.582Z</time>
      </trkpt>
      <trkpt lat="44.14577" lon="5.13354">
        <ele>433</ele>
        <time>2020-07-11T05:53:22.582Z</time>
      </trkpt>
      <trkpt lat="44.14576" lon="5.13359">
        <ele>434</ele>
        <time>2020-07-11T05:53:23.583Z</time>
      </trkpt>
      <trkpt lat="44.14574" lon="5.13362">
        <ele>434</ele>
        <time>2020-07-11T05:53:24.582Z</time>
      </trkpt>
      <trkpt lat="44.14571" lon="5.13366">
        <ele>434</ele>
        <time>2020-07-11T05:53:25.583Z</time>
      </trkpt>
      <trkpt lat="44.14568" lon="5.13367">
        <ele>434</ele>
        <time>2020-07-11T05:53:26.582Z</time>
      </trkpt>
      <trkpt lat="44.14563" lon="5.13368">
        <ele>434</ele>
        <time>2020-07-11T05:53:27.583Z</time>
      </trkpt>
      <trkpt lat="44.14559" lon="5.13369">
        <ele>434</ele>
        <time>2020-07-11T05:53:28.583Z</time>
      </trkpt>
      <trkpt lat="44.14555" lon="5.13368">
        <ele>434</ele>
        <time>2020-07-11T05:53:29.583Z</time>
      </trkpt>
      <trkpt lat="44.1455" lon="5.13368">
        <ele>434</ele>
        <time>2020-07-11T05:53:30.582Z</time>
      </trkpt>
      <trkpt lat="44.14546" lon="5.13366">
        <ele>434</ele>
        <time>2020-07-11T05:53:31.583Z</time>
      </trkpt>
      <trkpt lat="44.14542" lon="5.13365">
        <ele>434</ele>
        <time>2020-07-11T05:53:32.582Z</time>
      </trkpt>
      <trkpt lat="44.14538" lon="5.13363">
        <ele>434</ele>
        <time>2020-07-11T05:53:33.583Z</time>
      </trkpt>
      <trkpt lat="44.14533" lon="5.13361">
        <ele>434</ele>
        <time>2020-07-11T05:53:34.583Z</time>
      </trkpt>
      <trkpt lat="44.14529" lon="5.13359">
        <ele>434</ele>
        <time>2020-07-11T05:53:35.583Z</time>
      </trkpt>
      <trkpt lat="44.14524" lon="5.13357">
        <ele>434</ele>
        <time>2020-07-11T05:53:36.583Z</time>
      </trkpt>
      <trkpt lat="44.1452" lon="5.13355">
        <ele>434</ele>
        <time>2020-07-11T05:53:37.583Z</time>
      </trkpt>
      <trkpt lat="44.14515" lon="5.13354">
        <ele>435</ele>
        <time>2020-07-11T05:53:38.583Z</time>
      </trkpt>
      <trkpt lat="44.14511" lon="5.13353">
        <ele>435</ele>
        <time>2020-07-11T05:53:39.582Z</time>
      </trkpt>
      <trkpt lat="44.14506" lon="5.13352">
        <ele>436</ele>
        <time>2020-07-11T05:53:40.582Z</time>
      </trkpt>
      <trkpt lat="44.14501" lon="5.13351">
        <ele>436</ele>
        <time>2020-07-11T05:53:41.583Z</time>
      </trkpt>
      <trkpt lat="44.14496" lon="5.1335">
        <ele>436</ele>
        <time>2020-07-11T05:53:42.582Z</time>
      </trkpt>
      <trkpt lat="44.14491" lon="5.1335">
        <ele>436</ele>
        <time>2020-07-11T05:53:43.582Z</time>
      </trkpt>
      <trkpt lat="44.14486" lon="5.13349">
        <ele>436</ele>
        <time>2020-07-11T05:53:44.583Z</time>
      </trkpt>
      <trkpt lat="44.14481" lon="5.13349">
        <ele>436</ele>
        <time>2020-07-11T05:53:45.583Z</time>
      </trkpt>
      <trkpt lat="44.14477" lon="5.1335">
        <ele>436</ele>
        <time>2020-07-11T05:53:46.583Z</time>
      </trkpt>
      <trkpt lat="44.14472" lon="5.1335">
        <ele>436</ele>
        <time>2020-07-11T05:53:47.583Z</time>
      </trkpt>
      <trkpt lat="44.14467" lon="5.1335">
        <ele>437</ele>
        <time>2020-07-11T05:53:48.582Z</time>
      </trkpt>
      <trkpt lat="44.14462" lon="5.13351">
        <ele>437</ele>
        <time>2020-07-11T05:53:49.582Z</time>
      </trkpt>
      <trkpt lat="44.14457" lon="5.13352">
        <ele>437</ele>
        <time>2020-07-11T05:53:50.583Z</time>
      </trkpt>
      <trkpt lat="44.14453" lon="5.13353">
        <ele>437</ele>
        <time>2020-07-11T05:53:51.582Z</time>
      </trkpt>
      <trkpt lat="44.14448" lon="5.13353">
        <ele>437</ele>
        <time>2020-07-11T05:53:52.582Z</time>
      </trkpt>
      <trkpt lat="44.14442" lon="5.13354">
        <ele>437</ele>
        <time>2020-07-11T05:53:53.583Z</time>
      </trkpt>
      <trkpt lat="44.14439" lon="5.13355">
        <ele>437</ele>
        <time>2020-07-11T05:53:54.583Z</time>
      </trkpt>
      <trkpt lat="44.14434" lon="5.13355">
        <ele>438</ele>
        <time>2020-07-11T05:53:55.583Z</time>
      </trkpt>
      <trkpt lat="44.14429" lon="5.13356">
        <ele>439</ele>
        <time>2020-07-11T05:53:56.582Z</time>
      </trkpt>
      <trkpt lat="44.14424" lon="5.13356">
        <ele>440</ele>
        <time>2020-07-11T05:53:57.583Z</time>
      </trkpt>
      <trkpt lat="44.14419" lon="5.13356">
        <ele>440</ele>
        <time>2020-07-11T05:53:58.583Z</time>
      </trkpt>
      <trkpt lat="44.14415" lon="5.13356">
        <ele>441</ele>
        <time>2020-07-11T05:53:59.583Z</time>
      </trkpt>
      <trkpt lat="44.1441" lon="5.13354">
        <ele>442</ele>
        <time>2020-07-11T05:54:00.583Z</time>
      </trkpt>
      <trkpt lat="44.14405" lon="5.13352">
        <ele>442</ele>
        <time>2020-07-11T05:54:01.583Z</time>
      </trkpt>
      <trkpt lat="44.14401" lon="5.1335">
        <ele>442</ele>
        <time>2020-07-11T05:54:02.582Z</time>
      </trkpt>
      <trkpt lat="44.14397" lon="5.13347">
        <ele>443</ele>
        <time>2020-07-11T05:54:03.582Z</time>
      </trkpt>
      <trkpt lat="44.14392" lon="5.13344">
        <ele>443</ele>
        <time>2020-07-11T05:54:04.582Z</time>
      </trkpt>
      <trkpt lat="44.14388" lon="5.13341">
        <ele>444</ele>
        <time>2020-07-11T05:54:05.583Z</time>
      </trkpt>
      <trkpt lat="44.14384" lon="5.13338">
        <ele>444</ele>
        <time>2020-07-11T05:54:06.582Z</time>
      </trkpt>
      <trkpt lat="44.1438" lon="5.13334">
        <ele>444</ele>
        <time>2020-07-11T05:54:07.582Z</time>
      </trkpt>
      <trkpt lat="44.14376" lon="5.13331">
        <ele>444</ele>
        <time>2020-07-11T05:54:08.582Z</time>
      </trkpt>
      <trkpt lat="44.14373" lon="5.13327">
        <ele>444</ele>
        <time>2020-07-11T05:54:09.583Z</time>
      </trkpt>
      <trkpt lat="44.14369" lon="5.13323">
        <ele>445</ele>
        <time>2020-07-11T05:54:10.583Z</time>
      </trkpt>
      <trkpt lat="44.14365" lon="5.13319">
        <ele>445</ele>
        <time>2020-07-11T05:54:11.583Z</time>
      </trkpt>
      <trkpt lat="44.14362" lon="5.13315">
        <ele>445</ele>
        <time>2020-07-11T05:54:12.583Z</time>
      </trkpt>
      <trkpt lat="44.14359" lon="5.13309">
        <ele>445</ele>
        <time>2020-07-11T05:54:13.583Z</time>
      </trkpt>
      <trkpt lat="44.14357" lon="5.13304">
        <ele>445</ele>
        <time>2020-07-11T05:54:14.583Z</time>
      </trkpt>
      <trkpt lat="44.14354" lon="5.13299">
        <ele>445</ele>
        <time>2020-07-11T05:54:15.583Z</time>
      </trkpt>
      <trkpt lat="44.14352" lon="5.13293">
        <ele>445</ele>
        <time>2020-07-11T05:54:16.583Z</time>
      </trkpt>
      <trkpt lat="44.14351" lon="5.13287">
        <ele>445</ele>
        <time>2020-07-11T05:54:17.583Z</time>
      </trkpt>
      <trkpt lat="44.14349" lon="5.13282">
        <ele>445</ele>
        <time>2020-07-11T05:54:18.583Z</time>
      </trkpt>
      <trkpt lat="44.14347" lon="5.13276">
        <ele>445</ele>
        <time>2020-07-11T05:54:19.583Z</time>
      </trkpt>
      <trkpt lat="44.14345" lon="5.13271">
        <ele>445</ele>
        <time>2020-07-11T05:54:20.583Z</time>
      </trkpt>
      <trkpt lat="44.14343" lon="5.13266">
        <ele>445</ele>
        <time>2020-07-11T05:54:21.583Z</time>
      </trkpt>
      <trkpt lat="44.14341" lon="5.13262">
        <ele>445</ele>
        <time>2020-07-11T05:54:22.583Z</time>
      </trkpt>
      <trkpt lat="44.14339" lon="5.13257">
        <ele>445</ele>
        <time>2020-07-11T05:54:23.583Z</time>
      </trkpt>
      <trkpt lat="44.14336" lon="5.13253">
        <ele>445</ele>
        <time>2020-07-11T05:54:24.583Z</time>
      </trkpt>
      <trkpt lat="44.14333" lon="5.1325">
        <ele>445</ele>
        <time>2020-07-11T05:54:25.582Z</time>
      </trkpt>
      <trkpt lat="44.1433" lon="5.13247">
        <ele>445</ele>
        <time>2020-07-11T05:54:26.582Z</time>
      </trkpt>
      <trkpt lat="44.14327" lon="5.13244">
        <ele>444</ele>
        <time>2020-07-11T05:54:27.583Z</time>
      </trkpt>
      <trkpt lat="44.14323" lon="5.13241">
        <ele>444</ele>
        <time>2020-07-11T05:54:28.582Z</time>
      </trkpt>
      <trkpt lat="44.1432" lon="5.13239">
        <ele>444</ele>
        <time>2020-07-11T05:54:29.582Z</time>
      </trkpt>
      <trkpt lat="44.14316" lon="5.13237">
        <ele>444</ele>
        <time>2020-07-11T05:54:30.583Z</time>
      </trkpt>
      <trkpt lat="44.14312" lon="5.13235">
        <ele>444</ele>
        <time>2020-07-11T05:54:31.583Z</time>
      </trkpt>
      <trkpt lat="44.14308" lon="5.13233">
        <ele>444</ele>
        <time>2020-07-11T05:54:32.583Z</time>
      </trkpt>
      <trkpt lat="44.14304" lon="5.13232">
        <ele>444</ele>
        <time>2020-07-11T05:54:33.582Z</time>
      </trkpt>
      <trkpt lat="44.143" lon="5.1323">
        <ele>444</ele>
        <time>2020-07-11T05:54:34.582Z</time>
      </trkpt>
      <trkpt lat="44.14295" lon="5.13228">
        <ele>444</ele>
        <time>2020-07-11T05:54:35.583Z</time>
      </trkpt>
      <trkpt lat="44.14291" lon="5.13225">
        <ele>445</ele>
        <time>2020-07-11T05:54:36.583Z</time>
      </trkpt>
      <trkpt lat="44.14287" lon="5.13221">
        <ele>445</ele>
        <time>2020-07-11T05:54:37.583Z</time>
      </trkpt>
      <trkpt lat="44.14284" lon="5.13216">
        <ele>445</ele>
        <time>2020-07-11T05:54:38.582Z</time>
      </trkpt>
      <trkpt lat="44.14281" lon="5.13211">
        <ele>445</ele>
        <time>2020-07-11T05:54:39.583Z</time>
      </trkpt>
      <trkpt lat="44.14278" lon="5.13206">
        <ele>446</ele>
        <time>2020-07-11T05:54:40.583Z</time>
      </trkpt>
      <trkpt lat="44.14275" lon="5.132">
        <ele>446</ele>
        <time>2020-07-11T05:54:41.582Z</time>
      </trkpt>
      <trkpt lat="44.14273" lon="5.13196">
        <ele>446</ele>
        <time>2020-07-11T05:54:42.583Z</time>
      </trkpt>
      <trkpt lat="44.14271" lon="5.13191">
        <ele>446</ele>
        <time>2020-07-11T05:54:43.582Z</time>
      </trkpt>
      <trkpt lat="44.14268" lon="5.13186">
        <ele>446</ele>
        <time>2020-07-11T05:54:44.582Z</time>
      </trkpt>
      <trkpt lat="44.14266" lon="5.13182">
        <ele>446</ele>
        <time>2020-07-11T05:54:45.582Z</time>
      </trkpt>
      <trkpt lat="44.14263" lon="5.13177">
        <ele>446</ele>
        <time>2020-07-11T05:54:46.582Z</time>
      </trkpt>
      <trkpt lat="44.14261" lon="5.13172">
        <ele>445</ele>
        <time>2020-07-11T05:54:47.583Z</time>
      </trkpt>
      <trkpt lat="44.14259" lon="5.13167">
        <ele>445</ele>
        <time>2020-07-11T05:54:48.582Z</time>
      </trkpt>
      <trkpt lat="44.14256" lon="5.13162">
        <ele>445</ele>
        <time>2020-07-11T05:54:49.583Z</time>
      </trkpt>
      <trkpt lat="44.14253" lon="5.13158">
        <ele>445</ele>
        <time>2020-07-11T05:54:50.583Z</time>
      </trkpt>
      <trkpt lat="44.1425" lon="5.13153">
        <ele>446</ele>
        <time>2020-07-11T05:54:51.583Z</time>
      </trkpt>
      <trkpt lat="44.14248" lon="5.13148">
        <ele>446</ele>
        <time>2020-07-11T05:54:52.583Z</time>
      </trkpt>
      <trkpt lat="44.14245" lon="5.13144">
        <ele>447</ele>
        <time>2020-07-11T05:54:53.583Z</time>
      </trkpt>
      <trkpt lat="44.14242" lon="5.13139">
        <ele>447</ele>
        <time>2020-07-11T05:54:54.582Z</time>
      </trkpt>
      <trkpt lat="44.14239" lon="5.13135">
        <ele>448</ele>
        <time>2020-07-11T05:54:55.583Z</time>
      </trkpt>
      <trkpt lat="44.14235" lon="5.13131">
        <ele>448</ele>
        <time>2020-07-11T05:54:56.583Z</time>
      </trkpt>
      <trkpt lat="44.14232" lon="5.13127">
        <ele>449</ele>
        <time>2020-07-11T05:54:57.583Z</time>
      </trkpt>
      <trkpt lat="44.14229" lon="5.13122">
        <ele>450</ele>
        <time>2020-07-11T05:54:58.582Z</time>
      </trkpt>
      <trkpt lat="44.14225" lon="5.13118">
        <ele>450</ele>
        <time>2020-07-11T05:54:59.583Z</time>
      </trkpt>
      <trkpt lat="44.14222" lon="5.13114">
        <ele>450</ele>
        <time>2020-07-11T05:55:00.583Z</time>
      </trkpt>
      <trkpt lat="44.14218" lon="5.1311">
        <ele>451</ele>
        <time>2020-07-11T05:55:01.582Z</time>
      </trkpt>
      <trkpt lat="44.14215" lon="5.13106">
        <ele>451</ele>
        <time>2020-07-11T05:55:02.582Z</time>
      </trkpt>
      <trkpt lat="44.14211" lon="5.13102">
        <ele>451</ele>
        <time>2020-07-11T05:55:03.583Z</time>
      </trkpt>
      <trkpt lat="44.14207" lon="5.13098">
        <ele>451</ele>
        <time>2020-07-11T05:55:04.583Z</time>
      </trkpt>
      <trkpt lat="44.14204" lon="5.13095">
        <ele>451</ele>
        <time>2020-07-11T05:55:05.583Z</time>
      </trkpt>
      <trkpt lat="44.142" lon="5.13091">
        <ele>452</ele>
        <time>2020-07-11T05:55:06.583Z</time>
      </trkpt>
      <trkpt lat="44.14196" lon="5.13088">
        <ele>452</ele>
        <time>2020-07-11T05:55:07.583Z</time>
      </trkpt>
      <trkpt lat="44.14192" lon="5.13084">
        <ele>452</ele>
        <time>2020-07-11T05:55:08.582Z</time>
      </trkpt>
      <trkpt lat="44.14189" lon="5.1308">
        <ele>452</ele>
        <time>2020-07-11T05:55:09.582Z</time>
      </trkpt>
      <trkpt lat="44.14185" lon="5.13075">
        <ele>452</ele>
        <time>2020-07-11T05:55:10.582Z</time>
      </trkpt>
      <trkpt lat="44.14181" lon="5.13071">
        <ele>452</ele>
        <time>2020-07-11T05:55:11.582Z</time>
      </trkpt>
      <trkpt lat="44.14178" lon="5.13066">
        <ele>453</ele>
        <time>2020-07-11T05:55:12.582Z</time>
      </trkpt>
      <trkpt lat="44.14174" lon="5.13062">
        <ele>453</ele>
        <time>2020-07-11T05:55:13.582Z</time>
      </trkpt>
      <trkpt lat="44.14171" lon="5.13057">
        <ele>453</ele>
        <time>2020-07-11T05:55:14.582Z</time>
      </trkpt>
      <trkpt lat="44.14167" lon="5.13052">
        <ele>454</ele>
        <time>2020-07-11T05:55:15.583Z</time>
      </trkpt>
      <trkpt lat="44.14164" lon="5.13049">
        <ele>454</ele>
        <time>2020-07-11T05:55:16.583Z</time>
      </trkpt>
      <trkpt lat="44.14161" lon="5.13044">
        <ele>454</ele>
        <time>2020-07-11T05:55:17.583Z</time>
      </trkpt>
      <trkpt lat="44.14158" lon="5.13039">
        <ele>454</ele>
        <time>2020-07-11T05:55:18.582Z</time>
      </trkpt>
      <trkpt lat="44.14154" lon="5.13034">
        <ele>455</ele>
        <time>2020-07-11T05:55:19.582Z</time>
      </trkpt>
      <trkpt lat="44.14152" lon="5.1303">
        <ele>455</ele>
        <time>2020-07-11T05:55:20.583Z</time>
      </trkpt>
      <trkpt lat="44.14149" lon="5.13024">
        <ele>455</ele>
        <time>2020-07-11T05:55:21.583Z</time>
      </trkpt>
      <trkpt lat="44.14146" lon="5.13019">
        <ele>455</ele>
        <time>2020-07-11T05:55:22.583Z</time>
      </trkpt>
      <trkpt lat="44.14144" lon="5.13013">
        <ele>455</ele>
        <time>2020-07-11T05:55:23.583Z</time>
      </trkpt>
      <trkpt lat="44.14142" lon="5.13007">
        <ele>455</ele>
        <time>2020-07-11T05:55:24.582Z</time>
      </trkpt>
      <trkpt lat="44.1414" lon="5.13">
        <ele>456</ele>
        <time>2020-07-11T05:55:25.582Z</time>
      </trkpt>
      <trkpt lat="44.1414" lon="5.12994">
        <ele>456</ele>
        <time>2020-07-11T05:55:26.583Z</time>
      </trkpt>
      <trkpt lat="44.14139" lon="5.12987">
        <ele>456</ele>
        <time>2020-07-11T05:55:27.583Z</time>
      </trkpt>
      <trkpt lat="44.14138" lon="5.12981">
        <ele>456</ele>
        <time>2020-07-11T05:55:28.583Z</time>
      </trkpt>
      <trkpt lat="44.14138" lon="5.12973">
        <ele>456</ele>
        <time>2020-07-11T05:55:29.583Z</time>
      </trkpt>
      <trkpt lat="44.14138" lon="5.12968">
        <ele>456</ele>
        <time>2020-07-11T05:55:30.583Z</time>
      </trkpt>
      <trkpt lat="44.14137" lon="5.12962">
        <ele>456</ele>
        <time>2020-07-11T05:55:31.582Z</time>
      </trkpt>
      <trkpt lat="44.14136" lon="5.12957">
        <ele>457</ele>
        <time>2020-07-11T05:55:32.582Z</time>
      </trkpt>
      <trkpt lat="44.14135" lon="5.12951">
        <ele>457</ele>
        <time>2020-07-11T05:55:33.583Z</time>
      </trkpt>
      <trkpt lat="44.14132" lon="5.12947">
        <ele>458</ele>
        <time>2020-07-11T05:55:34.583Z</time>
      </trkpt>
      <trkpt lat="44.14129" lon="5.12943">
        <ele>458</ele>
        <time>2020-07-11T05:55:35.583Z</time>
      </trkpt>
      <trkpt lat="44.14125" lon="5.12941">
        <ele>459</ele>
        <time>2020-07-11T05:55:36.583Z</time>
      </trkpt>
      <trkpt lat="44.14121" lon="5.12941">
        <ele>459</ele>
        <time>2020-07-11T05:55:37.582Z</time>
      </trkpt>
      <trkpt lat="44.14116" lon="5.12943">
        <ele>460</ele>
        <time>2020-07-11T05:55:38.583Z</time>
      </trkpt>
      <trkpt lat="44.14112" lon="5.12947">
        <ele>460</ele>
        <time>2020-07-11T05:55:39.583Z</time>
      </trkpt>
      <trkpt lat="44.14108" lon="5.12951">
        <ele>460</ele>
        <time>2020-07-11T05:55:40.582Z</time>
      </trkpt>
      <trkpt lat="44.14104" lon="5.12957">
        <ele>461</ele>
        <time>2020-07-11T05:55:41.583Z</time>
      </trkpt>
      <trkpt lat="44.14101" lon="5.12966">
        <ele>461</ele>
        <time>2020-07-11T05:55:42.582Z</time>
      </trkpt>
      <trkpt lat="44.14099" lon="5.12975">
        <ele>461</ele>
        <time>2020-07-11T05:55:43.582Z</time>
      </trkpt>
      <trkpt lat="44.14098" lon="5.12984">
        <ele>462</ele>
        <time>2020-07-11T05:55:44.583Z</time>
      </trkpt>
      <trkpt lat="44.14099" lon="5.12993">
        <ele>462</ele>
        <time>2020-07-11T05:55:45.583Z</time>
      </trkpt>
      <trkpt lat="44.141" lon="5.13002">
        <ele>462</ele>
        <time>2020-07-11T05:55:46.582Z</time>
      </trkpt>
      <trkpt lat="44.14102" lon="5.13012">
        <ele>462</ele>
        <time>2020-07-11T05:55:47.583Z</time>
      </trkpt>
      <trkpt lat="44.14104" lon="5.13021">
        <ele>462</ele>
        <time>2020-07-11T05:55:48.582Z</time>
      </trkpt>
      <trkpt lat="44.14106" lon="5.13031">
        <ele>461</ele>
        <time>2020-07-11T05:55:49.583Z</time>
      </trkpt>
      <trkpt lat="44.14107" lon="5.13041">
        <ele>461</ele>
        <time>2020-07-11T05:55:50.583Z</time>
      </trkpt>
      <trkpt lat="44.14107" lon="5.1305">
        <ele>461</ele>
        <time>2020-07-11T05:55:51.582Z</time>
      </trkpt>
      <trkpt lat="44.14107" lon="5.1306">
        <ele>461</ele>
        <time>2020-07-11T05:55:52.583Z</time>
      </trkpt>
      <trkpt lat="44.14107" lon="5.1307">
        <ele>460</ele>
        <time>2020-07-11T05:55:53.583Z</time>
      </trkpt>
      <trkpt lat="44.14106" lon="5.1308">
        <ele>460</ele>
        <time>2020-07-11T05:55:54.582Z</time>
      </trkpt>
      <trkpt lat="44.14106" lon="5.1309">
        <ele>460</ele>
        <time>2020-07-11T05:55:55.583Z</time>
      </trkpt>
      <trkpt lat="44.14105" lon="5.13101">
        <ele>460</ele>
        <time>2020-07-11T05:55:56.583Z</time>
      </trkpt>
      <trkpt lat="44.14104" lon="5.13111">
        <ele>460</ele>
        <time>2020-07-11T05:55:57.583Z</time>
      </trkpt>
      <trkpt lat="44.14103" lon="5.13122">
        <ele>459</ele>
        <time>2020-07-11T05:55:58.583Z</time>
      </trkpt>
      <trkpt lat="44.14102" lon="5.13133">
        <ele>459</ele>
        <time>2020-07-11T05:55:59.582Z</time>
      </trkpt>
      <trkpt lat="44.141" lon="5.13145">
        <ele>459</ele>
        <time>2020-07-11T05:56:00.582Z</time>
      </trkpt>
      <trkpt lat="44.14098" lon="5.13156">
        <ele>458</ele>
        <time>2020-07-11T05:56:01.583Z</time>
      </trkpt>
      <trkpt lat="44.14096" lon="5.13168">
        <ele>458</ele>
        <time>2020-07-11T05:56:02.583Z</time>
      </trkpt>
      <trkpt lat="44.14093" lon="5.13179">
        <ele>458</ele>
        <time>2020-07-11T05:56:03.583Z</time>
      </trkpt>
      <trkpt lat="44.1409" lon="5.13191">
        <ele>458</ele>
        <time>2020-07-11T05:56:04.583Z</time>
      </trkpt>
      <trkpt lat="44.14087" lon="5.13201">
        <ele>457</ele>
        <time>2020-07-11T05:56:05.583Z</time>
      </trkpt>
      <trkpt lat="44.14083" lon="5.13212">
        <ele>457</ele>
        <time>2020-07-11T05:56:06.583Z</time>
      </trkpt>
      <trkpt lat="44.14078" lon="5.13221">
        <ele>457</ele>
        <time>2020-07-11T05:56:07.583Z</time>
      </trkpt>
      <trkpt lat="44.14072" lon="5.1323">
        <ele>456</ele>
        <time>2020-07-11T05:56:08.583Z</time>
      </trkpt>
      <trkpt lat="44.14067" lon="5.13239">
        <ele>456</ele>
        <time>2020-07-11T05:56:09.583Z</time>
      </trkpt>
      <trkpt lat="44.14062" lon="5.13248">
        <ele>456</ele>
        <time>2020-07-11T05:56:10.583Z</time>
      </trkpt>
      <trkpt lat="44.14058" lon="5.13258">
        <ele>456</ele>
        <time>2020-07-11T05:56:11.583Z</time>
      </trkpt>
      <trkpt lat="44.14056" lon="5.13268">
        <ele>456</ele>
        <time>2020-07-11T05:56:12.582Z</time>
      </trkpt>
      <trkpt lat="44.14057" lon="5.13278">
        <ele>456</ele>
        <time>2020-07-11T05:56:13.583Z</time>
      </trkpt>
      <trkpt lat="44.14059" lon="5.13288">
        <ele>455</ele>
        <time>2020-07-11T05:56:14.582Z</time>
      </trkpt>
      <trkpt lat="44.14063" lon="5.13298">
        <ele>455</ele>
        <time>2020-07-11T05:56:15.582Z</time>
      </trkpt>
      <trkpt lat="44.1407" lon="5.13307">
        <ele>455</ele>
        <time>2020-07-11T05:56:16.583Z</time>
      </trkpt>
      <trkpt lat="44.14076" lon="5.13316">
        <ele>455</ele>
        <time>2020-07-11T05:56:17.583Z</time>
      </trkpt>
      <trkpt lat="44.14082" lon="5.13326">
        <ele>454</ele>
        <time>2020-07-11T05:56:18.582Z</time>
      </trkpt>
      <trkpt lat="44.14087" lon="5.13336">
        <ele>454</ele>
        <time>2020-07-11T05:56:19.582Z</time>
      </trkpt>
      <trkpt lat="44.14092" lon="5.13347">
        <ele>453</ele>
        <time>2020-07-11T05:56:20.583Z</time>
      </trkpt>
      <trkpt lat="44.14095" lon="5.13359">
        <ele>453</ele>
        <time>2020-07-11T05:56:21.583Z</time>
      </trkpt>
      <trkpt lat="44.14097" lon="5.13371">
        <ele>452</ele>
        <time>2020-07-11T05:56:22.583Z</time>
      </trkpt>
      <trkpt lat="44.14096" lon="5.13384">
        <ele>452</ele>
        <time>2020-07-11T05:56:23.582Z</time>
      </trkpt>
      <trkpt lat="44.14094" lon="5.13396">
        <ele>451</ele>
        <time>2020-07-11T05:56:24.582Z</time>
      </trkpt>
      <trkpt lat="44.1409" lon="5.13408">
        <ele>450</ele>
        <time>2020-07-11T05:56:25.582Z</time>
      </trkpt>
      <trkpt lat="44.14086" lon="5.1342">
        <ele>450</ele>
        <time>2020-07-11T05:56:26.583Z</time>
      </trkpt>
      <trkpt lat="44.14082" lon="5.13432">
        <ele>450</ele>
        <time>2020-07-11T05:56:27.582Z</time>
      </trkpt>
      <trkpt lat="44.14078" lon="5.13445">
        <ele>450</ele>
        <time>2020-07-11T05:56:28.582Z</time>
      </trkpt>
      <trkpt lat="44.14076" lon="5.13459">
        <ele>449</ele>
        <time>2020-07-11T05:56:29.583Z</time>
      </trkpt>
      <trkpt lat="44.14075" lon="5.13473">
        <ele>449</ele>
        <time>2020-07-11T05:56:30.583Z</time>
      </trkpt>
      <trkpt lat="44.14076" lon="5.13486">
        <ele>449</ele>
        <time>2020-07-11T05:56:31.582Z</time>
      </trkpt>
      <trkpt lat="44.14079" lon="5.13499">
        <ele>448</ele>
        <time>2020-07-11T05:56:32.583Z</time>
      </trkpt>
      <trkpt lat="44.14083" lon="5.13511">
        <ele>447</ele>
        <time>2020-07-11T05:56:33.583Z</time>
      </trkpt>
      <trkpt lat="44.14089" lon="5.13525">
        <ele>447</ele>
        <time>2020-07-11T05:56:34.583Z</time>
      </trkpt>
      <trkpt lat="44.14094" lon="5.13534">
        <ele>446</ele>
        <time>2020-07-11T05:56:35.582Z</time>
      </trkpt>
      <trkpt lat="44.141" lon="5.13543">
        <ele>446</ele>
        <time>2020-07-11T05:56:36.583Z</time>
      </trkpt>
      <trkpt lat="44.14108" lon="5.13553">
        <ele>446</ele>
        <time>2020-07-11T05:56:37.583Z</time>
      </trkpt>
      <trkpt lat="44.14117" lon="5.13564">
        <ele>445</ele>
        <time>2020-07-11T05:56:38.583Z</time>
      </trkpt>
      <trkpt lat="44.14125" lon="5.13573">
        <ele>444</ele>
        <time>2020-07-11T05:56:39.582Z</time>
      </trkpt>
      <trkpt lat="44.14131" lon="5.1358">
        <ele>444</ele>
        <time>2020-07-11T05:56:40.582Z</time>
      </trkpt>
      <trkpt lat="44.14141" lon="5.1359">
        <ele>443</ele>
        <time>2020-07-11T05:56:41.582Z</time>
      </trkpt>
      <trkpt lat="44.14149" lon="5.13597">
        <ele>443</ele>
        <time>2020-07-11T05:56:42.583Z</time>
      </trkpt>
      <trkpt lat="44.14156" lon="5.13603">
        <ele>442</ele>
        <time>2020-07-11T05:56:43.583Z</time>
      </trkpt>
      <trkpt lat="44.14165" lon="5.13609">
        <ele>442</ele>
        <time>2020-07-11T05:56:44.582Z</time>
      </trkpt>
      <trkpt lat="44.14174" lon="5.13613">
        <ele>441</ele>
        <time>2020-07-11T05:56:45.583Z</time>
      </trkpt>
      <trkpt lat="44.14185" lon="5.13617">
        <ele>442</ele>
        <time>2020-07-11T05:56:46.582Z</time>
      </trkpt>
      <trkpt lat="44.14192" lon="5.13618">
        <ele>442</ele>
        <time>2020-07-11T05:56:47.583Z</time>
      </trkpt>
      <trkpt lat="44.14201" lon="5.1362">
        <ele>441</ele>
        <time>2020-07-11T05:56:48.583Z</time>
      </trkpt>
      <trkpt lat="44.14209" lon="5.13624">
        <ele>441</ele>
        <time>2020-07-11T05:56:49.583Z</time>
      </trkpt>
      <trkpt lat="44.14216" lon="5.1363">
        <ele>441</ele>
        <time>2020-07-11T05:56:50.583Z</time>
      </trkpt>
      <trkpt lat="44.1422" lon="5.13641">
        <ele>441</ele>
        <time>2020-07-11T05:56:51.583Z</time>
      </trkpt>
      <trkpt lat="44.14219" lon="5.13652">
        <ele>441</ele>
        <time>2020-07-11T05:56:52.583Z</time>
      </trkpt>
      <trkpt lat="44.14216" lon="5.1366">
        <ele>440</ele>
        <time>2020-07-11T05:56:53.583Z</time>
      </trkpt>
      <trkpt lat="44.14211" lon="5.1367">
        <ele>440</ele>
        <time>2020-07-11T05:56:54.583Z</time>
      </trkpt>
      <trkpt lat="44.14206" lon="5.1368">
        <ele>441</ele>
        <time>2020-07-11T05:56:55.583Z</time>
      </trkpt>
      <trkpt lat="44.142" lon="5.1369">
        <ele>441</ele>
        <time>2020-07-11T05:56:56.583Z</time>
      </trkpt>
      <trkpt lat="44.14194" lon="5.13701">
        <ele>441</ele>
        <time>2020-07-11T05:56:57.583Z</time>
      </trkpt>
      <trkpt lat="44.14189" lon="5.13709">
        <ele>441</ele>
        <time>2020-07-11T05:56:58.582Z</time>
      </trkpt>
      <trkpt lat="44.14184" lon="5.13718">
        <ele>442</ele>
        <time>2020-07-11T05:56:59.583Z</time>
      </trkpt>
      <trkpt lat="44.14179" lon="5.13727">
        <ele>442</ele>
        <time>2020-07-11T05:57:00.582Z</time>
      </trkpt>
      <trkpt lat="44.14174" lon="5.13736">
        <ele>442</ele>
        <time>2020-07-11T05:57:01.582Z</time>
      </trkpt>
      <trkpt lat="44.14169" lon="5.13744">
        <ele>442</ele>
        <time>2020-07-11T05:57:02.583Z</time>
      </trkpt>
      <trkpt lat="44.14164" lon="5.13753">
        <ele>442</ele>
        <time>2020-07-11T05:57:03.582Z</time>
      </trkpt>
      <trkpt lat="44.1416" lon="5.13762">
        <ele>442</ele>
        <time>2020-07-11T05:57:04.582Z</time>
      </trkpt>
      <trkpt lat="44.14156" lon="5.1377">
        <ele>441</ele>
        <time>2020-07-11T05:57:05.583Z</time>
      </trkpt>
      <trkpt lat="44.14151" lon="5.13778">
        <ele>441</ele>
        <time>2020-07-11T05:57:06.583Z</time>
      </trkpt>
      <trkpt lat="44.14148" lon="5.13787">
        <ele>441</ele>
        <time>2020-07-11T05:57:07.583Z</time>
      </trkpt>
      <trkpt lat="44.14145" lon="5.13796">
        <ele>440</ele>
        <time>2020-07-11T05:57:08.583Z</time>
      </trkpt>
      <trkpt lat="44.14143" lon="5.13805">
        <ele>440</ele>
        <time>2020-07-11T05:57:09.583Z</time>
      </trkpt>
      <trkpt lat="44.14141" lon="5.13815">
        <ele>440</ele>
        <time>2020-07-11T05:57:10.582Z</time>
      </trkpt>
      <trkpt lat="44.14141" lon="5.13824">
        <ele>440</ele>
        <time>2020-07-11T05:57:11.582Z</time>
      </trkpt>
      <trkpt lat="44.14141" lon="5.13834">
        <ele>440</ele>
        <time>2020-07-11T05:57:12.582Z</time>
      </trkpt>
      <trkpt lat="44.14144" lon="5.13844">
        <ele>439</ele>
        <time>2020-07-11T05:57:13.582Z</time>
      </trkpt>
      <trkpt lat="44.14147" lon="5.13852">
        <ele>438</ele>
        <time>2020-07-11T05:57:14.582Z</time>
      </trkpt>
      <trkpt lat="44.14152" lon="5.1386">
        <ele>438</ele>
        <time>2020-07-11T05:57:15.583Z</time>
      </trkpt>
      <trkpt lat="44.14158" lon="5.13864">
        <ele>438</ele>
        <time>2020-07-11T05:57:16.582Z</time>
      </trkpt>
      <trkpt lat="44.14166" lon="5.13866">
        <ele>437</ele>
        <time>2020-07-11T05:57:17.583Z</time>
      </trkpt>
      <trkpt lat="44.14174" lon="5.13866">
        <ele>437</ele>
        <time>2020-07-11T05:57:18.583Z</time>
      </trkpt>
      <trkpt lat="44.14183" lon="5.13863">
        <ele>437</ele>
        <time>2020-07-11T05:57:19.583Z</time>
      </trkpt>
      <trkpt lat="44.14193" lon="5.13857">
        <ele>436</ele>
        <time>2020-07-11T05:57:20.582Z</time>
      </trkpt>
      <trkpt lat="44.14203" lon="5.13853">
        <ele>436</ele>
        <time>2020-07-11T05:57:21.582Z</time>
      </trkpt>
      <trkpt lat="44.14213" lon="5.1385">
        <ele>437</ele>
        <time>2020-07-11T05:57:22.583Z</time>
      </trkpt>
      <trkpt lat="44.14223" lon="5.13851">
        <ele>437</ele>
        <time>2020-07-11T05:57:23.583Z</time>
      </trkpt>
      <trkpt lat="44.14232" lon="5.13855">
        <ele>437</ele>
        <time>2020-07-11T05:57:24.583Z</time>
      </trkpt>
      <trkpt lat="44.1424" lon="5.13862">
        <ele>436</ele>
        <time>2020-07-11T05:57:25.583Z</time>
      </trkpt>
      <trkpt lat="44.14246" lon="5.13872">
        <ele>436</ele>
        <time>2020-07-11T05:57:26.583Z</time>
      </trkpt>
      <trkpt lat="44.1425" lon="5.13884">
        <ele>435</ele>
        <time>2020-07-11T05:57:27.583Z</time>
      </trkpt>
      <trkpt lat="44.14255" lon="5.13897">
        <ele>435</ele>
        <time>2020-07-11T05:57:28.583Z</time>
      </trkpt>
      <trkpt lat="44.14259" lon="5.13909">
        <ele>434</ele>
        <time>2020-07-11T05:57:29.583Z</time>
      </trkpt>
      <trkpt lat="44.14265" lon="5.1392">
        <ele>434</ele>
        <time>2020-07-11T05:57:30.582Z</time>
      </trkpt>
      <trkpt lat="44.14273" lon="5.13929">
        <ele>434</ele>
        <time>2020-07-11T05:57:31.583Z</time>
      </trkpt>
      <trkpt lat="44.1428" lon="5.13936">
        <ele>433</ele>
        <time>2020-07-11T05:57:32.583Z</time>
      </trkpt>
      <trkpt lat="44.14287" lon="5.13943">
        <ele>433</ele>
        <time>2020-07-11T05:57:33.582Z</time>
      </trkpt>
      <trkpt lat="44.14292" lon="5.13952">
        <ele>432</ele>
        <time>2020-07-11T05:57:34.583Z</time>
      </trkpt>
      <trkpt lat="44.14293" lon="5.13961">
        <ele>431</ele>
        <time>2020-07-11T05:57:35.582Z</time>
      </trkpt>
      <trkpt lat="44.14291" lon="5.1397">
        <ele>431</ele>
        <time>2020-07-11T05:57:36.583Z</time>
      </trkpt>
      <trkpt lat="44.14286" lon="5.13979">
        <ele>431</ele>
        <time>2020-07-11T05:57:37.583Z</time>
      </trkpt>
      <trkpt lat="44.1428" lon="5.13988">
        <ele>431</ele>
        <time>2020-07-11T05:57:38.583Z</time>
      </trkpt>
      <trkpt lat="44.14275" lon="5.13998">
        <ele>430</ele>
        <time>2020-07-11T05:57:39.582Z</time>
      </trkpt>
      <trkpt lat="44.14269" lon="5.14008">
        <ele>430</ele>
        <time>2020-07-11T05:57:40.583Z</time>
      </trkpt>
      <trkpt lat="44.14263" lon="5.14022">
        <ele>429</ele>
        <time>2020-07-11T05:57:41.582Z</time>
      </trkpt>
      <trkpt lat="44.14259" lon="5.14035">
        <ele>429</ele>
        <time>2020-07-11T05:57:42.582Z</time>
      </trkpt>
      <trkpt lat="44.14256" lon="5.14046">
        <ele>428</ele>
        <time>2020-07-11T05:57:43.583Z</time>
      </trkpt>
      <trkpt lat="44.14254" lon="5.14061">
        <ele>428</ele>
        <time>2020-07-11T05:57:44.583Z</time>
      </trkpt>
      <trkpt lat="44.14255" lon="5.14071">
        <ele>428</ele>
        <time>2020-07-11T05:57:45.583Z</time>
      </trkpt>
      <trkpt lat="44.14257" lon="5.14084">
        <ele>428</ele>
        <time>2020-07-11T05:57:46.583Z</time>
      </trkpt>
      <trkpt lat="44.14263" lon="5.14097">
        <ele>427</ele>
        <time>2020-07-11T05:57:47.583Z</time>
      </trkpt>
      <trkpt lat="44.14269" lon="5.14104">
        <ele>427</ele>
        <time>2020-07-11T05:57:48.583Z</time>
      </trkpt>
      <trkpt lat="44.14276" lon="5.14113">
        <ele>426</ele>
        <time>2020-07-11T05:57:49.583Z</time>
      </trkpt>
      <trkpt lat="44.14282" lon="5.14121">
        <ele>425</ele>
        <time>2020-07-11T05:57:50.582Z</time>
      </trkpt>
      <trkpt lat="44.14286" lon="5.14131">
        <ele>425</ele>
        <time>2020-07-11T05:57:51.582Z</time>
      </trkpt>
      <trkpt lat="44.14287" lon="5.14141">
        <ele>425</ele>
        <time>2020-07-11T05:57:52.583Z</time>
      </trkpt>
      <trkpt lat="44.14283" lon="5.14148">
        <ele>424</ele>
        <time>2020-07-11T05:57:53.582Z</time>
      </trkpt>
      <trkpt lat="44.14277" lon="5.14153">
        <ele>424</ele>
        <time>2020-07-11T05:57:54.583Z</time>
      </trkpt>
      <trkpt lat="44.14271" lon="5.14154">
        <ele>424</ele>
        <time>2020-07-11T05:57:55.582Z</time>
      </trkpt>
      <trkpt lat="44.14264" lon="5.14154">
        <ele>424</ele>
        <time>2020-07-11T05:57:56.582Z</time>
      </trkpt>
      <trkpt lat="44.14257" lon="5.14154">
        <ele>424</ele>
        <time>2020-07-11T05:57:57.583Z</time>
      </trkpt>
      <trkpt lat="44.14249" lon="5.14153">
        <ele>424</ele>
        <time>2020-07-11T05:57:58.582Z</time>
      </trkpt>
      <trkpt lat="44.14242" lon="5.14153">
        <ele>424</ele>
        <time>2020-07-11T05:57:59.582Z</time>
      </trkpt>
      <trkpt lat="44.14236" lon="5.14156">
        <ele>424</ele>
        <time>2020-07-11T05:58:00.583Z</time>
      </trkpt>
      <trkpt lat="44.1423" lon="5.1416">
        <ele>424</ele>
        <time>2020-07-11T05:58:01.583Z</time>
      </trkpt>
      <trkpt lat="44.14226" lon="5.14167">
        <ele>424</ele>
        <time>2020-07-11T05:58:02.583Z</time>
      </trkpt>
      <trkpt lat="44.14223" lon="5.14174">
        <ele>424</ele>
        <time>2020-07-11T05:58:03.583Z</time>
      </trkpt>
      <trkpt lat="44.14219" lon="5.14183">
        <ele>424</ele>
        <time>2020-07-11T05:58:04.582Z</time>
      </trkpt>
      <trkpt lat="44.14216" lon="5.14191">
        <ele>423</ele>
        <time>2020-07-11T05:58:05.583Z</time>
      </trkpt>
      <trkpt lat="44.14211" lon="5.14199">
        <ele>423</ele>
        <time>2020-07-11T05:58:06.583Z</time>
      </trkpt>
      <trkpt lat="44.14205" lon="5.14204">
        <ele>423</ele>
        <time>2020-07-11T05:58:07.582Z</time>
      </trkpt>
      <trkpt lat="44.14199" lon="5.14206">
        <ele>423</ele>
        <time>2020-07-11T05:58:08.582Z</time>
      </trkpt>
      <trkpt lat="44.14194" lon="5.14207">
        <ele>423</ele>
        <time>2020-07-11T05:58:09.582Z</time>
      </trkpt>
      <trkpt lat="44.14187" lon="5.14207">
        <ele>423</ele>
        <time>2020-07-11T05:58:10.583Z</time>
      </trkpt>
      <trkpt lat="44.14181" lon="5.14206">
        <ele>423</ele>
        <time>2020-07-11T05:58:11.583Z</time>
      </trkpt>
      <trkpt lat="44.14174" lon="5.14205">
        <ele>423</ele>
        <time>2020-07-11T05:58:12.583Z</time>
      </trkpt>
      <trkpt lat="44.14167" lon="5.14204">
        <ele>424</ele>
        <time>2020-07-11T05:58:13.582Z</time>
      </trkpt>
      <trkpt lat="44.1416" lon="5.14203">
        <ele>425</ele>
        <time>2020-07-11T05:58:14.582Z</time>
      </trkpt>
      <trkpt lat="44.14156" lon="5.14202">
        <ele>426</ele>
        <time>2020-07-11T05:58:15.582Z</time>
      </trkpt>
      <trkpt lat="44.14148" lon="5.14201">
        <ele>426</ele>
        <time>2020-07-11T05:58:16.582Z</time>
      </trkpt>
      <trkpt lat="44.14142" lon="5.14201">
        <ele>425</ele>
        <time>2020-07-11T05:58:17.582Z</time>
      </trkpt>
      <trkpt lat="44.14136" lon="5.14202">
        <ele>425</ele>
        <time>2020-07-11T05:58:18.583Z</time>
      </trkpt>
      <trkpt lat="44.1413" lon="5.14203">
        <ele>425</ele>
        <time>2020-07-11T05:58:19.583Z</time>
      </trkpt>
      <trkpt lat="44.14126" lon="5.14206">
        <ele>425</ele>
        <time>2020-07-11T05:58:20.583Z</time>
      </trkpt>
      <trkpt lat="44.14119" lon="5.14209">
        <ele>426</ele>
        <time>2020-07-11T05:58:21.583Z</time>
      </trkpt>
      <trkpt lat="44.14113" lon="5.14213">
        <ele>426</ele>
        <time>2020-07-11T05:58:22.583Z</time>
      </trkpt>
      <trkpt lat="44.14108" lon="5.14216">
        <ele>427</ele>
        <time>2020-07-11T05:58:23.583Z</time>
      </trkpt>
      <trkpt lat="44.14102" lon="5.1422">
        <ele>427</ele>
        <time>2020-07-11T05:58:24.582Z</time>
      </trkpt>
      <trkpt lat="44.14097" lon="5.14222">
        <ele>427</ele>
        <time>2020-07-11T05:58:25.582Z</time>
      </trkpt>
      <trkpt lat="44.1409" lon="5.14223">
        <ele>427</ele>
        <time>2020-07-11T05:58:26.583Z</time>
      </trkpt>
      <trkpt lat="44.14084" lon="5.14223">
        <ele>427</ele>
        <time>2020-07-11T05:58:27.582Z</time>
      </trkpt>
      <trkpt lat="44.14078" lon="5.1422">
        <ele>427</ele>
        <time>2020-07-11T05:58:28.582Z</time>
      </trkpt>
      <trkpt lat="44.14074" lon="5.14217">
        <ele>427</ele>
        <time>2020-07-11T05:58:29.583Z</time>
      </trkpt>
      <trkpt lat="44.14068" lon="5.1421">
        <ele>427</ele>
        <time>2020-07-11T05:58:30.583Z</time>
      </trkpt>
      <trkpt lat="44.14064" lon="5.14206">
        <ele>427</ele>
        <time>2020-07-11T05:58:31.582Z</time>
      </trkpt>
      <trkpt lat="44.14058" lon="5.14199">
        <ele>428</ele>
        <time>2020-07-11T05:58:32.583Z</time>
      </trkpt>
      <trkpt lat="44.14053" lon="5.14194">
        <ele>428</ele>
        <time>2020-07-11T05:58:33.582Z</time>
      </trkpt>
      <trkpt lat="44.14048" lon="5.1419">
        <ele>428</ele>
        <time>2020-07-11T05:58:34.582Z</time>
      </trkpt>
      <trkpt lat="44.14042" lon="5.14187">
        <ele>428</ele>
        <time>2020-07-11T05:58:35.582Z</time>
      </trkpt>
      <trkpt lat="44.14037" lon="5.14185">
        <ele>428</ele>
        <time>2020-07-11T05:58:36.583Z</time>
      </trkpt>
      <trkpt lat="44.14031" lon="5.14183">
        <ele>428</ele>
        <time>2020-07-11T05:58:37.583Z</time>
      </trkpt>
      <trkpt lat="44.14026" lon="5.14182">
        <ele>428</ele>
        <time>2020-07-11T05:58:38.582Z</time>
      </trkpt>
      <trkpt lat="44.14019" lon="5.14181">
        <ele>427</ele>
        <time>2020-07-11T05:58:39.583Z</time>
      </trkpt>
      <trkpt lat="44.14013" lon="5.1418">
        <ele>427</ele>
        <time>2020-07-11T05:58:40.583Z</time>
      </trkpt>
      <trkpt lat="44.14008" lon="5.14179">
        <ele>427</ele>
        <time>2020-07-11T05:58:41.583Z</time>
      </trkpt>
      <trkpt lat="44.14002" lon="5.14177">
        <ele>426</ele>
        <time>2020-07-11T05:58:42.582Z</time>
      </trkpt>
      <trkpt lat="44.13996" lon="5.14176">
        <ele>426</ele>
        <time>2020-07-11T05:58:43.582Z</time>
      </trkpt>
      <trkpt lat="44.1399" lon="5.14174">
        <ele>426</ele>
        <time>2020-07-11T05:58:44.582Z</time>
      </trkpt>
      <trkpt lat="44.13985" lon="5.14171">
        <ele>426</ele>
        <time>2020-07-11T05:58:45.583Z</time>
      </trkpt>
      <trkpt lat="44.13978" lon="5.14165">
        <ele>426</ele>
        <time>2020-07-11T05:58:46.583Z</time>
      </trkpt>
      <trkpt lat="44.13975" lon="5.14161">
        <ele>426</ele>
        <time>2020-07-11T05:58:47.583Z</time>
      </trkpt>
      <trkpt lat="44.1397" lon="5.14155">
        <ele>426</ele>
        <time>2020-07-11T05:58:48.582Z</time>
      </trkpt>
      <trkpt lat="44.13966" lon="5.14149">
        <ele>426</ele>
        <time>2020-07-11T05:58:49.582Z</time>
      </trkpt>
      <trkpt lat="44.13961" lon="5.14143">
        <ele>427</ele>
        <time>2020-07-11T05:58:50.582Z</time>
      </trkpt>
      <trkpt lat="44.13955" lon="5.14138">
        <ele>426</ele>
        <time>2020-07-11T05:58:51.582Z</time>
      </trkpt>
      <trkpt lat="44.13951" lon="5.14134">
        <ele>426</ele>
        <time>2020-07-11T05:58:52.583Z</time>
      </trkpt>
      <trkpt lat="44.13946" lon="5.14131">
        <ele>426</ele>
        <time>2020-07-11T05:58:53.583Z</time>
      </trkpt>
      <trkpt lat="44.1394" lon="5.14129">
        <ele>427</ele>
        <time>2020-07-11T05:58:54.582Z</time>
      </trkpt>
      <trkpt lat="44.13934" lon="5.14127">
        <ele>427</ele>
        <time>2020-07-11T05:58:55.582Z</time>
      </trkpt>
      <trkpt lat="44.13927" lon="5.14124">
        <ele>427</ele>
        <time>2020-07-11T05:58:56.582Z</time>
      </trkpt>
      <trkpt lat="44.13921" lon="5.14122">
        <ele>427</ele>
        <time>2020-07-11T05:58:57.582Z</time>
      </trkpt>
      <trkpt lat="44.13916" lon="5.14121">
        <ele>427</ele>
        <time>2020-07-11T05:58:58.583Z</time>
      </trkpt>
      <trkpt lat="44.1391" lon="5.14119">
        <ele>428</ele>
        <time>2020-07-11T05:58:59.583Z</time>
      </trkpt>
      <trkpt lat="44.13903" lon="5.14117">
        <ele>428</ele>
        <time>2020-07-11T05:59:00.583Z</time>
      </trkpt>
      <trkpt lat="44.13896" lon="5.14115">
        <ele>428</ele>
        <time>2020-07-11T05:59:01.582Z</time>
      </trkpt>
      <trkpt lat="44.13891" lon="5.14114">
        <ele>428</ele>
        <time>2020-07-11T05:59:02.583Z</time>
      </trkpt>
      <trkpt lat="44.13885" lon="5.14113">
        <ele>428</ele>
        <time>2020-07-11T05:59:03.583Z</time>
      </trkpt>
      <trkpt lat="44.13879" lon="5.14112">
        <ele>428</ele>
        <time>2020-07-11T05:59:04.582Z</time>
      </trkpt>
      <trkpt lat="44.13873" lon="5.14112">
        <ele>428</ele>
        <time>2020-07-11T05:59:05.583Z</time>
      </trkpt>
      <trkpt lat="44.13866" lon="5.14114">
        <ele>429</ele>
        <time>2020-07-11T05:59:06.583Z</time>
      </trkpt>
      <trkpt lat="44.13862" lon="5.14115">
        <ele>429</ele>
        <time>2020-07-11T05:59:07.582Z</time>
      </trkpt>
      <trkpt lat="44.13856" lon="5.14118">
        <ele>430</ele>
        <time>2020-07-11T05:59:08.582Z</time>
      </trkpt>
      <trkpt lat="44.13851" lon="5.14121">
        <ele>430</ele>
        <time>2020-07-11T05:59:09.583Z</time>
      </trkpt>
      <trkpt lat="44.13846" lon="5.14125">
        <ele>431</ele>
        <time>2020-07-11T05:59:10.583Z</time>
      </trkpt>
      <trkpt lat="44.13841" lon="5.1413">
        <ele>431</ele>
        <time>2020-07-11T05:59:11.582Z</time>
      </trkpt>
      <trkpt lat="44.13836" lon="5.14135">
        <ele>431</ele>
        <time>2020-07-11T05:59:12.582Z</time>
      </trkpt>
      <trkpt lat="44.13832" lon="5.14141">
        <ele>432</ele>
        <time>2020-07-11T05:59:13.583Z</time>
      </trkpt>
      <trkpt lat="44.13828" lon="5.14147">
        <ele>432</ele>
        <time>2020-07-11T05:59:14.583Z</time>
      </trkpt>
      <trkpt lat="44.13825" lon="5.14154">
        <ele>433</ele>
        <time>2020-07-11T05:59:15.583Z</time>
      </trkpt>
      <trkpt lat="44.13822" lon="5.14162">
        <ele>433</ele>
        <time>2020-07-11T05:59:16.583Z</time>
      </trkpt>
      <trkpt lat="44.13819" lon="5.1417">
        <ele>433</ele>
        <time>2020-07-11T05:59:17.582Z</time>
      </trkpt>
      <trkpt lat="44.13817" lon="5.14179">
        <ele>433</ele>
        <time>2020-07-11T05:59:18.583Z</time>
      </trkpt>
      <trkpt lat="44.13814" lon="5.14188">
        <ele>433</ele>
        <time>2020-07-11T05:59:19.582Z</time>
      </trkpt>
      <trkpt lat="44.13812" lon="5.14197">
        <ele>434</ele>
        <time>2020-07-11T05:59:20.583Z</time>
      </trkpt>
      <trkpt lat="44.1381" lon="5.14206">
        <ele>434</ele>
        <time>2020-07-11T05:59:21.582Z</time>
      </trkpt>
      <trkpt lat="44.13808" lon="5.14216">
        <ele>434</ele>
        <time>2020-07-11T05:59:22.583Z</time>
      </trkpt>
      <trkpt lat="44.13806" lon="5.14225">
        <ele>434</ele>
        <time>2020-07-11T05:59:23.583Z</time>
      </trkpt>
      <trkpt lat="44.13805" lon="5.14235">
        <ele>434</ele>
        <time>2020-07-11T05:59:24.582Z</time>
      </trkpt>
      <trkpt lat="44.13803" lon="5.14245">
        <ele>434</ele>
        <time>2020-07-11T05:59:25.583Z</time>
      </trkpt>
      <trkpt lat="44.13801" lon="5.14254">
        <ele>434</ele>
        <time>2020-07-11T05:59:26.583Z</time>
      </trkpt>
      <trkpt lat="44.13799" lon="5.14264">
        <ele>434</ele>
        <time>2020-07-11T05:59:27.583Z</time>
      </trkpt>
      <trkpt lat="44.13797" lon="5.14273">
        <ele>434</ele>
        <time>2020-07-11T05:59:28.583Z</time>
      </trkpt>
      <trkpt lat="44.13795" lon="5.14283">
        <ele>434</ele>
        <time>2020-07-11T05:59:29.583Z</time>
      </trkpt>
      <trkpt lat="44.13793" lon="5.14292">
        <ele>434</ele>
        <time>2020-07-11T05:59:30.583Z</time>
      </trkpt>
      <trkpt lat="44.13791" lon="5.14302">
        <ele>435</ele>
        <time>2020-07-11T05:59:31.582Z</time>
      </trkpt>
      <trkpt lat="44.13789" lon="5.14311">
        <ele>434</ele>
        <time>2020-07-11T05:59:32.583Z</time>
      </trkpt>
      <trkpt lat="44.13787" lon="5.14321">
        <ele>435</ele>
        <time>2020-07-11T05:59:33.582Z</time>
      </trkpt>
      <trkpt lat="44.13785" lon="5.14331">
        <ele>435</ele>
        <time>2020-07-11T05:59:34.582Z</time>
      </trkpt>
      <trkpt lat="44.13783" lon="5.1434">
        <ele>435</ele>
        <time>2020-07-11T05:59:35.583Z</time>
      </trkpt>
      <trkpt lat="44.13781" lon="5.1435">
        <ele>435</ele>
        <time>2020-07-11T05:59:36.583Z</time>
      </trkpt>
      <trkpt lat="44.13779" lon="5.14359">
        <ele>435</ele>
        <time>2020-07-11T05:59:37.583Z</time>
      </trkpt>
      <trkpt lat="44.13777" lon="5.14369">
        <ele>435</ele>
        <time>2020-07-11T05:59:38.582Z</time>
      </trkpt>
      <trkpt lat="44.13775" lon="5.14378">
        <ele>435</ele>
        <time>2020-07-11T05:59:39.582Z</time>
      </trkpt>
      <trkpt lat="44.13773" lon="5.14387">
        <ele>435</ele>
        <time>2020-07-11T05:59:40.582Z</time>
      </trkpt>
      <trkpt lat="44.1377" lon="5.14396">
        <ele>435</ele>
        <time>2020-07-11T05:59:41.582Z</time>
      </trkpt>
      <trkpt lat="44.13767" lon="5.14405">
        <ele>435</ele>
        <time>2020-07-11T05:59:42.582Z</time>
      </trkpt>
      <trkpt lat="44.13763" lon="5.14412">
        <ele>435</ele>
        <time>2020-07-11T05:59:43.582Z</time>
      </trkpt>
      <trkpt lat="44.13758" lon="5.14417">
        <ele>434</ele>
        <time>2020-07-11T05:59:44.583Z</time>
      </trkpt>
      <trkpt lat="44.13753" lon="5.14422">
        <ele>434</ele>
        <time>2020-07-11T05:59:45.583Z</time>
      </trkpt>
      <trkpt lat="44.13747" lon="5.14427">
        <ele>434</ele>
        <time>2020-07-11T05:59:46.582Z</time>
      </trkpt>
      <trkpt lat="44.13741" lon="5.1443">
        <ele>434</ele>
        <time>2020-07-11T05:59:47.582Z</time>
      </trkpt>
      <trkpt lat="44.13735" lon="5.14432">
        <ele>434</ele>
        <time>2020-07-11T05:59:48.583Z</time>
      </trkpt>
      <trkpt lat="44.13728" lon="5.14434">
        <ele>435</ele>
        <time>2020-07-11T05:59:49.583Z</time>
      </trkpt>
      <trkpt lat="44.13721" lon="5.14436">
        <ele>435</ele>
        <time>2020-07-11T05:59:50.583Z</time>
      </trkpt>
      <trkpt lat="44.13714" lon="5.14437">
        <ele>435</ele>
        <time>2020-07-11T05:59:51.583Z</time>
      </trkpt>
      <trkpt lat="44.13708" lon="5.14439">
        <ele>435</ele>
        <time>2020-07-11T05:59:52.583Z</time>
      </trkpt>
      <trkpt lat="44.13702" lon="5.1444">
        <ele>435</ele>
        <time>2020-07-11T05:59:53.583Z</time>
      </trkpt>
      <trkpt lat="44.13695" lon="5.14442">
        <ele>435</ele>
        <time>2020-07-11T05:59:54.583Z</time>
      </trkpt>
      <trkpt lat="44.13689" lon="5.14442">
        <ele>435</ele>
        <time>2020-07-11T05:59:55.582Z</time>
      </trkpt>
      <trkpt lat="44.13682" lon="5.14444">
        <ele>435</ele>
        <time>2020-07-11T05:59:56.582Z</time>
      </trkpt>
      <trkpt lat="44.13676" lon="5.14445">
        <ele>435</ele>
        <time>2020-07-11T05:59:57.582Z</time>
      </trkpt>
      <trkpt lat="44.13669" lon="5.14446">
        <ele>436</ele>
        <time>2020-07-11T05:59:58.582Z</time>
      </trkpt>
      <trkpt lat="44.13663" lon="5.14448">
        <ele>436</ele>
        <time>2020-07-11T05:59:59.582Z</time>
      </trkpt>
      <trkpt lat="44.13657" lon="5.1445">
        <ele>437</ele>
        <time>2020-07-11T06:00:00.583Z</time>
      </trkpt>
      <trkpt lat="44.1365" lon="5.14452">
        <ele>437</ele>
        <time>2020-07-11T06:00:01.582Z</time>
      </trkpt>
      <trkpt lat="44.13644" lon="5.14454">
        <ele>438</ele>
        <time>2020-07-11T06:00:02.583Z</time>
      </trkpt>
      <trkpt lat="44.13638" lon="5.14457">
        <ele>438</ele>
        <time>2020-07-11T06:00:03.582Z</time>
      </trkpt>
      <trkpt lat="44.13632" lon="5.1446">
        <ele>439</ele>
        <time>2020-07-11T06:00:04.582Z</time>
      </trkpt>
      <trkpt lat="44.13626" lon="5.14463">
        <ele>439</ele>
        <time>2020-07-11T06:00:05.583Z</time>
      </trkpt>
      <trkpt lat="44.13619" lon="5.14467">
        <ele>438</ele>
        <time>2020-07-11T06:00:06.582Z</time>
      </trkpt>
      <trkpt lat="44.13613" lon="5.14471">
        <ele>438</ele>
        <time>2020-07-11T06:00:07.583Z</time>
      </trkpt>
      <trkpt lat="44.13607" lon="5.14474">
        <ele>438</ele>
        <time>2020-07-11T06:00:08.583Z</time>
      </trkpt>
      <trkpt lat="44.13601" lon="5.14478">
        <ele>438</ele>
        <time>2020-07-11T06:00:09.583Z</time>
      </trkpt>
      <trkpt lat="44.13595" lon="5.14481">
        <ele>438</ele>
        <time>2020-07-11T06:00:10.583Z</time>
      </trkpt>
      <trkpt lat="44.13589" lon="5.14484">
        <ele>437</ele>
        <time>2020-07-11T06:00:11.582Z</time>
      </trkpt>
      <trkpt lat="44.13582" lon="5.14489">
        <ele>437</ele>
        <time>2020-07-11T06:00:12.583Z</time>
      </trkpt>
      <trkpt lat="44.13576" lon="5.14492">
        <ele>437</ele>
        <time>2020-07-11T06:00:13.583Z</time>
      </trkpt>
      <trkpt lat="44.13571" lon="5.14495">
        <ele>437</ele>
        <time>2020-07-11T06:00:14.582Z</time>
      </trkpt>
      <trkpt lat="44.13564" lon="5.14499">
        <ele>437</ele>
        <time>2020-07-11T06:00:15.582Z</time>
      </trkpt>
      <trkpt lat="44.13558" lon="5.14503">
        <ele>437</ele>
        <time>2020-07-11T06:00:16.583Z</time>
      </trkpt>
      <trkpt lat="44.1355" lon="5.14508">
        <ele>437</ele>
        <time>2020-07-11T06:00:17.583Z</time>
      </trkpt>
      <trkpt lat="44.13545" lon="5.14511">
        <ele>437</ele>
        <time>2020-07-11T06:00:18.583Z</time>
      </trkpt>
      <trkpt lat="44.13538" lon="5.14515">
        <ele>437</ele>
        <time>2020-07-11T06:00:19.583Z</time>
      </trkpt>
      <trkpt lat="44.1353" lon="5.14521">
        <ele>437</ele>
        <time>2020-07-11T06:00:20.582Z</time>
      </trkpt>
      <trkpt lat="44.13525" lon="5.14524">
        <ele>437</ele>
        <time>2020-07-11T06:00:21.582Z</time>
      </trkpt>
      <trkpt lat="44.13519" lon="5.14529">
        <ele>437</ele>
        <time>2020-07-11T06:00:22.583Z</time>
      </trkpt>
      <trkpt lat="44.13513" lon="5.14534">
        <ele>438</ele>
        <time>2020-07-11T06:00:23.582Z</time>
      </trkpt>
      <trkpt lat="44.13506" lon="5.14541">
        <ele>438</ele>
        <time>2020-07-11T06:00:24.583Z</time>
      </trkpt>
      <trkpt lat="44.13501" lon="5.14549">
        <ele>438</ele>
        <time>2020-07-11T06:00:25.582Z</time>
      </trkpt>
      <trkpt lat="44.13496" lon="5.14557">
        <ele>438</ele>
        <time>2020-07-11T06:00:26.582Z</time>
      </trkpt>
      <trkpt lat="44.13493" lon="5.14565">
        <ele>438</ele>
        <time>2020-07-11T06:00:27.582Z</time>
      </trkpt>
      <trkpt lat="44.1349" lon="5.14575">
        <ele>438</ele>
        <time>2020-07-11T06:00:28.583Z</time>
      </trkpt>
      <trkpt lat="44.13488" lon="5.14584">
        <ele>439</ele>
        <time>2020-07-11T06:00:29.583Z</time>
      </trkpt>
      <trkpt lat="44.13486" lon="5.14594">
        <ele>439</ele>
        <time>2020-07-11T06:00:30.583Z</time>
      </trkpt>
      <trkpt lat="44.13485" lon="5.14603">
        <ele>439</ele>
        <time>2020-07-11T06:00:31.583Z</time>
      </trkpt>
      <trkpt lat="44.13484" lon="5.14613">
        <ele>439</ele>
        <time>2020-07-11T06:00:32.583Z</time>
      </trkpt>
      <trkpt lat="44.13486" lon="5.14623">
        <ele>439</ele>
        <time>2020-07-11T06:00:33.582Z</time>
      </trkpt>
      <trkpt lat="44.13488" lon="5.14631">
        <ele>439</ele>
        <time>2020-07-11T06:00:34.582Z</time>
      </trkpt>
      <trkpt lat="44.13491" lon="5.14638">
        <ele>439</ele>
        <time>2020-07-11T06:00:35.583Z</time>
      </trkpt>
      <trkpt lat="44.13495" lon="5.14643">
        <ele>439</ele>
        <time>2020-07-11T06:00:36.583Z</time>
      </trkpt>
      <trkpt lat="44.13498" lon="5.14645">
        <ele>439</ele>
        <time>2020-07-11T06:00:37.582Z</time>
      </trkpt>
      <trkpt lat="44.13502" lon="5.14647">
        <ele>439</ele>
        <time>2020-07-11T06:00:38.582Z</time>
      </trkpt>
      <trkpt lat="44.13507" lon="5.14648">
        <ele>439</ele>
        <time>2020-07-11T06:00:39.582Z</time>
      </trkpt>
      <trkpt lat="44.13509" lon="5.14648">
        <ele>438</ele>
        <time>2020-07-11T06:00:40.583Z</time>
      </trkpt>
      <trkpt lat="44.13512" lon="5.14647">
        <ele>437</ele>
        <time>2020-07-11T06:00:41.582Z</time>
      </trkpt>
      <trkpt lat="44.13514" lon="5.14647">
        <ele>437</ele>
        <time>2020-07-11T06:00:42.583Z</time>
      </trkpt>
      <trkpt lat="44.13516" lon="5.14647">
        <ele>437</ele>
        <time>2020-07-11T06:00:43.583Z</time>
      </trkpt>
      <trkpt lat="44.13518" lon="5.14647">
        <ele>437</ele>
        <time>2020-07-11T06:00:44.583Z</time>
      </trkpt>
      <trkpt lat="44.13518" lon="5.14647">
        <ele>437</ele>
        <time>2020-07-11T06:00:45.583Z</time>
      </trkpt>
      <trkpt lat="44.13519" lon="5.14647">
        <ele>437</ele>
        <time>2020-07-11T06:00:46.583Z</time>
      </trkpt>
      <trkpt lat="44.13528" lon="5.14646">
        <ele>437</ele>
        <time>2020-07-11T06:00:47.583Z</time>
      </trkpt>
      <trkpt lat="44.13533" lon="5.14645">
        <ele>436</ele>
        <time>2020-07-11T06:00:48.584Z</time>
      </trkpt>
      <trkpt lat="44.13539" lon="5.14645">
        <ele>436</ele>
        <time>2020-07-11T06:00:49.583Z</time>
      </trkpt>
      <trkpt lat="44.13544" lon="5.14645">
        <ele>435</ele>
        <time>2020-07-11T06:00:50.583Z</time>
      </trkpt>
      <trkpt lat="44.13551" lon="5.14646">
        <ele>435</ele>
        <time>2020-07-11T06:00:51.583Z</time>
      </trkpt>
      <trkpt lat="44.13558" lon="5.14646">
        <ele>434</ele>
        <time>2020-07-11T06:00:52.584Z</time>
      </trkpt>
      <trkpt lat="44.13564" lon="5.14647">
        <ele>434</ele>
        <time>2020-07-11T06:00:53.583Z</time>
      </trkpt>
      <trkpt lat="44.13571" lon="5.14649">
        <ele>433</ele>
        <time>2020-07-11T06:00:54.584Z</time>
      </trkpt>
      <trkpt lat="44.13577" lon="5.14653">
        <ele>433</ele>
        <time>2020-07-11T06:00:55.584Z</time>
      </trkpt>
      <trkpt lat="44.13583" lon="5.14656">
        <ele>433</ele>
        <time>2020-07-11T06:00:56.583Z</time>
      </trkpt>
      <trkpt lat="44.13589" lon="5.14661">
        <ele>432</ele>
        <time>2020-07-11T06:00:57.584Z</time>
      </trkpt>
      <trkpt lat="44.13596" lon="5.14666">
        <ele>432</ele>
        <time>2020-07-11T06:00:58.583Z</time>
      </trkpt>
      <trkpt lat="44.13603" lon="5.1467">
        <ele>432</ele>
        <time>2020-07-11T06:00:59.584Z</time>
      </trkpt>
      <trkpt lat="44.1361" lon="5.14675">
        <ele>431</ele>
        <time>2020-07-11T06:01:00.584Z</time>
      </trkpt>
      <trkpt lat="44.13619" lon="5.14678">
        <ele>431</ele>
        <time>2020-07-11T06:01:01.584Z</time>
      </trkpt>
      <trkpt lat="44.13628" lon="5.1468">
        <ele>430</ele>
        <time>2020-07-11T06:01:02.584Z</time>
      </trkpt>
      <trkpt lat="44.13636" lon="5.1468">
        <ele>430</ele>
        <time>2020-07-11T06:01:03.584Z</time>
      </trkpt>
      <trkpt lat="44.13645" lon="5.14681">
        <ele>429</ele>
        <time>2020-07-11T06:01:04.583Z</time>
      </trkpt>
      <trkpt lat="44.13654" lon="5.14681">
        <ele>429</ele>
        <time>2020-07-11T06:01:05.584Z</time>
      </trkpt>
      <trkpt lat="44.13663" lon="5.14683">
        <ele>428</ele>
        <time>2020-07-11T06:01:06.583Z</time>
      </trkpt>
      <trkpt lat="44.13672" lon="5.14687">
        <ele>427</ele>
        <time>2020-07-11T06:01:07.584Z</time>
      </trkpt>
      <trkpt lat="44.1368" lon="5.14693">
        <ele>427</ele>
        <time>2020-07-11T06:01:08.584Z</time>
      </trkpt>
      <trkpt lat="44.13686" lon="5.14702">
        <ele>426</ele>
        <time>2020-07-11T06:01:09.584Z</time>
      </trkpt>
      <trkpt lat="44.13691" lon="5.14712">
        <ele>425</ele>
        <time>2020-07-11T06:01:10.583Z</time>
      </trkpt>
      <trkpt lat="44.13696" lon="5.14727">
        <ele>425</ele>
        <time>2020-07-11T06:01:11.583Z</time>
      </trkpt>
      <trkpt lat="44.13699" lon="5.14737">
        <ele>424</ele>
        <time>2020-07-11T06:01:12.584Z</time>
      </trkpt>
      <trkpt lat="44.13703" lon="5.14751">
        <ele>424</ele>
        <time>2020-07-11T06:01:13.583Z</time>
      </trkpt>
      <trkpt lat="44.13707" lon="5.14765">
        <ele>424</ele>
        <time>2020-07-11T06:01:14.584Z</time>
      </trkpt>
      <trkpt lat="44.13712" lon="5.14781">
        <ele>423</ele>
        <time>2020-07-11T06:01:15.584Z</time>
      </trkpt>
      <trkpt lat="44.13718" lon="5.14795">
        <ele>423</ele>
        <time>2020-07-11T06:01:16.583Z</time>
      </trkpt>
      <trkpt lat="44.13724" lon="5.14808">
        <ele>422</ele>
        <time>2020-07-11T06:01:17.584Z</time>
      </trkpt>
      <trkpt lat="44.1373" lon="5.14818">
        <ele>422</ele>
        <time>2020-07-11T06:01:18.584Z</time>
      </trkpt>
      <trkpt lat="44.13738" lon="5.14833">
        <ele>421</ele>
        <time>2020-07-11T06:01:19.584Z</time>
      </trkpt>
      <trkpt lat="44.13746" lon="5.14845">
        <ele>421</ele>
        <time>2020-07-11T06:01:20.584Z</time>
      </trkpt>
      <trkpt lat="44.13753" lon="5.14854">
        <ele>420</ele>
        <time>2020-07-11T06:01:21.584Z</time>
      </trkpt>
      <trkpt lat="44.13761" lon="5.14865">
        <ele>419</ele>
        <time>2020-07-11T06:01:22.584Z</time>
      </trkpt>
      <trkpt lat="44.13769" lon="5.14876">
        <ele>419</ele>
        <time>2020-07-11T06:01:23.584Z</time>
      </trkpt>
      <trkpt lat="44.13778" lon="5.14886">
        <ele>418</ele>
        <time>2020-07-11T06:01:24.583Z</time>
      </trkpt>
      <trkpt lat="44.13788" lon="5.14895">
        <ele>417</ele>
        <time>2020-07-11T06:01:25.583Z</time>
      </trkpt>
      <trkpt lat="44.13797" lon="5.14905">
        <ele>416</ele>
        <time>2020-07-11T06:01:26.584Z</time>
      </trkpt>
      <trkpt lat="44.13807" lon="5.14915">
        <ele>415</ele>
        <time>2020-07-11T06:01:27.584Z</time>
      </trkpt>
      <trkpt lat="44.13819" lon="5.14926">
        <ele>415</ele>
        <time>2020-07-11T06:01:28.584Z</time>
      </trkpt>
      <trkpt lat="44.1383" lon="5.14935">
        <ele>414</ele>
        <time>2020-07-11T06:01:29.584Z</time>
      </trkpt>
      <trkpt lat="44.1384" lon="5.14945">
        <ele>413</ele>
        <time>2020-07-11T06:01:30.583Z</time>
      </trkpt>
      <trkpt lat="44.1385" lon="5.14955">
        <ele>412</ele>
        <time>2020-07-11T06:01:31.583Z</time>
      </trkpt>
      <trkpt lat="44.13858" lon="5.14964">
        <ele>411</ele>
        <time>2020-07-11T06:01:32.584Z</time>
      </trkpt>
      <trkpt lat="44.13868" lon="5.14975">
        <ele>410</ele>
        <time>2020-07-11T06:01:33.583Z</time>
      </trkpt>
      <trkpt lat="44.13876" lon="5.14988">
        <ele>409</ele>
        <time>2020-07-11T06:01:34.584Z</time>
      </trkpt>
      <trkpt lat="44.13885" lon="5.15001">
        <ele>409</ele>
        <time>2020-07-11T06:01:35.584Z</time>
      </trkpt>
      <trkpt lat="44.13893" lon="5.15015">
        <ele>408</ele>
        <time>2020-07-11T06:01:36.584Z</time>
      </trkpt>
      <trkpt lat="44.13901" lon="5.15029">
        <ele>407</ele>
        <time>2020-07-11T06:01:37.584Z</time>
      </trkpt>
      <trkpt lat="44.13909" lon="5.15043">
        <ele>406</ele>
        <time>2020-07-11T06:01:38.584Z</time>
      </trkpt>
      <trkpt lat="44.13917" lon="5.15057">
        <ele>405</ele>
        <time>2020-07-11T06:01:39.584Z</time>
      </trkpt>
      <trkpt lat="44.13924" lon="5.15071">
        <ele>404</ele>
        <time>2020-07-11T06:01:40.584Z</time>
      </trkpt>
      <trkpt lat="44.13932" lon="5.15085">
        <ele>403</ele>
        <time>2020-07-11T06:01:41.584Z</time>
      </trkpt>
      <trkpt lat="44.1394" lon="5.15099">
        <ele>403</ele>
        <time>2020-07-11T06:01:42.584Z</time>
      </trkpt>
      <trkpt lat="44.13949" lon="5.15115">
        <ele>403</ele>
        <time>2020-07-11T06:01:43.584Z</time>
      </trkpt>
      <trkpt lat="44.13955" lon="5.15126">
        <ele>402</ele>
        <time>2020-07-11T06:01:44.584Z</time>
      </trkpt>
      <trkpt lat="44.13964" lon="5.15143">
        <ele>402</ele>
        <time>2020-07-11T06:01:45.583Z</time>
      </trkpt>
      <trkpt lat="44.13972" lon="5.15156">
        <ele>402</ele>
        <time>2020-07-11T06:01:46.584Z</time>
      </trkpt>
      <trkpt lat="44.13978" lon="5.15167">
        <ele>402</ele>
        <time>2020-07-11T06:01:47.584Z</time>
      </trkpt>
      <trkpt lat="44.13988" lon="5.15181">
        <ele>402</ele>
        <time>2020-07-11T06:01:48.584Z</time>
      </trkpt>
      <trkpt lat="44.13997" lon="5.15192">
        <ele>401</ele>
        <time>2020-07-11T06:01:49.583Z</time>
      </trkpt>
      <trkpt lat="44.14007" lon="5.15202">
        <ele>400</ele>
        <time>2020-07-11T06:01:50.584Z</time>
      </trkpt>
      <trkpt lat="44.14017" lon="5.15212">
        <ele>399</ele>
        <time>2020-07-11T06:01:51.584Z</time>
      </trkpt>
      <trkpt lat="44.14025" lon="5.15219">
        <ele>398</ele>
        <time>2020-07-11T06:01:52.584Z</time>
      </trkpt>
      <trkpt lat="44.14036" lon="5.15227">
        <ele>397</ele>
        <time>2020-07-11T06:01:53.584Z</time>
      </trkpt>
      <trkpt lat="44.14048" lon="5.15237">
        <ele>397</ele>
        <time>2020-07-11T06:01:54.584Z</time>
      </trkpt>
      <trkpt lat="44.14058" lon="5.15245">
        <ele>396</ele>
        <time>2020-07-11T06:01:55.584Z</time>
      </trkpt>
      <trkpt lat="44.14068" lon="5.15253">
        <ele>395</ele>
        <time>2020-07-11T06:01:56.583Z</time>
      </trkpt>
      <trkpt lat="44.14075" lon="5.15262">
        <ele>394</ele>
        <time>2020-07-11T06:01:57.584Z</time>
      </trkpt>
      <trkpt lat="44.14082" lon="5.15274">
        <ele>393</ele>
        <time>2020-07-11T06:01:58.584Z</time>
      </trkpt>
      <trkpt lat="44.14088" lon="5.15291">
        <ele>392</ele>
        <time>2020-07-11T06:01:59.584Z</time>
      </trkpt>
      <trkpt lat="44.14091" lon="5.15306">
        <ele>391</ele>
        <time>2020-07-11T06:02:00.584Z</time>
      </trkpt>
      <trkpt lat="44.14093" lon="5.15322">
        <ele>391</ele>
        <time>2020-07-11T06:02:01.583Z</time>
      </trkpt>
      <trkpt lat="44.14092" lon="5.15335">
        <ele>391</ele>
        <time>2020-07-11T06:02:02.583Z</time>
      </trkpt>
      <trkpt lat="44.14089" lon="5.15351">
        <ele>390</ele>
        <time>2020-07-11T06:02:03.584Z</time>
      </trkpt>
      <trkpt lat="44.14084" lon="5.15369">
        <ele>390</ele>
        <time>2020-07-11T06:02:04.584Z</time>
      </trkpt>
      <trkpt lat="44.14079" lon="5.15385">
        <ele>389</ele>
        <time>2020-07-11T06:02:05.584Z</time>
      </trkpt>
      <trkpt lat="44.14075" lon="5.15397">
        <ele>389</ele>
        <time>2020-07-11T06:02:06.584Z</time>
      </trkpt>
      <trkpt lat="44.14072" lon="5.15413">
        <ele>388</ele>
        <time>2020-07-11T06:02:07.584Z</time>
      </trkpt>
      <trkpt lat="44.1407" lon="5.15429">
        <ele>388</ele>
        <time>2020-07-11T06:02:08.584Z</time>
      </trkpt>
      <trkpt lat="44.1407" lon="5.15446">
        <ele>387</ele>
        <time>2020-07-11T06:02:09.583Z</time>
      </trkpt>
      <trkpt lat="44.14071" lon="5.15462">
        <ele>386</ele>
        <time>2020-07-11T06:02:10.584Z</time>
      </trkpt>
      <trkpt lat="44.14072" lon="5.15479">
        <ele>386</ele>
        <time>2020-07-11T06:02:11.584Z</time>
      </trkpt>
      <trkpt lat="44.14074" lon="5.15496">
        <ele>386</ele>
        <time>2020-07-11T06:02:12.584Z</time>
      </trkpt>
      <trkpt lat="44.14076" lon="5.15513">
        <ele>385</ele>
        <time>2020-07-11T06:02:13.584Z</time>
      </trkpt>
      <trkpt lat="44.14081" lon="5.1553">
        <ele>385</ele>
        <time>2020-07-11T06:02:14.584Z</time>
      </trkpt>
      <trkpt lat="44.14087" lon="5.15543">
        <ele>384</ele>
        <time>2020-07-11T06:02:15.584Z</time>
      </trkpt>
      <trkpt lat="44.14095" lon="5.15553">
        <ele>383</ele>
        <time>2020-07-11T06:02:16.584Z</time>
      </trkpt>
      <trkpt lat="44.14106" lon="5.15561">
        <ele>383</ele>
        <time>2020-07-11T06:02:17.584Z</time>
      </trkpt>
      <trkpt lat="44.14115" lon="5.15568">
        <ele>382</ele>
        <time>2020-07-11T06:02:18.584Z</time>
      </trkpt>
      <trkpt lat="44.14128" lon="5.1558">
        <ele>382</ele>
        <time>2020-07-11T06:02:19.584Z</time>
      </trkpt>
      <trkpt lat="44.14138" lon="5.1559">
        <ele>381</ele>
        <time>2020-07-11T06:02:20.584Z</time>
      </trkpt>
      <trkpt lat="44.14146" lon="5.15598">
        <ele>381</ele>
        <time>2020-07-11T06:02:21.584Z</time>
      </trkpt>
      <trkpt lat="44.14157" lon="5.15611">
        <ele>381</ele>
        <time>2020-07-11T06:02:22.583Z</time>
      </trkpt>
      <trkpt lat="44.14167" lon="5.15621">
        <ele>380</ele>
        <time>2020-07-11T06:02:23.584Z</time>
      </trkpt>
      <trkpt lat="44.14173" lon="5.1563">
        <ele>379</ele>
        <time>2020-07-11T06:02:24.583Z</time>
      </trkpt>
      <trkpt lat="44.14182" lon="5.15643">
        <ele>378</ele>
        <time>2020-07-11T06:02:25.583Z</time>
      </trkpt>
      <trkpt lat="44.14186" lon="5.15652">
        <ele>378</ele>
        <time>2020-07-11T06:02:26.584Z</time>
      </trkpt>
      <trkpt lat="44.1419" lon="5.15664">
        <ele>377</ele>
        <time>2020-07-11T06:02:27.583Z</time>
      </trkpt>
      <trkpt lat="44.1419" lon="5.15677">
        <ele>376</ele>
        <time>2020-07-11T06:02:28.584Z</time>
      </trkpt>
      <trkpt lat="44.14188" lon="5.15686">
        <ele>376</ele>
        <time>2020-07-11T06:02:29.583Z</time>
      </trkpt>
      <trkpt lat="44.14185" lon="5.15699">
        <ele>376</ele>
        <time>2020-07-11T06:02:30.584Z</time>
      </trkpt>
      <trkpt lat="44.14182" lon="5.15708">
        <ele>376</ele>
        <time>2020-07-11T06:02:31.584Z</time>
      </trkpt>
      <trkpt lat="44.14176" lon="5.15718">
        <ele>376</ele>
        <time>2020-07-11T06:02:32.583Z</time>
      </trkpt>
      <trkpt lat="44.14169" lon="5.15728">
        <ele>375</ele>
        <time>2020-07-11T06:02:33.584Z</time>
      </trkpt>
      <trkpt lat="44.14161" lon="5.15742">
        <ele>374</ele>
        <time>2020-07-11T06:02:34.583Z</time>
      </trkpt>
      <trkpt lat="44.14152" lon="5.15753">
        <ele>373</ele>
        <time>2020-07-11T06:02:35.584Z</time>
      </trkpt>
      <trkpt lat="44.14145" lon="5.15763">
        <ele>373</ele>
        <time>2020-07-11T06:02:36.584Z</time>
      </trkpt>
      <trkpt lat="44.14139" lon="5.15776">
        <ele>372</ele>
        <time>2020-07-11T06:02:37.584Z</time>
      </trkpt>
      <trkpt lat="44.14133" lon="5.15789">
        <ele>371</ele>
        <time>2020-07-11T06:02:38.583Z</time>
      </trkpt>
      <trkpt lat="44.14129" lon="5.15806">
        <ele>370</ele>
        <time>2020-07-11T06:02:39.584Z</time>
      </trkpt>
      <trkpt lat="44.14128" lon="5.15818">
        <ele>369</ele>
        <time>2020-07-11T06:02:40.584Z</time>
      </trkpt>
      <trkpt lat="44.14127" lon="5.15834">
        <ele>368</ele>
        <time>2020-07-11T06:02:41.583Z</time>
      </trkpt>
      <trkpt lat="44.14128" lon="5.15849">
        <ele>368</ele>
        <time>2020-07-11T06:02:42.584Z</time>
      </trkpt>
      <trkpt lat="44.14129" lon="5.15866">
        <ele>367</ele>
        <time>2020-07-11T06:02:43.583Z</time>
      </trkpt>
      <trkpt lat="44.1413" lon="5.15878">
        <ele>367</ele>
        <time>2020-07-11T06:02:44.584Z</time>
      </trkpt>
      <trkpt lat="44.14131" lon="5.15892">
        <ele>366</ele>
        <time>2020-07-11T06:02:45.583Z</time>
      </trkpt>
      <trkpt lat="44.14132" lon="5.15906">
        <ele>366</ele>
        <time>2020-07-11T06:02:46.584Z</time>
      </trkpt>
      <trkpt lat="44.14132" lon="5.15919">
        <ele>365</ele>
        <time>2020-07-11T06:02:47.584Z</time>
      </trkpt>
      <trkpt lat="44.14133" lon="5.15933">
        <ele>365</ele>
        <time>2020-07-11T06:02:48.583Z</time>
      </trkpt>
      <trkpt lat="44.14131" lon="5.15948">
        <ele>364</ele>
        <time>2020-07-11T06:02:49.584Z</time>
      </trkpt>
      <trkpt lat="44.1413" lon="5.15961">
        <ele>363</ele>
        <time>2020-07-11T06:02:50.583Z</time>
      </trkpt>
      <trkpt lat="44.14129" lon="5.15971">
        <ele>362</ele>
        <time>2020-07-11T06:02:51.584Z</time>
      </trkpt>
      <trkpt lat="44.14128" lon="5.15982">
        <ele>361</ele>
        <time>2020-07-11T06:02:52.584Z</time>
      </trkpt>
      <trkpt lat="44.14127" lon="5.15996">
        <ele>361</ele>
        <time>2020-07-11T06:02:53.584Z</time>
      </trkpt>
      <trkpt lat="44.14124" lon="5.16007">
        <ele>360</ele>
        <time>2020-07-11T06:02:54.584Z</time>
      </trkpt>
      <trkpt lat="44.14121" lon="5.16017">
        <ele>359</ele>
        <time>2020-07-11T06:02:55.583Z</time>
      </trkpt>
      <trkpt lat="44.14119" lon="5.16025">
        <ele>359</ele>
        <time>2020-07-11T06:02:56.584Z</time>
      </trkpt>
      <trkpt lat="44.14116" lon="5.16033">
        <ele>359</ele>
        <time>2020-07-11T06:02:57.584Z</time>
      </trkpt>
      <trkpt lat="44.14113" lon="5.16042">
        <ele>359</ele>
        <time>2020-07-11T06:02:58.584Z</time>
      </trkpt>
      <trkpt lat="44.1411" lon="5.1605">
        <ele>359</ele>
        <time>2020-07-11T06:02:59.584Z</time>
      </trkpt>
      <trkpt lat="44.14107" lon="5.16057">
        <ele>359</ele>
        <time>2020-07-11T06:03:00.583Z</time>
      </trkpt>
      <trkpt lat="44.14104" lon="5.16065">
        <ele>359</ele>
        <time>2020-07-11T06:03:01.584Z</time>
      </trkpt>
      <trkpt lat="44.14101" lon="5.16071">
        <ele>359</ele>
        <time>2020-07-11T06:03:02.584Z</time>
      </trkpt>
      <trkpt lat="44.14099" lon="5.16077">
        <ele>359</ele>
        <time>2020-07-11T06:03:03.584Z</time>
      </trkpt>
      <trkpt lat="44.14096" lon="5.16084">
        <ele>359</ele>
        <time>2020-07-11T06:03:04.584Z</time>
      </trkpt>
      <trkpt lat="44.14093" lon="5.1609">
        <ele>359</ele>
        <time>2020-07-11T06:03:05.584Z</time>
      </trkpt>
      <trkpt lat="44.1409" lon="5.16097">
        <ele>359</ele>
        <time>2020-07-11T06:03:06.584Z</time>
      </trkpt>
      <trkpt lat="44.14088" lon="5.16104">
        <ele>360</ele>
        <time>2020-07-11T06:03:07.583Z</time>
      </trkpt>
      <trkpt lat="44.14085" lon="5.1611">
        <ele>360</ele>
        <time>2020-07-11T06:03:08.583Z</time>
      </trkpt>
      <trkpt lat="44.14083" lon="5.16117">
        <ele>361</ele>
        <time>2020-07-11T06:03:09.583Z</time>
      </trkpt>
      <trkpt lat="44.1408" lon="5.16122">
        <ele>361</ele>
        <time>2020-07-11T06:03:10.584Z</time>
      </trkpt>
      <trkpt lat="44.14078" lon="5.16128">
        <ele>362</ele>
        <time>2020-07-11T06:03:11.584Z</time>
      </trkpt>
      <trkpt lat="44.14076" lon="5.16134">
        <ele>363</ele>
        <time>2020-07-11T06:03:12.584Z</time>
      </trkpt>
      <trkpt lat="44.14074" lon="5.1614">
        <ele>363</ele>
        <time>2020-07-11T06:03:13.584Z</time>
      </trkpt>
      <trkpt lat="44.14072" lon="5.16146">
        <ele>364</ele>
        <time>2020-07-11T06:03:14.584Z</time>
      </trkpt>
      <trkpt lat="44.14071" lon="5.16152">
        <ele>364</ele>
        <time>2020-07-11T06:03:15.584Z</time>
      </trkpt>
      <trkpt lat="44.14069" lon="5.16158">
        <ele>365</ele>
        <time>2020-07-11T06:03:16.584Z</time>
      </trkpt>
      <trkpt lat="44.14068" lon="5.16164">
        <ele>366</ele>
        <time>2020-07-11T06:03:17.584Z</time>
      </trkpt>
      <trkpt lat="44.14067" lon="5.1617">
        <ele>367</ele>
        <time>2020-07-11T06:03:18.583Z</time>
      </trkpt>
      <trkpt lat="44.14067" lon="5.16177">
        <ele>367</ele>
        <time>2020-07-11T06:03:19.583Z</time>
      </trkpt>
      <trkpt lat="44.14066" lon="5.16183">
        <ele>368</ele>
        <time>2020-07-11T06:03:20.584Z</time>
      </trkpt>
      <trkpt lat="44.14066" lon="5.1619">
        <ele>369</ele>
        <time>2020-07-11T06:03:21.584Z</time>
      </trkpt>
      <trkpt lat="44.14065" lon="5.16197">
        <ele>369</ele>
        <time>2020-07-11T06:03:22.583Z</time>
      </trkpt>
      <trkpt lat="44.14065" lon="5.16204">
        <ele>370</ele>
        <time>2020-07-11T06:03:23.583Z</time>
      </trkpt>
      <trkpt lat="44.14065" lon="5.16211">
        <ele>371</ele>
        <time>2020-07-11T06:03:24.583Z</time>
      </trkpt>
      <trkpt lat="44.14064" lon="5.16218">
        <ele>371</ele>
        <time>2020-07-11T06:03:25.583Z</time>
      </trkpt>
      <trkpt lat="44.14064" lon="5.16225">
        <ele>371</ele>
        <time>2020-07-11T06:03:26.584Z</time>
      </trkpt>
      <trkpt lat="44.14064" lon="5.16233">
        <ele>372</ele>
        <time>2020-07-11T06:03:27.584Z</time>
      </trkpt>
      <trkpt lat="44.14064" lon="5.1624">
        <ele>372</ele>
        <time>2020-07-11T06:03:28.584Z</time>
      </trkpt>
      <trkpt lat="44.14064" lon="5.16247">
        <ele>372</ele>
        <time>2020-07-11T06:03:29.584Z</time>
      </trkpt>
      <trkpt lat="44.14063" lon="5.16254">
        <ele>373</ele>
        <time>2020-07-11T06:03:30.583Z</time>
      </trkpt>
      <trkpt lat="44.14063" lon="5.16261">
        <ele>373</ele>
        <time>2020-07-11T06:03:31.584Z</time>
      </trkpt>
      <trkpt lat="44.14062" lon="5.16269">
        <ele>373</ele>
        <time>2020-07-11T06:03:32.584Z</time>
      </trkpt>
      <trkpt lat="44.14061" lon="5.16277">
        <ele>373</ele>
        <time>2020-07-11T06:03:33.584Z</time>
      </trkpt>
      <trkpt lat="44.14059" lon="5.16284">
        <ele>373</ele>
        <time>2020-07-11T06:03:34.584Z</time>
      </trkpt>
      <trkpt lat="44.14057" lon="5.16292">
        <ele>373</ele>
        <time>2020-07-11T06:03:35.584Z</time>
      </trkpt>
      <trkpt lat="44.14055" lon="5.163">
        <ele>373</ele>
        <time>2020-07-11T06:03:36.584Z</time>
      </trkpt>
      <trkpt lat="44.14052" lon="5.16307">
        <ele>373</ele>
        <time>2020-07-11T06:03:37.584Z</time>
      </trkpt>
      <trkpt lat="44.14049" lon="5.16316">
        <ele>373</ele>
        <time>2020-07-11T06:03:38.584Z</time>
      </trkpt>
      <trkpt lat="44.14045" lon="5.16324">
        <ele>373</ele>
        <time>2020-07-11T06:03:39.583Z</time>
      </trkpt>
      <trkpt lat="44.14042" lon="5.16332">
        <ele>372</ele>
        <time>2020-07-11T06:03:40.584Z</time>
      </trkpt>
      <trkpt lat="44.14038" lon="5.1634">
        <ele>372</ele>
        <time>2020-07-11T06:03:41.584Z</time>
      </trkpt>
      <trkpt lat="44.14034" lon="5.16349">
        <ele>372</ele>
        <time>2020-07-11T06:03:42.583Z</time>
      </trkpt>
      <trkpt lat="44.1403" lon="5.16359">
        <ele>372</ele>
        <time>2020-07-11T06:03:43.584Z</time>
      </trkpt>
      <trkpt lat="44.14025" lon="5.16369">
        <ele>372</ele>
        <time>2020-07-11T06:03:44.584Z</time>
      </trkpt>
      <trkpt lat="44.1402" lon="5.16378">
        <ele>372</ele>
        <time>2020-07-11T06:03:45.584Z</time>
      </trkpt>
      <trkpt lat="44.14014" lon="5.16388">
        <ele>371</ele>
        <time>2020-07-11T06:03:46.584Z</time>
      </trkpt>
      <trkpt lat="44.14008" lon="5.16397">
        <ele>371</ele>
        <time>2020-07-11T06:03:47.583Z</time>
      </trkpt>
      <trkpt lat="44.14002" lon="5.16407">
        <ele>371</ele>
        <time>2020-07-11T06:03:48.584Z</time>
      </trkpt>
      <trkpt lat="44.13994" lon="5.16419">
        <ele>370</ele>
        <time>2020-07-11T06:03:49.584Z</time>
      </trkpt>
      <trkpt lat="44.13989" lon="5.16427">
        <ele>370</ele>
        <time>2020-07-11T06:03:50.583Z</time>
      </trkpt>
      <trkpt lat="44.13982" lon="5.16437">
        <ele>370</ele>
        <time>2020-07-11T06:03:51.584Z</time>
      </trkpt>
      <trkpt lat="44.13975" lon="5.16447">
        <ele>370</ele>
        <time>2020-07-11T06:03:52.584Z</time>
      </trkpt>
      <trkpt lat="44.13965" lon="5.16457">
        <ele>370</ele>
        <time>2020-07-11T06:03:53.584Z</time>
      </trkpt>
      <trkpt lat="44.13957" lon="5.16465">
        <ele>370</ele>
        <time>2020-07-11T06:03:54.584Z</time>
      </trkpt>
      <trkpt lat="44.1395" lon="5.16471">
        <ele>369</ele>
        <time>2020-07-11T06:03:55.583Z</time>
      </trkpt>
      <trkpt lat="44.13941" lon="5.16479">
        <ele>369</ele>
        <time>2020-07-11T06:03:56.584Z</time>
      </trkpt>
      <trkpt lat="44.13932" lon="5.16486">
        <ele>368</ele>
        <time>2020-07-11T06:03:57.583Z</time>
      </trkpt>
      <trkpt lat="44.13922" lon="5.16493">
        <ele>368</ele>
        <time>2020-07-11T06:03:58.584Z</time>
      </trkpt>
      <trkpt lat="44.13912" lon="5.165">
        <ele>367</ele>
        <time>2020-07-11T06:03:59.584Z</time>
      </trkpt>
      <trkpt lat="44.13901" lon="5.16505">
        <ele>367</ele>
        <time>2020-07-11T06:04:00.584Z</time>
      </trkpt>
      <trkpt lat="44.13891" lon="5.16509">
        <ele>366</ele>
        <time>2020-07-11T06:04:01.584Z</time>
      </trkpt>
      <trkpt lat="44.1388" lon="5.16512">
        <ele>366</ele>
        <time>2020-07-11T06:04:02.583Z</time>
      </trkpt>
      <trkpt lat="44.13866" lon="5.16517">
        <ele>365</ele>
        <time>2020-07-11T06:04:03.584Z</time>
      </trkpt>
      <trkpt lat="44.13855" lon="5.1652">
        <ele>365</ele>
        <time>2020-07-11T06:04:04.584Z</time>
      </trkpt>
      <trkpt lat="44.13844" lon="5.16522">
        <ele>364</ele>
        <time>2020-07-11T06:04:05.584Z</time>
      </trkpt>
      <trkpt lat="44.13835" lon="5.16524">
        <ele>363</ele>
        <time>2020-07-11T06:04:06.583Z</time>
      </trkpt>
      <trkpt lat="44.13824" lon="5.16527">
        <ele>362</ele>
        <time>2020-07-11T06:04:07.584Z</time>
      </trkpt>
      <trkpt lat="44.1381" lon="5.16531">
        <ele>361</ele>
        <time>2020-07-11T06:04:08.584Z</time>
      </trkpt>
      <trkpt lat="44.13799" lon="5.16533">
        <ele>360</ele>
        <time>2020-07-11T06:04:09.584Z</time>
      </trkpt>
      <trkpt lat="44.13788" lon="5.16535">
        <ele>360</ele>
        <time>2020-07-11T06:04:10.584Z</time>
      </trkpt>
      <trkpt lat="44.13777" lon="5.16537">
        <ele>359</ele>
        <time>2020-07-11T06:04:11.584Z</time>
      </trkpt>
      <trkpt lat="44.13768" lon="5.16539">
        <ele>359</ele>
        <time>2020-07-11T06:04:12.584Z</time>
      </trkpt>
      <trkpt lat="44.13757" lon="5.16541">
        <ele>359</ele>
        <time>2020-07-11T06:04:13.584Z</time>
      </trkpt>
      <trkpt lat="44.13745" lon="5.16545">
        <ele>358</ele>
        <time>2020-07-11T06:04:14.584Z</time>
      </trkpt>
      <trkpt lat="44.13738" lon="5.16548">
        <ele>358</ele>
        <time>2020-07-11T06:04:15.583Z</time>
      </trkpt>
      <trkpt lat="44.13729" lon="5.16553">
        <ele>358</ele>
        <time>2020-07-11T06:04:16.584Z</time>
      </trkpt>
      <trkpt lat="44.1372" lon="5.16558">
        <ele>358</ele>
        <time>2020-07-11T06:04:17.583Z</time>
      </trkpt>
      <trkpt lat="44.13711" lon="5.16564">
        <ele>357</ele>
        <time>2020-07-11T06:04:18.584Z</time>
      </trkpt>
      <trkpt lat="44.13703" lon="5.16571">
        <ele>357</ele>
        <time>2020-07-11T06:04:19.584Z</time>
      </trkpt>
      <trkpt lat="44.13693" lon="5.16579">
        <ele>357</ele>
        <time>2020-07-11T06:04:20.584Z</time>
      </trkpt>
      <trkpt lat="44.13686" lon="5.16584">
        <ele>357</ele>
        <time>2020-07-11T06:04:21.584Z</time>
      </trkpt>
      <trkpt lat="44.13678" lon="5.1659">
        <ele>357</ele>
        <time>2020-07-11T06:04:22.584Z</time>
      </trkpt>
      <trkpt lat="44.13669" lon="5.16595">
        <ele>357</ele>
        <time>2020-07-11T06:04:23.584Z</time>
      </trkpt>
      <trkpt lat="44.1366" lon="5.16601">
        <ele>357</ele>
        <time>2020-07-11T06:04:24.584Z</time>
      </trkpt>
      <trkpt lat="44.13652" lon="5.16606">
        <ele>357</ele>
        <time>2020-07-11T06:04:25.583Z</time>
      </trkpt>
      <trkpt lat="44.13644" lon="5.16609">
        <ele>357</ele>
        <time>2020-07-11T06:04:26.584Z</time>
      </trkpt>
      <trkpt lat="44.13637" lon="5.16614">
        <ele>357</ele>
        <time>2020-07-11T06:04:27.584Z</time>
      </trkpt>
      <trkpt lat="44.13629" lon="5.16618">
        <ele>358</ele>
        <time>2020-07-11T06:04:28.583Z</time>
      </trkpt>
      <trkpt lat="44.13623" lon="5.16622">
        <ele>358</ele>
        <time>2020-07-11T06:04:29.584Z</time>
      </trkpt>
      <trkpt lat="44.13615" lon="5.16626">
        <ele>358</ele>
        <time>2020-07-11T06:04:30.584Z</time>
      </trkpt>
      <trkpt lat="44.13609" lon="5.1663">
        <ele>358</ele>
        <time>2020-07-11T06:04:31.584Z</time>
      </trkpt>
      <trkpt lat="44.13602" lon="5.16635">
        <ele>358</ele>
        <time>2020-07-11T06:04:32.583Z</time>
      </trkpt>
      <trkpt lat="44.13595" lon="5.16639">
        <ele>359</ele>
        <time>2020-07-11T06:04:33.583Z</time>
      </trkpt>
      <trkpt lat="44.13588" lon="5.16643">
        <ele>359</ele>
        <time>2020-07-11T06:04:34.583Z</time>
      </trkpt>
      <trkpt lat="44.13581" lon="5.16647">
        <ele>359</ele>
        <time>2020-07-11T06:04:35.583Z</time>
      </trkpt>
      <trkpt lat="44.13575" lon="5.1665">
        <ele>359</ele>
        <time>2020-07-11T06:04:36.584Z</time>
      </trkpt>
      <trkpt lat="44.13568" lon="5.16654">
        <ele>359</ele>
        <time>2020-07-11T06:04:37.583Z</time>
      </trkpt>
      <trkpt lat="44.13562" lon="5.16657">
        <ele>359</ele>
        <time>2020-07-11T06:04:38.584Z</time>
      </trkpt>
      <trkpt lat="44.13554" lon="5.16661">
        <ele>360</ele>
        <time>2020-07-11T06:04:39.583Z</time>
      </trkpt>
      <trkpt lat="44.13548" lon="5.16664">
        <ele>360</ele>
        <time>2020-07-11T06:04:40.584Z</time>
      </trkpt>
      <trkpt lat="44.13543" lon="5.16667">
        <ele>360</ele>
        <time>2020-07-11T06:04:41.584Z</time>
      </trkpt>
      <trkpt lat="44.13537" lon="5.16671">
        <ele>360</ele>
        <time>2020-07-11T06:04:42.584Z</time>
      </trkpt>
      <trkpt lat="44.13532" lon="5.16674">
        <ele>361</ele>
        <time>2020-07-11T06:04:43.584Z</time>
      </trkpt>
      <trkpt lat="44.13525" lon="5.16678">
        <ele>361</ele>
        <time>2020-07-11T06:04:44.584Z</time>
      </trkpt>
      <trkpt lat="44.13521" lon="5.1668">
        <ele>361</ele>
        <time>2020-07-11T06:04:45.583Z</time>
      </trkpt>
      <trkpt lat="44.13515" lon="5.16682">
        <ele>361</ele>
        <time>2020-07-11T06:04:46.583Z</time>
      </trkpt>
      <trkpt lat="44.13509" lon="5.16686">
        <ele>361</ele>
        <time>2020-07-11T06:04:47.584Z</time>
      </trkpt>
      <trkpt lat="44.13505" lon="5.16688">
        <ele>360</ele>
        <time>2020-07-11T06:04:48.583Z</time>
      </trkpt>
      <trkpt lat="44.135" lon="5.16691">
        <ele>360</ele>
        <time>2020-07-11T06:04:49.584Z</time>
      </trkpt>
      <trkpt lat="44.13495" lon="5.16694">
        <ele>360</ele>
        <time>2020-07-11T06:04:50.583Z</time>
      </trkpt>
      <trkpt lat="44.1349" lon="5.16696">
        <ele>360</ele>
        <time>2020-07-11T06:04:51.583Z</time>
      </trkpt>
      <trkpt lat="44.13484" lon="5.16699">
        <ele>359</ele>
        <time>2020-07-11T06:04:52.584Z</time>
      </trkpt>
      <trkpt lat="44.13479" lon="5.16702">
        <ele>359</ele>
        <time>2020-07-11T06:04:53.584Z</time>
      </trkpt>
      <trkpt lat="44.13474" lon="5.16705">
        <ele>359</ele>
        <time>2020-07-11T06:04:54.584Z</time>
      </trkpt>
      <trkpt lat="44.13468" lon="5.16707">
        <ele>359</ele>
        <time>2020-07-11T06:04:55.584Z</time>
      </trkpt>
      <trkpt lat="44.13463" lon="5.1671">
        <ele>358</ele>
        <time>2020-07-11T06:04:56.584Z</time>
      </trkpt>
      <trkpt lat="44.13458" lon="5.16713">
        <ele>358</ele>
        <time>2020-07-11T06:04:57.583Z</time>
      </trkpt>
      <trkpt lat="44.13452" lon="5.16715">
        <ele>358</ele>
        <time>2020-07-11T06:04:58.584Z</time>
      </trkpt>
      <trkpt lat="44.13447" lon="5.16718">
        <ele>358</ele>
        <time>2020-07-11T06:04:59.583Z</time>
      </trkpt>
      <trkpt lat="44.13441" lon="5.16721">
        <ele>358</ele>
        <time>2020-07-11T06:05:00.584Z</time>
      </trkpt>
      <trkpt lat="44.13435" lon="5.16724">
        <ele>358</ele>
        <time>2020-07-11T06:05:01.584Z</time>
      </trkpt>
      <trkpt lat="44.13429" lon="5.16728">
        <ele>358</ele>
        <time>2020-07-11T06:05:02.583Z</time>
      </trkpt>
      <trkpt lat="44.13423" lon="5.16731">
        <ele>358</ele>
        <time>2020-07-11T06:05:03.584Z</time>
      </trkpt>
      <trkpt lat="44.13417" lon="5.16736">
        <ele>358</ele>
        <time>2020-07-11T06:05:04.584Z</time>
      </trkpt>
      <trkpt lat="44.13411" lon="5.1674">
        <ele>358</ele>
        <time>2020-07-11T06:05:05.584Z</time>
      </trkpt>
      <trkpt lat="44.13405" lon="5.16746">
        <ele>358</ele>
        <time>2020-07-11T06:05:06.583Z</time>
      </trkpt>
      <trkpt lat="44.13399" lon="5.16751">
        <ele>357</ele>
        <time>2020-07-11T06:05:07.584Z</time>
      </trkpt>
      <trkpt lat="44.13393" lon="5.16758">
        <ele>357</ele>
        <time>2020-07-11T06:05:08.584Z</time>
      </trkpt>
      <trkpt lat="44.13387" lon="5.16765">
        <ele>358</ele>
        <time>2020-07-11T06:05:09.583Z</time>
      </trkpt>
      <trkpt lat="44.13381" lon="5.16772">
        <ele>358</ele>
        <time>2020-07-11T06:05:10.584Z</time>
      </trkpt>
      <trkpt lat="44.13376" lon="5.16779">
        <ele>358</ele>
        <time>2020-07-11T06:05:11.584Z</time>
      </trkpt>
      <trkpt lat="44.1337" lon="5.16788">
        <ele>358</ele>
        <time>2020-07-11T06:05:12.583Z</time>
      </trkpt>
      <trkpt lat="44.13365" lon="5.16796">
        <ele>358</ele>
        <time>2020-07-11T06:05:13.584Z</time>
      </trkpt>
      <trkpt lat="44.1336" lon="5.16805">
        <ele>358</ele>
        <time>2020-07-11T06:05:14.583Z</time>
      </trkpt>
      <trkpt lat="44.13355" lon="5.16813">
        <ele>359</ele>
        <time>2020-07-11T06:05:15.584Z</time>
      </trkpt>
      <trkpt lat="44.13349" lon="5.16822">
        <ele>359</ele>
        <time>2020-07-11T06:05:16.584Z</time>
      </trkpt>
      <trkpt lat="44.13345" lon="5.16831">
        <ele>358</ele>
        <time>2020-07-11T06:05:17.584Z</time>
      </trkpt>
      <trkpt lat="44.1334" lon="5.1684">
        <ele>358</ele>
        <time>2020-07-11T06:05:18.583Z</time>
      </trkpt>
      <trkpt lat="44.13335" lon="5.1685">
        <ele>358</ele>
        <time>2020-07-11T06:05:19.583Z</time>
      </trkpt>
      <trkpt lat="44.1333" lon="5.16859">
        <ele>358</ele>
        <time>2020-07-11T06:05:20.584Z</time>
      </trkpt>
      <trkpt lat="44.13324" lon="5.16869">
        <ele>358</ele>
        <time>2020-07-11T06:05:21.584Z</time>
      </trkpt>
      <trkpt lat="44.13319" lon="5.1688">
        <ele>358</ele>
        <time>2020-07-11T06:05:22.583Z</time>
      </trkpt>
      <trkpt lat="44.13314" lon="5.1689">
        <ele>358</ele>
        <time>2020-07-11T06:05:23.584Z</time>
      </trkpt>
      <trkpt lat="44.13309" lon="5.16901">
        <ele>358</ele>
        <time>2020-07-11T06:05:24.584Z</time>
      </trkpt>
      <trkpt lat="44.13303" lon="5.16912">
        <ele>358</ele>
        <time>2020-07-11T06:05:25.584Z</time>
      </trkpt>
      <trkpt lat="44.13297" lon="5.16923">
        <ele>358</ele>
        <time>2020-07-11T06:05:26.584Z</time>
      </trkpt>
      <trkpt lat="44.13292" lon="5.16933">
        <ele>358</ele>
        <time>2020-07-11T06:05:27.583Z</time>
      </trkpt>
      <trkpt lat="44.13286" lon="5.16944">
        <ele>358</ele>
        <time>2020-07-11T06:05:28.584Z</time>
      </trkpt>
      <trkpt lat="44.13281" lon="5.16954">
        <ele>357</ele>
        <time>2020-07-11T06:05:29.584Z</time>
      </trkpt>
      <trkpt lat="44.13276" lon="5.16965">
        <ele>357</ele>
        <time>2020-07-11T06:05:30.584Z</time>
      </trkpt>
      <trkpt lat="44.1327" lon="5.16975">
        <ele>356</ele>
        <time>2020-07-11T06:05:31.583Z</time>
      </trkpt>
      <trkpt lat="44.13265" lon="5.16985">
        <ele>356</ele>
        <time>2020-07-11T06:05:32.584Z</time>
      </trkpt>
      <trkpt lat="44.1326" lon="5.16995">
        <ele>356</ele>
        <time>2020-07-11T06:05:33.584Z</time>
      </trkpt>
      <trkpt lat="44.13254" lon="5.17004">
        <ele>356</ele>
        <time>2020-07-11T06:05:34.584Z</time>
      </trkpt>
      <trkpt lat="44.13248" lon="5.17013">
        <ele>355</ele>
        <time>2020-07-11T06:05:35.584Z</time>
      </trkpt>
      <trkpt lat="44.13241" lon="5.17022">
        <ele>355</ele>
        <time>2020-07-11T06:05:36.584Z</time>
      </trkpt>
      <trkpt lat="44.13234" lon="5.1703">
        <ele>355</ele>
        <time>2020-07-11T06:05:37.584Z</time>
      </trkpt>
      <trkpt lat="44.13228" lon="5.17038">
        <ele>354</ele>
        <time>2020-07-11T06:05:38.584Z</time>
      </trkpt>
      <trkpt lat="44.13222" lon="5.17045">
        <ele>353</ele>
        <time>2020-07-11T06:05:39.584Z</time>
      </trkpt>
      <trkpt lat="44.13216" lon="5.17054">
        <ele>353</ele>
        <time>2020-07-11T06:05:40.584Z</time>
      </trkpt>
      <trkpt lat="44.1321" lon="5.17062">
        <ele>352</ele>
        <time>2020-07-11T06:05:41.584Z</time>
      </trkpt>
      <trkpt lat="44.13204" lon="5.1707">
        <ele>352</ele>
        <time>2020-07-11T06:05:42.584Z</time>
      </trkpt>
      <trkpt lat="44.13198" lon="5.17077">
        <ele>352</ele>
        <time>2020-07-11T06:05:43.584Z</time>
      </trkpt>
      <trkpt lat="44.13192" lon="5.17085">
        <ele>352</ele>
        <time>2020-07-11T06:05:44.583Z</time>
      </trkpt>
      <trkpt lat="44.13186" lon="5.17092">
        <ele>352</ele>
        <time>2020-07-11T06:05:45.584Z</time>
      </trkpt>
      <trkpt lat="44.1318" lon="5.171">
        <ele>352</ele>
        <time>2020-07-11T06:05:46.584Z</time>
      </trkpt>
      <trkpt lat="44.13174" lon="5.17108">
        <ele>352</ele>
        <time>2020-07-11T06:05:47.583Z</time>
      </trkpt>
      <trkpt lat="44.13167" lon="5.17115">
        <ele>351</ele>
        <time>2020-07-11T06:05:48.584Z</time>
      </trkpt>
      <trkpt lat="44.1316" lon="5.17123">
        <ele>351</ele>
        <time>2020-07-11T06:05:49.584Z</time>
      </trkpt>
      <trkpt lat="44.13154" lon="5.1713">
        <ele>350</ele>
        <time>2020-07-11T06:05:50.584Z</time>
      </trkpt>
      <trkpt lat="44.13148" lon="5.17138">
        <ele>350</ele>
        <time>2020-07-11T06:05:51.584Z</time>
      </trkpt>
      <trkpt lat="44.13141" lon="5.17146">
        <ele>349</ele>
        <time>2020-07-11T06:05:52.584Z</time>
      </trkpt>
      <trkpt lat="44.13134" lon="5.17154">
        <ele>349</ele>
        <time>2020-07-11T06:05:53.583Z</time>
      </trkpt>
      <trkpt lat="44.13127" lon="5.17162">
        <ele>348</ele>
        <time>2020-07-11T06:05:54.584Z</time>
      </trkpt>
      <trkpt lat="44.1312" lon="5.1717">
        <ele>348</ele>
        <time>2020-07-11T06:05:55.584Z</time>
      </trkpt>
      <trkpt lat="44.13113" lon="5.17179">
        <ele>348</ele>
        <time>2020-07-11T06:05:56.584Z</time>
      </trkpt>
      <trkpt lat="44.13106" lon="5.17189">
        <ele>348</ele>
        <time>2020-07-11T06:05:57.583Z</time>
      </trkpt>
      <trkpt lat="44.13098" lon="5.17198">
        <ele>348</ele>
        <time>2020-07-11T06:05:58.584Z</time>
      </trkpt>
      <trkpt lat="44.13091" lon="5.17208">
        <ele>348</ele>
        <time>2020-07-11T06:05:59.584Z</time>
      </trkpt>
      <trkpt lat="44.13083" lon="5.17217">
        <ele>348</ele>
        <time>2020-07-11T06:06:00.584Z</time>
      </trkpt>
      <trkpt lat="44.13076" lon="5.17227">
        <ele>348</ele>
        <time>2020-07-11T06:06:01.583Z</time>
      </trkpt>
      <trkpt lat="44.13068" lon="5.17236">
        <ele>348</ele>
        <time>2020-07-11T06:06:02.583Z</time>
      </trkpt>
      <trkpt lat="44.13061" lon="5.17245">
        <ele>348</ele>
        <time>2020-07-11T06:06:03.584Z</time>
      </trkpt>
      <trkpt lat="44.13054" lon="5.17254">
        <ele>348</ele>
        <time>2020-07-11T06:06:04.584Z</time>
      </trkpt>
      <trkpt lat="44.13048" lon="5.17263">
        <ele>348</ele>
        <time>2020-07-11T06:06:05.584Z</time>
      </trkpt>
      <trkpt lat="44.13043" lon="5.17272">
        <ele>348</ele>
        <time>2020-07-11T06:06:06.584Z</time>
      </trkpt>
      <trkpt lat="44.13038" lon="5.17282">
        <ele>348</ele>
        <time>2020-07-11T06:06:07.584Z</time>
      </trkpt>
      <trkpt lat="44.13034" lon="5.17292">
        <ele>348</ele>
        <time>2020-07-11T06:06:08.584Z</time>
      </trkpt>
      <trkpt lat="44.13031" lon="5.17303">
        <ele>348</ele>
        <time>2020-07-11T06:06:09.584Z</time>
      </trkpt>
      <trkpt lat="44.13028" lon="5.17313">
        <ele>347</ele>
        <time>2020-07-11T06:06:10.584Z</time>
      </trkpt>
      <trkpt lat="44.13026" lon="5.17324">
        <ele>347</ele>
        <time>2020-07-11T06:06:11.584Z</time>
      </trkpt>
      <trkpt lat="44.13025" lon="5.17335">
        <ele>346</ele>
        <time>2020-07-11T06:06:12.584Z</time>
      </trkpt>
      <trkpt lat="44.13022" lon="5.17346">
        <ele>346</ele>
        <time>2020-07-11T06:06:13.584Z</time>
      </trkpt>
      <trkpt lat="44.1302" lon="5.17358">
        <ele>345</ele>
        <time>2020-07-11T06:06:14.584Z</time>
      </trkpt>
      <trkpt lat="44.13018" lon="5.1737">
        <ele>345</ele>
        <time>2020-07-11T06:06:15.584Z</time>
      </trkpt>
      <trkpt lat="44.13017" lon="5.17383">
        <ele>345</ele>
        <time>2020-07-11T06:06:16.584Z</time>
      </trkpt>
      <trkpt lat="44.13016" lon="5.17395">
        <ele>345</ele>
        <time>2020-07-11T06:06:17.583Z</time>
      </trkpt>
      <trkpt lat="44.13014" lon="5.17407">
        <ele>344</ele>
        <time>2020-07-11T06:06:18.583Z</time>
      </trkpt>
      <trkpt lat="44.13012" lon="5.17419">
        <ele>344</ele>
        <time>2020-07-11T06:06:19.584Z</time>
      </trkpt>
      <trkpt lat="44.1301" lon="5.1743">
        <ele>344</ele>
        <time>2020-07-11T06:06:20.583Z</time>
      </trkpt>
      <trkpt lat="44.13008" lon="5.17443">
        <ele>344</ele>
        <time>2020-07-11T06:06:21.584Z</time>
      </trkpt>
      <trkpt lat="44.13006" lon="5.17455">
        <ele>344</ele>
        <time>2020-07-11T06:06:22.583Z</time>
      </trkpt>
      <trkpt lat="44.13004" lon="5.17467">
        <ele>344</ele>
        <time>2020-07-11T06:06:23.583Z</time>
      </trkpt>
      <trkpt lat="44.13002" lon="5.1748">
        <ele>344</ele>
        <time>2020-07-11T06:06:24.584Z</time>
      </trkpt>
      <trkpt lat="44.13" lon="5.17493">
        <ele>343</ele>
        <time>2020-07-11T06:06:25.583Z</time>
      </trkpt>
      <trkpt lat="44.12998" lon="5.17505">
        <ele>343</ele>
        <time>2020-07-11T06:06:26.583Z</time>
      </trkpt>
      <trkpt lat="44.12996" lon="5.17518">
        <ele>343</ele>
        <time>2020-07-11T06:06:27.584Z</time>
      </trkpt>
      <trkpt lat="44.12994" lon="5.17531">
        <ele>343</ele>
        <time>2020-07-11T06:06:28.584Z</time>
      </trkpt>
      <trkpt lat="44.12992" lon="5.17544">
        <ele>343</ele>
        <time>2020-07-11T06:06:29.584Z</time>
      </trkpt>
      <trkpt lat="44.12989" lon="5.17556">
        <ele>342</ele>
        <time>2020-07-11T06:06:30.583Z</time>
      </trkpt>
      <trkpt lat="44.12987" lon="5.17569">
        <ele>342</ele>
        <time>2020-07-11T06:06:31.584Z</time>
      </trkpt>
      <trkpt lat="44.12983" lon="5.17581">
        <ele>341</ele>
        <time>2020-07-11T06:06:32.584Z</time>
      </trkpt>
      <trkpt lat="44.1298" lon="5.17593">
        <ele>341</ele>
        <time>2020-07-11T06:06:33.583Z</time>
      </trkpt>
      <trkpt lat="44.12976" lon="5.17604">
        <ele>340</ele>
        <time>2020-07-11T06:06:34.584Z</time>
      </trkpt>
      <trkpt lat="44.12971" lon="5.17616">
        <ele>339</ele>
        <time>2020-07-11T06:06:35.583Z</time>
      </trkpt>
      <trkpt lat="44.12967" lon="5.17627">
        <ele>339</ele>
        <time>2020-07-11T06:06:36.584Z</time>
      </trkpt>
      <trkpt lat="44.12961" lon="5.17638">
        <ele>338</ele>
        <time>2020-07-11T06:06:37.584Z</time>
      </trkpt>
      <trkpt lat="44.12955" lon="5.17648">
        <ele>337</ele>
        <time>2020-07-11T06:06:38.584Z</time>
      </trkpt>
      <trkpt lat="44.12949" lon="5.17658">
        <ele>337</ele>
        <time>2020-07-11T06:06:39.584Z</time>
      </trkpt>
      <trkpt lat="44.12942" lon="5.17667">
        <ele>337</ele>
        <time>2020-07-11T06:06:40.584Z</time>
      </trkpt>
      <trkpt lat="44.12935" lon="5.17675">
        <ele>336</ele>
        <time>2020-07-11T06:06:41.583Z</time>
      </trkpt>
      <trkpt lat="44.12928" lon="5.17682">
        <ele>336</ele>
        <time>2020-07-11T06:06:42.584Z</time>
      </trkpt>
      <trkpt lat="44.1292" lon="5.17689">
        <ele>336</ele>
        <time>2020-07-11T06:06:43.583Z</time>
      </trkpt>
      <trkpt lat="44.12913" lon="5.17695">
        <ele>335</ele>
        <time>2020-07-11T06:06:44.584Z</time>
      </trkpt>
      <trkpt lat="44.12906" lon="5.17702">
        <ele>335</ele>
        <time>2020-07-11T06:06:45.583Z</time>
      </trkpt>
      <trkpt lat="44.12899" lon="5.17708">
        <ele>335</ele>
        <time>2020-07-11T06:06:46.583Z</time>
      </trkpt>
      <trkpt lat="44.12892" lon="5.17713">
        <ele>334</ele>
        <time>2020-07-11T06:06:47.583Z</time>
      </trkpt>
      <trkpt lat="44.12885" lon="5.17719">
        <ele>334</ele>
        <time>2020-07-11T06:06:48.584Z</time>
      </trkpt>
      <trkpt lat="44.12878" lon="5.17725">
        <ele>334</ele>
        <time>2020-07-11T06:06:49.583Z</time>
      </trkpt>
      <trkpt lat="44.12871" lon="5.17731">
        <ele>333</ele>
        <time>2020-07-11T06:06:50.584Z</time>
      </trkpt>
      <trkpt lat="44.12864" lon="5.17736">
        <ele>332</ele>
        <time>2020-07-11T06:06:51.584Z</time>
      </trkpt>
      <trkpt lat="44.12857" lon="5.17741">
        <ele>332</ele>
        <time>2020-07-11T06:06:52.583Z</time>
      </trkpt>
      <trkpt lat="44.1285" lon="5.17747">
        <ele>332</ele>
        <time>2020-07-11T06:06:53.584Z</time>
      </trkpt>
      <trkpt lat="44.12844" lon="5.17753">
        <ele>332</ele>
        <time>2020-07-11T06:06:54.584Z</time>
      </trkpt>
      <trkpt lat="44.12837" lon="5.17759">
        <ele>331</ele>
        <time>2020-07-11T06:06:55.584Z</time>
      </trkpt>
      <trkpt lat="44.1283" lon="5.17765">
        <ele>331</ele>
        <time>2020-07-11T06:06:56.584Z</time>
      </trkpt>
      <trkpt lat="44.12823" lon="5.1777">
        <ele>331</ele>
        <time>2020-07-11T06:06:57.584Z</time>
      </trkpt>
      <trkpt lat="44.12816" lon="5.17775">
        <ele>330</ele>
        <time>2020-07-11T06:06:58.584Z</time>
      </trkpt>
      <trkpt lat="44.12809" lon="5.1778">
        <ele>330</ele>
        <time>2020-07-11T06:06:59.584Z</time>
      </trkpt>
      <trkpt lat="44.12802" lon="5.17786">
        <ele>330</ele>
        <time>2020-07-11T06:07:00.584Z</time>
      </trkpt>
      <trkpt lat="44.12795" lon="5.17791">
        <ele>329</ele>
        <time>2020-07-11T06:07:01.584Z</time>
      </trkpt>
      <trkpt lat="44.12788" lon="5.17797">
        <ele>329</ele>
        <time>2020-07-11T06:07:02.583Z</time>
      </trkpt>
      <trkpt lat="44.12782" lon="5.17802">
        <ele>329</ele>
        <time>2020-07-11T06:07:03.583Z</time>
      </trkpt>
      <trkpt lat="44.12775" lon="5.17808">
        <ele>329</ele>
        <time>2020-07-11T06:07:04.584Z</time>
      </trkpt>
      <trkpt lat="44.12768" lon="5.17814">
        <ele>328</ele>
        <time>2020-07-11T06:07:05.584Z</time>
      </trkpt>
      <trkpt lat="44.12762" lon="5.17819">
        <ele>328</ele>
        <time>2020-07-11T06:07:06.583Z</time>
      </trkpt>
      <trkpt lat="44.12755" lon="5.17824">
        <ele>328</ele>
        <time>2020-07-11T06:07:07.584Z</time>
      </trkpt>
      <trkpt lat="44.12749" lon="5.17829">
        <ele>328</ele>
        <time>2020-07-11T06:07:08.584Z</time>
      </trkpt>
      <trkpt lat="44.12742" lon="5.17834">
        <ele>327</ele>
        <time>2020-07-11T06:07:09.583Z</time>
      </trkpt>
      <trkpt lat="44.12736" lon="5.17839">
        <ele>327</ele>
        <time>2020-07-11T06:07:10.583Z</time>
      </trkpt>
      <trkpt lat="44.12729" lon="5.17845">
        <ele>327</ele>
        <time>2020-07-11T06:07:11.584Z</time>
      </trkpt>
      <trkpt lat="44.12722" lon="5.17851">
        <ele>327</ele>
        <time>2020-07-11T06:07:12.584Z</time>
      </trkpt>
      <trkpt lat="44.12716" lon="5.17856">
        <ele>327</ele>
        <time>2020-07-11T06:07:13.583Z</time>
      </trkpt>
      <trkpt lat="44.1271" lon="5.17861">
        <ele>327</ele>
        <time>2020-07-11T06:07:14.583Z</time>
      </trkpt>
      <trkpt lat="44.12704" lon="5.17866">
        <ele>328</ele>
        <time>2020-07-11T06:07:15.583Z</time>
      </trkpt>
      <trkpt lat="44.12697" lon="5.17872">
        <ele>328</ele>
        <time>2020-07-11T06:07:16.583Z</time>
      </trkpt>
      <trkpt lat="44.12691" lon="5.17877">
        <ele>327</ele>
        <time>2020-07-11T06:07:17.584Z</time>
      </trkpt>
      <trkpt lat="44.12684" lon="5.17882">
        <ele>327</ele>
        <time>2020-07-11T06:07:18.584Z</time>
      </trkpt>
      <trkpt lat="44.12678" lon="5.17888">
        <ele>327</ele>
        <time>2020-07-11T06:07:19.583Z</time>
      </trkpt>
      <trkpt lat="44.12671" lon="5.17893">
        <ele>326</ele>
        <time>2020-07-11T06:07:20.583Z</time>
      </trkpt>
      <trkpt lat="44.12664" lon="5.17899">
        <ele>325</ele>
        <time>2020-07-11T06:07:21.583Z</time>
      </trkpt>
      <trkpt lat="44.12657" lon="5.17905">
        <ele>325</ele>
        <time>2020-07-11T06:07:22.584Z</time>
      </trkpt>
      <trkpt lat="44.1265" lon="5.1791">
        <ele>324</ele>
        <time>2020-07-11T06:07:23.584Z</time>
      </trkpt>
      <trkpt lat="44.12643" lon="5.17916">
        <ele>323</ele>
        <time>2020-07-11T06:07:24.584Z</time>
      </trkpt>
      <trkpt lat="44.12636" lon="5.17922">
        <ele>323</ele>
        <time>2020-07-11T06:07:25.584Z</time>
      </trkpt>
      <trkpt lat="44.12629" lon="5.17928">
        <ele>323</ele>
        <time>2020-07-11T06:07:26.583Z</time>
      </trkpt>
      <trkpt lat="44.12622" lon="5.17933">
        <ele>322</ele>
        <time>2020-07-11T06:07:27.583Z</time>
      </trkpt>
      <trkpt lat="44.12616" lon="5.17938">
        <ele>322</ele>
        <time>2020-07-11T06:07:28.584Z</time>
      </trkpt>
      <trkpt lat="44.1261" lon="5.17943">
        <ele>322</ele>
        <time>2020-07-11T06:07:29.584Z</time>
      </trkpt>
      <trkpt lat="44.12604" lon="5.17948">
        <ele>322</ele>
        <time>2020-07-11T06:07:30.584Z</time>
      </trkpt>
      <trkpt lat="44.12598" lon="5.17954">
        <ele>322</ele>
        <time>2020-07-11T06:07:31.584Z</time>
      </trkpt>
      <trkpt lat="44.12592" lon="5.17959">
        <ele>322</ele>
        <time>2020-07-11T06:07:32.583Z</time>
      </trkpt>
      <trkpt lat="44.12585" lon="5.17964">
        <ele>321</ele>
        <time>2020-07-11T06:07:33.584Z</time>
      </trkpt>
      <trkpt lat="44.12579" lon="5.17969">
        <ele>321</ele>
        <time>2020-07-11T06:07:34.584Z</time>
      </trkpt>
      <trkpt lat="44.12573" lon="5.17974">
        <ele>320</ele>
        <time>2020-07-11T06:07:35.584Z</time>
      </trkpt>
      <trkpt lat="44.12567" lon="5.1798">
        <ele>320</ele>
        <time>2020-07-11T06:07:36.584Z</time>
      </trkpt>
      <trkpt lat="44.1256" lon="5.17985">
        <ele>319</ele>
        <time>2020-07-11T06:07:37.584Z</time>
      </trkpt>
      <trkpt lat="44.12554" lon="5.1799">
        <ele>319</ele>
        <time>2020-07-11T06:07:38.584Z</time>
      </trkpt>
      <trkpt lat="44.12548" lon="5.17995">
        <ele>319</ele>
        <time>2020-07-11T06:07:39.583Z</time>
      </trkpt>
      <trkpt lat="44.12543" lon="5.18">
        <ele>319</ele>
        <time>2020-07-11T06:07:40.584Z</time>
      </trkpt>
      <trkpt lat="44.12538" lon="5.18004">
        <ele>318</ele>
        <time>2020-07-11T06:07:41.584Z</time>
      </trkpt>
      <trkpt lat="44.12534" lon="5.18009">
        <ele>318</ele>
        <time>2020-07-11T06:07:42.584Z</time>
      </trkpt>
      <trkpt lat="44.12531" lon="5.18012">
        <ele>317</ele>
        <time>2020-07-11T06:07:43.583Z</time>
      </trkpt>
      <trkpt lat="44.12527" lon="5.18015">
        <ele>317</ele>
        <time>2020-07-11T06:07:44.584Z</time>
      </trkpt>
      <trkpt lat="44.12525" lon="5.18018">
        <ele>316</ele>
        <time>2020-07-11T06:07:45.584Z</time>
      </trkpt>
      <trkpt lat="44.12523" lon="5.1802">
        <ele>316</ele>
        <time>2020-07-11T06:07:46.584Z</time>
      </trkpt>
      <trkpt lat="44.12521" lon="5.18022">
        <ele>315</ele>
        <time>2020-07-11T06:07:47.584Z</time>
      </trkpt>
      <trkpt lat="44.12519" lon="5.18023">
        <ele>315</ele>
        <time>2020-07-11T06:07:48.584Z</time>
      </trkpt>
      <trkpt lat="44.12517" lon="5.18024">
        <ele>315</ele>
        <time>2020-07-11T06:07:49.584Z</time>
      </trkpt>
      <trkpt lat="44.12514" lon="5.18025">
        <ele>315</ele>
        <time>2020-07-11T06:07:50.584Z</time>
      </trkpt>
      <trkpt lat="44.12511" lon="5.18026">
        <ele>315</ele>
        <time>2020-07-11T06:07:51.584Z</time>
      </trkpt>
      <trkpt lat="44.12507" lon="5.18028">
        <ele>315</ele>
        <time>2020-07-11T06:07:52.584Z</time>
      </trkpt>
      <trkpt lat="44.12504" lon="5.18029">
        <ele>316</ele>
        <time>2020-07-11T06:07:53.583Z</time>
      </trkpt>
      <trkpt lat="44.12501" lon="5.18032">
        <ele>316</ele>
        <time>2020-07-11T06:07:54.583Z</time>
      </trkpt>
      <trkpt lat="44.12498" lon="5.18035">
        <ele>316</ele>
        <time>2020-07-11T06:07:55.584Z</time>
      </trkpt>
      <trkpt lat="44.12495" lon="5.18038">
        <ele>316</ele>
        <time>2020-07-11T06:07:56.583Z</time>
      </trkpt>
      <trkpt lat="44.12491" lon="5.18042">
        <ele>315</ele>
        <time>2020-07-11T06:07:57.584Z</time>
      </trkpt>
      <trkpt lat="44.12488" lon="5.18046">
        <ele>315</ele>
        <time>2020-07-11T06:07:58.583Z</time>
      </trkpt>
      <trkpt lat="44.12485" lon="5.18049">
        <ele>315</ele>
        <time>2020-07-11T06:07:59.584Z</time>
      </trkpt>
      <trkpt lat="44.12481" lon="5.18053">
        <ele>315</ele>
        <time>2020-07-11T06:08:00.584Z</time>
      </trkpt>
      <trkpt lat="44.12477" lon="5.18056">
        <ele>315</ele>
        <time>2020-07-11T06:08:01.584Z</time>
      </trkpt>
      <trkpt lat="44.12473" lon="5.18059">
        <ele>314</ele>
        <time>2020-07-11T06:08:02.584Z</time>
      </trkpt>
      <trkpt lat="44.12469" lon="5.18064">
        <ele>314</ele>
        <time>2020-07-11T06:08:03.584Z</time>
      </trkpt>
      <trkpt lat="44.12466" lon="5.18067">
        <ele>314</ele>
        <time>2020-07-11T06:08:04.584Z</time>
      </trkpt>
      <trkpt lat="44.12462" lon="5.1807">
        <ele>314</ele>
        <time>2020-07-11T06:08:05.584Z</time>
      </trkpt>
      <trkpt lat="44.12458" lon="5.18073">
        <ele>314</ele>
        <time>2020-07-11T06:08:06.584Z</time>
      </trkpt>
      <trkpt lat="44.12454" lon="5.18075">
        <ele>313</ele>
        <time>2020-07-11T06:08:07.584Z</time>
      </trkpt>
      <trkpt lat="44.1245" lon="5.18077">
        <ele>313</ele>
        <time>2020-07-11T06:08:08.583Z</time>
      </trkpt>
      <trkpt lat="44.12446" lon="5.18078">
        <ele>312</ele>
        <time>2020-07-11T06:08:09.583Z</time>
      </trkpt>
      <trkpt lat="44.12442" lon="5.1808">
        <ele>312</ele>
        <time>2020-07-11T06:08:10.583Z</time>
      </trkpt>
      <trkpt lat="44.12438" lon="5.18081">
        <ele>311</ele>
        <time>2020-07-11T06:08:11.584Z</time>
      </trkpt>
      <trkpt lat="44.12435" lon="5.18082">
        <ele>311</ele>
        <time>2020-07-11T06:08:12.583Z</time>
      </trkpt>
      <trkpt lat="44.12432" lon="5.18082">
        <ele>311</ele>
        <time>2020-07-11T06:08:13.583Z</time>
      </trkpt>
      <trkpt lat="44.12429" lon="5.18082">
        <ele>311</ele>
        <time>2020-07-11T06:08:14.584Z</time>
      </trkpt>
      <trkpt lat="44.12426" lon="5.18083">
        <ele>311</ele>
        <time>2020-07-11T06:08:15.584Z</time>
      </trkpt>
      <trkpt lat="44.12423" lon="5.18083">
        <ele>311</ele>
        <time>2020-07-11T06:08:16.584Z</time>
      </trkpt>
      <trkpt lat="44.1242" lon="5.18084">
        <ele>311</ele>
        <time>2020-07-11T06:08:17.584Z</time>
      </trkpt>
      <trkpt lat="44.12417" lon="5.18084">
        <ele>311</ele>
        <time>2020-07-11T06:08:18.584Z</time>
      </trkpt>
      <trkpt lat="44.12414" lon="5.18084">
        <ele>310</ele>
        <time>2020-07-11T06:08:19.584Z</time>
      </trkpt>
      <trkpt lat="44.1241" lon="5.18084">
        <ele>310</ele>
        <time>2020-07-11T06:08:20.583Z</time>
      </trkpt>
      <trkpt lat="44.12407" lon="5.18085">
        <ele>310</ele>
        <time>2020-07-11T06:08:21.584Z</time>
      </trkpt>
      <trkpt lat="44.12404" lon="5.18085">
        <ele>310</ele>
        <time>2020-07-11T06:08:22.584Z</time>
      </trkpt>
      <trkpt lat="44.124" lon="5.18085">
        <ele>311</ele>
        <time>2020-07-11T06:08:23.584Z</time>
      </trkpt>
      <trkpt lat="44.12398" lon="5.18085">
        <ele>311</ele>
        <time>2020-07-11T06:08:24.584Z</time>
      </trkpt>
      <trkpt lat="44.12395" lon="5.18085">
        <ele>310</ele>
        <time>2020-07-11T06:08:25.584Z</time>
      </trkpt>
      <trkpt lat="44.12392" lon="5.18085">
        <ele>310</ele>
        <time>2020-07-11T06:08:26.583Z</time>
      </trkpt>
      <trkpt lat="44.12388" lon="5.18084">
        <ele>309</ele>
        <time>2020-07-11T06:08:27.583Z</time>
      </trkpt>
      <trkpt lat="44.12386" lon="5.18084">
        <ele>309</ele>
        <time>2020-07-11T06:08:28.583Z</time>
      </trkpt>
      <trkpt lat="44.12383" lon="5.18083">
        <ele>308</ele>
        <time>2020-07-11T06:08:29.584Z</time>
      </trkpt>
      <trkpt lat="44.12382" lon="5.18082">
        <ele>308</ele>
        <time>2020-07-11T06:08:30.584Z</time>
      </trkpt>
      <trkpt lat="44.12381" lon="5.18081">
        <ele>307</ele>
        <time>2020-07-11T06:08:31.584Z</time>
      </trkpt>
      <trkpt lat="44.1238" lon="5.18081">
        <ele>307</ele>
        <time>2020-07-11T06:08:32.584Z</time>
      </trkpt>
      <trkpt lat="44.1238" lon="5.1808">
        <ele>307</ele>
        <time>2020-07-11T06:08:33.583Z</time>
      </trkpt>
      <trkpt lat="44.1238" lon="5.1808">
        <ele>307</ele>
        <time>2020-07-11T06:08:34.583Z</time>
      </trkpt>
      <trkpt lat="44.12378" lon="5.18077">
        <ele>309</ele>
        <time>2020-07-11T06:08:35.585Z</time>
      </trkpt>
      <trkpt lat="44.12378" lon="5.18077">
        <ele>309</ele>
        <time>2020-07-11T06:08:36.585Z</time>
      </trkpt>
      <trkpt lat="44.12378" lon="5.18077">
        <ele>309</ele>
        <time>2020-07-11T06:08:37.584Z</time>
      </trkpt>
      <trkpt lat="44.12374" lon="5.18073">
        <ele>307</ele>
        <time>2020-07-11T06:08:38.585Z</time>
      </trkpt>
      <trkpt lat="44.12373" lon="5.18072">
        <ele>307</ele>
        <time>2020-07-11T06:08:39.584Z</time>
      </trkpt>
      <trkpt lat="44.12373" lon="5.1807">
        <ele>307</ele>
        <time>2020-07-11T06:08:40.584Z</time>
      </trkpt>
      <trkpt lat="44.12374" lon="5.18069">
        <ele>306</ele>
        <time>2020-07-11T06:08:41.585Z</time>
      </trkpt>
      <trkpt lat="44.12374" lon="5.18069">
        <ele>306</ele>
        <time>2020-07-11T06:08:42.584Z</time>
      </trkpt>
      <trkpt lat="44.12373" lon="5.18069">
        <ele>306</ele>
        <time>2020-07-11T06:08:43.584Z</time>
      </trkpt>
      <trkpt lat="44.12372" lon="5.18069">
        <ele>306</ele>
        <time>2020-07-11T06:08:44.584Z</time>
      </trkpt>
      <trkpt lat="44.12372" lon="5.18069">
        <ele>307</ele>
        <time>2020-07-11T06:08:45.584Z</time>
      </trkpt>
      <trkpt lat="44.12372" lon="5.1807">
        <ele>307</ele>
        <time>2020-07-11T06:08:46.585Z</time>
      </trkpt>
      <trkpt lat="44.12373" lon="5.18074">
        <ele>312</ele>
        <time>2020-07-11T06:08:47.584Z</time>
      </trkpt>
      <trkpt lat="44.12374" lon="5.18075">
        <ele>312</ele>
        <time>2020-07-11T06:08:48.585Z</time>
      </trkpt>
      <trkpt lat="44.12374" lon="5.18075">
        <ele>312</ele>
        <time>2020-07-11T06:08:49.584Z</time>
      </trkpt>
      <trkpt lat="44.12373" lon="5.18075">
        <ele>312</ele>
        <time>2020-07-11T06:08:50.584Z</time>
      </trkpt>
      <trkpt lat="44.12373" lon="5.18075">
        <ele>313</ele>
        <time>2020-07-11T06:08:51.585Z</time>
      </trkpt>
      <trkpt lat="44.12373" lon="5.18075">
        <ele>313</ele>
        <time>2020-07-11T06:08:52.585Z</time>
      </trkpt>
      <trkpt lat="44.12374" lon="5.18076">
        <ele>313</ele>
        <time>2020-07-11T06:08:53.585Z</time>
      </trkpt>
      <trkpt lat="44.12374" lon="5.18076">
        <ele>313</ele>
        <time>2020-07-11T06:08:54.585Z</time>
      </trkpt>
      <trkpt lat="44.12373" lon="5.18076">
        <ele>313</ele>
        <time>2020-07-11T06:08:55.584Z</time>
      </trkpt>
      <trkpt lat="44.12373" lon="5.18074">
        <ele>313</ele>
        <time>2020-07-11T06:08:56.585Z</time>
      </trkpt>
      <trkpt lat="44.12373" lon="5.18075">
        <ele>313</ele>
        <time>2020-07-11T06:08:57.585Z</time>
      </trkpt>
      <trkpt lat="44.12374" lon="5.18086">
        <ele>313</ele>
        <time>2020-07-11T06:09:02.584Z</time>
      </trkpt>
      <trkpt lat="44.12373" lon="5.18084">
        <ele>314</ele>
        <time>2020-07-11T06:09:03.586Z</time>
      </trkpt>
      <trkpt lat="44.12373" lon="5.18084">
        <ele>314</ele>
        <time>2020-07-11T06:09:04.585Z</time>
      </trkpt>
      <trkpt lat="44.12373" lon="5.18077">
        <ele>314</ele>
        <time>2020-07-11T06:09:05.586Z</time>
      </trkpt>
      <trkpt lat="44.12373" lon="5.18077">
        <ele>314</ele>
        <time>2020-07-11T06:09:06.586Z</time>
      </trkpt>
      <trkpt lat="44.12373" lon="5.18076">
        <ele>314</ele>
        <time>2020-07-11T06:09:07.586Z</time>
      </trkpt>
      <trkpt lat="44.12373" lon="5.18075">
        <ele>314</ele>
        <time>2020-07-11T06:09:08.587Z</time>
      </trkpt>
      <trkpt lat="44.12374" lon="5.18075">
        <ele>315</ele>
        <time>2020-07-11T06:09:09.587Z</time>
      </trkpt>
      <trkpt lat="44.12373" lon="5.18075">
        <ele>315</ele>
        <time>2020-07-11T06:09:10.587Z</time>
      </trkpt>
      <trkpt lat="44.12372" lon="5.18075">
        <ele>315</ele>
        <time>2020-07-11T06:09:11.587Z</time>
      </trkpt>
      <trkpt lat="44.12371" lon="5.18075">
        <ele>316</ele>
        <time>2020-07-11T06:09:12.587Z</time>
      </trkpt>
      <trkpt lat="44.1237" lon="5.18075">
        <ele>316</ele>
        <time>2020-07-11T06:09:13.586Z</time>
      </trkpt>
      <trkpt lat="44.1237" lon="5.18075">
        <ele>317</ele>
        <time>2020-07-11T06:09:14.586Z</time>
      </trkpt>
      <trkpt lat="44.12372" lon="5.18077">
        <ele>317</ele>
        <time>2020-07-11T06:09:15.588Z</time>
      </trkpt>
      <trkpt lat="44.12372" lon="5.18077">
        <ele>317</ele>
        <time>2020-07-11T06:09:16.587Z</time>
      </trkpt>
      <trkpt lat="44.12371" lon="5.18079">
        <ele>317</ele>
        <time>2020-07-11T06:09:17.587Z</time>
      </trkpt>
      <trkpt lat="44.12371" lon="5.18078">
        <ele>317</ele>
        <time>2020-07-11T06:09:18.588Z</time>
      </trkpt>
      <trkpt lat="44.12366" lon="5.18079">
        <ele>309</ele>
        <time>2020-07-11T06:09:19.588Z</time>
      </trkpt>
      <trkpt lat="44.12366" lon="5.18079">
        <ele>309</ele>
        <time>2020-07-11T06:09:20.588Z</time>
      </trkpt>
      <trkpt lat="44.12366" lon="5.18079">
        <ele>309</ele>
        <time>2020-07-11T06:09:21.588Z</time>
      </trkpt>
      <trkpt lat="44.12366" lon="5.18079">
        <ele>309</ele>
        <time>2020-07-11T06:09:22.588Z</time>
      </trkpt>
      <trkpt lat="44.12366" lon="5.18079">
        <ele>309</ele>
        <time>2020-07-11T06:09:23.588Z</time>
      </trkpt>
      <trkpt lat="44.12366" lon="5.18079">
        <ele>309</ele>
        <time>2020-07-11T06:09:24.588Z</time>
      </trkpt>
      <trkpt lat="44.12366" lon="5.18078">
        <ele>309</ele>
        <time>2020-07-11T06:09:25.587Z</time>
      </trkpt>
      <trkpt lat="44.12366" lon="5.18078">
        <ele>309</ele>
        <time>2020-07-11T06:09:26.587Z</time>
      </trkpt>
      <trkpt lat="44.12366" lon="5.18078">
        <ele>309</ele>
        <time>2020-07-11T06:09:27.587Z</time>
      </trkpt>
      <trkpt lat="44.12364" lon="5.18078">
        <ele>309</ele>
        <time>2020-07-11T06:09:28.587Z</time>
      </trkpt>
      <trkpt lat="44.12361" lon="5.18077">
        <ele>309</ele>
        <time>2020-07-11T06:09:29.587Z</time>
      </trkpt>
      <trkpt lat="44.12359" lon="5.18076">
        <ele>309</ele>
        <time>2020-07-11T06:09:30.588Z</time>
      </trkpt>
      <trkpt lat="44.12357" lon="5.18075">
        <ele>309</ele>
        <time>2020-07-11T06:09:31.588Z</time>
      </trkpt>
      <trkpt lat="44.12355" lon="5.18074">
        <ele>309</ele>
        <time>2020-07-11T06:09:32.588Z</time>
      </trkpt>
      <trkpt lat="44.12354" lon="5.18073">
        <ele>309</ele>
        <time>2020-07-11T06:09:33.588Z</time>
      </trkpt>
      <trkpt lat="44.12353" lon="5.18071">
        <ele>309</ele>
        <time>2020-07-11T06:09:34.588Z</time>
      </trkpt>
      <trkpt lat="44.12353" lon="5.1807">
        <ele>309</ele>
        <time>2020-07-11T06:09:35.588Z</time>
      </trkpt>
      <trkpt lat="44.12352" lon="5.18069">
        <ele>309</ele>
        <time>2020-07-11T06:09:36.588Z</time>
      </trkpt>
      <trkpt lat="44.12351" lon="5.18069">
        <ele>309</ele>
        <time>2020-07-11T06:09:37.588Z</time>
      </trkpt>
      <trkpt lat="44.12351" lon="5.18068">
        <ele>310</ele>
        <time>2020-07-11T06:09:38.588Z</time>
      </trkpt>
      <trkpt lat="44.12349" lon="5.18067">
        <ele>311</ele>
        <time>2020-07-11T06:09:39.587Z</time>
      </trkpt>
      <trkpt lat="44.12348" lon="5.18065">
        <ele>311</ele>
        <time>2020-07-11T06:09:40.588Z</time>
      </trkpt>
      <trkpt lat="44.12346" lon="5.18063">
        <ele>311</ele>
        <time>2020-07-11T06:09:41.588Z</time>
      </trkpt>
      <trkpt lat="44.12343" lon="5.18061">
        <ele>311</ele>
        <time>2020-07-11T06:09:42.587Z</time>
      </trkpt>
      <trkpt lat="44.12341" lon="5.18059">
        <ele>311</ele>
        <time>2020-07-11T06:09:43.588Z</time>
      </trkpt>
      <trkpt lat="44.12338" lon="5.18056">
        <ele>310</ele>
        <time>2020-07-11T06:09:44.587Z</time>
      </trkpt>
      <trkpt lat="44.12335" lon="5.18054">
        <ele>310</ele>
        <time>2020-07-11T06:09:45.587Z</time>
      </trkpt>
      <trkpt lat="44.12332" lon="5.18051">
        <ele>309</ele>
        <time>2020-07-11T06:09:46.588Z</time>
      </trkpt>
      <trkpt lat="44.12329" lon="5.18048">
        <ele>309</ele>
        <time>2020-07-11T06:09:47.588Z</time>
      </trkpt>
      <trkpt lat="44.12325" lon="5.18046">
        <ele>309</ele>
        <time>2020-07-11T06:09:48.588Z</time>
      </trkpt>
      <trkpt lat="44.12322" lon="5.18044">
        <ele>308</ele>
        <time>2020-07-11T06:09:49.588Z</time>
      </trkpt>
      <trkpt lat="44.12322" lon="5.1804">
        <ele>309</ele>
        <time>2020-07-11T06:09:50.588Z</time>
      </trkpt>
      <trkpt lat="44.1232" lon="5.18037">
        <ele>308</ele>
        <time>2020-07-11T06:09:51.588Z</time>
      </trkpt>
      <trkpt lat="44.12319" lon="5.18034">
        <ele>308</ele>
        <time>2020-07-11T06:09:52.588Z</time>
      </trkpt>
      <trkpt lat="44.12317" lon="5.18031">
        <ele>307</ele>
        <time>2020-07-11T06:09:53.588Z</time>
      </trkpt>
      <trkpt lat="44.12315" lon="5.18031">
        <ele>307</ele>
        <time>2020-07-11T06:09:54.588Z</time>
      </trkpt>
      <trkpt lat="44.12313" lon="5.18032">
        <ele>307</ele>
        <time>2020-07-11T06:09:55.588Z</time>
      </trkpt>
      <trkpt lat="44.12312" lon="5.18034">
        <ele>307</ele>
        <time>2020-07-11T06:09:56.588Z</time>
      </trkpt>
      <trkpt lat="44.12312" lon="5.18037">
        <ele>306</ele>
        <time>2020-07-11T06:09:57.588Z</time>
      </trkpt>
      <trkpt lat="44.12314" lon="5.18041">
        <ele>305</ele>
        <time>2020-07-11T06:09:58.588Z</time>
      </trkpt>
      <trkpt lat="44.12316" lon="5.18046">
        <ele>305</ele>
        <time>2020-07-11T06:09:59.588Z</time>
      </trkpt>
      <trkpt lat="44.12317" lon="5.18051">
        <ele>304</ele>
        <time>2020-07-11T06:10:00.587Z</time>
      </trkpt>
      <trkpt lat="44.12319" lon="5.18057">
        <ele>304</ele>
        <time>2020-07-11T06:10:01.587Z</time>
      </trkpt>
      <trkpt lat="44.1232" lon="5.18066">
        <ele>303</ele>
        <time>2020-07-11T06:10:02.588Z</time>
      </trkpt>
      <trkpt lat="44.1232" lon="5.18073">
        <ele>303</ele>
        <time>2020-07-11T06:10:03.588Z</time>
      </trkpt>
      <trkpt lat="44.12321" lon="5.18081">
        <ele>303</ele>
        <time>2020-07-11T06:10:04.588Z</time>
      </trkpt>
      <trkpt lat="44.12322" lon="5.18088">
        <ele>303</ele>
        <time>2020-07-11T06:10:05.588Z</time>
      </trkpt>
      <trkpt lat="44.12322" lon="5.18096">
        <ele>303</ele>
        <time>2020-07-11T06:10:06.587Z</time>
      </trkpt>
      <trkpt lat="44.12323" lon="5.18105">
        <ele>303</ele>
        <time>2020-07-11T06:10:07.588Z</time>
      </trkpt>
      <trkpt lat="44.12324" lon="5.18112">
        <ele>303</ele>
        <time>2020-07-11T06:10:08.588Z</time>
      </trkpt>
      <trkpt lat="44.12324" lon="5.1812">
        <ele>303</ele>
        <time>2020-07-11T06:10:09.587Z</time>
      </trkpt>
      <trkpt lat="44.12324" lon="5.18126">
        <ele>304</ele>
        <time>2020-07-11T06:10:10.588Z</time>
      </trkpt>
      <trkpt lat="44.12325" lon="5.18132">
        <ele>304</ele>
        <time>2020-07-11T06:10:11.587Z</time>
      </trkpt>
      <trkpt lat="44.12325" lon="5.1814">
        <ele>304</ele>
        <time>2020-07-11T06:10:12.588Z</time>
      </trkpt>
      <trkpt lat="44.12326" lon="5.18147">
        <ele>303</ele>
        <time>2020-07-11T06:10:13.588Z</time>
      </trkpt>
      <trkpt lat="44.12326" lon="5.18153">
        <ele>303</ele>
        <time>2020-07-11T06:10:14.587Z</time>
      </trkpt>
      <trkpt lat="44.12326" lon="5.1816">
        <ele>303</ele>
        <time>2020-07-11T06:10:15.587Z</time>
      </trkpt>
      <trkpt lat="44.12326" lon="5.18167">
        <ele>303</ele>
        <time>2020-07-11T06:10:16.587Z</time>
      </trkpt>
      <trkpt lat="44.12326" lon="5.18173">
        <ele>303</ele>
        <time>2020-07-11T06:10:17.587Z</time>
      </trkpt>
      <trkpt lat="44.12326" lon="5.1818">
        <ele>303</ele>
        <time>2020-07-11T06:10:18.588Z</time>
      </trkpt>
      <trkpt lat="44.12325" lon="5.18187">
        <ele>304</ele>
        <time>2020-07-11T06:10:19.588Z</time>
      </trkpt>
      <trkpt lat="44.12324" lon="5.18193">
        <ele>304</ele>
        <time>2020-07-11T06:10:20.588Z</time>
      </trkpt>
      <trkpt lat="44.12323" lon="5.18201">
        <ele>304</ele>
        <time>2020-07-11T06:10:21.588Z</time>
      </trkpt>
      <trkpt lat="44.12322" lon="5.18206">
        <ele>304</ele>
        <time>2020-07-11T06:10:22.587Z</time>
      </trkpt>
      <trkpt lat="44.12321" lon="5.18212">
        <ele>303</ele>
        <time>2020-07-11T06:10:23.588Z</time>
      </trkpt>
      <trkpt lat="44.1232" lon="5.18218">
        <ele>303</ele>
        <time>2020-07-11T06:10:24.588Z</time>
      </trkpt>
      <trkpt lat="44.12318" lon="5.18224">
        <ele>302</ele>
        <time>2020-07-11T06:10:25.587Z</time>
      </trkpt>
      <trkpt lat="44.12317" lon="5.1823">
        <ele>302</ele>
        <time>2020-07-11T06:10:26.588Z</time>
      </trkpt>
      <trkpt lat="44.12315" lon="5.18236">
        <ele>301</ele>
        <time>2020-07-11T06:10:27.588Z</time>
      </trkpt>
      <trkpt lat="44.12313" lon="5.18241">
        <ele>301</ele>
        <time>2020-07-11T06:10:28.588Z</time>
      </trkpt>
      <trkpt lat="44.12311" lon="5.18247">
        <ele>301</ele>
        <time>2020-07-11T06:10:29.587Z</time>
      </trkpt>
      <trkpt lat="44.12309" lon="5.18253">
        <ele>301</ele>
        <time>2020-07-11T06:10:30.588Z</time>
      </trkpt>
      <trkpt lat="44.12306" lon="5.1826">
        <ele>301</ele>
        <time>2020-07-11T06:10:31.588Z</time>
      </trkpt>
      <trkpt lat="44.12303" lon="5.18266">
        <ele>300</ele>
        <time>2020-07-11T06:10:32.588Z</time>
      </trkpt>
      <trkpt lat="44.123" lon="5.18273">
        <ele>300</ele>
        <time>2020-07-11T06:10:33.588Z</time>
      </trkpt>
      <trkpt lat="44.12297" lon="5.18279">
        <ele>301</ele>
        <time>2020-07-11T06:10:34.588Z</time>
      </trkpt>
      <trkpt lat="44.12294" lon="5.18284">
        <ele>301</ele>
        <time>2020-07-11T06:10:35.587Z</time>
      </trkpt>
      <trkpt lat="44.1229" lon="5.18291">
        <ele>301</ele>
        <time>2020-07-11T06:10:36.588Z</time>
      </trkpt>
      <trkpt lat="44.12287" lon="5.18297">
        <ele>301</ele>
        <time>2020-07-11T06:10:37.588Z</time>
      </trkpt>
      <trkpt lat="44.12284" lon="5.18302">
        <ele>301</ele>
        <time>2020-07-11T06:10:38.588Z</time>
      </trkpt>
      <trkpt lat="44.12281" lon="5.18308">
        <ele>301</ele>
        <time>2020-07-11T06:10:39.587Z</time>
      </trkpt>
      <trkpt lat="44.12277" lon="5.18313">
        <ele>301</ele>
        <time>2020-07-11T06:10:40.588Z</time>
      </trkpt>
      <trkpt lat="44.12274" lon="5.18318">
        <ele>301</ele>
        <time>2020-07-11T06:10:41.588Z</time>
      </trkpt>
      <trkpt lat="44.12271" lon="5.18324">
        <ele>301</ele>
        <time>2020-07-11T06:10:42.588Z</time>
      </trkpt>
      <trkpt lat="44.12268" lon="5.18329">
        <ele>302</ele>
        <time>2020-07-11T06:10:43.588Z</time>
      </trkpt>
      <trkpt lat="44.12265" lon="5.18334">
        <ele>302</ele>
        <time>2020-07-11T06:10:44.588Z</time>
      </trkpt>
      <trkpt lat="44.12262" lon="5.18339">
        <ele>302</ele>
        <time>2020-07-11T06:10:45.587Z</time>
      </trkpt>
      <trkpt lat="44.12259" lon="5.18344">
        <ele>303</ele>
        <time>2020-07-11T06:10:46.588Z</time>
      </trkpt>
      <trkpt lat="44.12256" lon="5.18349">
        <ele>303</ele>
        <time>2020-07-11T06:10:47.588Z</time>
      </trkpt>
      <trkpt lat="44.12253" lon="5.18354">
        <ele>304</ele>
        <time>2020-07-11T06:10:48.588Z</time>
      </trkpt>
      <trkpt lat="44.1225" lon="5.18358">
        <ele>304</ele>
        <time>2020-07-11T06:10:49.588Z</time>
      </trkpt>
      <trkpt lat="44.12246" lon="5.18364">
        <ele>304</ele>
        <time>2020-07-11T06:10:50.588Z</time>
      </trkpt>
      <trkpt lat="44.12243" lon="5.18369">
        <ele>305</ele>
        <time>2020-07-11T06:10:51.587Z</time>
      </trkpt>
      <trkpt lat="44.12239" lon="5.18374">
        <ele>305</ele>
        <time>2020-07-11T06:10:52.587Z</time>
      </trkpt>
      <trkpt lat="44.12237" lon="5.18378">
        <ele>305</ele>
        <time>2020-07-11T06:10:53.588Z</time>
      </trkpt>
      <trkpt lat="44.12233" lon="5.18384">
        <ele>305</ele>
        <time>2020-07-11T06:10:54.588Z</time>
      </trkpt>
      <trkpt lat="44.1223" lon="5.18388">
        <ele>306</ele>
        <time>2020-07-11T06:10:55.587Z</time>
      </trkpt>
      <trkpt lat="44.12227" lon="5.18393">
        <ele>306</ele>
        <time>2020-07-11T06:10:56.588Z</time>
      </trkpt>
      <trkpt lat="44.12224" lon="5.18398">
        <ele>307</ele>
        <time>2020-07-11T06:10:57.588Z</time>
      </trkpt>
      <trkpt lat="44.12222" lon="5.18402">
        <ele>307</ele>
        <time>2020-07-11T06:10:58.588Z</time>
      </trkpt>
      <trkpt lat="44.12218" lon="5.18407">
        <ele>307</ele>
        <time>2020-07-11T06:10:59.587Z</time>
      </trkpt>
      <trkpt lat="44.12215" lon="5.18411">
        <ele>307</ele>
        <time>2020-07-11T06:11:00.587Z</time>
      </trkpt>
      <trkpt lat="44.12212" lon="5.18416">
        <ele>308</ele>
        <time>2020-07-11T06:11:01.588Z</time>
      </trkpt>
      <trkpt lat="44.12208" lon="5.1842">
        <ele>308</ele>
        <time>2020-07-11T06:11:02.588Z</time>
      </trkpt>
      <trkpt lat="44.12206" lon="5.18424">
        <ele>308</ele>
        <time>2020-07-11T06:11:03.587Z</time>
      </trkpt>
      <trkpt lat="44.12203" lon="5.18429">
        <ele>308</ele>
        <time>2020-07-11T06:11:04.588Z</time>
      </trkpt>
      <trkpt lat="44.122" lon="5.18433">
        <ele>309</ele>
        <time>2020-07-11T06:11:05.587Z</time>
      </trkpt>
      <trkpt lat="44.12197" lon="5.18438">
        <ele>309</ele>
        <time>2020-07-11T06:11:06.588Z</time>
      </trkpt>
      <trkpt lat="44.12195" lon="5.18443">
        <ele>310</ele>
        <time>2020-07-11T06:11:07.588Z</time>
      </trkpt>
      <trkpt lat="44.12192" lon="5.18447">
        <ele>310</ele>
        <time>2020-07-11T06:11:08.588Z</time>
      </trkpt>
      <trkpt lat="44.12189" lon="5.18452">
        <ele>311</ele>
        <time>2020-07-11T06:11:09.588Z</time>
      </trkpt>
      <trkpt lat="44.12186" lon="5.18457">
        <ele>311</ele>
        <time>2020-07-11T06:11:10.587Z</time>
      </trkpt>
      <trkpt lat="44.12183" lon="5.18462">
        <ele>311</ele>
        <time>2020-07-11T06:11:11.587Z</time>
      </trkpt>
      <trkpt lat="44.12181" lon="5.18467">
        <ele>311</ele>
        <time>2020-07-11T06:11:12.587Z</time>
      </trkpt>
      <trkpt lat="44.12177" lon="5.18473">
        <ele>312</ele>
        <time>2020-07-11T06:11:13.588Z</time>
      </trkpt>
      <trkpt lat="44.12175" lon="5.18476">
        <ele>312</ele>
        <time>2020-07-11T06:11:14.588Z</time>
      </trkpt>
      <trkpt lat="44.12172" lon="5.18481">
        <ele>313</ele>
        <time>2020-07-11T06:11:15.588Z</time>
      </trkpt>
      <trkpt lat="44.12168" lon="5.18485">
        <ele>313</ele>
        <time>2020-07-11T06:11:16.588Z</time>
      </trkpt>
      <trkpt lat="44.12164" lon="5.18489">
        <ele>314</ele>
        <time>2020-07-11T06:11:17.588Z</time>
      </trkpt>
      <trkpt lat="44.12161" lon="5.18492">
        <ele>314</ele>
        <time>2020-07-11T06:11:18.587Z</time>
      </trkpt>
      <trkpt lat="44.12157" lon="5.18495">
        <ele>315</ele>
        <time>2020-07-11T06:11:19.587Z</time>
      </trkpt>
      <trkpt lat="44.12153" lon="5.18499">
        <ele>316</ele>
        <time>2020-07-11T06:11:20.587Z</time>
      </trkpt>
      <trkpt lat="44.12148" lon="5.18502">
        <ele>316</ele>
        <time>2020-07-11T06:11:21.588Z</time>
      </trkpt>
      <trkpt lat="44.12143" lon="5.18507">
        <ele>317</ele>
        <time>2020-07-11T06:11:22.588Z</time>
      </trkpt>
      <trkpt lat="44.12138" lon="5.1851">
        <ele>317</ele>
        <time>2020-07-11T06:11:23.587Z</time>
      </trkpt>
      <trkpt lat="44.12132" lon="5.18514">
        <ele>317</ele>
        <time>2020-07-11T06:11:24.587Z</time>
      </trkpt>
      <trkpt lat="44.12127" lon="5.18517">
        <ele>318</ele>
        <time>2020-07-11T06:11:25.587Z</time>
      </trkpt>
      <trkpt lat="44.12122" lon="5.18519">
        <ele>318</ele>
        <time>2020-07-11T06:11:26.588Z</time>
      </trkpt>
      <trkpt lat="44.12118" lon="5.18521">
        <ele>318</ele>
        <time>2020-07-11T06:11:27.587Z</time>
      </trkpt>
      <trkpt lat="44.12113" lon="5.18524">
        <ele>319</ele>
        <time>2020-07-11T06:11:28.587Z</time>
      </trkpt>
      <trkpt lat="44.12109" lon="5.18527">
        <ele>319</ele>
        <time>2020-07-11T06:11:29.587Z</time>
      </trkpt>
      <trkpt lat="44.12104" lon="5.1853">
        <ele>319</ele>
        <time>2020-07-11T06:11:30.587Z</time>
      </trkpt>
      <trkpt lat="44.12099" lon="5.18533">
        <ele>319</ele>
        <time>2020-07-11T06:11:31.588Z</time>
      </trkpt>
      <trkpt lat="44.12095" lon="5.18535">
        <ele>319</ele>
        <time>2020-07-11T06:11:32.588Z</time>
      </trkpt>
      <trkpt lat="44.1209" lon="5.18538">
        <ele>319</ele>
        <time>2020-07-11T06:11:33.588Z</time>
      </trkpt>
      <trkpt lat="44.12085" lon="5.18541">
        <ele>320</ele>
        <time>2020-07-11T06:11:34.587Z</time>
      </trkpt>
      <trkpt lat="44.1208" lon="5.18544">
        <ele>320</ele>
        <time>2020-07-11T06:11:35.588Z</time>
      </trkpt>
      <trkpt lat="44.12076" lon="5.18547">
        <ele>320</ele>
        <time>2020-07-11T06:11:36.588Z</time>
      </trkpt>
      <trkpt lat="44.12072" lon="5.18549">
        <ele>320</ele>
        <time>2020-07-11T06:11:37.588Z</time>
      </trkpt>
      <trkpt lat="44.12067" lon="5.18552">
        <ele>321</ele>
        <time>2020-07-11T06:11:38.588Z</time>
      </trkpt>
      <trkpt lat="44.12062" lon="5.18555">
        <ele>321</ele>
        <time>2020-07-11T06:11:39.588Z</time>
      </trkpt>
      <trkpt lat="44.12058" lon="5.18558">
        <ele>321</ele>
        <time>2020-07-11T06:11:40.587Z</time>
      </trkpt>
      <trkpt lat="44.12054" lon="5.18561">
        <ele>321</ele>
        <time>2020-07-11T06:11:41.588Z</time>
      </trkpt>
      <trkpt lat="44.12049" lon="5.18564">
        <ele>321</ele>
        <time>2020-07-11T06:11:42.588Z</time>
      </trkpt>
      <trkpt lat="44.12045" lon="5.18567">
        <ele>321</ele>
        <time>2020-07-11T06:11:43.587Z</time>
      </trkpt>
      <trkpt lat="44.12041" lon="5.18571">
        <ele>321</ele>
        <time>2020-07-11T06:11:44.587Z</time>
      </trkpt>
      <trkpt lat="44.12036" lon="5.18575">
        <ele>321</ele>
        <time>2020-07-11T06:11:45.587Z</time>
      </trkpt>
      <trkpt lat="44.12032" lon="5.18578">
        <ele>321</ele>
        <time>2020-07-11T06:11:46.588Z</time>
      </trkpt>
      <trkpt lat="44.12027" lon="5.18582">
        <ele>321</ele>
        <time>2020-07-11T06:11:47.588Z</time>
      </trkpt>
      <trkpt lat="44.12023" lon="5.18587">
        <ele>321</ele>
        <time>2020-07-11T06:11:48.588Z</time>
      </trkpt>
      <trkpt lat="44.12018" lon="5.18592">
        <ele>320</ele>
        <time>2020-07-11T06:11:49.587Z</time>
      </trkpt>
      <trkpt lat="44.12015" lon="5.18596">
        <ele>320</ele>
        <time>2020-07-11T06:11:50.588Z</time>
      </trkpt>
      <trkpt lat="44.12011" lon="5.18601">
        <ele>320</ele>
        <time>2020-07-11T06:11:51.588Z</time>
      </trkpt>
      <trkpt lat="44.12007" lon="5.18607">
        <ele>320</ele>
        <time>2020-07-11T06:11:52.588Z</time>
      </trkpt>
      <trkpt lat="44.12004" lon="5.18611">
        <ele>320</ele>
        <time>2020-07-11T06:11:53.588Z</time>
      </trkpt>
      <trkpt lat="44.11999" lon="5.18618">
        <ele>321</ele>
        <time>2020-07-11T06:11:54.587Z</time>
      </trkpt>
      <trkpt lat="44.11996" lon="5.18623">
        <ele>321</ele>
        <time>2020-07-11T06:11:55.587Z</time>
      </trkpt>
      <trkpt lat="44.11993" lon="5.18628">
        <ele>321</ele>
        <time>2020-07-11T06:11:56.588Z</time>
      </trkpt>
      <trkpt lat="44.11989" lon="5.18635">
        <ele>321</ele>
        <time>2020-07-11T06:11:57.588Z</time>
      </trkpt>
      <trkpt lat="44.11986" lon="5.1864">
        <ele>321</ele>
        <time>2020-07-11T06:11:58.588Z</time>
      </trkpt>
      <trkpt lat="44.11982" lon="5.18646">
        <ele>321</ele>
        <time>2020-07-11T06:11:59.587Z</time>
      </trkpt>
      <trkpt lat="44.1198" lon="5.1865">
        <ele>321</ele>
        <time>2020-07-11T06:12:00.588Z</time>
      </trkpt>
      <trkpt lat="44.11977" lon="5.18656">
        <ele>321</ele>
        <time>2020-07-11T06:12:01.587Z</time>
      </trkpt>
      <trkpt lat="44.11973" lon="5.18662">
        <ele>320</ele>
        <time>2020-07-11T06:12:02.588Z</time>
      </trkpt>
      <trkpt lat="44.1197" lon="5.18667">
        <ele>320</ele>
        <time>2020-07-11T06:12:03.588Z</time>
      </trkpt>
      <trkpt lat="44.11967" lon="5.18673">
        <ele>320</ele>
        <time>2020-07-11T06:12:04.587Z</time>
      </trkpt>
      <trkpt lat="44.11964" lon="5.18677">
        <ele>320</ele>
        <time>2020-07-11T06:12:05.587Z</time>
      </trkpt>
      <trkpt lat="44.11961" lon="5.18682">
        <ele>320</ele>
        <time>2020-07-11T06:12:06.588Z</time>
      </trkpt>
      <trkpt lat="44.11958" lon="5.18688">
        <ele>320</ele>
        <time>2020-07-11T06:12:07.587Z</time>
      </trkpt>
      <trkpt lat="44.11954" lon="5.18693">
        <ele>321</ele>
        <time>2020-07-11T06:12:08.587Z</time>
      </trkpt>
      <trkpt lat="44.11951" lon="5.18699">
        <ele>320</ele>
        <time>2020-07-11T06:12:09.587Z</time>
      </trkpt>
      <trkpt lat="44.11948" lon="5.18704">
        <ele>320</ele>
        <time>2020-07-11T06:12:10.587Z</time>
      </trkpt>
      <trkpt lat="44.11944" lon="5.1871">
        <ele>320</ele>
        <time>2020-07-11T06:12:11.587Z</time>
      </trkpt>
      <trkpt lat="44.1194" lon="5.18717">
        <ele>320</ele>
        <time>2020-07-11T06:12:12.588Z</time>
      </trkpt>
      <trkpt lat="44.11936" lon="5.18722">
        <ele>320</ele>
        <time>2020-07-11T06:12:13.588Z</time>
      </trkpt>
      <trkpt lat="44.11933" lon="5.18728">
        <ele>320</ele>
        <time>2020-07-11T06:12:14.587Z</time>
      </trkpt>
      <trkpt lat="44.11931" lon="5.18732">
        <ele>320</ele>
        <time>2020-07-11T06:12:15.588Z</time>
      </trkpt>
      <trkpt lat="44.11928" lon="5.18737">
        <ele>320</ele>
        <time>2020-07-11T06:12:16.587Z</time>
      </trkpt>
      <trkpt lat="44.11924" lon="5.18744">
        <ele>320</ele>
        <time>2020-07-11T06:12:17.587Z</time>
      </trkpt>
      <trkpt lat="44.11922" lon="5.18748">
        <ele>320</ele>
        <time>2020-07-11T06:12:18.588Z</time>
      </trkpt>
      <trkpt lat="44.11918" lon="5.18755">
        <ele>321</ele>
        <time>2020-07-11T06:12:19.588Z</time>
      </trkpt>
      <trkpt lat="44.11915" lon="5.18759">
        <ele>321</ele>
        <time>2020-07-11T06:12:20.587Z</time>
      </trkpt>
      <trkpt lat="44.11911" lon="5.18765">
        <ele>322</ele>
        <time>2020-07-11T06:12:21.588Z</time>
      </trkpt>
      <trkpt lat="44.11908" lon="5.18771">
        <ele>322</ele>
        <time>2020-07-11T06:12:22.587Z</time>
      </trkpt>
      <trkpt lat="44.11904" lon="5.18776">
        <ele>323</ele>
        <time>2020-07-11T06:12:23.587Z</time>
      </trkpt>
      <trkpt lat="44.11901" lon="5.18781">
        <ele>323</ele>
        <time>2020-07-11T06:12:24.587Z</time>
      </trkpt>
      <trkpt lat="44.11899" lon="5.18786">
        <ele>323</ele>
        <time>2020-07-11T06:12:25.588Z</time>
      </trkpt>
      <trkpt lat="44.11895" lon="5.18791">
        <ele>323</ele>
        <time>2020-07-11T06:12:26.588Z</time>
      </trkpt>
      <trkpt lat="44.11892" lon="5.18796">
        <ele>323</ele>
        <time>2020-07-11T06:12:27.588Z</time>
      </trkpt>
      <trkpt lat="44.11889" lon="5.188">
        <ele>324</ele>
        <time>2020-07-11T06:12:28.588Z</time>
      </trkpt>
      <trkpt lat="44.11886" lon="5.18805">
        <ele>324</ele>
        <time>2020-07-11T06:12:29.587Z</time>
      </trkpt>
      <trkpt lat="44.11882" lon="5.18809">
        <ele>323</ele>
        <time>2020-07-11T06:12:30.588Z</time>
      </trkpt>
      <trkpt lat="44.11879" lon="5.18814">
        <ele>323</ele>
        <time>2020-07-11T06:12:31.588Z</time>
      </trkpt>
      <trkpt lat="44.11874" lon="5.18819">
        <ele>323</ele>
        <time>2020-07-11T06:12:32.587Z</time>
      </trkpt>
      <trkpt lat="44.1187" lon="5.18824">
        <ele>323</ele>
        <time>2020-07-11T06:12:33.588Z</time>
      </trkpt>
      <trkpt lat="44.11867" lon="5.18828">
        <ele>324</ele>
        <time>2020-07-11T06:12:34.587Z</time>
      </trkpt>
      <trkpt lat="44.11863" lon="5.18831">
        <ele>324</ele>
        <time>2020-07-11T06:12:35.587Z</time>
      </trkpt>
      <trkpt lat="44.11858" lon="5.18836">
        <ele>325</ele>
        <time>2020-07-11T06:12:36.588Z</time>
      </trkpt>
      <trkpt lat="44.11855" lon="5.18839">
        <ele>325</ele>
        <time>2020-07-11T06:12:37.588Z</time>
      </trkpt>
      <trkpt lat="44.11851" lon="5.18842">
        <ele>326</ele>
        <time>2020-07-11T06:12:38.588Z</time>
      </trkpt>
      <trkpt lat="44.11846" lon="5.18845">
        <ele>326</ele>
        <time>2020-07-11T06:12:39.588Z</time>
      </trkpt>
      <trkpt lat="44.11841" lon="5.18848">
        <ele>326</ele>
        <time>2020-07-11T06:12:40.587Z</time>
      </trkpt>
      <trkpt lat="44.11836" lon="5.18851">
        <ele>326</ele>
        <time>2020-07-11T06:12:41.588Z</time>
      </trkpt>
      <trkpt lat="44.11831" lon="5.18855">
        <ele>326</ele>
        <time>2020-07-11T06:12:42.587Z</time>
      </trkpt>
      <trkpt lat="44.11826" lon="5.18859">
        <ele>327</ele>
        <time>2020-07-11T06:12:43.588Z</time>
      </trkpt>
      <trkpt lat="44.11822" lon="5.18862">
        <ele>327</ele>
        <time>2020-07-11T06:12:44.588Z</time>
      </trkpt>
      <trkpt lat="44.11816" lon="5.18866">
        <ele>327</ele>
        <time>2020-07-11T06:12:45.588Z</time>
      </trkpt>
      <trkpt lat="44.11812" lon="5.18869">
        <ele>327</ele>
        <time>2020-07-11T06:12:46.588Z</time>
      </trkpt>
      <trkpt lat="44.11807" lon="5.18871">
        <ele>327</ele>
        <time>2020-07-11T06:12:47.587Z</time>
      </trkpt>
      <trkpt lat="44.11802" lon="5.18875">
        <ele>327</ele>
        <time>2020-07-11T06:12:48.588Z</time>
      </trkpt>
      <trkpt lat="44.11797" lon="5.18879">
        <ele>327</ele>
        <time>2020-07-11T06:12:49.588Z</time>
      </trkpt>
      <trkpt lat="44.11792" lon="5.18882">
        <ele>327</ele>
        <time>2020-07-11T06:12:50.587Z</time>
      </trkpt>
      <trkpt lat="44.11787" lon="5.18887">
        <ele>327</ele>
        <time>2020-07-11T06:12:51.588Z</time>
      </trkpt>
      <trkpt lat="44.1178" lon="5.18893">
        <ele>327</ele>
        <time>2020-07-11T06:12:52.587Z</time>
      </trkpt>
      <trkpt lat="44.11777" lon="5.18897">
        <ele>328</ele>
        <time>2020-07-11T06:12:53.588Z</time>
      </trkpt>
      <trkpt lat="44.11772" lon="5.18903">
        <ele>328</ele>
        <time>2020-07-11T06:12:54.588Z</time>
      </trkpt>
      <trkpt lat="44.11767" lon="5.18909">
        <ele>328</ele>
        <time>2020-07-11T06:12:55.587Z</time>
      </trkpt>
      <trkpt lat="44.11764" lon="5.18914">
        <ele>328</ele>
        <time>2020-07-11T06:12:56.587Z</time>
      </trkpt>
      <trkpt lat="44.1176" lon="5.1892">
        <ele>328</ele>
        <time>2020-07-11T06:12:57.588Z</time>
      </trkpt>
      <trkpt lat="44.11756" lon="5.18927">
        <ele>328</ele>
        <time>2020-07-11T06:12:58.588Z</time>
      </trkpt>
      <trkpt lat="44.11752" lon="5.18933">
        <ele>328</ele>
        <time>2020-07-11T06:12:59.588Z</time>
      </trkpt>
      <trkpt lat="44.11749" lon="5.1894">
        <ele>328</ele>
        <time>2020-07-11T06:13:00.588Z</time>
      </trkpt>
      <trkpt lat="44.11746" lon="5.18948">
        <ele>328</ele>
        <time>2020-07-11T06:13:01.588Z</time>
      </trkpt>
      <trkpt lat="44.11743" lon="5.18955">
        <ele>327</ele>
        <time>2020-07-11T06:13:02.588Z</time>
      </trkpt>
      <trkpt lat="44.11741" lon="5.18963">
        <ele>327</ele>
        <time>2020-07-11T06:13:03.587Z</time>
      </trkpt>
      <trkpt lat="44.11739" lon="5.1897">
        <ele>327</ele>
        <time>2020-07-11T06:13:04.588Z</time>
      </trkpt>
      <trkpt lat="44.11737" lon="5.18978">
        <ele>327</ele>
        <time>2020-07-11T06:13:05.588Z</time>
      </trkpt>
      <trkpt lat="44.11735" lon="5.18985">
        <ele>327</ele>
        <time>2020-07-11T06:13:06.588Z</time>
      </trkpt>
      <trkpt lat="44.11732" lon="5.18993">
        <ele>327</ele>
        <time>2020-07-11T06:13:07.588Z</time>
      </trkpt>
      <trkpt lat="44.1173" lon="5.19">
        <ele>327</ele>
        <time>2020-07-11T06:13:08.588Z</time>
      </trkpt>
      <trkpt lat="44.11728" lon="5.19007">
        <ele>327</ele>
        <time>2020-07-11T06:13:09.588Z</time>
      </trkpt>
      <trkpt lat="44.11726" lon="5.19014">
        <ele>327</ele>
        <time>2020-07-11T06:13:10.588Z</time>
      </trkpt>
      <trkpt lat="44.11724" lon="5.19021">
        <ele>327</ele>
        <time>2020-07-11T06:13:11.588Z</time>
      </trkpt>
      <trkpt lat="44.11722" lon="5.19028">
        <ele>327</ele>
        <time>2020-07-11T06:13:12.588Z</time>
      </trkpt>
      <trkpt lat="44.1172" lon="5.19035">
        <ele>327</ele>
        <time>2020-07-11T06:13:13.587Z</time>
      </trkpt>
      <trkpt lat="44.11718" lon="5.19042">
        <ele>327</ele>
        <time>2020-07-11T06:13:14.588Z</time>
      </trkpt>
      <trkpt lat="44.11716" lon="5.19049">
        <ele>328</ele>
        <time>2020-07-11T06:13:15.588Z</time>
      </trkpt>
      <trkpt lat="44.11714" lon="5.19056">
        <ele>328</ele>
        <time>2020-07-11T06:13:16.588Z</time>
      </trkpt>
      <trkpt lat="44.11712" lon="5.19064">
        <ele>328</ele>
        <time>2020-07-11T06:13:17.588Z</time>
      </trkpt>
      <trkpt lat="44.1171" lon="5.19071">
        <ele>329</ele>
        <time>2020-07-11T06:13:18.587Z</time>
      </trkpt>
      <trkpt lat="44.11707" lon="5.19079">
        <ele>329</ele>
        <time>2020-07-11T06:13:19.588Z</time>
      </trkpt>
      <trkpt lat="44.11705" lon="5.19087">
        <ele>329</ele>
        <time>2020-07-11T06:13:20.588Z</time>
      </trkpt>
      <trkpt lat="44.11703" lon="5.19096">
        <ele>329</ele>
        <time>2020-07-11T06:13:21.587Z</time>
      </trkpt>
      <trkpt lat="44.11701" lon="5.19102">
        <ele>329</ele>
        <time>2020-07-11T06:13:22.588Z</time>
      </trkpt>
      <trkpt lat="44.11699" lon="5.1911">
        <ele>329</ele>
        <time>2020-07-11T06:13:23.588Z</time>
      </trkpt>
      <trkpt lat="44.11697" lon="5.19116">
        <ele>329</ele>
        <time>2020-07-11T06:13:24.588Z</time>
      </trkpt>
      <trkpt lat="44.11695" lon="5.19122">
        <ele>329</ele>
        <time>2020-07-11T06:13:25.587Z</time>
      </trkpt>
      <trkpt lat="44.11693" lon="5.19128">
        <ele>329</ele>
        <time>2020-07-11T06:13:26.588Z</time>
      </trkpt>
      <trkpt lat="44.11691" lon="5.19134">
        <ele>329</ele>
        <time>2020-07-11T06:13:27.588Z</time>
      </trkpt>
      <trkpt lat="44.11689" lon="5.19141">
        <ele>329</ele>
        <time>2020-07-11T06:13:28.588Z</time>
      </trkpt>
      <trkpt lat="44.11687" lon="5.19148">
        <ele>328</ele>
        <time>2020-07-11T06:13:29.587Z</time>
      </trkpt>
      <trkpt lat="44.11685" lon="5.19155">
        <ele>328</ele>
        <time>2020-07-11T06:13:30.587Z</time>
      </trkpt>
      <trkpt lat="44.11683" lon="5.19162">
        <ele>328</ele>
        <time>2020-07-11T06:13:31.588Z</time>
      </trkpt>
      <trkpt lat="44.11681" lon="5.19169">
        <ele>329</ele>
        <time>2020-07-11T06:13:32.588Z</time>
      </trkpt>
      <trkpt lat="44.11679" lon="5.19175">
        <ele>329</ele>
        <time>2020-07-11T06:13:33.588Z</time>
      </trkpt>
      <trkpt lat="44.11676" lon="5.19183">
        <ele>329</ele>
        <time>2020-07-11T06:13:34.588Z</time>
      </trkpt>
      <trkpt lat="44.11674" lon="5.19189">
        <ele>329</ele>
        <time>2020-07-11T06:13:35.588Z</time>
      </trkpt>
      <trkpt lat="44.11672" lon="5.19196">
        <ele>328</ele>
        <time>2020-07-11T06:13:36.588Z</time>
      </trkpt>
      <trkpt lat="44.1167" lon="5.19201">
        <ele>328</ele>
        <time>2020-07-11T06:13:37.588Z</time>
      </trkpt>
      <trkpt lat="44.11668" lon="5.19207">
        <ele>328</ele>
        <time>2020-07-11T06:13:38.588Z</time>
      </trkpt>
      <trkpt lat="44.11665" lon="5.19212">
        <ele>328</ele>
        <time>2020-07-11T06:13:39.588Z</time>
      </trkpt>
      <trkpt lat="44.11662" lon="5.19218">
        <ele>329</ele>
        <time>2020-07-11T06:13:40.587Z</time>
      </trkpt>
      <trkpt lat="44.11659" lon="5.19224">
        <ele>329</ele>
        <time>2020-07-11T06:13:41.588Z</time>
      </trkpt>
      <trkpt lat="44.11656" lon="5.1923">
        <ele>329</ele>
        <time>2020-07-11T06:13:42.587Z</time>
      </trkpt>
      <trkpt lat="44.11652" lon="5.19237">
        <ele>329</ele>
        <time>2020-07-11T06:13:43.588Z</time>
      </trkpt>
      <trkpt lat="44.11649" lon="5.19243">
        <ele>329</ele>
        <time>2020-07-11T06:13:44.588Z</time>
      </trkpt>
      <trkpt lat="44.11645" lon="5.19249">
        <ele>330</ele>
        <time>2020-07-11T06:13:45.588Z</time>
      </trkpt>
      <trkpt lat="44.11641" lon="5.19254">
        <ele>330</ele>
        <time>2020-07-11T06:13:46.588Z</time>
      </trkpt>
      <trkpt lat="44.11638" lon="5.1926">
        <ele>330</ele>
        <time>2020-07-11T06:13:47.587Z</time>
      </trkpt>
      <trkpt lat="44.11634" lon="5.19265">
        <ele>330</ele>
        <time>2020-07-11T06:13:48.588Z</time>
      </trkpt>
      <trkpt lat="44.1163" lon="5.19272">
        <ele>331</ele>
        <time>2020-07-11T06:13:49.587Z</time>
      </trkpt>
      <trkpt lat="44.11628" lon="5.19276">
        <ele>331</ele>
        <time>2020-07-11T06:13:50.588Z</time>
      </trkpt>
      <trkpt lat="44.11625" lon="5.19282">
        <ele>331</ele>
        <time>2020-07-11T06:13:51.588Z</time>
      </trkpt>
      <trkpt lat="44.11622" lon="5.19287">
        <ele>332</ele>
        <time>2020-07-11T06:13:52.587Z</time>
      </trkpt>
      <trkpt lat="44.11618" lon="5.19292">
        <ele>332</ele>
        <time>2020-07-11T06:13:53.588Z</time>
      </trkpt>
      <trkpt lat="44.11615" lon="5.19299">
        <ele>333</ele>
        <time>2020-07-11T06:13:54.587Z</time>
      </trkpt>
      <trkpt lat="44.11612" lon="5.19303">
        <ele>333</ele>
        <time>2020-07-11T06:13:55.588Z</time>
      </trkpt>
      <trkpt lat="44.11608" lon="5.19309">
        <ele>334</ele>
        <time>2020-07-11T06:13:56.587Z</time>
      </trkpt>
      <trkpt lat="44.11605" lon="5.19314">
        <ele>334</ele>
        <time>2020-07-11T06:13:57.588Z</time>
      </trkpt>
      <trkpt lat="44.11602" lon="5.19319">
        <ele>334</ele>
        <time>2020-07-11T06:13:58.588Z</time>
      </trkpt>
      <trkpt lat="44.11598" lon="5.19325">
        <ele>334</ele>
        <time>2020-07-11T06:13:59.588Z</time>
      </trkpt>
      <trkpt lat="44.11595" lon="5.19331">
        <ele>335</ele>
        <time>2020-07-11T06:14:00.588Z</time>
      </trkpt>
      <trkpt lat="44.11591" lon="5.19336">
        <ele>335</ele>
        <time>2020-07-11T06:14:01.588Z</time>
      </trkpt>
      <trkpt lat="44.11588" lon="5.19342">
        <ele>335</ele>
        <time>2020-07-11T06:14:02.588Z</time>
      </trkpt>
      <trkpt lat="44.11584" lon="5.19347">
        <ele>335</ele>
        <time>2020-07-11T06:14:03.588Z</time>
      </trkpt>
      <trkpt lat="44.11581" lon="5.19353">
        <ele>335</ele>
        <time>2020-07-11T06:14:04.588Z</time>
      </trkpt>
      <trkpt lat="44.11577" lon="5.19358">
        <ele>334</ele>
        <time>2020-07-11T06:14:05.588Z</time>
      </trkpt>
      <trkpt lat="44.11574" lon="5.19363">
        <ele>334</ele>
        <time>2020-07-11T06:14:06.587Z</time>
      </trkpt>
      <trkpt lat="44.1157" lon="5.19369">
        <ele>334</ele>
        <time>2020-07-11T06:14:07.588Z</time>
      </trkpt>
      <trkpt lat="44.11567" lon="5.19374">
        <ele>334</ele>
        <time>2020-07-11T06:14:08.588Z</time>
      </trkpt>
      <trkpt lat="44.11563" lon="5.1938">
        <ele>334</ele>
        <time>2020-07-11T06:14:09.587Z</time>
      </trkpt>
      <trkpt lat="44.11559" lon="5.19386">
        <ele>334</ele>
        <time>2020-07-11T06:14:10.588Z</time>
      </trkpt>
      <trkpt lat="44.11556" lon="5.19392">
        <ele>335</ele>
        <time>2020-07-11T06:14:11.588Z</time>
      </trkpt>
      <trkpt lat="44.11552" lon="5.19398">
        <ele>335</ele>
        <time>2020-07-11T06:14:12.588Z</time>
      </trkpt>
      <trkpt lat="44.11548" lon="5.19404">
        <ele>335</ele>
        <time>2020-07-11T06:14:13.588Z</time>
      </trkpt>
      <trkpt lat="44.11545" lon="5.1941">
        <ele>335</ele>
        <time>2020-07-11T06:14:14.588Z</time>
      </trkpt>
      <trkpt lat="44.11542" lon="5.19414">
        <ele>335</ele>
        <time>2020-07-11T06:14:15.587Z</time>
      </trkpt>
      <trkpt lat="44.11537" lon="5.19421">
        <ele>336</ele>
        <time>2020-07-11T06:14:16.587Z</time>
      </trkpt>
      <trkpt lat="44.11534" lon="5.19427">
        <ele>336</ele>
        <time>2020-07-11T06:14:17.588Z</time>
      </trkpt>
      <trkpt lat="44.1153" lon="5.19433">
        <ele>336</ele>
        <time>2020-07-11T06:14:18.588Z</time>
      </trkpt>
      <trkpt lat="44.11526" lon="5.19438">
        <ele>336</ele>
        <time>2020-07-11T06:14:19.588Z</time>
      </trkpt>
      <trkpt lat="44.11523" lon="5.19443">
        <ele>335</ele>
        <time>2020-07-11T06:14:20.588Z</time>
      </trkpt>
      <trkpt lat="44.11518" lon="5.19449">
        <ele>336</ele>
        <time>2020-07-11T06:14:21.588Z</time>
      </trkpt>
      <trkpt lat="44.11514" lon="5.19455">
        <ele>335</ele>
        <time>2020-07-11T06:14:22.588Z</time>
      </trkpt>
      <trkpt lat="44.1151" lon="5.1946">
        <ele>335</ele>
        <time>2020-07-11T06:14:23.587Z</time>
      </trkpt>
      <trkpt lat="44.11506" lon="5.19465">
        <ele>336</ele>
        <time>2020-07-11T06:14:24.588Z</time>
      </trkpt>
      <trkpt lat="44.11502" lon="5.1947">
        <ele>336</ele>
        <time>2020-07-11T06:14:25.588Z</time>
      </trkpt>
      <trkpt lat="44.11498" lon="5.19476">
        <ele>336</ele>
        <time>2020-07-11T06:14:26.588Z</time>
      </trkpt>
      <trkpt lat="44.11494" lon="5.19481">
        <ele>337</ele>
        <time>2020-07-11T06:14:27.588Z</time>
      </trkpt>
      <trkpt lat="44.1149" lon="5.19486">
        <ele>337</ele>
        <time>2020-07-11T06:14:28.588Z</time>
      </trkpt>
      <trkpt lat="44.11486" lon="5.19492">
        <ele>337</ele>
        <time>2020-07-11T06:14:29.588Z</time>
      </trkpt>
      <trkpt lat="44.11482" lon="5.19497">
        <ele>337</ele>
        <time>2020-07-11T06:14:30.588Z</time>
      </trkpt>
      <trkpt lat="44.11478" lon="5.19502">
        <ele>337</ele>
        <time>2020-07-11T06:14:31.587Z</time>
      </trkpt>
      <trkpt lat="44.11474" lon="5.19508">
        <ele>337</ele>
        <time>2020-07-11T06:14:32.588Z</time>
      </trkpt>
      <trkpt lat="44.1147" lon="5.19512">
        <ele>338</ele>
        <time>2020-07-11T06:14:33.588Z</time>
      </trkpt>
      <trkpt lat="44.11466" lon="5.19519">
        <ele>338</ele>
        <time>2020-07-11T06:14:34.588Z</time>
      </trkpt>
      <trkpt lat="44.11462" lon="5.19525">
        <ele>339</ele>
        <time>2020-07-11T06:14:35.587Z</time>
      </trkpt>
      <trkpt lat="44.11458" lon="5.19531">
        <ele>339</ele>
        <time>2020-07-11T06:14:36.588Z</time>
      </trkpt>
      <trkpt lat="44.11454" lon="5.19536">
        <ele>339</ele>
        <time>2020-07-11T06:14:37.588Z</time>
      </trkpt>
      <trkpt lat="44.11451" lon="5.19541">
        <ele>339</ele>
        <time>2020-07-11T06:14:38.588Z</time>
      </trkpt>
      <trkpt lat="44.11448" lon="5.19547">
        <ele>339</ele>
        <time>2020-07-11T06:14:39.588Z</time>
      </trkpt>
      <trkpt lat="44.11444" lon="5.19555">
        <ele>338</ele>
        <time>2020-07-11T06:14:40.587Z</time>
      </trkpt>
      <trkpt lat="44.11441" lon="5.19561">
        <ele>338</ele>
        <time>2020-07-11T06:14:41.588Z</time>
      </trkpt>
      <trkpt lat="44.11438" lon="5.19568">
        <ele>338</ele>
        <time>2020-07-11T06:14:42.588Z</time>
      </trkpt>
      <trkpt lat="44.11436" lon="5.19574">
        <ele>338</ele>
        <time>2020-07-11T06:14:43.588Z</time>
      </trkpt>
      <trkpt lat="44.11432" lon="5.19582">
        <ele>338</ele>
        <time>2020-07-11T06:14:44.588Z</time>
      </trkpt>
      <trkpt lat="44.1143" lon="5.19589">
        <ele>338</ele>
        <time>2020-07-11T06:14:45.588Z</time>
      </trkpt>
      <trkpt lat="44.11428" lon="5.19596">
        <ele>338</ele>
        <time>2020-07-11T06:14:46.588Z</time>
      </trkpt>
      <trkpt lat="44.11425" lon="5.19603">
        <ele>338</ele>
        <time>2020-07-11T06:14:47.588Z</time>
      </trkpt>
      <trkpt lat="44.11424" lon="5.19608">
        <ele>338</ele>
        <time>2020-07-11T06:14:48.588Z</time>
      </trkpt>
      <trkpt lat="44.11421" lon="5.19616">
        <ele>338</ele>
        <time>2020-07-11T06:14:49.588Z</time>
      </trkpt>
      <trkpt lat="44.11419" lon="5.19623">
        <ele>338</ele>
        <time>2020-07-11T06:14:50.588Z</time>
      </trkpt>
      <trkpt lat="44.11418" lon="5.19628">
        <ele>338</ele>
        <time>2020-07-11T06:14:51.588Z</time>
      </trkpt>
      <trkpt lat="44.11416" lon="5.19635">
        <ele>338</ele>
        <time>2020-07-11T06:14:52.587Z</time>
      </trkpt>
      <trkpt lat="44.11413" lon="5.19643">
        <ele>338</ele>
        <time>2020-07-11T06:14:53.588Z</time>
      </trkpt>
      <trkpt lat="44.11412" lon="5.19649">
        <ele>338</ele>
        <time>2020-07-11T06:14:54.588Z</time>
      </trkpt>
      <trkpt lat="44.1141" lon="5.19655">
        <ele>338</ele>
        <time>2020-07-11T06:14:55.588Z</time>
      </trkpt>
      <trkpt lat="44.11408" lon="5.19662">
        <ele>337</ele>
        <time>2020-07-11T06:14:56.587Z</time>
      </trkpt>
      <trkpt lat="44.11406" lon="5.1967">
        <ele>337</ele>
        <time>2020-07-11T06:14:57.588Z</time>
      </trkpt>
      <trkpt lat="44.11405" lon="5.19675">
        <ele>337</ele>
        <time>2020-07-11T06:14:58.588Z</time>
      </trkpt>
      <trkpt lat="44.11403" lon="5.19681">
        <ele>337</ele>
        <time>2020-07-11T06:14:59.588Z</time>
      </trkpt>
      <trkpt lat="44.11401" lon="5.19688">
        <ele>337</ele>
        <time>2020-07-11T06:15:00.587Z</time>
      </trkpt>
      <trkpt lat="44.11399" lon="5.19695">
        <ele>337</ele>
        <time>2020-07-11T06:15:01.588Z</time>
      </trkpt>
      <trkpt lat="44.11397" lon="5.19701">
        <ele>337</ele>
        <time>2020-07-11T06:15:02.587Z</time>
      </trkpt>
      <trkpt lat="44.11396" lon="5.19708">
        <ele>338</ele>
        <time>2020-07-11T06:15:03.588Z</time>
      </trkpt>
      <trkpt lat="44.11394" lon="5.19715">
        <ele>338</ele>
        <time>2020-07-11T06:15:04.587Z</time>
      </trkpt>
      <trkpt lat="44.11393" lon="5.19722">
        <ele>338</ele>
        <time>2020-07-11T06:15:05.587Z</time>
      </trkpt>
      <trkpt lat="44.11391" lon="5.19729">
        <ele>339</ele>
        <time>2020-07-11T06:15:06.587Z</time>
      </trkpt>
      <trkpt lat="44.1139" lon="5.19735">
        <ele>339</ele>
        <time>2020-07-11T06:15:07.587Z</time>
      </trkpt>
      <trkpt lat="44.11389" lon="5.19743">
        <ele>339</ele>
        <time>2020-07-11T06:15:08.587Z</time>
      </trkpt>
      <trkpt lat="44.11388" lon="5.19748">
        <ele>340</ele>
        <time>2020-07-11T06:15:09.588Z</time>
      </trkpt>
      <trkpt lat="44.11387" lon="5.19755">
        <ele>340</ele>
        <time>2020-07-11T06:15:10.588Z</time>
      </trkpt>
      <trkpt lat="44.11385" lon="5.19761">
        <ele>341</ele>
        <time>2020-07-11T06:15:11.588Z</time>
      </trkpt>
      <trkpt lat="44.11384" lon="5.19767">
        <ele>341</ele>
        <time>2020-07-11T06:15:12.588Z</time>
      </trkpt>
      <trkpt lat="44.11383" lon="5.19774">
        <ele>342</ele>
        <time>2020-07-11T06:15:13.587Z</time>
      </trkpt>
      <trkpt lat="44.11381" lon="5.19781">
        <ele>342</ele>
        <time>2020-07-11T06:15:14.588Z</time>
      </trkpt>
      <trkpt lat="44.1138" lon="5.19787">
        <ele>342</ele>
        <time>2020-07-11T06:15:15.588Z</time>
      </trkpt>
      <trkpt lat="44.11378" lon="5.19794">
        <ele>342</ele>
        <time>2020-07-11T06:15:16.588Z</time>
      </trkpt>
      <trkpt lat="44.11376" lon="5.198">
        <ele>342</ele>
        <time>2020-07-11T06:15:17.588Z</time>
      </trkpt>
      <trkpt lat="44.11374" lon="5.19806">
        <ele>342</ele>
        <time>2020-07-11T06:15:18.588Z</time>
      </trkpt>
      <trkpt lat="44.11372" lon="5.19813">
        <ele>342</ele>
        <time>2020-07-11T06:15:19.588Z</time>
      </trkpt>
      <trkpt lat="44.1137" lon="5.19819">
        <ele>342</ele>
        <time>2020-07-11T06:15:20.588Z</time>
      </trkpt>
      <trkpt lat="44.11368" lon="5.19825">
        <ele>342</ele>
        <time>2020-07-11T06:15:21.588Z</time>
      </trkpt>
      <trkpt lat="44.11365" lon="5.19832">
        <ele>342</ele>
        <time>2020-07-11T06:15:22.588Z</time>
      </trkpt>
      <trkpt lat="44.11364" lon="5.19836">
        <ele>342</ele>
        <time>2020-07-11T06:15:23.588Z</time>
      </trkpt>
      <trkpt lat="44.11361" lon="5.19842">
        <ele>342</ele>
        <time>2020-07-11T06:15:24.588Z</time>
      </trkpt>
      <trkpt lat="44.11359" lon="5.19848">
        <ele>343</ele>
        <time>2020-07-11T06:15:25.587Z</time>
      </trkpt>
      <trkpt lat="44.11357" lon="5.19853">
        <ele>343</ele>
        <time>2020-07-11T06:15:26.588Z</time>
      </trkpt>
      <trkpt lat="44.11354" lon="5.19859">
        <ele>344</ele>
        <time>2020-07-11T06:15:27.588Z</time>
      </trkpt>
      <trkpt lat="44.11352" lon="5.19864">
        <ele>344</ele>
        <time>2020-07-11T06:15:28.588Z</time>
      </trkpt>
      <trkpt lat="44.11349" lon="5.1987">
        <ele>344</ele>
        <time>2020-07-11T06:15:29.587Z</time>
      </trkpt>
      <trkpt lat="44.11346" lon="5.19876">
        <ele>344</ele>
        <time>2020-07-11T06:15:30.587Z</time>
      </trkpt>
      <trkpt lat="44.11343" lon="5.19882">
        <ele>344</ele>
        <time>2020-07-11T06:15:31.587Z</time>
      </trkpt>
      <trkpt lat="44.1134" lon="5.19888">
        <ele>344</ele>
        <time>2020-07-11T06:15:32.588Z</time>
      </trkpt>
      <trkpt lat="44.11338" lon="5.19892">
        <ele>344</ele>
        <time>2020-07-11T06:15:33.588Z</time>
      </trkpt>
      <trkpt lat="44.11335" lon="5.19899">
        <ele>344</ele>
        <time>2020-07-11T06:15:34.588Z</time>
      </trkpt>
      <trkpt lat="44.11332" lon="5.19905">
        <ele>345</ele>
        <time>2020-07-11T06:15:35.588Z</time>
      </trkpt>
      <trkpt lat="44.11329" lon="5.19911">
        <ele>345</ele>
        <time>2020-07-11T06:15:36.588Z</time>
      </trkpt>
      <trkpt lat="44.11325" lon="5.19917">
        <ele>345</ele>
        <time>2020-07-11T06:15:37.587Z</time>
      </trkpt>
      <trkpt lat="44.11322" lon="5.19922">
        <ele>346</ele>
        <time>2020-07-11T06:15:38.588Z</time>
      </trkpt>
      <trkpt lat="44.11318" lon="5.19928">
        <ele>346</ele>
        <time>2020-07-11T06:15:39.588Z</time>
      </trkpt>
      <trkpt lat="44.11315" lon="5.19932">
        <ele>346</ele>
        <time>2020-07-11T06:15:40.588Z</time>
      </trkpt>
      <trkpt lat="44.11312" lon="5.19937">
        <ele>347</ele>
        <time>2020-07-11T06:15:41.588Z</time>
      </trkpt>
      <trkpt lat="44.11308" lon="5.19943">
        <ele>347</ele>
        <time>2020-07-11T06:15:42.588Z</time>
      </trkpt>
      <trkpt lat="44.11305" lon="5.19948">
        <ele>347</ele>
        <time>2020-07-11T06:15:43.588Z</time>
      </trkpt>
      <trkpt lat="44.11301" lon="5.19953">
        <ele>348</ele>
        <time>2020-07-11T06:15:44.587Z</time>
      </trkpt>
      <trkpt lat="44.11297" lon="5.19958">
        <ele>348</ele>
        <time>2020-07-11T06:15:45.587Z</time>
      </trkpt>
      <trkpt lat="44.11293" lon="5.19962">
        <ele>349</ele>
        <time>2020-07-11T06:15:46.587Z</time>
      </trkpt>
      <trkpt lat="44.11288" lon="5.19967">
        <ele>349</ele>
        <time>2020-07-11T06:15:47.587Z</time>
      </trkpt>
      <trkpt lat="44.11284" lon="5.19972">
        <ele>349</ele>
        <time>2020-07-11T06:15:48.587Z</time>
      </trkpt>
      <trkpt lat="44.1128" lon="5.19976">
        <ele>349</ele>
        <time>2020-07-11T06:15:49.587Z</time>
      </trkpt>
      <trkpt lat="44.11276" lon="5.19979">
        <ele>350</ele>
        <time>2020-07-11T06:15:50.588Z</time>
      </trkpt>
      <trkpt lat="44.11271" lon="5.19983">
        <ele>350</ele>
        <time>2020-07-11T06:15:51.588Z</time>
      </trkpt>
      <trkpt lat="44.11267" lon="5.19987">
        <ele>350</ele>
        <time>2020-07-11T06:15:52.587Z</time>
      </trkpt>
      <trkpt lat="44.11262" lon="5.1999">
        <ele>350</ele>
        <time>2020-07-11T06:15:53.587Z</time>
      </trkpt>
      <trkpt lat="44.11258" lon="5.19994">
        <ele>350</ele>
        <time>2020-07-11T06:15:54.588Z</time>
      </trkpt>
      <trkpt lat="44.11253" lon="5.19997">
        <ele>350</ele>
        <time>2020-07-11T06:15:55.588Z</time>
      </trkpt>
      <trkpt lat="44.11249" lon="5.2">
        <ele>350</ele>
        <time>2020-07-11T06:15:56.588Z</time>
      </trkpt>
      <trkpt lat="44.11244" lon="5.20003">
        <ele>350</ele>
        <time>2020-07-11T06:15:57.587Z</time>
      </trkpt>
      <trkpt lat="44.1124" lon="5.20007">
        <ele>349</ele>
        <time>2020-07-11T06:15:58.588Z</time>
      </trkpt>
      <trkpt lat="44.11235" lon="5.2001">
        <ele>349</ele>
        <time>2020-07-11T06:15:59.587Z</time>
      </trkpt>
      <trkpt lat="44.11232" lon="5.20012">
        <ele>349</ele>
        <time>2020-07-11T06:16:00.587Z</time>
      </trkpt>
      <trkpt lat="44.11227" lon="5.20017">
        <ele>349</ele>
        <time>2020-07-11T06:16:01.587Z</time>
      </trkpt>
      <trkpt lat="44.11222" lon="5.2002">
        <ele>350</ele>
        <time>2020-07-11T06:16:02.588Z</time>
      </trkpt>
      <trkpt lat="44.11218" lon="5.20024">
        <ele>350</ele>
        <time>2020-07-11T06:16:03.587Z</time>
      </trkpt>
      <trkpt lat="44.11214" lon="5.20027">
        <ele>350</ele>
        <time>2020-07-11T06:16:04.587Z</time>
      </trkpt>
      <trkpt lat="44.11211" lon="5.20029">
        <ele>350</ele>
        <time>2020-07-11T06:16:05.588Z</time>
      </trkpt>
      <trkpt lat="44.11206" lon="5.20033">
        <ele>351</ele>
        <time>2020-07-11T06:16:06.587Z</time>
      </trkpt>
      <trkpt lat="44.11202" lon="5.20036">
        <ele>351</ele>
        <time>2020-07-11T06:16:07.588Z</time>
      </trkpt>
      <trkpt lat="44.11199" lon="5.20038">
        <ele>351</ele>
        <time>2020-07-11T06:16:08.588Z</time>
      </trkpt>
      <trkpt lat="44.11195" lon="5.20041">
        <ele>351</ele>
        <time>2020-07-11T06:16:09.588Z</time>
      </trkpt>
      <trkpt lat="44.11191" lon="5.20044">
        <ele>351</ele>
        <time>2020-07-11T06:16:10.588Z</time>
      </trkpt>
      <trkpt lat="44.11187" lon="5.20048">
        <ele>352</ele>
        <time>2020-07-11T06:16:11.588Z</time>
      </trkpt>
      <trkpt lat="44.11183" lon="5.20051">
        <ele>352</ele>
        <time>2020-07-11T06:16:12.587Z</time>
      </trkpt>
      <trkpt lat="44.1118" lon="5.20053">
        <ele>352</ele>
        <time>2020-07-11T06:16:13.587Z</time>
      </trkpt>
      <trkpt lat="44.11176" lon="5.20055">
        <ele>352</ele>
        <time>2020-07-11T06:16:14.588Z</time>
      </trkpt>
      <trkpt lat="44.11171" lon="5.20058">
        <ele>353</ele>
        <time>2020-07-11T06:16:15.588Z</time>
      </trkpt>
      <trkpt lat="44.11169" lon="5.2006">
        <ele>353</ele>
        <time>2020-07-11T06:16:16.588Z</time>
      </trkpt>
      <trkpt lat="44.11165" lon="5.20063">
        <ele>353</ele>
        <time>2020-07-11T06:16:17.588Z</time>
      </trkpt>
      <trkpt lat="44.11163" lon="5.20064">
        <ele>353</ele>
        <time>2020-07-11T06:16:18.587Z</time>
      </trkpt>
      <trkpt lat="44.1116" lon="5.20066">
        <ele>353</ele>
        <time>2020-07-11T06:16:19.588Z</time>
      </trkpt>
      <trkpt lat="44.11156" lon="5.20069">
        <ele>354</ele>
        <time>2020-07-11T06:16:20.587Z</time>
      </trkpt>
      <trkpt lat="44.11152" lon="5.20071">
        <ele>354</ele>
        <time>2020-07-11T06:16:21.588Z</time>
      </trkpt>
      <trkpt lat="44.11149" lon="5.20074">
        <ele>354</ele>
        <time>2020-07-11T06:16:22.588Z</time>
      </trkpt>
      <trkpt lat="44.11145" lon="5.20077">
        <ele>355</ele>
        <time>2020-07-11T06:16:23.588Z</time>
      </trkpt>
      <trkpt lat="44.11141" lon="5.2008">
        <ele>355</ele>
        <time>2020-07-11T06:16:24.587Z</time>
      </trkpt>
      <trkpt lat="44.11138" lon="5.20082">
        <ele>355</ele>
        <time>2020-07-11T06:16:25.588Z</time>
      </trkpt>
      <trkpt lat="44.11134" lon="5.20085">
        <ele>355</ele>
        <time>2020-07-11T06:16:26.588Z</time>
      </trkpt>
      <trkpt lat="44.11131" lon="5.20088">
        <ele>355</ele>
        <time>2020-07-11T06:16:27.588Z</time>
      </trkpt>
      <trkpt lat="44.11129" lon="5.2009">
        <ele>356</ele>
        <time>2020-07-11T06:16:28.588Z</time>
      </trkpt>
      <trkpt lat="44.11126" lon="5.20093">
        <ele>356</ele>
        <time>2020-07-11T06:16:29.588Z</time>
      </trkpt>
      <trkpt lat="44.11123" lon="5.20096">
        <ele>356</ele>
        <time>2020-07-11T06:16:30.588Z</time>
      </trkpt>
      <trkpt lat="44.11121" lon="5.201">
        <ele>357</ele>
        <time>2020-07-11T06:16:31.587Z</time>
      </trkpt>
      <trkpt lat="44.11119" lon="5.20103">
        <ele>357</ele>
        <time>2020-07-11T06:16:32.588Z</time>
      </trkpt>
      <trkpt lat="44.11117" lon="5.20108">
        <ele>358</ele>
        <time>2020-07-11T06:16:33.588Z</time>
      </trkpt>
      <trkpt lat="44.11114" lon="5.20113">
        <ele>358</ele>
        <time>2020-07-11T06:16:34.588Z</time>
      </trkpt>
      <trkpt lat="44.11112" lon="5.20118">
        <ele>359</ele>
        <time>2020-07-11T06:16:35.588Z</time>
      </trkpt>
      <trkpt lat="44.1111" lon="5.20122">
        <ele>359</ele>
        <time>2020-07-11T06:16:36.588Z</time>
      </trkpt>
      <trkpt lat="44.11108" lon="5.20126">
        <ele>360</ele>
        <time>2020-07-11T06:16:37.588Z</time>
      </trkpt>
      <trkpt lat="44.11106" lon="5.20131">
        <ele>360</ele>
        <time>2020-07-11T06:16:38.587Z</time>
      </trkpt>
      <trkpt lat="44.11104" lon="5.20137">
        <ele>361</ele>
        <time>2020-07-11T06:16:39.587Z</time>
      </trkpt>
      <trkpt lat="44.11102" lon="5.20142">
        <ele>361</ele>
        <time>2020-07-11T06:16:40.588Z</time>
      </trkpt>
      <trkpt lat="44.11101" lon="5.20146">
        <ele>361</ele>
        <time>2020-07-11T06:16:41.588Z</time>
      </trkpt>
      <trkpt lat="44.111" lon="5.20152">
        <ele>362</ele>
        <time>2020-07-11T06:16:42.588Z</time>
      </trkpt>
      <trkpt lat="44.11097" lon="5.20159">
        <ele>362</ele>
        <time>2020-07-11T06:16:43.588Z</time>
      </trkpt>
      <trkpt lat="44.11095" lon="5.20165">
        <ele>362</ele>
        <time>2020-07-11T06:16:44.587Z</time>
      </trkpt>
      <trkpt lat="44.11093" lon="5.20172">
        <ele>362</ele>
        <time>2020-07-11T06:16:45.588Z</time>
      </trkpt>
      <trkpt lat="44.11091" lon="5.20177">
        <ele>363</ele>
        <time>2020-07-11T06:16:46.588Z</time>
      </trkpt>
      <trkpt lat="44.1109" lon="5.20184">
        <ele>362</ele>
        <time>2020-07-11T06:16:47.587Z</time>
      </trkpt>
      <trkpt lat="44.11087" lon="5.20192">
        <ele>362</ele>
        <time>2020-07-11T06:16:48.588Z</time>
      </trkpt>
      <trkpt lat="44.11085" lon="5.20199">
        <ele>362</ele>
        <time>2020-07-11T06:16:49.588Z</time>
      </trkpt>
      <trkpt lat="44.11082" lon="5.20207">
        <ele>362</ele>
        <time>2020-07-11T06:16:50.587Z</time>
      </trkpt>
      <trkpt lat="44.1108" lon="5.20214">
        <ele>362</ele>
        <time>2020-07-11T06:16:51.587Z</time>
      </trkpt>
      <trkpt lat="44.11077" lon="5.20225">
        <ele>362</ele>
        <time>2020-07-11T06:16:52.588Z</time>
      </trkpt>
      <trkpt lat="44.11074" lon="5.20235">
        <ele>362</ele>
        <time>2020-07-11T06:16:53.588Z</time>
      </trkpt>
      <trkpt lat="44.1107" lon="5.20245">
        <ele>362</ele>
        <time>2020-07-11T06:16:54.588Z</time>
      </trkpt>
      <trkpt lat="44.11068" lon="5.20253">
        <ele>362</ele>
        <time>2020-07-11T06:16:55.588Z</time>
      </trkpt>
      <trkpt lat="44.11065" lon="5.20264">
        <ele>361</ele>
        <time>2020-07-11T06:16:56.588Z</time>
      </trkpt>
      <trkpt lat="44.11061" lon="5.20275">
        <ele>361</ele>
        <time>2020-07-11T06:16:57.588Z</time>
      </trkpt>
      <trkpt lat="44.11058" lon="5.20286">
        <ele>361</ele>
        <time>2020-07-11T06:16:58.588Z</time>
      </trkpt>
      <trkpt lat="44.11054" lon="5.20297">
        <ele>360</ele>
        <time>2020-07-11T06:16:59.588Z</time>
      </trkpt>
      <trkpt lat="44.11051" lon="5.20308">
        <ele>360</ele>
        <time>2020-07-11T06:17:00.587Z</time>
      </trkpt>
      <trkpt lat="44.11047" lon="5.2032">
        <ele>359</ele>
        <time>2020-07-11T06:17:01.587Z</time>
      </trkpt>
      <trkpt lat="44.11043" lon="5.2033">
        <ele>359</ele>
        <time>2020-07-11T06:17:02.588Z</time>
      </trkpt>
      <trkpt lat="44.11039" lon="5.20341">
        <ele>359</ele>
        <time>2020-07-11T06:17:03.588Z</time>
      </trkpt>
      <trkpt lat="44.11036" lon="5.20351">
        <ele>359</ele>
        <time>2020-07-11T06:17:04.587Z</time>
      </trkpt>
      <trkpt lat="44.11032" lon="5.2036">
        <ele>359</ele>
        <time>2020-07-11T06:17:05.588Z</time>
      </trkpt>
      <trkpt lat="44.11028" lon="5.20369">
        <ele>358</ele>
        <time>2020-07-11T06:17:06.588Z</time>
      </trkpt>
      <trkpt lat="44.11023" lon="5.2038">
        <ele>358</ele>
        <time>2020-07-11T06:17:07.587Z</time>
      </trkpt>
      <trkpt lat="44.11019" lon="5.20388">
        <ele>358</ele>
        <time>2020-07-11T06:17:08.587Z</time>
      </trkpt>
      <trkpt lat="44.11016" lon="5.20395">
        <ele>358</ele>
        <time>2020-07-11T06:17:09.588Z</time>
      </trkpt>
      <trkpt lat="44.11012" lon="5.20404">
        <ele>358</ele>
        <time>2020-07-11T06:17:10.588Z</time>
      </trkpt>
      <trkpt lat="44.11009" lon="5.20412">
        <ele>358</ele>
        <time>2020-07-11T06:17:11.587Z</time>
      </trkpt>
      <trkpt lat="44.11005" lon="5.2042">
        <ele>357</ele>
        <time>2020-07-11T06:17:12.588Z</time>
      </trkpt>
      <trkpt lat="44.11002" lon="5.20428">
        <ele>357</ele>
        <time>2020-07-11T06:17:13.588Z</time>
      </trkpt>
      <trkpt lat="44.10999" lon="5.20435">
        <ele>357</ele>
        <time>2020-07-11T06:17:14.588Z</time>
      </trkpt>
      <trkpt lat="44.10995" lon="5.20442">
        <ele>357</ele>
        <time>2020-07-11T06:17:15.588Z</time>
      </trkpt>
      <trkpt lat="44.10992" lon="5.20449">
        <ele>357</ele>
        <time>2020-07-11T06:17:16.587Z</time>
      </trkpt>
      <trkpt lat="44.10989" lon="5.20456">
        <ele>357</ele>
        <time>2020-07-11T06:17:17.588Z</time>
      </trkpt>
      <trkpt lat="44.10986" lon="5.20462">
        <ele>357</ele>
        <time>2020-07-11T06:17:18.588Z</time>
      </trkpt>
      <trkpt lat="44.10984" lon="5.20469">
        <ele>357</ele>
        <time>2020-07-11T06:17:19.588Z</time>
      </trkpt>
      <trkpt lat="44.10981" lon="5.20476">
        <ele>357</ele>
        <time>2020-07-11T06:17:20.587Z</time>
      </trkpt>
      <trkpt lat="44.10979" lon="5.20483">
        <ele>357</ele>
        <time>2020-07-11T06:17:21.588Z</time>
      </trkpt>
      <trkpt lat="44.10977" lon="5.20489">
        <ele>357</ele>
        <time>2020-07-11T06:17:22.588Z</time>
      </trkpt>
      <trkpt lat="44.10975" lon="5.20497">
        <ele>357</ele>
        <time>2020-07-11T06:17:23.587Z</time>
      </trkpt>
      <trkpt lat="44.10972" lon="5.20503">
        <ele>358</ele>
        <time>2020-07-11T06:17:24.588Z</time>
      </trkpt>
      <trkpt lat="44.10971" lon="5.2051">
        <ele>358</ele>
        <time>2020-07-11T06:17:25.587Z</time>
      </trkpt>
      <trkpt lat="44.10969" lon="5.20517">
        <ele>358</ele>
        <time>2020-07-11T06:17:26.587Z</time>
      </trkpt>
      <trkpt lat="44.10967" lon="5.20524">
        <ele>358</ele>
        <time>2020-07-11T06:17:27.588Z</time>
      </trkpt>
      <trkpt lat="44.10965" lon="5.20532">
        <ele>358</ele>
        <time>2020-07-11T06:17:28.588Z</time>
      </trkpt>
      <trkpt lat="44.10964" lon="5.20539">
        <ele>358</ele>
        <time>2020-07-11T06:17:29.587Z</time>
      </trkpt>
      <trkpt lat="44.10963" lon="5.20547">
        <ele>358</ele>
        <time>2020-07-11T06:17:30.588Z</time>
      </trkpt>
      <trkpt lat="44.10963" lon="5.20555">
        <ele>358</ele>
        <time>2020-07-11T06:17:31.588Z</time>
      </trkpt>
      <trkpt lat="44.10962" lon="5.20564">
        <ele>359</ele>
        <time>2020-07-11T06:17:32.588Z</time>
      </trkpt>
      <trkpt lat="44.10962" lon="5.20572">
        <ele>359</ele>
        <time>2020-07-11T06:17:33.588Z</time>
      </trkpt>
      <trkpt lat="44.10962" lon="5.2058">
        <ele>359</ele>
        <time>2020-07-11T06:17:34.588Z</time>
      </trkpt>
      <trkpt lat="44.10962" lon="5.20589">
        <ele>359</ele>
        <time>2020-07-11T06:17:35.588Z</time>
      </trkpt>
      <trkpt lat="44.10962" lon="5.20598">
        <ele>360</ele>
        <time>2020-07-11T06:17:36.588Z</time>
      </trkpt>
      <trkpt lat="44.10962" lon="5.20608">
        <ele>360</ele>
        <time>2020-07-11T06:17:37.587Z</time>
      </trkpt>
      <trkpt lat="44.10962" lon="5.20617">
        <ele>361</ele>
        <time>2020-07-11T06:17:38.588Z</time>
      </trkpt>
      <trkpt lat="44.10962" lon="5.20626">
        <ele>361</ele>
        <time>2020-07-11T06:17:39.588Z</time>
      </trkpt>
      <trkpt lat="44.10962" lon="5.20636">
        <ele>361</ele>
        <time>2020-07-11T06:17:40.588Z</time>
      </trkpt>
      <trkpt lat="44.10962" lon="5.20647">
        <ele>361</ele>
        <time>2020-07-11T06:17:41.588Z</time>
      </trkpt>
      <trkpt lat="44.10962" lon="5.20656">
        <ele>361</ele>
        <time>2020-07-11T06:17:42.587Z</time>
      </trkpt>
      <trkpt lat="44.10962" lon="5.20664">
        <ele>361</ele>
        <time>2020-07-11T06:17:43.588Z</time>
      </trkpt>
      <trkpt lat="44.10961" lon="5.20674">
        <ele>361</ele>
        <time>2020-07-11T06:17:44.588Z</time>
      </trkpt>
      <trkpt lat="44.10961" lon="5.20681">
        <ele>361</ele>
        <time>2020-07-11T06:17:45.588Z</time>
      </trkpt>
      <trkpt lat="44.1096" lon="5.20691">
        <ele>361</ele>
        <time>2020-07-11T06:17:46.587Z</time>
      </trkpt>
      <trkpt lat="44.10958" lon="5.20699">
        <ele>361</ele>
        <time>2020-07-11T06:17:47.588Z</time>
      </trkpt>
      <trkpt lat="44.10957" lon="5.20707">
        <ele>361</ele>
        <time>2020-07-11T06:17:48.588Z</time>
      </trkpt>
      <trkpt lat="44.10955" lon="5.20713">
        <ele>361</ele>
        <time>2020-07-11T06:17:49.588Z</time>
      </trkpt>
      <trkpt lat="44.10953" lon="5.2072">
        <ele>362</ele>
        <time>2020-07-11T06:17:50.588Z</time>
      </trkpt>
      <trkpt lat="44.10951" lon="5.20726">
        <ele>362</ele>
        <time>2020-07-11T06:17:51.587Z</time>
      </trkpt>
      <trkpt lat="44.10949" lon="5.20733">
        <ele>362</ele>
        <time>2020-07-11T06:17:52.588Z</time>
      </trkpt>
      <trkpt lat="44.10947" lon="5.2074">
        <ele>363</ele>
        <time>2020-07-11T06:17:53.588Z</time>
      </trkpt>
      <trkpt lat="44.10945" lon="5.20746">
        <ele>363</ele>
        <time>2020-07-11T06:17:54.588Z</time>
      </trkpt>
      <trkpt lat="44.10942" lon="5.20753">
        <ele>363</ele>
        <time>2020-07-11T06:17:55.587Z</time>
      </trkpt>
      <trkpt lat="44.1094" lon="5.20759">
        <ele>364</ele>
        <time>2020-07-11T06:17:56.588Z</time>
      </trkpt>
      <trkpt lat="44.10937" lon="5.20765">
        <ele>364</ele>
        <time>2020-07-11T06:17:57.588Z</time>
      </trkpt>
      <trkpt lat="44.10935" lon="5.20771">
        <ele>365</ele>
        <time>2020-07-11T06:17:58.587Z</time>
      </trkpt>
      <trkpt lat="44.10932" lon="5.20777">
        <ele>365</ele>
        <time>2020-07-11T06:17:59.587Z</time>
      </trkpt>
      <trkpt lat="44.10929" lon="5.20784">
        <ele>365</ele>
        <time>2020-07-11T06:18:00.588Z</time>
      </trkpt>
      <trkpt lat="44.10927" lon="5.2079">
        <ele>366</ele>
        <time>2020-07-11T06:18:01.588Z</time>
      </trkpt>
      <trkpt lat="44.10924" lon="5.20797">
        <ele>366</ele>
        <time>2020-07-11T06:18:02.588Z</time>
      </trkpt>
      <trkpt lat="44.10921" lon="5.20804">
        <ele>366</ele>
        <time>2020-07-11T06:18:03.588Z</time>
      </trkpt>
      <trkpt lat="44.10918" lon="5.2081">
        <ele>367</ele>
        <time>2020-07-11T06:18:04.588Z</time>
      </trkpt>
      <trkpt lat="44.10915" lon="5.20817">
        <ele>367</ele>
        <time>2020-07-11T06:18:05.588Z</time>
      </trkpt>
      <trkpt lat="44.10913" lon="5.20823">
        <ele>368</ele>
        <time>2020-07-11T06:18:06.588Z</time>
      </trkpt>
      <trkpt lat="44.1091" lon="5.2083">
        <ele>368</ele>
        <time>2020-07-11T06:18:07.588Z</time>
      </trkpt>
      <trkpt lat="44.10906" lon="5.20839">
        <ele>368</ele>
        <time>2020-07-11T06:18:08.588Z</time>
      </trkpt>
      <trkpt lat="44.10903" lon="5.20846">
        <ele>368</ele>
        <time>2020-07-11T06:18:09.588Z</time>
      </trkpt>
      <trkpt lat="44.10901" lon="5.20851">
        <ele>368</ele>
        <time>2020-07-11T06:18:10.588Z</time>
      </trkpt>
      <trkpt lat="44.10897" lon="5.20859">
        <ele>368</ele>
        <time>2020-07-11T06:18:11.588Z</time>
      </trkpt>
      <trkpt lat="44.10894" lon="5.20868">
        <ele>368</ele>
        <time>2020-07-11T06:18:12.588Z</time>
      </trkpt>
      <trkpt lat="44.1089" lon="5.20875">
        <ele>368</ele>
        <time>2020-07-11T06:18:13.587Z</time>
      </trkpt>
      <trkpt lat="44.10887" lon="5.20883">
        <ele>368</ele>
        <time>2020-07-11T06:18:14.587Z</time>
      </trkpt>
      <trkpt lat="44.10884" lon="5.20889">
        <ele>368</ele>
        <time>2020-07-11T06:18:15.588Z</time>
      </trkpt>
      <trkpt lat="44.1088" lon="5.20898">
        <ele>368</ele>
        <time>2020-07-11T06:18:16.588Z</time>
      </trkpt>
      <trkpt lat="44.10877" lon="5.20903">
        <ele>368</ele>
        <time>2020-07-11T06:18:17.588Z</time>
      </trkpt>
      <trkpt lat="44.10873" lon="5.20911">
        <ele>369</ele>
        <time>2020-07-11T06:18:18.588Z</time>
      </trkpt>
      <trkpt lat="44.10868" lon="5.20918">
        <ele>369</ele>
        <time>2020-07-11T06:18:19.588Z</time>
      </trkpt>
      <trkpt lat="44.10864" lon="5.20925">
        <ele>369</ele>
        <time>2020-07-11T06:18:20.588Z</time>
      </trkpt>
      <trkpt lat="44.10859" lon="5.20933">
        <ele>368</ele>
        <time>2020-07-11T06:18:21.587Z</time>
      </trkpt>
      <trkpt lat="44.10854" lon="5.20939">
        <ele>368</ele>
        <time>2020-07-11T06:18:22.588Z</time>
      </trkpt>
      <trkpt lat="44.10849" lon="5.20946">
        <ele>368</ele>
        <time>2020-07-11T06:18:23.588Z</time>
      </trkpt>
      <trkpt lat="44.10844" lon="5.20952">
        <ele>368</ele>
        <time>2020-07-11T06:18:24.587Z</time>
      </trkpt>
      <trkpt lat="44.1084" lon="5.20958">
        <ele>367</ele>
        <time>2020-07-11T06:18:25.588Z</time>
      </trkpt>
      <trkpt lat="44.10835" lon="5.20964">
        <ele>367</ele>
        <time>2020-07-11T06:18:26.588Z</time>
      </trkpt>
      <trkpt lat="44.1083" lon="5.2097">
        <ele>367</ele>
        <time>2020-07-11T06:18:27.588Z</time>
      </trkpt>
      <trkpt lat="44.10824" lon="5.20976">
        <ele>367</ele>
        <time>2020-07-11T06:18:28.588Z</time>
      </trkpt>
      <trkpt lat="44.1082" lon="5.20981">
        <ele>367</ele>
        <time>2020-07-11T06:18:29.588Z</time>
      </trkpt>
      <trkpt lat="44.10814" lon="5.20988">
        <ele>367</ele>
        <time>2020-07-11T06:18:30.587Z</time>
      </trkpt>
      <trkpt lat="44.10809" lon="5.20993">
        <ele>368</ele>
        <time>2020-07-11T06:18:31.587Z</time>
      </trkpt>
      <trkpt lat="44.10804" lon="5.20999">
        <ele>368</ele>
        <time>2020-07-11T06:18:32.588Z</time>
      </trkpt>
      <trkpt lat="44.108" lon="5.21004">
        <ele>368</ele>
        <time>2020-07-11T06:18:33.588Z</time>
      </trkpt>
      <trkpt lat="44.10795" lon="5.2101">
        <ele>368</ele>
        <time>2020-07-11T06:18:34.588Z</time>
      </trkpt>
      <trkpt lat="44.1079" lon="5.21015">
        <ele>368</ele>
        <time>2020-07-11T06:18:35.587Z</time>
      </trkpt>
      <trkpt lat="44.10785" lon="5.2102">
        <ele>368</ele>
        <time>2020-07-11T06:18:36.587Z</time>
      </trkpt>
      <trkpt lat="44.1078" lon="5.21026">
        <ele>368</ele>
        <time>2020-07-11T06:18:37.588Z</time>
      </trkpt>
      <trkpt lat="44.10775" lon="5.21031">
        <ele>368</ele>
        <time>2020-07-11T06:18:38.588Z</time>
      </trkpt>
      <trkpt lat="44.10771" lon="5.21036">
        <ele>367</ele>
        <time>2020-07-11T06:18:39.587Z</time>
      </trkpt>
      <trkpt lat="44.10766" lon="5.21041">
        <ele>367</ele>
        <time>2020-07-11T06:18:40.587Z</time>
      </trkpt>
      <trkpt lat="44.10761" lon="5.21046">
        <ele>367</ele>
        <time>2020-07-11T06:18:41.588Z</time>
      </trkpt>
      <trkpt lat="44.10757" lon="5.2105">
        <ele>367</ele>
        <time>2020-07-11T06:18:42.588Z</time>
      </trkpt>
      <trkpt lat="44.10752" lon="5.21056">
        <ele>367</ele>
        <time>2020-07-11T06:18:43.588Z</time>
      </trkpt>
      <trkpt lat="44.10747" lon="5.21062">
        <ele>367</ele>
        <time>2020-07-11T06:18:44.587Z</time>
      </trkpt>
      <trkpt lat="44.10743" lon="5.21067">
        <ele>368</ele>
        <time>2020-07-11T06:18:45.587Z</time>
      </trkpt>
      <trkpt lat="44.10738" lon="5.21072">
        <ele>368</ele>
        <time>2020-07-11T06:18:46.588Z</time>
      </trkpt>
      <trkpt lat="44.10735" lon="5.21076">
        <ele>368</ele>
        <time>2020-07-11T06:18:47.588Z</time>
      </trkpt>
      <trkpt lat="44.10729" lon="5.21082">
        <ele>368</ele>
        <time>2020-07-11T06:18:48.588Z</time>
      </trkpt>
      <trkpt lat="44.10724" lon="5.21087">
        <ele>368</ele>
        <time>2020-07-11T06:18:49.588Z</time>
      </trkpt>
      <trkpt lat="44.1072" lon="5.21092">
        <ele>368</ele>
        <time>2020-07-11T06:18:50.588Z</time>
      </trkpt>
      <trkpt lat="44.10715" lon="5.21097">
        <ele>368</ele>
        <time>2020-07-11T06:18:51.588Z</time>
      </trkpt>
      <trkpt lat="44.10712" lon="5.21101">
        <ele>368</ele>
        <time>2020-07-11T06:18:52.587Z</time>
      </trkpt>
      <trkpt lat="44.10707" lon="5.21106">
        <ele>368</ele>
        <time>2020-07-11T06:18:53.587Z</time>
      </trkpt>
      <trkpt lat="44.10702" lon="5.21112">
        <ele>368</ele>
        <time>2020-07-11T06:18:54.588Z</time>
      </trkpt>
      <trkpt lat="44.10697" lon="5.21117">
        <ele>368</ele>
        <time>2020-07-11T06:18:55.588Z</time>
      </trkpt>
      <trkpt lat="44.10693" lon="5.21121">
        <ele>368</ele>
        <time>2020-07-11T06:18:56.587Z</time>
      </trkpt>
      <trkpt lat="44.10689" lon="5.21126">
        <ele>369</ele>
        <time>2020-07-11T06:18:57.588Z</time>
      </trkpt>
      <trkpt lat="44.10684" lon="5.2113">
        <ele>369</ele>
        <time>2020-07-11T06:18:58.588Z</time>
      </trkpt>
      <trkpt lat="44.10679" lon="5.21134">
        <ele>369</ele>
        <time>2020-07-11T06:18:59.588Z</time>
      </trkpt>
      <trkpt lat="44.10673" lon="5.21138">
        <ele>369</ele>
        <time>2020-07-11T06:19:00.587Z</time>
      </trkpt>
      <trkpt lat="44.10668" lon="5.21142">
        <ele>369</ele>
        <time>2020-07-11T06:19:01.588Z</time>
      </trkpt>
      <trkpt lat="44.10663" lon="5.21146">
        <ele>369</ele>
        <time>2020-07-11T06:19:02.588Z</time>
      </trkpt>
      <trkpt lat="44.10658" lon="5.2115">
        <ele>369</ele>
        <time>2020-07-11T06:19:03.587Z</time>
      </trkpt>
      <trkpt lat="44.10653" lon="5.21154">
        <ele>369</ele>
        <time>2020-07-11T06:19:04.588Z</time>
      </trkpt>
      <trkpt lat="44.10648" lon="5.21158">
        <ele>369</ele>
        <time>2020-07-11T06:19:05.587Z</time>
      </trkpt>
      <trkpt lat="44.10642" lon="5.21162">
        <ele>369</ele>
        <time>2020-07-11T06:19:06.588Z</time>
      </trkpt>
      <trkpt lat="44.10637" lon="5.21166">
        <ele>369</ele>
        <time>2020-07-11T06:19:07.588Z</time>
      </trkpt>
      <trkpt lat="44.10631" lon="5.2117">
        <ele>369</ele>
        <time>2020-07-11T06:19:08.588Z</time>
      </trkpt>
      <trkpt lat="44.10626" lon="5.21175">
        <ele>369</ele>
        <time>2020-07-11T06:19:09.588Z</time>
      </trkpt>
      <trkpt lat="44.1062" lon="5.2118">
        <ele>369</ele>
        <time>2020-07-11T06:19:10.588Z</time>
      </trkpt>
      <trkpt lat="44.10615" lon="5.21185">
        <ele>369</ele>
        <time>2020-07-11T06:19:11.588Z</time>
      </trkpt>
      <trkpt lat="44.10611" lon="5.2119">
        <ele>370</ele>
        <time>2020-07-11T06:19:12.588Z</time>
      </trkpt>
      <trkpt lat="44.10606" lon="5.21196">
        <ele>370</ele>
        <time>2020-07-11T06:19:13.587Z</time>
      </trkpt>
      <trkpt lat="44.10602" lon="5.21202">
        <ele>370</ele>
        <time>2020-07-11T06:19:14.588Z</time>
      </trkpt>
      <trkpt lat="44.10598" lon="5.21208">
        <ele>371</ele>
        <time>2020-07-11T06:19:15.588Z</time>
      </trkpt>
      <trkpt lat="44.10593" lon="5.21216">
        <ele>371</ele>
        <time>2020-07-11T06:19:16.587Z</time>
      </trkpt>
      <trkpt lat="44.1059" lon="5.21221">
        <ele>370</ele>
        <time>2020-07-11T06:19:17.588Z</time>
      </trkpt>
      <trkpt lat="44.10587" lon="5.21227">
        <ele>371</ele>
        <time>2020-07-11T06:19:18.587Z</time>
      </trkpt>
      <trkpt lat="44.10583" lon="5.21233">
        <ele>371</ele>
        <time>2020-07-11T06:19:19.588Z</time>
      </trkpt>
      <trkpt lat="44.1058" lon="5.2124">
        <ele>371</ele>
        <time>2020-07-11T06:19:20.587Z</time>
      </trkpt>
      <trkpt lat="44.10576" lon="5.21246">
        <ele>371</ele>
        <time>2020-07-11T06:19:21.588Z</time>
      </trkpt>
      <trkpt lat="44.10573" lon="5.21252">
        <ele>371</ele>
        <time>2020-07-11T06:19:22.587Z</time>
      </trkpt>
      <trkpt lat="44.1057" lon="5.21258">
        <ele>371</ele>
        <time>2020-07-11T06:19:23.587Z</time>
      </trkpt>
      <trkpt lat="44.10567" lon="5.21264">
        <ele>371</ele>
        <time>2020-07-11T06:19:24.588Z</time>
      </trkpt>
      <trkpt lat="44.10564" lon="5.21269">
        <ele>371</ele>
        <time>2020-07-11T06:19:25.588Z</time>
      </trkpt>
      <trkpt lat="44.1056" lon="5.21275">
        <ele>371</ele>
        <time>2020-07-11T06:19:26.588Z</time>
      </trkpt>
      <trkpt lat="44.10557" lon="5.21281">
        <ele>371</ele>
        <time>2020-07-11T06:19:27.588Z</time>
      </trkpt>
      <trkpt lat="44.10555" lon="5.21287">
        <ele>371</ele>
        <time>2020-07-11T06:19:28.588Z</time>
      </trkpt>
      <trkpt lat="44.10551" lon="5.21292">
        <ele>371</ele>
        <time>2020-07-11T06:19:29.587Z</time>
      </trkpt>
      <trkpt lat="44.10548" lon="5.21298">
        <ele>372</ele>
        <time>2020-07-11T06:19:30.588Z</time>
      </trkpt>
      <trkpt lat="44.10545" lon="5.21303">
        <ele>372</ele>
        <time>2020-07-11T06:19:31.587Z</time>
      </trkpt>
      <trkpt lat="44.10542" lon="5.21309">
        <ele>372</ele>
        <time>2020-07-11T06:19:32.588Z</time>
      </trkpt>
      <trkpt lat="44.10539" lon="5.21314">
        <ele>373</ele>
        <time>2020-07-11T06:19:33.588Z</time>
      </trkpt>
      <trkpt lat="44.10536" lon="5.21319">
        <ele>374</ele>
        <time>2020-07-11T06:19:34.588Z</time>
      </trkpt>
      <trkpt lat="44.10533" lon="5.21324">
        <ele>374</ele>
        <time>2020-07-11T06:19:35.588Z</time>
      </trkpt>
      <trkpt lat="44.1053" lon="5.2133">
        <ele>374</ele>
        <time>2020-07-11T06:19:36.587Z</time>
      </trkpt>
      <trkpt lat="44.10527" lon="5.21335">
        <ele>374</ele>
        <time>2020-07-11T06:19:37.588Z</time>
      </trkpt>
      <trkpt lat="44.10524" lon="5.2134">
        <ele>375</ele>
        <time>2020-07-11T06:19:38.588Z</time>
      </trkpt>
      <trkpt lat="44.10522" lon="5.21346">
        <ele>375</ele>
        <time>2020-07-11T06:19:39.587Z</time>
      </trkpt>
      <trkpt lat="44.10519" lon="5.21351">
        <ele>375</ele>
        <time>2020-07-11T06:19:40.588Z</time>
      </trkpt>
      <trkpt lat="44.10516" lon="5.21356">
        <ele>375</ele>
        <time>2020-07-11T06:19:41.588Z</time>
      </trkpt>
      <trkpt lat="44.10513" lon="5.21361">
        <ele>375</ele>
        <time>2020-07-11T06:19:42.588Z</time>
      </trkpt>
      <trkpt lat="44.1051" lon="5.21367">
        <ele>375</ele>
        <time>2020-07-11T06:19:43.587Z</time>
      </trkpt>
      <trkpt lat="44.10507" lon="5.21372">
        <ele>376</ele>
        <time>2020-07-11T06:19:44.587Z</time>
      </trkpt>
      <trkpt lat="44.10504" lon="5.21377">
        <ele>376</ele>
        <time>2020-07-11T06:19:45.587Z</time>
      </trkpt>
      <trkpt lat="44.10501" lon="5.21382">
        <ele>376</ele>
        <time>2020-07-11T06:19:46.587Z</time>
      </trkpt>
      <trkpt lat="44.10498" lon="5.21387">
        <ele>376</ele>
        <time>2020-07-11T06:19:47.587Z</time>
      </trkpt>
      <trkpt lat="44.10495" lon="5.21392">
        <ele>377</ele>
        <time>2020-07-11T06:19:48.587Z</time>
      </trkpt>
      <trkpt lat="44.10492" lon="5.21398">
        <ele>377</ele>
        <time>2020-07-11T06:19:49.588Z</time>
      </trkpt>
      <trkpt lat="44.10489" lon="5.21403">
        <ele>377</ele>
        <time>2020-07-11T06:19:50.588Z</time>
      </trkpt>
      <trkpt lat="44.10487" lon="5.21408">
        <ele>378</ele>
        <time>2020-07-11T06:19:51.587Z</time>
      </trkpt>
      <trkpt lat="44.10484" lon="5.21413">
        <ele>378</ele>
        <time>2020-07-11T06:19:52.587Z</time>
      </trkpt>
      <trkpt lat="44.10481" lon="5.21418">
        <ele>378</ele>
        <time>2020-07-11T06:19:53.587Z</time>
      </trkpt>
      <trkpt lat="44.10478" lon="5.21423">
        <ele>378</ele>
        <time>2020-07-11T06:19:54.588Z</time>
      </trkpt>
      <trkpt lat="44.10475" lon="5.21428">
        <ele>378</ele>
        <time>2020-07-11T06:19:55.588Z</time>
      </trkpt>
      <trkpt lat="44.10473" lon="5.21433">
        <ele>378</ele>
        <time>2020-07-11T06:19:56.588Z</time>
      </trkpt>
      <trkpt lat="44.1047" lon="5.21438">
        <ele>378</ele>
        <time>2020-07-11T06:19:57.588Z</time>
      </trkpt>
      <trkpt lat="44.10467" lon="5.21444">
        <ele>379</ele>
        <time>2020-07-11T06:19:58.588Z</time>
      </trkpt>
      <trkpt lat="44.10464" lon="5.21449">
        <ele>379</ele>
        <time>2020-07-11T06:19:59.588Z</time>
      </trkpt>
      <trkpt lat="44.10461" lon="5.21454">
        <ele>380</ele>
        <time>2020-07-11T06:20:00.588Z</time>
      </trkpt>
      <trkpt lat="44.10458" lon="5.21459">
        <ele>380</ele>
        <time>2020-07-11T06:20:01.588Z</time>
      </trkpt>
      <trkpt lat="44.10455" lon="5.21465">
        <ele>380</ele>
        <time>2020-07-11T06:20:02.588Z</time>
      </trkpt>
      <trkpt lat="44.10452" lon="5.2147">
        <ele>380</ele>
        <time>2020-07-11T06:20:03.588Z</time>
      </trkpt>
      <trkpt lat="44.10449" lon="5.21475">
        <ele>380</ele>
        <time>2020-07-11T06:20:04.588Z</time>
      </trkpt>
      <trkpt lat="44.10446" lon="5.2148">
        <ele>380</ele>
        <time>2020-07-11T06:20:05.588Z</time>
      </trkpt>
      <trkpt lat="44.10443" lon="5.21486">
        <ele>380</ele>
        <time>2020-07-11T06:20:06.588Z</time>
      </trkpt>
      <trkpt lat="44.1044" lon="5.21491">
        <ele>380</ele>
        <time>2020-07-11T06:20:07.588Z</time>
      </trkpt>
      <trkpt lat="44.10437" lon="5.21497">
        <ele>381</ele>
        <time>2020-07-11T06:20:08.588Z</time>
      </trkpt>
      <trkpt lat="44.10434" lon="5.21502">
        <ele>381</ele>
        <time>2020-07-11T06:20:09.588Z</time>
      </trkpt>
      <trkpt lat="44.10431" lon="5.21508">
        <ele>381</ele>
        <time>2020-07-11T06:20:10.587Z</time>
      </trkpt>
      <trkpt lat="44.10427" lon="5.21513">
        <ele>381</ele>
        <time>2020-07-11T06:20:11.588Z</time>
      </trkpt>
      <trkpt lat="44.10424" lon="5.21519">
        <ele>382</ele>
        <time>2020-07-11T06:20:12.588Z</time>
      </trkpt>
      <trkpt lat="44.1042" lon="5.21524">
        <ele>382</ele>
        <time>2020-07-11T06:20:13.588Z</time>
      </trkpt>
      <trkpt lat="44.10417" lon="5.21529">
        <ele>383</ele>
        <time>2020-07-11T06:20:14.587Z</time>
      </trkpt>
      <trkpt lat="44.10413" lon="5.21534">
        <ele>383</ele>
        <time>2020-07-11T06:20:15.588Z</time>
      </trkpt>
      <trkpt lat="44.10409" lon="5.2154">
        <ele>383</ele>
        <time>2020-07-11T06:20:16.588Z</time>
      </trkpt>
      <trkpt lat="44.10405" lon="5.21545">
        <ele>383</ele>
        <time>2020-07-11T06:20:17.588Z</time>
      </trkpt>
      <trkpt lat="44.104" lon="5.2155">
        <ele>383</ele>
        <time>2020-07-11T06:20:18.588Z</time>
      </trkpt>
      <trkpt lat="44.10396" lon="5.21556">
        <ele>383</ele>
        <time>2020-07-11T06:20:19.587Z</time>
      </trkpt>
      <trkpt lat="44.10393" lon="5.21561">
        <ele>383</ele>
        <time>2020-07-11T06:20:20.588Z</time>
      </trkpt>
      <trkpt lat="44.10389" lon="5.21566">
        <ele>383</ele>
        <time>2020-07-11T06:20:21.587Z</time>
      </trkpt>
      <trkpt lat="44.10385" lon="5.21572">
        <ele>384</ele>
        <time>2020-07-11T06:20:22.588Z</time>
      </trkpt>
      <trkpt lat="44.10381" lon="5.21577">
        <ele>384</ele>
        <time>2020-07-11T06:20:23.588Z</time>
      </trkpt>
      <trkpt lat="44.10377" lon="5.21583">
        <ele>384</ele>
        <time>2020-07-11T06:20:24.588Z</time>
      </trkpt>
      <trkpt lat="44.10374" lon="5.21589">
        <ele>384</ele>
        <time>2020-07-11T06:20:25.587Z</time>
      </trkpt>
      <trkpt lat="44.10371" lon="5.21595">
        <ele>385</ele>
        <time>2020-07-11T06:20:26.588Z</time>
      </trkpt>
      <trkpt lat="44.10368" lon="5.21601">
        <ele>385</ele>
        <time>2020-07-11T06:20:27.588Z</time>
      </trkpt>
      <trkpt lat="44.10365" lon="5.21607">
        <ele>385</ele>
        <time>2020-07-11T06:20:28.588Z</time>
      </trkpt>
      <trkpt lat="44.10362" lon="5.21613">
        <ele>386</ele>
        <time>2020-07-11T06:20:29.588Z</time>
      </trkpt>
      <trkpt lat="44.10359" lon="5.2162">
        <ele>386</ele>
        <time>2020-07-11T06:20:30.588Z</time>
      </trkpt>
      <trkpt lat="44.10357" lon="5.21627">
        <ele>387</ele>
        <time>2020-07-11T06:20:31.587Z</time>
      </trkpt>
      <trkpt lat="44.10354" lon="5.21633">
        <ele>387</ele>
        <time>2020-07-11T06:20:32.588Z</time>
      </trkpt>
      <trkpt lat="44.10352" lon="5.2164">
        <ele>386</ele>
        <time>2020-07-11T06:20:33.588Z</time>
      </trkpt>
      <trkpt lat="44.1035" lon="5.21647">
        <ele>386</ele>
        <time>2020-07-11T06:20:34.587Z</time>
      </trkpt>
      <trkpt lat="44.10348" lon="5.21654">
        <ele>386</ele>
        <time>2020-07-11T06:20:35.587Z</time>
      </trkpt>
      <trkpt lat="44.10346" lon="5.21661">
        <ele>386</ele>
        <time>2020-07-11T06:20:36.588Z</time>
      </trkpt>
      <trkpt lat="44.10344" lon="5.21668">
        <ele>386</ele>
        <time>2020-07-11T06:20:37.588Z</time>
      </trkpt>
      <trkpt lat="44.10342" lon="5.21675">
        <ele>386</ele>
        <time>2020-07-11T06:20:38.588Z</time>
      </trkpt>
      <trkpt lat="44.10341" lon="5.21682">
        <ele>387</ele>
        <time>2020-07-11T06:20:39.587Z</time>
      </trkpt>
      <trkpt lat="44.10339" lon="5.21689">
        <ele>387</ele>
        <time>2020-07-11T06:20:40.588Z</time>
      </trkpt>
      <trkpt lat="44.10337" lon="5.21697">
        <ele>387</ele>
        <time>2020-07-11T06:20:41.587Z</time>
      </trkpt>
      <trkpt lat="44.10335" lon="5.21704">
        <ele>387</ele>
        <time>2020-07-11T06:20:42.588Z</time>
      </trkpt>
      <trkpt lat="44.10334" lon="5.21711">
        <ele>387</ele>
        <time>2020-07-11T06:20:43.588Z</time>
      </trkpt>
      <trkpt lat="44.10332" lon="5.21718">
        <ele>388</ele>
        <time>2020-07-11T06:20:44.588Z</time>
      </trkpt>
      <trkpt lat="44.10331" lon="5.21725">
        <ele>388</ele>
        <time>2020-07-11T06:20:45.588Z</time>
      </trkpt>
      <trkpt lat="44.10329" lon="5.21733">
        <ele>388</ele>
        <time>2020-07-11T06:20:46.587Z</time>
      </trkpt>
      <trkpt lat="44.10327" lon="5.2174">
        <ele>388</ele>
        <time>2020-07-11T06:20:47.588Z</time>
      </trkpt>
      <trkpt lat="44.10326" lon="5.21747">
        <ele>388</ele>
        <time>2020-07-11T06:20:48.588Z</time>
      </trkpt>
      <trkpt lat="44.10324" lon="5.21754">
        <ele>388</ele>
        <time>2020-07-11T06:20:49.587Z</time>
      </trkpt>
      <trkpt lat="44.10323" lon="5.2176">
        <ele>388</ele>
        <time>2020-07-11T06:20:50.588Z</time>
      </trkpt>
      <trkpt lat="44.10322" lon="5.21767">
        <ele>388</ele>
        <time>2020-07-11T06:20:51.588Z</time>
      </trkpt>
      <trkpt lat="44.1032" lon="5.21773">
        <ele>388</ele>
        <time>2020-07-11T06:20:52.587Z</time>
      </trkpt>
      <trkpt lat="44.10319" lon="5.21779">
        <ele>388</ele>
        <time>2020-07-11T06:20:53.588Z</time>
      </trkpt>
      <trkpt lat="44.10318" lon="5.21786">
        <ele>389</ele>
        <time>2020-07-11T06:20:54.588Z</time>
      </trkpt>
      <trkpt lat="44.10316" lon="5.21792">
        <ele>389</ele>
        <time>2020-07-11T06:20:55.587Z</time>
      </trkpt>
      <trkpt lat="44.10315" lon="5.21799">
        <ele>390</ele>
        <time>2020-07-11T06:20:56.588Z</time>
      </trkpt>
      <trkpt lat="44.10313" lon="5.21805">
        <ele>390</ele>
        <time>2020-07-11T06:20:57.588Z</time>
      </trkpt>
      <trkpt lat="44.10312" lon="5.2181">
        <ele>390</ele>
        <time>2020-07-11T06:20:58.587Z</time>
      </trkpt>
      <trkpt lat="44.10311" lon="5.21815">
        <ele>390</ele>
        <time>2020-07-11T06:20:59.588Z</time>
      </trkpt>
      <trkpt lat="44.1031" lon="5.2182">
        <ele>390</ele>
        <time>2020-07-11T06:21:00.587Z</time>
      </trkpt>
      <trkpt lat="44.10309" lon="5.21826">
        <ele>391</ele>
        <time>2020-07-11T06:21:01.588Z</time>
      </trkpt>
      <trkpt lat="44.10308" lon="5.21832">
        <ele>391</ele>
        <time>2020-07-11T06:21:02.588Z</time>
      </trkpt>
      <trkpt lat="44.10307" lon="5.21839">
        <ele>391</ele>
        <time>2020-07-11T06:21:03.588Z</time>
      </trkpt>
      <trkpt lat="44.10306" lon="5.21845">
        <ele>391</ele>
        <time>2020-07-11T06:21:04.587Z</time>
      </trkpt>
      <trkpt lat="44.10305" lon="5.21852">
        <ele>392</ele>
        <time>2020-07-11T06:21:05.588Z</time>
      </trkpt>
      <trkpt lat="44.10304" lon="5.21858">
        <ele>392</ele>
        <time>2020-07-11T06:21:06.588Z</time>
      </trkpt>
      <trkpt lat="44.10303" lon="5.21864">
        <ele>392</ele>
        <time>2020-07-11T06:21:07.588Z</time>
      </trkpt>
      <trkpt lat="44.10302" lon="5.21871">
        <ele>393</ele>
        <time>2020-07-11T06:21:08.588Z</time>
      </trkpt>
      <trkpt lat="44.10301" lon="5.21877">
        <ele>393</ele>
        <time>2020-07-11T06:21:09.587Z</time>
      </trkpt>
      <trkpt lat="44.103" lon="5.21883">
        <ele>393</ele>
        <time>2020-07-11T06:21:10.587Z</time>
      </trkpt>
      <trkpt lat="44.10299" lon="5.21889">
        <ele>394</ele>
        <time>2020-07-11T06:21:11.588Z</time>
      </trkpt>
      <trkpt lat="44.10298" lon="5.21895">
        <ele>394</ele>
        <time>2020-07-11T06:21:12.587Z</time>
      </trkpt>
      <trkpt lat="44.10297" lon="5.21901">
        <ele>394</ele>
        <time>2020-07-11T06:21:13.588Z</time>
      </trkpt>
      <trkpt lat="44.10296" lon="5.21907">
        <ele>393</ele>
        <time>2020-07-11T06:21:14.588Z</time>
      </trkpt>
      <trkpt lat="44.10295" lon="5.21913">
        <ele>393</ele>
        <time>2020-07-11T06:21:15.588Z</time>
      </trkpt>
      <trkpt lat="44.10294" lon="5.21919">
        <ele>393</ele>
        <time>2020-07-11T06:21:16.588Z</time>
      </trkpt>
      <trkpt lat="44.10293" lon="5.21926">
        <ele>393</ele>
        <time>2020-07-11T06:21:17.588Z</time>
      </trkpt>
      <trkpt lat="44.10293" lon="5.21932">
        <ele>393</ele>
        <time>2020-07-11T06:21:18.588Z</time>
      </trkpt>
      <trkpt lat="44.10292" lon="5.21938">
        <ele>393</ele>
        <time>2020-07-11T06:21:19.588Z</time>
      </trkpt>
      <trkpt lat="44.10291" lon="5.21944">
        <ele>394</ele>
        <time>2020-07-11T06:21:20.587Z</time>
      </trkpt>
      <trkpt lat="44.10291" lon="5.2195">
        <ele>393</ele>
        <time>2020-07-11T06:21:21.588Z</time>
      </trkpt>
      <trkpt lat="44.1029" lon="5.21956">
        <ele>393</ele>
        <time>2020-07-11T06:21:22.588Z</time>
      </trkpt>
      <trkpt lat="44.1029" lon="5.21963">
        <ele>393</ele>
        <time>2020-07-11T06:21:23.587Z</time>
      </trkpt>
      <trkpt lat="44.10289" lon="5.21969">
        <ele>394</ele>
        <time>2020-07-11T06:21:24.588Z</time>
      </trkpt>
      <trkpt lat="44.10289" lon="5.21976">
        <ele>394</ele>
        <time>2020-07-11T06:21:25.588Z</time>
      </trkpt>
      <trkpt lat="44.10289" lon="5.21982">
        <ele>395</ele>
        <time>2020-07-11T06:21:26.588Z</time>
      </trkpt>
      <trkpt lat="44.10289" lon="5.21989">
        <ele>395</ele>
        <time>2020-07-11T06:21:27.587Z</time>
      </trkpt>
      <trkpt lat="44.10289" lon="5.21995">
        <ele>395</ele>
        <time>2020-07-11T06:21:28.588Z</time>
      </trkpt>
      <trkpt lat="44.1029" lon="5.22002">
        <ele>395</ele>
        <time>2020-07-11T06:21:29.587Z</time>
      </trkpt>
      <trkpt lat="44.1029" lon="5.22009">
        <ele>395</ele>
        <time>2020-07-11T06:21:30.588Z</time>
      </trkpt>
      <trkpt lat="44.1029" lon="5.22015">
        <ele>395</ele>
        <time>2020-07-11T06:21:31.587Z</time>
      </trkpt>
      <trkpt lat="44.1029" lon="5.22022">
        <ele>396</ele>
        <time>2020-07-11T06:21:32.588Z</time>
      </trkpt>
      <trkpt lat="44.10291" lon="5.22029">
        <ele>396</ele>
        <time>2020-07-11T06:21:33.588Z</time>
      </trkpt>
      <trkpt lat="44.10292" lon="5.22036">
        <ele>396</ele>
        <time>2020-07-11T06:21:34.588Z</time>
      </trkpt>
      <trkpt lat="44.10292" lon="5.22043">
        <ele>396</ele>
        <time>2020-07-11T06:21:35.587Z</time>
      </trkpt>
      <trkpt lat="44.10293" lon="5.2205">
        <ele>396</ele>
        <time>2020-07-11T06:21:36.588Z</time>
      </trkpt>
      <trkpt lat="44.10294" lon="5.22057">
        <ele>397</ele>
        <time>2020-07-11T06:21:37.588Z</time>
      </trkpt>
      <trkpt lat="44.10295" lon="5.22064">
        <ele>397</ele>
        <time>2020-07-11T06:21:38.588Z</time>
      </trkpt>
      <trkpt lat="44.10295" lon="5.22071">
        <ele>398</ele>
        <time>2020-07-11T06:21:39.587Z</time>
      </trkpt>
      <trkpt lat="44.10296" lon="5.22078">
        <ele>398</ele>
        <time>2020-07-11T06:21:40.588Z</time>
      </trkpt>
      <trkpt lat="44.10296" lon="5.22085">
        <ele>398</ele>
        <time>2020-07-11T06:21:41.587Z</time>
      </trkpt>
      <trkpt lat="44.10296" lon="5.22092">
        <ele>398</ele>
        <time>2020-07-11T06:21:42.588Z</time>
      </trkpt>
      <trkpt lat="44.10295" lon="5.22099">
        <ele>398</ele>
        <time>2020-07-11T06:21:43.588Z</time>
      </trkpt>
      <trkpt lat="44.10295" lon="5.22106">
        <ele>399</ele>
        <time>2020-07-11T06:21:44.588Z</time>
      </trkpt>
      <trkpt lat="44.10294" lon="5.22113">
        <ele>399</ele>
        <time>2020-07-11T06:21:45.588Z</time>
      </trkpt>
      <trkpt lat="44.10292" lon="5.2212">
        <ele>400</ele>
        <time>2020-07-11T06:21:46.587Z</time>
      </trkpt>
      <trkpt lat="44.10291" lon="5.22127">
        <ele>400</ele>
        <time>2020-07-11T06:21:47.588Z</time>
      </trkpt>
      <trkpt lat="44.10289" lon="5.22134">
        <ele>400</ele>
        <time>2020-07-11T06:21:48.588Z</time>
      </trkpt>
      <trkpt lat="44.10287" lon="5.2214">
        <ele>400</ele>
        <time>2020-07-11T06:21:49.588Z</time>
      </trkpt>
      <trkpt lat="44.10285" lon="5.22147">
        <ele>400</ele>
        <time>2020-07-11T06:21:50.588Z</time>
      </trkpt>
      <trkpt lat="44.10283" lon="5.22153">
        <ele>400</ele>
        <time>2020-07-11T06:21:51.588Z</time>
      </trkpt>
      <trkpt lat="44.10281" lon="5.22159">
        <ele>400</ele>
        <time>2020-07-11T06:21:52.588Z</time>
      </trkpt>
      <trkpt lat="44.10279" lon="5.22166">
        <ele>401</ele>
        <time>2020-07-11T06:21:53.588Z</time>
      </trkpt>
      <trkpt lat="44.10276" lon="5.22172">
        <ele>401</ele>
        <time>2020-07-11T06:21:54.587Z</time>
      </trkpt>
      <trkpt lat="44.10274" lon="5.22178">
        <ele>401</ele>
        <time>2020-07-11T06:21:55.587Z</time>
      </trkpt>
      <trkpt lat="44.10272" lon="5.22184">
        <ele>401</ele>
        <time>2020-07-11T06:21:56.588Z</time>
      </trkpt>
      <trkpt lat="44.1027" lon="5.2219">
        <ele>401</ele>
        <time>2020-07-11T06:21:57.587Z</time>
      </trkpt>
      <trkpt lat="44.10268" lon="5.22196">
        <ele>401</ele>
        <time>2020-07-11T06:21:58.588Z</time>
      </trkpt>
      <trkpt lat="44.10266" lon="5.22202">
        <ele>401</ele>
        <time>2020-07-11T06:21:59.588Z</time>
      </trkpt>
      <trkpt lat="44.10264" lon="5.22208">
        <ele>401</ele>
        <time>2020-07-11T06:22:00.587Z</time>
      </trkpt>
      <trkpt lat="44.10262" lon="5.22214">
        <ele>401</ele>
        <time>2020-07-11T06:22:01.588Z</time>
      </trkpt>
      <trkpt lat="44.1026" lon="5.22219">
        <ele>401</ele>
        <time>2020-07-11T06:22:02.587Z</time>
      </trkpt>
      <trkpt lat="44.10257" lon="5.22225">
        <ele>401</ele>
        <time>2020-07-11T06:22:03.588Z</time>
      </trkpt>
      <trkpt lat="44.10255" lon="5.22231">
        <ele>401</ele>
        <time>2020-07-11T06:22:04.587Z</time>
      </trkpt>
      <trkpt lat="44.10253" lon="5.22237">
        <ele>402</ele>
        <time>2020-07-11T06:22:05.588Z</time>
      </trkpt>
      <trkpt lat="44.10251" lon="5.22243">
        <ele>402</ele>
        <time>2020-07-11T06:22:06.587Z</time>
      </trkpt>
      <trkpt lat="44.10249" lon="5.22248">
        <ele>402</ele>
        <time>2020-07-11T06:22:07.588Z</time>
      </trkpt>
      <trkpt lat="44.10247" lon="5.22254">
        <ele>403</ele>
        <time>2020-07-11T06:22:08.588Z</time>
      </trkpt>
      <trkpt lat="44.10245" lon="5.2226">
        <ele>403</ele>
        <time>2020-07-11T06:22:09.588Z</time>
      </trkpt>
      <trkpt lat="44.10243" lon="5.22266">
        <ele>404</ele>
        <time>2020-07-11T06:22:10.587Z</time>
      </trkpt>
      <trkpt lat="44.10241" lon="5.22271">
        <ele>404</ele>
        <time>2020-07-11T06:22:11.588Z</time>
      </trkpt>
      <trkpt lat="44.1024" lon="5.22277">
        <ele>404</ele>
        <time>2020-07-11T06:22:12.588Z</time>
      </trkpt>
      <trkpt lat="44.10238" lon="5.22283">
        <ele>404</ele>
        <time>2020-07-11T06:22:13.588Z</time>
      </trkpt>
      <trkpt lat="44.10236" lon="5.22289">
        <ele>404</ele>
        <time>2020-07-11T06:22:14.588Z</time>
      </trkpt>
      <trkpt lat="44.10233" lon="5.22294">
        <ele>404</ele>
        <time>2020-07-11T06:22:15.588Z</time>
      </trkpt>
      <trkpt lat="44.10231" lon="5.223">
        <ele>405</ele>
        <time>2020-07-11T06:22:16.588Z</time>
      </trkpt>
      <trkpt lat="44.10229" lon="5.22305">
        <ele>405</ele>
        <time>2020-07-11T06:22:17.588Z</time>
      </trkpt>
      <trkpt lat="44.10228" lon="5.2231">
        <ele>405</ele>
        <time>2020-07-11T06:22:18.588Z</time>
      </trkpt>
      <trkpt lat="44.10226" lon="5.22315">
        <ele>405</ele>
        <time>2020-07-11T06:22:19.588Z</time>
      </trkpt>
      <trkpt lat="44.10224" lon="5.22321">
        <ele>405</ele>
        <time>2020-07-11T06:22:20.587Z</time>
      </trkpt>
      <trkpt lat="44.10221" lon="5.22328">
        <ele>405</ele>
        <time>2020-07-11T06:22:21.588Z</time>
      </trkpt>
      <trkpt lat="44.10219" lon="5.22333">
        <ele>405</ele>
        <time>2020-07-11T06:22:22.587Z</time>
      </trkpt>
      <trkpt lat="44.10218" lon="5.22339">
        <ele>405</ele>
        <time>2020-07-11T06:22:23.588Z</time>
      </trkpt>
      <trkpt lat="44.10216" lon="5.22343">
        <ele>405</ele>
        <time>2020-07-11T06:22:24.588Z</time>
      </trkpt>
      <trkpt lat="44.10214" lon="5.2235">
        <ele>405</ele>
        <time>2020-07-11T06:22:25.588Z</time>
      </trkpt>
      <trkpt lat="44.10212" lon="5.22356">
        <ele>406</ele>
        <time>2020-07-11T06:22:26.588Z</time>
      </trkpt>
      <trkpt lat="44.1021" lon="5.22362">
        <ele>406</ele>
        <time>2020-07-11T06:22:27.588Z</time>
      </trkpt>
      <trkpt lat="44.10208" lon="5.22367">
        <ele>406</ele>
        <time>2020-07-11T06:22:28.587Z</time>
      </trkpt>
      <trkpt lat="44.10206" lon="5.22373">
        <ele>407</ele>
        <time>2020-07-11T06:22:29.588Z</time>
      </trkpt>
      <trkpt lat="44.10204" lon="5.22379">
        <ele>407</ele>
        <time>2020-07-11T06:22:30.587Z</time>
      </trkpt>
      <trkpt lat="44.10202" lon="5.22385">
        <ele>407</ele>
        <time>2020-07-11T06:22:31.588Z</time>
      </trkpt>
      <trkpt lat="44.10201" lon="5.2239">
        <ele>407</ele>
        <time>2020-07-11T06:22:32.588Z</time>
      </trkpt>
      <trkpt lat="44.10199" lon="5.22396">
        <ele>407</ele>
        <time>2020-07-11T06:22:33.587Z</time>
      </trkpt>
      <trkpt lat="44.10197" lon="5.22402">
        <ele>407</ele>
        <time>2020-07-11T06:22:34.587Z</time>
      </trkpt>
      <trkpt lat="44.10195" lon="5.22408">
        <ele>407</ele>
        <time>2020-07-11T06:22:35.587Z</time>
      </trkpt>
      <trkpt lat="44.10192" lon="5.22414">
        <ele>407</ele>
        <time>2020-07-11T06:22:36.587Z</time>
      </trkpt>
      <trkpt lat="44.10191" lon="5.22419">
        <ele>407</ele>
        <time>2020-07-11T06:22:37.588Z</time>
      </trkpt>
      <trkpt lat="44.10189" lon="5.22425">
        <ele>407</ele>
        <time>2020-07-11T06:22:38.587Z</time>
      </trkpt>
      <trkpt lat="44.10187" lon="5.22431">
        <ele>407</ele>
        <time>2020-07-11T06:22:39.588Z</time>
      </trkpt>
      <trkpt lat="44.10185" lon="5.22437">
        <ele>407</ele>
        <time>2020-07-11T06:22:40.588Z</time>
      </trkpt>
      <trkpt lat="44.10183" lon="5.22443">
        <ele>407</ele>
        <time>2020-07-11T06:22:41.588Z</time>
      </trkpt>
      <trkpt lat="44.10181" lon="5.22449">
        <ele>407</ele>
        <time>2020-07-11T06:22:42.588Z</time>
      </trkpt>
      <trkpt lat="44.10178" lon="5.22455">
        <ele>407</ele>
        <time>2020-07-11T06:22:43.588Z</time>
      </trkpt>
      <trkpt lat="44.10177" lon="5.22461">
        <ele>407</ele>
        <time>2020-07-11T06:22:44.587Z</time>
      </trkpt>
      <trkpt lat="44.10175" lon="5.22466">
        <ele>407</ele>
        <time>2020-07-11T06:22:45.588Z</time>
      </trkpt>
      <trkpt lat="44.10173" lon="5.22472">
        <ele>407</ele>
        <time>2020-07-11T06:22:46.587Z</time>
      </trkpt>
      <trkpt lat="44.10171" lon="5.22478">
        <ele>408</ele>
        <time>2020-07-11T06:22:47.588Z</time>
      </trkpt>
      <trkpt lat="44.10169" lon="5.22483">
        <ele>408</ele>
        <time>2020-07-11T06:22:48.588Z</time>
      </trkpt>
      <trkpt lat="44.10167" lon="5.22489">
        <ele>408</ele>
        <time>2020-07-11T06:22:49.587Z</time>
      </trkpt>
      <trkpt lat="44.10165" lon="5.22494">
        <ele>409</ele>
        <time>2020-07-11T06:22:50.587Z</time>
      </trkpt>
      <trkpt lat="44.10163" lon="5.225">
        <ele>410</ele>
        <time>2020-07-11T06:22:51.587Z</time>
      </trkpt>
      <trkpt lat="44.10161" lon="5.22506">
        <ele>410</ele>
        <time>2020-07-11T06:22:52.588Z</time>
      </trkpt>
      <trkpt lat="44.10159" lon="5.22511">
        <ele>411</ele>
        <time>2020-07-11T06:22:53.588Z</time>
      </trkpt>
      <trkpt lat="44.10157" lon="5.22517">
        <ele>411</ele>
        <time>2020-07-11T06:22:54.588Z</time>
      </trkpt>
      <trkpt lat="44.10156" lon="5.22522">
        <ele>411</ele>
        <time>2020-07-11T06:22:55.587Z</time>
      </trkpt>
      <trkpt lat="44.10154" lon="5.22528">
        <ele>412</ele>
        <time>2020-07-11T06:22:56.587Z</time>
      </trkpt>
      <trkpt lat="44.10152" lon="5.22534">
        <ele>412</ele>
        <time>2020-07-11T06:22:57.587Z</time>
      </trkpt>
      <trkpt lat="44.1015" lon="5.22539">
        <ele>412</ele>
        <time>2020-07-11T06:22:58.587Z</time>
      </trkpt>
      <trkpt lat="44.10148" lon="5.22545">
        <ele>412</ele>
        <time>2020-07-11T06:22:59.587Z</time>
      </trkpt>
      <trkpt lat="44.10147" lon="5.2255">
        <ele>413</ele>
        <time>2020-07-11T06:23:00.587Z</time>
      </trkpt>
      <trkpt lat="44.10145" lon="5.22556">
        <ele>413</ele>
        <time>2020-07-11T06:23:01.587Z</time>
      </trkpt>
      <trkpt lat="44.10144" lon="5.2256">
        <ele>413</ele>
        <time>2020-07-11T06:23:02.588Z</time>
      </trkpt>
      <trkpt lat="44.10142" lon="5.22567">
        <ele>414</ele>
        <time>2020-07-11T06:23:03.588Z</time>
      </trkpt>
      <trkpt lat="44.1014" lon="5.22573">
        <ele>414</ele>
        <time>2020-07-11T06:23:04.587Z</time>
      </trkpt>
      <trkpt lat="44.10138" lon="5.22579">
        <ele>414</ele>
        <time>2020-07-11T06:23:05.588Z</time>
      </trkpt>
      <trkpt lat="44.10137" lon="5.22585">
        <ele>415</ele>
        <time>2020-07-11T06:23:06.588Z</time>
      </trkpt>
      <trkpt lat="44.10135" lon="5.22591">
        <ele>415</ele>
        <time>2020-07-11T06:23:07.588Z</time>
      </trkpt>
      <trkpt lat="44.10134" lon="5.22597">
        <ele>416</ele>
        <time>2020-07-11T06:23:08.588Z</time>
      </trkpt>
      <trkpt lat="44.10132" lon="5.22604">
        <ele>416</ele>
        <time>2020-07-11T06:23:09.588Z</time>
      </trkpt>
      <trkpt lat="44.10131" lon="5.2261">
        <ele>416</ele>
        <time>2020-07-11T06:23:10.587Z</time>
      </trkpt>
      <trkpt lat="44.1013" lon="5.22616">
        <ele>416</ele>
        <time>2020-07-11T06:23:11.587Z</time>
      </trkpt>
      <trkpt lat="44.10129" lon="5.22622">
        <ele>416</ele>
        <time>2020-07-11T06:23:12.587Z</time>
      </trkpt>
      <trkpt lat="44.10128" lon="5.22628">
        <ele>416</ele>
        <time>2020-07-11T06:23:13.588Z</time>
      </trkpt>
      <trkpt lat="44.10127" lon="5.22634">
        <ele>417</ele>
        <time>2020-07-11T06:23:14.588Z</time>
      </trkpt>
      <trkpt lat="44.10126" lon="5.22641">
        <ele>417</ele>
        <time>2020-07-11T06:23:15.588Z</time>
      </trkpt>
      <trkpt lat="44.10125" lon="5.22647">
        <ele>417</ele>
        <time>2020-07-11T06:23:16.587Z</time>
      </trkpt>
      <trkpt lat="44.10125" lon="5.22653">
        <ele>418</ele>
        <time>2020-07-11T06:23:17.587Z</time>
      </trkpt>
      <trkpt lat="44.10124" lon="5.22659">
        <ele>418</ele>
        <time>2020-07-11T06:23:18.587Z</time>
      </trkpt>
      <trkpt lat="44.10123" lon="5.22665">
        <ele>419</ele>
        <time>2020-07-11T06:23:19.588Z</time>
      </trkpt>
      <trkpt lat="44.10121" lon="5.2267">
        <ele>419</ele>
        <time>2020-07-11T06:23:20.588Z</time>
      </trkpt>
      <trkpt lat="44.1012" lon="5.22676">
        <ele>419</ele>
        <time>2020-07-11T06:23:21.588Z</time>
      </trkpt>
      <trkpt lat="44.10119" lon="5.22681">
        <ele>419</ele>
        <time>2020-07-11T06:23:22.588Z</time>
      </trkpt>
      <trkpt lat="44.10117" lon="5.22687">
        <ele>419</ele>
        <time>2020-07-11T06:23:23.588Z</time>
      </trkpt>
      <trkpt lat="44.10115" lon="5.22693">
        <ele>419</ele>
        <time>2020-07-11T06:23:24.588Z</time>
      </trkpt>
      <trkpt lat="44.10113" lon="5.22698">
        <ele>419</ele>
        <time>2020-07-11T06:23:25.588Z</time>
      </trkpt>
      <trkpt lat="44.10111" lon="5.22704">
        <ele>420</ele>
        <time>2020-07-11T06:23:26.588Z</time>
      </trkpt>
      <trkpt lat="44.10109" lon="5.22709">
        <ele>420</ele>
        <time>2020-07-11T06:23:27.587Z</time>
      </trkpt>
      <trkpt lat="44.10107" lon="5.22715">
        <ele>421</ele>
        <time>2020-07-11T06:23:28.588Z</time>
      </trkpt>
      <trkpt lat="44.10105" lon="5.2272">
        <ele>421</ele>
        <time>2020-07-11T06:23:29.588Z</time>
      </trkpt>
      <trkpt lat="44.10103" lon="5.22725">
        <ele>421</ele>
        <time>2020-07-11T06:23:30.588Z</time>
      </trkpt>
      <trkpt lat="44.10101" lon="5.2273">
        <ele>421</ele>
        <time>2020-07-11T06:23:31.588Z</time>
      </trkpt>
      <trkpt lat="44.10099" lon="5.22735">
        <ele>421</ele>
        <time>2020-07-11T06:23:32.588Z</time>
      </trkpt>
      <trkpt lat="44.10097" lon="5.22741">
        <ele>421</ele>
        <time>2020-07-11T06:23:33.587Z</time>
      </trkpt>
      <trkpt lat="44.10095" lon="5.22746">
        <ele>422</ele>
        <time>2020-07-11T06:23:34.588Z</time>
      </trkpt>
      <trkpt lat="44.10093" lon="5.22752">
        <ele>422</ele>
        <time>2020-07-11T06:23:35.587Z</time>
      </trkpt>
      <trkpt lat="44.1009" lon="5.22757">
        <ele>422</ele>
        <time>2020-07-11T06:23:36.588Z</time>
      </trkpt>
      <trkpt lat="44.10088" lon="5.22762">
        <ele>423</ele>
        <time>2020-07-11T06:23:37.587Z</time>
      </trkpt>
      <trkpt lat="44.10086" lon="5.22767">
        <ele>423</ele>
        <time>2020-07-11T06:23:38.588Z</time>
      </trkpt>
      <trkpt lat="44.10084" lon="5.22773">
        <ele>423</ele>
        <time>2020-07-11T06:23:39.588Z</time>
      </trkpt>
      <trkpt lat="44.10082" lon="5.22778">
        <ele>423</ele>
        <time>2020-07-11T06:23:40.587Z</time>
      </trkpt>
      <trkpt lat="44.1008" lon="5.22783">
        <ele>423</ele>
        <time>2020-07-11T06:23:41.588Z</time>
      </trkpt>
      <trkpt lat="44.10078" lon="5.22789">
        <ele>423</ele>
        <time>2020-07-11T06:23:42.587Z</time>
      </trkpt>
      <trkpt lat="44.10075" lon="5.22794">
        <ele>423</ele>
        <time>2020-07-11T06:23:43.588Z</time>
      </trkpt>
      <trkpt lat="44.10073" lon="5.228">
        <ele>424</ele>
        <time>2020-07-11T06:23:44.588Z</time>
      </trkpt>
      <trkpt lat="44.10071" lon="5.22805">
        <ele>424</ele>
        <time>2020-07-11T06:23:45.588Z</time>
      </trkpt>
      <trkpt lat="44.10068" lon="5.2281">
        <ele>424</ele>
        <time>2020-07-11T06:23:46.588Z</time>
      </trkpt>
      <trkpt lat="44.10066" lon="5.22815">
        <ele>424</ele>
        <time>2020-07-11T06:23:47.588Z</time>
      </trkpt>
      <trkpt lat="44.10064" lon="5.2282">
        <ele>424</ele>
        <time>2020-07-11T06:23:48.588Z</time>
      </trkpt>
      <trkpt lat="44.10062" lon="5.22826">
        <ele>424</ele>
        <time>2020-07-11T06:23:49.588Z</time>
      </trkpt>
      <trkpt lat="44.1006" lon="5.22831">
        <ele>425</ele>
        <time>2020-07-11T06:23:50.587Z</time>
      </trkpt>
      <trkpt lat="44.10058" lon="5.22837">
        <ele>425</ele>
        <time>2020-07-11T06:23:51.588Z</time>
      </trkpt>
      <trkpt lat="44.10056" lon="5.22842">
        <ele>425</ele>
        <time>2020-07-11T06:23:52.588Z</time>
      </trkpt>
      <trkpt lat="44.10054" lon="5.22847">
        <ele>425</ele>
        <time>2020-07-11T06:23:53.588Z</time>
      </trkpt>
      <trkpt lat="44.10052" lon="5.22852">
        <ele>425</ele>
        <time>2020-07-11T06:23:54.588Z</time>
      </trkpt>
      <trkpt lat="44.1005" lon="5.22858">
        <ele>425</ele>
        <time>2020-07-11T06:23:55.588Z</time>
      </trkpt>
      <trkpt lat="44.10048" lon="5.22863">
        <ele>426</ele>
        <time>2020-07-11T06:23:56.588Z</time>
      </trkpt>
      <trkpt lat="44.10046" lon="5.22869">
        <ele>426</ele>
        <time>2020-07-11T06:23:57.587Z</time>
      </trkpt>
      <trkpt lat="44.10043" lon="5.22875">
        <ele>427</ele>
        <time>2020-07-11T06:23:58.587Z</time>
      </trkpt>
      <trkpt lat="44.10041" lon="5.2288">
        <ele>427</ele>
        <time>2020-07-11T06:23:59.588Z</time>
      </trkpt>
      <trkpt lat="44.10039" lon="5.22885">
        <ele>428</ele>
        <time>2020-07-11T06:24:00.588Z</time>
      </trkpt>
      <trkpt lat="44.10037" lon="5.22889">
        <ele>428</ele>
        <time>2020-07-11T06:24:01.587Z</time>
      </trkpt>
      <trkpt lat="44.10035" lon="5.22894">
        <ele>428</ele>
        <time>2020-07-11T06:24:02.587Z</time>
      </trkpt>
      <trkpt lat="44.10033" lon="5.22898">
        <ele>428</ele>
        <time>2020-07-11T06:24:03.587Z</time>
      </trkpt>
      <trkpt lat="44.10031" lon="5.22903">
        <ele>428</ele>
        <time>2020-07-11T06:24:04.588Z</time>
      </trkpt>
      <trkpt lat="44.10029" lon="5.22908">
        <ele>429</ele>
        <time>2020-07-11T06:24:05.588Z</time>
      </trkpt>
      <trkpt lat="44.10027" lon="5.22914">
        <ele>429</ele>
        <time>2020-07-11T06:24:06.588Z</time>
      </trkpt>
      <trkpt lat="44.10025" lon="5.22919">
        <ele>429</ele>
        <time>2020-07-11T06:24:07.588Z</time>
      </trkpt>
      <trkpt lat="44.10023" lon="5.22924">
        <ele>430</ele>
        <time>2020-07-11T06:24:08.587Z</time>
      </trkpt>
      <trkpt lat="44.10021" lon="5.22929">
        <ele>430</ele>
        <time>2020-07-11T06:24:09.588Z</time>
      </trkpt>
      <trkpt lat="44.10019" lon="5.22935">
        <ele>430</ele>
        <time>2020-07-11T06:24:10.588Z</time>
      </trkpt>
      <trkpt lat="44.10017" lon="5.2294">
        <ele>430</ele>
        <time>2020-07-11T06:24:11.587Z</time>
      </trkpt>
      <trkpt lat="44.10015" lon="5.22945">
        <ele>430</ele>
        <time>2020-07-11T06:24:12.587Z</time>
      </trkpt>
      <trkpt lat="44.10013" lon="5.22951">
        <ele>431</ele>
        <time>2020-07-11T06:24:13.588Z</time>
      </trkpt>
      <trkpt lat="44.10011" lon="5.22956">
        <ele>431</ele>
        <time>2020-07-11T06:24:14.587Z</time>
      </trkpt>
      <trkpt lat="44.10009" lon="5.22961">
        <ele>431</ele>
        <time>2020-07-11T06:24:15.587Z</time>
      </trkpt>
      <trkpt lat="44.10007" lon="5.22966">
        <ele>431</ele>
        <time>2020-07-11T06:24:16.588Z</time>
      </trkpt>
      <trkpt lat="44.10005" lon="5.22971">
        <ele>432</ele>
        <time>2020-07-11T06:24:17.588Z</time>
      </trkpt>
      <trkpt lat="44.10003" lon="5.22976">
        <ele>432</ele>
        <time>2020-07-11T06:24:18.587Z</time>
      </trkpt>
      <trkpt lat="44.10001" lon="5.2298">
        <ele>432</ele>
        <time>2020-07-11T06:24:19.588Z</time>
      </trkpt>
      <trkpt lat="44.09998" lon="5.22985">
        <ele>432</ele>
        <time>2020-07-11T06:24:20.588Z</time>
      </trkpt>
      <trkpt lat="44.09995" lon="5.22988">
        <ele>432</ele>
        <time>2020-07-11T06:24:21.588Z</time>
      </trkpt>
      <trkpt lat="44.0999" lon="5.22991">
        <ele>433</ele>
        <time>2020-07-11T06:24:22.588Z</time>
      </trkpt>
      <trkpt lat="44.09986" lon="5.22993">
        <ele>433</ele>
        <time>2020-07-11T06:24:23.587Z</time>
      </trkpt>
      <trkpt lat="44.09981" lon="5.22995">
        <ele>433</ele>
        <time>2020-07-11T06:24:24.588Z</time>
      </trkpt>
      <trkpt lat="44.09976" lon="5.22997">
        <ele>433</ele>
        <time>2020-07-11T06:24:25.587Z</time>
      </trkpt>
      <trkpt lat="44.09971" lon="5.22999">
        <ele>433</ele>
        <time>2020-07-11T06:24:26.588Z</time>
      </trkpt>
      <trkpt lat="44.09966" lon="5.23001">
        <ele>433</ele>
        <time>2020-07-11T06:24:27.587Z</time>
      </trkpt>
      <trkpt lat="44.09961" lon="5.23002">
        <ele>433</ele>
        <time>2020-07-11T06:24:28.588Z</time>
      </trkpt>
      <trkpt lat="44.09955" lon="5.23003">
        <ele>433</ele>
        <time>2020-07-11T06:24:29.588Z</time>
      </trkpt>
      <trkpt lat="44.09949" lon="5.23004">
        <ele>433</ele>
        <time>2020-07-11T06:24:30.588Z</time>
      </trkpt>
      <trkpt lat="44.09944" lon="5.23005">
        <ele>433</ele>
        <time>2020-07-11T06:24:31.588Z</time>
      </trkpt>
      <trkpt lat="44.09938" lon="5.23005">
        <ele>433</ele>
        <time>2020-07-11T06:24:32.588Z</time>
      </trkpt>
      <trkpt lat="44.09932" lon="5.23006">
        <ele>433</ele>
        <time>2020-07-11T06:24:33.588Z</time>
      </trkpt>
      <trkpt lat="44.09925" lon="5.23006">
        <ele>433</ele>
        <time>2020-07-11T06:24:34.587Z</time>
      </trkpt>
      <trkpt lat="44.09919" lon="5.23006">
        <ele>433</ele>
        <time>2020-07-11T06:24:35.587Z</time>
      </trkpt>
      <trkpt lat="44.09912" lon="5.23007">
        <ele>433</ele>
        <time>2020-07-11T06:24:36.588Z</time>
      </trkpt>
      <trkpt lat="44.09906" lon="5.23007">
        <ele>433</ele>
        <time>2020-07-11T06:24:37.588Z</time>
      </trkpt>
      <trkpt lat="44.09899" lon="5.23008">
        <ele>433</ele>
        <time>2020-07-11T06:24:38.587Z</time>
      </trkpt>
      <trkpt lat="44.09892" lon="5.23008">
        <ele>433</ele>
        <time>2020-07-11T06:24:39.588Z</time>
      </trkpt>
      <trkpt lat="44.09886" lon="5.23009">
        <ele>433</ele>
        <time>2020-07-11T06:24:40.588Z</time>
      </trkpt>
      <trkpt lat="44.0988" lon="5.23009">
        <ele>433</ele>
        <time>2020-07-11T06:24:41.588Z</time>
      </trkpt>
      <trkpt lat="44.09873" lon="5.2301">
        <ele>433</ele>
        <time>2020-07-11T06:24:42.587Z</time>
      </trkpt>
      <trkpt lat="44.09867" lon="5.2301">
        <ele>432</ele>
        <time>2020-07-11T06:24:43.588Z</time>
      </trkpt>
      <trkpt lat="44.09861" lon="5.2301">
        <ele>432</ele>
        <time>2020-07-11T06:24:44.587Z</time>
      </trkpt>
      <trkpt lat="44.09855" lon="5.23011">
        <ele>432</ele>
        <time>2020-07-11T06:24:45.588Z</time>
      </trkpt>
      <trkpt lat="44.09848" lon="5.23011">
        <ele>432</ele>
        <time>2020-07-11T06:24:46.588Z</time>
      </trkpt>
      <trkpt lat="44.09841" lon="5.23012">
        <ele>432</ele>
        <time>2020-07-11T06:24:47.587Z</time>
      </trkpt>
      <trkpt lat="44.09835" lon="5.23012">
        <ele>432</ele>
        <time>2020-07-11T06:24:48.588Z</time>
      </trkpt>
      <trkpt lat="44.09828" lon="5.23013">
        <ele>432</ele>
        <time>2020-07-11T06:24:49.588Z</time>
      </trkpt>
      <trkpt lat="44.09821" lon="5.23013">
        <ele>432</ele>
        <time>2020-07-11T06:24:50.588Z</time>
      </trkpt>
      <trkpt lat="44.09815" lon="5.23014">
        <ele>432</ele>
        <time>2020-07-11T06:24:51.587Z</time>
      </trkpt>
      <trkpt lat="44.09808" lon="5.23015">
        <ele>432</ele>
        <time>2020-07-11T06:24:52.588Z</time>
      </trkpt>
      <trkpt lat="44.09801" lon="5.23017">
        <ele>432</ele>
        <time>2020-07-11T06:24:53.587Z</time>
      </trkpt>
      <trkpt lat="44.09794" lon="5.2302">
        <ele>432</ele>
        <time>2020-07-11T06:24:54.587Z</time>
      </trkpt>
      <trkpt lat="44.09787" lon="5.23024">
        <ele>432</ele>
        <time>2020-07-11T06:24:55.587Z</time>
      </trkpt>
      <trkpt lat="44.0978" lon="5.23028">
        <ele>432</ele>
        <time>2020-07-11T06:24:56.587Z</time>
      </trkpt>
      <trkpt lat="44.09773" lon="5.23032">
        <ele>432</ele>
        <time>2020-07-11T06:24:57.588Z</time>
      </trkpt>
      <trkpt lat="44.09767" lon="5.23038">
        <ele>432</ele>
        <time>2020-07-11T06:24:58.588Z</time>
      </trkpt>
      <trkpt lat="44.09761" lon="5.23044">
        <ele>432</ele>
        <time>2020-07-11T06:24:59.588Z</time>
      </trkpt>
      <trkpt lat="44.09756" lon="5.23052">
        <ele>431</ele>
        <time>2020-07-11T06:25:00.587Z</time>
      </trkpt>
      <trkpt lat="44.09751" lon="5.2306">
        <ele>431</ele>
        <time>2020-07-11T06:25:01.588Z</time>
      </trkpt>
      <trkpt lat="44.09747" lon="5.2307">
        <ele>430</ele>
        <time>2020-07-11T06:25:02.588Z</time>
      </trkpt>
      <trkpt lat="44.09743" lon="5.2308">
        <ele>429</ele>
        <time>2020-07-11T06:25:03.588Z</time>
      </trkpt>
      <trkpt lat="44.09741" lon="5.23091">
        <ele>429</ele>
        <time>2020-07-11T06:25:04.587Z</time>
      </trkpt>
      <trkpt lat="44.09738" lon="5.23102">
        <ele>428</ele>
        <time>2020-07-11T06:25:05.588Z</time>
      </trkpt>
      <trkpt lat="44.09736" lon="5.23112">
        <ele>428</ele>
        <time>2020-07-11T06:25:06.588Z</time>
      </trkpt>
      <trkpt lat="44.09734" lon="5.23123">
        <ele>428</ele>
        <time>2020-07-11T06:25:07.587Z</time>
      </trkpt>
      <trkpt lat="44.09732" lon="5.23133">
        <ele>428</ele>
        <time>2020-07-11T06:25:08.588Z</time>
      </trkpt>
      <trkpt lat="44.0973" lon="5.23143">
        <ele>428</ele>
        <time>2020-07-11T06:25:09.588Z</time>
      </trkpt>
      <trkpt lat="44.09728" lon="5.23152">
        <ele>427</ele>
        <time>2020-07-11T06:25:10.587Z</time>
      </trkpt>
      <trkpt lat="44.09727" lon="5.23162">
        <ele>427</ele>
        <time>2020-07-11T06:25:11.587Z</time>
      </trkpt>
      <trkpt lat="44.09725" lon="5.23172">
        <ele>427</ele>
        <time>2020-07-11T06:25:12.587Z</time>
      </trkpt>
      <trkpt lat="44.09723" lon="5.23181">
        <ele>428</ele>
        <time>2020-07-11T06:25:13.587Z</time>
      </trkpt>
      <trkpt lat="44.09722" lon="5.2319">
        <ele>428</ele>
        <time>2020-07-11T06:25:14.588Z</time>
      </trkpt>
      <trkpt lat="44.0972" lon="5.23199">
        <ele>428</ele>
        <time>2020-07-11T06:25:15.587Z</time>
      </trkpt>
      <trkpt lat="44.09718" lon="5.23209">
        <ele>428</ele>
        <time>2020-07-11T06:25:16.588Z</time>
      </trkpt>
      <trkpt lat="44.09717" lon="5.23218">
        <ele>429</ele>
        <time>2020-07-11T06:25:17.588Z</time>
      </trkpt>
      <trkpt lat="44.09716" lon="5.23227">
        <ele>429</ele>
        <time>2020-07-11T06:25:18.587Z</time>
      </trkpt>
      <trkpt lat="44.09715" lon="5.23237">
        <ele>429</ele>
        <time>2020-07-11T06:25:19.587Z</time>
      </trkpt>
      <trkpt lat="44.09714" lon="5.23247">
        <ele>429</ele>
        <time>2020-07-11T06:25:20.588Z</time>
      </trkpt>
      <trkpt lat="44.09715" lon="5.23256">
        <ele>429</ele>
        <time>2020-07-11T06:25:21.587Z</time>
      </trkpt>
      <trkpt lat="44.09715" lon="5.23265">
        <ele>429</ele>
        <time>2020-07-11T06:25:22.588Z</time>
      </trkpt>
      <trkpt lat="44.09717" lon="5.23275">
        <ele>429</ele>
        <time>2020-07-11T06:25:23.588Z</time>
      </trkpt>
      <trkpt lat="44.09719" lon="5.23284">
        <ele>429</ele>
        <time>2020-07-11T06:25:24.588Z</time>
      </trkpt>
      <trkpt lat="44.0972" lon="5.23293">
        <ele>429</ele>
        <time>2020-07-11T06:25:25.588Z</time>
      </trkpt>
      <trkpt lat="44.09722" lon="5.23302">
        <ele>430</ele>
        <time>2020-07-11T06:25:26.588Z</time>
      </trkpt>
      <trkpt lat="44.09725" lon="5.23311">
        <ele>430</ele>
        <time>2020-07-11T06:25:27.587Z</time>
      </trkpt>
      <trkpt lat="44.09727" lon="5.2332">
        <ele>430</ele>
        <time>2020-07-11T06:25:28.587Z</time>
      </trkpt>
      <trkpt lat="44.09729" lon="5.23328">
        <ele>429</ele>
        <time>2020-07-11T06:25:29.587Z</time>
      </trkpt>
      <trkpt lat="44.09731" lon="5.23337">
        <ele>429</ele>
        <time>2020-07-11T06:25:30.587Z</time>
      </trkpt>
      <trkpt lat="44.09733" lon="5.23346">
        <ele>429</ele>
        <time>2020-07-11T06:25:31.588Z</time>
      </trkpt>
      <trkpt lat="44.09736" lon="5.23356">
        <ele>429</ele>
        <time>2020-07-11T06:25:32.588Z</time>
      </trkpt>
      <trkpt lat="44.09738" lon="5.23365">
        <ele>429</ele>
        <time>2020-07-11T06:25:33.588Z</time>
      </trkpt>
      <trkpt lat="44.0974" lon="5.23375">
        <ele>428</ele>
        <time>2020-07-11T06:25:34.588Z</time>
      </trkpt>
      <trkpt lat="44.09742" lon="5.23384">
        <ele>428</ele>
        <time>2020-07-11T06:25:35.588Z</time>
      </trkpt>
      <trkpt lat="44.09744" lon="5.23394">
        <ele>428</ele>
        <time>2020-07-11T06:25:36.588Z</time>
      </trkpt>
      <trkpt lat="44.09746" lon="5.23404">
        <ele>428</ele>
        <time>2020-07-11T06:25:37.588Z</time>
      </trkpt>
      <trkpt lat="44.09746" lon="5.23414">
        <ele>428</ele>
        <time>2020-07-11T06:25:38.588Z</time>
      </trkpt>
      <trkpt lat="44.09746" lon="5.23424">
        <ele>428</ele>
        <time>2020-07-11T06:25:39.588Z</time>
      </trkpt>
      <trkpt lat="44.09745" lon="5.23434">
        <ele>428</ele>
        <time>2020-07-11T06:25:40.588Z</time>
      </trkpt>
      <trkpt lat="44.09743" lon="5.23444">
        <ele>428</ele>
        <time>2020-07-11T06:25:41.587Z</time>
      </trkpt>
      <trkpt lat="44.09741" lon="5.23454">
        <ele>428</ele>
        <time>2020-07-11T06:25:42.588Z</time>
      </trkpt>
      <trkpt lat="44.09738" lon="5.23464">
        <ele>428</ele>
        <time>2020-07-11T06:25:43.588Z</time>
      </trkpt>
      <trkpt lat="44.09734" lon="5.23474">
        <ele>429</ele>
        <time>2020-07-11T06:25:44.588Z</time>
      </trkpt>
      <trkpt lat="44.09729" lon="5.23484">
        <ele>429</ele>
        <time>2020-07-11T06:25:45.588Z</time>
      </trkpt>
      <trkpt lat="44.09726" lon="5.23492">
        <ele>429</ele>
        <time>2020-07-11T06:25:46.588Z</time>
      </trkpt>
      <trkpt lat="44.09722" lon="5.23501">
        <ele>430</ele>
        <time>2020-07-11T06:25:47.587Z</time>
      </trkpt>
      <trkpt lat="44.09718" lon="5.23509">
        <ele>430</ele>
        <time>2020-07-11T06:25:48.588Z</time>
      </trkpt>
      <trkpt lat="44.09714" lon="5.23518">
        <ele>430</ele>
        <time>2020-07-11T06:25:49.588Z</time>
      </trkpt>
      <trkpt lat="44.09711" lon="5.23527">
        <ele>430</ele>
        <time>2020-07-11T06:25:50.588Z</time>
      </trkpt>
      <trkpt lat="44.09708" lon="5.23536">
        <ele>431</ele>
        <time>2020-07-11T06:25:51.588Z</time>
      </trkpt>
      <trkpt lat="44.09706" lon="5.23545">
        <ele>431</ele>
        <time>2020-07-11T06:25:52.588Z</time>
      </trkpt>
      <trkpt lat="44.09704" lon="5.23554">
        <ele>431</ele>
        <time>2020-07-11T06:25:53.587Z</time>
      </trkpt>
      <trkpt lat="44.09703" lon="5.23564">
        <ele>431</ele>
        <time>2020-07-11T06:25:54.588Z</time>
      </trkpt>
      <trkpt lat="44.09703" lon="5.23573">
        <ele>430</ele>
        <time>2020-07-11T06:25:55.588Z</time>
      </trkpt>
      <trkpt lat="44.09703" lon="5.23583">
        <ele>430</ele>
        <time>2020-07-11T06:25:56.588Z</time>
      </trkpt>
      <trkpt lat="44.09703" lon="5.23592">
        <ele>430</ele>
        <time>2020-07-11T06:25:57.588Z</time>
      </trkpt>
      <trkpt lat="44.09703" lon="5.23602">
        <ele>430</ele>
        <time>2020-07-11T06:25:58.588Z</time>
      </trkpt>
      <trkpt lat="44.09704" lon="5.23611">
        <ele>430</ele>
        <time>2020-07-11T06:25:59.588Z</time>
      </trkpt>
      <trkpt lat="44.09704" lon="5.23621">
        <ele>431</ele>
        <time>2020-07-11T06:26:00.587Z</time>
      </trkpt>
      <trkpt lat="44.09705" lon="5.2363">
        <ele>431</ele>
        <time>2020-07-11T06:26:01.588Z</time>
      </trkpt>
      <trkpt lat="44.09705" lon="5.23639">
        <ele>431</ele>
        <time>2020-07-11T06:26:02.587Z</time>
      </trkpt>
      <trkpt lat="44.09705" lon="5.23648">
        <ele>431</ele>
        <time>2020-07-11T06:26:03.588Z</time>
      </trkpt>
      <trkpt lat="44.09706" lon="5.23656">
        <ele>431</ele>
        <time>2020-07-11T06:26:04.588Z</time>
      </trkpt>
      <trkpt lat="44.09706" lon="5.23665">
        <ele>431</ele>
        <time>2020-07-11T06:26:05.588Z</time>
      </trkpt>
      <trkpt lat="44.09707" lon="5.23674">
        <ele>432</ele>
        <time>2020-07-11T06:26:06.587Z</time>
      </trkpt>
      <trkpt lat="44.09707" lon="5.23683">
        <ele>432</ele>
        <time>2020-07-11T06:26:07.588Z</time>
      </trkpt>
      <trkpt lat="44.09708" lon="5.23692">
        <ele>432</ele>
        <time>2020-07-11T06:26:08.587Z</time>
      </trkpt>
      <trkpt lat="44.09708" lon="5.23701">
        <ele>432</ele>
        <time>2020-07-11T06:26:09.588Z</time>
      </trkpt>
      <trkpt lat="44.09708" lon="5.2371">
        <ele>432</ele>
        <time>2020-07-11T06:26:10.588Z</time>
      </trkpt>
      <trkpt lat="44.09709" lon="5.23719">
        <ele>432</ele>
        <time>2020-07-11T06:26:11.588Z</time>
      </trkpt>
      <trkpt lat="44.0971" lon="5.23727">
        <ele>432</ele>
        <time>2020-07-11T06:26:12.588Z</time>
      </trkpt>
      <trkpt lat="44.09711" lon="5.23736">
        <ele>432</ele>
        <time>2020-07-11T06:26:13.588Z</time>
      </trkpt>
      <trkpt lat="44.09712" lon="5.23744">
        <ele>432</ele>
        <time>2020-07-11T06:26:14.587Z</time>
      </trkpt>
      <trkpt lat="44.09714" lon="5.23751">
        <ele>432</ele>
        <time>2020-07-11T06:26:15.588Z</time>
      </trkpt>
      <trkpt lat="44.09716" lon="5.23758">
        <ele>432</ele>
        <time>2020-07-11T06:26:16.588Z</time>
      </trkpt>
      <trkpt lat="44.09719" lon="5.23765">
        <ele>432</ele>
        <time>2020-07-11T06:26:17.587Z</time>
      </trkpt>
      <trkpt lat="44.09723" lon="5.23771">
        <ele>432</ele>
        <time>2020-07-11T06:26:18.588Z</time>
      </trkpt>
      <trkpt lat="44.09728" lon="5.23776">
        <ele>433</ele>
        <time>2020-07-11T06:26:19.588Z</time>
      </trkpt>
      <trkpt lat="44.09733" lon="5.23781">
        <ele>433</ele>
        <time>2020-07-11T06:26:20.588Z</time>
      </trkpt>
      <trkpt lat="44.09739" lon="5.23787">
        <ele>433</ele>
        <time>2020-07-11T06:26:21.588Z</time>
      </trkpt>
      <trkpt lat="44.09745" lon="5.23791">
        <ele>433</ele>
        <time>2020-07-11T06:26:22.588Z</time>
      </trkpt>
      <trkpt lat="44.0975" lon="5.23795">
        <ele>433</ele>
        <time>2020-07-11T06:26:23.588Z</time>
      </trkpt>
      <trkpt lat="44.09756" lon="5.238">
        <ele>433</ele>
        <time>2020-07-11T06:26:24.587Z</time>
      </trkpt>
      <trkpt lat="44.09762" lon="5.23805">
        <ele>433</ele>
        <time>2020-07-11T06:26:25.588Z</time>
      </trkpt>
      <trkpt lat="44.09768" lon="5.2381">
        <ele>433</ele>
        <time>2020-07-11T06:26:26.588Z</time>
      </trkpt>
      <trkpt lat="44.09774" lon="5.23815">
        <ele>433</ele>
        <time>2020-07-11T06:26:27.588Z</time>
      </trkpt>
      <trkpt lat="44.0978" lon="5.23821">
        <ele>433</ele>
        <time>2020-07-11T06:26:28.587Z</time>
      </trkpt>
      <trkpt lat="44.09787" lon="5.23826">
        <ele>433</ele>
        <time>2020-07-11T06:26:29.587Z</time>
      </trkpt>
      <trkpt lat="44.09794" lon="5.23831">
        <ele>433</ele>
        <time>2020-07-11T06:26:30.588Z</time>
      </trkpt>
      <trkpt lat="44.09801" lon="5.23836">
        <ele>433</ele>
        <time>2020-07-11T06:26:31.588Z</time>
      </trkpt>
      <trkpt lat="44.09807" lon="5.23842">
        <ele>433</ele>
        <time>2020-07-11T06:26:32.587Z</time>
      </trkpt>
      <trkpt lat="44.09813" lon="5.23847">
        <ele>433</ele>
        <time>2020-07-11T06:26:33.587Z</time>
      </trkpt>
      <trkpt lat="44.09819" lon="5.23852">
        <ele>433</ele>
        <time>2020-07-11T06:26:34.588Z</time>
      </trkpt>
      <trkpt lat="44.09825" lon="5.23858">
        <ele>433</ele>
        <time>2020-07-11T06:26:35.587Z</time>
      </trkpt>
      <trkpt lat="44.0983" lon="5.23863">
        <ele>433</ele>
        <time>2020-07-11T06:26:36.588Z</time>
      </trkpt>
      <trkpt lat="44.09836" lon="5.23869">
        <ele>434</ele>
        <time>2020-07-11T06:26:37.588Z</time>
      </trkpt>
      <trkpt lat="44.09841" lon="5.23876">
        <ele>434</ele>
        <time>2020-07-11T06:26:38.588Z</time>
      </trkpt>
      <trkpt lat="44.09846" lon="5.23887">
        <ele>434</ele>
        <time>2020-07-11T06:26:39.587Z</time>
      </trkpt>
      <trkpt lat="44.09848" lon="5.23895">
        <ele>433</ele>
        <time>2020-07-11T06:26:40.588Z</time>
      </trkpt>
      <trkpt lat="44.09848" lon="5.23905">
        <ele>433</ele>
        <time>2020-07-11T06:26:41.588Z</time>
      </trkpt>
      <trkpt lat="44.09848" lon="5.23916">
        <ele>432</ele>
        <time>2020-07-11T06:26:42.588Z</time>
      </trkpt>
      <trkpt lat="44.09846" lon="5.23927">
        <ele>431</ele>
        <time>2020-07-11T06:26:43.587Z</time>
      </trkpt>
      <trkpt lat="44.09844" lon="5.23938">
        <ele>431</ele>
        <time>2020-07-11T06:26:44.588Z</time>
      </trkpt>
      <trkpt lat="44.09842" lon="5.23949">
        <ele>430</ele>
        <time>2020-07-11T06:26:45.588Z</time>
      </trkpt>
      <trkpt lat="44.09839" lon="5.2396">
        <ele>430</ele>
        <time>2020-07-11T06:26:46.588Z</time>
      </trkpt>
      <trkpt lat="44.09835" lon="5.23971">
        <ele>429</ele>
        <time>2020-07-11T06:26:47.587Z</time>
      </trkpt>
      <trkpt lat="44.09831" lon="5.2398">
        <ele>428</ele>
        <time>2020-07-11T06:26:48.587Z</time>
      </trkpt>
      <trkpt lat="44.09828" lon="5.23989">
        <ele>428</ele>
        <time>2020-07-11T06:26:49.587Z</time>
      </trkpt>
      <trkpt lat="44.09825" lon="5.23995">
        <ele>428</ele>
        <time>2020-07-11T06:26:50.588Z</time>
      </trkpt>
      <trkpt lat="44.0982" lon="5.24002">
        <ele>428</ele>
        <time>2020-07-11T06:26:51.587Z</time>
      </trkpt>
      <trkpt lat="44.09815" lon="5.24004">
        <ele>428</ele>
        <time>2020-07-11T06:26:52.587Z</time>
      </trkpt>
      <trkpt lat="44.09808" lon="5.24003">
        <ele>428</ele>
        <time>2020-07-11T06:26:53.588Z</time>
      </trkpt>
      <trkpt lat="44.09803" lon="5.24002">
        <ele>428</ele>
        <time>2020-07-11T06:26:54.587Z</time>
      </trkpt>
      <trkpt lat="44.09795" lon="5.23999">
        <ele>428</ele>
        <time>2020-07-11T06:26:55.587Z</time>
      </trkpt>
      <trkpt lat="44.09788" lon="5.23996">
        <ele>427</ele>
        <time>2020-07-11T06:26:56.588Z</time>
      </trkpt>
      <trkpt lat="44.09779" lon="5.23992">
        <ele>427</ele>
        <time>2020-07-11T06:26:57.588Z</time>
      </trkpt>
      <trkpt lat="44.09771" lon="5.23989">
        <ele>427</ele>
        <time>2020-07-11T06:26:58.587Z</time>
      </trkpt>
      <trkpt lat="44.09761" lon="5.23986">
        <ele>427</ele>
        <time>2020-07-11T06:26:59.588Z</time>
      </trkpt>
      <trkpt lat="44.09752" lon="5.23984">
        <ele>426</ele>
        <time>2020-07-11T06:27:00.587Z</time>
      </trkpt>
      <trkpt lat="44.09742" lon="5.23981">
        <ele>426</ele>
        <time>2020-07-11T06:27:01.587Z</time>
      </trkpt>
      <trkpt lat="44.09732" lon="5.23978">
        <ele>425</ele>
        <time>2020-07-11T06:27:02.587Z</time>
      </trkpt>
      <trkpt lat="44.09722" lon="5.23976">
        <ele>425</ele>
        <time>2020-07-11T06:27:03.588Z</time>
      </trkpt>
      <trkpt lat="44.09711" lon="5.23973">
        <ele>425</ele>
        <time>2020-07-11T06:27:04.587Z</time>
      </trkpt>
      <trkpt lat="44.09701" lon="5.23971">
        <ele>424</ele>
        <time>2020-07-11T06:27:05.587Z</time>
      </trkpt>
      <trkpt lat="44.09691" lon="5.23968">
        <ele>424</ele>
        <time>2020-07-11T06:27:06.587Z</time>
      </trkpt>
      <trkpt lat="44.09681" lon="5.23967">
        <ele>423</ele>
        <time>2020-07-11T06:27:07.587Z</time>
      </trkpt>
      <trkpt lat="44.0967" lon="5.23965">
        <ele>423</ele>
        <time>2020-07-11T06:27:08.587Z</time>
      </trkpt>
      <trkpt lat="44.0966" lon="5.23964">
        <ele>422</ele>
        <time>2020-07-11T06:27:09.587Z</time>
      </trkpt>
      <trkpt lat="44.0965" lon="5.23962">
        <ele>422</ele>
        <time>2020-07-11T06:27:10.588Z</time>
      </trkpt>
      <trkpt lat="44.09639" lon="5.23961">
        <ele>421</ele>
        <time>2020-07-11T06:27:11.587Z</time>
      </trkpt>
      <trkpt lat="44.09629" lon="5.2396">
        <ele>421</ele>
        <time>2020-07-11T06:27:12.588Z</time>
      </trkpt>
      <trkpt lat="44.09618" lon="5.23959">
        <ele>420</ele>
        <time>2020-07-11T06:27:13.587Z</time>
      </trkpt>
      <trkpt lat="44.09608" lon="5.23958">
        <ele>420</ele>
        <time>2020-07-11T06:27:14.588Z</time>
      </trkpt>
      <trkpt lat="44.09598" lon="5.23958">
        <ele>420</ele>
        <time>2020-07-11T06:27:15.588Z</time>
      </trkpt>
      <trkpt lat="44.09587" lon="5.23958">
        <ele>419</ele>
        <time>2020-07-11T06:27:16.588Z</time>
      </trkpt>
      <trkpt lat="44.09576" lon="5.23958">
        <ele>419</ele>
        <time>2020-07-11T06:27:17.587Z</time>
      </trkpt>
      <trkpt lat="44.09565" lon="5.23958">
        <ele>419</ele>
        <time>2020-07-11T06:27:18.587Z</time>
      </trkpt>
      <trkpt lat="44.09554" lon="5.23958">
        <ele>418</ele>
        <time>2020-07-11T06:27:19.588Z</time>
      </trkpt>
      <trkpt lat="44.09543" lon="5.23959">
        <ele>418</ele>
        <time>2020-07-11T06:27:20.587Z</time>
      </trkpt>
      <trkpt lat="44.09532" lon="5.23959">
        <ele>418</ele>
        <time>2020-07-11T06:27:21.588Z</time>
      </trkpt>
      <trkpt lat="44.0952" lon="5.2396">
        <ele>417</ele>
        <time>2020-07-11T06:27:22.588Z</time>
      </trkpt>
      <trkpt lat="44.09509" lon="5.2396">
        <ele>416</ele>
        <time>2020-07-11T06:27:23.588Z</time>
      </trkpt>
      <trkpt lat="44.09498" lon="5.2396">
        <ele>415</ele>
        <time>2020-07-11T06:27:24.587Z</time>
      </trkpt>
      <trkpt lat="44.09487" lon="5.2396">
        <ele>415</ele>
        <time>2020-07-11T06:27:25.588Z</time>
      </trkpt>
      <trkpt lat="44.09476" lon="5.2396">
        <ele>414</ele>
        <time>2020-07-11T06:27:26.587Z</time>
      </trkpt>
      <trkpt lat="44.09465" lon="5.23961">
        <ele>414</ele>
        <time>2020-07-11T06:27:27.588Z</time>
      </trkpt>
      <trkpt lat="44.09454" lon="5.23961">
        <ele>414</ele>
        <time>2020-07-11T06:27:28.587Z</time>
      </trkpt>
      <trkpt lat="44.09443" lon="5.23961">
        <ele>413</ele>
        <time>2020-07-11T06:27:29.588Z</time>
      </trkpt>
      <trkpt lat="44.09432" lon="5.2396">
        <ele>413</ele>
        <time>2020-07-11T06:27:30.588Z</time>
      </trkpt>
      <trkpt lat="44.09422" lon="5.23959">
        <ele>412</ele>
        <time>2020-07-11T06:27:31.588Z</time>
      </trkpt>
      <trkpt lat="44.09411" lon="5.23957">
        <ele>412</ele>
        <time>2020-07-11T06:27:32.588Z</time>
      </trkpt>
      <trkpt lat="44.09401" lon="5.23954">
        <ele>411</ele>
        <time>2020-07-11T06:27:33.588Z</time>
      </trkpt>
      <trkpt lat="44.0939" lon="5.23951">
        <ele>410</ele>
        <time>2020-07-11T06:27:34.588Z</time>
      </trkpt>
      <trkpt lat="44.09379" lon="5.23948">
        <ele>410</ele>
        <time>2020-07-11T06:27:35.588Z</time>
      </trkpt>
      <trkpt lat="44.09369" lon="5.23945">
        <ele>409</ele>
        <time>2020-07-11T06:27:36.588Z</time>
      </trkpt>
      <trkpt lat="44.09359" lon="5.23942">
        <ele>409</ele>
        <time>2020-07-11T06:27:37.587Z</time>
      </trkpt>
      <trkpt lat="44.09349" lon="5.2394">
        <ele>409</ele>
        <time>2020-07-11T06:27:38.588Z</time>
      </trkpt>
      <trkpt lat="44.09338" lon="5.23939">
        <ele>409</ele>
        <time>2020-07-11T06:27:39.587Z</time>
      </trkpt>
      <trkpt lat="44.09328" lon="5.23938">
        <ele>408</ele>
        <time>2020-07-11T06:27:40.588Z</time>
      </trkpt>
      <trkpt lat="44.09318" lon="5.23938">
        <ele>408</ele>
        <time>2020-07-11T06:27:41.587Z</time>
      </trkpt>
      <trkpt lat="44.09307" lon="5.23938">
        <ele>407</ele>
        <time>2020-07-11T06:27:42.587Z</time>
      </trkpt>
      <trkpt lat="44.09297" lon="5.23939">
        <ele>407</ele>
        <time>2020-07-11T06:27:43.587Z</time>
      </trkpt>
      <trkpt lat="44.09286" lon="5.23939">
        <ele>407</ele>
        <time>2020-07-11T06:27:44.587Z</time>
      </trkpt>
      <trkpt lat="44.09275" lon="5.23938">
        <ele>406</ele>
        <time>2020-07-11T06:27:45.587Z</time>
      </trkpt>
      <trkpt lat="44.09264" lon="5.23938">
        <ele>406</ele>
        <time>2020-07-11T06:27:46.588Z</time>
      </trkpt>
      <trkpt lat="44.09254" lon="5.23936">
        <ele>406</ele>
        <time>2020-07-11T06:27:47.587Z</time>
      </trkpt>
      <trkpt lat="44.09243" lon="5.23934">
        <ele>405</ele>
        <time>2020-07-11T06:27:48.587Z</time>
      </trkpt>
      <trkpt lat="44.09233" lon="5.23931">
        <ele>405</ele>
        <time>2020-07-11T06:27:49.588Z</time>
      </trkpt>
      <trkpt lat="44.09223" lon="5.23928">
        <ele>404</ele>
        <time>2020-07-11T06:27:50.588Z</time>
      </trkpt>
      <trkpt lat="44.09212" lon="5.23924">
        <ele>404</ele>
        <time>2020-07-11T06:27:51.588Z</time>
      </trkpt>
      <trkpt lat="44.09202" lon="5.23921">
        <ele>403</ele>
        <time>2020-07-11T06:27:52.588Z</time>
      </trkpt>
      <trkpt lat="44.09191" lon="5.23917">
        <ele>402</ele>
        <time>2020-07-11T06:27:53.588Z</time>
      </trkpt>
      <trkpt lat="44.09181" lon="5.23913">
        <ele>401</ele>
        <time>2020-07-11T06:27:54.587Z</time>
      </trkpt>
      <trkpt lat="44.0917" lon="5.23909">
        <ele>400</ele>
        <time>2020-07-11T06:27:55.588Z</time>
      </trkpt>
      <trkpt lat="44.09159" lon="5.23906">
        <ele>400</ele>
        <time>2020-07-11T06:27:56.588Z</time>
      </trkpt>
      <trkpt lat="44.09148" lon="5.23902">
        <ele>399</ele>
        <time>2020-07-11T06:27:57.588Z</time>
      </trkpt>
      <trkpt lat="44.09137" lon="5.23898">
        <ele>399</ele>
        <time>2020-07-11T06:27:58.588Z</time>
      </trkpt>
      <trkpt lat="44.09126" lon="5.23894">
        <ele>398</ele>
        <time>2020-07-11T06:27:59.587Z</time>
      </trkpt>
      <trkpt lat="44.09115" lon="5.2389">
        <ele>398</ele>
        <time>2020-07-11T06:28:00.587Z</time>
      </trkpt>
      <trkpt lat="44.09105" lon="5.23886">
        <ele>398</ele>
        <time>2020-07-11T06:28:01.587Z</time>
      </trkpt>
      <trkpt lat="44.09094" lon="5.23882">
        <ele>397</ele>
        <time>2020-07-11T06:28:02.588Z</time>
      </trkpt>
      <trkpt lat="44.09084" lon="5.23877">
        <ele>397</ele>
        <time>2020-07-11T06:28:03.588Z</time>
      </trkpt>
      <trkpt lat="44.09073" lon="5.23873">
        <ele>396</ele>
        <time>2020-07-11T06:28:04.587Z</time>
      </trkpt>
      <trkpt lat="44.09063" lon="5.23867">
        <ele>396</ele>
        <time>2020-07-11T06:28:05.588Z</time>
      </trkpt>
      <trkpt lat="44.09053" lon="5.23862">
        <ele>395</ele>
        <time>2020-07-11T06:28:06.587Z</time>
      </trkpt>
      <trkpt lat="44.09043" lon="5.23856">
        <ele>395</ele>
        <time>2020-07-11T06:28:07.587Z</time>
      </trkpt>
      <trkpt lat="44.09033" lon="5.2385">
        <ele>394</ele>
        <time>2020-07-11T06:28:08.587Z</time>
      </trkpt>
      <trkpt lat="44.09023" lon="5.23843">
        <ele>394</ele>
        <time>2020-07-11T06:28:09.587Z</time>
      </trkpt>
      <trkpt lat="44.09013" lon="5.23835">
        <ele>394</ele>
        <time>2020-07-11T06:28:10.587Z</time>
      </trkpt>
      <trkpt lat="44.09004" lon="5.23827">
        <ele>393</ele>
        <time>2020-07-11T06:28:11.588Z</time>
      </trkpt>
      <trkpt lat="44.08994" lon="5.23819">
        <ele>393</ele>
        <time>2020-07-11T06:28:12.588Z</time>
      </trkpt>
      <trkpt lat="44.08983" lon="5.23809">
        <ele>392</ele>
        <time>2020-07-11T06:28:13.587Z</time>
      </trkpt>
      <trkpt lat="44.08975" lon="5.23803">
        <ele>392</ele>
        <time>2020-07-11T06:28:14.588Z</time>
      </trkpt>
      <trkpt lat="44.08965" lon="5.23796">
        <ele>391</ele>
        <time>2020-07-11T06:28:15.588Z</time>
      </trkpt>
      <trkpt lat="44.08955" lon="5.23789">
        <ele>391</ele>
        <time>2020-07-11T06:28:16.587Z</time>
      </trkpt>
      <trkpt lat="44.08946" lon="5.23781">
        <ele>391</ele>
        <time>2020-07-11T06:28:17.587Z</time>
      </trkpt>
      <trkpt lat="44.08936" lon="5.23774">
        <ele>390</ele>
        <time>2020-07-11T06:28:18.587Z</time>
      </trkpt>
      <trkpt lat="44.08927" lon="5.23767">
        <ele>390</ele>
        <time>2020-07-11T06:28:19.588Z</time>
      </trkpt>
      <trkpt lat="44.08917" lon="5.2376">
        <ele>390</ele>
        <time>2020-07-11T06:28:20.588Z</time>
      </trkpt>
      <trkpt lat="44.08908" lon="5.23754">
        <ele>390</ele>
        <time>2020-07-11T06:28:21.587Z</time>
      </trkpt>
      <trkpt lat="44.08898" lon="5.23748">
        <ele>389</ele>
        <time>2020-07-11T06:28:22.587Z</time>
      </trkpt>
      <trkpt lat="44.08888" lon="5.23742">
        <ele>389</ele>
        <time>2020-07-11T06:28:23.587Z</time>
      </trkpt>
      <trkpt lat="44.08879" lon="5.23736">
        <ele>389</ele>
        <time>2020-07-11T06:28:24.588Z</time>
      </trkpt>
      <trkpt lat="44.08869" lon="5.23729">
        <ele>389</ele>
        <time>2020-07-11T06:28:25.588Z</time>
      </trkpt>
      <trkpt lat="44.08859" lon="5.23723">
        <ele>388</ele>
        <time>2020-07-11T06:28:26.588Z</time>
      </trkpt>
      <trkpt lat="44.0885" lon="5.23716">
        <ele>387</ele>
        <time>2020-07-11T06:28:27.587Z</time>
      </trkpt>
      <trkpt lat="44.0884" lon="5.23708">
        <ele>386</ele>
        <time>2020-07-11T06:28:28.587Z</time>
      </trkpt>
      <trkpt lat="44.0883" lon="5.237">
        <ele>385</ele>
        <time>2020-07-11T06:28:29.587Z</time>
      </trkpt>
      <trkpt lat="44.08821" lon="5.23692">
        <ele>385</ele>
        <time>2020-07-11T06:28:30.588Z</time>
      </trkpt>
      <trkpt lat="44.08812" lon="5.23684">
        <ele>384</ele>
        <time>2020-07-11T06:28:31.588Z</time>
      </trkpt>
      <trkpt lat="44.08803" lon="5.23675">
        <ele>384</ele>
        <time>2020-07-11T06:28:32.587Z</time>
      </trkpt>
      <trkpt lat="44.08794" lon="5.23666">
        <ele>384</ele>
        <time>2020-07-11T06:28:33.587Z</time>
      </trkpt>
      <trkpt lat="44.08785" lon="5.23657">
        <ele>383</ele>
        <time>2020-07-11T06:28:34.587Z</time>
      </trkpt>
      <trkpt lat="44.08776" lon="5.23648">
        <ele>383</ele>
        <time>2020-07-11T06:28:35.587Z</time>
      </trkpt>
      <trkpt lat="44.08767" lon="5.2364">
        <ele>383</ele>
        <time>2020-07-11T06:28:36.588Z</time>
      </trkpt>
      <trkpt lat="44.08758" lon="5.23631">
        <ele>382</ele>
        <time>2020-07-11T06:28:37.587Z</time>
      </trkpt>
      <trkpt lat="44.08748" lon="5.23623">
        <ele>382</ele>
        <time>2020-07-11T06:28:38.587Z</time>
      </trkpt>
      <trkpt lat="44.08739" lon="5.23616">
        <ele>381</ele>
        <time>2020-07-11T06:28:39.587Z</time>
      </trkpt>
      <trkpt lat="44.08729" lon="5.2361">
        <ele>380</ele>
        <time>2020-07-11T06:28:40.587Z</time>
      </trkpt>
      <trkpt lat="44.08719" lon="5.23604">
        <ele>380</ele>
        <time>2020-07-11T06:28:41.587Z</time>
      </trkpt>
      <trkpt lat="44.08709" lon="5.236">
        <ele>379</ele>
        <time>2020-07-11T06:28:42.587Z</time>
      </trkpt>
      <trkpt lat="44.08699" lon="5.23596">
        <ele>379</ele>
        <time>2020-07-11T06:28:43.587Z</time>
      </trkpt>
      <trkpt lat="44.08688" lon="5.23593">
        <ele>378</ele>
        <time>2020-07-11T06:28:44.587Z</time>
      </trkpt>
      <trkpt lat="44.08678" lon="5.23589">
        <ele>378</ele>
        <time>2020-07-11T06:28:45.588Z</time>
      </trkpt>
      <trkpt lat="44.08667" lon="5.23586">
        <ele>378</ele>
        <time>2020-07-11T06:28:46.587Z</time>
      </trkpt>
      <trkpt lat="44.08657" lon="5.23583">
        <ele>377</ele>
        <time>2020-07-11T06:28:47.587Z</time>
      </trkpt>
      <trkpt lat="44.08647" lon="5.2358">
        <ele>377</ele>
        <time>2020-07-11T06:28:48.587Z</time>
      </trkpt>
      <trkpt lat="44.08636" lon="5.23577">
        <ele>376</ele>
        <time>2020-07-11T06:28:49.587Z</time>
      </trkpt>
      <trkpt lat="44.08626" lon="5.23575">
        <ele>376</ele>
        <time>2020-07-11T06:28:50.588Z</time>
      </trkpt>
      <trkpt lat="44.08616" lon="5.23574">
        <ele>375</ele>
        <time>2020-07-11T06:28:51.587Z</time>
      </trkpt>
      <trkpt lat="44.08606" lon="5.23575">
        <ele>375</ele>
        <time>2020-07-11T06:28:52.587Z</time>
      </trkpt>
      <trkpt lat="44.08597" lon="5.23579">
        <ele>374</ele>
        <time>2020-07-11T06:28:53.587Z</time>
      </trkpt>
      <trkpt lat="44.08587" lon="5.23584">
        <ele>374</ele>
        <time>2020-07-11T06:28:54.587Z</time>
      </trkpt>
      <trkpt lat="44.08577" lon="5.23589">
        <ele>373</ele>
        <time>2020-07-11T06:28:55.588Z</time>
      </trkpt>
      <trkpt lat="44.08568" lon="5.23594">
        <ele>373</ele>
        <time>2020-07-11T06:28:56.588Z</time>
      </trkpt>
      <trkpt lat="44.08558" lon="5.236">
        <ele>372</ele>
        <time>2020-07-11T06:28:57.587Z</time>
      </trkpt>
      <trkpt lat="44.08549" lon="5.23606">
        <ele>372</ele>
        <time>2020-07-11T06:28:58.588Z</time>
      </trkpt>
      <trkpt lat="44.08539" lon="5.2361">
        <ele>371</ele>
        <time>2020-07-11T06:28:59.587Z</time>
      </trkpt>
      <trkpt lat="44.08529" lon="5.23613">
        <ele>371</ele>
        <time>2020-07-11T06:29:00.588Z</time>
      </trkpt>
      <trkpt lat="44.08519" lon="5.23614">
        <ele>371</ele>
        <time>2020-07-11T06:29:01.587Z</time>
      </trkpt>
      <trkpt lat="44.08508" lon="5.23613">
        <ele>370</ele>
        <time>2020-07-11T06:29:02.587Z</time>
      </trkpt>
      <trkpt lat="44.08498" lon="5.23612">
        <ele>370</ele>
        <time>2020-07-11T06:29:03.587Z</time>
      </trkpt>
      <trkpt lat="44.08487" lon="5.23609">
        <ele>370</ele>
        <time>2020-07-11T06:29:04.587Z</time>
      </trkpt>
      <trkpt lat="44.08477" lon="5.23607">
        <ele>369</ele>
        <time>2020-07-11T06:29:05.587Z</time>
      </trkpt>
      <trkpt lat="44.08467" lon="5.23604">
        <ele>369</ele>
        <time>2020-07-11T06:29:06.587Z</time>
      </trkpt>
      <trkpt lat="44.08456" lon="5.23601">
        <ele>368</ele>
        <time>2020-07-11T06:29:07.587Z</time>
      </trkpt>
      <trkpt lat="44.08446" lon="5.23598">
        <ele>368</ele>
        <time>2020-07-11T06:29:08.587Z</time>
      </trkpt>
      <trkpt lat="44.08436" lon="5.23595">
        <ele>368</ele>
        <time>2020-07-11T06:29:09.587Z</time>
      </trkpt>
      <trkpt lat="44.08426" lon="5.23592">
        <ele>367</ele>
        <time>2020-07-11T06:29:10.588Z</time>
      </trkpt>
      <trkpt lat="44.08415" lon="5.23588">
        <ele>367</ele>
        <time>2020-07-11T06:29:11.588Z</time>
      </trkpt>
      <trkpt lat="44.08405" lon="5.23585">
        <ele>366</ele>
        <time>2020-07-11T06:29:12.588Z</time>
      </trkpt>
      <trkpt lat="44.08394" lon="5.23581">
        <ele>366</ele>
        <time>2020-07-11T06:29:13.588Z</time>
      </trkpt>
      <trkpt lat="44.08383" lon="5.23577">
        <ele>365</ele>
        <time>2020-07-11T06:29:14.588Z</time>
      </trkpt>
      <trkpt lat="44.08373" lon="5.23572">
        <ele>365</ele>
        <time>2020-07-11T06:29:15.588Z</time>
      </trkpt>
      <trkpt lat="44.08362" lon="5.23568">
        <ele>365</ele>
        <time>2020-07-11T06:29:16.587Z</time>
      </trkpt>
      <trkpt lat="44.08351" lon="5.23564">
        <ele>365</ele>
        <time>2020-07-11T06:29:17.588Z</time>
      </trkpt>
      <trkpt lat="44.08341" lon="5.23559">
        <ele>365</ele>
        <time>2020-07-11T06:29:18.588Z</time>
      </trkpt>
      <trkpt lat="44.08328" lon="5.23554">
        <ele>364</ele>
        <time>2020-07-11T06:29:19.588Z</time>
      </trkpt>
      <trkpt lat="44.08319" lon="5.2355">
        <ele>364</ele>
        <time>2020-07-11T06:29:20.587Z</time>
      </trkpt>
      <trkpt lat="44.08308" lon="5.23546">
        <ele>363</ele>
        <time>2020-07-11T06:29:21.588Z</time>
      </trkpt>
      <trkpt lat="44.08298" lon="5.23542">
        <ele>363</ele>
        <time>2020-07-11T06:29:22.588Z</time>
      </trkpt>
      <trkpt lat="44.08287" lon="5.23537">
        <ele>362</ele>
        <time>2020-07-11T06:29:23.587Z</time>
      </trkpt>
      <trkpt lat="44.08277" lon="5.23533">
        <ele>362</ele>
        <time>2020-07-11T06:29:24.588Z</time>
      </trkpt>
      <trkpt lat="44.08267" lon="5.23529">
        <ele>361</ele>
        <time>2020-07-11T06:29:25.588Z</time>
      </trkpt>
      <trkpt lat="44.08257" lon="5.23526">
        <ele>360</ele>
        <time>2020-07-11T06:29:26.588Z</time>
      </trkpt>
      <trkpt lat="44.08246" lon="5.23523">
        <ele>359</ele>
        <time>2020-07-11T06:29:27.588Z</time>
      </trkpt>
      <trkpt lat="44.08236" lon="5.23521">
        <ele>359</ele>
        <time>2020-07-11T06:29:28.587Z</time>
      </trkpt>
      <trkpt lat="44.08225" lon="5.23519">
        <ele>358</ele>
        <time>2020-07-11T06:29:29.587Z</time>
      </trkpt>
      <trkpt lat="44.08214" lon="5.23518">
        <ele>357</ele>
        <time>2020-07-11T06:29:30.587Z</time>
      </trkpt>
      <trkpt lat="44.08203" lon="5.23518">
        <ele>356</ele>
        <time>2020-07-11T06:29:31.588Z</time>
      </trkpt>
      <trkpt lat="44.08192" lon="5.23518">
        <ele>356</ele>
        <time>2020-07-11T06:29:32.587Z</time>
      </trkpt>
      <trkpt lat="44.08181" lon="5.23519">
        <ele>355</ele>
        <time>2020-07-11T06:29:33.588Z</time>
      </trkpt>
      <trkpt lat="44.0817" lon="5.23518">
        <ele>354</ele>
        <time>2020-07-11T06:29:34.588Z</time>
      </trkpt>
      <trkpt lat="44.0816" lon="5.23518">
        <ele>353</ele>
        <time>2020-07-11T06:29:35.588Z</time>
      </trkpt>
      <trkpt lat="44.08149" lon="5.23518">
        <ele>353</ele>
        <time>2020-07-11T06:29:36.588Z</time>
      </trkpt>
      <trkpt lat="44.08139" lon="5.23518">
        <ele>353</ele>
        <time>2020-07-11T06:29:37.588Z</time>
      </trkpt>
      <trkpt lat="44.08129" lon="5.23517">
        <ele>352</ele>
        <time>2020-07-11T06:29:38.587Z</time>
      </trkpt>
      <trkpt lat="44.08118" lon="5.23516">
        <ele>352</ele>
        <time>2020-07-11T06:29:39.587Z</time>
      </trkpt>
      <trkpt lat="44.08109" lon="5.23516">
        <ele>352</ele>
        <time>2020-07-11T06:29:40.588Z</time>
      </trkpt>
      <trkpt lat="44.08099" lon="5.23517">
        <ele>352</ele>
        <time>2020-07-11T06:29:41.587Z</time>
      </trkpt>
      <trkpt lat="44.0809" lon="5.23516">
        <ele>352</ele>
        <time>2020-07-11T06:29:42.587Z</time>
      </trkpt>
      <trkpt lat="44.08079" lon="5.23516">
        <ele>352</ele>
        <time>2020-07-11T06:29:43.587Z</time>
      </trkpt>
      <trkpt lat="44.08069" lon="5.23516">
        <ele>351</ele>
        <time>2020-07-11T06:29:44.588Z</time>
      </trkpt>
      <trkpt lat="44.0806" lon="5.23515">
        <ele>351</ele>
        <time>2020-07-11T06:29:45.587Z</time>
      </trkpt>
      <trkpt lat="44.0805" lon="5.23515">
        <ele>351</ele>
        <time>2020-07-11T06:29:46.587Z</time>
      </trkpt>
      <trkpt lat="44.0804" lon="5.23515">
        <ele>351</ele>
        <time>2020-07-11T06:29:47.588Z</time>
      </trkpt>
      <trkpt lat="44.0803" lon="5.23515">
        <ele>351</ele>
        <time>2020-07-11T06:29:48.588Z</time>
      </trkpt>
      <trkpt lat="44.0802" lon="5.23515">
        <ele>350</ele>
        <time>2020-07-11T06:29:49.587Z</time>
      </trkpt>
      <trkpt lat="44.08011" lon="5.23514">
        <ele>350</ele>
        <time>2020-07-11T06:29:50.587Z</time>
      </trkpt>
      <trkpt lat="44.08002" lon="5.23513">
        <ele>350</ele>
        <time>2020-07-11T06:29:51.588Z</time>
      </trkpt>
      <trkpt lat="44.07992" lon="5.23513">
        <ele>350</ele>
        <time>2020-07-11T06:29:52.588Z</time>
      </trkpt>
      <trkpt lat="44.07982" lon="5.23513">
        <ele>350</ele>
        <time>2020-07-11T06:29:53.587Z</time>
      </trkpt>
      <trkpt lat="44.07973" lon="5.23512">
        <ele>350</ele>
        <time>2020-07-11T06:29:54.588Z</time>
      </trkpt>
      <trkpt lat="44.07963" lon="5.23512">
        <ele>350</ele>
        <time>2020-07-11T06:29:55.588Z</time>
      </trkpt>
      <trkpt lat="44.07951" lon="5.23511">
        <ele>350</ele>
        <time>2020-07-11T06:29:56.588Z</time>
      </trkpt>
      <trkpt lat="44.07944" lon="5.23511">
        <ele>351</ele>
        <time>2020-07-11T06:29:57.588Z</time>
      </trkpt>
      <trkpt lat="44.07934" lon="5.2351">
        <ele>351</ele>
        <time>2020-07-11T06:29:58.588Z</time>
      </trkpt>
      <trkpt lat="44.07925" lon="5.23509">
        <ele>351</ele>
        <time>2020-07-11T06:29:59.588Z</time>
      </trkpt>
      <trkpt lat="44.07915" lon="5.23508">
        <ele>351</ele>
        <time>2020-07-11T06:30:00.588Z</time>
      </trkpt>
      <trkpt lat="44.07905" lon="5.23506">
        <ele>351</ele>
        <time>2020-07-11T06:30:01.588Z</time>
      </trkpt>
      <trkpt lat="44.07895" lon="5.23505">
        <ele>350</ele>
        <time>2020-07-11T06:30:02.588Z</time>
      </trkpt>
      <trkpt lat="44.07886" lon="5.23503">
        <ele>350</ele>
        <time>2020-07-11T06:30:03.588Z</time>
      </trkpt>
      <trkpt lat="44.07876" lon="5.23501">
        <ele>351</ele>
        <time>2020-07-11T06:30:04.588Z</time>
      </trkpt>
      <trkpt lat="44.07866" lon="5.235">
        <ele>351</ele>
        <time>2020-07-11T06:30:05.588Z</time>
      </trkpt>
      <trkpt lat="44.07857" lon="5.23498">
        <ele>351</ele>
        <time>2020-07-11T06:30:06.587Z</time>
      </trkpt>
      <trkpt lat="44.07847" lon="5.23496">
        <ele>350</ele>
        <time>2020-07-11T06:30:07.587Z</time>
      </trkpt>
      <trkpt lat="44.07838" lon="5.23494">
        <ele>350</ele>
        <time>2020-07-11T06:30:08.588Z</time>
      </trkpt>
      <trkpt lat="44.07828" lon="5.23493">
        <ele>349</ele>
        <time>2020-07-11T06:30:09.588Z</time>
      </trkpt>
      <trkpt lat="44.07819" lon="5.23491">
        <ele>349</ele>
        <time>2020-07-11T06:30:10.587Z</time>
      </trkpt>
      <trkpt lat="44.07809" lon="5.2349">
        <ele>348</ele>
        <time>2020-07-11T06:30:11.588Z</time>
      </trkpt>
      <trkpt lat="44.07799" lon="5.23488">
        <ele>348</ele>
        <time>2020-07-11T06:30:12.588Z</time>
      </trkpt>
      <trkpt lat="44.0779" lon="5.23486">
        <ele>347</ele>
        <time>2020-07-11T06:30:13.587Z</time>
      </trkpt>
      <trkpt lat="44.0778" lon="5.23485">
        <ele>347</ele>
        <time>2020-07-11T06:30:14.588Z</time>
      </trkpt>
      <trkpt lat="44.0777" lon="5.23483">
        <ele>347</ele>
        <time>2020-07-11T06:30:15.588Z</time>
      </trkpt>
      <trkpt lat="44.0776" lon="5.23482">
        <ele>346</ele>
        <time>2020-07-11T06:30:16.587Z</time>
      </trkpt>
      <trkpt lat="44.0775" lon="5.2348">
        <ele>346</ele>
        <time>2020-07-11T06:30:17.588Z</time>
      </trkpt>
      <trkpt lat="44.0774" lon="5.23479">
        <ele>345</ele>
        <time>2020-07-11T06:30:18.588Z</time>
      </trkpt>
      <trkpt lat="44.0773" lon="5.23477">
        <ele>345</ele>
        <time>2020-07-11T06:30:19.588Z</time>
      </trkpt>
      <trkpt lat="44.0772" lon="5.23475">
        <ele>345</ele>
        <time>2020-07-11T06:30:20.588Z</time>
      </trkpt>
      <trkpt lat="44.0771" lon="5.23473">
        <ele>345</ele>
        <time>2020-07-11T06:30:21.588Z</time>
      </trkpt>
      <trkpt lat="44.077" lon="5.23472">
        <ele>344</ele>
        <time>2020-07-11T06:30:22.587Z</time>
      </trkpt>
      <trkpt lat="44.0769" lon="5.2347">
        <ele>344</ele>
        <time>2020-07-11T06:30:23.588Z</time>
      </trkpt>
      <trkpt lat="44.0768" lon="5.23469">
        <ele>344</ele>
        <time>2020-07-11T06:30:24.588Z</time>
      </trkpt>
      <trkpt lat="44.0767" lon="5.23468">
        <ele>343</ele>
        <time>2020-07-11T06:30:25.588Z</time>
      </trkpt>
      <trkpt lat="44.0766" lon="5.23467">
        <ele>343</ele>
        <time>2020-07-11T06:30:26.587Z</time>
      </trkpt>
      <trkpt lat="44.07649" lon="5.23466">
        <ele>343</ele>
        <time>2020-07-11T06:30:27.587Z</time>
      </trkpt>
      <trkpt lat="44.07639" lon="5.23465">
        <ele>342</ele>
        <time>2020-07-11T06:30:28.588Z</time>
      </trkpt>
      <trkpt lat="44.07628" lon="5.23464">
        <ele>342</ele>
        <time>2020-07-11T06:30:29.587Z</time>
      </trkpt>
      <trkpt lat="44.07619" lon="5.23463">
        <ele>342</ele>
        <time>2020-07-11T06:30:30.588Z</time>
      </trkpt>
      <trkpt lat="44.07609" lon="5.23462">
        <ele>341</ele>
        <time>2020-07-11T06:30:31.588Z</time>
      </trkpt>
      <trkpt lat="44.076" lon="5.23461">
        <ele>341</ele>
        <time>2020-07-11T06:30:32.588Z</time>
      </trkpt>
      <trkpt lat="44.07591" lon="5.2346">
        <ele>340</ele>
        <time>2020-07-11T06:30:33.587Z</time>
      </trkpt>
      <trkpt lat="44.07581" lon="5.23459">
        <ele>339</ele>
        <time>2020-07-11T06:30:34.588Z</time>
      </trkpt>
      <trkpt lat="44.07571" lon="5.23458">
        <ele>339</ele>
        <time>2020-07-11T06:30:35.587Z</time>
      </trkpt>
      <trkpt lat="44.07561" lon="5.23457">
        <ele>339</ele>
        <time>2020-07-11T06:30:36.587Z</time>
      </trkpt>
      <trkpt lat="44.07551" lon="5.23456">
        <ele>338</ele>
        <time>2020-07-11T06:30:37.587Z</time>
      </trkpt>
      <trkpt lat="44.07542" lon="5.23455">
        <ele>338</ele>
        <time>2020-07-11T06:30:38.588Z</time>
      </trkpt>
      <trkpt lat="44.07532" lon="5.23454">
        <ele>338</ele>
        <time>2020-07-11T06:30:39.588Z</time>
      </trkpt>
      <trkpt lat="44.07522" lon="5.23453">
        <ele>338</ele>
        <time>2020-07-11T06:30:40.587Z</time>
      </trkpt>
      <trkpt lat="44.07512" lon="5.23451">
        <ele>338</ele>
        <time>2020-07-11T06:30:41.587Z</time>
      </trkpt>
      <trkpt lat="44.07502" lon="5.23449">
        <ele>338</ele>
        <time>2020-07-11T06:30:42.588Z</time>
      </trkpt>
      <trkpt lat="44.07492" lon="5.23446">
        <ele>338</ele>
        <time>2020-07-11T06:30:43.588Z</time>
      </trkpt>
      <trkpt lat="44.07483" lon="5.23442">
        <ele>337</ele>
        <time>2020-07-11T06:30:44.588Z</time>
      </trkpt>
      <trkpt lat="44.07472" lon="5.23437">
        <ele>336</ele>
        <time>2020-07-11T06:30:45.587Z</time>
      </trkpt>
      <trkpt lat="44.07464" lon="5.23433">
        <ele>336</ele>
        <time>2020-07-11T06:30:46.588Z</time>
      </trkpt>
      <trkpt lat="44.07453" lon="5.23428">
        <ele>335</ele>
        <time>2020-07-11T06:30:47.588Z</time>
      </trkpt>
      <trkpt lat="44.07446" lon="5.23425">
        <ele>334</ele>
        <time>2020-07-11T06:30:48.588Z</time>
      </trkpt>
      <trkpt lat="44.07437" lon="5.2342">
        <ele>333</ele>
        <time>2020-07-11T06:30:49.587Z</time>
      </trkpt>
      <trkpt lat="44.07426" lon="5.23415">
        <ele>332</ele>
        <time>2020-07-11T06:30:50.588Z</time>
      </trkpt>
      <trkpt lat="44.07417" lon="5.23411">
        <ele>331</ele>
        <time>2020-07-11T06:30:51.588Z</time>
      </trkpt>
      <trkpt lat="44.0741" lon="5.23407">
        <ele>331</ele>
        <time>2020-07-11T06:30:52.587Z</time>
      </trkpt>
      <trkpt lat="44.07401" lon="5.23403">
        <ele>330</ele>
        <time>2020-07-11T06:30:53.588Z</time>
      </trkpt>
      <trkpt lat="44.07389" lon="5.23397">
        <ele>330</ele>
        <time>2020-07-11T06:30:54.588Z</time>
      </trkpt>
      <trkpt lat="44.07382" lon="5.23394">
        <ele>330</ele>
        <time>2020-07-11T06:30:55.587Z</time>
      </trkpt>
      <trkpt lat="44.07371" lon="5.2339">
        <ele>330</ele>
        <time>2020-07-11T06:30:56.588Z</time>
      </trkpt>
      <trkpt lat="44.07363" lon="5.23387">
        <ele>329</ele>
        <time>2020-07-11T06:30:57.588Z</time>
      </trkpt>
      <trkpt lat="44.07354" lon="5.23385">
        <ele>328</ele>
        <time>2020-07-11T06:30:58.587Z</time>
      </trkpt>
      <trkpt lat="44.07342" lon="5.23383">
        <ele>328</ele>
        <time>2020-07-11T06:30:59.588Z</time>
      </trkpt>
      <trkpt lat="44.07334" lon="5.23384">
        <ele>327</ele>
        <time>2020-07-11T06:31:00.588Z</time>
      </trkpt>
      <trkpt lat="44.07325" lon="5.23385">
        <ele>326</ele>
        <time>2020-07-11T06:31:01.587Z</time>
      </trkpt>
      <trkpt lat="44.07315" lon="5.23386">
        <ele>326</ele>
        <time>2020-07-11T06:31:02.588Z</time>
      </trkpt>
      <trkpt lat="44.07303" lon="5.23386">
        <ele>325</ele>
        <time>2020-07-11T06:31:03.588Z</time>
      </trkpt>
      <trkpt lat="44.07295" lon="5.23387">
        <ele>324</ele>
        <time>2020-07-11T06:31:04.587Z</time>
      </trkpt>
      <trkpt lat="44.07285" lon="5.23388">
        <ele>324</ele>
        <time>2020-07-11T06:31:05.588Z</time>
      </trkpt>
      <trkpt lat="44.07275" lon="5.23389">
        <ele>324</ele>
        <time>2020-07-11T06:31:06.588Z</time>
      </trkpt>
      <trkpt lat="44.07266" lon="5.23389">
        <ele>323</ele>
        <time>2020-07-11T06:31:07.588Z</time>
      </trkpt>
      <trkpt lat="44.07256" lon="5.2339">
        <ele>323</ele>
        <time>2020-07-11T06:31:08.588Z</time>
      </trkpt>
      <trkpt lat="44.07245" lon="5.23391">
        <ele>323</ele>
        <time>2020-07-11T06:31:09.588Z</time>
      </trkpt>
      <trkpt lat="44.07237" lon="5.23392">
        <ele>322</ele>
        <time>2020-07-11T06:31:10.588Z</time>
      </trkpt>
      <trkpt lat="44.07227" lon="5.23392">
        <ele>322</ele>
        <time>2020-07-11T06:31:11.588Z</time>
      </trkpt>
      <trkpt lat="44.07218" lon="5.23391">
        <ele>321</ele>
        <time>2020-07-11T06:31:12.588Z</time>
      </trkpt>
      <trkpt lat="44.07208" lon="5.2339">
        <ele>321</ele>
        <time>2020-07-11T06:31:13.587Z</time>
      </trkpt>
      <trkpt lat="44.07197" lon="5.23385">
        <ele>320</ele>
        <time>2020-07-11T06:31:14.588Z</time>
      </trkpt>
      <trkpt lat="44.07189" lon="5.23381">
        <ele>320</ele>
        <time>2020-07-11T06:31:15.587Z</time>
      </trkpt>
      <trkpt lat="44.0718" lon="5.23374">
        <ele>320</ele>
        <time>2020-07-11T06:31:16.587Z</time>
      </trkpt>
      <trkpt lat="44.0717" lon="5.23366">
        <ele>319</ele>
        <time>2020-07-11T06:31:17.588Z</time>
      </trkpt>
      <trkpt lat="44.07162" lon="5.23359">
        <ele>319</ele>
        <time>2020-07-11T06:31:18.587Z</time>
      </trkpt>
      <trkpt lat="44.07155" lon="5.23352">
        <ele>319</ele>
        <time>2020-07-11T06:31:19.587Z</time>
      </trkpt>
      <trkpt lat="44.07147" lon="5.23345">
        <ele>318</ele>
        <time>2020-07-11T06:31:20.587Z</time>
      </trkpt>
      <trkpt lat="44.07138" lon="5.23337">
        <ele>318</ele>
        <time>2020-07-11T06:31:21.588Z</time>
      </trkpt>
      <trkpt lat="44.07129" lon="5.2333">
        <ele>318</ele>
        <time>2020-07-11T06:31:22.588Z</time>
      </trkpt>
      <trkpt lat="44.07121" lon="5.23322">
        <ele>318</ele>
        <time>2020-07-11T06:31:23.588Z</time>
      </trkpt>
      <trkpt lat="44.07112" lon="5.23314">
        <ele>318</ele>
        <time>2020-07-11T06:31:24.588Z</time>
      </trkpt>
      <trkpt lat="44.07104" lon="5.23307">
        <ele>318</ele>
        <time>2020-07-11T06:31:25.587Z</time>
      </trkpt>
      <trkpt lat="44.07093" lon="5.23299">
        <ele>317</ele>
        <time>2020-07-11T06:31:26.588Z</time>
      </trkpt>
      <trkpt lat="44.07084" lon="5.23293">
        <ele>317</ele>
        <time>2020-07-11T06:31:27.588Z</time>
      </trkpt>
      <trkpt lat="44.07076" lon="5.2329">
        <ele>317</ele>
        <time>2020-07-11T06:31:28.588Z</time>
      </trkpt>
      <trkpt lat="44.07066" lon="5.23285">
        <ele>317</ele>
        <time>2020-07-11T06:31:29.587Z</time>
      </trkpt>
      <trkpt lat="44.07055" lon="5.23281">
        <ele>317</ele>
        <time>2020-07-11T06:31:30.588Z</time>
      </trkpt>
      <trkpt lat="44.07046" lon="5.23278">
        <ele>317</ele>
        <time>2020-07-11T06:31:31.587Z</time>
      </trkpt>
      <trkpt lat="44.07034" lon="5.23275">
        <ele>316</ele>
        <time>2020-07-11T06:31:32.588Z</time>
      </trkpt>
      <trkpt lat="44.07026" lon="5.23272">
        <ele>316</ele>
        <time>2020-07-11T06:31:33.588Z</time>
      </trkpt>
      <trkpt lat="44.07016" lon="5.23269">
        <ele>316</ele>
        <time>2020-07-11T06:31:34.588Z</time>
      </trkpt>
      <trkpt lat="44.07004" lon="5.23266">
        <ele>315</ele>
        <time>2020-07-11T06:31:35.588Z</time>
      </trkpt>
      <trkpt lat="44.06994" lon="5.23264">
        <ele>315</ele>
        <time>2020-07-11T06:31:36.588Z</time>
      </trkpt>
      <trkpt lat="44.06986" lon="5.23262">
        <ele>314</ele>
        <time>2020-07-11T06:31:37.588Z</time>
      </trkpt>
      <trkpt lat="44.06976" lon="5.2326">
        <ele>314</ele>
        <time>2020-07-11T06:31:38.587Z</time>
      </trkpt>
      <trkpt lat="44.06966" lon="5.23259">
        <ele>314</ele>
        <time>2020-07-11T06:31:39.588Z</time>
      </trkpt>
      <trkpt lat="44.06956" lon="5.23259">
        <ele>314</ele>
        <time>2020-07-11T06:31:40.588Z</time>
      </trkpt>
      <trkpt lat="44.06944" lon="5.2326">
        <ele>313</ele>
        <time>2020-07-11T06:31:41.587Z</time>
      </trkpt>
      <trkpt lat="44.06936" lon="5.23261">
        <ele>313</ele>
        <time>2020-07-11T06:31:42.588Z</time>
      </trkpt>
      <trkpt lat="44.06926" lon="5.23263">
        <ele>313</ele>
        <time>2020-07-11T06:31:43.588Z</time>
      </trkpt>
      <trkpt lat="44.06916" lon="5.23264">
        <ele>312</ele>
        <time>2020-07-11T06:31:44.587Z</time>
      </trkpt>
      <trkpt lat="44.06906" lon="5.23266">
        <ele>311</ele>
        <time>2020-07-11T06:31:45.588Z</time>
      </trkpt>
      <trkpt lat="44.06897" lon="5.23268">
        <ele>310</ele>
        <time>2020-07-11T06:31:46.587Z</time>
      </trkpt>
      <trkpt lat="44.06888" lon="5.23269">
        <ele>310</ele>
        <time>2020-07-11T06:31:47.588Z</time>
      </trkpt>
      <trkpt lat="44.06878" lon="5.23272">
        <ele>309</ele>
        <time>2020-07-11T06:31:48.587Z</time>
      </trkpt>
      <trkpt lat="44.06868" lon="5.23274">
        <ele>309</ele>
        <time>2020-07-11T06:31:49.588Z</time>
      </trkpt>
      <trkpt lat="44.06857" lon="5.23278">
        <ele>309</ele>
        <time>2020-07-11T06:31:50.588Z</time>
      </trkpt>
      <trkpt lat="44.06849" lon="5.23281">
        <ele>309</ele>
        <time>2020-07-11T06:31:51.588Z</time>
      </trkpt>
      <trkpt lat="44.0684" lon="5.23285">
        <ele>309</ele>
        <time>2020-07-11T06:31:52.587Z</time>
      </trkpt>
      <trkpt lat="44.06831" lon="5.23289">
        <ele>308</ele>
        <time>2020-07-11T06:31:53.588Z</time>
      </trkpt>
      <trkpt lat="44.06822" lon="5.23294">
        <ele>308</ele>
        <time>2020-07-11T06:31:54.588Z</time>
      </trkpt>
      <trkpt lat="44.06812" lon="5.23299">
        <ele>308</ele>
        <time>2020-07-11T06:31:55.587Z</time>
      </trkpt>
      <trkpt lat="44.06803" lon="5.23304">
        <ele>309</ele>
        <time>2020-07-11T06:31:56.588Z</time>
      </trkpt>
      <trkpt lat="44.06793" lon="5.23309">
        <ele>309</ele>
        <time>2020-07-11T06:31:57.588Z</time>
      </trkpt>
      <trkpt lat="44.06784" lon="5.23314">
        <ele>309</ele>
        <time>2020-07-11T06:31:58.588Z</time>
      </trkpt>
      <trkpt lat="44.06775" lon="5.23318">
        <ele>309</ele>
        <time>2020-07-11T06:31:59.587Z</time>
      </trkpt>
      <trkpt lat="44.06765" lon="5.23322">
        <ele>308</ele>
        <time>2020-07-11T06:32:00.588Z</time>
      </trkpt>
      <trkpt lat="44.06757" lon="5.23326">
        <ele>308</ele>
        <time>2020-07-11T06:32:01.588Z</time>
      </trkpt>
      <trkpt lat="44.06746" lon="5.2333">
        <ele>308</ele>
        <time>2020-07-11T06:32:02.588Z</time>
      </trkpt>
      <trkpt lat="44.06737" lon="5.23333">
        <ele>309</ele>
        <time>2020-07-11T06:32:03.588Z</time>
      </trkpt>
      <trkpt lat="44.06728" lon="5.23335">
        <ele>309</ele>
        <time>2020-07-11T06:32:04.588Z</time>
      </trkpt>
      <trkpt lat="44.06718" lon="5.23338">
        <ele>308</ele>
        <time>2020-07-11T06:32:05.588Z</time>
      </trkpt>
      <trkpt lat="44.06709" lon="5.2334">
        <ele>308</ele>
        <time>2020-07-11T06:32:06.587Z</time>
      </trkpt>
      <trkpt lat="44.06699" lon="5.23343">
        <ele>308</ele>
        <time>2020-07-11T06:32:07.587Z</time>
      </trkpt>
      <trkpt lat="44.0669" lon="5.23345">
        <ele>308</ele>
        <time>2020-07-11T06:32:08.587Z</time>
      </trkpt>
      <trkpt lat="44.0668" lon="5.23347">
        <ele>307</ele>
        <time>2020-07-11T06:32:09.588Z</time>
      </trkpt>
      <trkpt lat="44.06671" lon="5.23349">
        <ele>307</ele>
        <time>2020-07-11T06:32:10.587Z</time>
      </trkpt>
      <trkpt lat="44.06662" lon="5.23351">
        <ele>307</ele>
        <time>2020-07-11T06:32:11.588Z</time>
      </trkpt>
      <trkpt lat="44.06653" lon="5.23352">
        <ele>306</ele>
        <time>2020-07-11T06:32:12.587Z</time>
      </trkpt>
      <trkpt lat="44.06644" lon="5.23353">
        <ele>306</ele>
        <time>2020-07-11T06:32:13.588Z</time>
      </trkpt>
      <trkpt lat="44.06634" lon="5.23353">
        <ele>306</ele>
        <time>2020-07-11T06:32:14.588Z</time>
      </trkpt>
      <trkpt lat="44.06625" lon="5.23351">
        <ele>305</ele>
        <time>2020-07-11T06:32:15.588Z</time>
      </trkpt>
      <trkpt lat="44.06617" lon="5.23349">
        <ele>305</ele>
        <time>2020-07-11T06:32:16.588Z</time>
      </trkpt>
      <trkpt lat="44.06608" lon="5.23345">
        <ele>304</ele>
        <time>2020-07-11T06:32:17.588Z</time>
      </trkpt>
      <trkpt lat="44.06599" lon="5.23341">
        <ele>304</ele>
        <time>2020-07-11T06:32:18.588Z</time>
      </trkpt>
      <trkpt lat="44.0659" lon="5.23337">
        <ele>303</ele>
        <time>2020-07-11T06:32:19.588Z</time>
      </trkpt>
      <trkpt lat="44.06582" lon="5.23332">
        <ele>303</ele>
        <time>2020-07-11T06:32:20.588Z</time>
      </trkpt>
      <trkpt lat="44.06574" lon="5.23327">
        <ele>303</ele>
        <time>2020-07-11T06:32:21.587Z</time>
      </trkpt>
      <trkpt lat="44.06565" lon="5.23322">
        <ele>303</ele>
        <time>2020-07-11T06:32:22.588Z</time>
      </trkpt>
      <trkpt lat="44.06557" lon="5.23318">
        <ele>302</ele>
        <time>2020-07-11T06:32:23.588Z</time>
      </trkpt>
      <trkpt lat="44.06549" lon="5.23313">
        <ele>302</ele>
        <time>2020-07-11T06:32:24.587Z</time>
      </trkpt>
      <trkpt lat="44.0654" lon="5.23309">
        <ele>302</ele>
        <time>2020-07-11T06:32:25.588Z</time>
      </trkpt>
      <trkpt lat="44.06532" lon="5.23305">
        <ele>302</ele>
        <time>2020-07-11T06:32:26.588Z</time>
      </trkpt>
      <trkpt lat="44.06524" lon="5.233">
        <ele>301</ele>
        <time>2020-07-11T06:32:27.588Z</time>
      </trkpt>
      <trkpt lat="44.06515" lon="5.23296">
        <ele>301</ele>
        <time>2020-07-11T06:32:28.588Z</time>
      </trkpt>
      <trkpt lat="44.06507" lon="5.23291">
        <ele>301</ele>
        <time>2020-07-11T06:32:29.587Z</time>
      </trkpt>
      <trkpt lat="44.06499" lon="5.23286">
        <ele>301</ele>
        <time>2020-07-11T06:32:30.587Z</time>
      </trkpt>
      <trkpt lat="44.0649" lon="5.23281">
        <ele>301</ele>
        <time>2020-07-11T06:32:31.588Z</time>
      </trkpt>
      <trkpt lat="44.06482" lon="5.23275">
        <ele>300</ele>
        <time>2020-07-11T06:32:32.588Z</time>
      </trkpt>
      <trkpt lat="44.06474" lon="5.2327">
        <ele>300</ele>
        <time>2020-07-11T06:32:33.588Z</time>
      </trkpt>
      <trkpt lat="44.06465" lon="5.23264">
        <ele>300</ele>
        <time>2020-07-11T06:32:34.588Z</time>
      </trkpt>
      <trkpt lat="44.06457" lon="5.23258">
        <ele>300</ele>
        <time>2020-07-11T06:32:35.587Z</time>
      </trkpt>
      <trkpt lat="44.06449" lon="5.23253">
        <ele>299</ele>
        <time>2020-07-11T06:32:36.588Z</time>
      </trkpt>
      <trkpt lat="44.0644" lon="5.23248">
        <ele>299</ele>
        <time>2020-07-11T06:32:37.587Z</time>
      </trkpt>
      <trkpt lat="44.06432" lon="5.23243">
        <ele>300</ele>
        <time>2020-07-11T06:32:38.587Z</time>
      </trkpt>
      <trkpt lat="44.06423" lon="5.23239">
        <ele>300</ele>
        <time>2020-07-11T06:32:39.588Z</time>
      </trkpt>
      <trkpt lat="44.06414" lon="5.23235">
        <ele>300</ele>
        <time>2020-07-11T06:32:40.588Z</time>
      </trkpt>
      <trkpt lat="44.06404" lon="5.23231">
        <ele>300</ele>
        <time>2020-07-11T06:32:41.588Z</time>
      </trkpt>
      <trkpt lat="44.06395" lon="5.23229">
        <ele>299</ele>
        <time>2020-07-11T06:32:42.588Z</time>
      </trkpt>
      <trkpt lat="44.06386" lon="5.23227">
        <ele>299</ele>
        <time>2020-07-11T06:32:43.588Z</time>
      </trkpt>
      <trkpt lat="44.06376" lon="5.23225">
        <ele>298</ele>
        <time>2020-07-11T06:32:44.588Z</time>
      </trkpt>
      <trkpt lat="44.06367" lon="5.23224">
        <ele>298</ele>
        <time>2020-07-11T06:32:45.588Z</time>
      </trkpt>
      <trkpt lat="44.06357" lon="5.23223">
        <ele>298</ele>
        <time>2020-07-11T06:32:46.588Z</time>
      </trkpt>
      <trkpt lat="44.06348" lon="5.23222">
        <ele>298</ele>
        <time>2020-07-11T06:32:47.588Z</time>
      </trkpt>
      <trkpt lat="44.06339" lon="5.23221">
        <ele>298</ele>
        <time>2020-07-11T06:32:48.587Z</time>
      </trkpt>
      <trkpt lat="44.0633" lon="5.2322">
        <ele>297</ele>
        <time>2020-07-11T06:32:49.588Z</time>
      </trkpt>
      <trkpt lat="44.06321" lon="5.2322">
        <ele>297</ele>
        <time>2020-07-11T06:32:50.588Z</time>
      </trkpt>
      <trkpt lat="44.06312" lon="5.2322">
        <ele>296</ele>
        <time>2020-07-11T06:32:51.588Z</time>
      </trkpt>
      <trkpt lat="44.06304" lon="5.2322">
        <ele>296</ele>
        <time>2020-07-11T06:32:52.588Z</time>
      </trkpt>
      <trkpt lat="44.06295" lon="5.23221">
        <ele>296</ele>
        <time>2020-07-11T06:32:53.588Z</time>
      </trkpt>
      <trkpt lat="44.06286" lon="5.23222">
        <ele>296</ele>
        <time>2020-07-11T06:32:54.587Z</time>
      </trkpt>
      <trkpt lat="44.06277" lon="5.23223">
        <ele>296</ele>
        <time>2020-07-11T06:32:55.587Z</time>
      </trkpt>
      <trkpt lat="44.06268" lon="5.23225">
        <ele>296</ele>
        <time>2020-07-11T06:32:56.588Z</time>
      </trkpt>
      <trkpt lat="44.0626" lon="5.23228">
        <ele>296</ele>
        <time>2020-07-11T06:32:57.588Z</time>
      </trkpt>
      <trkpt lat="44.06251" lon="5.2323">
        <ele>296</ele>
        <time>2020-07-11T06:32:58.588Z</time>
      </trkpt>
      <trkpt lat="44.06242" lon="5.23233">
        <ele>296</ele>
        <time>2020-07-11T06:32:59.588Z</time>
      </trkpt>
      <trkpt lat="44.06234" lon="5.23236">
        <ele>296</ele>
        <time>2020-07-11T06:33:00.588Z</time>
      </trkpt>
      <trkpt lat="44.06225" lon="5.23239">
        <ele>297</ele>
        <time>2020-07-11T06:33:01.588Z</time>
      </trkpt>
      <trkpt lat="44.06216" lon="5.23242">
        <ele>297</ele>
        <time>2020-07-11T06:33:02.587Z</time>
      </trkpt>
      <trkpt lat="44.06207" lon="5.23244">
        <ele>296</ele>
        <time>2020-07-11T06:33:03.587Z</time>
      </trkpt>
      <trkpt lat="44.062" lon="5.23247">
        <ele>296</ele>
        <time>2020-07-11T06:33:04.588Z</time>
      </trkpt>
      <trkpt lat="44.06191" lon="5.2325">
        <ele>296</ele>
        <time>2020-07-11T06:33:05.588Z</time>
      </trkpt>
      <trkpt lat="44.06183" lon="5.23253">
        <ele>296</ele>
        <time>2020-07-11T06:33:06.588Z</time>
      </trkpt>
      <trkpt lat="44.06174" lon="5.23256">
        <ele>296</ele>
        <time>2020-07-11T06:33:07.587Z</time>
      </trkpt>
      <trkpt lat="44.06166" lon="5.23258">
        <ele>296</ele>
        <time>2020-07-11T06:33:08.588Z</time>
      </trkpt>
      <trkpt lat="44.06159" lon="5.23262">
        <ele>296</ele>
        <time>2020-07-11T06:33:09.588Z</time>
      </trkpt>
      <trkpt lat="44.06151" lon="5.23264">
        <ele>296</ele>
        <time>2020-07-11T06:33:10.588Z</time>
      </trkpt>
      <trkpt lat="44.06143" lon="5.23266">
        <ele>296</ele>
        <time>2020-07-11T06:33:11.587Z</time>
      </trkpt>
      <trkpt lat="44.06136" lon="5.23269">
        <ele>296</ele>
        <time>2020-07-11T06:33:12.588Z</time>
      </trkpt>
      <trkpt lat="44.06128" lon="5.23271">
        <ele>295</ele>
        <time>2020-07-11T06:33:13.588Z</time>
      </trkpt>
      <trkpt lat="44.06121" lon="5.23274">
        <ele>295</ele>
        <time>2020-07-11T06:33:14.588Z</time>
      </trkpt>
      <trkpt lat="44.06113" lon="5.23277">
        <ele>295</ele>
        <time>2020-07-11T06:33:15.588Z</time>
      </trkpt>
      <trkpt lat="44.06105" lon="5.2328">
        <ele>295</ele>
        <time>2020-07-11T06:33:16.587Z</time>
      </trkpt>
      <trkpt lat="44.06098" lon="5.23283">
        <ele>295</ele>
        <time>2020-07-11T06:33:17.588Z</time>
      </trkpt>
      <trkpt lat="44.0609" lon="5.23286">
        <ele>294</ele>
        <time>2020-07-11T06:33:18.588Z</time>
      </trkpt>
      <trkpt lat="44.06083" lon="5.23289">
        <ele>294</ele>
        <time>2020-07-11T06:33:19.588Z</time>
      </trkpt>
      <trkpt lat="44.06076" lon="5.23292">
        <ele>294</ele>
        <time>2020-07-11T06:33:20.588Z</time>
      </trkpt>
      <trkpt lat="44.06069" lon="5.23295">
        <ele>294</ele>
        <time>2020-07-11T06:33:21.587Z</time>
      </trkpt>
      <trkpt lat="44.06063" lon="5.23297">
        <ele>294</ele>
        <time>2020-07-11T06:33:22.588Z</time>
      </trkpt>
      <trkpt lat="44.06056" lon="5.233">
        <ele>293</ele>
        <time>2020-07-11T06:33:23.588Z</time>
      </trkpt>
      <trkpt lat="44.0605" lon="5.23302">
        <ele>293</ele>
        <time>2020-07-11T06:33:24.587Z</time>
      </trkpt>
      <trkpt lat="44.06044" lon="5.23305">
        <ele>293</ele>
        <time>2020-07-11T06:33:25.588Z</time>
      </trkpt>
      <trkpt lat="44.06038" lon="5.23307">
        <ele>293</ele>
        <time>2020-07-11T06:33:26.588Z</time>
      </trkpt>
      <trkpt lat="44.06032" lon="5.2331">
        <ele>293</ele>
        <time>2020-07-11T06:33:27.588Z</time>
      </trkpt>
      <trkpt lat="44.06026" lon="5.23312">
        <ele>292</ele>
        <time>2020-07-11T06:33:28.588Z</time>
      </trkpt>
      <trkpt lat="44.0602" lon="5.23315">
        <ele>292</ele>
        <time>2020-07-11T06:33:29.587Z</time>
      </trkpt>
      <trkpt lat="44.06015" lon="5.23317">
        <ele>292</ele>
        <time>2020-07-11T06:33:30.588Z</time>
      </trkpt>
      <trkpt lat="44.06009" lon="5.23319">
        <ele>292</ele>
        <time>2020-07-11T06:33:31.588Z</time>
      </trkpt>
      <trkpt lat="44.06003" lon="5.23321">
        <ele>291</ele>
        <time>2020-07-11T06:33:32.587Z</time>
      </trkpt>
      <trkpt lat="44.05997" lon="5.23323">
        <ele>291</ele>
        <time>2020-07-11T06:33:33.587Z</time>
      </trkpt>
      <trkpt lat="44.05991" lon="5.23325">
        <ele>291</ele>
        <time>2020-07-11T06:33:34.587Z</time>
      </trkpt>
      <trkpt lat="44.05986" lon="5.23327">
        <ele>291</ele>
        <time>2020-07-11T06:33:35.588Z</time>
      </trkpt>
      <trkpt lat="44.0598" lon="5.23329">
        <ele>291</ele>
        <time>2020-07-11T06:33:36.587Z</time>
      </trkpt>
      <trkpt lat="44.05975" lon="5.23332">
        <ele>291</ele>
        <time>2020-07-11T06:33:37.588Z</time>
      </trkpt>
      <trkpt lat="44.05971" lon="5.23334">
        <ele>292</ele>
        <time>2020-07-11T06:33:38.587Z</time>
      </trkpt>
      <trkpt lat="44.05966" lon="5.23337">
        <ele>292</ele>
        <time>2020-07-11T06:33:39.588Z</time>
      </trkpt>
      <trkpt lat="44.05961" lon="5.2334">
        <ele>292</ele>
        <time>2020-07-11T06:33:40.587Z</time>
      </trkpt>
      <trkpt lat="44.05955" lon="5.23343">
        <ele>292</ele>
        <time>2020-07-11T06:33:41.587Z</time>
      </trkpt>
      <trkpt lat="44.0595" lon="5.23346">
        <ele>292</ele>
        <time>2020-07-11T06:33:42.588Z</time>
      </trkpt>
      <trkpt lat="44.05945" lon="5.2335">
        <ele>292</ele>
        <time>2020-07-11T06:33:43.588Z</time>
      </trkpt>
      <trkpt lat="44.05941" lon="5.23353">
        <ele>293</ele>
        <time>2020-07-11T06:33:44.588Z</time>
      </trkpt>
      <trkpt lat="44.05936" lon="5.23357">
        <ele>293</ele>
        <time>2020-07-11T06:33:45.588Z</time>
      </trkpt>
      <trkpt lat="44.05931" lon="5.23361">
        <ele>293</ele>
        <time>2020-07-11T06:33:46.588Z</time>
      </trkpt>
      <trkpt lat="44.05926" lon="5.23364">
        <ele>293</ele>
        <time>2020-07-11T06:33:47.587Z</time>
      </trkpt>
      <trkpt lat="44.05921" lon="5.23368">
        <ele>293</ele>
        <time>2020-07-11T06:33:48.588Z</time>
      </trkpt>
      <trkpt lat="44.05916" lon="5.23371">
        <ele>293</ele>
        <time>2020-07-11T06:33:49.588Z</time>
      </trkpt>
      <trkpt lat="44.05911" lon="5.23374">
        <ele>293</ele>
        <time>2020-07-11T06:33:50.588Z</time>
      </trkpt>
      <trkpt lat="44.05906" lon="5.23376">
        <ele>293</ele>
        <time>2020-07-11T06:33:51.588Z</time>
      </trkpt>
      <trkpt lat="44.059" lon="5.23378">
        <ele>292</ele>
        <time>2020-07-11T06:33:52.588Z</time>
      </trkpt>
      <trkpt lat="44.05896" lon="5.2338">
        <ele>292</ele>
        <time>2020-07-11T06:33:53.588Z</time>
      </trkpt>
      <trkpt lat="44.05892" lon="5.23381">
        <ele>292</ele>
        <time>2020-07-11T06:33:54.588Z</time>
      </trkpt>
      <trkpt lat="44.05888" lon="5.23383">
        <ele>291</ele>
        <time>2020-07-11T06:33:55.588Z</time>
      </trkpt>
      <trkpt lat="44.05886" lon="5.23384">
        <ele>291</ele>
        <time>2020-07-11T06:33:56.588Z</time>
      </trkpt>
      <trkpt lat="44.05883" lon="5.23384">
        <ele>292</ele>
        <time>2020-07-11T06:33:57.588Z</time>
      </trkpt>
      <trkpt lat="44.05881" lon="5.23384">
        <ele>292</ele>
        <time>2020-07-11T06:33:58.588Z</time>
      </trkpt>
      <trkpt lat="44.0588" lon="5.23384">
        <ele>292</ele>
        <time>2020-07-11T06:33:59.588Z</time>
      </trkpt>
      <trkpt lat="44.05878" lon="5.23383">
        <ele>293</ele>
        <time>2020-07-11T06:34:00.588Z</time>
      </trkpt>
      <trkpt lat="44.05878" lon="5.23382">
        <ele>293</ele>
        <time>2020-07-11T06:34:01.587Z</time>
      </trkpt>
      <trkpt lat="44.05878" lon="5.23382">
        <ele>293</ele>
        <time>2020-07-11T06:34:02.587Z</time>
      </trkpt>
      <trkpt lat="44.05879" lon="5.23384">
        <ele>294</ele>
        <time>2020-07-11T06:34:03.588Z</time>
      </trkpt>
      <trkpt lat="44.0588" lon="5.23386">
        <ele>294</ele>
        <time>2020-07-11T06:34:04.588Z</time>
      </trkpt>
      <trkpt lat="44.05881" lon="5.23389">
        <ele>294</ele>
        <time>2020-07-11T06:34:05.588Z</time>
      </trkpt>
      <trkpt lat="44.05882" lon="5.23393">
        <ele>295</ele>
        <time>2020-07-11T06:34:06.588Z</time>
      </trkpt>
      <trkpt lat="44.05882" lon="5.23398">
        <ele>295</ele>
        <time>2020-07-11T06:34:07.588Z</time>
      </trkpt>
      <trkpt lat="44.05883" lon="5.23402">
        <ele>295</ele>
        <time>2020-07-11T06:34:08.588Z</time>
      </trkpt>
      <trkpt lat="44.05882" lon="5.23406">
        <ele>296</ele>
        <time>2020-07-11T06:34:09.588Z</time>
      </trkpt>
      <trkpt lat="44.05883" lon="5.2341">
        <ele>296</ele>
        <time>2020-07-11T06:34:10.587Z</time>
      </trkpt>
      <trkpt lat="44.05882" lon="5.23413">
        <ele>296</ele>
        <time>2020-07-11T06:34:11.588Z</time>
      </trkpt>
      <trkpt lat="44.05882" lon="5.23417">
        <ele>296</ele>
        <time>2020-07-11T06:34:12.588Z</time>
      </trkpt>
      <trkpt lat="44.05882" lon="5.23421">
        <ele>297</ele>
        <time>2020-07-11T06:34:13.588Z</time>
      </trkpt>
      <trkpt lat="44.05881" lon="5.23425">
        <ele>297</ele>
        <time>2020-07-11T06:34:14.588Z</time>
      </trkpt>
      <trkpt lat="44.05881" lon="5.23429">
        <ele>297</ele>
        <time>2020-07-11T06:34:15.588Z</time>
      </trkpt>
      <trkpt lat="44.0588" lon="5.23434">
        <ele>297</ele>
        <time>2020-07-11T06:34:16.588Z</time>
      </trkpt>
      <trkpt lat="44.05879" lon="5.23439">
        <ele>297</ele>
        <time>2020-07-11T06:34:17.588Z</time>
      </trkpt>
      <trkpt lat="44.05878" lon="5.23443">
        <ele>297</ele>
        <time>2020-07-11T06:34:18.588Z</time>
      </trkpt>
      <trkpt lat="44.05877" lon="5.23448">
        <ele>297</ele>
        <time>2020-07-11T06:34:19.588Z</time>
      </trkpt>
      <trkpt lat="44.05876" lon="5.23451">
        <ele>297</ele>
        <time>2020-07-11T06:34:20.588Z</time>
      </trkpt>
      <trkpt lat="44.05875" lon="5.23454">
        <ele>297</ele>
        <time>2020-07-11T06:34:21.587Z</time>
      </trkpt>
      <trkpt lat="44.05874" lon="5.23457">
        <ele>297</ele>
        <time>2020-07-11T06:34:22.587Z</time>
      </trkpt>
      <trkpt lat="44.05873" lon="5.23459">
        <ele>298</ele>
        <time>2020-07-11T06:34:23.588Z</time>
      </trkpt>
      <trkpt lat="44.05873" lon="5.23462">
        <ele>298</ele>
        <time>2020-07-11T06:34:24.587Z</time>
      </trkpt>
      <trkpt lat="44.05871" lon="5.23464">
        <ele>298</ele>
        <time>2020-07-11T06:34:25.588Z</time>
      </trkpt>
      <trkpt lat="44.0587" lon="5.23467">
        <ele>299</ele>
        <time>2020-07-11T06:34:26.587Z</time>
      </trkpt>
      <trkpt lat="44.0587" lon="5.23468">
        <ele>299</ele>
        <time>2020-07-11T06:34:27.588Z</time>
      </trkpt>
      <trkpt lat="44.05868" lon="5.2347">
        <ele>299</ele>
        <time>2020-07-11T06:34:28.587Z</time>
      </trkpt>
      <trkpt lat="44.05867" lon="5.2347">
        <ele>299</ele>
        <time>2020-07-11T06:34:29.588Z</time>
      </trkpt>
      <trkpt lat="44.05866" lon="5.23471">
        <ele>299</ele>
        <time>2020-07-11T06:34:30.587Z</time>
      </trkpt>
      <trkpt lat="44.05865" lon="5.23471">
        <ele>299</ele>
        <time>2020-07-11T06:34:31.588Z</time>
      </trkpt>
      <trkpt lat="44.05865" lon="5.23472">
        <ele>299</ele>
        <time>2020-07-11T06:34:32.588Z</time>
      </trkpt>
      <trkpt lat="44.05864" lon="5.23473">
        <ele>299</ele>
        <time>2020-07-11T06:34:33.588Z</time>
      </trkpt>
      <trkpt lat="44.0587" lon="5.23471">
        <ele>301</ele>
        <time>2020-07-11T06:34:34.589Z</time>
      </trkpt>
      <trkpt lat="44.0587" lon="5.23471">
        <ele>301</ele>
        <time>2020-07-11T06:34:35.589Z</time>
      </trkpt>
      <trkpt lat="44.0587" lon="5.23471">
        <ele>301</ele>
        <time>2020-07-11T06:34:36.588Z</time>
      </trkpt>
      <trkpt lat="44.0587" lon="5.23471">
        <ele>301</ele>
        <time>2020-07-11T06:34:37.589Z</time>
      </trkpt>
      <trkpt lat="44.0587" lon="5.23471">
        <ele>301</ele>
        <time>2020-07-11T06:34:38.589Z</time>
      </trkpt>
      <trkpt lat="44.0587" lon="5.23471">
        <ele>301</ele>
        <time>2020-07-11T06:34:39.588Z</time>
      </trkpt>
      <trkpt lat="44.0587" lon="5.23472">
        <ele>301</ele>
        <time>2020-07-11T06:34:40.589Z</time>
      </trkpt>
      <trkpt lat="44.0587" lon="5.23472">
        <ele>301</ele>
        <time>2020-07-11T06:34:41.589Z</time>
      </trkpt>
      <trkpt lat="44.0587" lon="5.23472">
        <ele>301</ele>
        <time>2020-07-11T06:34:42.589Z</time>
      </trkpt>
      <trkpt lat="44.0587" lon="5.23472">
        <ele>301</ele>
        <time>2020-07-11T06:34:43.589Z</time>
      </trkpt>
      <trkpt lat="44.0587" lon="5.23473">
        <ele>301</ele>
        <time>2020-07-11T06:34:44.589Z</time>
      </trkpt>
      <trkpt lat="44.05872" lon="5.23474">
        <ele>301</ele>
        <time>2020-07-11T06:34:45.589Z</time>
      </trkpt>
      <trkpt lat="44.05874" lon="5.23474">
        <ele>301</ele>
        <time>2020-07-11T06:34:46.589Z</time>
      </trkpt>
      <trkpt lat="44.05875" lon="5.23475">
        <ele>301</ele>
        <time>2020-07-11T06:34:47.588Z</time>
      </trkpt>
      <trkpt lat="44.05876" lon="5.23476">
        <ele>301</ele>
        <time>2020-07-11T06:34:48.588Z</time>
      </trkpt>
      <trkpt lat="44.05878" lon="5.23478">
        <ele>301</ele>
        <time>2020-07-11T06:34:49.588Z</time>
      </trkpt>
      <trkpt lat="44.0588" lon="5.2348">
        <ele>301</ele>
        <time>2020-07-11T06:34:50.589Z</time>
      </trkpt>
      <trkpt lat="44.05882" lon="5.23482">
        <ele>301</ele>
        <time>2020-07-11T06:34:51.589Z</time>
      </trkpt>
      <trkpt lat="44.05883" lon="5.23483">
        <ele>301</ele>
        <time>2020-07-11T06:34:52.588Z</time>
      </trkpt>
      <trkpt lat="44.05885" lon="5.23485">
        <ele>302</ele>
        <time>2020-07-11T06:34:53.589Z</time>
      </trkpt>
      <trkpt lat="44.05887" lon="5.23485">
        <ele>302</ele>
        <time>2020-07-11T06:34:54.588Z</time>
      </trkpt>
      <trkpt lat="44.05888" lon="5.23486">
        <ele>303</ele>
        <time>2020-07-11T06:34:55.589Z</time>
      </trkpt>
      <trkpt lat="44.05888" lon="5.23485">
        <ele>303</ele>
        <time>2020-07-11T06:34:56.589Z</time>
      </trkpt>
      <trkpt lat="44.05887" lon="5.23484">
        <ele>303</ele>
        <time>2020-07-11T06:34:57.589Z</time>
      </trkpt>
      <trkpt lat="44.05887" lon="5.23483">
        <ele>302</ele>
        <time>2020-07-11T06:34:58.588Z</time>
      </trkpt>
      <trkpt lat="44.05885" lon="5.2348">
        <ele>302</ele>
        <time>2020-07-11T06:34:59.588Z</time>
      </trkpt>
      <trkpt lat="44.05884" lon="5.23478">
        <ele>301</ele>
        <time>2020-07-11T06:35:00.588Z</time>
      </trkpt>
      <trkpt lat="44.05882" lon="5.23474">
        <ele>301</ele>
        <time>2020-07-11T06:35:01.589Z</time>
      </trkpt>
      <trkpt lat="44.05881" lon="5.2347">
        <ele>301</ele>
        <time>2020-07-11T06:35:02.588Z</time>
      </trkpt>
      <trkpt lat="44.0588" lon="5.23466">
        <ele>300</ele>
        <time>2020-07-11T06:35:03.589Z</time>
      </trkpt>
      <trkpt lat="44.0588" lon="5.23461">
        <ele>300</ele>
        <time>2020-07-11T06:35:04.589Z</time>
      </trkpt>
      <trkpt lat="44.0588" lon="5.23455">
        <ele>299</ele>
        <time>2020-07-11T06:35:05.588Z</time>
      </trkpt>
      <trkpt lat="44.05881" lon="5.23449">
        <ele>299</ele>
        <time>2020-07-11T06:35:06.589Z</time>
      </trkpt>
      <trkpt lat="44.05883" lon="5.23444">
        <ele>299</ele>
        <time>2020-07-11T06:35:07.589Z</time>
      </trkpt>
      <trkpt lat="44.05884" lon="5.23438">
        <ele>298</ele>
        <time>2020-07-11T06:35:08.588Z</time>
      </trkpt>
      <trkpt lat="44.05886" lon="5.23433">
        <ele>298</ele>
        <time>2020-07-11T06:35:09.588Z</time>
      </trkpt>
      <trkpt lat="44.05888" lon="5.23428">
        <ele>298</ele>
        <time>2020-07-11T06:35:10.589Z</time>
      </trkpt>
      <trkpt lat="44.05889" lon="5.23422">
        <ele>298</ele>
        <time>2020-07-11T06:35:11.589Z</time>
      </trkpt>
      <trkpt lat="44.0589" lon="5.23417">
        <ele>298</ele>
        <time>2020-07-11T06:35:12.589Z</time>
      </trkpt>
      <trkpt lat="44.05891" lon="5.23411">
        <ele>298</ele>
        <time>2020-07-11T06:35:13.588Z</time>
      </trkpt>
      <trkpt lat="44.05891" lon="5.23406">
        <ele>297</ele>
        <time>2020-07-11T06:35:14.589Z</time>
      </trkpt>
      <trkpt lat="44.0589" lon="5.234">
        <ele>297</ele>
        <time>2020-07-11T06:35:15.589Z</time>
      </trkpt>
      <trkpt lat="44.0589" lon="5.23395">
        <ele>297</ele>
        <time>2020-07-11T06:35:16.589Z</time>
      </trkpt>
      <trkpt lat="44.05889" lon="5.2339">
        <ele>296</ele>
        <time>2020-07-11T06:35:17.589Z</time>
      </trkpt>
      <trkpt lat="44.05887" lon="5.23384">
        <ele>296</ele>
        <time>2020-07-11T06:35:18.589Z</time>
      </trkpt>
      <trkpt lat="44.05885" lon="5.23378">
        <ele>296</ele>
        <time>2020-07-11T06:35:19.589Z</time>
      </trkpt>
      <trkpt lat="44.05883" lon="5.23372">
        <ele>296</ele>
        <time>2020-07-11T06:35:20.589Z</time>
      </trkpt>
      <trkpt lat="44.05881" lon="5.23366">
        <ele>295</ele>
        <time>2020-07-11T06:35:21.588Z</time>
      </trkpt>
      <trkpt lat="44.05878" lon="5.2336">
        <ele>295</ele>
        <time>2020-07-11T06:35:22.588Z</time>
      </trkpt>
      <trkpt lat="44.05875" lon="5.23355">
        <ele>295</ele>
        <time>2020-07-11T06:35:23.589Z</time>
      </trkpt>
      <trkpt lat="44.05872" lon="5.2335">
        <ele>295</ele>
        <time>2020-07-11T06:35:24.589Z</time>
      </trkpt>
      <trkpt lat="44.05869" lon="5.23345">
        <ele>295</ele>
        <time>2020-07-11T06:35:25.589Z</time>
      </trkpt>
      <trkpt lat="44.05867" lon="5.2334">
        <ele>295</ele>
        <time>2020-07-11T06:35:26.589Z</time>
      </trkpt>
      <trkpt lat="44.05864" lon="5.23335">
        <ele>295</ele>
        <time>2020-07-11T06:35:27.589Z</time>
      </trkpt>
      <trkpt lat="44.05861" lon="5.23331">
        <ele>295</ele>
        <time>2020-07-11T06:35:28.589Z</time>
      </trkpt>
      <trkpt lat="44.05859" lon="5.23328">
        <ele>296</ele>
        <time>2020-07-11T06:35:29.589Z</time>
      </trkpt>
      <trkpt lat="44.05855" lon="5.23325">
        <ele>296</ele>
        <time>2020-07-11T06:35:30.589Z</time>
      </trkpt>
      <trkpt lat="44.05852" lon="5.23322">
        <ele>296</ele>
        <time>2020-07-11T06:35:31.589Z</time>
      </trkpt>
      <trkpt lat="44.05849" lon="5.23319">
        <ele>296</ele>
        <time>2020-07-11T06:35:32.589Z</time>
      </trkpt>
      <trkpt lat="44.05845" lon="5.23316">
        <ele>296</ele>
        <time>2020-07-11T06:35:33.589Z</time>
      </trkpt>
      <trkpt lat="44.05842" lon="5.23314">
        <ele>296</ele>
        <time>2020-07-11T06:35:34.589Z</time>
      </trkpt>
      <trkpt lat="44.05838" lon="5.23312">
        <ele>296</ele>
        <time>2020-07-11T06:35:35.588Z</time>
      </trkpt>
      <trkpt lat="44.05835" lon="5.23311">
        <ele>296</ele>
        <time>2020-07-11T06:35:36.589Z</time>
      </trkpt>
      <trkpt lat="44.05831" lon="5.2331">
        <ele>297</ele>
        <time>2020-07-11T06:35:37.589Z</time>
      </trkpt>
      <trkpt lat="44.05828" lon="5.2331">
        <ele>296</ele>
        <time>2020-07-11T06:35:38.589Z</time>
      </trkpt>
      <trkpt lat="44.05824" lon="5.2331">
        <ele>296</ele>
        <time>2020-07-11T06:35:39.588Z</time>
      </trkpt>
      <trkpt lat="44.05819" lon="5.23311">
        <ele>296</ele>
        <time>2020-07-11T06:35:40.589Z</time>
      </trkpt>
      <trkpt lat="44.05816" lon="5.23311">
        <ele>296</ele>
        <time>2020-07-11T06:35:41.588Z</time>
      </trkpt>
      <trkpt lat="44.05814" lon="5.23311">
        <ele>296</ele>
        <time>2020-07-11T06:35:42.589Z</time>
      </trkpt>
      <trkpt lat="44.05811" lon="5.2331">
        <ele>295</ele>
        <time>2020-07-11T06:35:43.589Z</time>
      </trkpt>
      <trkpt lat="44.05809" lon="5.2331">
        <ele>295</ele>
        <time>2020-07-11T06:35:44.588Z</time>
      </trkpt>
      <trkpt lat="44.05807" lon="5.23309">
        <ele>295</ele>
        <time>2020-07-11T06:35:45.588Z</time>
      </trkpt>
      <trkpt lat="44.05806" lon="5.23309">
        <ele>295</ele>
        <time>2020-07-11T06:35:46.588Z</time>
      </trkpt>
      <trkpt lat="44.05805" lon="5.23308">
        <ele>295</ele>
        <time>2020-07-11T06:35:47.589Z</time>
      </trkpt>
      <trkpt lat="44.05804" lon="5.23308">
        <ele>295</ele>
        <time>2020-07-11T06:35:48.589Z</time>
      </trkpt>
      <trkpt lat="44.05802" lon="5.23309">
        <ele>295</ele>
        <time>2020-07-11T06:35:49.589Z</time>
      </trkpt>
      <trkpt lat="44.058" lon="5.23311">
        <ele>295</ele>
        <time>2020-07-11T06:35:50.589Z</time>
      </trkpt>
      <trkpt lat="44.05797" lon="5.23313">
        <ele>295</ele>
        <time>2020-07-11T06:35:51.589Z</time>
      </trkpt>
      <trkpt lat="44.05794" lon="5.23315">
        <ele>295</ele>
        <time>2020-07-11T06:35:52.589Z</time>
      </trkpt>
      <trkpt lat="44.05791" lon="5.23317">
        <ele>295</ele>
        <time>2020-07-11T06:35:53.589Z</time>
      </trkpt>
      <trkpt lat="44.05789" lon="5.23319">
        <ele>295</ele>
        <time>2020-07-11T06:35:54.589Z</time>
      </trkpt>
      <trkpt lat="44.05785" lon="5.23322">
        <ele>295</ele>
        <time>2020-07-11T06:35:55.588Z</time>
      </trkpt>
      <trkpt lat="44.05782" lon="5.23326">
        <ele>295</ele>
        <time>2020-07-11T06:35:56.589Z</time>
      </trkpt>
      <trkpt lat="44.05779" lon="5.2333">
        <ele>295</ele>
        <time>2020-07-11T06:35:57.588Z</time>
      </trkpt>
      <trkpt lat="44.05778" lon="5.23335">
        <ele>295</ele>
        <time>2020-07-11T06:35:58.588Z</time>
      </trkpt>
      <trkpt lat="44.05776" lon="5.23339">
        <ele>295</ele>
        <time>2020-07-11T06:35:59.589Z</time>
      </trkpt>
      <trkpt lat="44.05774" lon="5.23344">
        <ele>295</ele>
        <time>2020-07-11T06:36:00.589Z</time>
      </trkpt>
      <trkpt lat="44.05774" lon="5.23349">
        <ele>294</ele>
        <time>2020-07-11T06:36:01.589Z</time>
      </trkpt>
      <trkpt lat="44.05773" lon="5.23353">
        <ele>294</ele>
        <time>2020-07-11T06:36:02.588Z</time>
      </trkpt>
      <trkpt lat="44.05772" lon="5.23357">
        <ele>294</ele>
        <time>2020-07-11T06:36:03.588Z</time>
      </trkpt>
      <trkpt lat="44.05772" lon="5.23362">
        <ele>294</ele>
        <time>2020-07-11T06:36:04.589Z</time>
      </trkpt>
      <trkpt lat="44.05771" lon="5.23366">
        <ele>294</ele>
        <time>2020-07-11T06:36:05.589Z</time>
      </trkpt>
      <trkpt lat="44.05771" lon="5.23371">
        <ele>294</ele>
        <time>2020-07-11T06:36:06.588Z</time>
      </trkpt>
      <trkpt lat="44.05771" lon="5.23375">
        <ele>294</ele>
        <time>2020-07-11T06:36:07.589Z</time>
      </trkpt>
      <trkpt lat="44.05769" lon="5.23379">
        <ele>294</ele>
        <time>2020-07-11T06:36:08.588Z</time>
      </trkpt>
      <trkpt lat="44.05767" lon="5.23383">
        <ele>294</ele>
        <time>2020-07-11T06:36:09.589Z</time>
      </trkpt>
      <trkpt lat="44.05764" lon="5.23386">
        <ele>293</ele>
        <time>2020-07-11T06:36:10.589Z</time>
      </trkpt>
      <trkpt lat="44.0576" lon="5.23389">
        <ele>293</ele>
        <time>2020-07-11T06:36:11.589Z</time>
      </trkpt>
      <trkpt lat="44.05756" lon="5.23393">
        <ele>293</ele>
        <time>2020-07-11T06:36:12.588Z</time>
      </trkpt>
      <trkpt lat="44.05753" lon="5.23396">
        <ele>293</ele>
        <time>2020-07-11T06:36:13.589Z</time>
      </trkpt>
      <trkpt lat="44.0575" lon="5.234">
        <ele>293</ele>
        <time>2020-07-11T06:36:14.589Z</time>
      </trkpt>
      <trkpt lat="44.05748" lon="5.23404">
        <ele>293</ele>
        <time>2020-07-11T06:36:15.588Z</time>
      </trkpt>
      <trkpt lat="44.05745" lon="5.23409">
        <ele>293</ele>
        <time>2020-07-11T06:36:16.589Z</time>
      </trkpt>
      <trkpt lat="44.05742" lon="5.23413">
        <ele>293</ele>
        <time>2020-07-11T06:36:17.588Z</time>
      </trkpt>
      <trkpt lat="44.05739" lon="5.23415">
        <ele>293</ele>
        <time>2020-07-11T06:36:18.588Z</time>
      </trkpt>
      <trkpt lat="44.05736" lon="5.23418">
        <ele>293</ele>
        <time>2020-07-11T06:36:19.588Z</time>
      </trkpt>
      <trkpt lat="44.05733" lon="5.2342">
        <ele>293</ele>
        <time>2020-07-11T06:36:20.589Z</time>
      </trkpt>
      <trkpt lat="44.0573" lon="5.23422">
        <ele>293</ele>
        <time>2020-07-11T06:36:21.589Z</time>
      </trkpt>
      <trkpt lat="44.05728" lon="5.23423">
        <ele>293</ele>
        <time>2020-07-11T06:36:22.588Z</time>
      </trkpt>
      <trkpt lat="44.05726" lon="5.23424">
        <ele>293</ele>
        <time>2020-07-11T06:36:23.589Z</time>
      </trkpt>
      <trkpt lat="44.05725" lon="5.23426">
        <ele>293</ele>
        <time>2020-07-11T06:36:24.589Z</time>
      </trkpt>
      <trkpt lat="44.05725" lon="5.23429">
        <ele>293</ele>
        <time>2020-07-11T06:36:25.589Z</time>
      </trkpt>
      <trkpt lat="44.05725" lon="5.23434">
        <ele>293</ele>
        <time>2020-07-11T06:36:26.589Z</time>
      </trkpt>
      <trkpt lat="44.05725" lon="5.23438">
        <ele>294</ele>
        <time>2020-07-11T06:36:27.588Z</time>
      </trkpt>
      <trkpt lat="44.05724" lon="5.23443">
        <ele>294</ele>
        <time>2020-07-11T06:36:28.588Z</time>
      </trkpt>
      <trkpt lat="44.05723" lon="5.23447">
        <ele>294</ele>
        <time>2020-07-11T06:36:29.589Z</time>
      </trkpt>
      <trkpt lat="44.05723" lon="5.23452">
        <ele>294</ele>
        <time>2020-07-11T06:36:30.588Z</time>
      </trkpt>
      <trkpt lat="44.05722" lon="5.23457">
        <ele>294</ele>
        <time>2020-07-11T06:36:31.589Z</time>
      </trkpt>
      <trkpt lat="44.05721" lon="5.2346">
        <ele>294</ele>
        <time>2020-07-11T06:36:32.589Z</time>
      </trkpt>
      <trkpt lat="44.0572" lon="5.23464">
        <ele>294</ele>
        <time>2020-07-11T06:36:33.589Z</time>
      </trkpt>
      <trkpt lat="44.05719" lon="5.23468">
        <ele>294</ele>
        <time>2020-07-11T06:36:34.589Z</time>
      </trkpt>
      <trkpt lat="44.05718" lon="5.23473">
        <ele>294</ele>
        <time>2020-07-11T06:36:35.589Z</time>
      </trkpt>
      <trkpt lat="44.05716" lon="5.23478">
        <ele>294</ele>
        <time>2020-07-11T06:36:36.589Z</time>
      </trkpt>
      <trkpt lat="44.05715" lon="5.23482">
        <ele>294</ele>
        <time>2020-07-11T06:36:37.588Z</time>
      </trkpt>
      <trkpt lat="44.05713" lon="5.23486">
        <ele>295</ele>
        <time>2020-07-11T06:36:38.588Z</time>
      </trkpt>
      <trkpt lat="44.05712" lon="5.2349">
        <ele>295</ele>
        <time>2020-07-11T06:36:39.589Z</time>
      </trkpt>
      <trkpt lat="44.0571" lon="5.23494">
        <ele>295</ele>
        <time>2020-07-11T06:36:40.589Z</time>
      </trkpt>
      <trkpt lat="44.05708" lon="5.23498">
        <ele>295</ele>
        <time>2020-07-11T06:36:41.589Z</time>
      </trkpt>
      <trkpt lat="44.05706" lon="5.23502">
        <ele>295</ele>
        <time>2020-07-11T06:36:42.589Z</time>
      </trkpt>
      <trkpt lat="44.05703" lon="5.23506">
        <ele>295</ele>
        <time>2020-07-11T06:36:43.588Z</time>
      </trkpt>
      <trkpt lat="44.05701" lon="5.2351">
        <ele>295</ele>
        <time>2020-07-11T06:36:44.588Z</time>
      </trkpt>
      <trkpt lat="44.05698" lon="5.23513">
        <ele>295</ele>
        <time>2020-07-11T06:36:45.589Z</time>
      </trkpt>
      <trkpt lat="44.05696" lon="5.23517">
        <ele>294</ele>
        <time>2020-07-11T06:36:46.589Z</time>
      </trkpt>
      <trkpt lat="44.05693" lon="5.23521">
        <ele>294</ele>
        <time>2020-07-11T06:36:47.588Z</time>
      </trkpt>
      <trkpt lat="44.05691" lon="5.23525">
        <ele>294</ele>
        <time>2020-07-11T06:36:48.589Z</time>
      </trkpt>
      <trkpt lat="44.05689" lon="5.23529">
        <ele>294</ele>
        <time>2020-07-11T06:36:49.588Z</time>
      </trkpt>
      <trkpt lat="44.05687" lon="5.23532">
        <ele>294</ele>
        <time>2020-07-11T06:36:50.589Z</time>
      </trkpt>
      <trkpt lat="44.05684" lon="5.23535">
        <ele>294</ele>
        <time>2020-07-11T06:36:51.589Z</time>
      </trkpt>
      <trkpt lat="44.05683" lon="5.23536">
        <ele>294</ele>
        <time>2020-07-11T06:36:52.589Z</time>
      </trkpt>
      <trkpt lat="44.05682" lon="5.23537">
        <ele>294</ele>
        <time>2020-07-11T06:36:53.589Z</time>
      </trkpt>
      <trkpt lat="44.05682" lon="5.23538">
        <ele>294</ele>
        <time>2020-07-11T06:36:54.588Z</time>
      </trkpt>
      <trkpt lat="44.05682" lon="5.23538">
        <ele>293</ele>
        <time>2020-07-11T06:36:55.588Z</time>
      </trkpt>
      <trkpt lat="44.05681" lon="5.23539">
        <ele>293</ele>
        <time>2020-07-11T06:36:56.589Z</time>
      </trkpt>
      <trkpt lat="44.05681" lon="5.23538">
        <ele>293</ele>
        <time>2020-07-11T06:36:57.588Z</time>
      </trkpt>
      <trkpt lat="44.05681" lon="5.23538">
        <ele>293</ele>
        <time>2020-07-11T06:36:58.589Z</time>
      </trkpt>
      <trkpt lat="44.0568" lon="5.23537">
        <ele>293</ele>
        <time>2020-07-11T06:36:59.588Z</time>
      </trkpt>
      <trkpt lat="44.0568" lon="5.23536">
        <ele>293</ele>
        <time>2020-07-11T06:37:00.588Z</time>
      </trkpt>
      <trkpt lat="44.05679" lon="5.23536">
        <ele>293</ele>
        <time>2020-07-11T06:37:01.588Z</time>
      </trkpt>
      <trkpt lat="44.05678" lon="5.23536">
        <ele>293</ele>
        <time>2020-07-11T06:37:02.588Z</time>
      </trkpt>
      <trkpt lat="44.05678" lon="5.23537">
        <ele>293</ele>
        <time>2020-07-11T06:37:03.588Z</time>
      </trkpt>
      <trkpt lat="44.05677" lon="5.23538">
        <ele>293</ele>
        <time>2020-07-11T06:37:04.589Z</time>
      </trkpt>
      <trkpt lat="44.05676" lon="5.23538">
        <ele>293</ele>
        <time>2020-07-11T06:37:05.589Z</time>
      </trkpt>
      <trkpt lat="44.05676" lon="5.23539">
        <ele>293</ele>
        <time>2020-07-11T06:37:06.589Z</time>
      </trkpt>
      <trkpt lat="44.05675" lon="5.23539">
        <ele>294</ele>
        <time>2020-07-11T06:37:07.589Z</time>
      </trkpt>
      <trkpt lat="44.05675" lon="5.2354">
        <ele>294</ele>
        <time>2020-07-11T06:37:08.589Z</time>
      </trkpt>
      <trkpt lat="44.05674" lon="5.23541">
        <ele>294</ele>
        <time>2020-07-11T06:37:09.589Z</time>
      </trkpt>
      <trkpt lat="44.05673" lon="5.23542">
        <ele>294</ele>
        <time>2020-07-11T06:37:10.589Z</time>
      </trkpt>
      <trkpt lat="44.05672" lon="5.23542">
        <ele>294</ele>
        <time>2020-07-11T06:37:11.589Z</time>
      </trkpt>
      <trkpt lat="44.05671" lon="5.23541">
        <ele>294</ele>
        <time>2020-07-11T06:37:12.588Z</time>
      </trkpt>
      <trkpt lat="44.0567" lon="5.23541">
        <ele>294</ele>
        <time>2020-07-11T06:37:13.589Z</time>
      </trkpt>
      <trkpt lat="44.05669" lon="5.2354">
        <ele>294</ele>
        <time>2020-07-11T06:37:14.589Z</time>
      </trkpt>
      <trkpt lat="44.05669" lon="5.2354">
        <ele>293</ele>
        <time>2020-07-11T06:37:15.589Z</time>
      </trkpt>
      <trkpt lat="44.05668" lon="5.2354">
        <ele>293</ele>
        <time>2020-07-11T06:37:16.589Z</time>
      </trkpt>
      <trkpt lat="44.05667" lon="5.2354">
        <ele>293</ele>
        <time>2020-07-11T06:37:17.588Z</time>
      </trkpt>
      <trkpt lat="44.05666" lon="5.2354">
        <ele>293</ele>
        <time>2020-07-11T06:37:18.588Z</time>
      </trkpt>
      <trkpt lat="44.05665" lon="5.2354">
        <ele>293</ele>
        <time>2020-07-11T06:37:19.589Z</time>
      </trkpt>
      <trkpt lat="44.05664" lon="5.2354">
        <ele>294</ele>
        <time>2020-07-11T06:37:20.589Z</time>
      </trkpt>
      <trkpt lat="44.05664" lon="5.23541">
        <ele>294</ele>
        <time>2020-07-11T06:37:21.589Z</time>
      </trkpt>
      <trkpt lat="44.05664" lon="5.23541">
        <ele>294</ele>
        <time>2020-07-11T06:37:22.589Z</time>
      </trkpt>
      <trkpt lat="44.05664" lon="5.23541">
        <ele>295</ele>
        <time>2020-07-11T06:37:23.588Z</time>
      </trkpt>
      <trkpt lat="44.05664" lon="5.23541">
        <ele>295</ele>
        <time>2020-07-11T06:37:24.589Z</time>
      </trkpt>
      <trkpt lat="44.05664" lon="5.23541">
        <ele>295</ele>
        <time>2020-07-11T06:37:25.588Z</time>
      </trkpt>
      <trkpt lat="44.05664" lon="5.23542">
        <ele>295</ele>
        <time>2020-07-11T06:37:26.588Z</time>
      </trkpt>
      <trkpt lat="44.05662" lon="5.23541">
        <ele>295</ele>
        <time>2020-07-11T06:37:27.588Z</time>
      </trkpt>
      <trkpt lat="44.05661" lon="5.23541">
        <ele>295</ele>
        <time>2020-07-11T06:37:28.589Z</time>
      </trkpt>
      <trkpt lat="44.0566" lon="5.23541">
        <ele>295</ele>
        <time>2020-07-11T06:37:29.589Z</time>
      </trkpt>
      <trkpt lat="44.0566" lon="5.23541">
        <ele>295</ele>
        <time>2020-07-11T06:37:30.588Z</time>
      </trkpt>
      <trkpt lat="44.05658" lon="5.23542">
        <ele>295</ele>
        <time>2020-07-11T06:37:31.589Z</time>
      </trkpt>
      <trkpt lat="44.05658" lon="5.23543">
        <ele>295</ele>
        <time>2020-07-11T06:37:32.588Z</time>
      </trkpt>
      <trkpt lat="44.05657" lon="5.23543">
        <ele>295</ele>
        <time>2020-07-11T06:37:33.588Z</time>
      </trkpt>
      <trkpt lat="44.05656" lon="5.23543">
        <ele>295</ele>
        <time>2020-07-11T06:37:34.588Z</time>
      </trkpt>
      <trkpt lat="44.05655" lon="5.23544">
        <ele>295</ele>
        <time>2020-07-11T06:37:35.589Z</time>
      </trkpt>
      <trkpt lat="44.05654" lon="5.23544">
        <ele>295</ele>
        <time>2020-07-11T06:37:36.589Z</time>
      </trkpt>
      <trkpt lat="44.05653" lon="5.23545">
        <ele>296</ele>
        <time>2020-07-11T06:37:37.589Z</time>
      </trkpt>
      <trkpt lat="44.05652" lon="5.23545">
        <ele>296</ele>
        <time>2020-07-11T06:37:38.589Z</time>
      </trkpt>
      <trkpt lat="44.05651" lon="5.23546">
        <ele>296</ele>
        <time>2020-07-11T06:37:39.588Z</time>
      </trkpt>
      <trkpt lat="44.0565" lon="5.23546">
        <ele>296</ele>
        <time>2020-07-11T06:37:40.589Z</time>
      </trkpt>
      <trkpt lat="44.05649" lon="5.23546">
        <ele>296</ele>
        <time>2020-07-11T06:37:41.588Z</time>
      </trkpt>
      <trkpt lat="44.05648" lon="5.23546">
        <ele>296</ele>
        <time>2020-07-11T06:37:42.588Z</time>
      </trkpt>
      <trkpt lat="44.05647" lon="5.23546">
        <ele>296</ele>
        <time>2020-07-11T06:37:43.589Z</time>
      </trkpt>
      <trkpt lat="44.05646" lon="5.23546">
        <ele>297</ele>
        <time>2020-07-11T06:37:44.589Z</time>
      </trkpt>
      <trkpt lat="44.05646" lon="5.23546">
        <ele>297</ele>
        <time>2020-07-11T06:37:45.589Z</time>
      </trkpt>
      <trkpt lat="44.05645" lon="5.23547">
        <ele>297</ele>
        <time>2020-07-11T06:37:46.589Z</time>
      </trkpt>
      <trkpt lat="44.05644" lon="5.23547">
        <ele>297</ele>
        <time>2020-07-11T06:37:47.589Z</time>
      </trkpt>
      <trkpt lat="44.05643" lon="5.23547">
        <ele>296</ele>
        <time>2020-07-11T06:37:48.589Z</time>
      </trkpt>
      <trkpt lat="44.05642" lon="5.23548">
        <ele>296</ele>
        <time>2020-07-11T06:37:49.589Z</time>
      </trkpt>
      <trkpt lat="44.05641" lon="5.23548">
        <ele>295</ele>
        <time>2020-07-11T06:37:50.588Z</time>
      </trkpt>
      <trkpt lat="44.0564" lon="5.23548">
        <ele>295</ele>
        <time>2020-07-11T06:37:51.589Z</time>
      </trkpt>
      <trkpt lat="44.05639" lon="5.23547">
        <ele>295</ele>
        <time>2020-07-11T06:37:52.588Z</time>
      </trkpt>
      <trkpt lat="44.05638" lon="5.23547">
        <ele>294</ele>
        <time>2020-07-11T06:37:53.588Z</time>
      </trkpt>
      <trkpt lat="44.05637" lon="5.23547">
        <ele>294</ele>
        <time>2020-07-11T06:37:54.589Z</time>
      </trkpt>
      <trkpt lat="44.05636" lon="5.23547">
        <ele>294</ele>
        <time>2020-07-11T06:37:55.589Z</time>
      </trkpt>
      <trkpt lat="44.05635" lon="5.23547">
        <ele>294</ele>
        <time>2020-07-11T06:37:56.588Z</time>
      </trkpt>
      <trkpt lat="44.05634" lon="5.23547">
        <ele>294</ele>
        <time>2020-07-11T06:37:57.589Z</time>
      </trkpt>
      <trkpt lat="44.05633" lon="5.23547">
        <ele>294</ele>
        <time>2020-07-11T06:37:58.589Z</time>
      </trkpt>
      <trkpt lat="44.05632" lon="5.23547">
        <ele>295</ele>
        <time>2020-07-11T06:37:59.589Z</time>
      </trkpt>
      <trkpt lat="44.05631" lon="5.23548">
        <ele>295</ele>
        <time>2020-07-11T06:38:00.589Z</time>
      </trkpt>
      <trkpt lat="44.05631" lon="5.23549">
        <ele>295</ele>
        <time>2020-07-11T06:38:01.588Z</time>
      </trkpt>
      <trkpt lat="44.0563" lon="5.2355">
        <ele>295</ele>
        <time>2020-07-11T06:38:02.588Z</time>
      </trkpt>
      <trkpt lat="44.0563" lon="5.2355">
        <ele>295</ele>
        <time>2020-07-11T06:38:03.589Z</time>
      </trkpt>
      <trkpt lat="44.05629" lon="5.23551">
        <ele>295</ele>
        <time>2020-07-11T06:38:04.589Z</time>
      </trkpt>
      <trkpt lat="44.05628" lon="5.23551">
        <ele>295</ele>
        <time>2020-07-11T06:38:05.589Z</time>
      </trkpt>
      <trkpt lat="44.05628" lon="5.23552">
        <ele>295</ele>
        <time>2020-07-11T06:38:06.589Z</time>
      </trkpt>
      <trkpt lat="44.05687" lon="5.23532">
        <ele>295</ele>
        <time>2020-07-11T06:38:07.590Z</time>
      </trkpt>
      <trkpt lat="44.05687" lon="5.23532">
        <ele>295</ele>
        <time>2020-07-11T06:38:08.589Z</time>
      </trkpt>
      <trkpt lat="44.05687" lon="5.23532">
        <ele>295</ele>
        <time>2020-07-11T06:38:09.589Z</time>
      </trkpt>
      <trkpt lat="44.05687" lon="5.23532">
        <ele>295</ele>
        <time>2020-07-11T06:38:10.589Z</time>
      </trkpt>
      <trkpt lat="44.05687" lon="5.23532">
        <ele>295</ele>
        <time>2020-07-11T06:38:11.589Z</time>
      </trkpt>
      <trkpt lat="44.05687" lon="5.23532">
        <ele>295</ele>
        <time>2020-07-11T06:38:12.590Z</time>
      </trkpt>
      <trkpt lat="44.05687" lon="5.23532">
        <ele>295</ele>
        <time>2020-07-11T06:38:13.589Z</time>
      </trkpt>
      <trkpt lat="44.05687" lon="5.23532">
        <ele>295</ele>
        <time>2020-07-11T06:38:14.589Z</time>
      </trkpt>
      <trkpt lat="44.05687" lon="5.23532">
        <ele>295</ele>
        <time>2020-07-11T06:38:15.589Z</time>
      </trkpt>
      <trkpt lat="44.05687" lon="5.23532">
        <ele>295</ele>
        <time>2020-07-11T06:38:16.589Z</time>
      </trkpt>
      <trkpt lat="44.05687" lon="5.23532">
        <ele>295</ele>
        <time>2020-07-11T06:38:17.589Z</time>
      </trkpt>
      <trkpt lat="44.05687" lon="5.23531">
        <ele>295</ele>
        <time>2020-07-11T06:38:18.590Z</time>
      </trkpt>
      <trkpt lat="44.05687" lon="5.23531">
        <ele>295</ele>
        <time>2020-07-11T06:38:19.589Z</time>
      </trkpt>
      <trkpt lat="44.05687" lon="5.23531">
        <ele>295</ele>
        <time>2020-07-11T06:38:20.589Z</time>
      </trkpt>
      <trkpt lat="44.05687" lon="5.23531">
        <ele>295</ele>
        <time>2020-07-11T06:38:21.589Z</time>
      </trkpt>
      <trkpt lat="44.05687" lon="5.23531">
        <ele>295</ele>
        <time>2020-07-11T06:38:22.590Z</time>
      </trkpt>
      <trkpt lat="44.05688" lon="5.2353">
        <ele>295</ele>
        <time>2020-07-11T06:38:23.590Z</time>
      </trkpt>
      <trkpt lat="44.05689" lon="5.23528">
        <ele>295</ele>
        <time>2020-07-11T06:38:24.589Z</time>
      </trkpt>
      <trkpt lat="44.0569" lon="5.23525">
        <ele>295</ele>
        <time>2020-07-11T06:38:25.589Z</time>
      </trkpt>
      <trkpt lat="44.05691" lon="5.23522">
        <ele>295</ele>
        <time>2020-07-11T06:38:26.590Z</time>
      </trkpt>
      <trkpt lat="44.05692" lon="5.23519">
        <ele>295</ele>
        <time>2020-07-11T06:38:27.589Z</time>
      </trkpt>
      <trkpt lat="44.05694" lon="5.23516">
        <ele>295</ele>
        <time>2020-07-11T06:38:28.589Z</time>
      </trkpt>
      <trkpt lat="44.05695" lon="5.23514">
        <ele>295</ele>
        <time>2020-07-11T06:38:29.589Z</time>
      </trkpt>
      <trkpt lat="44.05697" lon="5.23511">
        <ele>295</ele>
        <time>2020-07-11T06:38:30.589Z</time>
      </trkpt>
      <trkpt lat="44.05699" lon="5.23508">
        <ele>295</ele>
        <time>2020-07-11T06:38:31.589Z</time>
      </trkpt>
      <trkpt lat="44.057" lon="5.23504">
        <ele>295</ele>
        <time>2020-07-11T06:38:32.590Z</time>
      </trkpt>
      <trkpt lat="44.05702" lon="5.23501">
        <ele>295</ele>
        <time>2020-07-11T06:38:33.589Z</time>
      </trkpt>
      <trkpt lat="44.05703" lon="5.23498">
        <ele>294</ele>
        <time>2020-07-11T06:38:34.590Z</time>
      </trkpt>
      <trkpt lat="44.05704" lon="5.23495">
        <ele>294</ele>
        <time>2020-07-11T06:38:35.590Z</time>
      </trkpt>
      <trkpt lat="44.05706" lon="5.23491">
        <ele>294</ele>
        <time>2020-07-11T06:38:36.589Z</time>
      </trkpt>
      <trkpt lat="44.05708" lon="5.23488">
        <ele>294</ele>
        <time>2020-07-11T06:38:37.589Z</time>
      </trkpt>
      <trkpt lat="44.0571" lon="5.23484">
        <ele>294</ele>
        <time>2020-07-11T06:38:38.589Z</time>
      </trkpt>
      <trkpt lat="44.05711" lon="5.23479">
        <ele>294</ele>
        <time>2020-07-11T06:38:39.590Z</time>
      </trkpt>
      <trkpt lat="44.05713" lon="5.23475">
        <ele>294</ele>
        <time>2020-07-11T06:38:40.589Z</time>
      </trkpt>
      <trkpt lat="44.05714" lon="5.2347">
        <ele>294</ele>
        <time>2020-07-11T06:38:41.590Z</time>
      </trkpt>
      <trkpt lat="44.05715" lon="5.23466">
        <ele>293</ele>
        <time>2020-07-11T06:38:42.589Z</time>
      </trkpt>
      <trkpt lat="44.05715" lon="5.23461">
        <ele>293</ele>
        <time>2020-07-11T06:38:43.589Z</time>
      </trkpt>
      <trkpt lat="44.05715" lon="5.23455">
        <ele>293</ele>
        <time>2020-07-11T06:38:44.589Z</time>
      </trkpt>
      <trkpt lat="44.05715" lon="5.23449">
        <ele>293</ele>
        <time>2020-07-11T06:38:45.589Z</time>
      </trkpt>
      <trkpt lat="44.05715" lon="5.23445">
        <ele>293</ele>
        <time>2020-07-11T06:38:46.590Z</time>
      </trkpt>
      <trkpt lat="44.05714" lon="5.23437">
        <ele>293</ele>
        <time>2020-07-11T06:38:47.589Z</time>
      </trkpt>
      <trkpt lat="44.05714" lon="5.23432">
        <ele>293</ele>
        <time>2020-07-11T06:38:48.589Z</time>
      </trkpt>
      <trkpt lat="44.05715" lon="5.23427">
        <ele>292</ele>
        <time>2020-07-11T06:38:49.589Z</time>
      </trkpt>
      <trkpt lat="44.05716" lon="5.23424">
        <ele>292</ele>
        <time>2020-07-11T06:38:50.589Z</time>
      </trkpt>
      <trkpt lat="44.05721" lon="5.23422">
        <ele>292</ele>
        <time>2020-07-11T06:38:51.590Z</time>
      </trkpt>
      <trkpt lat="44.05724" lon="5.2342">
        <ele>292</ele>
        <time>2020-07-11T06:38:52.589Z</time>
      </trkpt>
      <trkpt lat="44.05727" lon="5.23419">
        <ele>292</ele>
        <time>2020-07-11T06:38:53.589Z</time>
      </trkpt>
      <trkpt lat="44.05731" lon="5.23417">
        <ele>292</ele>
        <time>2020-07-11T06:38:54.590Z</time>
      </trkpt>
      <trkpt lat="44.05734" lon="5.23416">
        <ele>292</ele>
        <time>2020-07-11T06:38:55.589Z</time>
      </trkpt>
      <trkpt lat="44.05737" lon="5.23413">
        <ele>292</ele>
        <time>2020-07-11T06:38:56.590Z</time>
      </trkpt>
      <trkpt lat="44.0574" lon="5.2341">
        <ele>292</ele>
        <time>2020-07-11T06:38:57.589Z</time>
      </trkpt>
      <trkpt lat="44.05742" lon="5.23407">
        <ele>292</ele>
        <time>2020-07-11T06:38:58.589Z</time>
      </trkpt>
      <trkpt lat="44.05744" lon="5.23403">
        <ele>292</ele>
        <time>2020-07-11T06:38:59.590Z</time>
      </trkpt>
      <trkpt lat="44.05746" lon="5.23399">
        <ele>292</ele>
        <time>2020-07-11T06:39:00.589Z</time>
      </trkpt>
      <trkpt lat="44.05748" lon="5.23395">
        <ele>292</ele>
        <time>2020-07-11T06:39:01.589Z</time>
      </trkpt>
      <trkpt lat="44.05751" lon="5.23393">
        <ele>292</ele>
        <time>2020-07-11T06:39:02.589Z</time>
      </trkpt>
      <trkpt lat="44.05755" lon="5.23392">
        <ele>292</ele>
        <time>2020-07-11T06:39:03.589Z</time>
      </trkpt>
      <trkpt lat="44.05758" lon="5.23393">
        <ele>293</ele>
        <time>2020-07-11T06:39:04.590Z</time>
      </trkpt>
      <trkpt lat="44.0576" lon="5.23396">
        <ele>293</ele>
        <time>2020-07-11T06:39:05.589Z</time>
      </trkpt>
      <trkpt lat="44.05762" lon="5.23399">
        <ele>293</ele>
        <time>2020-07-11T06:39:06.589Z</time>
      </trkpt>
      <trkpt lat="44.05762" lon="5.23403">
        <ele>293</ele>
        <time>2020-07-11T06:39:07.589Z</time>
      </trkpt>
      <trkpt lat="44.05762" lon="5.23407">
        <ele>293</ele>
        <time>2020-07-11T06:39:08.590Z</time>
      </trkpt>
      <trkpt lat="44.05761" lon="5.23411">
        <ele>293</ele>
        <time>2020-07-11T06:39:09.590Z</time>
      </trkpt>
      <trkpt lat="44.05762" lon="5.23415">
        <ele>293</ele>
        <time>2020-07-11T06:39:10.589Z</time>
      </trkpt>
      <trkpt lat="44.05762" lon="5.23418">
        <ele>293</ele>
        <time>2020-07-11T06:39:11.589Z</time>
      </trkpt>
      <trkpt lat="44.05761" lon="5.23422">
        <ele>293</ele>
        <time>2020-07-11T06:39:12.590Z</time>
      </trkpt>
      <trkpt lat="44.05761" lon="5.23426">
        <ele>293</ele>
        <time>2020-07-11T06:39:13.590Z</time>
      </trkpt>
      <trkpt lat="44.05761" lon="5.23429">
        <ele>294</ele>
        <time>2020-07-11T06:39:14.589Z</time>
      </trkpt>
      <trkpt lat="44.05762" lon="5.23432">
        <ele>294</ele>
        <time>2020-07-11T06:39:15.589Z</time>
      </trkpt>
      <trkpt lat="44.05762" lon="5.23436">
        <ele>294</ele>
        <time>2020-07-11T06:39:16.590Z</time>
      </trkpt>
      <trkpt lat="44.05764" lon="5.23441">
        <ele>294</ele>
        <time>2020-07-11T06:39:17.589Z</time>
      </trkpt>
      <trkpt lat="44.05765" lon="5.23446">
        <ele>294</ele>
        <time>2020-07-11T06:39:18.590Z</time>
      </trkpt>
      <trkpt lat="44.05766" lon="5.23451">
        <ele>294</ele>
        <time>2020-07-11T06:39:19.590Z</time>
      </trkpt>
      <trkpt lat="44.05768" lon="5.23456">
        <ele>294</ele>
        <time>2020-07-11T06:39:20.589Z</time>
      </trkpt>
      <trkpt lat="44.05769" lon="5.23461">
        <ele>295</ele>
        <time>2020-07-11T06:39:21.589Z</time>
      </trkpt>
      <trkpt lat="44.0577" lon="5.23467">
        <ele>295</ele>
        <time>2020-07-11T06:39:22.590Z</time>
      </trkpt>
      <trkpt lat="44.05771" lon="5.23472">
        <ele>295</ele>
        <time>2020-07-11T06:39:23.589Z</time>
      </trkpt>
      <trkpt lat="44.05772" lon="5.23478">
        <ele>295</ele>
        <time>2020-07-11T06:39:24.589Z</time>
      </trkpt>
      <trkpt lat="44.05773" lon="5.23484">
        <ele>295</ele>
        <time>2020-07-11T06:39:25.590Z</time>
      </trkpt>
      <trkpt lat="44.05774" lon="5.23489">
        <ele>295</ele>
        <time>2020-07-11T06:39:26.589Z</time>
      </trkpt>
      <trkpt lat="44.05775" lon="5.23495">
        <ele>295</ele>
        <time>2020-07-11T06:39:27.590Z</time>
      </trkpt>
      <trkpt lat="44.05775" lon="5.23499">
        <ele>295</ele>
        <time>2020-07-11T06:39:28.589Z</time>
      </trkpt>
      <trkpt lat="44.05775" lon="5.23504">
        <ele>295</ele>
        <time>2020-07-11T06:39:29.590Z</time>
      </trkpt>
      <trkpt lat="44.05775" lon="5.23509">
        <ele>294</ele>
        <time>2020-07-11T06:39:30.590Z</time>
      </trkpt>
      <trkpt lat="44.05774" lon="5.23514">
        <ele>294</ele>
        <time>2020-07-11T06:39:31.589Z</time>
      </trkpt>
      <trkpt lat="44.05772" lon="5.23519">
        <ele>294</ele>
        <time>2020-07-11T06:39:32.589Z</time>
      </trkpt>
      <trkpt lat="44.0577" lon="5.23523">
        <ele>294</ele>
        <time>2020-07-11T06:39:33.589Z</time>
      </trkpt>
      <trkpt lat="44.05767" lon="5.23528">
        <ele>294</ele>
        <time>2020-07-11T06:39:34.589Z</time>
      </trkpt>
      <trkpt lat="44.05765" lon="5.23533">
        <ele>294</ele>
        <time>2020-07-11T06:39:35.589Z</time>
      </trkpt>
      <trkpt lat="44.05762" lon="5.23537">
        <ele>294</ele>
        <time>2020-07-11T06:39:36.589Z</time>
      </trkpt>
      <trkpt lat="44.0576" lon="5.23542">
        <ele>294</ele>
        <time>2020-07-11T06:39:37.589Z</time>
      </trkpt>
      <trkpt lat="44.05757" lon="5.23546">
        <ele>294</ele>
        <time>2020-07-11T06:39:38.589Z</time>
      </trkpt>
      <trkpt lat="44.05754" lon="5.23549">
        <ele>295</ele>
        <time>2020-07-11T06:39:39.590Z</time>
      </trkpt>
      <trkpt lat="44.05752" lon="5.23553">
        <ele>295</ele>
        <time>2020-07-11T06:39:40.590Z</time>
      </trkpt>
      <trkpt lat="44.05749" lon="5.23557">
        <ele>295</ele>
        <time>2020-07-11T06:39:41.589Z</time>
      </trkpt>
      <trkpt lat="44.05747" lon="5.23561">
        <ele>295</ele>
        <time>2020-07-11T06:39:42.590Z</time>
      </trkpt>
      <trkpt lat="44.05745" lon="5.23565">
        <ele>294</ele>
        <time>2020-07-11T06:39:43.589Z</time>
      </trkpt>
      <trkpt lat="44.05743" lon="5.23569">
        <ele>294</ele>
        <time>2020-07-11T06:39:44.589Z</time>
      </trkpt>
      <trkpt lat="44.0574" lon="5.23573">
        <ele>294</ele>
        <time>2020-07-11T06:39:45.589Z</time>
      </trkpt>
      <trkpt lat="44.05737" lon="5.23576">
        <ele>294</ele>
        <time>2020-07-11T06:39:46.590Z</time>
      </trkpt>
      <trkpt lat="44.05734" lon="5.2358">
        <ele>294</ele>
        <time>2020-07-11T06:39:47.590Z</time>
      </trkpt>
      <trkpt lat="44.05731" lon="5.23583">
        <ele>294</ele>
        <time>2020-07-11T06:39:48.590Z</time>
      </trkpt>
      <trkpt lat="44.05728" lon="5.23587">
        <ele>294</ele>
        <time>2020-07-11T06:39:49.589Z</time>
      </trkpt>
      <trkpt lat="44.05726" lon="5.23592">
        <ele>294</ele>
        <time>2020-07-11T06:39:50.589Z</time>
      </trkpt>
      <trkpt lat="44.05724" lon="5.23596">
        <ele>294</ele>
        <time>2020-07-11T06:39:51.590Z</time>
      </trkpt>
      <trkpt lat="44.05722" lon="5.236">
        <ele>294</ele>
        <time>2020-07-11T06:39:52.589Z</time>
      </trkpt>
      <trkpt lat="44.0572" lon="5.23604">
        <ele>294</ele>
        <time>2020-07-11T06:39:53.589Z</time>
      </trkpt>
      <trkpt lat="44.05717" lon="5.23609">
        <ele>294</ele>
        <time>2020-07-11T06:39:54.589Z</time>
      </trkpt>
      <trkpt lat="44.05715" lon="5.23613">
        <ele>295</ele>
        <time>2020-07-11T06:39:55.589Z</time>
      </trkpt>
      <trkpt lat="44.05712" lon="5.23617">
        <ele>295</ele>
        <time>2020-07-11T06:39:56.590Z</time>
      </trkpt>
      <trkpt lat="44.0571" lon="5.23621">
        <ele>295</ele>
        <time>2020-07-11T06:39:57.589Z</time>
      </trkpt>
      <trkpt lat="44.05707" lon="5.23625">
        <ele>295</ele>
        <time>2020-07-11T06:39:58.589Z</time>
      </trkpt>
      <trkpt lat="44.05705" lon="5.23629">
        <ele>295</ele>
        <time>2020-07-11T06:39:59.589Z</time>
      </trkpt>
      <trkpt lat="44.05703" lon="5.23633">
        <ele>294</ele>
        <time>2020-07-11T06:40:00.589Z</time>
      </trkpt>
      <trkpt lat="44.05701" lon="5.23636">
        <ele>294</ele>
        <time>2020-07-11T06:40:01.590Z</time>
      </trkpt>
      <trkpt lat="44.05699" lon="5.23641">
        <ele>294</ele>
        <time>2020-07-11T06:40:02.589Z</time>
      </trkpt>
      <trkpt lat="44.05696" lon="5.23644">
        <ele>294</ele>
        <time>2020-07-11T06:40:03.589Z</time>
      </trkpt>
      <trkpt lat="44.05694" lon="5.23648">
        <ele>294</ele>
        <time>2020-07-11T06:40:04.589Z</time>
      </trkpt>
      <trkpt lat="44.05693" lon="5.23652">
        <ele>295</ele>
        <time>2020-07-11T06:40:05.589Z</time>
      </trkpt>
      <trkpt lat="44.05691" lon="5.23655">
        <ele>295</ele>
        <time>2020-07-11T06:40:06.589Z</time>
      </trkpt>
      <trkpt lat="44.05689" lon="5.23659">
        <ele>295</ele>
        <time>2020-07-11T06:40:07.590Z</time>
      </trkpt>
      <trkpt lat="44.05687" lon="5.23661">
        <ele>295</ele>
        <time>2020-07-11T06:40:08.589Z</time>
      </trkpt>
      <trkpt lat="44.05686" lon="5.23663">
        <ele>295</ele>
        <time>2020-07-11T06:40:09.589Z</time>
      </trkpt>
      <trkpt lat="44.05685" lon="5.23665">
        <ele>296</ele>
        <time>2020-07-11T06:40:10.590Z</time>
      </trkpt>
      <trkpt lat="44.05685" lon="5.23668">
        <ele>296</ele>
        <time>2020-07-11T06:40:11.589Z</time>
      </trkpt>
      <trkpt lat="44.05685" lon="5.23671">
        <ele>297</ele>
        <time>2020-07-11T06:40:12.589Z</time>
      </trkpt>
      <trkpt lat="44.05683" lon="5.23673">
        <ele>297</ele>
        <time>2020-07-11T06:40:13.589Z</time>
      </trkpt>
      <trkpt lat="44.05682" lon="5.23675">
        <ele>297</ele>
        <time>2020-07-11T06:40:14.589Z</time>
      </trkpt>
      <trkpt lat="44.0568" lon="5.23677">
        <ele>298</ele>
        <time>2020-07-11T06:40:15.590Z</time>
      </trkpt>
      <trkpt lat="44.05678" lon="5.2368">
        <ele>298</ele>
        <time>2020-07-11T06:40:16.589Z</time>
      </trkpt>
      <trkpt lat="44.05675" lon="5.23683">
        <ele>298</ele>
        <time>2020-07-11T06:40:17.589Z</time>
      </trkpt>
      <trkpt lat="44.05673" lon="5.23686">
        <ele>298</ele>
        <time>2020-07-11T06:40:18.589Z</time>
      </trkpt>
      <trkpt lat="44.0567" lon="5.23688">
        <ele>298</ele>
        <time>2020-07-11T06:40:19.590Z</time>
      </trkpt>
      <trkpt lat="44.05667" lon="5.2369">
        <ele>299</ele>
        <time>2020-07-11T06:40:20.590Z</time>
      </trkpt>
      <trkpt lat="44.05663" lon="5.2369">
        <ele>299</ele>
        <time>2020-07-11T06:40:21.590Z</time>
      </trkpt>
      <trkpt lat="44.05659" lon="5.2369">
        <ele>299</ele>
        <time>2020-07-11T06:40:22.589Z</time>
      </trkpt>
      <trkpt lat="44.05656" lon="5.2369">
        <ele>300</ele>
        <time>2020-07-11T06:40:23.589Z</time>
      </trkpt>
      <trkpt lat="44.05652" lon="5.23691">
        <ele>300</ele>
        <time>2020-07-11T06:40:24.589Z</time>
      </trkpt>
      <trkpt lat="44.05647" lon="5.23691">
        <ele>300</ele>
        <time>2020-07-11T06:40:25.589Z</time>
      </trkpt>
      <trkpt lat="44.05643" lon="5.23692">
        <ele>300</ele>
        <time>2020-07-11T06:40:26.590Z</time>
      </trkpt>
      <trkpt lat="44.05638" lon="5.23693">
        <ele>300</ele>
        <time>2020-07-11T06:40:27.589Z</time>
      </trkpt>
      <trkpt lat="44.05633" lon="5.23694">
        <ele>301</ele>
        <time>2020-07-11T06:40:28.590Z</time>
      </trkpt>
      <trkpt lat="44.05629" lon="5.23696">
        <ele>301</ele>
        <time>2020-07-11T06:40:29.589Z</time>
      </trkpt>
      <trkpt lat="44.05625" lon="5.23697">
        <ele>301</ele>
        <time>2020-07-11T06:40:30.589Z</time>
      </trkpt>
      <trkpt lat="44.05621" lon="5.23698">
        <ele>300</ele>
        <time>2020-07-11T06:40:31.589Z</time>
      </trkpt>
      <trkpt lat="44.05617" lon="5.237">
        <ele>300</ele>
        <time>2020-07-11T06:40:32.590Z</time>
      </trkpt>
      <trkpt lat="44.05612" lon="5.23701">
        <ele>301</ele>
        <time>2020-07-11T06:40:33.590Z</time>
      </trkpt>
      <trkpt lat="44.05608" lon="5.23703">
        <ele>301</ele>
        <time>2020-07-11T06:40:34.590Z</time>
      </trkpt>
      <trkpt lat="44.05604" lon="5.23704">
        <ele>301</ele>
        <time>2020-07-11T06:40:35.589Z</time>
      </trkpt>
      <trkpt lat="44.05599" lon="5.23705">
        <ele>301</ele>
        <time>2020-07-11T06:40:36.589Z</time>
      </trkpt>
      <trkpt lat="44.05595" lon="5.23707">
        <ele>301</ele>
        <time>2020-07-11T06:40:37.589Z</time>
      </trkpt>
      <trkpt lat="44.05591" lon="5.23709">
        <ele>301</ele>
        <time>2020-07-11T06:40:38.589Z</time>
      </trkpt>
      <trkpt lat="44.05587" lon="5.2371">
        <ele>302</ele>
        <time>2020-07-11T06:40:39.589Z</time>
      </trkpt>
      <trkpt lat="44.05583" lon="5.23712">
        <ele>302</ele>
        <time>2020-07-11T06:40:40.590Z</time>
      </trkpt>
      <trkpt lat="44.0558" lon="5.23714">
        <ele>302</ele>
        <time>2020-07-11T06:40:41.589Z</time>
      </trkpt>
      <trkpt lat="44.05576" lon="5.23715">
        <ele>302</ele>
        <time>2020-07-11T06:40:42.590Z</time>
      </trkpt>
      <trkpt lat="44.05572" lon="5.23716">
        <ele>302</ele>
        <time>2020-07-11T06:40:43.589Z</time>
      </trkpt>
      <trkpt lat="44.05569" lon="5.23717">
        <ele>302</ele>
        <time>2020-07-11T06:40:44.590Z</time>
      </trkpt>
      <trkpt lat="44.05565" lon="5.23718">
        <ele>303</ele>
        <time>2020-07-11T06:40:45.590Z</time>
      </trkpt>
      <trkpt lat="44.05562" lon="5.2372">
        <ele>303</ele>
        <time>2020-07-11T06:40:46.590Z</time>
      </trkpt>
      <trkpt lat="44.05559" lon="5.23721">
        <ele>304</ele>
        <time>2020-07-11T06:40:47.589Z</time>
      </trkpt>
      <trkpt lat="44.05556" lon="5.23723">
        <ele>304</ele>
        <time>2020-07-11T06:40:48.589Z</time>
      </trkpt>
      <trkpt lat="44.05552" lon="5.23724">
        <ele>304</ele>
        <time>2020-07-11T06:40:49.589Z</time>
      </trkpt>
      <trkpt lat="44.0555" lon="5.23726">
        <ele>304</ele>
        <time>2020-07-11T06:40:50.589Z</time>
      </trkpt>
      <trkpt lat="44.05546" lon="5.23727">
        <ele>304</ele>
        <time>2020-07-11T06:40:51.590Z</time>
      </trkpt>
      <trkpt lat="44.05543" lon="5.23729">
        <ele>305</ele>
        <time>2020-07-11T06:40:52.589Z</time>
      </trkpt>
      <trkpt lat="44.0554" lon="5.2373">
        <ele>305</ele>
        <time>2020-07-11T06:40:53.590Z</time>
      </trkpt>
      <trkpt lat="44.05537" lon="5.23731">
        <ele>305</ele>
        <time>2020-07-11T06:40:54.589Z</time>
      </trkpt>
      <trkpt lat="44.05534" lon="5.23732">
        <ele>305</ele>
        <time>2020-07-11T06:40:55.589Z</time>
      </trkpt>
      <trkpt lat="44.0553" lon="5.23733">
        <ele>306</ele>
        <time>2020-07-11T06:40:56.590Z</time>
      </trkpt>
      <trkpt lat="44.05526" lon="5.23733">
        <ele>306</ele>
        <time>2020-07-11T06:40:57.589Z</time>
      </trkpt>
      <trkpt lat="44.05522" lon="5.23734">
        <ele>306</ele>
        <time>2020-07-11T06:40:58.590Z</time>
      </trkpt>
      <trkpt lat="44.05518" lon="5.23734">
        <ele>306</ele>
        <time>2020-07-11T06:40:59.590Z</time>
      </trkpt>
      <trkpt lat="44.05515" lon="5.23735">
        <ele>306</ele>
        <time>2020-07-11T06:41:00.590Z</time>
      </trkpt>
      <trkpt lat="44.05511" lon="5.23735">
        <ele>306</ele>
        <time>2020-07-11T06:41:01.589Z</time>
      </trkpt>
      <trkpt lat="44.05508" lon="5.23735">
        <ele>306</ele>
        <time>2020-07-11T06:41:02.589Z</time>
      </trkpt>
      <trkpt lat="44.05504" lon="5.23735">
        <ele>306</ele>
        <time>2020-07-11T06:41:03.589Z</time>
      </trkpt>
      <trkpt lat="44.055" lon="5.23735">
        <ele>306</ele>
        <time>2020-07-11T06:41:04.590Z</time>
      </trkpt>
      <trkpt lat="44.05497" lon="5.23735">
        <ele>306</ele>
        <time>2020-07-11T06:41:05.589Z</time>
      </trkpt>
      <trkpt lat="44.05493" lon="5.23735">
        <ele>306</ele>
        <time>2020-07-11T06:41:06.590Z</time>
      </trkpt>
      <trkpt lat="44.0549" lon="5.23736">
        <ele>307</ele>
        <time>2020-07-11T06:41:07.590Z</time>
      </trkpt>
      <trkpt lat="44.05486" lon="5.23737">
        <ele>307</ele>
        <time>2020-07-11T06:41:08.589Z</time>
      </trkpt>
      <trkpt lat="44.05483" lon="5.23738">
        <ele>307</ele>
        <time>2020-07-11T06:41:09.590Z</time>
      </trkpt>
      <trkpt lat="44.0548" lon="5.2374">
        <ele>307</ele>
        <time>2020-07-11T06:41:10.589Z</time>
      </trkpt>
      <trkpt lat="44.05476" lon="5.23742">
        <ele>307</ele>
        <time>2020-07-11T06:41:11.589Z</time>
      </trkpt>
      <trkpt lat="44.05473" lon="5.23744">
        <ele>307</ele>
        <time>2020-07-11T06:41:12.589Z</time>
      </trkpt>
      <trkpt lat="44.05471" lon="5.23746">
        <ele>307</ele>
        <time>2020-07-11T06:41:13.590Z</time>
      </trkpt>
      <trkpt lat="44.05468" lon="5.23749">
        <ele>307</ele>
        <time>2020-07-11T06:41:14.590Z</time>
      </trkpt>
      <trkpt lat="44.05465" lon="5.23752">
        <ele>308</ele>
        <time>2020-07-11T06:41:15.590Z</time>
      </trkpt>
      <trkpt lat="44.05463" lon="5.23755">
        <ele>308</ele>
        <time>2020-07-11T06:41:16.590Z</time>
      </trkpt>
      <trkpt lat="44.05461" lon="5.23758">
        <ele>308</ele>
        <time>2020-07-11T06:41:17.589Z</time>
      </trkpt>
      <trkpt lat="44.05458" lon="5.23762">
        <ele>309</ele>
        <time>2020-07-11T06:41:18.590Z</time>
      </trkpt>
      <trkpt lat="44.05455" lon="5.23766">
        <ele>309</ele>
        <time>2020-07-11T06:41:19.589Z</time>
      </trkpt>
      <trkpt lat="44.05453" lon="5.23769">
        <ele>309</ele>
        <time>2020-07-11T06:41:20.589Z</time>
      </trkpt>
      <trkpt lat="44.05451" lon="5.23773">
        <ele>309</ele>
        <time>2020-07-11T06:41:21.590Z</time>
      </trkpt>
      <trkpt lat="44.05449" lon="5.23777">
        <ele>309</ele>
        <time>2020-07-11T06:41:22.590Z</time>
      </trkpt>
      <trkpt lat="44.05447" lon="5.2378">
        <ele>309</ele>
        <time>2020-07-11T06:41:23.590Z</time>
      </trkpt>
      <trkpt lat="44.05444" lon="5.23783">
        <ele>309</ele>
        <time>2020-07-11T06:41:24.590Z</time>
      </trkpt>
      <trkpt lat="44.05442" lon="5.23787">
        <ele>308</ele>
        <time>2020-07-11T06:41:25.589Z</time>
      </trkpt>
      <trkpt lat="44.0544" lon="5.2379">
        <ele>308</ele>
        <time>2020-07-11T06:41:26.590Z</time>
      </trkpt>
      <trkpt lat="44.05437" lon="5.23794">
        <ele>308</ele>
        <time>2020-07-11T06:41:27.589Z</time>
      </trkpt>
      <trkpt lat="44.05435" lon="5.23797">
        <ele>307</ele>
        <time>2020-07-11T06:41:28.589Z</time>
      </trkpt>
      <trkpt lat="44.05432" lon="5.23801">
        <ele>307</ele>
        <time>2020-07-11T06:41:29.590Z</time>
      </trkpt>
      <trkpt lat="44.0543" lon="5.23804">
        <ele>307</ele>
        <time>2020-07-11T06:41:30.589Z</time>
      </trkpt>
      <trkpt lat="44.05427" lon="5.23807">
        <ele>306</ele>
        <time>2020-07-11T06:41:31.590Z</time>
      </trkpt>
      <trkpt lat="44.05425" lon="5.2381">
        <ele>306</ele>
        <time>2020-07-11T06:41:32.590Z</time>
      </trkpt>
      <trkpt lat="44.05422" lon="5.23813">
        <ele>306</ele>
        <time>2020-07-11T06:41:33.589Z</time>
      </trkpt>
      <trkpt lat="44.05419" lon="5.23815">
        <ele>307</ele>
        <time>2020-07-11T06:41:34.589Z</time>
      </trkpt>
      <trkpt lat="44.05416" lon="5.23818">
        <ele>307</ele>
        <time>2020-07-11T06:41:35.590Z</time>
      </trkpt>
      <trkpt lat="44.05414" lon="5.2382">
        <ele>308</ele>
        <time>2020-07-11T06:41:36.589Z</time>
      </trkpt>
      <trkpt lat="44.05411" lon="5.23823">
        <ele>308</ele>
        <time>2020-07-11T06:41:37.589Z</time>
      </trkpt>
      <trkpt lat="44.05408" lon="5.23826">
        <ele>309</ele>
        <time>2020-07-11T06:41:38.590Z</time>
      </trkpt>
      <trkpt lat="44.05405" lon="5.23828">
        <ele>310</ele>
        <time>2020-07-11T06:41:39.589Z</time>
      </trkpt>
      <trkpt lat="44.05402" lon="5.2383">
        <ele>310</ele>
        <time>2020-07-11T06:41:40.589Z</time>
      </trkpt>
      <trkpt lat="44.05399" lon="5.23833">
        <ele>310</ele>
        <time>2020-07-11T06:41:41.589Z</time>
      </trkpt>
      <trkpt lat="44.05396" lon="5.23836">
        <ele>310</ele>
        <time>2020-07-11T06:41:42.590Z</time>
      </trkpt>
      <trkpt lat="44.05394" lon="5.23839">
        <ele>311</ele>
        <time>2020-07-11T06:41:43.589Z</time>
      </trkpt>
      <trkpt lat="44.05391" lon="5.23843">
        <ele>311</ele>
        <time>2020-07-11T06:41:44.589Z</time>
      </trkpt>
      <trkpt lat="44.05389" lon="5.23846">
        <ele>311</ele>
        <time>2020-07-11T06:41:45.590Z</time>
      </trkpt>
      <trkpt lat="44.05386" lon="5.2385">
        <ele>311</ele>
        <time>2020-07-11T06:41:46.589Z</time>
      </trkpt>
      <trkpt lat="44.05384" lon="5.23853">
        <ele>311</ele>
        <time>2020-07-11T06:41:47.589Z</time>
      </trkpt>
      <trkpt lat="44.05382" lon="5.23857">
        <ele>311</ele>
        <time>2020-07-11T06:41:48.590Z</time>
      </trkpt>
      <trkpt lat="44.0538" lon="5.23862">
        <ele>311</ele>
        <time>2020-07-11T06:41:49.590Z</time>
      </trkpt>
      <trkpt lat="44.05379" lon="5.23866">
        <ele>312</ele>
        <time>2020-07-11T06:41:50.589Z</time>
      </trkpt>
      <trkpt lat="44.05378" lon="5.23871">
        <ele>312</ele>
        <time>2020-07-11T06:41:51.589Z</time>
      </trkpt>
      <trkpt lat="44.05377" lon="5.23875">
        <ele>311</ele>
        <time>2020-07-11T06:41:52.589Z</time>
      </trkpt>
      <trkpt lat="44.05377" lon="5.23879">
        <ele>311</ele>
        <time>2020-07-11T06:41:53.589Z</time>
      </trkpt>
      <trkpt lat="44.05377" lon="5.23884">
        <ele>311</ele>
        <time>2020-07-11T06:41:54.589Z</time>
      </trkpt>
      <trkpt lat="44.05378" lon="5.23888">
        <ele>311</ele>
        <time>2020-07-11T06:41:55.590Z</time>
      </trkpt>
      <trkpt lat="44.05378" lon="5.23891">
        <ele>311</ele>
        <time>2020-07-11T06:41:56.589Z</time>
      </trkpt>
      <trkpt lat="44.05378" lon="5.23895">
        <ele>311</ele>
        <time>2020-07-11T06:41:57.589Z</time>
      </trkpt>
      <trkpt lat="44.05379" lon="5.23899">
        <ele>312</ele>
        <time>2020-07-11T06:41:58.590Z</time>
      </trkpt>
      <trkpt lat="44.0538" lon="5.23903">
        <ele>312</ele>
        <time>2020-07-11T06:41:59.590Z</time>
      </trkpt>
      <trkpt lat="44.05381" lon="5.23908">
        <ele>312</ele>
        <time>2020-07-11T06:42:00.589Z</time>
      </trkpt>
      <trkpt lat="44.05382" lon="5.23912">
        <ele>312</ele>
        <time>2020-07-11T06:42:01.589Z</time>
      </trkpt>
      <trkpt lat="44.05383" lon="5.23917">
        <ele>312</ele>
        <time>2020-07-11T06:42:02.589Z</time>
      </trkpt>
      <trkpt lat="44.05383" lon="5.23922">
        <ele>312</ele>
        <time>2020-07-11T06:42:03.590Z</time>
      </trkpt>
      <trkpt lat="44.05384" lon="5.23928">
        <ele>312</ele>
        <time>2020-07-11T06:42:04.590Z</time>
      </trkpt>
      <trkpt lat="44.05384" lon="5.23933">
        <ele>313</ele>
        <time>2020-07-11T06:42:05.590Z</time>
      </trkpt>
      <trkpt lat="44.05384" lon="5.23938">
        <ele>313</ele>
        <time>2020-07-11T06:42:06.589Z</time>
      </trkpt>
      <trkpt lat="44.05384" lon="5.23943">
        <ele>313</ele>
        <time>2020-07-11T06:42:07.589Z</time>
      </trkpt>
      <trkpt lat="44.05384" lon="5.23948">
        <ele>313</ele>
        <time>2020-07-11T06:42:08.589Z</time>
      </trkpt>
      <trkpt lat="44.05383" lon="5.23954">
        <ele>313</ele>
        <time>2020-07-11T06:42:09.589Z</time>
      </trkpt>
      <trkpt lat="44.05383" lon="5.23958">
        <ele>313</ele>
        <time>2020-07-11T06:42:10.589Z</time>
      </trkpt>
      <trkpt lat="44.05382" lon="5.23963">
        <ele>314</ele>
        <time>2020-07-11T06:42:11.589Z</time>
      </trkpt>
      <trkpt lat="44.05382" lon="5.23968">
        <ele>314</ele>
        <time>2020-07-11T06:42:12.589Z</time>
      </trkpt>
      <trkpt lat="44.05381" lon="5.23973">
        <ele>314</ele>
        <time>2020-07-11T06:42:13.589Z</time>
      </trkpt>
      <trkpt lat="44.05381" lon="5.23978">
        <ele>314</ele>
        <time>2020-07-11T06:42:14.590Z</time>
      </trkpt>
      <trkpt lat="44.0538" lon="5.23983">
        <ele>314</ele>
        <time>2020-07-11T06:42:15.589Z</time>
      </trkpt>
      <trkpt lat="44.05379" lon="5.23988">
        <ele>314</ele>
        <time>2020-07-11T06:42:16.589Z</time>
      </trkpt>
      <trkpt lat="44.05379" lon="5.23992">
        <ele>314</ele>
        <time>2020-07-11T06:42:17.589Z</time>
      </trkpt>
      <trkpt lat="44.05378" lon="5.23997">
        <ele>314</ele>
        <time>2020-07-11T06:42:18.589Z</time>
      </trkpt>
      <trkpt lat="44.05377" lon="5.24001">
        <ele>314</ele>
        <time>2020-07-11T06:42:19.590Z</time>
      </trkpt>
      <trkpt lat="44.05376" lon="5.24006">
        <ele>314</ele>
        <time>2020-07-11T06:42:20.589Z</time>
      </trkpt>
      <trkpt lat="44.05375" lon="5.2401">
        <ele>314</ele>
        <time>2020-07-11T06:42:21.590Z</time>
      </trkpt>
      <trkpt lat="44.05374" lon="5.24014">
        <ele>314</ele>
        <time>2020-07-11T06:42:22.589Z</time>
      </trkpt>
      <trkpt lat="44.05373" lon="5.24019">
        <ele>314</ele>
        <time>2020-07-11T06:42:23.590Z</time>
      </trkpt>
      <trkpt lat="44.05371" lon="5.24023">
        <ele>315</ele>
        <time>2020-07-11T06:42:24.590Z</time>
      </trkpt>
      <trkpt lat="44.0537" lon="5.24028">
        <ele>315</ele>
        <time>2020-07-11T06:42:25.590Z</time>
      </trkpt>
      <trkpt lat="44.05368" lon="5.24032">
        <ele>315</ele>
        <time>2020-07-11T06:42:26.590Z</time>
      </trkpt>
      <trkpt lat="44.05367" lon="5.24036">
        <ele>315</ele>
        <time>2020-07-11T06:42:27.589Z</time>
      </trkpt>
      <trkpt lat="44.05365" lon="5.2404">
        <ele>315</ele>
        <time>2020-07-11T06:42:28.590Z</time>
      </trkpt>
      <trkpt lat="44.05363" lon="5.24044">
        <ele>315</ele>
        <time>2020-07-11T06:42:29.590Z</time>
      </trkpt>
      <trkpt lat="44.05361" lon="5.24048">
        <ele>315</ele>
        <time>2020-07-11T06:42:30.590Z</time>
      </trkpt>
      <trkpt lat="44.05359" lon="5.24052">
        <ele>315</ele>
        <time>2020-07-11T06:42:31.590Z</time>
      </trkpt>
      <trkpt lat="44.05357" lon="5.24056">
        <ele>315</ele>
        <time>2020-07-11T06:42:32.590Z</time>
      </trkpt>
      <trkpt lat="44.05355" lon="5.2406">
        <ele>316</ele>
        <time>2020-07-11T06:42:33.589Z</time>
      </trkpt>
      <trkpt lat="44.05353" lon="5.24063">
        <ele>316</ele>
        <time>2020-07-11T06:42:34.589Z</time>
      </trkpt>
      <trkpt lat="44.0535" lon="5.24067">
        <ele>316</ele>
        <time>2020-07-11T06:42:35.589Z</time>
      </trkpt>
      <trkpt lat="44.05348" lon="5.24071">
        <ele>317</ele>
        <time>2020-07-11T06:42:36.589Z</time>
      </trkpt>
      <trkpt lat="44.05347" lon="5.24075">
        <ele>317</ele>
        <time>2020-07-11T06:42:37.589Z</time>
      </trkpt>
      <trkpt lat="44.05345" lon="5.24079">
        <ele>317</ele>
        <time>2020-07-11T06:42:38.589Z</time>
      </trkpt>
      <trkpt lat="44.05344" lon="5.24082">
        <ele>318</ele>
        <time>2020-07-11T06:42:39.590Z</time>
      </trkpt>
      <trkpt lat="44.05342" lon="5.24086">
        <ele>318</ele>
        <time>2020-07-11T06:42:40.590Z</time>
      </trkpt>
      <trkpt lat="44.05341" lon="5.24089">
        <ele>318</ele>
        <time>2020-07-11T06:42:41.589Z</time>
      </trkpt>
      <trkpt lat="44.05341" lon="5.24093">
        <ele>318</ele>
        <time>2020-07-11T06:42:42.589Z</time>
      </trkpt>
      <trkpt lat="44.0534" lon="5.24095">
        <ele>319</ele>
        <time>2020-07-11T06:42:43.589Z</time>
      </trkpt>
      <trkpt lat="44.05339" lon="5.24097">
        <ele>319</ele>
        <time>2020-07-11T06:42:44.590Z</time>
      </trkpt>
      <trkpt lat="44.05339" lon="5.24098">
        <ele>318</ele>
        <time>2020-07-11T06:42:45.590Z</time>
      </trkpt>
      <trkpt lat="44.05339" lon="5.24098">
        <ele>317</ele>
        <time>2020-07-11T06:42:46.590Z</time>
      </trkpt>
      <trkpt lat="44.05339" lon="5.24098">
        <ele>317</ele>
        <time>2020-07-11T06:42:47.589Z</time>
      </trkpt>
      <trkpt lat="44.05344" lon="5.24102">
        <ele>320</ele>
        <time>2020-07-11T06:42:48.590Z</time>
      </trkpt>
      <trkpt lat="44.05345" lon="5.24106">
        <ele>320</ele>
        <time>2020-07-11T06:42:49.589Z</time>
      </trkpt>
      <trkpt lat="44.05346" lon="5.24109">
        <ele>319</ele>
        <time>2020-07-11T06:42:50.590Z</time>
      </trkpt>
      <trkpt lat="44.05347" lon="5.24112">
        <ele>319</ele>
        <time>2020-07-11T06:42:51.590Z</time>
      </trkpt>
      <trkpt lat="44.05348" lon="5.24116">
        <ele>318</ele>
        <time>2020-07-11T06:42:52.590Z</time>
      </trkpt>
      <trkpt lat="44.05349" lon="5.2412">
        <ele>318</ele>
        <time>2020-07-11T06:42:53.589Z</time>
      </trkpt>
      <trkpt lat="44.05351" lon="5.24125">
        <ele>318</ele>
        <time>2020-07-11T06:42:54.589Z</time>
      </trkpt>
      <trkpt lat="44.05353" lon="5.24129">
        <ele>318</ele>
        <time>2020-07-11T06:42:55.590Z</time>
      </trkpt>
      <trkpt lat="44.05354" lon="5.24133">
        <ele>317</ele>
        <time>2020-07-11T06:42:56.589Z</time>
      </trkpt>
      <trkpt lat="44.05356" lon="5.24137">
        <ele>317</ele>
        <time>2020-07-11T06:42:57.589Z</time>
      </trkpt>
      <trkpt lat="44.05359" lon="5.24141">
        <ele>317</ele>
        <time>2020-07-11T06:42:58.590Z</time>
      </trkpt>
      <trkpt lat="44.0536" lon="5.24144">
        <ele>316</ele>
        <time>2020-07-11T06:42:59.590Z</time>
      </trkpt>
      <trkpt lat="44.05362" lon="5.24147">
        <ele>316</ele>
        <time>2020-07-11T06:43:00.589Z</time>
      </trkpt>
      <trkpt lat="44.05364" lon="5.2415">
        <ele>316</ele>
        <time>2020-07-11T06:43:01.589Z</time>
      </trkpt>
      <trkpt lat="44.05367" lon="5.24153">
        <ele>316</ele>
        <time>2020-07-11T06:43:02.590Z</time>
      </trkpt>
      <trkpt lat="44.05368" lon="5.24155">
        <ele>316</ele>
        <time>2020-07-11T06:43:03.590Z</time>
      </trkpt>
      <trkpt lat="44.0537" lon="5.24158">
        <ele>316</ele>
        <time>2020-07-11T06:43:04.590Z</time>
      </trkpt>
      <trkpt lat="44.05372" lon="5.2416">
        <ele>316</ele>
        <time>2020-07-11T06:43:05.590Z</time>
      </trkpt>
      <trkpt lat="44.05374" lon="5.24163">
        <ele>317</ele>
        <time>2020-07-11T06:43:06.590Z</time>
      </trkpt>
      <trkpt lat="44.05376" lon="5.24166">
        <ele>317</ele>
        <time>2020-07-11T06:43:07.590Z</time>
      </trkpt>
      <trkpt lat="44.05379" lon="5.24169">
        <ele>317</ele>
        <time>2020-07-11T06:43:08.590Z</time>
      </trkpt>
      <trkpt lat="44.05382" lon="5.24171">
        <ele>317</ele>
        <time>2020-07-11T06:43:09.590Z</time>
      </trkpt>
      <trkpt lat="44.05384" lon="5.24173">
        <ele>317</ele>
        <time>2020-07-11T06:43:10.590Z</time>
      </trkpt>
      <trkpt lat="44.05387" lon="5.24176">
        <ele>317</ele>
        <time>2020-07-11T06:43:11.590Z</time>
      </trkpt>
      <trkpt lat="44.05389" lon="5.24178">
        <ele>317</ele>
        <time>2020-07-11T06:43:12.590Z</time>
      </trkpt>
      <trkpt lat="44.05391" lon="5.24181">
        <ele>317</ele>
        <time>2020-07-11T06:43:13.589Z</time>
      </trkpt>
      <trkpt lat="44.05394" lon="5.24183">
        <ele>317</ele>
        <time>2020-07-11T06:43:14.590Z</time>
      </trkpt>
      <trkpt lat="44.05396" lon="5.24185">
        <ele>317</ele>
        <time>2020-07-11T06:43:15.590Z</time>
      </trkpt>
      <trkpt lat="44.05399" lon="5.24187">
        <ele>317</ele>
        <time>2020-07-11T06:43:16.589Z</time>
      </trkpt>
      <trkpt lat="44.05402" lon="5.2419">
        <ele>317</ele>
        <time>2020-07-11T06:43:17.590Z</time>
      </trkpt>
      <trkpt lat="44.05405" lon="5.24192">
        <ele>318</ele>
        <time>2020-07-11T06:43:18.590Z</time>
      </trkpt>
      <trkpt lat="44.05408" lon="5.24194">
        <ele>318</ele>
        <time>2020-07-11T06:43:19.589Z</time>
      </trkpt>
      <trkpt lat="44.05412" lon="5.24196">
        <ele>318</ele>
        <time>2020-07-11T06:43:20.589Z</time>
      </trkpt>
      <trkpt lat="44.05415" lon="5.24199">
        <ele>318</ele>
        <time>2020-07-11T06:43:21.590Z</time>
      </trkpt>
      <trkpt lat="44.05418" lon="5.24201">
        <ele>318</ele>
        <time>2020-07-11T06:43:22.590Z</time>
      </trkpt>
      <trkpt lat="44.0542" lon="5.24203">
        <ele>319</ele>
        <time>2020-07-11T06:43:23.590Z</time>
      </trkpt>
      <trkpt lat="44.05423" lon="5.24206">
        <ele>319</ele>
        <time>2020-07-11T06:43:24.590Z</time>
      </trkpt>
      <trkpt lat="44.05425" lon="5.24209">
        <ele>319</ele>
        <time>2020-07-11T06:43:25.590Z</time>
      </trkpt>
      <trkpt lat="44.05427" lon="5.24212">
        <ele>319</ele>
        <time>2020-07-11T06:43:26.590Z</time>
      </trkpt>
      <trkpt lat="44.05429" lon="5.24215">
        <ele>320</ele>
        <time>2020-07-11T06:43:27.590Z</time>
      </trkpt>
      <trkpt lat="44.05432" lon="5.24219">
        <ele>320</ele>
        <time>2020-07-11T06:43:28.589Z</time>
      </trkpt>
      <trkpt lat="44.05433" lon="5.24224">
        <ele>320</ele>
        <time>2020-07-11T06:43:29.589Z</time>
      </trkpt>
      <trkpt lat="44.05435" lon="5.24227">
        <ele>320</ele>
        <time>2020-07-11T06:43:30.589Z</time>
      </trkpt>
      <trkpt lat="44.05437" lon="5.24232">
        <ele>320</ele>
        <time>2020-07-11T06:43:31.590Z</time>
      </trkpt>
      <trkpt lat="44.05439" lon="5.24236">
        <ele>321</ele>
        <time>2020-07-11T06:43:32.589Z</time>
      </trkpt>
      <trkpt lat="44.05441" lon="5.2424">
        <ele>321</ele>
        <time>2020-07-11T06:43:33.590Z</time>
      </trkpt>
      <trkpt lat="44.05442" lon="5.24245">
        <ele>321</ele>
        <time>2020-07-11T06:43:34.589Z</time>
      </trkpt>
      <trkpt lat="44.05444" lon="5.24249">
        <ele>321</ele>
        <time>2020-07-11T06:43:35.590Z</time>
      </trkpt>
      <trkpt lat="44.05445" lon="5.24254">
        <ele>321</ele>
        <time>2020-07-11T06:43:36.590Z</time>
      </trkpt>
      <trkpt lat="44.05447" lon="5.24258">
        <ele>321</ele>
        <time>2020-07-11T06:43:37.590Z</time>
      </trkpt>
      <trkpt lat="44.05448" lon="5.24263">
        <ele>322</ele>
        <time>2020-07-11T06:43:38.590Z</time>
      </trkpt>
      <trkpt lat="44.05449" lon="5.24267">
        <ele>322</ele>
        <time>2020-07-11T06:43:39.590Z</time>
      </trkpt>
      <trkpt lat="44.05451" lon="5.24272">
        <ele>322</ele>
        <time>2020-07-11T06:43:40.589Z</time>
      </trkpt>
      <trkpt lat="44.05452" lon="5.24276">
        <ele>322</ele>
        <time>2020-07-11T06:43:41.590Z</time>
      </trkpt>
      <trkpt lat="44.05454" lon="5.2428">
        <ele>322</ele>
        <time>2020-07-11T06:43:42.590Z</time>
      </trkpt>
      <trkpt lat="44.05455" lon="5.24285">
        <ele>322</ele>
        <time>2020-07-11T06:43:43.590Z</time>
      </trkpt>
      <trkpt lat="44.05457" lon="5.24289">
        <ele>322</ele>
        <time>2020-07-11T06:43:44.590Z</time>
      </trkpt>
      <trkpt lat="44.05458" lon="5.24293">
        <ele>322</ele>
        <time>2020-07-11T06:43:45.589Z</time>
      </trkpt>
      <trkpt lat="44.05459" lon="5.24297">
        <ele>322</ele>
        <time>2020-07-11T06:43:46.590Z</time>
      </trkpt>
      <trkpt lat="44.05461" lon="5.24301">
        <ele>323</ele>
        <time>2020-07-11T06:43:47.589Z</time>
      </trkpt>
      <trkpt lat="44.05462" lon="5.24305">
        <ele>323</ele>
        <time>2020-07-11T06:43:48.590Z</time>
      </trkpt>
      <trkpt lat="44.05464" lon="5.2431">
        <ele>323</ele>
        <time>2020-07-11T06:43:49.589Z</time>
      </trkpt>
      <trkpt lat="44.05465" lon="5.24314">
        <ele>323</ele>
        <time>2020-07-11T06:43:50.589Z</time>
      </trkpt>
      <trkpt lat="44.05466" lon="5.24318">
        <ele>324</ele>
        <time>2020-07-11T06:43:51.590Z</time>
      </trkpt>
      <trkpt lat="44.05467" lon="5.24321">
        <ele>324</ele>
        <time>2020-07-11T06:43:52.590Z</time>
      </trkpt>
      <trkpt lat="44.05469" lon="5.24325">
        <ele>325</ele>
        <time>2020-07-11T06:43:53.589Z</time>
      </trkpt>
      <trkpt lat="44.0547" lon="5.24328">
        <ele>325</ele>
        <time>2020-07-11T06:43:54.590Z</time>
      </trkpt>
      <trkpt lat="44.05471" lon="5.24332">
        <ele>325</ele>
        <time>2020-07-11T06:43:55.589Z</time>
      </trkpt>
      <trkpt lat="44.05473" lon="5.24335">
        <ele>326</ele>
        <time>2020-07-11T06:43:56.590Z</time>
      </trkpt>
      <trkpt lat="44.05474" lon="5.24338">
        <ele>326</ele>
        <time>2020-07-11T06:43:57.590Z</time>
      </trkpt>
      <trkpt lat="44.05475" lon="5.24341">
        <ele>326</ele>
        <time>2020-07-11T06:43:58.590Z</time>
      </trkpt>
      <trkpt lat="44.05475" lon="5.24343">
        <ele>326</ele>
        <time>2020-07-11T06:43:59.589Z</time>
      </trkpt>
      <trkpt lat="44.05475" lon="5.24345">
        <ele>327</ele>
        <time>2020-07-11T06:44:00.590Z</time>
      </trkpt>
      <trkpt lat="44.05475" lon="5.24346">
        <ele>327</ele>
        <time>2020-07-11T06:44:01.590Z</time>
      </trkpt>
      <trkpt lat="44.05475" lon="5.24346">
        <ele>328</ele>
        <time>2020-07-11T06:44:02.590Z</time>
      </trkpt>
      <trkpt lat="44.05475" lon="5.24346">
        <ele>329</ele>
        <time>2020-07-11T06:44:03.590Z</time>
      </trkpt>
      <trkpt lat="44.05475" lon="5.24346">
        <ele>331</ele>
        <time>2020-07-11T06:44:04.591Z</time>
      </trkpt>
      <trkpt lat="44.05476" lon="5.24348">
        <ele>331</ele>
        <time>2020-07-11T06:44:05.590Z</time>
      </trkpt>
      <trkpt lat="44.05477" lon="5.24351">
        <ele>331</ele>
        <time>2020-07-11T06:44:06.590Z</time>
      </trkpt>
      <trkpt lat="44.05478" lon="5.24353">
        <ele>331</ele>
        <time>2020-07-11T06:44:07.590Z</time>
      </trkpt>
      <trkpt lat="44.05479" lon="5.24357">
        <ele>331</ele>
        <time>2020-07-11T06:44:08.590Z</time>
      </trkpt>
      <trkpt lat="44.05481" lon="5.2436">
        <ele>331</ele>
        <time>2020-07-11T06:44:09.591Z</time>
      </trkpt>
      <trkpt lat="44.05482" lon="5.24364">
        <ele>331</ele>
        <time>2020-07-11T06:44:10.591Z</time>
      </trkpt>
      <trkpt lat="44.05484" lon="5.24368">
        <ele>331</ele>
        <time>2020-07-11T06:44:11.590Z</time>
      </trkpt>
      <trkpt lat="44.05486" lon="5.24373">
        <ele>331</ele>
        <time>2020-07-11T06:44:12.590Z</time>
      </trkpt>
      <trkpt lat="44.05488" lon="5.24376">
        <ele>331</ele>
        <time>2020-07-11T06:44:13.591Z</time>
      </trkpt>
      <trkpt lat="44.05491" lon="5.2438">
        <ele>331</ele>
        <time>2020-07-11T06:44:14.591Z</time>
      </trkpt>
      <trkpt lat="44.05494" lon="5.24383">
        <ele>331</ele>
        <time>2020-07-11T06:44:15.591Z</time>
      </trkpt>
      <trkpt lat="44.05496" lon="5.24385">
        <ele>330</ele>
        <time>2020-07-11T06:44:16.591Z</time>
      </trkpt>
      <trkpt lat="44.05499" lon="5.24388">
        <ele>330</ele>
        <time>2020-07-11T06:44:17.591Z</time>
      </trkpt>
      <trkpt lat="44.05502" lon="5.2439">
        <ele>330</ele>
        <time>2020-07-11T06:44:18.591Z</time>
      </trkpt>
      <trkpt lat="44.05506" lon="5.24393">
        <ele>330</ele>
        <time>2020-07-11T06:44:19.590Z</time>
      </trkpt>
      <trkpt lat="44.05509" lon="5.24395">
        <ele>330</ele>
        <time>2020-07-11T06:44:20.591Z</time>
      </trkpt>
      <trkpt lat="44.05512" lon="5.24396">
        <ele>329</ele>
        <time>2020-07-11T06:44:21.590Z</time>
      </trkpt>
      <trkpt lat="44.05515" lon="5.24398">
        <ele>329</ele>
        <time>2020-07-11T06:44:22.591Z</time>
      </trkpt>
      <trkpt lat="44.05519" lon="5.24401">
        <ele>329</ele>
        <time>2020-07-11T06:44:23.591Z</time>
      </trkpt>
      <trkpt lat="44.05522" lon="5.24403">
        <ele>329</ele>
        <time>2020-07-11T06:44:24.591Z</time>
      </trkpt>
      <trkpt lat="44.05526" lon="5.24405">
        <ele>329</ele>
        <time>2020-07-11T06:44:25.591Z</time>
      </trkpt>
      <trkpt lat="44.05529" lon="5.24407">
        <ele>330</ele>
        <time>2020-07-11T06:44:26.590Z</time>
      </trkpt>
      <trkpt lat="44.05533" lon="5.2441">
        <ele>330</ele>
        <time>2020-07-11T06:44:27.590Z</time>
      </trkpt>
      <trkpt lat="44.05536" lon="5.24412">
        <ele>329</ele>
        <time>2020-07-11T06:44:28.591Z</time>
      </trkpt>
      <trkpt lat="44.05539" lon="5.24414">
        <ele>329</ele>
        <time>2020-07-11T06:44:29.591Z</time>
      </trkpt>
      <trkpt lat="44.05543" lon="5.24417">
        <ele>329</ele>
        <time>2020-07-11T06:44:30.591Z</time>
      </trkpt>
      <trkpt lat="44.05546" lon="5.2442">
        <ele>329</ele>
        <time>2020-07-11T06:44:31.591Z</time>
      </trkpt>
      <trkpt lat="44.05549" lon="5.24423">
        <ele>330</ele>
        <time>2020-07-11T06:44:32.590Z</time>
      </trkpt>
      <trkpt lat="44.05552" lon="5.24426">
        <ele>330</ele>
        <time>2020-07-11T06:44:33.591Z</time>
      </trkpt>
      <trkpt lat="44.05554" lon="5.24429">
        <ele>329</ele>
        <time>2020-07-11T06:44:34.591Z</time>
      </trkpt>
      <trkpt lat="44.05557" lon="5.24433">
        <ele>330</ele>
        <time>2020-07-11T06:44:35.591Z</time>
      </trkpt>
      <trkpt lat="44.0556" lon="5.24436">
        <ele>330</ele>
        <time>2020-07-11T06:44:36.591Z</time>
      </trkpt>
      <trkpt lat="44.05562" lon="5.2444">
        <ele>330</ele>
        <time>2020-07-11T06:44:37.591Z</time>
      </trkpt>
      <trkpt lat="44.05565" lon="5.24444">
        <ele>330</ele>
        <time>2020-07-11T06:44:38.591Z</time>
      </trkpt>
      <trkpt lat="44.05567" lon="5.24448">
        <ele>329</ele>
        <time>2020-07-11T06:44:39.591Z</time>
      </trkpt>
      <trkpt lat="44.05569" lon="5.24452">
        <ele>329</ele>
        <time>2020-07-11T06:44:40.590Z</time>
      </trkpt>
      <trkpt lat="44.05571" lon="5.24456">
        <ele>329</ele>
        <time>2020-07-11T06:44:41.591Z</time>
      </trkpt>
      <trkpt lat="44.05572" lon="5.2446">
        <ele>329</ele>
        <time>2020-07-11T06:44:42.590Z</time>
      </trkpt>
      <trkpt lat="44.05573" lon="5.24464">
        <ele>330</ele>
        <time>2020-07-11T06:44:43.590Z</time>
      </trkpt>
      <trkpt lat="44.05575" lon="5.24469">
        <ele>330</ele>
        <time>2020-07-11T06:44:44.591Z</time>
      </trkpt>
      <trkpt lat="44.05577" lon="5.24473">
        <ele>331</ele>
        <time>2020-07-11T06:44:45.591Z</time>
      </trkpt>
      <trkpt lat="44.0558" lon="5.24478">
        <ele>331</ele>
        <time>2020-07-11T06:44:46.591Z</time>
      </trkpt>
      <trkpt lat="44.05582" lon="5.24483">
        <ele>331</ele>
        <time>2020-07-11T06:44:47.591Z</time>
      </trkpt>
      <trkpt lat="44.05584" lon="5.24487">
        <ele>331</ele>
        <time>2020-07-11T06:44:48.590Z</time>
      </trkpt>
      <trkpt lat="44.05586" lon="5.24492">
        <ele>331</ele>
        <time>2020-07-11T06:44:49.591Z</time>
      </trkpt>
      <trkpt lat="44.05588" lon="5.24496">
        <ele>332</ele>
        <time>2020-07-11T06:44:50.591Z</time>
      </trkpt>
      <trkpt lat="44.0559" lon="5.245">
        <ele>332</ele>
        <time>2020-07-11T06:44:51.591Z</time>
      </trkpt>
      <trkpt lat="44.05591" lon="5.24504">
        <ele>333</ele>
        <time>2020-07-11T06:44:52.591Z</time>
      </trkpt>
      <trkpt lat="44.05593" lon="5.24509">
        <ele>333</ele>
        <time>2020-07-11T06:44:53.591Z</time>
      </trkpt>
      <trkpt lat="44.05595" lon="5.24513">
        <ele>334</ele>
        <time>2020-07-11T06:44:54.590Z</time>
      </trkpt>
      <trkpt lat="44.05597" lon="5.24516">
        <ele>334</ele>
        <time>2020-07-11T06:44:55.591Z</time>
      </trkpt>
      <trkpt lat="44.05599" lon="5.2452">
        <ele>334</ele>
        <time>2020-07-11T06:44:56.591Z</time>
      </trkpt>
      <trkpt lat="44.05601" lon="5.24524">
        <ele>334</ele>
        <time>2020-07-11T06:44:57.591Z</time>
      </trkpt>
      <trkpt lat="44.05603" lon="5.24528">
        <ele>334</ele>
        <time>2020-07-11T06:44:58.591Z</time>
      </trkpt>
      <trkpt lat="44.05605" lon="5.24532">
        <ele>334</ele>
        <time>2020-07-11T06:44:59.590Z</time>
      </trkpt>
      <trkpt lat="44.05607" lon="5.24537">
        <ele>334</ele>
        <time>2020-07-11T06:45:00.590Z</time>
      </trkpt>
      <trkpt lat="44.05609" lon="5.24541">
        <ele>334</ele>
        <time>2020-07-11T06:45:01.591Z</time>
      </trkpt>
      <trkpt lat="44.05612" lon="5.24545">
        <ele>335</ele>
        <time>2020-07-11T06:45:02.590Z</time>
      </trkpt>
      <trkpt lat="44.05614" lon="5.24549">
        <ele>335</ele>
        <time>2020-07-11T06:45:03.591Z</time>
      </trkpt>
      <trkpt lat="44.05616" lon="5.24552">
        <ele>335</ele>
        <time>2020-07-11T06:45:04.590Z</time>
      </trkpt>
      <trkpt lat="44.05618" lon="5.24556">
        <ele>335</ele>
        <time>2020-07-11T06:45:05.590Z</time>
      </trkpt>
      <trkpt lat="44.0562" lon="5.2456">
        <ele>336</ele>
        <time>2020-07-11T06:45:06.591Z</time>
      </trkpt>
      <trkpt lat="44.05622" lon="5.24564">
        <ele>336</ele>
        <time>2020-07-11T06:45:07.591Z</time>
      </trkpt>
      <trkpt lat="44.05624" lon="5.24568">
        <ele>336</ele>
        <time>2020-07-11T06:45:08.591Z</time>
      </trkpt>
      <trkpt lat="44.05626" lon="5.24572">
        <ele>337</ele>
        <time>2020-07-11T06:45:09.591Z</time>
      </trkpt>
      <trkpt lat="44.05628" lon="5.24576">
        <ele>337</ele>
        <time>2020-07-11T06:45:10.591Z</time>
      </trkpt>
      <trkpt lat="44.05631" lon="5.24579">
        <ele>337</ele>
        <time>2020-07-11T06:45:11.590Z</time>
      </trkpt>
      <trkpt lat="44.05633" lon="5.24583">
        <ele>336</ele>
        <time>2020-07-11T06:45:12.590Z</time>
      </trkpt>
      <trkpt lat="44.05636" lon="5.24587">
        <ele>336</ele>
        <time>2020-07-11T06:45:13.591Z</time>
      </trkpt>
      <trkpt lat="44.05638" lon="5.24591">
        <ele>337</ele>
        <time>2020-07-11T06:45:14.591Z</time>
      </trkpt>
      <trkpt lat="44.0564" lon="5.24594">
        <ele>337</ele>
        <time>2020-07-11T06:45:15.590Z</time>
      </trkpt>
      <trkpt lat="44.05642" lon="5.24598">
        <ele>337</ele>
        <time>2020-07-11T06:45:16.591Z</time>
      </trkpt>
      <trkpt lat="44.05644" lon="5.24602">
        <ele>338</ele>
        <time>2020-07-11T06:45:17.590Z</time>
      </trkpt>
      <trkpt lat="44.05646" lon="5.24606">
        <ele>338</ele>
        <time>2020-07-11T06:45:18.591Z</time>
      </trkpt>
      <trkpt lat="44.05648" lon="5.2461">
        <ele>339</ele>
        <time>2020-07-11T06:45:19.591Z</time>
      </trkpt>
      <trkpt lat="44.0565" lon="5.24614">
        <ele>339</ele>
        <time>2020-07-11T06:45:20.591Z</time>
      </trkpt>
      <trkpt lat="44.05652" lon="5.24618">
        <ele>339</ele>
        <time>2020-07-11T06:45:21.590Z</time>
      </trkpt>
      <trkpt lat="44.05654" lon="5.24621">
        <ele>338</ele>
        <time>2020-07-11T06:45:22.590Z</time>
      </trkpt>
      <trkpt lat="44.05657" lon="5.24626">
        <ele>338</ele>
        <time>2020-07-11T06:45:23.591Z</time>
      </trkpt>
      <trkpt lat="44.05659" lon="5.2463">
        <ele>337</ele>
        <time>2020-07-11T06:45:24.591Z</time>
      </trkpt>
      <trkpt lat="44.05661" lon="5.24633">
        <ele>337</ele>
        <time>2020-07-11T06:45:25.591Z</time>
      </trkpt>
      <trkpt lat="44.05663" lon="5.24637">
        <ele>337</ele>
        <time>2020-07-11T06:45:26.591Z</time>
      </trkpt>
      <trkpt lat="44.05665" lon="5.24641">
        <ele>337</ele>
        <time>2020-07-11T06:45:27.591Z</time>
      </trkpt>
      <trkpt lat="44.05667" lon="5.24646">
        <ele>337</ele>
        <time>2020-07-11T06:45:28.590Z</time>
      </trkpt>
      <trkpt lat="44.0567" lon="5.24649">
        <ele>338</ele>
        <time>2020-07-11T06:45:29.591Z</time>
      </trkpt>
      <trkpt lat="44.05673" lon="5.24653">
        <ele>338</ele>
        <time>2020-07-11T06:45:30.590Z</time>
      </trkpt>
      <trkpt lat="44.05675" lon="5.24657">
        <ele>338</ele>
        <time>2020-07-11T06:45:31.591Z</time>
      </trkpt>
      <trkpt lat="44.05678" lon="5.2466">
        <ele>338</ele>
        <time>2020-07-11T06:45:32.591Z</time>
      </trkpt>
      <trkpt lat="44.0568" lon="5.24664">
        <ele>338</ele>
        <time>2020-07-11T06:45:33.591Z</time>
      </trkpt>
      <trkpt lat="44.05683" lon="5.24667">
        <ele>338</ele>
        <time>2020-07-11T06:45:34.591Z</time>
      </trkpt>
      <trkpt lat="44.05685" lon="5.24671">
        <ele>337</ele>
        <time>2020-07-11T06:45:35.591Z</time>
      </trkpt>
      <trkpt lat="44.05688" lon="5.24675">
        <ele>337</ele>
        <time>2020-07-11T06:45:36.591Z</time>
      </trkpt>
      <trkpt lat="44.0569" lon="5.24679">
        <ele>337</ele>
        <time>2020-07-11T06:45:37.591Z</time>
      </trkpt>
      <trkpt lat="44.05693" lon="5.24682">
        <ele>336</ele>
        <time>2020-07-11T06:45:38.590Z</time>
      </trkpt>
      <trkpt lat="44.05696" lon="5.24686">
        <ele>336</ele>
        <time>2020-07-11T06:45:39.590Z</time>
      </trkpt>
      <trkpt lat="44.05698" lon="5.2469">
        <ele>336</ele>
        <time>2020-07-11T06:45:40.591Z</time>
      </trkpt>
      <trkpt lat="44.057" lon="5.24694">
        <ele>337</ele>
        <time>2020-07-11T06:45:41.591Z</time>
      </trkpt>
      <trkpt lat="44.05702" lon="5.24698">
        <ele>337</ele>
        <time>2020-07-11T06:45:42.590Z</time>
      </trkpt>
      <trkpt lat="44.05704" lon="5.24702">
        <ele>337</ele>
        <time>2020-07-11T06:45:43.591Z</time>
      </trkpt>
      <trkpt lat="44.05706" lon="5.24706">
        <ele>337</ele>
        <time>2020-07-11T06:45:44.590Z</time>
      </trkpt>
      <trkpt lat="44.05708" lon="5.24711">
        <ele>338</ele>
        <time>2020-07-11T06:45:45.591Z</time>
      </trkpt>
      <trkpt lat="44.0571" lon="5.24715">
        <ele>338</ele>
        <time>2020-07-11T06:45:46.591Z</time>
      </trkpt>
      <trkpt lat="44.05712" lon="5.24719">
        <ele>338</ele>
        <time>2020-07-11T06:45:47.591Z</time>
      </trkpt>
      <trkpt lat="44.05713" lon="5.24724">
        <ele>338</ele>
        <time>2020-07-11T06:45:48.591Z</time>
      </trkpt>
      <trkpt lat="44.05715" lon="5.24728">
        <ele>338</ele>
        <time>2020-07-11T06:45:49.591Z</time>
      </trkpt>
      <trkpt lat="44.05717" lon="5.24732">
        <ele>338</ele>
        <time>2020-07-11T06:45:50.591Z</time>
      </trkpt>
      <trkpt lat="44.05718" lon="5.24737">
        <ele>338</ele>
        <time>2020-07-11T06:45:51.591Z</time>
      </trkpt>
      <trkpt lat="44.0572" lon="5.2474">
        <ele>338</ele>
        <time>2020-07-11T06:45:52.590Z</time>
      </trkpt>
      <trkpt lat="44.05722" lon="5.24745">
        <ele>338</ele>
        <time>2020-07-11T06:45:53.590Z</time>
      </trkpt>
      <trkpt lat="44.05725" lon="5.2475">
        <ele>338</ele>
        <time>2020-07-11T06:45:54.591Z</time>
      </trkpt>
      <trkpt lat="44.05727" lon="5.24753">
        <ele>339</ele>
        <time>2020-07-11T06:45:55.591Z</time>
      </trkpt>
      <trkpt lat="44.0573" lon="5.24757">
        <ele>339</ele>
        <time>2020-07-11T06:45:56.591Z</time>
      </trkpt>
      <trkpt lat="44.05733" lon="5.2476">
        <ele>339</ele>
        <time>2020-07-11T06:45:57.591Z</time>
      </trkpt>
      <trkpt lat="44.05736" lon="5.24763">
        <ele>339</ele>
        <time>2020-07-11T06:45:58.591Z</time>
      </trkpt>
      <trkpt lat="44.0574" lon="5.24766">
        <ele>339</ele>
        <time>2020-07-11T06:45:59.590Z</time>
      </trkpt>
      <trkpt lat="44.05743" lon="5.24768">
        <ele>339</ele>
        <time>2020-07-11T06:46:00.590Z</time>
      </trkpt>
      <trkpt lat="44.05746" lon="5.24769">
        <ele>339</ele>
        <time>2020-07-11T06:46:01.591Z</time>
      </trkpt>
      <trkpt lat="44.0575" lon="5.24771">
        <ele>339</ele>
        <time>2020-07-11T06:46:02.591Z</time>
      </trkpt>
      <trkpt lat="44.05754" lon="5.24772">
        <ele>339</ele>
        <time>2020-07-11T06:46:03.591Z</time>
      </trkpt>
      <trkpt lat="44.05758" lon="5.24773">
        <ele>339</ele>
        <time>2020-07-11T06:46:04.591Z</time>
      </trkpt>
      <trkpt lat="44.05763" lon="5.24773">
        <ele>339</ele>
        <time>2020-07-11T06:46:05.590Z</time>
      </trkpt>
      <trkpt lat="44.05767" lon="5.24774">
        <ele>339</ele>
        <time>2020-07-11T06:46:06.591Z</time>
      </trkpt>
      <trkpt lat="44.05771" lon="5.24774">
        <ele>339</ele>
        <time>2020-07-11T06:46:07.591Z</time>
      </trkpt>
      <trkpt lat="44.05775" lon="5.24775">
        <ele>339</ele>
        <time>2020-07-11T06:46:08.590Z</time>
      </trkpt>
      <trkpt lat="44.05779" lon="5.24777">
        <ele>340</ele>
        <time>2020-07-11T06:46:09.591Z</time>
      </trkpt>
      <trkpt lat="44.05782" lon="5.24778">
        <ele>340</ele>
        <time>2020-07-11T06:46:10.591Z</time>
      </trkpt>
      <trkpt lat="44.05785" lon="5.24779">
        <ele>341</ele>
        <time>2020-07-11T06:46:11.591Z</time>
      </trkpt>
      <trkpt lat="44.0579" lon="5.24782">
        <ele>341</ele>
        <time>2020-07-11T06:46:12.591Z</time>
      </trkpt>
      <trkpt lat="44.05794" lon="5.24784">
        <ele>341</ele>
        <time>2020-07-11T06:46:13.591Z</time>
      </trkpt>
      <trkpt lat="44.05798" lon="5.24787">
        <ele>342</ele>
        <time>2020-07-11T06:46:14.591Z</time>
      </trkpt>
      <trkpt lat="44.05801" lon="5.24789">
        <ele>342</ele>
        <time>2020-07-11T06:46:15.591Z</time>
      </trkpt>
      <trkpt lat="44.05804" lon="5.24792">
        <ele>343</ele>
        <time>2020-07-11T06:46:16.591Z</time>
      </trkpt>
      <trkpt lat="44.05807" lon="5.24795">
        <ele>343</ele>
        <time>2020-07-11T06:46:17.590Z</time>
      </trkpt>
      <trkpt lat="44.0581" lon="5.24799">
        <ele>344</ele>
        <time>2020-07-11T06:46:18.591Z</time>
      </trkpt>
      <trkpt lat="44.05813" lon="5.24803">
        <ele>343</ele>
        <time>2020-07-11T06:46:19.590Z</time>
      </trkpt>
      <trkpt lat="44.05815" lon="5.24806">
        <ele>343</ele>
        <time>2020-07-11T06:46:20.591Z</time>
      </trkpt>
      <trkpt lat="44.05818" lon="5.24812">
        <ele>343</ele>
        <time>2020-07-11T06:46:21.591Z</time>
      </trkpt>
      <trkpt lat="44.05819" lon="5.24817">
        <ele>343</ele>
        <time>2020-07-11T06:46:22.590Z</time>
      </trkpt>
      <trkpt lat="44.0582" lon="5.24823">
        <ele>343</ele>
        <time>2020-07-11T06:46:23.590Z</time>
      </trkpt>
      <trkpt lat="44.05821" lon="5.24828">
        <ele>343</ele>
        <time>2020-07-11T06:46:24.591Z</time>
      </trkpt>
      <trkpt lat="44.05821" lon="5.24834">
        <ele>344</ele>
        <time>2020-07-11T06:46:25.591Z</time>
      </trkpt>
      <trkpt lat="44.0582" lon="5.2484">
        <ele>344</ele>
        <time>2020-07-11T06:46:26.591Z</time>
      </trkpt>
      <trkpt lat="44.05819" lon="5.24845">
        <ele>344</ele>
        <time>2020-07-11T06:46:27.591Z</time>
      </trkpt>
      <trkpt lat="44.05817" lon="5.2485">
        <ele>344</ele>
        <time>2020-07-11T06:46:28.591Z</time>
      </trkpt>
      <trkpt lat="44.05815" lon="5.24855">
        <ele>344</ele>
        <time>2020-07-11T06:46:29.591Z</time>
      </trkpt>
      <trkpt lat="44.05814" lon="5.24859">
        <ele>344</ele>
        <time>2020-07-11T06:46:30.591Z</time>
      </trkpt>
      <trkpt lat="44.0581" lon="5.24864">
        <ele>345</ele>
        <time>2020-07-11T06:46:31.590Z</time>
      </trkpt>
      <trkpt lat="44.05807" lon="5.24868">
        <ele>345</ele>
        <time>2020-07-11T06:46:32.591Z</time>
      </trkpt>
      <trkpt lat="44.05804" lon="5.24871">
        <ele>346</ele>
        <time>2020-07-11T06:46:33.591Z</time>
      </trkpt>
      <trkpt lat="44.058" lon="5.24872">
        <ele>347</ele>
        <time>2020-07-11T06:46:34.591Z</time>
      </trkpt>
      <trkpt lat="44.05795" lon="5.24872">
        <ele>347</ele>
        <time>2020-07-11T06:46:35.591Z</time>
      </trkpt>
      <trkpt lat="44.0579" lon="5.24873">
        <ele>348</ele>
        <time>2020-07-11T06:46:36.591Z</time>
      </trkpt>
      <trkpt lat="44.05786" lon="5.24873">
        <ele>349</ele>
        <time>2020-07-11T06:46:37.590Z</time>
      </trkpt>
      <trkpt lat="44.05782" lon="5.24872">
        <ele>350</ele>
        <time>2020-07-11T06:46:38.591Z</time>
      </trkpt>
      <trkpt lat="44.05778" lon="5.2487">
        <ele>351</ele>
        <time>2020-07-11T06:46:39.590Z</time>
      </trkpt>
      <trkpt lat="44.05773" lon="5.24866">
        <ele>352</ele>
        <time>2020-07-11T06:46:40.591Z</time>
      </trkpt>
      <trkpt lat="44.0577" lon="5.24863">
        <ele>353</ele>
        <time>2020-07-11T06:46:41.591Z</time>
      </trkpt>
      <trkpt lat="44.05766" lon="5.24859">
        <ele>353</ele>
        <time>2020-07-11T06:46:42.591Z</time>
      </trkpt>
      <trkpt lat="44.05762" lon="5.24855">
        <ele>353</ele>
        <time>2020-07-11T06:46:43.591Z</time>
      </trkpt>
      <trkpt lat="44.05759" lon="5.24852">
        <ele>354</ele>
        <time>2020-07-11T06:46:44.591Z</time>
      </trkpt>
      <trkpt lat="44.05756" lon="5.24848">
        <ele>355</ele>
        <time>2020-07-11T06:46:45.591Z</time>
      </trkpt>
      <trkpt lat="44.05754" lon="5.24844">
        <ele>356</ele>
        <time>2020-07-11T06:46:46.591Z</time>
      </trkpt>
      <trkpt lat="44.05751" lon="5.2484">
        <ele>356</ele>
        <time>2020-07-11T06:46:47.591Z</time>
      </trkpt>
      <trkpt lat="44.05748" lon="5.24836">
        <ele>356</ele>
        <time>2020-07-11T06:46:48.591Z</time>
      </trkpt>
      <trkpt lat="44.05745" lon="5.24832">
        <ele>356</ele>
        <time>2020-07-11T06:46:49.591Z</time>
      </trkpt>
      <trkpt lat="44.05742" lon="5.24828">
        <ele>355</ele>
        <time>2020-07-11T06:46:50.591Z</time>
      </trkpt>
      <trkpt lat="44.05739" lon="5.24825">
        <ele>355</ele>
        <time>2020-07-11T06:46:51.591Z</time>
      </trkpt>
      <trkpt lat="44.05736" lon="5.2482">
        <ele>355</ele>
        <time>2020-07-11T06:46:52.590Z</time>
      </trkpt>
      <trkpt lat="44.05733" lon="5.24817">
        <ele>355</ele>
        <time>2020-07-11T06:46:53.591Z</time>
      </trkpt>
      <trkpt lat="44.0573" lon="5.24813">
        <ele>355</ele>
        <time>2020-07-11T06:46:54.590Z</time>
      </trkpt>
      <trkpt lat="44.05727" lon="5.2481">
        <ele>355</ele>
        <time>2020-07-11T06:46:55.591Z</time>
      </trkpt>
      <trkpt lat="44.05724" lon="5.24805">
        <ele>355</ele>
        <time>2020-07-11T06:46:56.591Z</time>
      </trkpt>
      <trkpt lat="44.05721" lon="5.24801">
        <ele>354</ele>
        <time>2020-07-11T06:46:57.590Z</time>
      </trkpt>
      <trkpt lat="44.05718" lon="5.24797">
        <ele>354</ele>
        <time>2020-07-11T06:46:58.591Z</time>
      </trkpt>
      <trkpt lat="44.05714" lon="5.24793">
        <ele>354</ele>
        <time>2020-07-11T06:46:59.591Z</time>
      </trkpt>
      <trkpt lat="44.05711" lon="5.24789">
        <ele>354</ele>
        <time>2020-07-11T06:47:00.591Z</time>
      </trkpt>
      <trkpt lat="44.05707" lon="5.24784">
        <ele>354</ele>
        <time>2020-07-11T06:47:01.591Z</time>
      </trkpt>
      <trkpt lat="44.05704" lon="5.2478">
        <ele>354</ele>
        <time>2020-07-11T06:47:02.591Z</time>
      </trkpt>
      <trkpt lat="44.05702" lon="5.24777">
        <ele>355</ele>
        <time>2020-07-11T06:47:03.591Z</time>
      </trkpt>
      <trkpt lat="44.05699" lon="5.24773">
        <ele>355</ele>
        <time>2020-07-11T06:47:04.591Z</time>
      </trkpt>
      <trkpt lat="44.05696" lon="5.2477">
        <ele>355</ele>
        <time>2020-07-11T06:47:05.590Z</time>
      </trkpt>
      <trkpt lat="44.05694" lon="5.24766">
        <ele>355</ele>
        <time>2020-07-11T06:47:06.591Z</time>
      </trkpt>
      <trkpt lat="44.05691" lon="5.24763">
        <ele>355</ele>
        <time>2020-07-11T06:47:07.591Z</time>
      </trkpt>
      <trkpt lat="44.05687" lon="5.2476">
        <ele>355</ele>
        <time>2020-07-11T06:47:08.591Z</time>
      </trkpt>
      <trkpt lat="44.05684" lon="5.24756">
        <ele>355</ele>
        <time>2020-07-11T06:47:09.591Z</time>
      </trkpt>
      <trkpt lat="44.05681" lon="5.24753">
        <ele>355</ele>
        <time>2020-07-11T06:47:10.591Z</time>
      </trkpt>
      <trkpt lat="44.05678" lon="5.2475">
        <ele>355</ele>
        <time>2020-07-11T06:47:11.590Z</time>
      </trkpt>
      <trkpt lat="44.05675" lon="5.24747">
        <ele>356</ele>
        <time>2020-07-11T06:47:12.591Z</time>
      </trkpt>
      <trkpt lat="44.05671" lon="5.24744">
        <ele>356</ele>
        <time>2020-07-11T06:47:13.591Z</time>
      </trkpt>
      <trkpt lat="44.05668" lon="5.24741">
        <ele>356</ele>
        <time>2020-07-11T06:47:14.591Z</time>
      </trkpt>
      <trkpt lat="44.05665" lon="5.24738">
        <ele>355</ele>
        <time>2020-07-11T06:47:15.590Z</time>
      </trkpt>
      <trkpt lat="44.05662" lon="5.24735">
        <ele>355</ele>
        <time>2020-07-11T06:47:16.591Z</time>
      </trkpt>
      <trkpt lat="44.05658" lon="5.24732">
        <ele>355</ele>
        <time>2020-07-11T06:47:17.591Z</time>
      </trkpt>
      <trkpt lat="44.05655" lon="5.24729">
        <ele>355</ele>
        <time>2020-07-11T06:47:18.590Z</time>
      </trkpt>
      <trkpt lat="44.05652" lon="5.24726">
        <ele>355</ele>
        <time>2020-07-11T06:47:19.591Z</time>
      </trkpt>
      <trkpt lat="44.05648" lon="5.24724">
        <ele>355</ele>
        <time>2020-07-11T06:47:20.591Z</time>
      </trkpt>
      <trkpt lat="44.05645" lon="5.24721">
        <ele>355</ele>
        <time>2020-07-11T06:47:21.590Z</time>
      </trkpt>
      <trkpt lat="44.05642" lon="5.24719">
        <ele>355</ele>
        <time>2020-07-11T06:47:22.591Z</time>
      </trkpt>
      <trkpt lat="44.05638" lon="5.24716">
        <ele>355</ele>
        <time>2020-07-11T06:47:23.591Z</time>
      </trkpt>
      <trkpt lat="44.05635" lon="5.24714">
        <ele>355</ele>
        <time>2020-07-11T06:47:24.591Z</time>
      </trkpt>
      <trkpt lat="44.05631" lon="5.24712">
        <ele>355</ele>
        <time>2020-07-11T06:47:25.591Z</time>
      </trkpt>
      <trkpt lat="44.05628" lon="5.2471">
        <ele>354</ele>
        <time>2020-07-11T06:47:26.591Z</time>
      </trkpt>
      <trkpt lat="44.05624" lon="5.24709">
        <ele>355</ele>
        <time>2020-07-11T06:47:27.591Z</time>
      </trkpt>
      <trkpt lat="44.0562" lon="5.24708">
        <ele>355</ele>
        <time>2020-07-11T06:47:28.590Z</time>
      </trkpt>
      <trkpt lat="44.05616" lon="5.24706">
        <ele>355</ele>
        <time>2020-07-11T06:47:29.591Z</time>
      </trkpt>
      <trkpt lat="44.05613" lon="5.24705">
        <ele>355</ele>
        <time>2020-07-11T06:47:30.590Z</time>
      </trkpt>
      <trkpt lat="44.05609" lon="5.24704">
        <ele>355</ele>
        <time>2020-07-11T06:47:31.591Z</time>
      </trkpt>
      <trkpt lat="44.05605" lon="5.24703">
        <ele>355</ele>
        <time>2020-07-11T06:47:32.591Z</time>
      </trkpt>
      <trkpt lat="44.05601" lon="5.24703">
        <ele>355</ele>
        <time>2020-07-11T06:47:33.591Z</time>
      </trkpt>
      <trkpt lat="44.05597" lon="5.24702">
        <ele>355</ele>
        <time>2020-07-11T06:47:34.591Z</time>
      </trkpt>
      <trkpt lat="44.05594" lon="5.24702">
        <ele>354</ele>
        <time>2020-07-11T06:47:35.591Z</time>
      </trkpt>
      <trkpt lat="44.0559" lon="5.24702">
        <ele>354</ele>
        <time>2020-07-11T06:47:36.591Z</time>
      </trkpt>
      <trkpt lat="44.05585" lon="5.24703">
        <ele>354</ele>
        <time>2020-07-11T06:47:37.591Z</time>
      </trkpt>
      <trkpt lat="44.05582" lon="5.24703">
        <ele>354</ele>
        <time>2020-07-11T06:47:38.591Z</time>
      </trkpt>
      <trkpt lat="44.05577" lon="5.24704">
        <ele>354</ele>
        <time>2020-07-11T06:47:39.591Z</time>
      </trkpt>
      <trkpt lat="44.05574" lon="5.24704">
        <ele>354</ele>
        <time>2020-07-11T06:47:40.591Z</time>
      </trkpt>
      <trkpt lat="44.0557" lon="5.24705">
        <ele>354</ele>
        <time>2020-07-11T06:47:41.591Z</time>
      </trkpt>
      <trkpt lat="44.05566" lon="5.24706">
        <ele>354</ele>
        <time>2020-07-11T06:47:42.591Z</time>
      </trkpt>
      <trkpt lat="44.05562" lon="5.24706">
        <ele>354</ele>
        <time>2020-07-11T06:47:43.590Z</time>
      </trkpt>
      <trkpt lat="44.05558" lon="5.24706">
        <ele>354</ele>
        <time>2020-07-11T06:47:44.591Z</time>
      </trkpt>
      <trkpt lat="44.05554" lon="5.24706">
        <ele>354</ele>
        <time>2020-07-11T06:47:45.590Z</time>
      </trkpt>
      <trkpt lat="44.0555" lon="5.24706">
        <ele>355</ele>
        <time>2020-07-11T06:47:46.591Z</time>
      </trkpt>
      <trkpt lat="44.05546" lon="5.24705">
        <ele>356</ele>
        <time>2020-07-11T06:47:47.591Z</time>
      </trkpt>
      <trkpt lat="44.05542" lon="5.24705">
        <ele>356</ele>
        <time>2020-07-11T06:47:48.591Z</time>
      </trkpt>
      <trkpt lat="44.05538" lon="5.24705">
        <ele>357</ele>
        <time>2020-07-11T06:47:49.591Z</time>
      </trkpt>
      <trkpt lat="44.05535" lon="5.24705">
        <ele>357</ele>
        <time>2020-07-11T06:47:50.590Z</time>
      </trkpt>
      <trkpt lat="44.0553" lon="5.24705">
        <ele>358</ele>
        <time>2020-07-11T06:47:51.591Z</time>
      </trkpt>
      <trkpt lat="44.05526" lon="5.24705">
        <ele>358</ele>
        <time>2020-07-11T06:47:52.591Z</time>
      </trkpt>
      <trkpt lat="44.05523" lon="5.24706">
        <ele>358</ele>
        <time>2020-07-11T06:47:53.591Z</time>
      </trkpt>
      <trkpt lat="44.05519" lon="5.24708">
        <ele>358</ele>
        <time>2020-07-11T06:47:54.591Z</time>
      </trkpt>
      <trkpt lat="44.05516" lon="5.24709">
        <ele>359</ele>
        <time>2020-07-11T06:47:55.591Z</time>
      </trkpt>
      <trkpt lat="44.05512" lon="5.24711">
        <ele>359</ele>
        <time>2020-07-11T06:47:56.591Z</time>
      </trkpt>
      <trkpt lat="44.05508" lon="5.24714">
        <ele>359</ele>
        <time>2020-07-11T06:47:57.591Z</time>
      </trkpt>
      <trkpt lat="44.05505" lon="5.24716">
        <ele>359</ele>
        <time>2020-07-11T06:47:58.590Z</time>
      </trkpt>
      <trkpt lat="44.05501" lon="5.24719">
        <ele>360</ele>
        <time>2020-07-11T06:47:59.591Z</time>
      </trkpt>
      <trkpt lat="44.05497" lon="5.24722">
        <ele>360</ele>
        <time>2020-07-11T06:48:00.590Z</time>
      </trkpt>
      <trkpt lat="44.05493" lon="5.24724">
        <ele>360</ele>
        <time>2020-07-11T06:48:01.591Z</time>
      </trkpt>
      <trkpt lat="44.0549" lon="5.24725">
        <ele>361</ele>
        <time>2020-07-11T06:48:02.591Z</time>
      </trkpt>
      <trkpt lat="44.05486" lon="5.24725">
        <ele>361</ele>
        <time>2020-07-11T06:48:03.591Z</time>
      </trkpt>
      <trkpt lat="44.05482" lon="5.24725">
        <ele>361</ele>
        <time>2020-07-11T06:48:04.590Z</time>
      </trkpt>
      <trkpt lat="44.05478" lon="5.24725">
        <ele>361</ele>
        <time>2020-07-11T06:48:05.590Z</time>
      </trkpt>
      <trkpt lat="44.05474" lon="5.24723">
        <ele>361</ele>
        <time>2020-07-11T06:48:06.591Z</time>
      </trkpt>
      <trkpt lat="44.05471" lon="5.24721">
        <ele>361</ele>
        <time>2020-07-11T06:48:07.591Z</time>
      </trkpt>
      <trkpt lat="44.05467" lon="5.24719">
        <ele>362</ele>
        <time>2020-07-11T06:48:08.590Z</time>
      </trkpt>
      <trkpt lat="44.05463" lon="5.24716">
        <ele>362</ele>
        <time>2020-07-11T06:48:09.591Z</time>
      </trkpt>
      <trkpt lat="44.0546" lon="5.24714">
        <ele>362</ele>
        <time>2020-07-11T06:48:10.590Z</time>
      </trkpt>
      <trkpt lat="44.05457" lon="5.24712">
        <ele>362</ele>
        <time>2020-07-11T06:48:11.591Z</time>
      </trkpt>
      <trkpt lat="44.05453" lon="5.24709">
        <ele>362</ele>
        <time>2020-07-11T06:48:12.591Z</time>
      </trkpt>
      <trkpt lat="44.05449" lon="5.24707">
        <ele>362</ele>
        <time>2020-07-11T06:48:13.591Z</time>
      </trkpt>
      <trkpt lat="44.05446" lon="5.24706">
        <ele>363</ele>
        <time>2020-07-11T06:48:14.591Z</time>
      </trkpt>
      <trkpt lat="44.05441" lon="5.24704">
        <ele>363</ele>
        <time>2020-07-11T06:48:15.590Z</time>
      </trkpt>
      <trkpt lat="44.05438" lon="5.24703">
        <ele>363</ele>
        <time>2020-07-11T06:48:16.591Z</time>
      </trkpt>
      <trkpt lat="44.05434" lon="5.24702">
        <ele>363</ele>
        <time>2020-07-11T06:48:17.591Z</time>
      </trkpt>
      <trkpt lat="44.05429" lon="5.24702">
        <ele>363</ele>
        <time>2020-07-11T06:48:18.590Z</time>
      </trkpt>
      <trkpt lat="44.05425" lon="5.24702">
        <ele>363</ele>
        <time>2020-07-11T06:48:19.590Z</time>
      </trkpt>
      <trkpt lat="44.05422" lon="5.24703">
        <ele>363</ele>
        <time>2020-07-11T06:48:20.590Z</time>
      </trkpt>
      <trkpt lat="44.05418" lon="5.24704">
        <ele>363</ele>
        <time>2020-07-11T06:48:21.591Z</time>
      </trkpt>
      <trkpt lat="44.05415" lon="5.24705">
        <ele>364</ele>
        <time>2020-07-11T06:48:22.591Z</time>
      </trkpt>
      <trkpt lat="44.05411" lon="5.24706">
        <ele>364</ele>
        <time>2020-07-11T06:48:23.591Z</time>
      </trkpt>
      <trkpt lat="44.05408" lon="5.24708">
        <ele>364</ele>
        <time>2020-07-11T06:48:24.590Z</time>
      </trkpt>
      <trkpt lat="44.05405" lon="5.24709">
        <ele>364</ele>
        <time>2020-07-11T06:48:25.590Z</time>
      </trkpt>
      <trkpt lat="44.05401" lon="5.2471">
        <ele>364</ele>
        <time>2020-07-11T06:48:26.591Z</time>
      </trkpt>
      <trkpt lat="44.05397" lon="5.24713">
        <ele>364</ele>
        <time>2020-07-11T06:48:27.591Z</time>
      </trkpt>
      <trkpt lat="44.05394" lon="5.24714">
        <ele>365</ele>
        <time>2020-07-11T06:48:28.590Z</time>
      </trkpt>
      <trkpt lat="44.0539" lon="5.24716">
        <ele>365</ele>
        <time>2020-07-11T06:48:29.591Z</time>
      </trkpt>
      <trkpt lat="44.05387" lon="5.24718">
        <ele>365</ele>
        <time>2020-07-11T06:48:30.591Z</time>
      </trkpt>
      <trkpt lat="44.05384" lon="5.2472">
        <ele>365</ele>
        <time>2020-07-11T06:48:31.591Z</time>
      </trkpt>
      <trkpt lat="44.05381" lon="5.24723">
        <ele>365</ele>
        <time>2020-07-11T06:48:32.591Z</time>
      </trkpt>
      <trkpt lat="44.05378" lon="5.24726">
        <ele>365</ele>
        <time>2020-07-11T06:48:33.591Z</time>
      </trkpt>
      <trkpt lat="44.05375" lon="5.24728">
        <ele>365</ele>
        <time>2020-07-11T06:48:34.591Z</time>
      </trkpt>
      <trkpt lat="44.05372" lon="5.24729">
        <ele>365</ele>
        <time>2020-07-11T06:48:35.590Z</time>
      </trkpt>
      <trkpt lat="44.05369" lon="5.24731">
        <ele>365</ele>
        <time>2020-07-11T06:48:36.591Z</time>
      </trkpt>
      <trkpt lat="44.05366" lon="5.24734">
        <ele>365</ele>
        <time>2020-07-11T06:48:37.591Z</time>
      </trkpt>
      <trkpt lat="44.05364" lon="5.24736">
        <ele>365</ele>
        <time>2020-07-11T06:48:38.590Z</time>
      </trkpt>
      <trkpt lat="44.05361" lon="5.24738">
        <ele>365</ele>
        <time>2020-07-11T06:48:39.590Z</time>
      </trkpt>
      <trkpt lat="44.05359" lon="5.24742">
        <ele>365</ele>
        <time>2020-07-11T06:48:40.590Z</time>
      </trkpt>
      <trkpt lat="44.05357" lon="5.24744">
        <ele>366</ele>
        <time>2020-07-11T06:48:41.591Z</time>
      </trkpt>
      <trkpt lat="44.05355" lon="5.24746">
        <ele>366</ele>
        <time>2020-07-11T06:48:42.590Z</time>
      </trkpt>
      <trkpt lat="44.05354" lon="5.24748">
        <ele>367</ele>
        <time>2020-07-11T06:48:43.591Z</time>
      </trkpt>
      <trkpt lat="44.05353" lon="5.24749">
        <ele>367</ele>
        <time>2020-07-11T06:48:44.591Z</time>
      </trkpt>
      <trkpt lat="44.05351" lon="5.2475">
        <ele>367</ele>
        <time>2020-07-11T06:48:45.591Z</time>
      </trkpt>
      <trkpt lat="44.0535" lon="5.24751">
        <ele>368</ele>
        <time>2020-07-11T06:48:46.591Z</time>
      </trkpt>
      <trkpt lat="44.05348" lon="5.24752">
        <ele>368</ele>
        <time>2020-07-11T06:48:47.591Z</time>
      </trkpt>
      <trkpt lat="44.05347" lon="5.24754">
        <ele>368</ele>
        <time>2020-07-11T06:48:48.590Z</time>
      </trkpt>
      <trkpt lat="44.05345" lon="5.24755">
        <ele>368</ele>
        <time>2020-07-11T06:48:49.591Z</time>
      </trkpt>
      <trkpt lat="44.05343" lon="5.24756">
        <ele>368</ele>
        <time>2020-07-11T06:48:50.591Z</time>
      </trkpt>
      <trkpt lat="44.05341" lon="5.24758">
        <ele>368</ele>
        <time>2020-07-11T06:48:51.590Z</time>
      </trkpt>
      <trkpt lat="44.05339" lon="5.2476">
        <ele>368</ele>
        <time>2020-07-11T06:48:52.591Z</time>
      </trkpt>
      <trkpt lat="44.05336" lon="5.24762">
        <ele>368</ele>
        <time>2020-07-11T06:48:53.591Z</time>
      </trkpt>
      <trkpt lat="44.05333" lon="5.24764">
        <ele>368</ele>
        <time>2020-07-11T06:48:54.591Z</time>
      </trkpt>
      <trkpt lat="44.0533" lon="5.24767">
        <ele>368</ele>
        <time>2020-07-11T06:48:55.590Z</time>
      </trkpt>
      <trkpt lat="44.05326" lon="5.2477">
        <ele>368</ele>
        <time>2020-07-11T06:48:56.591Z</time>
      </trkpt>
      <trkpt lat="44.05324" lon="5.24772">
        <ele>368</ele>
        <time>2020-07-11T06:48:57.591Z</time>
      </trkpt>
      <trkpt lat="44.05321" lon="5.24775">
        <ele>368</ele>
        <time>2020-07-11T06:48:58.590Z</time>
      </trkpt>
      <trkpt lat="44.05318" lon="5.24777">
        <ele>369</ele>
        <time>2020-07-11T06:48:59.591Z</time>
      </trkpt>
      <trkpt lat="44.05314" lon="5.24779">
        <ele>369</ele>
        <time>2020-07-11T06:49:00.591Z</time>
      </trkpt>
      <trkpt lat="44.05311" lon="5.24781">
        <ele>369</ele>
        <time>2020-07-11T06:49:01.591Z</time>
      </trkpt>
      <trkpt lat="44.05308" lon="5.24781">
        <ele>369</ele>
        <time>2020-07-11T06:49:02.591Z</time>
      </trkpt>
      <trkpt lat="44.05305" lon="5.24781">
        <ele>369</ele>
        <time>2020-07-11T06:49:03.591Z</time>
      </trkpt>
      <trkpt lat="44.05301" lon="5.24782">
        <ele>369</ele>
        <time>2020-07-11T06:49:04.591Z</time>
      </trkpt>
      <trkpt lat="44.05298" lon="5.24782">
        <ele>368</ele>
        <time>2020-07-11T06:49:05.590Z</time>
      </trkpt>
      <trkpt lat="44.05294" lon="5.24781">
        <ele>368</ele>
        <time>2020-07-11T06:49:06.591Z</time>
      </trkpt>
      <trkpt lat="44.05291" lon="5.24781">
        <ele>368</ele>
        <time>2020-07-11T06:49:07.591Z</time>
      </trkpt>
      <trkpt lat="44.05287" lon="5.2478">
        <ele>368</ele>
        <time>2020-07-11T06:49:08.590Z</time>
      </trkpt>
      <trkpt lat="44.05284" lon="5.2478">
        <ele>367</ele>
        <time>2020-07-11T06:49:09.591Z</time>
      </trkpt>
      <trkpt lat="44.05279" lon="5.24779">
        <ele>367</ele>
        <time>2020-07-11T06:49:10.591Z</time>
      </trkpt>
      <trkpt lat="44.05276" lon="5.24778">
        <ele>368</ele>
        <time>2020-07-11T06:49:11.590Z</time>
      </trkpt>
      <trkpt lat="44.05273" lon="5.24778">
        <ele>368</ele>
        <time>2020-07-11T06:49:12.590Z</time>
      </trkpt>
      <trkpt lat="44.05269" lon="5.24777">
        <ele>368</ele>
        <time>2020-07-11T06:49:13.591Z</time>
      </trkpt>
      <trkpt lat="44.05266" lon="5.24777">
        <ele>368</ele>
        <time>2020-07-11T06:49:14.591Z</time>
      </trkpt>
      <trkpt lat="44.05262" lon="5.24777">
        <ele>368</ele>
        <time>2020-07-11T06:49:15.590Z</time>
      </trkpt>
      <trkpt lat="44.05259" lon="5.24776">
        <ele>368</ele>
        <time>2020-07-11T06:49:16.591Z</time>
      </trkpt>
      <trkpt lat="44.05255" lon="5.24776">
        <ele>368</ele>
        <time>2020-07-11T06:49:17.590Z</time>
      </trkpt>
      <trkpt lat="44.05252" lon="5.24777">
        <ele>368</ele>
        <time>2020-07-11T06:49:18.591Z</time>
      </trkpt>
      <trkpt lat="44.05248" lon="5.24777">
        <ele>368</ele>
        <time>2020-07-11T06:49:19.590Z</time>
      </trkpt>
      <trkpt lat="44.05245" lon="5.24778">
        <ele>367</ele>
        <time>2020-07-11T06:49:20.591Z</time>
      </trkpt>
      <trkpt lat="44.05242" lon="5.24778">
        <ele>367</ele>
        <time>2020-07-11T06:49:21.591Z</time>
      </trkpt>
      <trkpt lat="44.05237" lon="5.24779">
        <ele>367</ele>
        <time>2020-07-11T06:49:22.591Z</time>
      </trkpt>
      <trkpt lat="44.05235" lon="5.24779">
        <ele>367</ele>
        <time>2020-07-11T06:49:23.591Z</time>
      </trkpt>
      <trkpt lat="44.05231" lon="5.2478">
        <ele>367</ele>
        <time>2020-07-11T06:49:24.590Z</time>
      </trkpt>
      <trkpt lat="44.05227" lon="5.2478">
        <ele>367</ele>
        <time>2020-07-11T06:49:25.590Z</time>
      </trkpt>
      <trkpt lat="44.05224" lon="5.2478">
        <ele>367</ele>
        <time>2020-07-11T06:49:26.590Z</time>
      </trkpt>
      <trkpt lat="44.0522" lon="5.2478">
        <ele>367</ele>
        <time>2020-07-11T06:49:27.591Z</time>
      </trkpt>
      <trkpt lat="44.05215" lon="5.2478">
        <ele>367</ele>
        <time>2020-07-11T06:49:28.590Z</time>
      </trkpt>
      <trkpt lat="44.05212" lon="5.2478">
        <ele>367</ele>
        <time>2020-07-11T06:49:29.591Z</time>
      </trkpt>
      <trkpt lat="44.05209" lon="5.24779">
        <ele>368</ele>
        <time>2020-07-11T06:49:30.590Z</time>
      </trkpt>
      <trkpt lat="44.05204" lon="5.24778">
        <ele>368</ele>
        <time>2020-07-11T06:49:31.591Z</time>
      </trkpt>
      <trkpt lat="44.05201" lon="5.24778">
        <ele>368</ele>
        <time>2020-07-11T06:49:32.591Z</time>
      </trkpt>
      <trkpt lat="44.05197" lon="5.24778">
        <ele>369</ele>
        <time>2020-07-11T06:49:33.591Z</time>
      </trkpt>
      <trkpt lat="44.05194" lon="5.24778">
        <ele>369</ele>
        <time>2020-07-11T06:49:34.591Z</time>
      </trkpt>
      <trkpt lat="44.0519" lon="5.24778">
        <ele>369</ele>
        <time>2020-07-11T06:49:35.591Z</time>
      </trkpt>
      <trkpt lat="44.05187" lon="5.24779">
        <ele>369</ele>
        <time>2020-07-11T06:49:36.591Z</time>
      </trkpt>
      <trkpt lat="44.05183" lon="5.2478">
        <ele>369</ele>
        <time>2020-07-11T06:49:37.591Z</time>
      </trkpt>
      <trkpt lat="44.0518" lon="5.24781">
        <ele>369</ele>
        <time>2020-07-11T06:49:38.590Z</time>
      </trkpt>
      <trkpt lat="44.05177" lon="5.24782">
        <ele>370</ele>
        <time>2020-07-11T06:49:39.591Z</time>
      </trkpt>
      <trkpt lat="44.05172" lon="5.24784">
        <ele>370</ele>
        <time>2020-07-11T06:49:40.590Z</time>
      </trkpt>
      <trkpt lat="44.05169" lon="5.24785">
        <ele>370</ele>
        <time>2020-07-11T06:49:41.590Z</time>
      </trkpt>
      <trkpt lat="44.05166" lon="5.24786">
        <ele>371</ele>
        <time>2020-07-11T06:49:42.590Z</time>
      </trkpt>
      <trkpt lat="44.05163" lon="5.24787">
        <ele>371</ele>
        <time>2020-07-11T06:49:43.590Z</time>
      </trkpt>
      <trkpt lat="44.05159" lon="5.24788">
        <ele>371</ele>
        <time>2020-07-11T06:49:44.591Z</time>
      </trkpt>
      <trkpt lat="44.05156" lon="5.24789">
        <ele>372</ele>
        <time>2020-07-11T06:49:45.591Z</time>
      </trkpt>
      <trkpt lat="44.05152" lon="5.24789">
        <ele>372</ele>
        <time>2020-07-11T06:49:46.591Z</time>
      </trkpt>
      <trkpt lat="44.05148" lon="5.24789">
        <ele>373</ele>
        <time>2020-07-11T06:49:47.590Z</time>
      </trkpt>
      <trkpt lat="44.05145" lon="5.24789">
        <ele>373</ele>
        <time>2020-07-11T06:49:48.590Z</time>
      </trkpt>
      <trkpt lat="44.05141" lon="5.24788">
        <ele>373</ele>
        <time>2020-07-11T06:49:49.590Z</time>
      </trkpt>
      <trkpt lat="44.05138" lon="5.24787">
        <ele>374</ele>
        <time>2020-07-11T06:49:50.591Z</time>
      </trkpt>
      <trkpt lat="44.05134" lon="5.24785">
        <ele>374</ele>
        <time>2020-07-11T06:49:51.590Z</time>
      </trkpt>
      <trkpt lat="44.05131" lon="5.24783">
        <ele>375</ele>
        <time>2020-07-11T06:49:52.591Z</time>
      </trkpt>
      <trkpt lat="44.05127" lon="5.2478">
        <ele>375</ele>
        <time>2020-07-11T06:49:53.590Z</time>
      </trkpt>
      <trkpt lat="44.05124" lon="5.24778">
        <ele>375</ele>
        <time>2020-07-11T06:49:54.590Z</time>
      </trkpt>
      <trkpt lat="44.05121" lon="5.24776">
        <ele>375</ele>
        <time>2020-07-11T06:49:55.591Z</time>
      </trkpt>
      <trkpt lat="44.05118" lon="5.24773">
        <ele>375</ele>
        <time>2020-07-11T06:49:56.591Z</time>
      </trkpt>
      <trkpt lat="44.05115" lon="5.24769">
        <ele>376</ele>
        <time>2020-07-11T06:49:57.591Z</time>
      </trkpt>
      <trkpt lat="44.05111" lon="5.24765">
        <ele>377</ele>
        <time>2020-07-11T06:49:58.591Z</time>
      </trkpt>
      <trkpt lat="44.05109" lon="5.24761">
        <ele>377</ele>
        <time>2020-07-11T06:49:59.590Z</time>
      </trkpt>
      <trkpt lat="44.05107" lon="5.24757">
        <ele>378</ele>
        <time>2020-07-11T06:50:00.590Z</time>
      </trkpt>
      <trkpt lat="44.05105" lon="5.24753">
        <ele>378</ele>
        <time>2020-07-11T06:50:01.591Z</time>
      </trkpt>
      <trkpt lat="44.05104" lon="5.24747">
        <ele>378</ele>
        <time>2020-07-11T06:50:02.591Z</time>
      </trkpt>
      <trkpt lat="44.05103" lon="5.24743">
        <ele>378</ele>
        <time>2020-07-11T06:50:03.591Z</time>
      </trkpt>
      <trkpt lat="44.05102" lon="5.24736">
        <ele>379</ele>
        <time>2020-07-11T06:50:04.590Z</time>
      </trkpt>
      <trkpt lat="44.05102" lon="5.24732">
        <ele>379</ele>
        <time>2020-07-11T06:50:05.591Z</time>
      </trkpt>
      <trkpt lat="44.05101" lon="5.24727">
        <ele>379</ele>
        <time>2020-07-11T06:50:06.591Z</time>
      </trkpt>
      <trkpt lat="44.05101" lon="5.24721">
        <ele>379</ele>
        <time>2020-07-11T06:50:07.590Z</time>
      </trkpt>
      <trkpt lat="44.05102" lon="5.24714">
        <ele>379</ele>
        <time>2020-07-11T06:50:08.590Z</time>
      </trkpt>
      <trkpt lat="44.05102" lon="5.24709">
        <ele>378</ele>
        <time>2020-07-11T06:50:09.590Z</time>
      </trkpt>
      <trkpt lat="44.05104" lon="5.24704">
        <ele>378</ele>
        <time>2020-07-11T06:50:10.590Z</time>
      </trkpt>
      <trkpt lat="44.05106" lon="5.24699">
        <ele>377</ele>
        <time>2020-07-11T06:50:11.590Z</time>
      </trkpt>
      <trkpt lat="44.05108" lon="5.24695">
        <ele>377</ele>
        <time>2020-07-11T06:50:12.591Z</time>
      </trkpt>
      <trkpt lat="44.05112" lon="5.24691">
        <ele>377</ele>
        <time>2020-07-11T06:50:13.590Z</time>
      </trkpt>
      <trkpt lat="44.05114" lon="5.24688">
        <ele>377</ele>
        <time>2020-07-11T06:50:14.591Z</time>
      </trkpt>
      <trkpt lat="44.05118" lon="5.24686">
        <ele>377</ele>
        <time>2020-07-11T06:50:15.591Z</time>
      </trkpt>
      <trkpt lat="44.05122" lon="5.24684">
        <ele>377</ele>
        <time>2020-07-11T06:50:16.591Z</time>
      </trkpt>
      <trkpt lat="44.05127" lon="5.24684">
        <ele>377</ele>
        <time>2020-07-11T06:50:17.591Z</time>
      </trkpt>
      <trkpt lat="44.0513" lon="5.24684">
        <ele>376</ele>
        <time>2020-07-11T06:50:18.591Z</time>
      </trkpt>
      <trkpt lat="44.05134" lon="5.24684">
        <ele>376</ele>
        <time>2020-07-11T06:50:19.591Z</time>
      </trkpt>
      <trkpt lat="44.0514" lon="5.24684">
        <ele>376</ele>
        <time>2020-07-11T06:50:20.591Z</time>
      </trkpt>
      <trkpt lat="44.05143" lon="5.24684">
        <ele>376</ele>
        <time>2020-07-11T06:50:21.591Z</time>
      </trkpt>
      <trkpt lat="44.05148" lon="5.24685">
        <ele>376</ele>
        <time>2020-07-11T06:50:22.591Z</time>
      </trkpt>
      <trkpt lat="44.05151" lon="5.24685">
        <ele>376</ele>
        <time>2020-07-11T06:50:23.590Z</time>
      </trkpt>
      <trkpt lat="44.05155" lon="5.24684">
        <ele>376</ele>
        <time>2020-07-11T06:50:24.591Z</time>
      </trkpt>
      <trkpt lat="44.05159" lon="5.24684">
        <ele>377</ele>
        <time>2020-07-11T06:50:25.590Z</time>
      </trkpt>
      <trkpt lat="44.05164" lon="5.24683">
        <ele>377</ele>
        <time>2020-07-11T06:50:26.591Z</time>
      </trkpt>
      <trkpt lat="44.05167" lon="5.24682">
        <ele>377</ele>
        <time>2020-07-11T06:50:27.591Z</time>
      </trkpt>
      <trkpt lat="44.05171" lon="5.24681">
        <ele>378</ele>
        <time>2020-07-11T06:50:28.591Z</time>
      </trkpt>
      <trkpt lat="44.05175" lon="5.24678">
        <ele>378</ele>
        <time>2020-07-11T06:50:29.591Z</time>
      </trkpt>
      <trkpt lat="44.05177" lon="5.24675">
        <ele>378</ele>
        <time>2020-07-11T06:50:30.590Z</time>
      </trkpt>
      <trkpt lat="44.05181" lon="5.2467">
        <ele>378</ele>
        <time>2020-07-11T06:50:31.591Z</time>
      </trkpt>
      <trkpt lat="44.05183" lon="5.24667">
        <ele>379</ele>
        <time>2020-07-11T06:50:32.590Z</time>
      </trkpt>
      <trkpt lat="44.05185" lon="5.24662">
        <ele>379</ele>
        <time>2020-07-11T06:50:33.591Z</time>
      </trkpt>
      <trkpt lat="44.05186" lon="5.24656">
        <ele>379</ele>
        <time>2020-07-11T06:50:34.591Z</time>
      </trkpt>
      <trkpt lat="44.05186" lon="5.24651">
        <ele>379</ele>
        <time>2020-07-11T06:50:35.591Z</time>
      </trkpt>
      <trkpt lat="44.05187" lon="5.24647">
        <ele>379</ele>
        <time>2020-07-11T06:50:36.591Z</time>
      </trkpt>
      <trkpt lat="44.05186" lon="5.24641">
        <ele>380</ele>
        <time>2020-07-11T06:50:37.590Z</time>
      </trkpt>
      <trkpt lat="44.05185" lon="5.24636">
        <ele>380</ele>
        <time>2020-07-11T06:50:38.591Z</time>
      </trkpt>
      <trkpt lat="44.05184" lon="5.2463">
        <ele>381</ele>
        <time>2020-07-11T06:50:39.591Z</time>
      </trkpt>
      <trkpt lat="44.05182" lon="5.24627">
        <ele>382</ele>
        <time>2020-07-11T06:50:40.591Z</time>
      </trkpt>
      <trkpt lat="44.05179" lon="5.24623">
        <ele>383</ele>
        <time>2020-07-11T06:50:41.591Z</time>
      </trkpt>
      <trkpt lat="44.05176" lon="5.2462">
        <ele>384</ele>
        <time>2020-07-11T06:50:42.591Z</time>
      </trkpt>
      <trkpt lat="44.05172" lon="5.24618">
        <ele>385</ele>
        <time>2020-07-11T06:50:43.591Z</time>
      </trkpt>
      <trkpt lat="44.05167" lon="5.24615">
        <ele>386</ele>
        <time>2020-07-11T06:50:44.591Z</time>
      </trkpt>
      <trkpt lat="44.05163" lon="5.24615">
        <ele>386</ele>
        <time>2020-07-11T06:50:45.591Z</time>
      </trkpt>
      <trkpt lat="44.0516" lon="5.24614">
        <ele>386</ele>
        <time>2020-07-11T06:50:46.591Z</time>
      </trkpt>
      <trkpt lat="44.05155" lon="5.24613">
        <ele>386</ele>
        <time>2020-07-11T06:50:47.591Z</time>
      </trkpt>
      <trkpt lat="44.05151" lon="5.24612">
        <ele>386</ele>
        <time>2020-07-11T06:50:48.590Z</time>
      </trkpt>
      <trkpt lat="44.05148" lon="5.24612">
        <ele>386</ele>
        <time>2020-07-11T06:50:49.591Z</time>
      </trkpt>
      <trkpt lat="44.05144" lon="5.24612">
        <ele>386</ele>
        <time>2020-07-11T06:50:50.591Z</time>
      </trkpt>
      <trkpt lat="44.0514" lon="5.24611">
        <ele>386</ele>
        <time>2020-07-11T06:50:51.590Z</time>
      </trkpt>
      <trkpt lat="44.05136" lon="5.2461">
        <ele>386</ele>
        <time>2020-07-11T06:50:52.591Z</time>
      </trkpt>
      <trkpt lat="44.05131" lon="5.24609">
        <ele>386</ele>
        <time>2020-07-11T06:50:53.591Z</time>
      </trkpt>
      <trkpt lat="44.05128" lon="5.24608">
        <ele>386</ele>
        <time>2020-07-11T06:50:54.591Z</time>
      </trkpt>
      <trkpt lat="44.05124" lon="5.24608">
        <ele>386</ele>
        <time>2020-07-11T06:50:55.591Z</time>
      </trkpt>
      <trkpt lat="44.05121" lon="5.24607">
        <ele>386</ele>
        <time>2020-07-11T06:50:56.591Z</time>
      </trkpt>
      <trkpt lat="44.05117" lon="5.24606">
        <ele>386</ele>
        <time>2020-07-11T06:50:57.590Z</time>
      </trkpt>
      <trkpt lat="44.05113" lon="5.24606">
        <ele>386</ele>
        <time>2020-07-11T06:50:58.591Z</time>
      </trkpt>
      <trkpt lat="44.05109" lon="5.24605">
        <ele>386</ele>
        <time>2020-07-11T06:50:59.591Z</time>
      </trkpt>
      <trkpt lat="44.05105" lon="5.24604">
        <ele>387</ele>
        <time>2020-07-11T06:51:00.591Z</time>
      </trkpt>
      <trkpt lat="44.05101" lon="5.24603">
        <ele>387</ele>
        <time>2020-07-11T06:51:01.591Z</time>
      </trkpt>
      <trkpt lat="44.05098" lon="5.24602">
        <ele>388</ele>
        <time>2020-07-11T06:51:02.591Z</time>
      </trkpt>
      <trkpt lat="44.05094" lon="5.24601">
        <ele>388</ele>
        <time>2020-07-11T06:51:03.591Z</time>
      </trkpt>
      <trkpt lat="44.0509" lon="5.246">
        <ele>388</ele>
        <time>2020-07-11T06:51:04.590Z</time>
      </trkpt>
      <trkpt lat="44.05086" lon="5.24599">
        <ele>388</ele>
        <time>2020-07-11T06:51:05.591Z</time>
      </trkpt>
      <trkpt lat="44.05082" lon="5.24598">
        <ele>388</ele>
        <time>2020-07-11T06:51:06.591Z</time>
      </trkpt>
      <trkpt lat="44.05079" lon="5.24597">
        <ele>388</ele>
        <time>2020-07-11T06:51:07.591Z</time>
      </trkpt>
      <trkpt lat="44.05075" lon="5.24597">
        <ele>388</ele>
        <time>2020-07-11T06:51:08.591Z</time>
      </trkpt>
      <trkpt lat="44.05071" lon="5.24596">
        <ele>388</ele>
        <time>2020-07-11T06:51:09.591Z</time>
      </trkpt>
      <trkpt lat="44.05068" lon="5.24595">
        <ele>388</ele>
        <time>2020-07-11T06:51:10.591Z</time>
      </trkpt>
      <trkpt lat="44.05064" lon="5.24595">
        <ele>388</ele>
        <time>2020-07-11T06:51:11.591Z</time>
      </trkpt>
      <trkpt lat="44.05061" lon="5.24595">
        <ele>389</ele>
        <time>2020-07-11T06:51:12.591Z</time>
      </trkpt>
      <trkpt lat="44.05059" lon="5.24596">
        <ele>389</ele>
        <time>2020-07-11T06:51:13.590Z</time>
      </trkpt>
      <trkpt lat="44.05056" lon="5.24596">
        <ele>389</ele>
        <time>2020-07-11T06:51:14.591Z</time>
      </trkpt>
      <trkpt lat="44.05054" lon="5.24596">
        <ele>390</ele>
        <time>2020-07-11T06:51:15.591Z</time>
      </trkpt>
      <trkpt lat="44.05052" lon="5.24596">
        <ele>389</ele>
        <time>2020-07-11T06:51:16.591Z</time>
      </trkpt>
      <trkpt lat="44.0505" lon="5.24597">
        <ele>389</ele>
        <time>2020-07-11T06:51:17.591Z</time>
      </trkpt>
      <trkpt lat="44.05047" lon="5.24597">
        <ele>389</ele>
        <time>2020-07-11T06:51:18.591Z</time>
      </trkpt>
      <trkpt lat="44.05045" lon="5.24597">
        <ele>389</ele>
        <time>2020-07-11T06:51:19.591Z</time>
      </trkpt>
      <trkpt lat="44.05042" lon="5.24598">
        <ele>389</ele>
        <time>2020-07-11T06:51:20.590Z</time>
      </trkpt>
      <trkpt lat="44.05039" lon="5.24598">
        <ele>388</ele>
        <time>2020-07-11T06:51:21.590Z</time>
      </trkpt>
      <trkpt lat="44.05036" lon="5.24598">
        <ele>388</ele>
        <time>2020-07-11T06:51:22.591Z</time>
      </trkpt>
      <trkpt lat="44.05033" lon="5.24598">
        <ele>388</ele>
        <time>2020-07-11T06:51:23.590Z</time>
      </trkpt>
      <trkpt lat="44.05029" lon="5.24598">
        <ele>388</ele>
        <time>2020-07-11T06:51:24.591Z</time>
      </trkpt>
      <trkpt lat="44.05026" lon="5.24599">
        <ele>388</ele>
        <time>2020-07-11T06:51:25.590Z</time>
      </trkpt>
      <trkpt lat="44.05023" lon="5.24599">
        <ele>388</ele>
        <time>2020-07-11T06:51:26.591Z</time>
      </trkpt>
      <trkpt lat="44.0502" lon="5.246">
        <ele>388</ele>
        <time>2020-07-11T06:51:27.591Z</time>
      </trkpt>
      <trkpt lat="44.05016" lon="5.246">
        <ele>388</ele>
        <time>2020-07-11T06:51:28.591Z</time>
      </trkpt>
      <trkpt lat="44.05013" lon="5.24601">
        <ele>388</ele>
        <time>2020-07-11T06:51:29.591Z</time>
      </trkpt>
      <trkpt lat="44.0501" lon="5.24601">
        <ele>388</ele>
        <time>2020-07-11T06:51:30.590Z</time>
      </trkpt>
      <trkpt lat="44.05006" lon="5.24601">
        <ele>389</ele>
        <time>2020-07-11T06:51:31.591Z</time>
      </trkpt>
      <trkpt lat="44.05003" lon="5.24602">
        <ele>389</ele>
        <time>2020-07-11T06:51:32.591Z</time>
      </trkpt>
      <trkpt lat="44.05" lon="5.24603">
        <ele>389</ele>
        <time>2020-07-11T06:51:33.591Z</time>
      </trkpt>
      <trkpt lat="44.04996" lon="5.24604">
        <ele>389</ele>
        <time>2020-07-11T06:51:34.591Z</time>
      </trkpt>
      <trkpt lat="44.04993" lon="5.24604">
        <ele>389</ele>
        <time>2020-07-11T06:51:35.590Z</time>
      </trkpt>
      <trkpt lat="44.04989" lon="5.24604">
        <ele>389</ele>
        <time>2020-07-11T06:51:36.591Z</time>
      </trkpt>
      <trkpt lat="44.04986" lon="5.24605">
        <ele>389</ele>
        <time>2020-07-11T06:51:37.591Z</time>
      </trkpt>
      <trkpt lat="44.04982" lon="5.24605">
        <ele>389</ele>
        <time>2020-07-11T06:51:38.590Z</time>
      </trkpt>
      <trkpt lat="44.04979" lon="5.24605">
        <ele>390</ele>
        <time>2020-07-11T06:51:39.591Z</time>
      </trkpt>
      <trkpt lat="44.04975" lon="5.24605">
        <ele>390</ele>
        <time>2020-07-11T06:51:40.591Z</time>
      </trkpt>
      <trkpt lat="44.04972" lon="5.24606">
        <ele>390</ele>
        <time>2020-07-11T06:51:41.591Z</time>
      </trkpt>
      <trkpt lat="44.04969" lon="5.24606">
        <ele>390</ele>
        <time>2020-07-11T06:51:42.591Z</time>
      </trkpt>
      <trkpt lat="44.04965" lon="5.24607">
        <ele>390</ele>
        <time>2020-07-11T06:51:43.591Z</time>
      </trkpt>
      <trkpt lat="44.04962" lon="5.24608">
        <ele>390</ele>
        <time>2020-07-11T06:51:44.590Z</time>
      </trkpt>
      <trkpt lat="44.04959" lon="5.24608">
        <ele>390</ele>
        <time>2020-07-11T06:51:45.591Z</time>
      </trkpt>
      <trkpt lat="44.04956" lon="5.24608">
        <ele>389</ele>
        <time>2020-07-11T06:51:46.591Z</time>
      </trkpt>
      <trkpt lat="44.04952" lon="5.24609">
        <ele>389</ele>
        <time>2020-07-11T06:51:47.591Z</time>
      </trkpt>
      <trkpt lat="44.04948" lon="5.24609">
        <ele>389</ele>
        <time>2020-07-11T06:51:48.591Z</time>
      </trkpt>
      <trkpt lat="44.04946" lon="5.2461">
        <ele>389</ele>
        <time>2020-07-11T06:51:49.591Z</time>
      </trkpt>
      <trkpt lat="44.04942" lon="5.2461">
        <ele>388</ele>
        <time>2020-07-11T06:51:50.591Z</time>
      </trkpt>
      <trkpt lat="44.04939" lon="5.2461">
        <ele>388</ele>
        <time>2020-07-11T06:51:51.590Z</time>
      </trkpt>
      <trkpt lat="44.04934" lon="5.24611">
        <ele>389</ele>
        <time>2020-07-11T06:51:52.591Z</time>
      </trkpt>
      <trkpt lat="44.04931" lon="5.24611">
        <ele>389</ele>
        <time>2020-07-11T06:51:53.591Z</time>
      </trkpt>
      <trkpt lat="44.04928" lon="5.24611">
        <ele>389</ele>
        <time>2020-07-11T06:51:54.590Z</time>
      </trkpt>
      <trkpt lat="44.04923" lon="5.24611">
        <ele>390</ele>
        <time>2020-07-11T06:51:55.590Z</time>
      </trkpt>
      <trkpt lat="44.0492" lon="5.24611">
        <ele>390</ele>
        <time>2020-07-11T06:51:56.591Z</time>
      </trkpt>
      <trkpt lat="44.04916" lon="5.24611">
        <ele>390</ele>
        <time>2020-07-11T06:51:57.591Z</time>
      </trkpt>
      <trkpt lat="44.04912" lon="5.24612">
        <ele>390</ele>
        <time>2020-07-11T06:51:58.591Z</time>
      </trkpt>
      <trkpt lat="44.04909" lon="5.24613">
        <ele>391</ele>
        <time>2020-07-11T06:51:59.591Z</time>
      </trkpt>
      <trkpt lat="44.04905" lon="5.24613">
        <ele>391</ele>
        <time>2020-07-11T06:52:00.591Z</time>
      </trkpt>
      <trkpt lat="44.04901" lon="5.24614">
        <ele>391</ele>
        <time>2020-07-11T06:52:01.591Z</time>
      </trkpt>
      <trkpt lat="44.04897" lon="5.24614">
        <ele>391</ele>
        <time>2020-07-11T06:52:02.591Z</time>
      </trkpt>
      <trkpt lat="44.04893" lon="5.24614">
        <ele>391</ele>
        <time>2020-07-11T06:52:03.590Z</time>
      </trkpt>
      <trkpt lat="44.0489" lon="5.24614">
        <ele>391</ele>
        <time>2020-07-11T06:52:04.591Z</time>
      </trkpt>
      <trkpt lat="44.04886" lon="5.24614">
        <ele>392</ele>
        <time>2020-07-11T06:52:05.591Z</time>
      </trkpt>
      <trkpt lat="44.04881" lon="5.24613">
        <ele>392</ele>
        <time>2020-07-11T06:52:06.590Z</time>
      </trkpt>
      <trkpt lat="44.04878" lon="5.24613">
        <ele>392</ele>
        <time>2020-07-11T06:52:07.591Z</time>
      </trkpt>
      <trkpt lat="44.04874" lon="5.24612">
        <ele>393</ele>
        <time>2020-07-11T06:52:08.591Z</time>
      </trkpt>
      <trkpt lat="44.0487" lon="5.24611">
        <ele>393</ele>
        <time>2020-07-11T06:52:09.591Z</time>
      </trkpt>
      <trkpt lat="44.04866" lon="5.2461">
        <ele>393</ele>
        <time>2020-07-11T06:52:10.590Z</time>
      </trkpt>
      <trkpt lat="44.04863" lon="5.24609">
        <ele>393</ele>
        <time>2020-07-11T06:52:11.591Z</time>
      </trkpt>
      <trkpt lat="44.04859" lon="5.24608">
        <ele>393</ele>
        <time>2020-07-11T06:52:12.591Z</time>
      </trkpt>
      <trkpt lat="44.04855" lon="5.24606">
        <ele>393</ele>
        <time>2020-07-11T06:52:13.591Z</time>
      </trkpt>
      <trkpt lat="44.04852" lon="5.24605">
        <ele>394</ele>
        <time>2020-07-11T06:52:14.590Z</time>
      </trkpt>
      <trkpt lat="44.04847" lon="5.24604">
        <ele>394</ele>
        <time>2020-07-11T06:52:15.591Z</time>
      </trkpt>
      <trkpt lat="44.04845" lon="5.24603">
        <ele>393</ele>
        <time>2020-07-11T06:52:16.590Z</time>
      </trkpt>
      <trkpt lat="44.04841" lon="5.24602">
        <ele>394</ele>
        <time>2020-07-11T06:52:17.591Z</time>
      </trkpt>
      <trkpt lat="44.04837" lon="5.24601">
        <ele>394</ele>
        <time>2020-07-11T06:52:18.591Z</time>
      </trkpt>
      <trkpt lat="44.04835" lon="5.24601">
        <ele>394</ele>
        <time>2020-07-11T06:52:19.590Z</time>
      </trkpt>
      <trkpt lat="44.04831" lon="5.246">
        <ele>394</ele>
        <time>2020-07-11T06:52:20.591Z</time>
      </trkpt>
      <trkpt lat="44.04828" lon="5.246">
        <ele>394</ele>
        <time>2020-07-11T06:52:21.591Z</time>
      </trkpt>
      <trkpt lat="44.04824" lon="5.246">
        <ele>394</ele>
        <time>2020-07-11T06:52:22.590Z</time>
      </trkpt>
      <trkpt lat="44.04821" lon="5.246">
        <ele>394</ele>
        <time>2020-07-11T06:52:23.591Z</time>
      </trkpt>
      <trkpt lat="44.04817" lon="5.246">
        <ele>394</ele>
        <time>2020-07-11T06:52:24.591Z</time>
      </trkpt>
      <trkpt lat="44.04814" lon="5.246">
        <ele>394</ele>
        <time>2020-07-11T06:52:25.590Z</time>
      </trkpt>
      <trkpt lat="44.0481" lon="5.246">
        <ele>394</ele>
        <time>2020-07-11T06:52:26.591Z</time>
      </trkpt>
      <trkpt lat="44.04806" lon="5.24601">
        <ele>395</ele>
        <time>2020-07-11T06:52:27.591Z</time>
      </trkpt>
      <trkpt lat="44.04803" lon="5.24601">
        <ele>395</ele>
        <time>2020-07-11T06:52:28.591Z</time>
      </trkpt>
      <trkpt lat="44.048" lon="5.24602">
        <ele>395</ele>
        <time>2020-07-11T06:52:29.591Z</time>
      </trkpt>
      <trkpt lat="44.04796" lon="5.24602">
        <ele>395</ele>
        <time>2020-07-11T06:52:30.591Z</time>
      </trkpt>
      <trkpt lat="44.04793" lon="5.24603">
        <ele>395</ele>
        <time>2020-07-11T06:52:31.591Z</time>
      </trkpt>
      <trkpt lat="44.04789" lon="5.24603">
        <ele>394</ele>
        <time>2020-07-11T06:52:32.590Z</time>
      </trkpt>
      <trkpt lat="44.04786" lon="5.24604">
        <ele>394</ele>
        <time>2020-07-11T06:52:33.591Z</time>
      </trkpt>
      <trkpt lat="44.04782" lon="5.24604">
        <ele>394</ele>
        <time>2020-07-11T06:52:34.591Z</time>
      </trkpt>
      <trkpt lat="44.04779" lon="5.24605">
        <ele>394</ele>
        <time>2020-07-11T06:52:35.591Z</time>
      </trkpt>
      <trkpt lat="44.04774" lon="5.24605">
        <ele>395</ele>
        <time>2020-07-11T06:52:36.590Z</time>
      </trkpt>
      <trkpt lat="44.04772" lon="5.24606">
        <ele>395</ele>
        <time>2020-07-11T06:52:37.591Z</time>
      </trkpt>
      <trkpt lat="44.04768" lon="5.24606">
        <ele>395</ele>
        <time>2020-07-11T06:52:38.591Z</time>
      </trkpt>
      <trkpt lat="44.04765" lon="5.24607">
        <ele>395</ele>
        <time>2020-07-11T06:52:39.590Z</time>
      </trkpt>
      <trkpt lat="44.04762" lon="5.24607">
        <ele>396</ele>
        <time>2020-07-11T06:52:40.591Z</time>
      </trkpt>
      <trkpt lat="44.04759" lon="5.24608">
        <ele>396</ele>
        <time>2020-07-11T06:52:41.591Z</time>
      </trkpt>
      <trkpt lat="44.04756" lon="5.24609">
        <ele>396</ele>
        <time>2020-07-11T06:52:42.591Z</time>
      </trkpt>
      <trkpt lat="44.04752" lon="5.2461">
        <ele>396</ele>
        <time>2020-07-11T06:52:43.590Z</time>
      </trkpt>
      <trkpt lat="44.04749" lon="5.24611">
        <ele>396</ele>
        <time>2020-07-11T06:52:44.591Z</time>
      </trkpt>
      <trkpt lat="44.04745" lon="5.24613">
        <ele>396</ele>
        <time>2020-07-11T06:52:45.591Z</time>
      </trkpt>
      <trkpt lat="44.04742" lon="5.24615">
        <ele>397</ele>
        <time>2020-07-11T06:52:46.590Z</time>
      </trkpt>
      <trkpt lat="44.04739" lon="5.24616">
        <ele>397</ele>
        <time>2020-07-11T06:52:47.591Z</time>
      </trkpt>
      <trkpt lat="44.04736" lon="5.24617">
        <ele>398</ele>
        <time>2020-07-11T06:52:48.590Z</time>
      </trkpt>
      <trkpt lat="44.04731" lon="5.24618">
        <ele>398</ele>
        <time>2020-07-11T06:52:49.591Z</time>
      </trkpt>
      <trkpt lat="44.04728" lon="5.24618">
        <ele>398</ele>
        <time>2020-07-11T06:52:50.591Z</time>
      </trkpt>
      <trkpt lat="44.04724" lon="5.24618">
        <ele>398</ele>
        <time>2020-07-11T06:52:51.591Z</time>
      </trkpt>
      <trkpt lat="44.0472" lon="5.24618">
        <ele>398</ele>
        <time>2020-07-11T06:52:52.591Z</time>
      </trkpt>
      <trkpt lat="44.04716" lon="5.24618">
        <ele>398</ele>
        <time>2020-07-11T06:52:53.590Z</time>
      </trkpt>
      <trkpt lat="44.04711" lon="5.24616">
        <ele>399</ele>
        <time>2020-07-11T06:52:54.591Z</time>
      </trkpt>
      <trkpt lat="44.04709" lon="5.24615">
        <ele>399</ele>
        <time>2020-07-11T06:52:55.591Z</time>
      </trkpt>
      <trkpt lat="44.04705" lon="5.24614">
        <ele>399</ele>
        <time>2020-07-11T06:52:56.591Z</time>
      </trkpt>
      <trkpt lat="44.04701" lon="5.24612">
        <ele>398</ele>
        <time>2020-07-11T06:52:57.591Z</time>
      </trkpt>
      <trkpt lat="44.04697" lon="5.2461">
        <ele>399</ele>
        <time>2020-07-11T06:52:58.590Z</time>
      </trkpt>
      <trkpt lat="44.04693" lon="5.24608">
        <ele>399</ele>
        <time>2020-07-11T06:52:59.591Z</time>
      </trkpt>
      <trkpt lat="44.04689" lon="5.24606">
        <ele>399</ele>
        <time>2020-07-11T06:53:00.591Z</time>
      </trkpt>
      <trkpt lat="44.04686" lon="5.24604">
        <ele>399</ele>
        <time>2020-07-11T06:53:01.590Z</time>
      </trkpt>
      <trkpt lat="44.04682" lon="5.24603">
        <ele>400</ele>
        <time>2020-07-11T06:53:02.590Z</time>
      </trkpt>
      <trkpt lat="44.04678" lon="5.24601">
        <ele>400</ele>
        <time>2020-07-11T06:53:03.591Z</time>
      </trkpt>
      <trkpt lat="44.04674" lon="5.24599">
        <ele>400</ele>
        <time>2020-07-11T06:53:04.591Z</time>
      </trkpt>
      <trkpt lat="44.0467" lon="5.24597">
        <ele>401</ele>
        <time>2020-07-11T06:53:05.591Z</time>
      </trkpt>
      <trkpt lat="44.04666" lon="5.24595">
        <ele>402</ele>
        <time>2020-07-11T06:53:06.590Z</time>
      </trkpt>
      <trkpt lat="44.04662" lon="5.24592">
        <ele>402</ele>
        <time>2020-07-11T06:53:07.591Z</time>
      </trkpt>
      <trkpt lat="44.04658" lon="5.2459">
        <ele>403</ele>
        <time>2020-07-11T06:53:08.590Z</time>
      </trkpt>
      <trkpt lat="44.04654" lon="5.24588">
        <ele>403</ele>
        <time>2020-07-11T06:53:09.590Z</time>
      </trkpt>
      <trkpt lat="44.0465" lon="5.24586">
        <ele>403</ele>
        <time>2020-07-11T06:53:10.591Z</time>
      </trkpt>
      <trkpt lat="44.04646" lon="5.24584">
        <ele>404</ele>
        <time>2020-07-11T06:53:11.591Z</time>
      </trkpt>
      <trkpt lat="44.04642" lon="5.24582">
        <ele>404</ele>
        <time>2020-07-11T06:53:12.591Z</time>
      </trkpt>
      <trkpt lat="44.04637" lon="5.24579">
        <ele>404</ele>
        <time>2020-07-11T06:53:13.591Z</time>
      </trkpt>
      <trkpt lat="44.04633" lon="5.24578">
        <ele>404</ele>
        <time>2020-07-11T06:53:14.591Z</time>
      </trkpt>
      <trkpt lat="44.04629" lon="5.24576">
        <ele>404</ele>
        <time>2020-07-11T06:53:15.591Z</time>
      </trkpt>
      <trkpt lat="44.04625" lon="5.24573">
        <ele>405</ele>
        <time>2020-07-11T06:53:16.591Z</time>
      </trkpt>
      <trkpt lat="44.04621" lon="5.24572">
        <ele>405</ele>
        <time>2020-07-11T06:53:17.590Z</time>
      </trkpt>
      <trkpt lat="44.04615" lon="5.24569">
        <ele>405</ele>
        <time>2020-07-11T06:53:18.590Z</time>
      </trkpt>
      <trkpt lat="44.04611" lon="5.24568">
        <ele>405</ele>
        <time>2020-07-11T06:53:19.590Z</time>
      </trkpt>
      <trkpt lat="44.04608" lon="5.24566">
        <ele>405</ele>
        <time>2020-07-11T06:53:20.591Z</time>
      </trkpt>
      <trkpt lat="44.04603" lon="5.24564">
        <ele>405</ele>
        <time>2020-07-11T06:53:21.591Z</time>
      </trkpt>
      <trkpt lat="44.04599" lon="5.24562">
        <ele>405</ele>
        <time>2020-07-11T06:53:22.590Z</time>
      </trkpt>
      <trkpt lat="44.04594" lon="5.2456">
        <ele>405</ele>
        <time>2020-07-11T06:53:23.591Z</time>
      </trkpt>
      <trkpt lat="44.0459" lon="5.24558">
        <ele>405</ele>
        <time>2020-07-11T06:53:24.591Z</time>
      </trkpt>
      <trkpt lat="44.04585" lon="5.24556">
        <ele>405</ele>
        <time>2020-07-11T06:53:25.591Z</time>
      </trkpt>
      <trkpt lat="44.0458" lon="5.24554">
        <ele>405</ele>
        <time>2020-07-11T06:53:26.591Z</time>
      </trkpt>
      <trkpt lat="44.04575" lon="5.24553">
        <ele>405</ele>
        <time>2020-07-11T06:53:27.591Z</time>
      </trkpt>
      <trkpt lat="44.04572" lon="5.24552">
        <ele>405</ele>
        <time>2020-07-11T06:53:28.591Z</time>
      </trkpt>
      <trkpt lat="44.04567" lon="5.24551">
        <ele>405</ele>
        <time>2020-07-11T06:53:29.590Z</time>
      </trkpt>
      <trkpt lat="44.04562" lon="5.2455">
        <ele>405</ele>
        <time>2020-07-11T06:53:30.590Z</time>
      </trkpt>
      <trkpt lat="44.04558" lon="5.2455">
        <ele>405</ele>
        <time>2020-07-11T06:53:31.590Z</time>
      </trkpt>
      <trkpt lat="44.04553" lon="5.2455">
        <ele>405</ele>
        <time>2020-07-11T06:53:32.591Z</time>
      </trkpt>
      <trkpt lat="44.04549" lon="5.24551">
        <ele>405</ele>
        <time>2020-07-11T06:53:33.591Z</time>
      </trkpt>
      <trkpt lat="44.04544" lon="5.24552">
        <ele>406</ele>
        <time>2020-07-11T06:53:34.591Z</time>
      </trkpt>
      <trkpt lat="44.04539" lon="5.24553">
        <ele>406</ele>
        <time>2020-07-11T06:53:35.591Z</time>
      </trkpt>
      <trkpt lat="44.04535" lon="5.24554">
        <ele>407</ele>
        <time>2020-07-11T06:53:36.591Z</time>
      </trkpt>
      <trkpt lat="44.0453" lon="5.24556">
        <ele>407</ele>
        <time>2020-07-11T06:53:37.591Z</time>
      </trkpt>
      <trkpt lat="44.04526" lon="5.24558">
        <ele>407</ele>
        <time>2020-07-11T06:53:38.591Z</time>
      </trkpt>
      <trkpt lat="44.0452" lon="5.24561">
        <ele>407</ele>
        <time>2020-07-11T06:53:39.591Z</time>
      </trkpt>
      <trkpt lat="44.04516" lon="5.24563">
        <ele>407</ele>
        <time>2020-07-11T06:53:40.591Z</time>
      </trkpt>
      <trkpt lat="44.04511" lon="5.24566">
        <ele>407</ele>
        <time>2020-07-11T06:53:41.590Z</time>
      </trkpt>
      <trkpt lat="44.04506" lon="5.24569">
        <ele>407</ele>
        <time>2020-07-11T06:53:42.591Z</time>
      </trkpt>
      <trkpt lat="44.04502" lon="5.24572">
        <ele>406</ele>
        <time>2020-07-11T06:53:43.591Z</time>
      </trkpt>
      <trkpt lat="44.04496" lon="5.24575">
        <ele>406</ele>
        <time>2020-07-11T06:53:44.591Z</time>
      </trkpt>
      <trkpt lat="44.04492" lon="5.24577">
        <ele>406</ele>
        <time>2020-07-11T06:53:45.591Z</time>
      </trkpt>
      <trkpt lat="44.04487" lon="5.2458">
        <ele>406</ele>
        <time>2020-07-11T06:53:46.590Z</time>
      </trkpt>
      <trkpt lat="44.04483" lon="5.24583">
        <ele>406</ele>
        <time>2020-07-11T06:53:47.591Z</time>
      </trkpt>
      <trkpt lat="44.04478" lon="5.24585">
        <ele>406</ele>
        <time>2020-07-11T06:53:48.591Z</time>
      </trkpt>
      <trkpt lat="44.04473" lon="5.24588">
        <ele>406</ele>
        <time>2020-07-11T06:53:49.591Z</time>
      </trkpt>
      <trkpt lat="44.04467" lon="5.24592">
        <ele>407</ele>
        <time>2020-07-11T06:53:50.591Z</time>
      </trkpt>
      <trkpt lat="44.04464" lon="5.24595">
        <ele>406</ele>
        <time>2020-07-11T06:53:51.591Z</time>
      </trkpt>
      <trkpt lat="44.04459" lon="5.24598">
        <ele>407</ele>
        <time>2020-07-11T06:53:52.591Z</time>
      </trkpt>
      <trkpt lat="44.04454" lon="5.24603">
        <ele>407</ele>
        <time>2020-07-11T06:53:53.590Z</time>
      </trkpt>
      <trkpt lat="44.0445" lon="5.24607">
        <ele>407</ele>
        <time>2020-07-11T06:53:54.590Z</time>
      </trkpt>
      <trkpt lat="44.04447" lon="5.24611">
        <ele>407</ele>
        <time>2020-07-11T06:53:55.591Z</time>
      </trkpt>
      <trkpt lat="44.04443" lon="5.24616">
        <ele>408</ele>
        <time>2020-07-11T06:53:56.591Z</time>
      </trkpt>
      <trkpt lat="44.0444" lon="5.24621">
        <ele>408</ele>
        <time>2020-07-11T06:53:57.591Z</time>
      </trkpt>
      <trkpt lat="44.04437" lon="5.24627">
        <ele>408</ele>
        <time>2020-07-11T06:53:58.590Z</time>
      </trkpt>
      <trkpt lat="44.04434" lon="5.24633">
        <ele>408</ele>
        <time>2020-07-11T06:53:59.591Z</time>
      </trkpt>
      <trkpt lat="44.04432" lon="5.24638">
        <ele>408</ele>
        <time>2020-07-11T06:54:00.591Z</time>
      </trkpt>
      <trkpt lat="44.04429" lon="5.24645">
        <ele>408</ele>
        <time>2020-07-11T06:54:01.590Z</time>
      </trkpt>
      <trkpt lat="44.04425" lon="5.24652">
        <ele>409</ele>
        <time>2020-07-11T06:54:02.591Z</time>
      </trkpt>
      <trkpt lat="44.04421" lon="5.24658">
        <ele>409</ele>
        <time>2020-07-11T06:54:03.590Z</time>
      </trkpt>
      <trkpt lat="44.04419" lon="5.24662">
        <ele>409</ele>
        <time>2020-07-11T06:54:04.591Z</time>
      </trkpt>
      <trkpt lat="44.04415" lon="5.24668">
        <ele>409</ele>
        <time>2020-07-11T06:54:05.590Z</time>
      </trkpt>
      <trkpt lat="44.04412" lon="5.24673">
        <ele>409</ele>
        <time>2020-07-11T06:54:06.590Z</time>
      </trkpt>
      <trkpt lat="44.04408" lon="5.24677">
        <ele>410</ele>
        <time>2020-07-11T06:54:07.591Z</time>
      </trkpt>
      <trkpt lat="44.04403" lon="5.24681">
        <ele>410</ele>
        <time>2020-07-11T06:54:08.590Z</time>
      </trkpt>
      <trkpt lat="44.04398" lon="5.24685">
        <ele>410</ele>
        <time>2020-07-11T06:54:09.591Z</time>
      </trkpt>
      <trkpt lat="44.04394" lon="5.24687">
        <ele>411</ele>
        <time>2020-07-11T06:54:10.591Z</time>
      </trkpt>
      <trkpt lat="44.04388" lon="5.24688">
        <ele>412</ele>
        <time>2020-07-11T06:54:11.591Z</time>
      </trkpt>
      <trkpt lat="44.04384" lon="5.24688">
        <ele>412</ele>
        <time>2020-07-11T06:54:12.591Z</time>
      </trkpt>
      <trkpt lat="44.04379" lon="5.24688">
        <ele>412</ele>
        <time>2020-07-11T06:54:13.591Z</time>
      </trkpt>
      <trkpt lat="44.04374" lon="5.24687">
        <ele>412</ele>
        <time>2020-07-11T06:54:14.591Z</time>
      </trkpt>
      <trkpt lat="44.04369" lon="5.24685">
        <ele>412</ele>
        <time>2020-07-11T06:54:15.591Z</time>
      </trkpt>
      <trkpt lat="44.04365" lon="5.24683">
        <ele>412</ele>
        <time>2020-07-11T06:54:16.591Z</time>
      </trkpt>
      <trkpt lat="44.0436" lon="5.24679">
        <ele>413</ele>
        <time>2020-07-11T06:54:17.591Z</time>
      </trkpt>
      <trkpt lat="44.04356" lon="5.24674">
        <ele>413</ele>
        <time>2020-07-11T06:54:18.591Z</time>
      </trkpt>
      <trkpt lat="44.04353" lon="5.2467">
        <ele>413</ele>
        <time>2020-07-11T06:54:19.591Z</time>
      </trkpt>
      <trkpt lat="44.0435" lon="5.24664">
        <ele>414</ele>
        <time>2020-07-11T06:54:20.591Z</time>
      </trkpt>
      <trkpt lat="44.04348" lon="5.24658">
        <ele>414</ele>
        <time>2020-07-11T06:54:21.591Z</time>
      </trkpt>
      <trkpt lat="44.04345" lon="5.24651">
        <ele>414</ele>
        <time>2020-07-11T06:54:22.591Z</time>
      </trkpt>
      <trkpt lat="44.04343" lon="5.24645">
        <ele>414</ele>
        <time>2020-07-11T06:54:23.591Z</time>
      </trkpt>
      <trkpt lat="44.04341" lon="5.24638">
        <ele>414</ele>
        <time>2020-07-11T06:54:24.590Z</time>
      </trkpt>
      <trkpt lat="44.0434" lon="5.24631">
        <ele>415</ele>
        <time>2020-07-11T06:54:25.591Z</time>
      </trkpt>
      <trkpt lat="44.04338" lon="5.24624">
        <ele>415</ele>
        <time>2020-07-11T06:54:26.591Z</time>
      </trkpt>
      <trkpt lat="44.04335" lon="5.24617">
        <ele>415</ele>
        <time>2020-07-11T06:54:27.591Z</time>
      </trkpt>
      <trkpt lat="44.04333" lon="5.24612">
        <ele>416</ele>
        <time>2020-07-11T06:54:28.590Z</time>
      </trkpt>
      <trkpt lat="44.0433" lon="5.24606">
        <ele>416</ele>
        <time>2020-07-11T06:54:29.591Z</time>
      </trkpt>
      <trkpt lat="44.04327" lon="5.24602">
        <ele>416</ele>
        <time>2020-07-11T06:54:30.590Z</time>
      </trkpt>
      <trkpt lat="44.04323" lon="5.24597">
        <ele>416</ele>
        <time>2020-07-11T06:54:31.591Z</time>
      </trkpt>
      <trkpt lat="44.04319" lon="5.24594">
        <ele>416</ele>
        <time>2020-07-11T06:54:32.590Z</time>
      </trkpt>
      <trkpt lat="44.04315" lon="5.24591">
        <ele>415</ele>
        <time>2020-07-11T06:54:33.590Z</time>
      </trkpt>
      <trkpt lat="44.0431" lon="5.2459">
        <ele>415</ele>
        <time>2020-07-11T06:54:34.591Z</time>
      </trkpt>
      <trkpt lat="44.04304" lon="5.2459">
        <ele>415</ele>
        <time>2020-07-11T06:54:35.591Z</time>
      </trkpt>
      <trkpt lat="44.04298" lon="5.24591">
        <ele>415</ele>
        <time>2020-07-11T06:54:36.591Z</time>
      </trkpt>
      <trkpt lat="44.04294" lon="5.24593">
        <ele>415</ele>
        <time>2020-07-11T06:54:37.591Z</time>
      </trkpt>
      <trkpt lat="44.04289" lon="5.24595">
        <ele>415</ele>
        <time>2020-07-11T06:54:38.591Z</time>
      </trkpt>
      <trkpt lat="44.04282" lon="5.24599">
        <ele>415</ele>
        <time>2020-07-11T06:54:39.590Z</time>
      </trkpt>
      <trkpt lat="44.04278" lon="5.24603">
        <ele>414</ele>
        <time>2020-07-11T06:54:40.591Z</time>
      </trkpt>
      <trkpt lat="44.04274" lon="5.24606">
        <ele>414</ele>
        <time>2020-07-11T06:54:41.591Z</time>
      </trkpt>
      <trkpt lat="44.04269" lon="5.2461">
        <ele>414</ele>
        <time>2020-07-11T06:54:42.590Z</time>
      </trkpt>
      <trkpt lat="44.04264" lon="5.24614">
        <ele>414</ele>
        <time>2020-07-11T06:54:43.590Z</time>
      </trkpt>
      <trkpt lat="44.04258" lon="5.24619">
        <ele>415</ele>
        <time>2020-07-11T06:54:44.591Z</time>
      </trkpt>
      <trkpt lat="44.04253" lon="5.24623">
        <ele>415</ele>
        <time>2020-07-11T06:54:45.591Z</time>
      </trkpt>
      <trkpt lat="44.0425" lon="5.24626">
        <ele>416</ele>
        <time>2020-07-11T06:54:46.591Z</time>
      </trkpt>
      <trkpt lat="44.04245" lon="5.2463">
        <ele>416</ele>
        <time>2020-07-11T06:54:47.590Z</time>
      </trkpt>
      <trkpt lat="44.0424" lon="5.24634">
        <ele>417</ele>
        <time>2020-07-11T06:54:48.591Z</time>
      </trkpt>
      <trkpt lat="44.04236" lon="5.24637">
        <ele>418</ele>
        <time>2020-07-11T06:54:49.591Z</time>
      </trkpt>
      <trkpt lat="44.04231" lon="5.24641">
        <ele>418</ele>
        <time>2020-07-11T06:54:50.591Z</time>
      </trkpt>
      <trkpt lat="44.04227" lon="5.24644">
        <ele>418</ele>
        <time>2020-07-11T06:54:51.590Z</time>
      </trkpt>
      <trkpt lat="44.04222" lon="5.24647">
        <ele>418</ele>
        <time>2020-07-11T06:54:52.590Z</time>
      </trkpt>
      <trkpt lat="44.04217" lon="5.2465">
        <ele>419</ele>
        <time>2020-07-11T06:54:53.591Z</time>
      </trkpt>
      <trkpt lat="44.04211" lon="5.24652">
        <ele>419</ele>
        <time>2020-07-11T06:54:54.590Z</time>
      </trkpt>
      <trkpt lat="44.04207" lon="5.24654">
        <ele>419</ele>
        <time>2020-07-11T06:54:55.591Z</time>
      </trkpt>
      <trkpt lat="44.04202" lon="5.24656">
        <ele>419</ele>
        <time>2020-07-11T06:54:56.590Z</time>
      </trkpt>
      <trkpt lat="44.04197" lon="5.24658">
        <ele>419</ele>
        <time>2020-07-11T06:54:57.591Z</time>
      </trkpt>
      <trkpt lat="44.04191" lon="5.24661">
        <ele>419</ele>
        <time>2020-07-11T06:54:58.591Z</time>
      </trkpt>
      <trkpt lat="44.04187" lon="5.24662">
        <ele>420</ele>
        <time>2020-07-11T06:54:59.590Z</time>
      </trkpt>
      <trkpt lat="44.04183" lon="5.24664">
        <ele>420</ele>
        <time>2020-07-11T06:55:00.591Z</time>
      </trkpt>
      <trkpt lat="44.04177" lon="5.24667">
        <ele>420</ele>
        <time>2020-07-11T06:55:01.590Z</time>
      </trkpt>
      <trkpt lat="44.04173" lon="5.24669">
        <ele>421</ele>
        <time>2020-07-11T06:55:02.591Z</time>
      </trkpt>
      <trkpt lat="44.04167" lon="5.24671">
        <ele>422</ele>
        <time>2020-07-11T06:55:03.590Z</time>
      </trkpt>
      <trkpt lat="44.04163" lon="5.24673">
        <ele>422</ele>
        <time>2020-07-11T06:55:04.591Z</time>
      </trkpt>
      <trkpt lat="44.04158" lon="5.24675">
        <ele>423</ele>
        <time>2020-07-11T06:55:05.590Z</time>
      </trkpt>
      <trkpt lat="44.04152" lon="5.24677">
        <ele>424</ele>
        <time>2020-07-11T06:55:06.591Z</time>
      </trkpt>
      <trkpt lat="44.04146" lon="5.24678">
        <ele>424</ele>
        <time>2020-07-11T06:55:07.591Z</time>
      </trkpt>
      <trkpt lat="44.04142" lon="5.24679">
        <ele>425</ele>
        <time>2020-07-11T06:55:08.590Z</time>
      </trkpt>
      <trkpt lat="44.04137" lon="5.24679">
        <ele>425</ele>
        <time>2020-07-11T06:55:09.591Z</time>
      </trkpt>
      <trkpt lat="44.0413" lon="5.24679">
        <ele>426</ele>
        <time>2020-07-11T06:55:10.591Z</time>
      </trkpt>
      <trkpt lat="44.04126" lon="5.24679">
        <ele>427</ele>
        <time>2020-07-11T06:55:11.591Z</time>
      </trkpt>
      <trkpt lat="44.04121" lon="5.2468">
        <ele>427</ele>
        <time>2020-07-11T06:55:12.590Z</time>
      </trkpt>
      <trkpt lat="44.04115" lon="5.2468">
        <ele>428</ele>
        <time>2020-07-11T06:55:13.591Z</time>
      </trkpt>
      <trkpt lat="44.0411" lon="5.2468">
        <ele>428</ele>
        <time>2020-07-11T06:55:14.591Z</time>
      </trkpt>
      <trkpt lat="44.04104" lon="5.2468">
        <ele>428</ele>
        <time>2020-07-11T06:55:15.591Z</time>
      </trkpt>
      <trkpt lat="44.04098" lon="5.2468">
        <ele>428</ele>
        <time>2020-07-11T06:55:16.591Z</time>
      </trkpt>
      <trkpt lat="44.04094" lon="5.2468">
        <ele>428</ele>
        <time>2020-07-11T06:55:17.590Z</time>
      </trkpt>
      <trkpt lat="44.04088" lon="5.24681">
        <ele>429</ele>
        <time>2020-07-11T06:55:18.590Z</time>
      </trkpt>
      <trkpt lat="44.04083" lon="5.24681">
        <ele>429</ele>
        <time>2020-07-11T06:55:19.591Z</time>
      </trkpt>
      <trkpt lat="44.04077" lon="5.24682">
        <ele>429</ele>
        <time>2020-07-11T06:55:20.590Z</time>
      </trkpt>
      <trkpt lat="44.04071" lon="5.24683">
        <ele>430</ele>
        <time>2020-07-11T06:55:21.591Z</time>
      </trkpt>
      <trkpt lat="44.04067" lon="5.24683">
        <ele>430</ele>
        <time>2020-07-11T06:55:22.591Z</time>
      </trkpt>
      <trkpt lat="44.04062" lon="5.24684">
        <ele>430</ele>
        <time>2020-07-11T06:55:23.591Z</time>
      </trkpt>
      <trkpt lat="44.04055" lon="5.24686">
        <ele>430</ele>
        <time>2020-07-11T06:55:24.591Z</time>
      </trkpt>
      <trkpt lat="44.04051" lon="5.24686">
        <ele>431</ele>
        <time>2020-07-11T06:55:25.591Z</time>
      </trkpt>
      <trkpt lat="44.04046" lon="5.24688">
        <ele>431</ele>
        <time>2020-07-11T06:55:26.591Z</time>
      </trkpt>
      <trkpt lat="44.04041" lon="5.24689">
        <ele>431</ele>
        <time>2020-07-11T06:55:27.591Z</time>
      </trkpt>
      <trkpt lat="44.04034" lon="5.24691">
        <ele>431</ele>
        <time>2020-07-11T06:55:28.590Z</time>
      </trkpt>
      <trkpt lat="44.0403" lon="5.24693">
        <ele>431</ele>
        <time>2020-07-11T06:55:29.590Z</time>
      </trkpt>
      <trkpt lat="44.04024" lon="5.24696">
        <ele>432</ele>
        <time>2020-07-11T06:55:30.591Z</time>
      </trkpt>
      <trkpt lat="44.04021" lon="5.24699">
        <ele>432</ele>
        <time>2020-07-11T06:55:31.590Z</time>
      </trkpt>
      <trkpt lat="44.04016" lon="5.24702">
        <ele>433</ele>
        <time>2020-07-11T06:55:32.590Z</time>
      </trkpt>
      <trkpt lat="44.04012" lon="5.24707">
        <ele>433</ele>
        <time>2020-07-11T06:55:33.591Z</time>
      </trkpt>
      <trkpt lat="44.04008" lon="5.24711">
        <ele>433</ele>
        <time>2020-07-11T06:55:34.591Z</time>
      </trkpt>
      <trkpt lat="44.04005" lon="5.24717">
        <ele>433</ele>
        <time>2020-07-11T06:55:35.591Z</time>
      </trkpt>
      <trkpt lat="44.04002" lon="5.24722">
        <ele>433</ele>
        <time>2020-07-11T06:55:36.590Z</time>
      </trkpt>
      <trkpt lat="44.04" lon="5.24729">
        <ele>433</ele>
        <time>2020-07-11T06:55:37.590Z</time>
      </trkpt>
      <trkpt lat="44.03997" lon="5.24735">
        <ele>433</ele>
        <time>2020-07-11T06:55:38.590Z</time>
      </trkpt>
      <trkpt lat="44.03995" lon="5.24743">
        <ele>433</ele>
        <time>2020-07-11T06:55:39.590Z</time>
      </trkpt>
      <trkpt lat="44.03993" lon="5.24748">
        <ele>433</ele>
        <time>2020-07-11T06:55:40.591Z</time>
      </trkpt>
      <trkpt lat="44.03991" lon="5.24755">
        <ele>433</ele>
        <time>2020-07-11T06:55:41.591Z</time>
      </trkpt>
      <trkpt lat="44.0399" lon="5.24763">
        <ele>433</ele>
        <time>2020-07-11T06:55:42.591Z</time>
      </trkpt>
      <trkpt lat="44.03989" lon="5.24768">
        <ele>433</ele>
        <time>2020-07-11T06:55:43.591Z</time>
      </trkpt>
      <trkpt lat="44.03989" lon="5.24775">
        <ele>433</ele>
        <time>2020-07-11T06:55:44.591Z</time>
      </trkpt>
      <trkpt lat="44.03989" lon="5.24782">
        <ele>433</ele>
        <time>2020-07-11T06:55:45.591Z</time>
      </trkpt>
      <trkpt lat="44.0399" lon="5.24789">
        <ele>432</ele>
        <time>2020-07-11T06:55:46.591Z</time>
      </trkpt>
      <trkpt lat="44.03991" lon="5.24795">
        <ele>432</ele>
        <time>2020-07-11T06:55:47.591Z</time>
      </trkpt>
      <trkpt lat="44.03994" lon="5.24802">
        <ele>432</ele>
        <time>2020-07-11T06:55:48.590Z</time>
      </trkpt>
      <trkpt lat="44.03996" lon="5.24807">
        <ele>432</ele>
        <time>2020-07-11T06:55:49.591Z</time>
      </trkpt>
      <trkpt lat="44.03999" lon="5.24813">
        <ele>431</ele>
        <time>2020-07-11T06:55:50.591Z</time>
      </trkpt>
      <trkpt lat="44.04004" lon="5.24819">
        <ele>431</ele>
        <time>2020-07-11T06:55:51.590Z</time>
      </trkpt>
      <trkpt lat="44.04007" lon="5.24823">
        <ele>431</ele>
        <time>2020-07-11T06:55:52.591Z</time>
      </trkpt>
      <trkpt lat="44.04011" lon="5.24828">
        <ele>430</ele>
        <time>2020-07-11T06:55:53.590Z</time>
      </trkpt>
      <trkpt lat="44.04016" lon="5.24833">
        <ele>430</ele>
        <time>2020-07-11T06:55:54.591Z</time>
      </trkpt>
      <trkpt lat="44.0402" lon="5.24838">
        <ele>430</ele>
        <time>2020-07-11T06:55:55.591Z</time>
      </trkpt>
      <trkpt lat="44.04024" lon="5.24843">
        <ele>430</ele>
        <time>2020-07-11T06:55:56.591Z</time>
      </trkpt>
      <trkpt lat="44.04029" lon="5.2485">
        <ele>430</ele>
        <time>2020-07-11T06:55:57.590Z</time>
      </trkpt>
      <trkpt lat="44.04032" lon="5.24854">
        <ele>429</ele>
        <time>2020-07-11T06:55:58.591Z</time>
      </trkpt>
      <trkpt lat="44.04037" lon="5.2486">
        <ele>429</ele>
        <time>2020-07-11T06:55:59.591Z</time>
      </trkpt>
      <trkpt lat="44.04042" lon="5.24866">
        <ele>429</ele>
        <time>2020-07-11T06:56:00.591Z</time>
      </trkpt>
      <trkpt lat="44.04046" lon="5.24871">
        <ele>429</ele>
        <time>2020-07-11T06:56:01.591Z</time>
      </trkpt>
      <trkpt lat="44.0405" lon="5.24876">
        <ele>428</ele>
        <time>2020-07-11T06:56:02.590Z</time>
      </trkpt>
      <trkpt lat="44.04054" lon="5.24879">
        <ele>428</ele>
        <time>2020-07-11T06:56:03.590Z</time>
      </trkpt>
      <trkpt lat="44.04058" lon="5.24883">
        <ele>428</ele>
        <time>2020-07-11T06:56:04.590Z</time>
      </trkpt>
      <trkpt lat="44.04062" lon="5.24886">
        <ele>428</ele>
        <time>2020-07-11T06:56:05.591Z</time>
      </trkpt>
      <trkpt lat="44.04064" lon="5.2489">
        <ele>429</ele>
        <time>2020-07-11T06:56:06.591Z</time>
      </trkpt>
      <trkpt lat="44.04066" lon="5.24892">
        <ele>429</ele>
        <time>2020-07-11T06:56:07.590Z</time>
      </trkpt>
      <trkpt lat="44.04069" lon="5.24895">
        <ele>429</ele>
        <time>2020-07-11T06:56:08.590Z</time>
      </trkpt>
      <trkpt lat="44.04072" lon="5.24899">
        <ele>429</ele>
        <time>2020-07-11T06:56:09.591Z</time>
      </trkpt>
      <trkpt lat="44.04075" lon="5.24903">
        <ele>430</ele>
        <time>2020-07-11T06:56:10.591Z</time>
      </trkpt>
      <trkpt lat="44.04078" lon="5.24907">
        <ele>430</ele>
        <time>2020-07-11T06:56:11.590Z</time>
      </trkpt>
      <trkpt lat="44.04081" lon="5.24911">
        <ele>431</ele>
        <time>2020-07-11T06:56:12.590Z</time>
      </trkpt>
      <trkpt lat="44.04085" lon="5.24916">
        <ele>431</ele>
        <time>2020-07-11T06:56:13.591Z</time>
      </trkpt>
      <trkpt lat="44.04089" lon="5.2492">
        <ele>431</ele>
        <time>2020-07-11T06:56:14.591Z</time>
      </trkpt>
      <trkpt lat="44.04093" lon="5.24925">
        <ele>431</ele>
        <time>2020-07-11T06:56:15.591Z</time>
      </trkpt>
      <trkpt lat="44.04097" lon="5.2493">
        <ele>431</ele>
        <time>2020-07-11T06:56:16.591Z</time>
      </trkpt>
      <trkpt lat="44.04102" lon="5.24935">
        <ele>431</ele>
        <time>2020-07-11T06:56:17.590Z</time>
      </trkpt>
      <trkpt lat="44.04107" lon="5.2494">
        <ele>430</ele>
        <time>2020-07-11T06:56:18.590Z</time>
      </trkpt>
      <trkpt lat="44.04111" lon="5.24945">
        <ele>429</ele>
        <time>2020-07-11T06:56:19.591Z</time>
      </trkpt>
      <trkpt lat="44.04114" lon="5.24949">
        <ele>428</ele>
        <time>2020-07-11T06:56:20.590Z</time>
      </trkpt>
      <trkpt lat="44.04119" lon="5.24955">
        <ele>428</ele>
        <time>2020-07-11T06:56:21.591Z</time>
      </trkpt>
      <trkpt lat="44.04123" lon="5.24959">
        <ele>428</ele>
        <time>2020-07-11T06:56:22.590Z</time>
      </trkpt>
      <trkpt lat="44.04127" lon="5.24964">
        <ele>428</ele>
        <time>2020-07-11T06:56:23.590Z</time>
      </trkpt>
      <trkpt lat="44.04132" lon="5.24969">
        <ele>429</ele>
        <time>2020-07-11T06:56:24.591Z</time>
      </trkpt>
      <trkpt lat="44.04136" lon="5.24975">
        <ele>429</ele>
        <time>2020-07-11T06:56:25.591Z</time>
      </trkpt>
      <trkpt lat="44.0414" lon="5.2498">
        <ele>429</ele>
        <time>2020-07-11T06:56:26.591Z</time>
      </trkpt>
      <trkpt lat="44.04144" lon="5.24984">
        <ele>429</ele>
        <time>2020-07-11T06:56:27.591Z</time>
      </trkpt>
      <trkpt lat="44.04149" lon="5.24989">
        <ele>429</ele>
        <time>2020-07-11T06:56:28.590Z</time>
      </trkpt>
      <trkpt lat="44.04153" lon="5.24994">
        <ele>429</ele>
        <time>2020-07-11T06:56:29.591Z</time>
      </trkpt>
      <trkpt lat="44.04157" lon="5.24998">
        <ele>429</ele>
        <time>2020-07-11T06:56:30.591Z</time>
      </trkpt>
      <trkpt lat="44.04161" lon="5.25003">
        <ele>429</ele>
        <time>2020-07-11T06:56:31.590Z</time>
      </trkpt>
      <trkpt lat="44.04165" lon="5.25008">
        <ele>429</ele>
        <time>2020-07-11T06:56:32.591Z</time>
      </trkpt>
      <trkpt lat="44.04169" lon="5.25012">
        <ele>429</ele>
        <time>2020-07-11T06:56:33.591Z</time>
      </trkpt>
      <trkpt lat="44.04174" lon="5.25017">
        <ele>428</ele>
        <time>2020-07-11T06:56:34.591Z</time>
      </trkpt>
      <trkpt lat="44.04177" lon="5.25021">
        <ele>428</ele>
        <time>2020-07-11T06:56:35.591Z</time>
      </trkpt>
      <trkpt lat="44.04181" lon="5.25026">
        <ele>429</ele>
        <time>2020-07-11T06:56:36.591Z</time>
      </trkpt>
      <trkpt lat="44.04185" lon="5.25031">
        <ele>428</ele>
        <time>2020-07-11T06:56:37.590Z</time>
      </trkpt>
      <trkpt lat="44.0419" lon="5.25036">
        <ele>429</ele>
        <time>2020-07-11T06:56:38.591Z</time>
      </trkpt>
      <trkpt lat="44.04193" lon="5.2504">
        <ele>429</ele>
        <time>2020-07-11T06:56:39.590Z</time>
      </trkpt>
      <trkpt lat="44.04197" lon="5.25045">
        <ele>429</ele>
        <time>2020-07-11T06:56:40.591Z</time>
      </trkpt>
      <trkpt lat="44.04201" lon="5.2505">
        <ele>429</ele>
        <time>2020-07-11T06:56:41.590Z</time>
      </trkpt>
      <trkpt lat="44.04205" lon="5.25055">
        <ele>430</ele>
        <time>2020-07-11T06:56:42.591Z</time>
      </trkpt>
      <trkpt lat="44.04208" lon="5.25061">
        <ele>430</ele>
        <time>2020-07-11T06:56:43.590Z</time>
      </trkpt>
      <trkpt lat="44.04211" lon="5.25067">
        <ele>430</ele>
        <time>2020-07-11T06:56:44.590Z</time>
      </trkpt>
      <trkpt lat="44.04214" lon="5.25073">
        <ele>431</ele>
        <time>2020-07-11T06:56:45.591Z</time>
      </trkpt>
      <trkpt lat="44.04217" lon="5.25079">
        <ele>431</ele>
        <time>2020-07-11T06:56:46.591Z</time>
      </trkpt>
      <trkpt lat="44.04221" lon="5.25085">
        <ele>431</ele>
        <time>2020-07-11T06:56:47.590Z</time>
      </trkpt>
      <trkpt lat="44.04224" lon="5.25092">
        <ele>430</ele>
        <time>2020-07-11T06:56:48.591Z</time>
      </trkpt>
      <trkpt lat="44.04227" lon="5.25098">
        <ele>430</ele>
        <time>2020-07-11T06:56:49.590Z</time>
      </trkpt>
      <trkpt lat="44.0423" lon="5.25104">
        <ele>430</ele>
        <time>2020-07-11T06:56:50.591Z</time>
      </trkpt>
      <trkpt lat="44.04234" lon="5.25111">
        <ele>429</ele>
        <time>2020-07-11T06:56:51.591Z</time>
      </trkpt>
      <trkpt lat="44.04237" lon="5.25117">
        <ele>429</ele>
        <time>2020-07-11T06:56:52.591Z</time>
      </trkpt>
      <trkpt lat="44.04242" lon="5.25122">
        <ele>428</ele>
        <time>2020-07-11T06:56:53.590Z</time>
      </trkpt>
      <trkpt lat="44.04246" lon="5.25127">
        <ele>428</ele>
        <time>2020-07-11T06:56:54.590Z</time>
      </trkpt>
      <trkpt lat="44.04251" lon="5.25132">
        <ele>427</ele>
        <time>2020-07-11T06:56:55.591Z</time>
      </trkpt>
      <trkpt lat="44.04255" lon="5.25137">
        <ele>427</ele>
        <time>2020-07-11T06:56:56.590Z</time>
      </trkpt>
      <trkpt lat="44.0426" lon="5.25143">
        <ele>427</ele>
        <time>2020-07-11T06:56:57.590Z</time>
      </trkpt>
      <trkpt lat="44.04264" lon="5.25148">
        <ele>426</ele>
        <time>2020-07-11T06:56:58.590Z</time>
      </trkpt>
      <trkpt lat="44.04268" lon="5.25154">
        <ele>426</ele>
        <time>2020-07-11T06:56:59.590Z</time>
      </trkpt>
      <trkpt lat="44.04272" lon="5.25161">
        <ele>426</ele>
        <time>2020-07-11T06:57:00.590Z</time>
      </trkpt>
      <trkpt lat="44.04276" lon="5.25168">
        <ele>426</ele>
        <time>2020-07-11T06:57:01.590Z</time>
      </trkpt>
      <trkpt lat="44.0428" lon="5.25175">
        <ele>426</ele>
        <time>2020-07-11T06:57:02.591Z</time>
      </trkpt>
      <trkpt lat="44.04283" lon="5.25182">
        <ele>427</ele>
        <time>2020-07-11T06:57:03.590Z</time>
      </trkpt>
      <trkpt lat="44.04286" lon="5.25189">
        <ele>427</ele>
        <time>2020-07-11T06:57:04.591Z</time>
      </trkpt>
      <trkpt lat="44.04289" lon="5.25196">
        <ele>427</ele>
        <time>2020-07-11T06:57:05.591Z</time>
      </trkpt>
      <trkpt lat="44.04292" lon="5.25203">
        <ele>427</ele>
        <time>2020-07-11T06:57:06.591Z</time>
      </trkpt>
      <trkpt lat="44.04295" lon="5.2521">
        <ele>427</ele>
        <time>2020-07-11T06:57:07.590Z</time>
      </trkpt>
      <trkpt lat="44.04298" lon="5.25217">
        <ele>428</ele>
        <time>2020-07-11T06:57:08.590Z</time>
      </trkpt>
      <trkpt lat="44.04301" lon="5.25224">
        <ele>427</ele>
        <time>2020-07-11T06:57:09.591Z</time>
      </trkpt>
      <trkpt lat="44.04305" lon="5.2523">
        <ele>427</ele>
        <time>2020-07-11T06:57:10.590Z</time>
      </trkpt>
      <trkpt lat="44.04309" lon="5.25237">
        <ele>427</ele>
        <time>2020-07-11T06:57:11.591Z</time>
      </trkpt>
      <trkpt lat="44.04313" lon="5.25242">
        <ele>427</ele>
        <time>2020-07-11T06:57:12.590Z</time>
      </trkpt>
      <trkpt lat="44.04318" lon="5.25247">
        <ele>427</ele>
        <time>2020-07-11T06:57:13.590Z</time>
      </trkpt>
      <trkpt lat="44.04323" lon="5.25252">
        <ele>427</ele>
        <time>2020-07-11T06:57:14.590Z</time>
      </trkpt>
      <trkpt lat="44.04327" lon="5.25256">
        <ele>427</ele>
        <time>2020-07-11T06:57:15.591Z</time>
      </trkpt>
      <trkpt lat="44.04332" lon="5.2526">
        <ele>427</ele>
        <time>2020-07-11T06:57:16.590Z</time>
      </trkpt>
      <trkpt lat="44.04337" lon="5.25264">
        <ele>427</ele>
        <time>2020-07-11T06:57:17.591Z</time>
      </trkpt>
      <trkpt lat="44.04342" lon="5.25268">
        <ele>428</ele>
        <time>2020-07-11T06:57:18.590Z</time>
      </trkpt>
      <trkpt lat="44.04347" lon="5.25272">
        <ele>428</ele>
        <time>2020-07-11T06:57:19.591Z</time>
      </trkpt>
      <trkpt lat="44.04353" lon="5.25276">
        <ele>428</ele>
        <time>2020-07-11T06:57:20.591Z</time>
      </trkpt>
      <trkpt lat="44.04358" lon="5.2528">
        <ele>428</ele>
        <time>2020-07-11T06:57:21.591Z</time>
      </trkpt>
      <trkpt lat="44.04362" lon="5.25284">
        <ele>428</ele>
        <time>2020-07-11T06:57:22.590Z</time>
      </trkpt>
      <trkpt lat="44.04367" lon="5.25289">
        <ele>428</ele>
        <time>2020-07-11T06:57:23.590Z</time>
      </trkpt>
      <trkpt lat="44.04372" lon="5.25294">
        <ele>428</ele>
        <time>2020-07-11T06:57:24.590Z</time>
      </trkpt>
      <trkpt lat="44.04378" lon="5.253">
        <ele>428</ele>
        <time>2020-07-11T06:57:25.591Z</time>
      </trkpt>
      <trkpt lat="44.04383" lon="5.25305">
        <ele>427</ele>
        <time>2020-07-11T06:57:26.591Z</time>
      </trkpt>
      <trkpt lat="44.04387" lon="5.2531">
        <ele>427</ele>
        <time>2020-07-11T06:57:27.590Z</time>
      </trkpt>
      <trkpt lat="44.04392" lon="5.25316">
        <ele>427</ele>
        <time>2020-07-11T06:57:28.590Z</time>
      </trkpt>
      <trkpt lat="44.04397" lon="5.25322">
        <ele>427</ele>
        <time>2020-07-11T06:57:29.591Z</time>
      </trkpt>
      <trkpt lat="44.04401" lon="5.25328">
        <ele>427</ele>
        <time>2020-07-11T06:57:30.591Z</time>
      </trkpt>
      <trkpt lat="44.04406" lon="5.25334">
        <ele>426</ele>
        <time>2020-07-11T06:57:31.591Z</time>
      </trkpt>
      <trkpt lat="44.0441" lon="5.2534">
        <ele>426</ele>
        <time>2020-07-11T06:57:32.590Z</time>
      </trkpt>
      <trkpt lat="44.04415" lon="5.25346">
        <ele>425</ele>
        <time>2020-07-11T06:57:33.590Z</time>
      </trkpt>
      <trkpt lat="44.0442" lon="5.25351">
        <ele>425</ele>
        <time>2020-07-11T06:57:34.591Z</time>
      </trkpt>
      <trkpt lat="44.04424" lon="5.25356">
        <ele>425</ele>
        <time>2020-07-11T06:57:35.591Z</time>
      </trkpt>
      <trkpt lat="44.04429" lon="5.25361">
        <ele>425</ele>
        <time>2020-07-11T06:57:36.590Z</time>
      </trkpt>
      <trkpt lat="44.04433" lon="5.25367">
        <ele>425</ele>
        <time>2020-07-11T06:57:37.590Z</time>
      </trkpt>
      <trkpt lat="44.04437" lon="5.25372">
        <ele>425</ele>
        <time>2020-07-11T06:57:38.590Z</time>
      </trkpt>
      <trkpt lat="44.04441" lon="5.25378">
        <ele>425</ele>
        <time>2020-07-11T06:57:39.591Z</time>
      </trkpt>
      <trkpt lat="44.04445" lon="5.25384">
        <ele>425</ele>
        <time>2020-07-11T06:57:40.591Z</time>
      </trkpt>
      <trkpt lat="44.04448" lon="5.25391">
        <ele>425</ele>
        <time>2020-07-11T06:57:41.590Z</time>
      </trkpt>
      <trkpt lat="44.04452" lon="5.25397">
        <ele>425</ele>
        <time>2020-07-11T06:57:42.590Z</time>
      </trkpt>
      <trkpt lat="44.04456" lon="5.25403">
        <ele>425</ele>
        <time>2020-07-11T06:57:43.591Z</time>
      </trkpt>
      <trkpt lat="44.04459" lon="5.2541">
        <ele>425</ele>
        <time>2020-07-11T06:57:44.591Z</time>
      </trkpt>
      <trkpt lat="44.04463" lon="5.25417">
        <ele>425</ele>
        <time>2020-07-11T06:57:45.590Z</time>
      </trkpt>
      <trkpt lat="44.04466" lon="5.25424">
        <ele>425</ele>
        <time>2020-07-11T06:57:46.590Z</time>
      </trkpt>
      <trkpt lat="44.04469" lon="5.25431">
        <ele>425</ele>
        <time>2020-07-11T06:57:47.590Z</time>
      </trkpt>
      <trkpt lat="44.0447" lon="5.25439">
        <ele>426</ele>
        <time>2020-07-11T06:57:48.590Z</time>
      </trkpt>
      <trkpt lat="44.04471" lon="5.25447">
        <ele>426</ele>
        <time>2020-07-11T06:57:49.590Z</time>
      </trkpt>
      <trkpt lat="44.04472" lon="5.25454">
        <ele>426</ele>
        <time>2020-07-11T06:57:50.590Z</time>
      </trkpt>
      <trkpt lat="44.04472" lon="5.25462">
        <ele>426</ele>
        <time>2020-07-11T06:57:51.590Z</time>
      </trkpt>
      <trkpt lat="44.04471" lon="5.2547">
        <ele>426</ele>
        <time>2020-07-11T06:57:52.590Z</time>
      </trkpt>
      <trkpt lat="44.0447" lon="5.25477">
        <ele>426</ele>
        <time>2020-07-11T06:57:53.590Z</time>
      </trkpt>
      <trkpt lat="44.04468" lon="5.25484">
        <ele>426</ele>
        <time>2020-07-11T06:57:54.590Z</time>
      </trkpt>
      <trkpt lat="44.04466" lon="5.2549">
        <ele>426</ele>
        <time>2020-07-11T06:57:55.591Z</time>
      </trkpt>
      <trkpt lat="44.04464" lon="5.25497">
        <ele>426</ele>
        <time>2020-07-11T06:57:56.590Z</time>
      </trkpt>
      <trkpt lat="44.04461" lon="5.25502">
        <ele>426</ele>
        <time>2020-07-11T06:57:57.591Z</time>
      </trkpt>
      <trkpt lat="44.04457" lon="5.25508">
        <ele>425</ele>
        <time>2020-07-11T06:57:58.591Z</time>
      </trkpt>
      <trkpt lat="44.04453" lon="5.25513">
        <ele>426</ele>
        <time>2020-07-11T06:57:59.591Z</time>
      </trkpt>
      <trkpt lat="44.04449" lon="5.25517">
        <ele>427</ele>
        <time>2020-07-11T06:58:00.590Z</time>
      </trkpt>
      <trkpt lat="44.04444" lon="5.2552">
        <ele>427</ele>
        <time>2020-07-11T06:58:01.590Z</time>
      </trkpt>
      <trkpt lat="44.04439" lon="5.25523">
        <ele>428</ele>
        <time>2020-07-11T06:58:02.590Z</time>
      </trkpt>
      <trkpt lat="44.04434" lon="5.25524">
        <ele>428</ele>
        <time>2020-07-11T06:58:03.591Z</time>
      </trkpt>
      <trkpt lat="44.04428" lon="5.25525">
        <ele>428</ele>
        <time>2020-07-11T06:58:04.591Z</time>
      </trkpt>
      <trkpt lat="44.04423" lon="5.25526">
        <ele>429</ele>
        <time>2020-07-11T06:58:05.591Z</time>
      </trkpt>
      <trkpt lat="44.04417" lon="5.25527">
        <ele>429</ele>
        <time>2020-07-11T06:58:06.590Z</time>
      </trkpt>
      <trkpt lat="44.04412" lon="5.25527">
        <ele>430</ele>
        <time>2020-07-11T06:58:07.590Z</time>
      </trkpt>
      <trkpt lat="44.04407" lon="5.25528">
        <ele>430</ele>
        <time>2020-07-11T06:58:08.591Z</time>
      </trkpt>
      <trkpt lat="44.04402" lon="5.25528">
        <ele>430</ele>
        <time>2020-07-11T06:58:09.590Z</time>
      </trkpt>
      <trkpt lat="44.04396" lon="5.25528">
        <ele>430</ele>
        <time>2020-07-11T06:58:10.590Z</time>
      </trkpt>
      <trkpt lat="44.04391" lon="5.25527">
        <ele>430</ele>
        <time>2020-07-11T06:58:11.591Z</time>
      </trkpt>
      <trkpt lat="44.04386" lon="5.25526">
        <ele>430</ele>
        <time>2020-07-11T06:58:12.591Z</time>
      </trkpt>
      <trkpt lat="44.04381" lon="5.25525">
        <ele>430</ele>
        <time>2020-07-11T06:58:13.591Z</time>
      </trkpt>
      <trkpt lat="44.04376" lon="5.25523">
        <ele>430</ele>
        <time>2020-07-11T06:58:14.591Z</time>
      </trkpt>
      <trkpt lat="44.04371" lon="5.25521">
        <ele>430</ele>
        <time>2020-07-11T06:58:15.591Z</time>
      </trkpt>
      <trkpt lat="44.04366" lon="5.25519">
        <ele>430</ele>
        <time>2020-07-11T06:58:16.591Z</time>
      </trkpt>
      <trkpt lat="44.04362" lon="5.25516">
        <ele>431</ele>
        <time>2020-07-11T06:58:17.591Z</time>
      </trkpt>
      <trkpt lat="44.04358" lon="5.25514">
        <ele>431</ele>
        <time>2020-07-11T06:58:18.591Z</time>
      </trkpt>
      <trkpt lat="44.04354" lon="5.25512">
        <ele>431</ele>
        <time>2020-07-11T06:58:19.591Z</time>
      </trkpt>
      <trkpt lat="44.0435" lon="5.2551">
        <ele>431</ele>
        <time>2020-07-11T06:58:20.591Z</time>
      </trkpt>
      <trkpt lat="44.04346" lon="5.25508">
        <ele>432</ele>
        <time>2020-07-11T06:58:21.591Z</time>
      </trkpt>
      <trkpt lat="44.04342" lon="5.25506">
        <ele>432</ele>
        <time>2020-07-11T06:58:22.591Z</time>
      </trkpt>
      <trkpt lat="44.04337" lon="5.25504">
        <ele>433</ele>
        <time>2020-07-11T06:58:23.590Z</time>
      </trkpt>
      <trkpt lat="44.04333" lon="5.25502">
        <ele>433</ele>
        <time>2020-07-11T06:58:24.591Z</time>
      </trkpt>
      <trkpt lat="44.04329" lon="5.25501">
        <ele>434</ele>
        <time>2020-07-11T06:58:25.591Z</time>
      </trkpt>
      <trkpt lat="44.04326" lon="5.255">
        <ele>434</ele>
        <time>2020-07-11T06:58:26.590Z</time>
      </trkpt>
      <trkpt lat="44.04322" lon="5.255">
        <ele>434</ele>
        <time>2020-07-11T06:58:27.590Z</time>
      </trkpt>
      <trkpt lat="44.04318" lon="5.255">
        <ele>434</ele>
        <time>2020-07-11T06:58:28.591Z</time>
      </trkpt>
      <trkpt lat="44.04315" lon="5.255">
        <ele>434</ele>
        <time>2020-07-11T06:58:29.591Z</time>
      </trkpt>
      <trkpt lat="44.04311" lon="5.255">
        <ele>434</ele>
        <time>2020-07-11T06:58:30.591Z</time>
      </trkpt>
      <trkpt lat="44.04307" lon="5.255">
        <ele>434</ele>
        <time>2020-07-11T06:58:31.591Z</time>
      </trkpt>
      <trkpt lat="44.04303" lon="5.255">
        <ele>434</ele>
        <time>2020-07-11T06:58:32.591Z</time>
      </trkpt>
      <trkpt lat="44.04299" lon="5.25501">
        <ele>434</ele>
        <time>2020-07-11T06:58:33.590Z</time>
      </trkpt>
      <trkpt lat="44.04295" lon="5.25502">
        <ele>434</ele>
        <time>2020-07-11T06:58:34.591Z</time>
      </trkpt>
      <trkpt lat="44.04291" lon="5.25503">
        <ele>435</ele>
        <time>2020-07-11T06:58:35.590Z</time>
      </trkpt>
      <trkpt lat="44.04288" lon="5.25504">
        <ele>435</ele>
        <time>2020-07-11T06:58:36.591Z</time>
      </trkpt>
      <trkpt lat="44.04284" lon="5.25505">
        <ele>435</ele>
        <time>2020-07-11T06:58:37.591Z</time>
      </trkpt>
      <trkpt lat="44.0428" lon="5.25506">
        <ele>435</ele>
        <time>2020-07-11T06:58:38.591Z</time>
      </trkpt>
      <trkpt lat="44.04277" lon="5.25506">
        <ele>435</ele>
        <time>2020-07-11T06:58:39.591Z</time>
      </trkpt>
      <trkpt lat="44.04273" lon="5.25507">
        <ele>435</ele>
        <time>2020-07-11T06:58:40.591Z</time>
      </trkpt>
      <trkpt lat="44.04269" lon="5.25508">
        <ele>436</ele>
        <time>2020-07-11T06:58:41.591Z</time>
      </trkpt>
      <trkpt lat="44.04266" lon="5.25509">
        <ele>436</ele>
        <time>2020-07-11T06:58:42.590Z</time>
      </trkpt>
      <trkpt lat="44.04262" lon="5.25509">
        <ele>436</ele>
        <time>2020-07-11T06:58:43.591Z</time>
      </trkpt>
      <trkpt lat="44.04258" lon="5.2551">
        <ele>437</ele>
        <time>2020-07-11T06:58:44.591Z</time>
      </trkpt>
      <trkpt lat="44.04255" lon="5.25511">
        <ele>437</ele>
        <time>2020-07-11T06:58:45.591Z</time>
      </trkpt>
      <trkpt lat="44.04251" lon="5.25512">
        <ele>438</ele>
        <time>2020-07-11T06:58:46.591Z</time>
      </trkpt>
      <trkpt lat="44.04248" lon="5.25513">
        <ele>438</ele>
        <time>2020-07-11T06:58:47.591Z</time>
      </trkpt>
      <trkpt lat="44.04244" lon="5.25514">
        <ele>438</ele>
        <time>2020-07-11T06:58:48.591Z</time>
      </trkpt>
      <trkpt lat="44.0424" lon="5.25516">
        <ele>438</ele>
        <time>2020-07-11T06:58:49.590Z</time>
      </trkpt>
      <trkpt lat="44.04237" lon="5.25518">
        <ele>438</ele>
        <time>2020-07-11T06:58:50.591Z</time>
      </trkpt>
      <trkpt lat="44.04234" lon="5.2552">
        <ele>438</ele>
        <time>2020-07-11T06:58:51.591Z</time>
      </trkpt>
      <trkpt lat="44.0423" lon="5.25522">
        <ele>438</ele>
        <time>2020-07-11T06:58:52.591Z</time>
      </trkpt>
      <trkpt lat="44.04227" lon="5.25525">
        <ele>438</ele>
        <time>2020-07-11T06:58:53.591Z</time>
      </trkpt>
      <trkpt lat="44.04224" lon="5.25528">
        <ele>438</ele>
        <time>2020-07-11T06:58:54.591Z</time>
      </trkpt>
      <trkpt lat="44.04221" lon="5.25532">
        <ele>438</ele>
        <time>2020-07-11T06:58:55.590Z</time>
      </trkpt>
      <trkpt lat="44.04219" lon="5.25535">
        <ele>438</ele>
        <time>2020-07-11T06:58:56.591Z</time>
      </trkpt>
      <trkpt lat="44.04216" lon="5.25539">
        <ele>438</ele>
        <time>2020-07-11T06:58:57.590Z</time>
      </trkpt>
      <trkpt lat="44.04214" lon="5.25543">
        <ele>438</ele>
        <time>2020-07-11T06:58:58.591Z</time>
      </trkpt>
      <trkpt lat="44.04212" lon="5.25548">
        <ele>437</ele>
        <time>2020-07-11T06:58:59.590Z</time>
      </trkpt>
      <trkpt lat="44.04211" lon="5.25553">
        <ele>437</ele>
        <time>2020-07-11T06:59:00.590Z</time>
      </trkpt>
      <trkpt lat="44.0421" lon="5.25559">
        <ele>437</ele>
        <time>2020-07-11T06:59:01.590Z</time>
      </trkpt>
      <trkpt lat="44.04209" lon="5.25564">
        <ele>437</ele>
        <time>2020-07-11T06:59:02.591Z</time>
      </trkpt>
      <trkpt lat="44.04209" lon="5.2557">
        <ele>436</ele>
        <time>2020-07-11T06:59:03.591Z</time>
      </trkpt>
      <trkpt lat="44.04208" lon="5.25575">
        <ele>436</ele>
        <time>2020-07-11T06:59:04.591Z</time>
      </trkpt>
      <trkpt lat="44.04208" lon="5.25581">
        <ele>436</ele>
        <time>2020-07-11T06:59:05.590Z</time>
      </trkpt>
      <trkpt lat="44.04207" lon="5.25587">
        <ele>436</ele>
        <time>2020-07-11T06:59:06.591Z</time>
      </trkpt>
      <trkpt lat="44.04206" lon="5.25592">
        <ele>437</ele>
        <time>2020-07-11T06:59:07.591Z</time>
      </trkpt>
      <trkpt lat="44.04204" lon="5.25597">
        <ele>437</ele>
        <time>2020-07-11T06:59:08.590Z</time>
      </trkpt>
      <trkpt lat="44.04202" lon="5.25602">
        <ele>438</ele>
        <time>2020-07-11T06:59:09.590Z</time>
      </trkpt>
      <trkpt lat="44.042" lon="5.25607">
        <ele>439</ele>
        <time>2020-07-11T06:59:10.591Z</time>
      </trkpt>
      <trkpt lat="44.04197" lon="5.25611">
        <ele>440</ele>
        <time>2020-07-11T06:59:11.591Z</time>
      </trkpt>
      <trkpt lat="44.04193" lon="5.25615">
        <ele>440</ele>
        <time>2020-07-11T06:59:12.591Z</time>
      </trkpt>
      <trkpt lat="44.04189" lon="5.25617">
        <ele>440</ele>
        <time>2020-07-11T06:59:13.590Z</time>
      </trkpt>
      <trkpt lat="44.04185" lon="5.25618">
        <ele>440</ele>
        <time>2020-07-11T06:59:14.591Z</time>
      </trkpt>
      <trkpt lat="44.04182" lon="5.25619">
        <ele>440</ele>
        <time>2020-07-11T06:59:15.590Z</time>
      </trkpt>
      <trkpt lat="44.04179" lon="5.25618">
        <ele>440</ele>
        <time>2020-07-11T06:59:16.591Z</time>
      </trkpt>
      <trkpt lat="44.04174" lon="5.25617">
        <ele>440</ele>
        <time>2020-07-11T06:59:17.591Z</time>
      </trkpt>
      <trkpt lat="44.04171" lon="5.25615">
        <ele>440</ele>
        <time>2020-07-11T06:59:18.591Z</time>
      </trkpt>
      <trkpt lat="44.04167" lon="5.25613">
        <ele>441</ele>
        <time>2020-07-11T06:59:19.591Z</time>
      </trkpt>
      <trkpt lat="44.04164" lon="5.25611">
        <ele>440</ele>
        <time>2020-07-11T06:59:20.590Z</time>
      </trkpt>
      <trkpt lat="44.04161" lon="5.25609">
        <ele>440</ele>
        <time>2020-07-11T06:59:21.591Z</time>
      </trkpt>
      <trkpt lat="44.04157" lon="5.25606">
        <ele>440</ele>
        <time>2020-07-11T06:59:22.591Z</time>
      </trkpt>
      <trkpt lat="44.04154" lon="5.25604">
        <ele>440</ele>
        <time>2020-07-11T06:59:23.591Z</time>
      </trkpt>
      <trkpt lat="44.0415" lon="5.25602">
        <ele>440</ele>
        <time>2020-07-11T06:59:24.591Z</time>
      </trkpt>
      <trkpt lat="44.04148" lon="5.256">
        <ele>440</ele>
        <time>2020-07-11T06:59:25.590Z</time>
      </trkpt>
      <trkpt lat="44.04145" lon="5.25597">
        <ele>440</ele>
        <time>2020-07-11T06:59:26.590Z</time>
      </trkpt>
      <trkpt lat="44.04141" lon="5.25594">
        <ele>440</ele>
        <time>2020-07-11T06:59:27.591Z</time>
      </trkpt>
      <trkpt lat="44.04137" lon="5.25592">
        <ele>440</ele>
        <time>2020-07-11T06:59:28.590Z</time>
      </trkpt>
      <trkpt lat="44.04134" lon="5.25589">
        <ele>440</ele>
        <time>2020-07-11T06:59:29.590Z</time>
      </trkpt>
      <trkpt lat="44.04131" lon="5.25587">
        <ele>441</ele>
        <time>2020-07-11T06:59:30.590Z</time>
      </trkpt>
      <trkpt lat="44.04128" lon="5.25584">
        <ele>441</ele>
        <time>2020-07-11T06:59:31.590Z</time>
      </trkpt>
      <trkpt lat="44.04125" lon="5.25582">
        <ele>441</ele>
        <time>2020-07-11T06:59:32.590Z</time>
      </trkpt>
      <trkpt lat="44.04121" lon="5.2558">
        <ele>440</ele>
        <time>2020-07-11T06:59:33.591Z</time>
      </trkpt>
      <trkpt lat="44.04118" lon="5.25578">
        <ele>440</ele>
        <time>2020-07-11T06:59:34.590Z</time>
      </trkpt>
      <trkpt lat="44.04115" lon="5.25575">
        <ele>440</ele>
        <time>2020-07-11T06:59:35.590Z</time>
      </trkpt>
      <trkpt lat="44.04112" lon="5.25573">
        <ele>440</ele>
        <time>2020-07-11T06:59:36.591Z</time>
      </trkpt>
      <trkpt lat="44.04108" lon="5.2557">
        <ele>440</ele>
        <time>2020-07-11T06:59:37.591Z</time>
      </trkpt>
      <trkpt lat="44.04105" lon="5.25569">
        <ele>440</ele>
        <time>2020-07-11T06:59:38.591Z</time>
      </trkpt>
      <trkpt lat="44.04102" lon="5.25567">
        <ele>440</ele>
        <time>2020-07-11T06:59:39.590Z</time>
      </trkpt>
      <trkpt lat="44.04098" lon="5.25565">
        <ele>440</ele>
        <time>2020-07-11T06:59:40.590Z</time>
      </trkpt>
      <trkpt lat="44.04095" lon="5.25564">
        <ele>441</ele>
        <time>2020-07-11T06:59:41.591Z</time>
      </trkpt>
      <trkpt lat="44.04091" lon="5.25562">
        <ele>441</ele>
        <time>2020-07-11T06:59:42.590Z</time>
      </trkpt>
      <trkpt lat="44.04088" lon="5.25561">
        <ele>442</ele>
        <time>2020-07-11T06:59:43.591Z</time>
      </trkpt>
      <trkpt lat="44.04085" lon="5.2556">
        <ele>443</ele>
        <time>2020-07-11T06:59:44.591Z</time>
      </trkpt>
      <trkpt lat="44.04082" lon="5.25559">
        <ele>443</ele>
        <time>2020-07-11T06:59:45.590Z</time>
      </trkpt>
      <trkpt lat="44.04079" lon="5.25559">
        <ele>444</ele>
        <time>2020-07-11T06:59:46.591Z</time>
      </trkpt>
      <trkpt lat="44.04076" lon="5.25558">
        <ele>444</ele>
        <time>2020-07-11T06:59:47.590Z</time>
      </trkpt>
      <trkpt lat="44.04075" lon="5.25558">
        <ele>445</ele>
        <time>2020-07-11T06:59:48.590Z</time>
      </trkpt>
      <trkpt lat="44.04071" lon="5.25557">
        <ele>445</ele>
        <time>2020-07-11T06:59:49.590Z</time>
      </trkpt>
      <trkpt lat="44.04068" lon="5.25557">
        <ele>445</ele>
        <time>2020-07-11T06:59:50.591Z</time>
      </trkpt>
      <trkpt lat="44.04066" lon="5.25556">
        <ele>446</ele>
        <time>2020-07-11T06:59:51.590Z</time>
      </trkpt>
      <trkpt lat="44.04063" lon="5.25555">
        <ele>446</ele>
        <time>2020-07-11T06:59:52.591Z</time>
      </trkpt>
      <trkpt lat="44.04059" lon="5.25554">
        <ele>446</ele>
        <time>2020-07-11T06:59:53.591Z</time>
      </trkpt>
      <trkpt lat="44.04056" lon="5.25554">
        <ele>446</ele>
        <time>2020-07-11T06:59:54.591Z</time>
      </trkpt>
      <trkpt lat="44.04053" lon="5.25554">
        <ele>446</ele>
        <time>2020-07-11T06:59:55.591Z</time>
      </trkpt>
      <trkpt lat="44.04051" lon="5.25554">
        <ele>446</ele>
        <time>2020-07-11T06:59:56.591Z</time>
      </trkpt>
      <trkpt lat="44.04048" lon="5.25554">
        <ele>445</ele>
        <time>2020-07-11T06:59:57.591Z</time>
      </trkpt>
      <trkpt lat="44.04045" lon="5.25554">
        <ele>445</ele>
        <time>2020-07-11T06:59:58.591Z</time>
      </trkpt>
      <trkpt lat="44.04042" lon="5.25554">
        <ele>445</ele>
        <time>2020-07-11T06:59:59.591Z</time>
      </trkpt>
      <trkpt lat="44.04039" lon="5.25554">
        <ele>445</ele>
        <time>2020-07-11T07:00:00.591Z</time>
      </trkpt>
      <trkpt lat="44.04036" lon="5.25554">
        <ele>445</ele>
        <time>2020-07-11T07:00:01.590Z</time>
      </trkpt>
      <trkpt lat="44.04033" lon="5.25554">
        <ele>445</ele>
        <time>2020-07-11T07:00:02.590Z</time>
      </trkpt>
      <trkpt lat="44.0403" lon="5.25555">
        <ele>445</ele>
        <time>2020-07-11T07:00:03.591Z</time>
      </trkpt>
      <trkpt lat="44.04027" lon="5.25555">
        <ele>445</ele>
        <time>2020-07-11T07:00:04.591Z</time>
      </trkpt>
      <trkpt lat="44.04024" lon="5.25555">
        <ele>445</ele>
        <time>2020-07-11T07:00:05.590Z</time>
      </trkpt>
      <trkpt lat="44.04022" lon="5.25556">
        <ele>445</ele>
        <time>2020-07-11T07:00:06.591Z</time>
      </trkpt>
      <trkpt lat="44.04018" lon="5.25556">
        <ele>445</ele>
        <time>2020-07-11T07:00:07.590Z</time>
      </trkpt>
      <trkpt lat="44.04015" lon="5.25556">
        <ele>445</ele>
        <time>2020-07-11T07:00:08.591Z</time>
      </trkpt>
      <trkpt lat="44.04012" lon="5.25556">
        <ele>445</ele>
        <time>2020-07-11T07:00:09.591Z</time>
      </trkpt>
      <trkpt lat="44.04009" lon="5.25557">
        <ele>445</ele>
        <time>2020-07-11T07:00:10.591Z</time>
      </trkpt>
      <trkpt lat="44.04005" lon="5.25557">
        <ele>445</ele>
        <time>2020-07-11T07:00:11.591Z</time>
      </trkpt>
      <trkpt lat="44.04002" lon="5.25557">
        <ele>445</ele>
        <time>2020-07-11T07:00:12.591Z</time>
      </trkpt>
      <trkpt lat="44.03999" lon="5.25558">
        <ele>445</ele>
        <time>2020-07-11T07:00:13.591Z</time>
      </trkpt>
      <trkpt lat="44.03996" lon="5.25558">
        <ele>445</ele>
        <time>2020-07-11T07:00:14.591Z</time>
      </trkpt>
      <trkpt lat="44.03993" lon="5.25558">
        <ele>444</ele>
        <time>2020-07-11T07:00:15.590Z</time>
      </trkpt>
      <trkpt lat="44.0399" lon="5.25559">
        <ele>444</ele>
        <time>2020-07-11T07:00:16.591Z</time>
      </trkpt>
      <trkpt lat="44.03987" lon="5.25559">
        <ele>444</ele>
        <time>2020-07-11T07:00:17.590Z</time>
      </trkpt>
      <trkpt lat="44.03984" lon="5.2556">
        <ele>444</ele>
        <time>2020-07-11T07:00:18.590Z</time>
      </trkpt>
      <trkpt lat="44.03982" lon="5.25561">
        <ele>444</ele>
        <time>2020-07-11T07:00:19.590Z</time>
      </trkpt>
      <trkpt lat="44.03978" lon="5.25562">
        <ele>445</ele>
        <time>2020-07-11T07:00:20.590Z</time>
      </trkpt>
      <trkpt lat="44.03975" lon="5.25562">
        <ele>445</ele>
        <time>2020-07-11T07:00:21.591Z</time>
      </trkpt>
      <trkpt lat="44.03972" lon="5.25563">
        <ele>445</ele>
        <time>2020-07-11T07:00:22.591Z</time>
      </trkpt>
      <trkpt lat="44.0397" lon="5.25564">
        <ele>445</ele>
        <time>2020-07-11T07:00:23.591Z</time>
      </trkpt>
      <trkpt lat="44.03966" lon="5.25565">
        <ele>445</ele>
        <time>2020-07-11T07:00:24.591Z</time>
      </trkpt>
      <trkpt lat="44.03963" lon="5.25567">
        <ele>445</ele>
        <time>2020-07-11T07:00:25.591Z</time>
      </trkpt>
      <trkpt lat="44.03959" lon="5.25568">
        <ele>445</ele>
        <time>2020-07-11T07:00:26.590Z</time>
      </trkpt>
      <trkpt lat="44.03956" lon="5.25569">
        <ele>445</ele>
        <time>2020-07-11T07:00:27.591Z</time>
      </trkpt>
      <trkpt lat="44.03953" lon="5.2557">
        <ele>445</ele>
        <time>2020-07-11T07:00:28.591Z</time>
      </trkpt>
      <trkpt lat="44.0395" lon="5.25571">
        <ele>445</ele>
        <time>2020-07-11T07:00:29.590Z</time>
      </trkpt>
      <trkpt lat="44.03947" lon="5.25572">
        <ele>445</ele>
        <time>2020-07-11T07:00:30.590Z</time>
      </trkpt>
      <trkpt lat="44.03944" lon="5.25573">
        <ele>445</ele>
        <time>2020-07-11T07:00:31.591Z</time>
      </trkpt>
      <trkpt lat="44.03941" lon="5.25575">
        <ele>445</ele>
        <time>2020-07-11T07:00:32.590Z</time>
      </trkpt>
      <trkpt lat="44.03938" lon="5.25576">
        <ele>445</ele>
        <time>2020-07-11T07:00:33.591Z</time>
      </trkpt>
      <trkpt lat="44.03935" lon="5.25577">
        <ele>445</ele>
        <time>2020-07-11T07:00:34.591Z</time>
      </trkpt>
      <trkpt lat="44.03933" lon="5.25578">
        <ele>445</ele>
        <time>2020-07-11T07:00:35.590Z</time>
      </trkpt>
      <trkpt lat="44.0393" lon="5.25579">
        <ele>445</ele>
        <time>2020-07-11T07:00:36.591Z</time>
      </trkpt>
      <trkpt lat="44.03927" lon="5.25581">
        <ele>445</ele>
        <time>2020-07-11T07:00:37.591Z</time>
      </trkpt>
      <trkpt lat="44.03924" lon="5.25583">
        <ele>445</ele>
        <time>2020-07-11T07:00:38.591Z</time>
      </trkpt>
      <trkpt lat="44.03921" lon="5.25584">
        <ele>445</ele>
        <time>2020-07-11T07:00:39.590Z</time>
      </trkpt>
      <trkpt lat="44.03918" lon="5.25586">
        <ele>446</ele>
        <time>2020-07-11T07:00:40.591Z</time>
      </trkpt>
      <trkpt lat="44.03915" lon="5.25588">
        <ele>446</ele>
        <time>2020-07-11T07:00:41.591Z</time>
      </trkpt>
      <trkpt lat="44.03911" lon="5.2559">
        <ele>446</ele>
        <time>2020-07-11T07:00:42.591Z</time>
      </trkpt>
      <trkpt lat="44.03908" lon="5.25592">
        <ele>447</ele>
        <time>2020-07-11T07:00:43.591Z</time>
      </trkpt>
      <trkpt lat="44.03905" lon="5.25594">
        <ele>447</ele>
        <time>2020-07-11T07:00:44.590Z</time>
      </trkpt>
      <trkpt lat="44.03902" lon="5.25595">
        <ele>447</ele>
        <time>2020-07-11T07:00:45.590Z</time>
      </trkpt>
      <trkpt lat="44.03899" lon="5.25597">
        <ele>447</ele>
        <time>2020-07-11T07:00:46.591Z</time>
      </trkpt>
      <trkpt lat="44.03895" lon="5.25599">
        <ele>447</ele>
        <time>2020-07-11T07:00:47.591Z</time>
      </trkpt>
      <trkpt lat="44.03892" lon="5.25601">
        <ele>447</ele>
        <time>2020-07-11T07:00:48.590Z</time>
      </trkpt>
      <trkpt lat="44.03889" lon="5.25602">
        <ele>446</ele>
        <time>2020-07-11T07:00:49.591Z</time>
      </trkpt>
      <trkpt lat="44.03886" lon="5.25604">
        <ele>446</ele>
        <time>2020-07-11T07:00:50.591Z</time>
      </trkpt>
      <trkpt lat="44.03883" lon="5.25606">
        <ele>446</ele>
        <time>2020-07-11T07:00:51.591Z</time>
      </trkpt>
      <trkpt lat="44.03879" lon="5.25607">
        <ele>445</ele>
        <time>2020-07-11T07:00:52.590Z</time>
      </trkpt>
      <trkpt lat="44.03876" lon="5.25608">
        <ele>445</ele>
        <time>2020-07-11T07:00:53.591Z</time>
      </trkpt>
      <trkpt lat="44.03873" lon="5.25609">
        <ele>444</ele>
        <time>2020-07-11T07:00:54.591Z</time>
      </trkpt>
      <trkpt lat="44.0387" lon="5.2561">
        <ele>444</ele>
        <time>2020-07-11T07:00:55.591Z</time>
      </trkpt>
      <trkpt lat="44.03866" lon="5.2561">
        <ele>444</ele>
        <time>2020-07-11T07:00:56.591Z</time>
      </trkpt>
      <trkpt lat="44.03863" lon="5.25611">
        <ele>443</ele>
        <time>2020-07-11T07:00:57.591Z</time>
      </trkpt>
      <trkpt lat="44.03859" lon="5.2561">
        <ele>444</ele>
        <time>2020-07-11T07:00:58.590Z</time>
      </trkpt>
      <trkpt lat="44.03856" lon="5.2561">
        <ele>444</ele>
        <time>2020-07-11T07:00:59.591Z</time>
      </trkpt>
      <trkpt lat="44.03852" lon="5.2561">
        <ele>444</ele>
        <time>2020-07-11T07:01:00.590Z</time>
      </trkpt>
      <trkpt lat="44.03848" lon="5.25609">
        <ele>444</ele>
        <time>2020-07-11T07:01:01.590Z</time>
      </trkpt>
      <trkpt lat="44.03845" lon="5.25608">
        <ele>445</ele>
        <time>2020-07-11T07:01:02.590Z</time>
      </trkpt>
      <trkpt lat="44.03842" lon="5.25606">
        <ele>445</ele>
        <time>2020-07-11T07:01:03.590Z</time>
      </trkpt>
      <trkpt lat="44.03838" lon="5.25605">
        <ele>445</ele>
        <time>2020-07-11T07:01:04.591Z</time>
      </trkpt>
      <trkpt lat="44.03835" lon="5.25604">
        <ele>445</ele>
        <time>2020-07-11T07:01:05.591Z</time>
      </trkpt>
      <trkpt lat="44.03831" lon="5.25603">
        <ele>445</ele>
        <time>2020-07-11T07:01:06.591Z</time>
      </trkpt>
      <trkpt lat="44.03828" lon="5.25602">
        <ele>445</ele>
        <time>2020-07-11T07:01:07.591Z</time>
      </trkpt>
      <trkpt lat="44.03824" lon="5.25601">
        <ele>445</ele>
        <time>2020-07-11T07:01:08.591Z</time>
      </trkpt>
      <trkpt lat="44.0382" lon="5.256">
        <ele>446</ele>
        <time>2020-07-11T07:01:09.591Z</time>
      </trkpt>
      <trkpt lat="44.03817" lon="5.25599">
        <ele>446</ele>
        <time>2020-07-11T07:01:10.591Z</time>
      </trkpt>
      <trkpt lat="44.03813" lon="5.25598">
        <ele>446</ele>
        <time>2020-07-11T07:01:11.591Z</time>
      </trkpt>
      <trkpt lat="44.03811" lon="5.25598">
        <ele>446</ele>
        <time>2020-07-11T07:01:12.590Z</time>
      </trkpt>
      <trkpt lat="44.03807" lon="5.25597">
        <ele>447</ele>
        <time>2020-07-11T07:01:13.591Z</time>
      </trkpt>
      <trkpt lat="44.03803" lon="5.25597">
        <ele>447</ele>
        <time>2020-07-11T07:01:14.591Z</time>
      </trkpt>
      <trkpt lat="44.038" lon="5.25597">
        <ele>448</ele>
        <time>2020-07-11T07:01:15.590Z</time>
      </trkpt>
      <trkpt lat="44.03797" lon="5.25597">
        <ele>448</ele>
        <time>2020-07-11T07:01:16.590Z</time>
      </trkpt>
      <trkpt lat="44.03794" lon="5.25597">
        <ele>448</ele>
        <time>2020-07-11T07:01:17.590Z</time>
      </trkpt>
      <trkpt lat="44.03789" lon="5.25598">
        <ele>449</ele>
        <time>2020-07-11T07:01:18.590Z</time>
      </trkpt>
      <trkpt lat="44.03785" lon="5.25598">
        <ele>449</ele>
        <time>2020-07-11T07:01:19.591Z</time>
      </trkpt>
      <trkpt lat="44.03782" lon="5.25599">
        <ele>450</ele>
        <time>2020-07-11T07:01:20.591Z</time>
      </trkpt>
      <trkpt lat="44.03779" lon="5.256">
        <ele>450</ele>
        <time>2020-07-11T07:01:21.591Z</time>
      </trkpt>
      <trkpt lat="44.03775" lon="5.25601">
        <ele>451</ele>
        <time>2020-07-11T07:01:22.591Z</time>
      </trkpt>
      <trkpt lat="44.03771" lon="5.25601">
        <ele>451</ele>
        <time>2020-07-11T07:01:23.591Z</time>
      </trkpt>
      <trkpt lat="44.03768" lon="5.25602">
        <ele>451</ele>
        <time>2020-07-11T07:01:24.591Z</time>
      </trkpt>
      <trkpt lat="44.03765" lon="5.25603">
        <ele>452</ele>
        <time>2020-07-11T07:01:25.591Z</time>
      </trkpt>
      <trkpt lat="44.03762" lon="5.25605">
        <ele>452</ele>
        <time>2020-07-11T07:01:26.590Z</time>
      </trkpt>
      <trkpt lat="44.03758" lon="5.25607">
        <ele>452</ele>
        <time>2020-07-11T07:01:27.591Z</time>
      </trkpt>
      <trkpt lat="44.03754" lon="5.25608">
        <ele>452</ele>
        <time>2020-07-11T07:01:28.590Z</time>
      </trkpt>
      <trkpt lat="44.03751" lon="5.2561">
        <ele>452</ele>
        <time>2020-07-11T07:01:29.590Z</time>
      </trkpt>
      <trkpt lat="44.03748" lon="5.25612">
        <ele>453</ele>
        <time>2020-07-11T07:01:30.591Z</time>
      </trkpt>
      <trkpt lat="44.03745" lon="5.25613">
        <ele>453</ele>
        <time>2020-07-11T07:01:31.590Z</time>
      </trkpt>
      <trkpt lat="44.03742" lon="5.25615">
        <ele>453</ele>
        <time>2020-07-11T07:01:32.590Z</time>
      </trkpt>
      <trkpt lat="44.03738" lon="5.25617">
        <ele>452</ele>
        <time>2020-07-11T07:01:33.591Z</time>
      </trkpt>
      <trkpt lat="44.03736" lon="5.25619">
        <ele>452</ele>
        <time>2020-07-11T07:01:34.591Z</time>
      </trkpt>
      <trkpt lat="44.03732" lon="5.25621">
        <ele>452</ele>
        <time>2020-07-11T07:01:35.591Z</time>
      </trkpt>
      <trkpt lat="44.03728" lon="5.25623">
        <ele>452</ele>
        <time>2020-07-11T07:01:36.591Z</time>
      </trkpt>
      <trkpt lat="44.03725" lon="5.25625">
        <ele>451</ele>
        <time>2020-07-11T07:01:37.591Z</time>
      </trkpt>
      <trkpt lat="44.03722" lon="5.25628">
        <ele>451</ele>
        <time>2020-07-11T07:01:38.591Z</time>
      </trkpt>
      <trkpt lat="44.0372" lon="5.25629">
        <ele>450</ele>
        <time>2020-07-11T07:01:39.591Z</time>
      </trkpt>
      <trkpt lat="44.03716" lon="5.25632">
        <ele>450</ele>
        <time>2020-07-11T07:01:40.591Z</time>
      </trkpt>
      <trkpt lat="44.03713" lon="5.25635">
        <ele>449</ele>
        <time>2020-07-11T07:01:41.591Z</time>
      </trkpt>
      <trkpt lat="44.0371" lon="5.25637">
        <ele>449</ele>
        <time>2020-07-11T07:01:42.591Z</time>
      </trkpt>
      <trkpt lat="44.03707" lon="5.25639">
        <ele>449</ele>
        <time>2020-07-11T07:01:43.591Z</time>
      </trkpt>
      <trkpt lat="44.03703" lon="5.25642">
        <ele>449</ele>
        <time>2020-07-11T07:01:44.591Z</time>
      </trkpt>
      <trkpt lat="44.037" lon="5.25644">
        <ele>450</ele>
        <time>2020-07-11T07:01:45.591Z</time>
      </trkpt>
      <trkpt lat="44.03697" lon="5.25646">
        <ele>450</ele>
        <time>2020-07-11T07:01:46.591Z</time>
      </trkpt>
      <trkpt lat="44.03694" lon="5.25649">
        <ele>450</ele>
        <time>2020-07-11T07:01:47.591Z</time>
      </trkpt>
      <trkpt lat="44.03692" lon="5.25651">
        <ele>450</ele>
        <time>2020-07-11T07:01:48.590Z</time>
      </trkpt>
      <trkpt lat="44.03689" lon="5.25654">
        <ele>450</ele>
        <time>2020-07-11T07:01:49.591Z</time>
      </trkpt>
      <trkpt lat="44.03685" lon="5.25657">
        <ele>450</ele>
        <time>2020-07-11T07:01:50.591Z</time>
      </trkpt>
      <trkpt lat="44.03683" lon="5.2566">
        <ele>450</ele>
        <time>2020-07-11T07:01:51.591Z</time>
      </trkpt>
      <trkpt lat="44.0368" lon="5.25663">
        <ele>450</ele>
        <time>2020-07-11T07:01:52.591Z</time>
      </trkpt>
      <trkpt lat="44.03677" lon="5.25665">
        <ele>451</ele>
        <time>2020-07-11T07:01:53.591Z</time>
      </trkpt>
      <trkpt lat="44.03674" lon="5.25669">
        <ele>451</ele>
        <time>2020-07-11T07:01:54.590Z</time>
      </trkpt>
      <trkpt lat="44.03671" lon="5.25672">
        <ele>451</ele>
        <time>2020-07-11T07:01:55.591Z</time>
      </trkpt>
      <trkpt lat="44.03669" lon="5.25675">
        <ele>451</ele>
        <time>2020-07-11T07:01:56.591Z</time>
      </trkpt>
      <trkpt lat="44.03667" lon="5.25678">
        <ele>451</ele>
        <time>2020-07-11T07:01:57.591Z</time>
      </trkpt>
      <trkpt lat="44.03664" lon="5.25682">
        <ele>451</ele>
        <time>2020-07-11T07:01:58.591Z</time>
      </trkpt>
      <trkpt lat="44.03662" lon="5.25685">
        <ele>452</ele>
        <time>2020-07-11T07:01:59.590Z</time>
      </trkpt>
      <trkpt lat="44.03659" lon="5.25688">
        <ele>452</ele>
        <time>2020-07-11T07:02:00.590Z</time>
      </trkpt>
      <trkpt lat="44.03657" lon="5.25692">
        <ele>452</ele>
        <time>2020-07-11T07:02:01.591Z</time>
      </trkpt>
      <trkpt lat="44.03656" lon="5.25695">
        <ele>452</ele>
        <time>2020-07-11T07:02:02.591Z</time>
      </trkpt>
      <trkpt lat="44.03653" lon="5.25699">
        <ele>452</ele>
        <time>2020-07-11T07:02:03.591Z</time>
      </trkpt>
      <trkpt lat="44.03651" lon="5.25703">
        <ele>452</ele>
        <time>2020-07-11T07:02:04.591Z</time>
      </trkpt>
      <trkpt lat="44.03649" lon="5.25706">
        <ele>452</ele>
        <time>2020-07-11T07:02:05.591Z</time>
      </trkpt>
      <trkpt lat="44.03647" lon="5.25709">
        <ele>452</ele>
        <time>2020-07-11T07:02:06.591Z</time>
      </trkpt>
      <trkpt lat="44.03644" lon="5.25713">
        <ele>452</ele>
        <time>2020-07-11T07:02:07.591Z</time>
      </trkpt>
      <trkpt lat="44.03642" lon="5.25717">
        <ele>451</ele>
        <time>2020-07-11T07:02:08.590Z</time>
      </trkpt>
      <trkpt lat="44.03639" lon="5.2572">
        <ele>451</ele>
        <time>2020-07-11T07:02:09.591Z</time>
      </trkpt>
      <trkpt lat="44.03637" lon="5.25723">
        <ele>451</ele>
        <time>2020-07-11T07:02:10.591Z</time>
      </trkpt>
      <trkpt lat="44.03634" lon="5.25727">
        <ele>451</ele>
        <time>2020-07-11T07:02:11.590Z</time>
      </trkpt>
      <trkpt lat="44.03632" lon="5.25731">
        <ele>450</ele>
        <time>2020-07-11T07:02:12.590Z</time>
      </trkpt>
      <trkpt lat="44.03629" lon="5.25735">
        <ele>450</ele>
        <time>2020-07-11T07:02:13.590Z</time>
      </trkpt>
      <trkpt lat="44.03627" lon="5.25738">
        <ele>451</ele>
        <time>2020-07-11T07:02:14.591Z</time>
      </trkpt>
      <trkpt lat="44.03625" lon="5.25741">
        <ele>451</ele>
        <time>2020-07-11T07:02:15.590Z</time>
      </trkpt>
      <trkpt lat="44.03623" lon="5.25745">
        <ele>451</ele>
        <time>2020-07-11T07:02:16.591Z</time>
      </trkpt>
      <trkpt lat="44.03619" lon="5.25749">
        <ele>451</ele>
        <time>2020-07-11T07:02:17.591Z</time>
      </trkpt>
      <trkpt lat="44.03617" lon="5.25753">
        <ele>451</ele>
        <time>2020-07-11T07:02:18.591Z</time>
      </trkpt>
      <trkpt lat="44.03615" lon="5.25756">
        <ele>451</ele>
        <time>2020-07-11T07:02:19.591Z</time>
      </trkpt>
      <trkpt lat="44.03612" lon="5.2576">
        <ele>452</ele>
        <time>2020-07-11T07:02:20.590Z</time>
      </trkpt>
      <trkpt lat="44.0361" lon="5.25763">
        <ele>452</ele>
        <time>2020-07-11T07:02:21.591Z</time>
      </trkpt>
      <trkpt lat="44.03607" lon="5.25766">
        <ele>452</ele>
        <time>2020-07-11T07:02:22.590Z</time>
      </trkpt>
      <trkpt lat="44.03605" lon="5.25769">
        <ele>452</ele>
        <time>2020-07-11T07:02:23.591Z</time>
      </trkpt>
      <trkpt lat="44.03603" lon="5.25773">
        <ele>452</ele>
        <time>2020-07-11T07:02:24.590Z</time>
      </trkpt>
      <trkpt lat="44.036" lon="5.25776">
        <ele>452</ele>
        <time>2020-07-11T07:02:25.591Z</time>
      </trkpt>
      <trkpt lat="44.03597" lon="5.2578">
        <ele>452</ele>
        <time>2020-07-11T07:02:26.590Z</time>
      </trkpt>
      <trkpt lat="44.03594" lon="5.25783">
        <ele>453</ele>
        <time>2020-07-11T07:02:27.591Z</time>
      </trkpt>
      <trkpt lat="44.03592" lon="5.25786">
        <ele>453</ele>
        <time>2020-07-11T07:02:28.591Z</time>
      </trkpt>
      <trkpt lat="44.0359" lon="5.25789">
        <ele>453</ele>
        <time>2020-07-11T07:02:29.591Z</time>
      </trkpt>
      <trkpt lat="44.03587" lon="5.25793">
        <ele>453</ele>
        <time>2020-07-11T07:02:30.591Z</time>
      </trkpt>
      <trkpt lat="44.03584" lon="5.25796">
        <ele>453</ele>
        <time>2020-07-11T07:02:31.591Z</time>
      </trkpt>
      <trkpt lat="44.03581" lon="5.25799">
        <ele>453</ele>
        <time>2020-07-11T07:02:32.590Z</time>
      </trkpt>
      <trkpt lat="44.03578" lon="5.25802">
        <ele>454</ele>
        <time>2020-07-11T07:02:33.591Z</time>
      </trkpt>
      <trkpt lat="44.03576" lon="5.25806">
        <ele>454</ele>
        <time>2020-07-11T07:02:34.591Z</time>
      </trkpt>
      <trkpt lat="44.03573" lon="5.25809">
        <ele>454</ele>
        <time>2020-07-11T07:02:35.591Z</time>
      </trkpt>
      <trkpt lat="44.03571" lon="5.25813">
        <ele>455</ele>
        <time>2020-07-11T07:02:36.591Z</time>
      </trkpt>
      <trkpt lat="44.03569" lon="5.25816">
        <ele>455</ele>
        <time>2020-07-11T07:02:37.591Z</time>
      </trkpt>
      <trkpt lat="44.03567" lon="5.25818">
        <ele>455</ele>
        <time>2020-07-11T07:02:38.591Z</time>
      </trkpt>
      <trkpt lat="44.03564" lon="5.25822">
        <ele>456</ele>
        <time>2020-07-11T07:02:39.590Z</time>
      </trkpt>
      <trkpt lat="44.03561" lon="5.25825">
        <ele>456</ele>
        <time>2020-07-11T07:02:40.591Z</time>
      </trkpt>
      <trkpt lat="44.03558" lon="5.25828">
        <ele>456</ele>
        <time>2020-07-11T07:02:41.590Z</time>
      </trkpt>
      <trkpt lat="44.03557" lon="5.2583">
        <ele>456</ele>
        <time>2020-07-11T07:02:42.591Z</time>
      </trkpt>
      <trkpt lat="44.03554" lon="5.25834">
        <ele>457</ele>
        <time>2020-07-11T07:02:43.590Z</time>
      </trkpt>
      <trkpt lat="44.03551" lon="5.25838">
        <ele>457</ele>
        <time>2020-07-11T07:02:44.591Z</time>
      </trkpt>
      <trkpt lat="44.03549" lon="5.25841">
        <ele>457</ele>
        <time>2020-07-11T07:02:45.591Z</time>
      </trkpt>
      <trkpt lat="44.03546" lon="5.25844">
        <ele>457</ele>
        <time>2020-07-11T07:02:46.591Z</time>
      </trkpt>
      <trkpt lat="44.03544" lon="5.25847">
        <ele>457</ele>
        <time>2020-07-11T07:02:47.591Z</time>
      </trkpt>
      <trkpt lat="44.03541" lon="5.25851">
        <ele>456</ele>
        <time>2020-07-11T07:02:48.591Z</time>
      </trkpt>
      <trkpt lat="44.03539" lon="5.25854">
        <ele>456</ele>
        <time>2020-07-11T07:02:49.591Z</time>
      </trkpt>
      <trkpt lat="44.03537" lon="5.25857">
        <ele>456</ele>
        <time>2020-07-11T07:02:50.591Z</time>
      </trkpt>
      <trkpt lat="44.03534" lon="5.25861">
        <ele>456</ele>
        <time>2020-07-11T07:02:51.591Z</time>
      </trkpt>
      <trkpt lat="44.03532" lon="5.25865">
        <ele>456</ele>
        <time>2020-07-11T07:02:52.591Z</time>
      </trkpt>
      <trkpt lat="44.0353" lon="5.25869">
        <ele>456</ele>
        <time>2020-07-11T07:02:53.591Z</time>
      </trkpt>
      <trkpt lat="44.03528" lon="5.25873">
        <ele>456</ele>
        <time>2020-07-11T07:02:54.590Z</time>
      </trkpt>
      <trkpt lat="44.03526" lon="5.25877">
        <ele>456</ele>
        <time>2020-07-11T07:02:55.591Z</time>
      </trkpt>
      <trkpt lat="44.03525" lon="5.2588">
        <ele>456</ele>
        <time>2020-07-11T07:02:56.591Z</time>
      </trkpt>
      <trkpt lat="44.03524" lon="5.25885">
        <ele>457</ele>
        <time>2020-07-11T07:02:57.591Z</time>
      </trkpt>
      <trkpt lat="44.03522" lon="5.25889">
        <ele>457</ele>
        <time>2020-07-11T07:02:58.591Z</time>
      </trkpt>
      <trkpt lat="44.03521" lon="5.25893">
        <ele>457</ele>
        <time>2020-07-11T07:02:59.591Z</time>
      </trkpt>
      <trkpt lat="44.03521" lon="5.25896">
        <ele>458</ele>
        <time>2020-07-11T07:03:00.590Z</time>
      </trkpt>
      <trkpt lat="44.03521" lon="5.25899">
        <ele>458</ele>
        <time>2020-07-11T07:03:01.591Z</time>
      </trkpt>
      <trkpt lat="44.03522" lon="5.25899">
        <ele>458</ele>
        <time>2020-07-11T07:03:02.591Z</time>
      </trkpt>
      <trkpt lat="44.03523" lon="5.25897">
        <ele>459</ele>
        <time>2020-07-11T07:03:03.591Z</time>
      </trkpt>
      <trkpt lat="44.03524" lon="5.25893">
        <ele>458</ele>
        <time>2020-07-11T07:03:04.591Z</time>
      </trkpt>
      <trkpt lat="44.03525" lon="5.25889">
        <ele>458</ele>
        <time>2020-07-11T07:03:05.591Z</time>
      </trkpt>
      <trkpt lat="44.03526" lon="5.25884">
        <ele>458</ele>
        <time>2020-07-11T07:03:06.591Z</time>
      </trkpt>
      <trkpt lat="44.03528" lon="5.25877">
        <ele>459</ele>
        <time>2020-07-11T07:03:07.591Z</time>
      </trkpt>
      <trkpt lat="44.0353" lon="5.25871">
        <ele>459</ele>
        <time>2020-07-11T07:03:08.591Z</time>
      </trkpt>
      <trkpt lat="44.03533" lon="5.25865">
        <ele>459</ele>
        <time>2020-07-11T07:03:09.591Z</time>
      </trkpt>
      <trkpt lat="44.03537" lon="5.2586">
        <ele>458</ele>
        <time>2020-07-11T07:03:10.590Z</time>
      </trkpt>
      <trkpt lat="44.03542" lon="5.25854">
        <ele>458</ele>
        <time>2020-07-11T07:03:11.591Z</time>
      </trkpt>
      <trkpt lat="44.03545" lon="5.2585">
        <ele>458</ele>
        <time>2020-07-11T07:03:12.591Z</time>
      </trkpt>
      <trkpt lat="44.03549" lon="5.25845">
        <ele>458</ele>
        <time>2020-07-11T07:03:13.591Z</time>
      </trkpt>
      <trkpt lat="44.03552" lon="5.25841">
        <ele>458</ele>
        <time>2020-07-11T07:03:14.591Z</time>
      </trkpt>
      <trkpt lat="44.03555" lon="5.25837">
        <ele>458</ele>
        <time>2020-07-11T07:03:15.590Z</time>
      </trkpt>
      <trkpt lat="44.03558" lon="5.25833">
        <ele>458</ele>
        <time>2020-07-11T07:03:16.590Z</time>
      </trkpt>
      <trkpt lat="44.03563" lon="5.25828">
        <ele>458</ele>
        <time>2020-07-11T07:03:17.590Z</time>
      </trkpt>
      <trkpt lat="44.03567" lon="5.25823">
        <ele>458</ele>
        <time>2020-07-11T07:03:18.590Z</time>
      </trkpt>
      <trkpt lat="44.03569" lon="5.2582">
        <ele>458</ele>
        <time>2020-07-11T07:03:19.590Z</time>
      </trkpt>
      <trkpt lat="44.03573" lon="5.25814">
        <ele>458</ele>
        <time>2020-07-11T07:03:20.590Z</time>
      </trkpt>
      <trkpt lat="44.03577" lon="5.2581">
        <ele>458</ele>
        <time>2020-07-11T07:03:21.591Z</time>
      </trkpt>
      <trkpt lat="44.03581" lon="5.25805">
        <ele>458</ele>
        <time>2020-07-11T07:03:22.591Z</time>
      </trkpt>
      <trkpt lat="44.03583" lon="5.25802">
        <ele>458</ele>
        <time>2020-07-11T07:03:23.591Z</time>
      </trkpt>
      <trkpt lat="44.03587" lon="5.25797">
        <ele>458</ele>
        <time>2020-07-11T07:03:24.591Z</time>
      </trkpt>
      <trkpt lat="44.03592" lon="5.25791">
        <ele>457</ele>
        <time>2020-07-11T07:03:25.591Z</time>
      </trkpt>
      <trkpt lat="44.03596" lon="5.25786">
        <ele>457</ele>
        <time>2020-07-11T07:03:26.590Z</time>
      </trkpt>
      <trkpt lat="44.036" lon="5.25781">
        <ele>457</ele>
        <time>2020-07-11T07:03:27.590Z</time>
      </trkpt>
      <trkpt lat="44.03603" lon="5.25777">
        <ele>457</ele>
        <time>2020-07-11T07:03:28.591Z</time>
      </trkpt>
      <trkpt lat="44.03607" lon="5.25772">
        <ele>457</ele>
        <time>2020-07-11T07:03:29.591Z</time>
      </trkpt>
      <trkpt lat="44.03612" lon="5.25765">
        <ele>457</ele>
        <time>2020-07-11T07:03:30.590Z</time>
      </trkpt>
      <trkpt lat="44.03616" lon="5.25759">
        <ele>456</ele>
        <time>2020-07-11T07:03:31.591Z</time>
      </trkpt>
      <trkpt lat="44.0362" lon="5.25755">
        <ele>456</ele>
        <time>2020-07-11T07:03:32.591Z</time>
      </trkpt>
      <trkpt lat="44.03624" lon="5.25749">
        <ele>456</ele>
        <time>2020-07-11T07:03:33.590Z</time>
      </trkpt>
      <trkpt lat="44.03628" lon="5.25743">
        <ele>456</ele>
        <time>2020-07-11T07:03:34.591Z</time>
      </trkpt>
      <trkpt lat="44.03633" lon="5.25736">
        <ele>456</ele>
        <time>2020-07-11T07:03:35.590Z</time>
      </trkpt>
      <trkpt lat="44.03636" lon="5.25731">
        <ele>456</ele>
        <time>2020-07-11T07:03:36.590Z</time>
      </trkpt>
      <trkpt lat="44.0364" lon="5.25724">
        <ele>456</ele>
        <time>2020-07-11T07:03:37.591Z</time>
      </trkpt>
      <trkpt lat="44.03644" lon="5.25718">
        <ele>456</ele>
        <time>2020-07-11T07:03:38.591Z</time>
      </trkpt>
      <trkpt lat="44.03649" lon="5.25711">
        <ele>456</ele>
        <time>2020-07-11T07:03:39.591Z</time>
      </trkpt>
      <trkpt lat="44.03653" lon="5.25705">
        <ele>456</ele>
        <time>2020-07-11T07:03:40.591Z</time>
      </trkpt>
      <trkpt lat="44.03658" lon="5.25699">
        <ele>456</ele>
        <time>2020-07-11T07:03:41.591Z</time>
      </trkpt>
      <trkpt lat="44.03661" lon="5.25694">
        <ele>456</ele>
        <time>2020-07-11T07:03:42.591Z</time>
      </trkpt>
      <trkpt lat="44.03666" lon="5.25687">
        <ele>456</ele>
        <time>2020-07-11T07:03:43.590Z</time>
      </trkpt>
      <trkpt lat="44.0367" lon="5.25682">
        <ele>456</ele>
        <time>2020-07-11T07:03:44.591Z</time>
      </trkpt>
      <trkpt lat="44.03673" lon="5.25677">
        <ele>455</ele>
        <time>2020-07-11T07:03:45.591Z</time>
      </trkpt>
      <trkpt lat="44.03676" lon="5.25673">
        <ele>455</ele>
        <time>2020-07-11T07:03:46.591Z</time>
      </trkpt>
      <trkpt lat="44.0368" lon="5.2567">
        <ele>455</ele>
        <time>2020-07-11T07:03:47.591Z</time>
      </trkpt>
      <trkpt lat="44.03683" lon="5.25666">
        <ele>455</ele>
        <time>2020-07-11T07:03:48.591Z</time>
      </trkpt>
      <trkpt lat="44.03688" lon="5.25662">
        <ele>455</ele>
        <time>2020-07-11T07:03:49.591Z</time>
      </trkpt>
      <trkpt lat="44.03691" lon="5.25659">
        <ele>455</ele>
        <time>2020-07-11T07:03:50.591Z</time>
      </trkpt>
      <trkpt lat="44.03694" lon="5.25656">
        <ele>455</ele>
        <time>2020-07-11T07:03:51.591Z</time>
      </trkpt>
      <trkpt lat="44.03696" lon="5.25653">
        <ele>455</ele>
        <time>2020-07-11T07:03:52.591Z</time>
      </trkpt>
      <trkpt lat="44.03698" lon="5.25651">
        <ele>455</ele>
        <time>2020-07-11T07:03:53.590Z</time>
      </trkpt>
      <trkpt lat="44.03697" lon="5.2565">
        <ele>455</ele>
        <time>2020-07-11T07:03:54.591Z</time>
      </trkpt>
      <trkpt lat="44.03696" lon="5.25651">
        <ele>455</ele>
        <time>2020-07-11T07:03:55.591Z</time>
      </trkpt>
      <trkpt lat="44.03694" lon="5.25653">
        <ele>454</ele>
        <time>2020-07-11T07:03:56.591Z</time>
      </trkpt>
      <trkpt lat="44.03691" lon="5.25656">
        <ele>454</ele>
        <time>2020-07-11T07:03:57.591Z</time>
      </trkpt>
      <trkpt lat="44.03688" lon="5.25659">
        <ele>454</ele>
        <time>2020-07-11T07:03:58.591Z</time>
      </trkpt>
      <trkpt lat="44.03684" lon="5.25663">
        <ele>454</ele>
        <time>2020-07-11T07:03:59.590Z</time>
      </trkpt>
      <trkpt lat="44.03681" lon="5.25667">
        <ele>454</ele>
        <time>2020-07-11T07:04:00.591Z</time>
      </trkpt>
      <trkpt lat="44.03677" lon="5.2567">
        <ele>454</ele>
        <time>2020-07-11T07:04:01.591Z</time>
      </trkpt>
      <trkpt lat="44.03673" lon="5.25675">
        <ele>454</ele>
        <time>2020-07-11T07:04:02.591Z</time>
      </trkpt>
      <trkpt lat="44.03669" lon="5.25678">
        <ele>454</ele>
        <time>2020-07-11T07:04:03.591Z</time>
      </trkpt>
      <trkpt lat="44.03667" lon="5.25681">
        <ele>454</ele>
        <time>2020-07-11T07:04:04.591Z</time>
      </trkpt>
      <trkpt lat="44.03664" lon="5.25684">
        <ele>455</ele>
        <time>2020-07-11T07:04:05.591Z</time>
      </trkpt>
      <trkpt lat="44.03662" lon="5.25688">
        <ele>455</ele>
        <time>2020-07-11T07:04:06.590Z</time>
      </trkpt>
      <trkpt lat="44.03658" lon="5.25693">
        <ele>455</ele>
        <time>2020-07-11T07:04:07.591Z</time>
      </trkpt>
      <trkpt lat="44.03656" lon="5.25697">
        <ele>455</ele>
        <time>2020-07-11T07:04:08.591Z</time>
      </trkpt>
      <trkpt lat="44.03653" lon="5.257">
        <ele>455</ele>
        <time>2020-07-11T07:04:09.591Z</time>
      </trkpt>
      <trkpt lat="44.03651" lon="5.25704">
        <ele>454</ele>
        <time>2020-07-11T07:04:10.590Z</time>
      </trkpt>
      <trkpt lat="44.03649" lon="5.25707">
        <ele>454</ele>
        <time>2020-07-11T07:04:11.590Z</time>
      </trkpt>
      <trkpt lat="44.03646" lon="5.25712">
        <ele>454</ele>
        <time>2020-07-11T07:04:12.590Z</time>
      </trkpt>
      <trkpt lat="44.03643" lon="5.25716">
        <ele>454</ele>
        <time>2020-07-11T07:04:13.591Z</time>
      </trkpt>
      <trkpt lat="44.03641" lon="5.25719">
        <ele>454</ele>
        <time>2020-07-11T07:04:14.591Z</time>
      </trkpt>
      <trkpt lat="44.03639" lon="5.25723">
        <ele>454</ele>
        <time>2020-07-11T07:04:15.590Z</time>
      </trkpt>
      <trkpt lat="44.03636" lon="5.25727">
        <ele>454</ele>
        <time>2020-07-11T07:04:16.591Z</time>
      </trkpt>
      <trkpt lat="44.03634" lon="5.25731">
        <ele>454</ele>
        <time>2020-07-11T07:04:17.591Z</time>
      </trkpt>
      <trkpt lat="44.03631" lon="5.25735">
        <ele>455</ele>
        <time>2020-07-11T07:04:18.591Z</time>
      </trkpt>
      <trkpt lat="44.0363" lon="5.25737">
        <ele>455</ele>
        <time>2020-07-11T07:04:19.590Z</time>
      </trkpt>
      <trkpt lat="44.03627" lon="5.25741">
        <ele>455</ele>
        <time>2020-07-11T07:04:20.591Z</time>
      </trkpt>
      <trkpt lat="44.03625" lon="5.25745">
        <ele>455</ele>
        <time>2020-07-11T07:04:21.591Z</time>
      </trkpt>
      <trkpt lat="44.03622" lon="5.25749">
        <ele>455</ele>
        <time>2020-07-11T07:04:22.591Z</time>
      </trkpt>
      <trkpt lat="44.03619" lon="5.25752">
        <ele>455</ele>
        <time>2020-07-11T07:04:23.591Z</time>
      </trkpt>
      <trkpt lat="44.03617" lon="5.25755">
        <ele>456</ele>
        <time>2020-07-11T07:04:24.591Z</time>
      </trkpt>
      <trkpt lat="44.03615" lon="5.25758">
        <ele>456</ele>
        <time>2020-07-11T07:04:25.591Z</time>
      </trkpt>
      <trkpt lat="44.03612" lon="5.25762">
        <ele>456</ele>
        <time>2020-07-11T07:04:26.591Z</time>
      </trkpt>
      <trkpt lat="44.03609" lon="5.25766">
        <ele>457</ele>
        <time>2020-07-11T07:04:27.591Z</time>
      </trkpt>
      <trkpt lat="44.03607" lon="5.25768">
        <ele>457</ele>
        <time>2020-07-11T07:04:28.590Z</time>
      </trkpt>
      <trkpt lat="44.03605" lon="5.25771">
        <ele>457</ele>
        <time>2020-07-11T07:04:29.591Z</time>
      </trkpt>
      <trkpt lat="44.03602" lon="5.25774">
        <ele>457</ele>
        <time>2020-07-11T07:04:30.591Z</time>
      </trkpt>
      <trkpt lat="44.036" lon="5.25777">
        <ele>457</ele>
        <time>2020-07-11T07:04:31.591Z</time>
      </trkpt>
      <trkpt lat="44.03597" lon="5.25781">
        <ele>458</ele>
        <time>2020-07-11T07:04:32.591Z</time>
      </trkpt>
      <trkpt lat="44.03595" lon="5.25783">
        <ele>458</ele>
        <time>2020-07-11T07:04:33.590Z</time>
      </trkpt>
      <trkpt lat="44.03592" lon="5.25787">
        <ele>458</ele>
        <time>2020-07-11T07:04:34.591Z</time>
      </trkpt>
      <trkpt lat="44.03589" lon="5.2579">
        <ele>458</ele>
        <time>2020-07-11T07:04:35.591Z</time>
      </trkpt>
      <trkpt lat="44.03587" lon="5.25793">
        <ele>459</ele>
        <time>2020-07-11T07:04:36.591Z</time>
      </trkpt>
      <trkpt lat="44.03584" lon="5.25797">
        <ele>459</ele>
        <time>2020-07-11T07:04:37.591Z</time>
      </trkpt>
      <trkpt lat="44.03582" lon="5.258">
        <ele>459</ele>
        <time>2020-07-11T07:04:38.591Z</time>
      </trkpt>
      <trkpt lat="44.03579" lon="5.25803">
        <ele>459</ele>
        <time>2020-07-11T07:04:39.591Z</time>
      </trkpt>
      <trkpt lat="44.03577" lon="5.25806">
        <ele>459</ele>
        <time>2020-07-11T07:04:40.591Z</time>
      </trkpt>
      <trkpt lat="44.03574" lon="5.2581">
        <ele>459</ele>
        <time>2020-07-11T07:04:41.591Z</time>
      </trkpt>
      <trkpt lat="44.03572" lon="5.25813">
        <ele>458</ele>
        <time>2020-07-11T07:04:42.591Z</time>
      </trkpt>
      <trkpt lat="44.0357" lon="5.25816">
        <ele>458</ele>
        <time>2020-07-11T07:04:43.591Z</time>
      </trkpt>
      <trkpt lat="44.03566" lon="5.2582">
        <ele>459</ele>
        <time>2020-07-11T07:04:44.591Z</time>
      </trkpt>
      <trkpt lat="44.03564" lon="5.25823">
        <ele>459</ele>
        <time>2020-07-11T07:04:45.590Z</time>
      </trkpt>
      <trkpt lat="44.03562" lon="5.25825">
        <ele>459</ele>
        <time>2020-07-11T07:04:46.591Z</time>
      </trkpt>
      <trkpt lat="44.03559" lon="5.25829">
        <ele>459</ele>
        <time>2020-07-11T07:04:47.591Z</time>
      </trkpt>
      <trkpt lat="44.03556" lon="5.25833">
        <ele>459</ele>
        <time>2020-07-11T07:04:48.591Z</time>
      </trkpt>
      <trkpt lat="44.03553" lon="5.25836">
        <ele>459</ele>
        <time>2020-07-11T07:04:49.590Z</time>
      </trkpt>
      <trkpt lat="44.03551" lon="5.2584">
        <ele>459</ele>
        <time>2020-07-11T07:04:50.591Z</time>
      </trkpt>
      <trkpt lat="44.03547" lon="5.25844">
        <ele>459</ele>
        <time>2020-07-11T07:04:51.590Z</time>
      </trkpt>
      <trkpt lat="44.03545" lon="5.25846">
        <ele>459</ele>
        <time>2020-07-11T07:04:52.591Z</time>
      </trkpt>
      <trkpt lat="44.03542" lon="5.2585">
        <ele>458</ele>
        <time>2020-07-11T07:04:53.591Z</time>
      </trkpt>
      <trkpt lat="44.03539" lon="5.25854">
        <ele>458</ele>
        <time>2020-07-11T07:04:54.591Z</time>
      </trkpt>
      <trkpt lat="44.03538" lon="5.25857">
        <ele>458</ele>
        <time>2020-07-11T07:04:55.590Z</time>
      </trkpt>
      <trkpt lat="44.03535" lon="5.25862">
        <ele>458</ele>
        <time>2020-07-11T07:04:56.591Z</time>
      </trkpt>
      <trkpt lat="44.03533" lon="5.25865">
        <ele>458</ele>
        <time>2020-07-11T07:04:57.590Z</time>
      </trkpt>
      <trkpt lat="44.0353" lon="5.25869">
        <ele>458</ele>
        <time>2020-07-11T07:04:58.591Z</time>
      </trkpt>
      <trkpt lat="44.03528" lon="5.25874">
        <ele>458</ele>
        <time>2020-07-11T07:04:59.591Z</time>
      </trkpt>
      <trkpt lat="44.03526" lon="5.25879">
        <ele>458</ele>
        <time>2020-07-11T07:05:00.591Z</time>
      </trkpt>
      <trkpt lat="44.03525" lon="5.25882">
        <ele>458</ele>
        <time>2020-07-11T07:05:01.591Z</time>
      </trkpt>
      <trkpt lat="44.03524" lon="5.25887">
        <ele>459</ele>
        <time>2020-07-11T07:05:02.590Z</time>
      </trkpt>
      <trkpt lat="44.03522" lon="5.25893">
        <ele>459</ele>
        <time>2020-07-11T07:05:03.590Z</time>
      </trkpt>
      <trkpt lat="44.03522" lon="5.25899">
        <ele>460</ele>
        <time>2020-07-11T07:05:04.591Z</time>
      </trkpt>
      <trkpt lat="44.03521" lon="5.25903">
        <ele>460</ele>
        <time>2020-07-11T07:05:05.591Z</time>
      </trkpt>
      <trkpt lat="44.03521" lon="5.25909">
        <ele>460</ele>
        <time>2020-07-11T07:05:06.591Z</time>
      </trkpt>
      <trkpt lat="44.03521" lon="5.25915">
        <ele>460</ele>
        <time>2020-07-11T07:05:07.591Z</time>
      </trkpt>
      <trkpt lat="44.03521" lon="5.25921">
        <ele>460</ele>
        <time>2020-07-11T07:05:08.591Z</time>
      </trkpt>
      <trkpt lat="44.03521" lon="5.25926">
        <ele>460</ele>
        <time>2020-07-11T07:05:09.591Z</time>
      </trkpt>
      <trkpt lat="44.03521" lon="5.25931">
        <ele>461</ele>
        <time>2020-07-11T07:05:10.591Z</time>
      </trkpt>
      <trkpt lat="44.03522" lon="5.25938">
        <ele>461</ele>
        <time>2020-07-11T07:05:11.590Z</time>
      </trkpt>
      <trkpt lat="44.03522" lon="5.25943">
        <ele>461</ele>
        <time>2020-07-11T07:05:12.591Z</time>
      </trkpt>
      <trkpt lat="44.03523" lon="5.25949">
        <ele>461</ele>
        <time>2020-07-11T07:05:13.591Z</time>
      </trkpt>
      <trkpt lat="44.03523" lon="5.25954">
        <ele>461</ele>
        <time>2020-07-11T07:05:14.591Z</time>
      </trkpt>
      <trkpt lat="44.03524" lon="5.2596">
        <ele>461</ele>
        <time>2020-07-11T07:05:15.590Z</time>
      </trkpt>
      <trkpt lat="44.03525" lon="5.25966">
        <ele>461</ele>
        <time>2020-07-11T07:05:16.591Z</time>
      </trkpt>
      <trkpt lat="44.03526" lon="5.25971">
        <ele>461</ele>
        <time>2020-07-11T07:05:17.591Z</time>
      </trkpt>
      <trkpt lat="44.03526" lon="5.25977">
        <ele>461</ele>
        <time>2020-07-11T07:05:18.591Z</time>
      </trkpt>
      <trkpt lat="44.03527" lon="5.25983">
        <ele>461</ele>
        <time>2020-07-11T07:05:19.591Z</time>
      </trkpt>
      <trkpt lat="44.03528" lon="5.25988">
        <ele>460</ele>
        <time>2020-07-11T07:05:20.591Z</time>
      </trkpt>
      <trkpt lat="44.03529" lon="5.25994">
        <ele>460</ele>
        <time>2020-07-11T07:05:21.591Z</time>
      </trkpt>
      <trkpt lat="44.03529" lon="5.26">
        <ele>459</ele>
        <time>2020-07-11T07:05:22.591Z</time>
      </trkpt>
      <trkpt lat="44.0353" lon="5.26006">
        <ele>459</ele>
        <time>2020-07-11T07:05:23.591Z</time>
      </trkpt>
      <trkpt lat="44.0353" lon="5.2601">
        <ele>459</ele>
        <time>2020-07-11T07:05:24.590Z</time>
      </trkpt>
      <trkpt lat="44.03531" lon="5.26017">
        <ele>459</ele>
        <time>2020-07-11T07:05:25.591Z</time>
      </trkpt>
      <trkpt lat="44.03531" lon="5.26022">
        <ele>459</ele>
        <time>2020-07-11T07:05:26.590Z</time>
      </trkpt>
      <trkpt lat="44.03531" lon="5.26028">
        <ele>460</ele>
        <time>2020-07-11T07:05:27.591Z</time>
      </trkpt>
      <trkpt lat="44.03531" lon="5.26032">
        <ele>460</ele>
        <time>2020-07-11T07:05:28.591Z</time>
      </trkpt>
      <trkpt lat="44.03531" lon="5.26037">
        <ele>461</ele>
        <time>2020-07-11T07:05:29.591Z</time>
      </trkpt>
      <trkpt lat="44.03532" lon="5.26044">
        <ele>461</ele>
        <time>2020-07-11T07:05:30.591Z</time>
      </trkpt>
      <trkpt lat="44.03532" lon="5.2605">
        <ele>461</ele>
        <time>2020-07-11T07:05:31.591Z</time>
      </trkpt>
      <trkpt lat="44.03532" lon="5.26054">
        <ele>462</ele>
        <time>2020-07-11T07:05:32.590Z</time>
      </trkpt>
      <trkpt lat="44.03532" lon="5.2606">
        <ele>462</ele>
        <time>2020-07-11T07:05:33.590Z</time>
      </trkpt>
      <trkpt lat="44.03532" lon="5.26065">
        <ele>462</ele>
        <time>2020-07-11T07:05:34.591Z</time>
      </trkpt>
      <trkpt lat="44.03532" lon="5.26072">
        <ele>463</ele>
        <time>2020-07-11T07:05:35.591Z</time>
      </trkpt>
      <trkpt lat="44.03532" lon="5.26078">
        <ele>463</ele>
        <time>2020-07-11T07:05:36.591Z</time>
      </trkpt>
      <trkpt lat="44.03531" lon="5.26084">
        <ele>463</ele>
        <time>2020-07-11T07:05:37.591Z</time>
      </trkpt>
      <trkpt lat="44.03531" lon="5.26089">
        <ele>463</ele>
        <time>2020-07-11T07:05:38.591Z</time>
      </trkpt>
      <trkpt lat="44.0353" lon="5.26096">
        <ele>463</ele>
        <time>2020-07-11T07:05:39.591Z</time>
      </trkpt>
      <trkpt lat="44.03529" lon="5.26102">
        <ele>463</ele>
        <time>2020-07-11T07:05:40.591Z</time>
      </trkpt>
      <trkpt lat="44.03528" lon="5.26108">
        <ele>463</ele>
        <time>2020-07-11T07:05:41.591Z</time>
      </trkpt>
      <trkpt lat="44.03527" lon="5.26115">
        <ele>463</ele>
        <time>2020-07-11T07:05:42.591Z</time>
      </trkpt>
      <trkpt lat="44.03526" lon="5.26121">
        <ele>463</ele>
        <time>2020-07-11T07:05:43.590Z</time>
      </trkpt>
      <trkpt lat="44.03525" lon="5.26127">
        <ele>463</ele>
        <time>2020-07-11T07:05:44.590Z</time>
      </trkpt>
      <trkpt lat="44.03525" lon="5.26132">
        <ele>463</ele>
        <time>2020-07-11T07:05:45.591Z</time>
      </trkpt>
      <trkpt lat="44.03524" lon="5.26138">
        <ele>463</ele>
        <time>2020-07-11T07:05:46.591Z</time>
      </trkpt>
      <trkpt lat="44.03523" lon="5.26143">
        <ele>464</ele>
        <time>2020-07-11T07:05:47.591Z</time>
      </trkpt>
      <trkpt lat="44.03522" lon="5.2615">
        <ele>464</ele>
        <time>2020-07-11T07:05:48.591Z</time>
      </trkpt>
      <trkpt lat="44.03521" lon="5.26155">
        <ele>464</ele>
        <time>2020-07-11T07:05:49.591Z</time>
      </trkpt>
      <trkpt lat="44.03519" lon="5.26161">
        <ele>465</ele>
        <time>2020-07-11T07:05:50.590Z</time>
      </trkpt>
      <trkpt lat="44.03518" lon="5.26167">
        <ele>465</ele>
        <time>2020-07-11T07:05:51.591Z</time>
      </trkpt>
      <trkpt lat="44.03517" lon="5.26171">
        <ele>466</ele>
        <time>2020-07-11T07:05:52.590Z</time>
      </trkpt>
      <trkpt lat="44.03515" lon="5.26177">
        <ele>466</ele>
        <time>2020-07-11T07:05:53.590Z</time>
      </trkpt>
      <trkpt lat="44.03513" lon="5.26183">
        <ele>467</ele>
        <time>2020-07-11T07:05:54.590Z</time>
      </trkpt>
      <trkpt lat="44.03512" lon="5.26188">
        <ele>468</ele>
        <time>2020-07-11T07:05:55.590Z</time>
      </trkpt>
      <trkpt lat="44.0351" lon="5.26193">
        <ele>468</ele>
        <time>2020-07-11T07:05:56.590Z</time>
      </trkpt>
      <trkpt lat="44.03508" lon="5.26198">
        <ele>469</ele>
        <time>2020-07-11T07:05:57.590Z</time>
      </trkpt>
      <trkpt lat="44.03507" lon="5.26203">
        <ele>469</ele>
        <time>2020-07-11T07:05:58.590Z</time>
      </trkpt>
      <trkpt lat="44.03505" lon="5.26208">
        <ele>468</ele>
        <time>2020-07-11T07:05:59.590Z</time>
      </trkpt>
      <trkpt lat="44.03503" lon="5.26213">
        <ele>468</ele>
        <time>2020-07-11T07:06:00.591Z</time>
      </trkpt>
      <trkpt lat="44.03501" lon="5.26217">
        <ele>468</ele>
        <time>2020-07-11T07:06:01.590Z</time>
      </trkpt>
      <trkpt lat="44.03499" lon="5.26221">
        <ele>468</ele>
        <time>2020-07-11T07:06:02.591Z</time>
      </trkpt>
      <trkpt lat="44.03497" lon="5.26227">
        <ele>467</ele>
        <time>2020-07-11T07:06:03.591Z</time>
      </trkpt>
      <trkpt lat="44.03495" lon="5.26231">
        <ele>467</ele>
        <time>2020-07-11T07:06:04.591Z</time>
      </trkpt>
      <trkpt lat="44.03493" lon="5.26236">
        <ele>467</ele>
        <time>2020-07-11T07:06:05.591Z</time>
      </trkpt>
      <trkpt lat="44.03491" lon="5.2624">
        <ele>467</ele>
        <time>2020-07-11T07:06:06.591Z</time>
      </trkpt>
      <trkpt lat="44.03489" lon="5.26245">
        <ele>467</ele>
        <time>2020-07-11T07:06:07.591Z</time>
      </trkpt>
      <trkpt lat="44.03487" lon="5.26249">
        <ele>467</ele>
        <time>2020-07-11T07:06:08.591Z</time>
      </trkpt>
      <trkpt lat="44.03485" lon="5.26254">
        <ele>468</ele>
        <time>2020-07-11T07:06:09.591Z</time>
      </trkpt>
      <trkpt lat="44.03483" lon="5.26259">
        <ele>468</ele>
        <time>2020-07-11T07:06:10.590Z</time>
      </trkpt>
      <trkpt lat="44.03482" lon="5.26265">
        <ele>469</ele>
        <time>2020-07-11T07:06:11.590Z</time>
      </trkpt>
      <trkpt lat="44.03482" lon="5.2627">
        <ele>469</ele>
        <time>2020-07-11T07:06:12.591Z</time>
      </trkpt>
      <trkpt lat="44.03481" lon="5.26276">
        <ele>469</ele>
        <time>2020-07-11T07:06:13.590Z</time>
      </trkpt>
      <trkpt lat="44.03481" lon="5.26281">
        <ele>469</ele>
        <time>2020-07-11T07:06:14.591Z</time>
      </trkpt>
      <trkpt lat="44.03481" lon="5.26286">
        <ele>469</ele>
        <time>2020-07-11T07:06:15.591Z</time>
      </trkpt>
      <trkpt lat="44.03482" lon="5.26292">
        <ele>469</ele>
        <time>2020-07-11T07:06:16.591Z</time>
      </trkpt>
      <trkpt lat="44.03483" lon="5.26297">
        <ele>468</ele>
        <time>2020-07-11T07:06:17.590Z</time>
      </trkpt>
      <trkpt lat="44.03485" lon="5.26302">
        <ele>468</ele>
        <time>2020-07-11T07:06:18.591Z</time>
      </trkpt>
      <trkpt lat="44.03487" lon="5.26307">
        <ele>467</ele>
        <time>2020-07-11T07:06:19.590Z</time>
      </trkpt>
      <trkpt lat="44.0349" lon="5.26312">
        <ele>467</ele>
        <time>2020-07-11T07:06:20.591Z</time>
      </trkpt>
      <trkpt lat="44.03492" lon="5.26317">
        <ele>466</ele>
        <time>2020-07-11T07:06:21.590Z</time>
      </trkpt>
      <trkpt lat="44.03495" lon="5.26322">
        <ele>466</ele>
        <time>2020-07-11T07:06:22.591Z</time>
      </trkpt>
      <trkpt lat="44.03497" lon="5.26326">
        <ele>466</ele>
        <time>2020-07-11T07:06:23.591Z</time>
      </trkpt>
      <trkpt lat="44.035" lon="5.26331">
        <ele>466</ele>
        <time>2020-07-11T07:06:24.590Z</time>
      </trkpt>
      <trkpt lat="44.03502" lon="5.26336">
        <ele>465</ele>
        <time>2020-07-11T07:06:25.590Z</time>
      </trkpt>
      <trkpt lat="44.03505" lon="5.2634">
        <ele>465</ele>
        <time>2020-07-11T07:06:26.591Z</time>
      </trkpt>
      <trkpt lat="44.03508" lon="5.26345">
        <ele>464</ele>
        <time>2020-07-11T07:06:27.591Z</time>
      </trkpt>
      <trkpt lat="44.03511" lon="5.2635">
        <ele>464</ele>
        <time>2020-07-11T07:06:28.591Z</time>
      </trkpt>
      <trkpt lat="44.03513" lon="5.26354">
        <ele>463</ele>
        <time>2020-07-11T07:06:29.591Z</time>
      </trkpt>
      <trkpt lat="44.03516" lon="5.26359">
        <ele>463</ele>
        <time>2020-07-11T07:06:30.591Z</time>
      </trkpt>
      <trkpt lat="44.03518" lon="5.26364">
        <ele>463</ele>
        <time>2020-07-11T07:06:31.591Z</time>
      </trkpt>
      <trkpt lat="44.0352" lon="5.26369">
        <ele>463</ele>
        <time>2020-07-11T07:06:32.591Z</time>
      </trkpt>
      <trkpt lat="44.03522" lon="5.26374">
        <ele>463</ele>
        <time>2020-07-11T07:06:33.591Z</time>
      </trkpt>
      <trkpt lat="44.03525" lon="5.26379">
        <ele>463</ele>
        <time>2020-07-11T07:06:34.591Z</time>
      </trkpt>
      <trkpt lat="44.03527" lon="5.26384">
        <ele>463</ele>
        <time>2020-07-11T07:06:35.590Z</time>
      </trkpt>
      <trkpt lat="44.03529" lon="5.26389">
        <ele>463</ele>
        <time>2020-07-11T07:06:36.591Z</time>
      </trkpt>
      <trkpt lat="44.03532" lon="5.26393">
        <ele>463</ele>
        <time>2020-07-11T07:06:37.591Z</time>
      </trkpt>
      <trkpt lat="44.03534" lon="5.26397">
        <ele>464</ele>
        <time>2020-07-11T07:06:38.591Z</time>
      </trkpt>
      <trkpt lat="44.03536" lon="5.26401">
        <ele>464</ele>
        <time>2020-07-11T07:06:39.591Z</time>
      </trkpt>
      <trkpt lat="44.03538" lon="5.26406">
        <ele>465</ele>
        <time>2020-07-11T07:06:40.591Z</time>
      </trkpt>
      <trkpt lat="44.0354" lon="5.2641">
        <ele>465</ele>
        <time>2020-07-11T07:06:41.591Z</time>
      </trkpt>
      <trkpt lat="44.03542" lon="5.26415">
        <ele>465</ele>
        <time>2020-07-11T07:06:42.591Z</time>
      </trkpt>
      <trkpt lat="44.03545" lon="5.2642">
        <ele>466</ele>
        <time>2020-07-11T07:06:43.591Z</time>
      </trkpt>
      <trkpt lat="44.03547" lon="5.26425">
        <ele>465</ele>
        <time>2020-07-11T07:06:44.591Z</time>
      </trkpt>
      <trkpt lat="44.0355" lon="5.2643">
        <ele>466</ele>
        <time>2020-07-11T07:06:45.590Z</time>
      </trkpt>
      <trkpt lat="44.03552" lon="5.26435">
        <ele>466</ele>
        <time>2020-07-11T07:06:46.591Z</time>
      </trkpt>
      <trkpt lat="44.03554" lon="5.26441">
        <ele>466</ele>
        <time>2020-07-11T07:06:47.591Z</time>
      </trkpt>
      <trkpt lat="44.03556" lon="5.26445">
        <ele>466</ele>
        <time>2020-07-11T07:06:48.591Z</time>
      </trkpt>
      <trkpt lat="44.03559" lon="5.26451">
        <ele>466</ele>
        <time>2020-07-11T07:06:49.591Z</time>
      </trkpt>
      <trkpt lat="44.03562" lon="5.26457">
        <ele>466</ele>
        <time>2020-07-11T07:06:50.590Z</time>
      </trkpt>
      <trkpt lat="44.03564" lon="5.26462">
        <ele>466</ele>
        <time>2020-07-11T07:06:51.591Z</time>
      </trkpt>
      <trkpt lat="44.03566" lon="5.26465">
        <ele>466</ele>
        <time>2020-07-11T07:06:52.590Z</time>
      </trkpt>
      <trkpt lat="44.03569" lon="5.2647">
        <ele>465</ele>
        <time>2020-07-11T07:06:53.590Z</time>
      </trkpt>
      <trkpt lat="44.03572" lon="5.26475">
        <ele>465</ele>
        <time>2020-07-11T07:06:54.590Z</time>
      </trkpt>
      <trkpt lat="44.03574" lon="5.26479">
        <ele>465</ele>
        <time>2020-07-11T07:06:55.591Z</time>
      </trkpt>
      <trkpt lat="44.03577" lon="5.26483">
        <ele>465</ele>
        <time>2020-07-11T07:06:56.591Z</time>
      </trkpt>
      <trkpt lat="44.0358" lon="5.26488">
        <ele>465</ele>
        <time>2020-07-11T07:06:57.591Z</time>
      </trkpt>
      <trkpt lat="44.03584" lon="5.26492">
        <ele>465</ele>
        <time>2020-07-11T07:06:58.591Z</time>
      </trkpt>
      <trkpt lat="44.03587" lon="5.26495">
        <ele>465</ele>
        <time>2020-07-11T07:06:59.591Z</time>
      </trkpt>
      <trkpt lat="44.03591" lon="5.26499">
        <ele>466</ele>
        <time>2020-07-11T07:07:00.591Z</time>
      </trkpt>
      <trkpt lat="44.03594" lon="5.26502">
        <ele>466</ele>
        <time>2020-07-11T07:07:01.590Z</time>
      </trkpt>
      <trkpt lat="44.03598" lon="5.26505">
        <ele>467</ele>
        <time>2020-07-11T07:07:02.591Z</time>
      </trkpt>
      <trkpt lat="44.03602" lon="5.26508">
        <ele>466</ele>
        <time>2020-07-11T07:07:03.590Z</time>
      </trkpt>
      <trkpt lat="44.03606" lon="5.26511">
        <ele>466</ele>
        <time>2020-07-11T07:07:04.590Z</time>
      </trkpt>
      <trkpt lat="44.03611" lon="5.26514">
        <ele>466</ele>
        <time>2020-07-11T07:07:05.590Z</time>
      </trkpt>
      <trkpt lat="44.03616" lon="5.26517">
        <ele>466</ele>
        <time>2020-07-11T07:07:06.590Z</time>
      </trkpt>
      <trkpt lat="44.03621" lon="5.26519">
        <ele>466</ele>
        <time>2020-07-11T07:07:07.591Z</time>
      </trkpt>
      <trkpt lat="44.03624" lon="5.26521">
        <ele>466</ele>
        <time>2020-07-11T07:07:08.591Z</time>
      </trkpt>
      <trkpt lat="44.03629" lon="5.26523">
        <ele>466</ele>
        <time>2020-07-11T07:07:09.591Z</time>
      </trkpt>
      <trkpt lat="44.03633" lon="5.26524">
        <ele>467</ele>
        <time>2020-07-11T07:07:10.590Z</time>
      </trkpt>
      <trkpt lat="44.03637" lon="5.26526">
        <ele>467</ele>
        <time>2020-07-11T07:07:11.590Z</time>
      </trkpt>
      <trkpt lat="44.03641" lon="5.26527">
        <ele>467</ele>
        <time>2020-07-11T07:07:12.591Z</time>
      </trkpt>
      <trkpt lat="44.03646" lon="5.26528">
        <ele>468</ele>
        <time>2020-07-11T07:07:13.591Z</time>
      </trkpt>
      <trkpt lat="44.0365" lon="5.2653">
        <ele>468</ele>
        <time>2020-07-11T07:07:14.591Z</time>
      </trkpt>
      <trkpt lat="44.03655" lon="5.26531">
        <ele>468</ele>
        <time>2020-07-11T07:07:15.591Z</time>
      </trkpt>
      <trkpt lat="44.0366" lon="5.26532">
        <ele>468</ele>
        <time>2020-07-11T07:07:16.591Z</time>
      </trkpt>
      <trkpt lat="44.03663" lon="5.26533">
        <ele>469</ele>
        <time>2020-07-11T07:07:17.591Z</time>
      </trkpt>
      <trkpt lat="44.03668" lon="5.26535">
        <ele>469</ele>
        <time>2020-07-11T07:07:18.591Z</time>
      </trkpt>
      <trkpt lat="44.03672" lon="5.26536">
        <ele>469</ele>
        <time>2020-07-11T07:07:19.590Z</time>
      </trkpt>
      <trkpt lat="44.03677" lon="5.26538">
        <ele>470</ele>
        <time>2020-07-11T07:07:20.590Z</time>
      </trkpt>
      <trkpt lat="44.03681" lon="5.2654">
        <ele>470</ele>
        <time>2020-07-11T07:07:21.590Z</time>
      </trkpt>
      <trkpt lat="44.03686" lon="5.26541">
        <ele>470</ele>
        <time>2020-07-11T07:07:22.590Z</time>
      </trkpt>
      <trkpt lat="44.0369" lon="5.26543">
        <ele>471</ele>
        <time>2020-07-11T07:07:23.591Z</time>
      </trkpt>
      <trkpt lat="44.03694" lon="5.26544">
        <ele>471</ele>
        <time>2020-07-11T07:07:24.590Z</time>
      </trkpt>
      <trkpt lat="44.03698" lon="5.26545">
        <ele>471</ele>
        <time>2020-07-11T07:07:25.590Z</time>
      </trkpt>
      <trkpt lat="44.03702" lon="5.26547">
        <ele>471</ele>
        <time>2020-07-11T07:07:26.591Z</time>
      </trkpt>
      <trkpt lat="44.03707" lon="5.26548">
        <ele>471</ele>
        <time>2020-07-11T07:07:27.591Z</time>
      </trkpt>
      <trkpt lat="44.03712" lon="5.2655">
        <ele>472</ele>
        <time>2020-07-11T07:07:28.591Z</time>
      </trkpt>
      <trkpt lat="44.03715" lon="5.26551">
        <ele>472</ele>
        <time>2020-07-11T07:07:29.591Z</time>
      </trkpt>
      <trkpt lat="44.0372" lon="5.26553">
        <ele>472</ele>
        <time>2020-07-11T07:07:30.590Z</time>
      </trkpt>
      <trkpt lat="44.03723" lon="5.26555">
        <ele>472</ele>
        <time>2020-07-11T07:07:31.591Z</time>
      </trkpt>
      <trkpt lat="44.03727" lon="5.26557">
        <ele>472</ele>
        <time>2020-07-11T07:07:32.591Z</time>
      </trkpt>
      <trkpt lat="44.03731" lon="5.26559">
        <ele>471</ele>
        <time>2020-07-11T07:07:33.591Z</time>
      </trkpt>
      <trkpt lat="44.03736" lon="5.26562">
        <ele>471</ele>
        <time>2020-07-11T07:07:34.591Z</time>
      </trkpt>
      <trkpt lat="44.03739" lon="5.26563">
        <ele>471</ele>
        <time>2020-07-11T07:07:35.591Z</time>
      </trkpt>
      <trkpt lat="44.03744" lon="5.26565">
        <ele>471</ele>
        <time>2020-07-11T07:07:36.591Z</time>
      </trkpt>
      <trkpt lat="44.03748" lon="5.26566">
        <ele>471</ele>
        <time>2020-07-11T07:07:37.591Z</time>
      </trkpt>
      <trkpt lat="44.03752" lon="5.26568">
        <ele>470</ele>
        <time>2020-07-11T07:07:38.591Z</time>
      </trkpt>
      <trkpt lat="44.03756" lon="5.26571">
        <ele>470</ele>
        <time>2020-07-11T07:07:39.591Z</time>
      </trkpt>
      <trkpt lat="44.0376" lon="5.26573">
        <ele>470</ele>
        <time>2020-07-11T07:07:40.590Z</time>
      </trkpt>
      <trkpt lat="44.03764" lon="5.26575">
        <ele>470</ele>
        <time>2020-07-11T07:07:41.591Z</time>
      </trkpt>
      <trkpt lat="44.03768" lon="5.26577">
        <ele>470</ele>
        <time>2020-07-11T07:07:42.590Z</time>
      </trkpt>
      <trkpt lat="44.03772" lon="5.26579">
        <ele>470</ele>
        <time>2020-07-11T07:07:43.591Z</time>
      </trkpt>
      <trkpt lat="44.03776" lon="5.26581">
        <ele>470</ele>
        <time>2020-07-11T07:07:44.591Z</time>
      </trkpt>
      <trkpt lat="44.0378" lon="5.26583">
        <ele>470</ele>
        <time>2020-07-11T07:07:45.590Z</time>
      </trkpt>
      <trkpt lat="44.03784" lon="5.26585">
        <ele>470</ele>
        <time>2020-07-11T07:07:46.591Z</time>
      </trkpt>
      <trkpt lat="44.03788" lon="5.26586">
        <ele>471</ele>
        <time>2020-07-11T07:07:47.591Z</time>
      </trkpt>
      <trkpt lat="44.03791" lon="5.26587">
        <ele>471</ele>
        <time>2020-07-11T07:07:48.591Z</time>
      </trkpt>
      <trkpt lat="44.03795" lon="5.26589">
        <ele>471</ele>
        <time>2020-07-11T07:07:49.591Z</time>
      </trkpt>
      <trkpt lat="44.03799" lon="5.26591">
        <ele>471</ele>
        <time>2020-07-11T07:07:50.590Z</time>
      </trkpt>
      <trkpt lat="44.03803" lon="5.26593">
        <ele>471</ele>
        <time>2020-07-11T07:07:51.591Z</time>
      </trkpt>
      <trkpt lat="44.03808" lon="5.26595">
        <ele>471</ele>
        <time>2020-07-11T07:07:52.590Z</time>
      </trkpt>
      <trkpt lat="44.03812" lon="5.26597">
        <ele>471</ele>
        <time>2020-07-11T07:07:53.591Z</time>
      </trkpt>
      <trkpt lat="44.03815" lon="5.266">
        <ele>471</ele>
        <time>2020-07-11T07:07:54.590Z</time>
      </trkpt>
      <trkpt lat="44.03819" lon="5.26602">
        <ele>471</ele>
        <time>2020-07-11T07:07:55.591Z</time>
      </trkpt>
      <trkpt lat="44.03823" lon="5.26605">
        <ele>471</ele>
        <time>2020-07-11T07:07:56.591Z</time>
      </trkpt>
      <trkpt lat="44.03827" lon="5.26608">
        <ele>471</ele>
        <time>2020-07-11T07:07:57.591Z</time>
      </trkpt>
      <trkpt lat="44.0383" lon="5.26611">
        <ele>471</ele>
        <time>2020-07-11T07:07:58.591Z</time>
      </trkpt>
      <trkpt lat="44.03833" lon="5.26614">
        <ele>471</ele>
        <time>2020-07-11T07:07:59.591Z</time>
      </trkpt>
      <trkpt lat="44.03836" lon="5.26615">
        <ele>471</ele>
        <time>2020-07-11T07:08:00.591Z</time>
      </trkpt>
      <trkpt lat="44.0384" lon="5.26619">
        <ele>471</ele>
        <time>2020-07-11T07:08:01.591Z</time>
      </trkpt>
      <trkpt lat="44.03844" lon="5.26622">
        <ele>471</ele>
        <time>2020-07-11T07:08:02.591Z</time>
      </trkpt>
      <trkpt lat="44.03847" lon="5.26626">
        <ele>471</ele>
        <time>2020-07-11T07:08:03.591Z</time>
      </trkpt>
      <trkpt lat="44.0385" lon="5.2663">
        <ele>471</ele>
        <time>2020-07-11T07:08:04.590Z</time>
      </trkpt>
      <trkpt lat="44.03854" lon="5.26634">
        <ele>471</ele>
        <time>2020-07-11T07:08:05.590Z</time>
      </trkpt>
      <trkpt lat="44.03857" lon="5.26638">
        <ele>470</ele>
        <time>2020-07-11T07:08:06.591Z</time>
      </trkpt>
      <trkpt lat="44.03861" lon="5.26642">
        <ele>470</ele>
        <time>2020-07-11T07:08:07.590Z</time>
      </trkpt>
      <trkpt lat="44.03864" lon="5.26646">
        <ele>469</ele>
        <time>2020-07-11T07:08:08.591Z</time>
      </trkpt>
      <trkpt lat="44.03867" lon="5.2665">
        <ele>469</ele>
        <time>2020-07-11T07:08:09.591Z</time>
      </trkpt>
      <trkpt lat="44.03871" lon="5.26654">
        <ele>469</ele>
        <time>2020-07-11T07:08:10.590Z</time>
      </trkpt>
      <trkpt lat="44.03874" lon="5.26658">
        <ele>469</ele>
        <time>2020-07-11T07:08:11.591Z</time>
      </trkpt>
      <trkpt lat="44.03877" lon="5.26662">
        <ele>469</ele>
        <time>2020-07-11T07:08:12.590Z</time>
      </trkpt>
      <trkpt lat="44.0388" lon="5.26666">
        <ele>469</ele>
        <time>2020-07-11T07:08:13.591Z</time>
      </trkpt>
      <trkpt lat="44.03883" lon="5.2667">
        <ele>469</ele>
        <time>2020-07-11T07:08:14.590Z</time>
      </trkpt>
      <trkpt lat="44.03886" lon="5.26674">
        <ele>469</ele>
        <time>2020-07-11T07:08:15.591Z</time>
      </trkpt>
      <trkpt lat="44.0389" lon="5.26678">
        <ele>469</ele>
        <time>2020-07-11T07:08:16.590Z</time>
      </trkpt>
      <trkpt lat="44.03893" lon="5.26682">
        <ele>470</ele>
        <time>2020-07-11T07:08:17.591Z</time>
      </trkpt>
      <trkpt lat="44.03896" lon="5.26686">
        <ele>470</ele>
        <time>2020-07-11T07:08:18.591Z</time>
      </trkpt>
      <trkpt lat="44.03899" lon="5.2669">
        <ele>470</ele>
        <time>2020-07-11T07:08:19.590Z</time>
      </trkpt>
      <trkpt lat="44.03902" lon="5.26695">
        <ele>470</ele>
        <time>2020-07-11T07:08:20.591Z</time>
      </trkpt>
      <trkpt lat="44.03905" lon="5.26699">
        <ele>470</ele>
        <time>2020-07-11T07:08:21.591Z</time>
      </trkpt>
      <trkpt lat="44.03909" lon="5.26703">
        <ele>470</ele>
        <time>2020-07-11T07:08:22.591Z</time>
      </trkpt>
      <trkpt lat="44.03912" lon="5.26708">
        <ele>470</ele>
        <time>2020-07-11T07:08:23.591Z</time>
      </trkpt>
      <trkpt lat="44.03915" lon="5.26712">
        <ele>470</ele>
        <time>2020-07-11T07:08:24.590Z</time>
      </trkpt>
      <trkpt lat="44.03918" lon="5.26717">
        <ele>469</ele>
        <time>2020-07-11T07:08:25.591Z</time>
      </trkpt>
      <trkpt lat="44.03921" lon="5.26721">
        <ele>469</ele>
        <time>2020-07-11T07:08:26.591Z</time>
      </trkpt>
      <trkpt lat="44.03924" lon="5.26725">
        <ele>469</ele>
        <time>2020-07-11T07:08:27.590Z</time>
      </trkpt>
      <trkpt lat="44.03927" lon="5.26728">
        <ele>468</ele>
        <time>2020-07-11T07:08:28.590Z</time>
      </trkpt>
      <trkpt lat="44.0393" lon="5.26732">
        <ele>468</ele>
        <time>2020-07-11T07:08:29.591Z</time>
      </trkpt>
      <trkpt lat="44.03934" lon="5.26736">
        <ele>467</ele>
        <time>2020-07-11T07:08:30.590Z</time>
      </trkpt>
      <trkpt lat="44.03937" lon="5.26741">
        <ele>467</ele>
        <time>2020-07-11T07:08:31.591Z</time>
      </trkpt>
      <trkpt lat="44.0394" lon="5.26745">
        <ele>467</ele>
        <time>2020-07-11T07:08:32.591Z</time>
      </trkpt>
      <trkpt lat="44.03943" lon="5.26749">
        <ele>467</ele>
        <time>2020-07-11T07:08:33.590Z</time>
      </trkpt>
      <trkpt lat="44.03947" lon="5.26753">
        <ele>467</ele>
        <time>2020-07-11T07:08:34.591Z</time>
      </trkpt>
      <trkpt lat="44.0395" lon="5.26756">
        <ele>467</ele>
        <time>2020-07-11T07:08:35.591Z</time>
      </trkpt>
      <trkpt lat="44.03954" lon="5.26759">
        <ele>468</ele>
        <time>2020-07-11T07:08:36.591Z</time>
      </trkpt>
      <trkpt lat="44.03957" lon="5.26761">
        <ele>468</ele>
        <time>2020-07-11T07:08:37.591Z</time>
      </trkpt>
      <trkpt lat="44.03961" lon="5.26764">
        <ele>468</ele>
        <time>2020-07-11T07:08:38.591Z</time>
      </trkpt>
      <trkpt lat="44.03965" lon="5.26767">
        <ele>468</ele>
        <time>2020-07-11T07:08:39.591Z</time>
      </trkpt>
      <trkpt lat="44.03969" lon="5.26769">
        <ele>468</ele>
        <time>2020-07-11T07:08:40.590Z</time>
      </trkpt>
      <trkpt lat="44.03971" lon="5.26771">
        <ele>468</ele>
        <time>2020-07-11T07:08:41.590Z</time>
      </trkpt>
      <trkpt lat="44.03976" lon="5.26774">
        <ele>468</ele>
        <time>2020-07-11T07:08:42.591Z</time>
      </trkpt>
      <trkpt lat="44.0398" lon="5.26776">
        <ele>468</ele>
        <time>2020-07-11T07:08:43.590Z</time>
      </trkpt>
      <trkpt lat="44.03984" lon="5.26778">
        <ele>468</ele>
        <time>2020-07-11T07:08:44.591Z</time>
      </trkpt>
      <trkpt lat="44.03988" lon="5.2678">
        <ele>468</ele>
        <time>2020-07-11T07:08:45.590Z</time>
      </trkpt>
      <trkpt lat="44.03992" lon="5.26781">
        <ele>468</ele>
        <time>2020-07-11T07:08:46.591Z</time>
      </trkpt>
      <trkpt lat="44.03996" lon="5.26782">
        <ele>469</ele>
        <time>2020-07-11T07:08:47.590Z</time>
      </trkpt>
      <trkpt lat="44.04001" lon="5.26783">
        <ele>469</ele>
        <time>2020-07-11T07:08:48.590Z</time>
      </trkpt>
      <trkpt lat="44.04005" lon="5.26784">
        <ele>469</ele>
        <time>2020-07-11T07:08:49.591Z</time>
      </trkpt>
      <trkpt lat="44.04009" lon="5.26785">
        <ele>469</ele>
        <time>2020-07-11T07:08:50.590Z</time>
      </trkpt>
      <trkpt lat="44.04014" lon="5.26786">
        <ele>468</ele>
        <time>2020-07-11T07:08:51.591Z</time>
      </trkpt>
      <trkpt lat="44.04018" lon="5.26786">
        <ele>468</ele>
        <time>2020-07-11T07:08:52.591Z</time>
      </trkpt>
      <trkpt lat="44.04022" lon="5.26786">
        <ele>469</ele>
        <time>2020-07-11T07:08:53.591Z</time>
      </trkpt>
      <trkpt lat="44.04025" lon="5.26786">
        <ele>469</ele>
        <time>2020-07-11T07:08:54.591Z</time>
      </trkpt>
      <trkpt lat="44.04031" lon="5.26786">
        <ele>469</ele>
        <time>2020-07-11T07:08:55.591Z</time>
      </trkpt>
      <trkpt lat="44.04036" lon="5.26785">
        <ele>468</ele>
        <time>2020-07-11T07:08:56.591Z</time>
      </trkpt>
      <trkpt lat="44.0404" lon="5.26785">
        <ele>468</ele>
        <time>2020-07-11T07:08:57.591Z</time>
      </trkpt>
      <trkpt lat="44.04043" lon="5.26784">
        <ele>468</ele>
        <time>2020-07-11T07:08:58.591Z</time>
      </trkpt>
      <trkpt lat="44.04049" lon="5.26783">
        <ele>469</ele>
        <time>2020-07-11T07:08:59.591Z</time>
      </trkpt>
      <trkpt lat="44.04053" lon="5.26782">
        <ele>469</ele>
        <time>2020-07-11T07:09:00.591Z</time>
      </trkpt>
      <trkpt lat="44.04058" lon="5.26781">
        <ele>469</ele>
        <time>2020-07-11T07:09:01.590Z</time>
      </trkpt>
      <trkpt lat="44.04062" lon="5.26781">
        <ele>469</ele>
        <time>2020-07-11T07:09:02.590Z</time>
      </trkpt>
      <trkpt lat="44.04067" lon="5.2678">
        <ele>469</ele>
        <time>2020-07-11T07:09:03.590Z</time>
      </trkpt>
      <trkpt lat="44.04071" lon="5.2678">
        <ele>469</ele>
        <time>2020-07-11T07:09:04.590Z</time>
      </trkpt>
      <trkpt lat="44.04076" lon="5.26781">
        <ele>469</ele>
        <time>2020-07-11T07:09:05.590Z</time>
      </trkpt>
      <trkpt lat="44.0408" lon="5.26782">
        <ele>470</ele>
        <time>2020-07-11T07:09:06.591Z</time>
      </trkpt>
      <trkpt lat="44.04084" lon="5.26783">
        <ele>470</ele>
        <time>2020-07-11T07:09:07.591Z</time>
      </trkpt>
      <trkpt lat="44.04089" lon="5.26785">
        <ele>470</ele>
        <time>2020-07-11T07:09:08.591Z</time>
      </trkpt>
      <trkpt lat="44.04093" lon="5.26787">
        <ele>470</ele>
        <time>2020-07-11T07:09:09.590Z</time>
      </trkpt>
      <trkpt lat="44.04097" lon="5.26789">
        <ele>471</ele>
        <time>2020-07-11T07:09:10.591Z</time>
      </trkpt>
      <trkpt lat="44.04102" lon="5.26791">
        <ele>471</ele>
        <time>2020-07-11T07:09:11.591Z</time>
      </trkpt>
      <trkpt lat="44.04105" lon="5.26793">
        <ele>472</ele>
        <time>2020-07-11T07:09:12.591Z</time>
      </trkpt>
      <trkpt lat="44.04109" lon="5.26795">
        <ele>472</ele>
        <time>2020-07-11T07:09:13.591Z</time>
      </trkpt>
      <trkpt lat="44.04113" lon="5.26797">
        <ele>473</ele>
        <time>2020-07-11T07:09:14.591Z</time>
      </trkpt>
      <trkpt lat="44.04117" lon="5.26799">
        <ele>473</ele>
        <time>2020-07-11T07:09:15.590Z</time>
      </trkpt>
      <trkpt lat="44.04121" lon="5.26801">
        <ele>473</ele>
        <time>2020-07-11T07:09:16.591Z</time>
      </trkpt>
      <trkpt lat="44.04125" lon="5.26804">
        <ele>473</ele>
        <time>2020-07-11T07:09:17.591Z</time>
      </trkpt>
      <trkpt lat="44.0413" lon="5.26806">
        <ele>473</ele>
        <time>2020-07-11T07:09:18.590Z</time>
      </trkpt>
      <trkpt lat="44.04134" lon="5.26808">
        <ele>473</ele>
        <time>2020-07-11T07:09:19.591Z</time>
      </trkpt>
      <trkpt lat="44.04138" lon="5.2681">
        <ele>473</ele>
        <time>2020-07-11T07:09:20.591Z</time>
      </trkpt>
      <trkpt lat="44.04142" lon="5.26811">
        <ele>473</ele>
        <time>2020-07-11T07:09:21.591Z</time>
      </trkpt>
      <trkpt lat="44.04146" lon="5.26813">
        <ele>473</ele>
        <time>2020-07-11T07:09:22.590Z</time>
      </trkpt>
      <trkpt lat="44.0415" lon="5.26815">
        <ele>473</ele>
        <time>2020-07-11T07:09:23.591Z</time>
      </trkpt>
      <trkpt lat="44.04154" lon="5.26816">
        <ele>473</ele>
        <time>2020-07-11T07:09:24.590Z</time>
      </trkpt>
      <trkpt lat="44.04158" lon="5.26818">
        <ele>473</ele>
        <time>2020-07-11T07:09:25.590Z</time>
      </trkpt>
      <trkpt lat="44.04161" lon="5.2682">
        <ele>473</ele>
        <time>2020-07-11T07:09:26.591Z</time>
      </trkpt>
      <trkpt lat="44.04165" lon="5.26822">
        <ele>473</ele>
        <time>2020-07-11T07:09:27.591Z</time>
      </trkpt>
      <trkpt lat="44.0417" lon="5.26823">
        <ele>473</ele>
        <time>2020-07-11T07:09:28.591Z</time>
      </trkpt>
      <trkpt lat="44.04174" lon="5.26825">
        <ele>473</ele>
        <time>2020-07-11T07:09:29.591Z</time>
      </trkpt>
      <trkpt lat="44.04178" lon="5.26827">
        <ele>473</ele>
        <time>2020-07-11T07:09:30.591Z</time>
      </trkpt>
      <trkpt lat="44.04183" lon="5.26829">
        <ele>473</ele>
        <time>2020-07-11T07:09:31.591Z</time>
      </trkpt>
      <trkpt lat="44.04186" lon="5.2683">
        <ele>474</ele>
        <time>2020-07-11T07:09:32.590Z</time>
      </trkpt>
      <trkpt lat="44.04191" lon="5.26832">
        <ele>474</ele>
        <time>2020-07-11T07:09:33.591Z</time>
      </trkpt>
      <trkpt lat="44.04194" lon="5.26834">
        <ele>475</ele>
        <time>2020-07-11T07:09:34.591Z</time>
      </trkpt>
      <trkpt lat="44.04199" lon="5.26835">
        <ele>476</ele>
        <time>2020-07-11T07:09:35.590Z</time>
      </trkpt>
      <trkpt lat="44.04204" lon="5.26838">
        <ele>476</ele>
        <time>2020-07-11T07:09:36.590Z</time>
      </trkpt>
      <trkpt lat="44.04208" lon="5.26841">
        <ele>477</ele>
        <time>2020-07-11T07:09:37.591Z</time>
      </trkpt>
      <trkpt lat="44.04212" lon="5.26844">
        <ele>477</ele>
        <time>2020-07-11T07:09:38.590Z</time>
      </trkpt>
      <trkpt lat="44.04216" lon="5.26847">
        <ele>477</ele>
        <time>2020-07-11T07:09:39.591Z</time>
      </trkpt>
      <trkpt lat="44.0422" lon="5.26852">
        <ele>477</ele>
        <time>2020-07-11T07:09:40.591Z</time>
      </trkpt>
      <trkpt lat="44.04223" lon="5.26856">
        <ele>477</ele>
        <time>2020-07-11T07:09:41.590Z</time>
      </trkpt>
      <trkpt lat="44.04226" lon="5.26862">
        <ele>477</ele>
        <time>2020-07-11T07:09:42.591Z</time>
      </trkpt>
      <trkpt lat="44.04228" lon="5.26867">
        <ele>477</ele>
        <time>2020-07-11T07:09:43.591Z</time>
      </trkpt>
      <trkpt lat="44.0423" lon="5.26874">
        <ele>478</ele>
        <time>2020-07-11T07:09:44.591Z</time>
      </trkpt>
      <trkpt lat="44.0423" lon="5.2688">
        <ele>479</ele>
        <time>2020-07-11T07:09:45.591Z</time>
      </trkpt>
      <trkpt lat="44.0423" lon="5.26886">
        <ele>479</ele>
        <time>2020-07-11T07:09:46.591Z</time>
      </trkpt>
      <trkpt lat="44.0423" lon="5.26893">
        <ele>479</ele>
        <time>2020-07-11T07:09:47.591Z</time>
      </trkpt>
      <trkpt lat="44.04228" lon="5.26899">
        <ele>480</ele>
        <time>2020-07-11T07:09:48.590Z</time>
      </trkpt>
      <trkpt lat="44.04226" lon="5.26905">
        <ele>480</ele>
        <time>2020-07-11T07:09:49.591Z</time>
      </trkpt>
      <trkpt lat="44.04223" lon="5.26912">
        <ele>480</ele>
        <time>2020-07-11T07:09:50.590Z</time>
      </trkpt>
      <trkpt lat="44.0422" lon="5.26917">
        <ele>480</ele>
        <time>2020-07-11T07:09:51.591Z</time>
      </trkpt>
      <trkpt lat="44.04217" lon="5.26922">
        <ele>480</ele>
        <time>2020-07-11T07:09:52.591Z</time>
      </trkpt>
      <trkpt lat="44.04214" lon="5.26927">
        <ele>480</ele>
        <time>2020-07-11T07:09:53.590Z</time>
      </trkpt>
      <trkpt lat="44.04211" lon="5.26932">
        <ele>480</ele>
        <time>2020-07-11T07:09:54.590Z</time>
      </trkpt>
      <trkpt lat="44.04208" lon="5.26937">
        <ele>480</ele>
        <time>2020-07-11T07:09:55.590Z</time>
      </trkpt>
      <trkpt lat="44.04205" lon="5.26942">
        <ele>481</ele>
        <time>2020-07-11T07:09:56.591Z</time>
      </trkpt>
      <trkpt lat="44.04202" lon="5.26947">
        <ele>481</ele>
        <time>2020-07-11T07:09:57.591Z</time>
      </trkpt>
      <trkpt lat="44.04199" lon="5.26951">
        <ele>481</ele>
        <time>2020-07-11T07:09:58.590Z</time>
      </trkpt>
      <trkpt lat="44.04196" lon="5.26957">
        <ele>481</ele>
        <time>2020-07-11T07:09:59.591Z</time>
      </trkpt>
      <trkpt lat="44.04193" lon="5.26963">
        <ele>481</ele>
        <time>2020-07-11T07:10:00.591Z</time>
      </trkpt>
      <trkpt lat="44.04191" lon="5.26968">
        <ele>482</ele>
        <time>2020-07-11T07:10:01.591Z</time>
      </trkpt>
      <trkpt lat="44.04188" lon="5.26974">
        <ele>483</ele>
        <time>2020-07-11T07:10:02.591Z</time>
      </trkpt>
      <trkpt lat="44.04186" lon="5.26979">
        <ele>483</ele>
        <time>2020-07-11T07:10:03.590Z</time>
      </trkpt>
      <trkpt lat="44.04184" lon="5.26985">
        <ele>484</ele>
        <time>2020-07-11T07:10:04.591Z</time>
      </trkpt>
      <trkpt lat="44.04182" lon="5.26991">
        <ele>484</ele>
        <time>2020-07-11T07:10:05.591Z</time>
      </trkpt>
      <trkpt lat="44.0418" lon="5.26997">
        <ele>484</ele>
        <time>2020-07-11T07:10:06.590Z</time>
      </trkpt>
      <trkpt lat="44.04178" lon="5.27003">
        <ele>485</ele>
        <time>2020-07-11T07:10:07.591Z</time>
      </trkpt>
      <trkpt lat="44.04177" lon="5.27009">
        <ele>485</ele>
        <time>2020-07-11T07:10:08.591Z</time>
      </trkpt>
      <trkpt lat="44.04175" lon="5.27016">
        <ele>485</ele>
        <time>2020-07-11T07:10:09.591Z</time>
      </trkpt>
      <trkpt lat="44.04175" lon="5.27022">
        <ele>484</ele>
        <time>2020-07-11T07:10:10.590Z</time>
      </trkpt>
      <trkpt lat="44.04174" lon="5.27029">
        <ele>484</ele>
        <time>2020-07-11T07:10:11.591Z</time>
      </trkpt>
      <trkpt lat="44.04174" lon="5.27036">
        <ele>483</ele>
        <time>2020-07-11T07:10:12.590Z</time>
      </trkpt>
      <trkpt lat="44.04174" lon="5.27042">
        <ele>482</ele>
        <time>2020-07-11T07:10:13.591Z</time>
      </trkpt>
      <trkpt lat="44.04175" lon="5.27048">
        <ele>482</ele>
        <time>2020-07-11T07:10:14.590Z</time>
      </trkpt>
      <trkpt lat="44.04176" lon="5.27055">
        <ele>481</ele>
        <time>2020-07-11T07:10:15.591Z</time>
      </trkpt>
      <trkpt lat="44.04178" lon="5.27061">
        <ele>481</ele>
        <time>2020-07-11T07:10:16.591Z</time>
      </trkpt>
      <trkpt lat="44.04179" lon="5.27067">
        <ele>481</ele>
        <time>2020-07-11T07:10:17.591Z</time>
      </trkpt>
      <trkpt lat="44.04181" lon="5.27073">
        <ele>480</ele>
        <time>2020-07-11T07:10:18.590Z</time>
      </trkpt>
      <trkpt lat="44.04183" lon="5.27078">
        <ele>480</ele>
        <time>2020-07-11T07:10:19.590Z</time>
      </trkpt>
      <trkpt lat="44.04186" lon="5.27084">
        <ele>480</ele>
        <time>2020-07-11T07:10:20.591Z</time>
      </trkpt>
      <trkpt lat="44.04188" lon="5.27088">
        <ele>480</ele>
        <time>2020-07-11T07:10:21.591Z</time>
      </trkpt>
      <trkpt lat="44.04191" lon="5.27094">
        <ele>480</ele>
        <time>2020-07-11T07:10:22.591Z</time>
      </trkpt>
      <trkpt lat="44.04194" lon="5.27098">
        <ele>480</ele>
        <time>2020-07-11T07:10:23.591Z</time>
      </trkpt>
      <trkpt lat="44.04198" lon="5.27104">
        <ele>480</ele>
        <time>2020-07-11T07:10:24.591Z</time>
      </trkpt>
      <trkpt lat="44.04201" lon="5.27109">
        <ele>480</ele>
        <time>2020-07-11T07:10:25.591Z</time>
      </trkpt>
      <trkpt lat="44.04203" lon="5.27112">
        <ele>481</ele>
        <time>2020-07-11T07:10:26.591Z</time>
      </trkpt>
      <trkpt lat="44.04207" lon="5.27117">
        <ele>481</ele>
        <time>2020-07-11T07:10:27.591Z</time>
      </trkpt>
      <trkpt lat="44.0421" lon="5.27121">
        <ele>481</ele>
        <time>2020-07-11T07:10:28.591Z</time>
      </trkpt>
      <trkpt lat="44.04214" lon="5.27125">
        <ele>482</ele>
        <time>2020-07-11T07:10:29.591Z</time>
      </trkpt>
      <trkpt lat="44.04217" lon="5.27129">
        <ele>482</ele>
        <time>2020-07-11T07:10:30.591Z</time>
      </trkpt>
      <trkpt lat="44.0422" lon="5.27133">
        <ele>482</ele>
        <time>2020-07-11T07:10:31.590Z</time>
      </trkpt>
      <trkpt lat="44.04224" lon="5.27138">
        <ele>482</ele>
        <time>2020-07-11T07:10:32.591Z</time>
      </trkpt>
      <trkpt lat="44.04227" lon="5.27142">
        <ele>482</ele>
        <time>2020-07-11T07:10:33.590Z</time>
      </trkpt>
      <trkpt lat="44.04231" lon="5.27146">
        <ele>482</ele>
        <time>2020-07-11T07:10:34.590Z</time>
      </trkpt>
      <trkpt lat="44.04235" lon="5.27149">
        <ele>482</ele>
        <time>2020-07-11T07:10:35.591Z</time>
      </trkpt>
      <trkpt lat="44.04238" lon="5.27153">
        <ele>482</ele>
        <time>2020-07-11T07:10:36.591Z</time>
      </trkpt>
      <trkpt lat="44.04242" lon="5.27157">
        <ele>481</ele>
        <time>2020-07-11T07:10:37.591Z</time>
      </trkpt>
      <trkpt lat="44.04247" lon="5.27161">
        <ele>481</ele>
        <time>2020-07-11T07:10:38.591Z</time>
      </trkpt>
      <trkpt lat="44.0425" lon="5.27163">
        <ele>481</ele>
        <time>2020-07-11T07:10:39.591Z</time>
      </trkpt>
      <trkpt lat="44.04254" lon="5.27166">
        <ele>481</ele>
        <time>2020-07-11T07:10:40.590Z</time>
      </trkpt>
      <trkpt lat="44.04258" lon="5.2717">
        <ele>481</ele>
        <time>2020-07-11T07:10:41.590Z</time>
      </trkpt>
      <trkpt lat="44.04262" lon="5.27173">
        <ele>481</ele>
        <time>2020-07-11T07:10:42.590Z</time>
      </trkpt>
      <trkpt lat="44.04266" lon="5.27178">
        <ele>481</ele>
        <time>2020-07-11T07:10:43.591Z</time>
      </trkpt>
      <trkpt lat="44.04269" lon="5.27181">
        <ele>481</ele>
        <time>2020-07-11T07:10:44.590Z</time>
      </trkpt>
      <trkpt lat="44.04273" lon="5.27185">
        <ele>481</ele>
        <time>2020-07-11T07:10:45.590Z</time>
      </trkpt>
      <trkpt lat="44.04276" lon="5.27189">
        <ele>481</ele>
        <time>2020-07-11T07:10:46.590Z</time>
      </trkpt>
      <trkpt lat="44.04279" lon="5.27193">
        <ele>481</ele>
        <time>2020-07-11T07:10:47.591Z</time>
      </trkpt>
      <trkpt lat="44.04283" lon="5.27199">
        <ele>482</ele>
        <time>2020-07-11T07:10:48.591Z</time>
      </trkpt>
      <trkpt lat="44.04286" lon="5.27204">
        <ele>482</ele>
        <time>2020-07-11T07:10:49.591Z</time>
      </trkpt>
      <trkpt lat="44.04288" lon="5.27208">
        <ele>482</ele>
        <time>2020-07-11T07:10:50.591Z</time>
      </trkpt>
      <trkpt lat="44.04291" lon="5.27213">
        <ele>482</ele>
        <time>2020-07-11T07:10:51.591Z</time>
      </trkpt>
      <trkpt lat="44.04295" lon="5.27219">
        <ele>482</ele>
        <time>2020-07-11T07:10:52.591Z</time>
      </trkpt>
      <trkpt lat="44.04298" lon="5.27224">
        <ele>482</ele>
        <time>2020-07-11T07:10:53.590Z</time>
      </trkpt>
      <trkpt lat="44.04301" lon="5.27229">
        <ele>482</ele>
        <time>2020-07-11T07:10:54.590Z</time>
      </trkpt>
      <trkpt lat="44.04304" lon="5.27234">
        <ele>482</ele>
        <time>2020-07-11T07:10:55.590Z</time>
      </trkpt>
      <trkpt lat="44.04307" lon="5.2724">
        <ele>482</ele>
        <time>2020-07-11T07:10:56.591Z</time>
      </trkpt>
      <trkpt lat="44.0431" lon="5.27245">
        <ele>482</ele>
        <time>2020-07-11T07:10:57.591Z</time>
      </trkpt>
      <trkpt lat="44.04314" lon="5.2725">
        <ele>482</ele>
        <time>2020-07-11T07:10:58.591Z</time>
      </trkpt>
      <trkpt lat="44.04317" lon="5.27256">
        <ele>482</ele>
        <time>2020-07-11T07:10:59.591Z</time>
      </trkpt>
      <trkpt lat="44.0432" lon="5.27261">
        <ele>482</ele>
        <time>2020-07-11T07:11:00.590Z</time>
      </trkpt>
      <trkpt lat="44.04323" lon="5.27266">
        <ele>482</ele>
        <time>2020-07-11T07:11:01.590Z</time>
      </trkpt>
      <trkpt lat="44.04326" lon="5.27272">
        <ele>482</ele>
        <time>2020-07-11T07:11:02.591Z</time>
      </trkpt>
      <trkpt lat="44.04329" lon="5.27277">
        <ele>482</ele>
        <time>2020-07-11T07:11:03.591Z</time>
      </trkpt>
      <trkpt lat="44.04332" lon="5.27283">
        <ele>482</ele>
        <time>2020-07-11T07:11:04.591Z</time>
      </trkpt>
      <trkpt lat="44.04335" lon="5.27288">
        <ele>482</ele>
        <time>2020-07-11T07:11:05.591Z</time>
      </trkpt>
      <trkpt lat="44.04338" lon="5.27293">
        <ele>483</ele>
        <time>2020-07-11T07:11:06.590Z</time>
      </trkpt>
      <trkpt lat="44.04341" lon="5.27298">
        <ele>483</ele>
        <time>2020-07-11T07:11:07.591Z</time>
      </trkpt>
      <trkpt lat="44.04345" lon="5.27303">
        <ele>483</ele>
        <time>2020-07-11T07:11:08.591Z</time>
      </trkpt>
      <trkpt lat="44.04348" lon="5.27308">
        <ele>483</ele>
        <time>2020-07-11T07:11:09.591Z</time>
      </trkpt>
      <trkpt lat="44.04351" lon="5.27313">
        <ele>483</ele>
        <time>2020-07-11T07:11:10.591Z</time>
      </trkpt>
      <trkpt lat="44.04354" lon="5.27318">
        <ele>483</ele>
        <time>2020-07-11T07:11:11.591Z</time>
      </trkpt>
      <trkpt lat="44.04357" lon="5.27322">
        <ele>483</ele>
        <time>2020-07-11T07:11:12.590Z</time>
      </trkpt>
      <trkpt lat="44.04361" lon="5.27327">
        <ele>483</ele>
        <time>2020-07-11T07:11:13.591Z</time>
      </trkpt>
      <trkpt lat="44.04364" lon="5.27331">
        <ele>484</ele>
        <time>2020-07-11T07:11:14.591Z</time>
      </trkpt>
      <trkpt lat="44.04368" lon="5.27336">
        <ele>484</ele>
        <time>2020-07-11T07:11:15.591Z</time>
      </trkpt>
      <trkpt lat="44.04371" lon="5.2734">
        <ele>484</ele>
        <time>2020-07-11T07:11:16.590Z</time>
      </trkpt>
      <trkpt lat="44.04375" lon="5.27345">
        <ele>484</ele>
        <time>2020-07-11T07:11:17.590Z</time>
      </trkpt>
      <trkpt lat="44.04379" lon="5.27349">
        <ele>484</ele>
        <time>2020-07-11T07:11:18.590Z</time>
      </trkpt>
      <trkpt lat="44.04383" lon="5.27353">
        <ele>484</ele>
        <time>2020-07-11T07:11:19.590Z</time>
      </trkpt>
      <trkpt lat="44.04386" lon="5.27357">
        <ele>483</ele>
        <time>2020-07-11T07:11:20.590Z</time>
      </trkpt>
      <trkpt lat="44.0439" lon="5.27361">
        <ele>483</ele>
        <time>2020-07-11T07:11:21.591Z</time>
      </trkpt>
      <trkpt lat="44.04394" lon="5.27365">
        <ele>483</ele>
        <time>2020-07-11T07:11:22.591Z</time>
      </trkpt>
      <trkpt lat="44.04397" lon="5.27369">
        <ele>483</ele>
        <time>2020-07-11T07:11:23.590Z</time>
      </trkpt>
      <trkpt lat="44.044" lon="5.27374">
        <ele>483</ele>
        <time>2020-07-11T07:11:24.591Z</time>
      </trkpt>
      <trkpt lat="44.04403" lon="5.27379">
        <ele>484</ele>
        <time>2020-07-11T07:11:25.591Z</time>
      </trkpt>
      <trkpt lat="44.04406" lon="5.27384">
        <ele>484</ele>
        <time>2020-07-11T07:11:26.590Z</time>
      </trkpt>
      <trkpt lat="44.04408" lon="5.27388">
        <ele>485</ele>
        <time>2020-07-11T07:11:27.591Z</time>
      </trkpt>
      <trkpt lat="44.04412" lon="5.27395">
        <ele>485</ele>
        <time>2020-07-11T07:11:28.591Z</time>
      </trkpt>
      <trkpt lat="44.04415" lon="5.274">
        <ele>485</ele>
        <time>2020-07-11T07:11:29.591Z</time>
      </trkpt>
      <trkpt lat="44.04417" lon="5.27405">
        <ele>485</ele>
        <time>2020-07-11T07:11:30.591Z</time>
      </trkpt>
      <trkpt lat="44.0442" lon="5.27411">
        <ele>485</ele>
        <time>2020-07-11T07:11:31.590Z</time>
      </trkpt>
      <trkpt lat="44.04423" lon="5.27416">
        <ele>485</ele>
        <time>2020-07-11T07:11:32.590Z</time>
      </trkpt>
      <trkpt lat="44.04426" lon="5.27422">
        <ele>484</ele>
        <time>2020-07-11T07:11:33.591Z</time>
      </trkpt>
      <trkpt lat="44.04428" lon="5.27427">
        <ele>484</ele>
        <time>2020-07-11T07:11:34.591Z</time>
      </trkpt>
      <trkpt lat="44.04431" lon="5.27433">
        <ele>484</ele>
        <time>2020-07-11T07:11:35.591Z</time>
      </trkpt>
      <trkpt lat="44.04433" lon="5.27438">
        <ele>484</ele>
        <time>2020-07-11T07:11:36.591Z</time>
      </trkpt>
      <trkpt lat="44.04436" lon="5.27443">
        <ele>484</ele>
        <time>2020-07-11T07:11:37.591Z</time>
      </trkpt>
      <trkpt lat="44.04439" lon="5.27448">
        <ele>483</ele>
        <time>2020-07-11T07:11:38.591Z</time>
      </trkpt>
      <trkpt lat="44.04441" lon="5.27453">
        <ele>483</ele>
        <time>2020-07-11T07:11:39.591Z</time>
      </trkpt>
      <trkpt lat="44.04444" lon="5.27458">
        <ele>483</ele>
        <time>2020-07-11T07:11:40.591Z</time>
      </trkpt>
      <trkpt lat="44.04447" lon="5.27463">
        <ele>483</ele>
        <time>2020-07-11T07:11:41.591Z</time>
      </trkpt>
      <trkpt lat="44.04449" lon="5.27469">
        <ele>483</ele>
        <time>2020-07-11T07:11:42.591Z</time>
      </trkpt>
      <trkpt lat="44.04452" lon="5.27474">
        <ele>483</ele>
        <time>2020-07-11T07:11:43.591Z</time>
      </trkpt>
      <trkpt lat="44.04455" lon="5.27478">
        <ele>483</ele>
        <time>2020-07-11T07:11:44.590Z</time>
      </trkpt>
      <trkpt lat="44.04458" lon="5.27483">
        <ele>483</ele>
        <time>2020-07-11T07:11:45.590Z</time>
      </trkpt>
      <trkpt lat="44.04461" lon="5.27488">
        <ele>483</ele>
        <time>2020-07-11T07:11:46.591Z</time>
      </trkpt>
      <trkpt lat="44.04464" lon="5.27493">
        <ele>483</ele>
        <time>2020-07-11T07:11:47.591Z</time>
      </trkpt>
      <trkpt lat="44.04467" lon="5.27497">
        <ele>483</ele>
        <time>2020-07-11T07:11:48.591Z</time>
      </trkpt>
      <trkpt lat="44.04471" lon="5.27502">
        <ele>483</ele>
        <time>2020-07-11T07:11:49.591Z</time>
      </trkpt>
      <trkpt lat="44.04474" lon="5.27507">
        <ele>484</ele>
        <time>2020-07-11T07:11:50.590Z</time>
      </trkpt>
      <trkpt lat="44.04477" lon="5.27512">
        <ele>484</ele>
        <time>2020-07-11T07:11:51.591Z</time>
      </trkpt>
      <trkpt lat="44.0448" lon="5.27517">
        <ele>485</ele>
        <time>2020-07-11T07:11:52.591Z</time>
      </trkpt>
      <trkpt lat="44.04483" lon="5.27521">
        <ele>485</ele>
        <time>2020-07-11T07:11:53.591Z</time>
      </trkpt>
      <trkpt lat="44.04487" lon="5.27526">
        <ele>486</ele>
        <time>2020-07-11T07:11:54.591Z</time>
      </trkpt>
      <trkpt lat="44.0449" lon="5.2753">
        <ele>486</ele>
        <time>2020-07-11T07:11:55.591Z</time>
      </trkpt>
      <trkpt lat="44.04493" lon="5.27535">
        <ele>486</ele>
        <time>2020-07-11T07:11:56.591Z</time>
      </trkpt>
      <trkpt lat="44.04496" lon="5.27539">
        <ele>486</ele>
        <time>2020-07-11T07:11:57.590Z</time>
      </trkpt>
      <trkpt lat="44.04499" lon="5.27543">
        <ele>487</ele>
        <time>2020-07-11T07:11:58.591Z</time>
      </trkpt>
      <trkpt lat="44.04502" lon="5.27548">
        <ele>487</ele>
        <time>2020-07-11T07:11:59.591Z</time>
      </trkpt>
      <trkpt lat="44.04506" lon="5.27552">
        <ele>487</ele>
        <time>2020-07-11T07:12:00.590Z</time>
      </trkpt>
      <trkpt lat="44.04509" lon="5.27556">
        <ele>487</ele>
        <time>2020-07-11T07:12:01.591Z</time>
      </trkpt>
      <trkpt lat="44.04513" lon="5.27561">
        <ele>487</ele>
        <time>2020-07-11T07:12:02.591Z</time>
      </trkpt>
      <trkpt lat="44.04516" lon="5.27565">
        <ele>487</ele>
        <time>2020-07-11T07:12:03.590Z</time>
      </trkpt>
      <trkpt lat="44.04519" lon="5.27569">
        <ele>487</ele>
        <time>2020-07-11T07:12:04.591Z</time>
      </trkpt>
      <trkpt lat="44.04522" lon="5.27573">
        <ele>487</ele>
        <time>2020-07-11T07:12:05.591Z</time>
      </trkpt>
      <trkpt lat="44.04526" lon="5.27577">
        <ele>486</ele>
        <time>2020-07-11T07:12:06.591Z</time>
      </trkpt>
      <trkpt lat="44.04529" lon="5.2758">
        <ele>486</ele>
        <time>2020-07-11T07:12:07.591Z</time>
      </trkpt>
      <trkpt lat="44.04532" lon="5.27584">
        <ele>486</ele>
        <time>2020-07-11T07:12:08.590Z</time>
      </trkpt>
      <trkpt lat="44.04536" lon="5.27588">
        <ele>487</ele>
        <time>2020-07-11T07:12:09.590Z</time>
      </trkpt>
      <trkpt lat="44.0454" lon="5.27591">
        <ele>487</ele>
        <time>2020-07-11T07:12:10.590Z</time>
      </trkpt>
      <trkpt lat="44.04544" lon="5.27594">
        <ele>487</ele>
        <time>2020-07-11T07:12:11.591Z</time>
      </trkpt>
      <trkpt lat="44.04548" lon="5.27596">
        <ele>487</ele>
        <time>2020-07-11T07:12:12.590Z</time>
      </trkpt>
      <trkpt lat="44.04552" lon="5.27598">
        <ele>487</ele>
        <time>2020-07-11T07:12:13.591Z</time>
      </trkpt>
      <trkpt lat="44.04557" lon="5.27601">
        <ele>487</ele>
        <time>2020-07-11T07:12:14.590Z</time>
      </trkpt>
      <trkpt lat="44.04561" lon="5.27602">
        <ele>486</ele>
        <time>2020-07-11T07:12:15.591Z</time>
      </trkpt>
      <trkpt lat="44.04565" lon="5.27603">
        <ele>486</ele>
        <time>2020-07-11T07:12:16.591Z</time>
      </trkpt>
      <trkpt lat="44.0457" lon="5.27604">
        <ele>486</ele>
        <time>2020-07-11T07:12:17.591Z</time>
      </trkpt>
      <trkpt lat="44.04574" lon="5.27605">
        <ele>486</ele>
        <time>2020-07-11T07:12:18.591Z</time>
      </trkpt>
      <trkpt lat="44.04578" lon="5.27605">
        <ele>486</ele>
        <time>2020-07-11T07:12:19.591Z</time>
      </trkpt>
      <trkpt lat="44.04583" lon="5.27604">
        <ele>485</ele>
        <time>2020-07-11T07:12:20.591Z</time>
      </trkpt>
      <trkpt lat="44.04587" lon="5.27602">
        <ele>485</ele>
        <time>2020-07-11T07:12:21.591Z</time>
      </trkpt>
      <trkpt lat="44.04591" lon="5.27599">
        <ele>486</ele>
        <time>2020-07-11T07:12:22.591Z</time>
      </trkpt>
      <trkpt lat="44.04594" lon="5.27596">
        <ele>486</ele>
        <time>2020-07-11T07:12:23.591Z</time>
      </trkpt>
      <trkpt lat="44.04598" lon="5.27592">
        <ele>486</ele>
        <time>2020-07-11T07:12:24.590Z</time>
      </trkpt>
      <trkpt lat="44.04601" lon="5.27588">
        <ele>486</ele>
        <time>2020-07-11T07:12:25.590Z</time>
      </trkpt>
      <trkpt lat="44.04604" lon="5.27584">
        <ele>486</ele>
        <time>2020-07-11T07:12:26.591Z</time>
      </trkpt>
      <trkpt lat="44.04608" lon="5.2758">
        <ele>486</ele>
        <time>2020-07-11T07:12:27.591Z</time>
      </trkpt>
      <trkpt lat="44.04611" lon="5.27575">
        <ele>486</ele>
        <time>2020-07-11T07:12:28.591Z</time>
      </trkpt>
      <trkpt lat="44.04614" lon="5.2757">
        <ele>486</ele>
        <time>2020-07-11T07:12:29.591Z</time>
      </trkpt>
      <trkpt lat="44.04618" lon="5.27566">
        <ele>486</ele>
        <time>2020-07-11T07:12:30.590Z</time>
      </trkpt>
      <trkpt lat="44.04621" lon="5.27561">
        <ele>486</ele>
        <time>2020-07-11T07:12:31.590Z</time>
      </trkpt>
      <trkpt lat="44.04625" lon="5.27557">
        <ele>486</ele>
        <time>2020-07-11T07:12:32.591Z</time>
      </trkpt>
      <trkpt lat="44.04629" lon="5.27553">
        <ele>486</ele>
        <time>2020-07-11T07:12:33.591Z</time>
      </trkpt>
      <trkpt lat="44.04633" lon="5.27549">
        <ele>486</ele>
        <time>2020-07-11T07:12:34.591Z</time>
      </trkpt>
      <trkpt lat="44.04637" lon="5.27545">
        <ele>487</ele>
        <time>2020-07-11T07:12:35.590Z</time>
      </trkpt>
      <trkpt lat="44.04641" lon="5.27541">
        <ele>487</ele>
        <time>2020-07-11T07:12:36.591Z</time>
      </trkpt>
      <trkpt lat="44.04645" lon="5.27538">
        <ele>487</ele>
        <time>2020-07-11T07:12:37.591Z</time>
      </trkpt>
      <trkpt lat="44.04649" lon="5.27534">
        <ele>486</ele>
        <time>2020-07-11T07:12:38.590Z</time>
      </trkpt>
      <trkpt lat="44.04653" lon="5.27532">
        <ele>486</ele>
        <time>2020-07-11T07:12:39.591Z</time>
      </trkpt>
      <trkpt lat="44.04658" lon="5.27528">
        <ele>486</ele>
        <time>2020-07-11T07:12:40.591Z</time>
      </trkpt>
      <trkpt lat="44.04662" lon="5.27525">
        <ele>487</ele>
        <time>2020-07-11T07:12:41.590Z</time>
      </trkpt>
      <trkpt lat="44.04666" lon="5.27522">
        <ele>487</ele>
        <time>2020-07-11T07:12:42.591Z</time>
      </trkpt>
      <trkpt lat="44.0467" lon="5.27519">
        <ele>487</ele>
        <time>2020-07-11T07:12:43.590Z</time>
      </trkpt>
      <trkpt lat="44.04674" lon="5.27516">
        <ele>488</ele>
        <time>2020-07-11T07:12:44.590Z</time>
      </trkpt>
      <trkpt lat="44.04678" lon="5.27513">
        <ele>488</ele>
        <time>2020-07-11T07:12:45.591Z</time>
      </trkpt>
      <trkpt lat="44.04683" lon="5.27509">
        <ele>488</ele>
        <time>2020-07-11T07:12:46.590Z</time>
      </trkpt>
      <trkpt lat="44.04687" lon="5.27506">
        <ele>488</ele>
        <time>2020-07-11T07:12:47.591Z</time>
      </trkpt>
      <trkpt lat="44.04691" lon="5.27503">
        <ele>488</ele>
        <time>2020-07-11T07:12:48.590Z</time>
      </trkpt>
      <trkpt lat="44.04694" lon="5.27501">
        <ele>488</ele>
        <time>2020-07-11T07:12:49.590Z</time>
      </trkpt>
      <trkpt lat="44.04699" lon="5.27498">
        <ele>488</ele>
        <time>2020-07-11T07:12:50.591Z</time>
      </trkpt>
      <trkpt lat="44.04704" lon="5.27496">
        <ele>488</ele>
        <time>2020-07-11T07:12:51.591Z</time>
      </trkpt>
      <trkpt lat="44.04708" lon="5.27495">
        <ele>488</ele>
        <time>2020-07-11T07:12:52.591Z</time>
      </trkpt>
      <trkpt lat="44.04712" lon="5.27495">
        <ele>487</ele>
        <time>2020-07-11T07:12:53.591Z</time>
      </trkpt>
      <trkpt lat="44.04716" lon="5.27496">
        <ele>487</ele>
        <time>2020-07-11T07:12:54.591Z</time>
      </trkpt>
      <trkpt lat="44.04721" lon="5.27499">
        <ele>488</ele>
        <time>2020-07-11T07:12:55.591Z</time>
      </trkpt>
      <trkpt lat="44.04725" lon="5.27503">
        <ele>488</ele>
        <time>2020-07-11T07:12:56.590Z</time>
      </trkpt>
      <trkpt lat="44.04728" lon="5.27508">
        <ele>488</ele>
        <time>2020-07-11T07:12:57.591Z</time>
      </trkpt>
      <trkpt lat="44.0473" lon="5.27513">
        <ele>489</ele>
        <time>2020-07-11T07:12:58.591Z</time>
      </trkpt>
      <trkpt lat="44.04731" lon="5.27519">
        <ele>489</ele>
        <time>2020-07-11T07:12:59.591Z</time>
      </trkpt>
      <trkpt lat="44.04732" lon="5.27526">
        <ele>489</ele>
        <time>2020-07-11T07:13:00.590Z</time>
      </trkpt>
      <trkpt lat="44.04731" lon="5.27532">
        <ele>488</ele>
        <time>2020-07-11T07:13:01.591Z</time>
      </trkpt>
      <trkpt lat="44.0473" lon="5.27539">
        <ele>488</ele>
        <time>2020-07-11T07:13:02.590Z</time>
      </trkpt>
      <trkpt lat="44.04728" lon="5.27545">
        <ele>488</ele>
        <time>2020-07-11T07:13:03.590Z</time>
      </trkpt>
      <trkpt lat="44.04726" lon="5.27552">
        <ele>488</ele>
        <time>2020-07-11T07:13:04.590Z</time>
      </trkpt>
      <trkpt lat="44.04724" lon="5.27558">
        <ele>488</ele>
        <time>2020-07-11T07:13:05.591Z</time>
      </trkpt>
      <trkpt lat="44.04722" lon="5.27565">
        <ele>488</ele>
        <time>2020-07-11T07:13:06.591Z</time>
      </trkpt>
      <trkpt lat="44.0472" lon="5.27572">
        <ele>488</ele>
        <time>2020-07-11T07:13:07.591Z</time>
      </trkpt>
      <trkpt lat="44.04719" lon="5.27578">
        <ele>488</ele>
        <time>2020-07-11T07:13:08.591Z</time>
      </trkpt>
      <trkpt lat="44.04718" lon="5.27585">
        <ele>488</ele>
        <time>2020-07-11T07:13:09.590Z</time>
      </trkpt>
      <trkpt lat="44.04716" lon="5.27592">
        <ele>488</ele>
        <time>2020-07-11T07:13:10.590Z</time>
      </trkpt>
      <trkpt lat="44.04715" lon="5.27599">
        <ele>488</ele>
        <time>2020-07-11T07:13:11.591Z</time>
      </trkpt>
      <trkpt lat="44.04715" lon="5.27606">
        <ele>488</ele>
        <time>2020-07-11T07:13:12.590Z</time>
      </trkpt>
      <trkpt lat="44.04714" lon="5.27613">
        <ele>488</ele>
        <time>2020-07-11T07:13:13.591Z</time>
      </trkpt>
      <trkpt lat="44.04714" lon="5.2762">
        <ele>488</ele>
        <time>2020-07-11T07:13:14.590Z</time>
      </trkpt>
      <trkpt lat="44.04714" lon="5.27628">
        <ele>488</ele>
        <time>2020-07-11T07:13:15.591Z</time>
      </trkpt>
      <trkpt lat="44.04713" lon="5.27635">
        <ele>488</ele>
        <time>2020-07-11T07:13:16.591Z</time>
      </trkpt>
      <trkpt lat="44.04713" lon="5.27642">
        <ele>489</ele>
        <time>2020-07-11T07:13:17.591Z</time>
      </trkpt>
      <trkpt lat="44.04713" lon="5.27649">
        <ele>489</ele>
        <time>2020-07-11T07:13:18.591Z</time>
      </trkpt>
      <trkpt lat="44.04713" lon="5.27657">
        <ele>489</ele>
        <time>2020-07-11T07:13:19.591Z</time>
      </trkpt>
      <trkpt lat="44.04712" lon="5.27664">
        <ele>490</ele>
        <time>2020-07-11T07:13:20.591Z</time>
      </trkpt>
      <trkpt lat="44.04712" lon="5.2767">
        <ele>490</ele>
        <time>2020-07-11T07:13:21.591Z</time>
      </trkpt>
      <trkpt lat="44.04712" lon="5.27677">
        <ele>490</ele>
        <time>2020-07-11T07:13:22.590Z</time>
      </trkpt>
      <trkpt lat="44.04712" lon="5.27685">
        <ele>490</ele>
        <time>2020-07-11T07:13:23.591Z</time>
      </trkpt>
      <trkpt lat="44.04712" lon="5.27692">
        <ele>490</ele>
        <time>2020-07-11T07:13:24.590Z</time>
      </trkpt>
      <trkpt lat="44.04712" lon="5.27698">
        <ele>490</ele>
        <time>2020-07-11T07:13:25.591Z</time>
      </trkpt>
      <trkpt lat="44.04712" lon="5.27704">
        <ele>490</ele>
        <time>2020-07-11T07:13:26.590Z</time>
      </trkpt>
      <trkpt lat="44.04712" lon="5.27711">
        <ele>490</ele>
        <time>2020-07-11T07:13:27.591Z</time>
      </trkpt>
      <trkpt lat="44.04712" lon="5.27719">
        <ele>490</ele>
        <time>2020-07-11T07:13:28.591Z</time>
      </trkpt>
      <trkpt lat="44.04711" lon="5.27726">
        <ele>490</ele>
        <time>2020-07-11T07:13:29.590Z</time>
      </trkpt>
      <trkpt lat="44.04711" lon="5.27733">
        <ele>490</ele>
        <time>2020-07-11T07:13:30.590Z</time>
      </trkpt>
      <trkpt lat="44.04711" lon="5.2774">
        <ele>490</ele>
        <time>2020-07-11T07:13:31.590Z</time>
      </trkpt>
      <trkpt lat="44.0471" lon="5.27746">
        <ele>490</ele>
        <time>2020-07-11T07:13:32.591Z</time>
      </trkpt>
      <trkpt lat="44.0471" lon="5.27753">
        <ele>490</ele>
        <time>2020-07-11T07:13:33.590Z</time>
      </trkpt>
      <trkpt lat="44.0471" lon="5.2776">
        <ele>491</ele>
        <time>2020-07-11T07:13:34.590Z</time>
      </trkpt>
      <trkpt lat="44.0471" lon="5.27766">
        <ele>491</ele>
        <time>2020-07-11T07:13:35.591Z</time>
      </trkpt>
      <trkpt lat="44.0471" lon="5.27772">
        <ele>492</ele>
        <time>2020-07-11T07:13:36.590Z</time>
      </trkpt>
      <trkpt lat="44.0471" lon="5.2778">
        <ele>492</ele>
        <time>2020-07-11T07:13:37.591Z</time>
      </trkpt>
      <trkpt lat="44.04711" lon="5.27786">
        <ele>493</ele>
        <time>2020-07-11T07:13:38.591Z</time>
      </trkpt>
      <trkpt lat="44.04712" lon="5.27793">
        <ele>493</ele>
        <time>2020-07-11T07:13:39.591Z</time>
      </trkpt>
      <trkpt lat="44.04714" lon="5.27798">
        <ele>493</ele>
        <time>2020-07-11T07:13:40.591Z</time>
      </trkpt>
      <trkpt lat="44.04716" lon="5.27804">
        <ele>493</ele>
        <time>2020-07-11T07:13:41.590Z</time>
      </trkpt>
      <trkpt lat="44.04719" lon="5.2781">
        <ele>492</ele>
        <time>2020-07-11T07:13:42.590Z</time>
      </trkpt>
      <trkpt lat="44.04721" lon="5.27816">
        <ele>492</ele>
        <time>2020-07-11T07:13:43.591Z</time>
      </trkpt>
      <trkpt lat="44.04724" lon="5.27821">
        <ele>492</ele>
        <time>2020-07-11T07:13:44.591Z</time>
      </trkpt>
      <trkpt lat="44.04727" lon="5.27824">
        <ele>491</ele>
        <time>2020-07-11T07:13:45.591Z</time>
      </trkpt>
      <trkpt lat="44.0473" lon="5.27828">
        <ele>491</ele>
        <time>2020-07-11T07:13:46.591Z</time>
      </trkpt>
      <trkpt lat="44.04734" lon="5.27832">
        <ele>490</ele>
        <time>2020-07-11T07:13:47.591Z</time>
      </trkpt>
      <trkpt lat="44.04738" lon="5.27836">
        <ele>490</ele>
        <time>2020-07-11T07:13:48.591Z</time>
      </trkpt>
      <trkpt lat="44.04742" lon="5.27839">
        <ele>489</ele>
        <time>2020-07-11T07:13:49.591Z</time>
      </trkpt>
      <trkpt lat="44.04746" lon="5.27842">
        <ele>489</ele>
        <time>2020-07-11T07:13:50.591Z</time>
      </trkpt>
      <trkpt lat="44.04751" lon="5.27846">
        <ele>489</ele>
        <time>2020-07-11T07:13:51.591Z</time>
      </trkpt>
      <trkpt lat="44.04755" lon="5.27849">
        <ele>489</ele>
        <time>2020-07-11T07:13:52.591Z</time>
      </trkpt>
      <trkpt lat="44.04759" lon="5.27852">
        <ele>490</ele>
        <time>2020-07-11T07:13:53.591Z</time>
      </trkpt>
      <trkpt lat="44.04764" lon="5.27856">
        <ele>490</ele>
        <time>2020-07-11T07:13:54.590Z</time>
      </trkpt>
      <trkpt lat="44.04768" lon="5.27859">
        <ele>490</ele>
        <time>2020-07-11T07:13:55.591Z</time>
      </trkpt>
      <trkpt lat="44.04773" lon="5.27862">
        <ele>490</ele>
        <time>2020-07-11T07:13:56.590Z</time>
      </trkpt>
      <trkpt lat="44.04777" lon="5.27865">
        <ele>490</ele>
        <time>2020-07-11T07:13:57.591Z</time>
      </trkpt>
      <trkpt lat="44.04781" lon="5.27868">
        <ele>489</ele>
        <time>2020-07-11T07:13:58.590Z</time>
      </trkpt>
      <trkpt lat="44.04786" lon="5.27871">
        <ele>489</ele>
        <time>2020-07-11T07:13:59.591Z</time>
      </trkpt>
      <trkpt lat="44.04789" lon="5.27873">
        <ele>489</ele>
        <time>2020-07-11T07:14:00.590Z</time>
      </trkpt>
      <trkpt lat="44.04795" lon="5.27877">
        <ele>488</ele>
        <time>2020-07-11T07:14:01.591Z</time>
      </trkpt>
      <trkpt lat="44.04799" lon="5.27881">
        <ele>488</ele>
        <time>2020-07-11T07:14:02.591Z</time>
      </trkpt>
      <trkpt lat="44.04803" lon="5.27884">
        <ele>488</ele>
        <time>2020-07-11T07:14:03.590Z</time>
      </trkpt>
      <trkpt lat="44.04808" lon="5.27888">
        <ele>488</ele>
        <time>2020-07-11T07:14:04.591Z</time>
      </trkpt>
      <trkpt lat="44.04812" lon="5.27891">
        <ele>488</ele>
        <time>2020-07-11T07:14:05.591Z</time>
      </trkpt>
      <trkpt lat="44.04816" lon="5.27895">
        <ele>488</ele>
        <time>2020-07-11T07:14:06.590Z</time>
      </trkpt>
      <trkpt lat="44.0482" lon="5.27898">
        <ele>488</ele>
        <time>2020-07-11T07:14:07.590Z</time>
      </trkpt>
      <trkpt lat="44.04824" lon="5.27903">
        <ele>487</ele>
        <time>2020-07-11T07:14:08.590Z</time>
      </trkpt>
      <trkpt lat="44.04828" lon="5.27907">
        <ele>487</ele>
        <time>2020-07-11T07:14:09.590Z</time>
      </trkpt>
      <trkpt lat="44.04832" lon="5.27911">
        <ele>487</ele>
        <time>2020-07-11T07:14:10.590Z</time>
      </trkpt>
      <trkpt lat="44.04835" lon="5.27915">
        <ele>487</ele>
        <time>2020-07-11T07:14:11.590Z</time>
      </trkpt>
      <trkpt lat="44.04839" lon="5.2792">
        <ele>487</ele>
        <time>2020-07-11T07:14:12.591Z</time>
      </trkpt>
      <trkpt lat="44.04843" lon="5.27924">
        <ele>487</ele>
        <time>2020-07-11T07:14:13.591Z</time>
      </trkpt>
      <trkpt lat="44.04847" lon="5.27928">
        <ele>488</ele>
        <time>2020-07-11T07:14:14.591Z</time>
      </trkpt>
      <trkpt lat="44.04851" lon="5.27933">
        <ele>488</ele>
        <time>2020-07-11T07:14:15.591Z</time>
      </trkpt>
      <trkpt lat="44.04855" lon="5.27937">
        <ele>489</ele>
        <time>2020-07-11T07:14:16.591Z</time>
      </trkpt>
      <trkpt lat="44.04858" lon="5.27941">
        <ele>489</ele>
        <time>2020-07-11T07:14:17.590Z</time>
      </trkpt>
      <trkpt lat="44.04862" lon="5.27945">
        <ele>490</ele>
        <time>2020-07-11T07:14:18.591Z</time>
      </trkpt>
      <trkpt lat="44.04866" lon="5.2795">
        <ele>490</ele>
        <time>2020-07-11T07:14:19.591Z</time>
      </trkpt>
      <trkpt lat="44.04869" lon="5.27954">
        <ele>491</ele>
        <time>2020-07-11T07:14:20.590Z</time>
      </trkpt>
      <trkpt lat="44.04873" lon="5.27958">
        <ele>491</ele>
        <time>2020-07-11T07:14:21.591Z</time>
      </trkpt>
      <trkpt lat="44.04877" lon="5.27963">
        <ele>491</ele>
        <time>2020-07-11T07:14:22.590Z</time>
      </trkpt>
      <trkpt lat="44.04881" lon="5.27967">
        <ele>492</ele>
        <time>2020-07-11T07:14:23.591Z</time>
      </trkpt>
      <trkpt lat="44.04885" lon="5.27971">
        <ele>492</ele>
        <time>2020-07-11T07:14:24.591Z</time>
      </trkpt>
      <trkpt lat="44.04889" lon="5.27976">
        <ele>492</ele>
        <time>2020-07-11T07:14:25.591Z</time>
      </trkpt>
      <trkpt lat="44.04892" lon="5.2798">
        <ele>492</ele>
        <time>2020-07-11T07:14:26.591Z</time>
      </trkpt>
      <trkpt lat="44.04896" lon="5.27985">
        <ele>491</ele>
        <time>2020-07-11T07:14:27.591Z</time>
      </trkpt>
      <trkpt lat="44.049" lon="5.27989">
        <ele>491</ele>
        <time>2020-07-11T07:14:28.591Z</time>
      </trkpt>
      <trkpt lat="44.04904" lon="5.27994">
        <ele>491</ele>
        <time>2020-07-11T07:14:29.591Z</time>
      </trkpt>
      <trkpt lat="44.04908" lon="5.27998">
        <ele>491</ele>
        <time>2020-07-11T07:14:30.591Z</time>
      </trkpt>
      <trkpt lat="44.04911" lon="5.28003">
        <ele>491</ele>
        <time>2020-07-11T07:14:31.591Z</time>
      </trkpt>
      <trkpt lat="44.04915" lon="5.28008">
        <ele>491</ele>
        <time>2020-07-11T07:14:32.590Z</time>
      </trkpt>
      <trkpt lat="44.04918" lon="5.28013">
        <ele>491</ele>
        <time>2020-07-11T07:14:33.591Z</time>
      </trkpt>
      <trkpt lat="44.0492" lon="5.28018">
        <ele>491</ele>
        <time>2020-07-11T07:14:34.591Z</time>
      </trkpt>
      <trkpt lat="44.04923" lon="5.28024">
        <ele>491</ele>
        <time>2020-07-11T07:14:35.590Z</time>
      </trkpt>
      <trkpt lat="44.04926" lon="5.28031">
        <ele>491</ele>
        <time>2020-07-11T07:14:36.591Z</time>
      </trkpt>
      <trkpt lat="44.04928" lon="5.28037">
        <ele>492</ele>
        <time>2020-07-11T07:14:37.591Z</time>
      </trkpt>
      <trkpt lat="44.0493" lon="5.28044">
        <ele>491</ele>
        <time>2020-07-11T07:14:38.591Z</time>
      </trkpt>
      <trkpt lat="44.04933" lon="5.2805">
        <ele>491</ele>
        <time>2020-07-11T07:14:39.591Z</time>
      </trkpt>
      <trkpt lat="44.04935" lon="5.28056">
        <ele>491</ele>
        <time>2020-07-11T07:14:40.591Z</time>
      </trkpt>
      <trkpt lat="44.04936" lon="5.28063">
        <ele>491</ele>
        <time>2020-07-11T07:14:41.591Z</time>
      </trkpt>
      <trkpt lat="44.04938" lon="5.28068">
        <ele>490</ele>
        <time>2020-07-11T07:14:42.591Z</time>
      </trkpt>
      <trkpt lat="44.0494" lon="5.28074">
        <ele>490</ele>
        <time>2020-07-11T07:14:43.590Z</time>
      </trkpt>
      <trkpt lat="44.04943" lon="5.28081">
        <ele>490</ele>
        <time>2020-07-11T07:14:44.590Z</time>
      </trkpt>
      <trkpt lat="44.04944" lon="5.28086">
        <ele>491</ele>
        <time>2020-07-11T07:14:45.591Z</time>
      </trkpt>
      <trkpt lat="44.04946" lon="5.28092">
        <ele>491</ele>
        <time>2020-07-11T07:14:46.591Z</time>
      </trkpt>
      <trkpt lat="44.04948" lon="5.28098">
        <ele>491</ele>
        <time>2020-07-11T07:14:47.591Z</time>
      </trkpt>
      <trkpt lat="44.0495" lon="5.28104">
        <ele>492</ele>
        <time>2020-07-11T07:14:48.590Z</time>
      </trkpt>
      <trkpt lat="44.04952" lon="5.28112">
        <ele>492</ele>
        <time>2020-07-11T07:14:49.591Z</time>
      </trkpt>
      <trkpt lat="44.04954" lon="5.28118">
        <ele>493</ele>
        <time>2020-07-11T07:14:50.590Z</time>
      </trkpt>
      <trkpt lat="44.04956" lon="5.28124">
        <ele>494</ele>
        <time>2020-07-11T07:14:51.590Z</time>
      </trkpt>
      <trkpt lat="44.04958" lon="5.2813">
        <ele>494</ele>
        <time>2020-07-11T07:14:52.590Z</time>
      </trkpt>
      <trkpt lat="44.04959" lon="5.28136">
        <ele>495</ele>
        <time>2020-07-11T07:14:53.591Z</time>
      </trkpt>
      <trkpt lat="44.04961" lon="5.28143">
        <ele>495</ele>
        <time>2020-07-11T07:14:54.591Z</time>
      </trkpt>
      <trkpt lat="44.04963" lon="5.28149">
        <ele>496</ele>
        <time>2020-07-11T07:14:55.590Z</time>
      </trkpt>
      <trkpt lat="44.04964" lon="5.28155">
        <ele>497</ele>
        <time>2020-07-11T07:14:56.591Z</time>
      </trkpt>
      <trkpt lat="44.04966" lon="5.28162">
        <ele>497</ele>
        <time>2020-07-11T07:14:57.591Z</time>
      </trkpt>
      <trkpt lat="44.04967" lon="5.28169">
        <ele>497</ele>
        <time>2020-07-11T07:14:58.590Z</time>
      </trkpt>
      <trkpt lat="44.04967" lon="5.28176">
        <ele>497</ele>
        <time>2020-07-11T07:14:59.591Z</time>
      </trkpt>
      <trkpt lat="44.04966" lon="5.28183">
        <ele>497</ele>
        <time>2020-07-11T07:15:00.591Z</time>
      </trkpt>
      <trkpt lat="44.04966" lon="5.2819">
        <ele>497</ele>
        <time>2020-07-11T07:15:01.591Z</time>
      </trkpt>
      <trkpt lat="44.04964" lon="5.28197">
        <ele>498</ele>
        <time>2020-07-11T07:15:02.591Z</time>
      </trkpt>
      <trkpt lat="44.04963" lon="5.28204">
        <ele>498</ele>
        <time>2020-07-11T07:15:03.590Z</time>
      </trkpt>
      <trkpt lat="44.04961" lon="5.2821">
        <ele>499</ele>
        <time>2020-07-11T07:15:04.590Z</time>
      </trkpt>
      <trkpt lat="44.04959" lon="5.28217">
        <ele>499</ele>
        <time>2020-07-11T07:15:05.591Z</time>
      </trkpt>
      <trkpt lat="44.04957" lon="5.28223">
        <ele>499</ele>
        <time>2020-07-11T07:15:06.591Z</time>
      </trkpt>
      <trkpt lat="44.04955" lon="5.2823">
        <ele>499</ele>
        <time>2020-07-11T07:15:07.591Z</time>
      </trkpt>
      <trkpt lat="44.04953" lon="5.28236">
        <ele>500</ele>
        <time>2020-07-11T07:15:08.590Z</time>
      </trkpt>
      <trkpt lat="44.04951" lon="5.28242">
        <ele>500</ele>
        <time>2020-07-11T07:15:09.591Z</time>
      </trkpt>
      <trkpt lat="44.04949" lon="5.28249">
        <ele>500</ele>
        <time>2020-07-11T07:15:10.590Z</time>
      </trkpt>
      <trkpt lat="44.04948" lon="5.28255">
        <ele>500</ele>
        <time>2020-07-11T07:15:11.591Z</time>
      </trkpt>
      <trkpt lat="44.04946" lon="5.28262">
        <ele>500</ele>
        <time>2020-07-11T07:15:12.591Z</time>
      </trkpt>
      <trkpt lat="44.04944" lon="5.28269">
        <ele>499</ele>
        <time>2020-07-11T07:15:13.590Z</time>
      </trkpt>
      <trkpt lat="44.04943" lon="5.28277">
        <ele>499</ele>
        <time>2020-07-11T07:15:14.590Z</time>
      </trkpt>
      <trkpt lat="44.04941" lon="5.28284">
        <ele>499</ele>
        <time>2020-07-11T07:15:15.591Z</time>
      </trkpt>
      <trkpt lat="44.04939" lon="5.2829">
        <ele>498</ele>
        <time>2020-07-11T07:15:16.591Z</time>
      </trkpt>
      <trkpt lat="44.04937" lon="5.28297">
        <ele>498</ele>
        <time>2020-07-11T07:15:17.591Z</time>
      </trkpt>
      <trkpt lat="44.04935" lon="5.28305">
        <ele>498</ele>
        <time>2020-07-11T07:15:18.591Z</time>
      </trkpt>
      <trkpt lat="44.04934" lon="5.28311">
        <ele>498</ele>
        <time>2020-07-11T07:15:19.591Z</time>
      </trkpt>
      <trkpt lat="44.04932" lon="5.28318">
        <ele>499</ele>
        <time>2020-07-11T07:15:20.590Z</time>
      </trkpt>
      <trkpt lat="44.04931" lon="5.28324">
        <ele>499</ele>
        <time>2020-07-11T07:15:21.591Z</time>
      </trkpt>
      <trkpt lat="44.04929" lon="5.28331">
        <ele>499</ele>
        <time>2020-07-11T07:15:22.591Z</time>
      </trkpt>
      <trkpt lat="44.04927" lon="5.28337">
        <ele>499</ele>
        <time>2020-07-11T07:15:23.591Z</time>
      </trkpt>
      <trkpt lat="44.04926" lon="5.28344">
        <ele>499</ele>
        <time>2020-07-11T07:15:24.591Z</time>
      </trkpt>
      <trkpt lat="44.04924" lon="5.28351">
        <ele>499</ele>
        <time>2020-07-11T07:15:25.591Z</time>
      </trkpt>
      <trkpt lat="44.04922" lon="5.28357">
        <ele>499</ele>
        <time>2020-07-11T07:15:26.591Z</time>
      </trkpt>
      <trkpt lat="44.04921" lon="5.28364">
        <ele>499</ele>
        <time>2020-07-11T07:15:27.591Z</time>
      </trkpt>
      <trkpt lat="44.04919" lon="5.2837">
        <ele>500</ele>
        <time>2020-07-11T07:15:28.591Z</time>
      </trkpt>
      <trkpt lat="44.04917" lon="5.28377">
        <ele>501</ele>
        <time>2020-07-11T07:15:29.590Z</time>
      </trkpt>
      <trkpt lat="44.04916" lon="5.28383">
        <ele>501</ele>
        <time>2020-07-11T07:15:30.591Z</time>
      </trkpt>
      <trkpt lat="44.04914" lon="5.28389">
        <ele>501</ele>
        <time>2020-07-11T07:15:31.591Z</time>
      </trkpt>
      <trkpt lat="44.04912" lon="5.28395">
        <ele>501</ele>
        <time>2020-07-11T07:15:32.590Z</time>
      </trkpt>
      <trkpt lat="44.0491" lon="5.28401">
        <ele>501</ele>
        <time>2020-07-11T07:15:33.590Z</time>
      </trkpt>
      <trkpt lat="44.04909" lon="5.28407">
        <ele>501</ele>
        <time>2020-07-11T07:15:34.590Z</time>
      </trkpt>
      <trkpt lat="44.04907" lon="5.28413">
        <ele>501</ele>
        <time>2020-07-11T07:15:35.590Z</time>
      </trkpt>
      <trkpt lat="44.04905" lon="5.28419">
        <ele>501</ele>
        <time>2020-07-11T07:15:36.591Z</time>
      </trkpt>
      <trkpt lat="44.04903" lon="5.28425">
        <ele>501</ele>
        <time>2020-07-11T07:15:37.591Z</time>
      </trkpt>
      <trkpt lat="44.04901" lon="5.28431">
        <ele>501</ele>
        <time>2020-07-11T07:15:38.591Z</time>
      </trkpt>
      <trkpt lat="44.04899" lon="5.28437">
        <ele>501</ele>
        <time>2020-07-11T07:15:39.591Z</time>
      </trkpt>
      <trkpt lat="44.04897" lon="5.28443">
        <ele>501</ele>
        <time>2020-07-11T07:15:40.590Z</time>
      </trkpt>
      <trkpt lat="44.04895" lon="5.28449">
        <ele>500</ele>
        <time>2020-07-11T07:15:41.591Z</time>
      </trkpt>
      <trkpt lat="44.04893" lon="5.28455">
        <ele>500</ele>
        <time>2020-07-11T07:15:42.591Z</time>
      </trkpt>
      <trkpt lat="44.04891" lon="5.28462">
        <ele>500</ele>
        <time>2020-07-11T07:15:43.590Z</time>
      </trkpt>
      <trkpt lat="44.04889" lon="5.28468">
        <ele>500</ele>
        <time>2020-07-11T07:15:44.591Z</time>
      </trkpt>
      <trkpt lat="44.04888" lon="5.28474">
        <ele>500</ele>
        <time>2020-07-11T07:15:45.590Z</time>
      </trkpt>
      <trkpt lat="44.04886" lon="5.2848">
        <ele>501</ele>
        <time>2020-07-11T07:15:46.590Z</time>
      </trkpt>
      <trkpt lat="44.04884" lon="5.28486">
        <ele>501</ele>
        <time>2020-07-11T07:15:47.590Z</time>
      </trkpt>
      <trkpt lat="44.04883" lon="5.28493">
        <ele>501</ele>
        <time>2020-07-11T07:15:48.590Z</time>
      </trkpt>
      <trkpt lat="44.04882" lon="5.28499">
        <ele>502</ele>
        <time>2020-07-11T07:15:49.590Z</time>
      </trkpt>
      <trkpt lat="44.04881" lon="5.28505">
        <ele>502</ele>
        <time>2020-07-11T07:15:50.590Z</time>
      </trkpt>
      <trkpt lat="44.04881" lon="5.28512">
        <ele>502</ele>
        <time>2020-07-11T07:15:51.590Z</time>
      </trkpt>
      <trkpt lat="44.04882" lon="5.28519">
        <ele>502</ele>
        <time>2020-07-11T07:15:52.591Z</time>
      </trkpt>
      <trkpt lat="44.04882" lon="5.28525">
        <ele>502</ele>
        <time>2020-07-11T07:15:53.591Z</time>
      </trkpt>
      <trkpt lat="44.04883" lon="5.28532">
        <ele>503</ele>
        <time>2020-07-11T07:15:54.591Z</time>
      </trkpt>
      <trkpt lat="44.04885" lon="5.28538">
        <ele>503</ele>
        <time>2020-07-11T07:15:55.591Z</time>
      </trkpt>
      <trkpt lat="44.04886" lon="5.28545">
        <ele>504</ele>
        <time>2020-07-11T07:15:56.591Z</time>
      </trkpt>
      <trkpt lat="44.04888" lon="5.28551">
        <ele>504</ele>
        <time>2020-07-11T07:15:57.591Z</time>
      </trkpt>
      <trkpt lat="44.0489" lon="5.28558">
        <ele>504</ele>
        <time>2020-07-11T07:15:58.591Z</time>
      </trkpt>
      <trkpt lat="44.04892" lon="5.28564">
        <ele>504</ele>
        <time>2020-07-11T07:15:59.591Z</time>
      </trkpt>
      <trkpt lat="44.04895" lon="5.2857">
        <ele>504</ele>
        <time>2020-07-11T07:16:00.591Z</time>
      </trkpt>
      <trkpt lat="44.04897" lon="5.28576">
        <ele>504</ele>
        <time>2020-07-11T07:16:01.591Z</time>
      </trkpt>
      <trkpt lat="44.04901" lon="5.2858">
        <ele>503</ele>
        <time>2020-07-11T07:16:02.591Z</time>
      </trkpt>
      <trkpt lat="44.04904" lon="5.28584">
        <ele>503</ele>
        <time>2020-07-11T07:16:03.591Z</time>
      </trkpt>
      <trkpt lat="44.04907" lon="5.28587">
        <ele>503</ele>
        <time>2020-07-11T07:16:04.591Z</time>
      </trkpt>
      <trkpt lat="44.04912" lon="5.28591">
        <ele>503</ele>
        <time>2020-07-11T07:16:05.591Z</time>
      </trkpt>
      <trkpt lat="44.04917" lon="5.28594">
        <ele>503</ele>
        <time>2020-07-11T07:16:06.590Z</time>
      </trkpt>
      <trkpt lat="44.04921" lon="5.28596">
        <ele>503</ele>
        <time>2020-07-11T07:16:07.591Z</time>
      </trkpt>
      <trkpt lat="44.04925" lon="5.28597">
        <ele>502</ele>
        <time>2020-07-11T07:16:08.591Z</time>
      </trkpt>
      <trkpt lat="44.0493" lon="5.28599">
        <ele>502</ele>
        <time>2020-07-11T07:16:09.591Z</time>
      </trkpt>
      <trkpt lat="44.04935" lon="5.28601">
        <ele>502</ele>
        <time>2020-07-11T07:16:10.591Z</time>
      </trkpt>
      <trkpt lat="44.04941" lon="5.28602">
        <ele>501</ele>
        <time>2020-07-11T07:16:11.590Z</time>
      </trkpt>
      <trkpt lat="44.04945" lon="5.28604">
        <ele>500</ele>
        <time>2020-07-11T07:16:12.590Z</time>
      </trkpt>
      <trkpt lat="44.0495" lon="5.28605">
        <ele>499</ele>
        <time>2020-07-11T07:16:13.590Z</time>
      </trkpt>
      <trkpt lat="44.04955" lon="5.28607">
        <ele>499</ele>
        <time>2020-07-11T07:16:14.590Z</time>
      </trkpt>
      <trkpt lat="44.0496" lon="5.28608">
        <ele>499</ele>
        <time>2020-07-11T07:16:15.591Z</time>
      </trkpt>
      <trkpt lat="44.04965" lon="5.28609">
        <ele>499</ele>
        <time>2020-07-11T07:16:16.591Z</time>
      </trkpt>
      <trkpt lat="44.04968" lon="5.2861">
        <ele>499</ele>
        <time>2020-07-11T07:16:17.591Z</time>
      </trkpt>
      <trkpt lat="44.04974" lon="5.28612">
        <ele>499</ele>
        <time>2020-07-11T07:16:18.591Z</time>
      </trkpt>
      <trkpt lat="44.04979" lon="5.28613">
        <ele>500</ele>
        <time>2020-07-11T07:16:19.591Z</time>
      </trkpt>
      <trkpt lat="44.04984" lon="5.28614">
        <ele>500</ele>
        <time>2020-07-11T07:16:20.591Z</time>
      </trkpt>
      <trkpt lat="44.04989" lon="5.28614">
        <ele>499</ele>
        <time>2020-07-11T07:16:21.591Z</time>
      </trkpt>
      <trkpt lat="44.04994" lon="5.28615">
        <ele>498</ele>
        <time>2020-07-11T07:16:22.591Z</time>
      </trkpt>
      <trkpt lat="44.04999" lon="5.28616">
        <ele>498</ele>
        <time>2020-07-11T07:16:23.590Z</time>
      </trkpt>
      <trkpt lat="44.05004" lon="5.28616">
        <ele>497</ele>
        <time>2020-07-11T07:16:24.591Z</time>
      </trkpt>
      <trkpt lat="44.05008" lon="5.28617">
        <ele>497</ele>
        <time>2020-07-11T07:16:25.591Z</time>
      </trkpt>
      <trkpt lat="44.05013" lon="5.28617">
        <ele>498</ele>
        <time>2020-07-11T07:16:26.591Z</time>
      </trkpt>
      <trkpt lat="44.05018" lon="5.28618">
        <ele>498</ele>
        <time>2020-07-11T07:16:27.591Z</time>
      </trkpt>
      <trkpt lat="44.05023" lon="5.28619">
        <ele>498</ele>
        <time>2020-07-11T07:16:28.590Z</time>
      </trkpt>
      <trkpt lat="44.05028" lon="5.2862">
        <ele>499</ele>
        <time>2020-07-11T07:16:29.591Z</time>
      </trkpt>
      <trkpt lat="44.05033" lon="5.28621">
        <ele>499</ele>
        <time>2020-07-11T07:16:30.591Z</time>
      </trkpt>
      <trkpt lat="44.05037" lon="5.28623">
        <ele>500</ele>
        <time>2020-07-11T07:16:31.591Z</time>
      </trkpt>
      <trkpt lat="44.05042" lon="5.28625">
        <ele>500</ele>
        <time>2020-07-11T07:16:32.591Z</time>
      </trkpt>
      <trkpt lat="44.05047" lon="5.28627">
        <ele>501</ele>
        <time>2020-07-11T07:16:33.591Z</time>
      </trkpt>
      <trkpt lat="44.05051" lon="5.28629">
        <ele>501</ele>
        <time>2020-07-11T07:16:34.591Z</time>
      </trkpt>
      <trkpt lat="44.05056" lon="5.2863">
        <ele>502</ele>
        <time>2020-07-11T07:16:35.590Z</time>
      </trkpt>
      <trkpt lat="44.0506" lon="5.28632">
        <ele>501</ele>
        <time>2020-07-11T07:16:36.591Z</time>
      </trkpt>
      <trkpt lat="44.05064" lon="5.28634">
        <ele>501</ele>
        <time>2020-07-11T07:16:37.590Z</time>
      </trkpt>
      <trkpt lat="44.05068" lon="5.28635">
        <ele>501</ele>
        <time>2020-07-11T07:16:38.591Z</time>
      </trkpt>
      <trkpt lat="44.05072" lon="5.28637">
        <ele>501</ele>
        <time>2020-07-11T07:16:39.591Z</time>
      </trkpt>
      <trkpt lat="44.05075" lon="5.28638">
        <ele>501</ele>
        <time>2020-07-11T07:16:40.591Z</time>
      </trkpt>
      <trkpt lat="44.05079" lon="5.2864">
        <ele>501</ele>
        <time>2020-07-11T07:16:41.591Z</time>
      </trkpt>
      <trkpt lat="44.05083" lon="5.28641">
        <ele>501</ele>
        <time>2020-07-11T07:16:42.591Z</time>
      </trkpt>
      <trkpt lat="44.05087" lon="5.28643">
        <ele>501</ele>
        <time>2020-07-11T07:16:43.591Z</time>
      </trkpt>
      <trkpt lat="44.0509" lon="5.28645">
        <ele>501</ele>
        <time>2020-07-11T07:16:44.591Z</time>
      </trkpt>
      <trkpt lat="44.05094" lon="5.28646">
        <ele>501</ele>
        <time>2020-07-11T07:16:45.591Z</time>
      </trkpt>
      <trkpt lat="44.05098" lon="5.28647">
        <ele>501</ele>
        <time>2020-07-11T07:16:46.591Z</time>
      </trkpt>
      <trkpt lat="44.05101" lon="5.28649">
        <ele>500</ele>
        <time>2020-07-11T07:16:47.591Z</time>
      </trkpt>
      <trkpt lat="44.05105" lon="5.2865">
        <ele>500</ele>
        <time>2020-07-11T07:16:48.590Z</time>
      </trkpt>
      <trkpt lat="44.05109" lon="5.28651">
        <ele>499</ele>
        <time>2020-07-11T07:16:49.590Z</time>
      </trkpt>
      <trkpt lat="44.05112" lon="5.28652">
        <ele>499</ele>
        <time>2020-07-11T07:16:50.591Z</time>
      </trkpt>
      <trkpt lat="44.05115" lon="5.28653">
        <ele>499</ele>
        <time>2020-07-11T07:16:51.590Z</time>
      </trkpt>
      <trkpt lat="44.05119" lon="5.28654">
        <ele>498</ele>
        <time>2020-07-11T07:16:52.590Z</time>
      </trkpt>
      <trkpt lat="44.05122" lon="5.28655">
        <ele>498</ele>
        <time>2020-07-11T07:16:53.590Z</time>
      </trkpt>
      <trkpt lat="44.05126" lon="5.28657">
        <ele>498</ele>
        <time>2020-07-11T07:16:54.591Z</time>
      </trkpt>
      <trkpt lat="44.05129" lon="5.28658">
        <ele>498</ele>
        <time>2020-07-11T07:16:55.591Z</time>
      </trkpt>
      <trkpt lat="44.05132" lon="5.28659">
        <ele>498</ele>
        <time>2020-07-11T07:16:56.591Z</time>
      </trkpt>
      <trkpt lat="44.05135" lon="5.2866">
        <ele>498</ele>
        <time>2020-07-11T07:16:57.591Z</time>
      </trkpt>
      <trkpt lat="44.05139" lon="5.28661">
        <ele>498</ele>
        <time>2020-07-11T07:16:58.591Z</time>
      </trkpt>
      <trkpt lat="44.05141" lon="5.28662">
        <ele>497</ele>
        <time>2020-07-11T07:16:59.591Z</time>
      </trkpt>
      <trkpt lat="44.05144" lon="5.28663">
        <ele>497</ele>
        <time>2020-07-11T07:17:00.591Z</time>
      </trkpt>
      <trkpt lat="44.05147" lon="5.28664">
        <ele>497</ele>
        <time>2020-07-11T07:17:01.591Z</time>
      </trkpt>
      <trkpt lat="44.05149" lon="5.28664">
        <ele>497</ele>
        <time>2020-07-11T07:17:02.591Z</time>
      </trkpt>
      <trkpt lat="44.05152" lon="5.28665">
        <ele>497</ele>
        <time>2020-07-11T07:17:03.591Z</time>
      </trkpt>
      <trkpt lat="44.05155" lon="5.28666">
        <ele>497</ele>
        <time>2020-07-11T07:17:04.591Z</time>
      </trkpt>
      <trkpt lat="44.05158" lon="5.28667">
        <ele>498</ele>
        <time>2020-07-11T07:17:05.591Z</time>
      </trkpt>
      <trkpt lat="44.05161" lon="5.28668">
        <ele>498</ele>
        <time>2020-07-11T07:17:06.591Z</time>
      </trkpt>
      <trkpt lat="44.05163" lon="5.28668">
        <ele>498</ele>
        <time>2020-07-11T07:17:07.591Z</time>
      </trkpt>
      <trkpt lat="44.05166" lon="5.28669">
        <ele>498</ele>
        <time>2020-07-11T07:17:08.590Z</time>
      </trkpt>
      <trkpt lat="44.05169" lon="5.2867">
        <ele>499</ele>
        <time>2020-07-11T07:17:09.591Z</time>
      </trkpt>
      <trkpt lat="44.05172" lon="5.28671">
        <ele>499</ele>
        <time>2020-07-11T07:17:10.590Z</time>
      </trkpt>
      <trkpt lat="44.05176" lon="5.28671">
        <ele>499</ele>
        <time>2020-07-11T07:17:11.591Z</time>
      </trkpt>
      <trkpt lat="44.05179" lon="5.28672">
        <ele>500</ele>
        <time>2020-07-11T07:17:12.591Z</time>
      </trkpt>
      <trkpt lat="44.05182" lon="5.28673">
        <ele>500</ele>
        <time>2020-07-11T07:17:13.590Z</time>
      </trkpt>
      <trkpt lat="44.05186" lon="5.28673">
        <ele>501</ele>
        <time>2020-07-11T07:17:14.591Z</time>
      </trkpt>
      <trkpt lat="44.0519" lon="5.28674">
        <ele>501</ele>
        <time>2020-07-11T07:17:15.591Z</time>
      </trkpt>
      <trkpt lat="44.05194" lon="5.28675">
        <ele>501</ele>
        <time>2020-07-11T07:17:16.591Z</time>
      </trkpt>
      <trkpt lat="44.05197" lon="5.28676">
        <ele>502</ele>
        <time>2020-07-11T07:17:17.591Z</time>
      </trkpt>
      <trkpt lat="44.05201" lon="5.28677">
        <ele>503</ele>
        <time>2020-07-11T07:17:18.591Z</time>
      </trkpt>
      <trkpt lat="44.05204" lon="5.28678">
        <ele>503</ele>
        <time>2020-07-11T07:17:19.591Z</time>
      </trkpt>
      <trkpt lat="44.05209" lon="5.28679">
        <ele>504</ele>
        <time>2020-07-11T07:17:20.591Z</time>
      </trkpt>
      <trkpt lat="44.05213" lon="5.28681">
        <ele>504</ele>
        <time>2020-07-11T07:17:21.591Z</time>
      </trkpt>
      <trkpt lat="44.05217" lon="5.28682">
        <ele>505</ele>
        <time>2020-07-11T07:17:22.591Z</time>
      </trkpt>
      <trkpt lat="44.05221" lon="5.28682">
        <ele>505</ele>
        <time>2020-07-11T07:17:23.590Z</time>
      </trkpt>
      <trkpt lat="44.05225" lon="5.28684">
        <ele>505</ele>
        <time>2020-07-11T07:17:24.591Z</time>
      </trkpt>
      <trkpt lat="44.05229" lon="5.28685">
        <ele>505</ele>
        <time>2020-07-11T07:17:25.591Z</time>
      </trkpt>
      <trkpt lat="44.05232" lon="5.28686">
        <ele>506</ele>
        <time>2020-07-11T07:17:26.591Z</time>
      </trkpt>
      <trkpt lat="44.05235" lon="5.28687">
        <ele>506</ele>
        <time>2020-07-11T07:17:27.591Z</time>
      </trkpt>
      <trkpt lat="44.0524" lon="5.28688">
        <ele>506</ele>
        <time>2020-07-11T07:17:28.591Z</time>
      </trkpt>
      <trkpt lat="44.05244" lon="5.2869">
        <ele>506</ele>
        <time>2020-07-11T07:17:29.590Z</time>
      </trkpt>
      <trkpt lat="44.05248" lon="5.28691">
        <ele>506</ele>
        <time>2020-07-11T07:17:30.591Z</time>
      </trkpt>
      <trkpt lat="44.05252" lon="5.28693">
        <ele>506</ele>
        <time>2020-07-11T07:17:31.591Z</time>
      </trkpt>
      <trkpt lat="44.05256" lon="5.28695">
        <ele>507</ele>
        <time>2020-07-11T07:17:32.591Z</time>
      </trkpt>
      <trkpt lat="44.05259" lon="5.28697">
        <ele>507</ele>
        <time>2020-07-11T07:17:33.591Z</time>
      </trkpt>
      <trkpt lat="44.05263" lon="5.28699">
        <ele>507</ele>
        <time>2020-07-11T07:17:34.591Z</time>
      </trkpt>
      <trkpt lat="44.05266" lon="5.28702">
        <ele>507</ele>
        <time>2020-07-11T07:17:35.591Z</time>
      </trkpt>
      <trkpt lat="44.05269" lon="5.28704">
        <ele>507</ele>
        <time>2020-07-11T07:17:36.591Z</time>
      </trkpt>
      <trkpt lat="44.05273" lon="5.28708">
        <ele>507</ele>
        <time>2020-07-11T07:17:37.591Z</time>
      </trkpt>
      <trkpt lat="44.05277" lon="5.28711">
        <ele>508</ele>
        <time>2020-07-11T07:17:38.591Z</time>
      </trkpt>
      <trkpt lat="44.0528" lon="5.28715">
        <ele>508</ele>
        <time>2020-07-11T07:17:39.591Z</time>
      </trkpt>
      <trkpt lat="44.05283" lon="5.28718">
        <ele>508</ele>
        <time>2020-07-11T07:17:40.591Z</time>
      </trkpt>
      <trkpt lat="44.05286" lon="5.28722">
        <ele>508</ele>
        <time>2020-07-11T07:17:41.590Z</time>
      </trkpt>
      <trkpt lat="44.05289" lon="5.28726">
        <ele>509</ele>
        <time>2020-07-11T07:17:42.591Z</time>
      </trkpt>
      <trkpt lat="44.05292" lon="5.2873">
        <ele>509</ele>
        <time>2020-07-11T07:17:43.591Z</time>
      </trkpt>
      <trkpt lat="44.05295" lon="5.28734">
        <ele>509</ele>
        <time>2020-07-11T07:17:44.591Z</time>
      </trkpt>
      <trkpt lat="44.05298" lon="5.28738">
        <ele>510</ele>
        <time>2020-07-11T07:17:45.591Z</time>
      </trkpt>
      <trkpt lat="44.05301" lon="5.28743">
        <ele>510</ele>
        <time>2020-07-11T07:17:46.590Z</time>
      </trkpt>
      <trkpt lat="44.05304" lon="5.28747">
        <ele>510</ele>
        <time>2020-07-11T07:17:47.590Z</time>
      </trkpt>
      <trkpt lat="44.05307" lon="5.28751">
        <ele>511</ele>
        <time>2020-07-11T07:17:48.590Z</time>
      </trkpt>
      <trkpt lat="44.05311" lon="5.28755">
        <ele>511</ele>
        <time>2020-07-11T07:17:49.590Z</time>
      </trkpt>
      <trkpt lat="44.05314" lon="5.28759">
        <ele>511</ele>
        <time>2020-07-11T07:17:50.591Z</time>
      </trkpt>
      <trkpt lat="44.05318" lon="5.28763">
        <ele>511</ele>
        <time>2020-07-11T07:17:51.591Z</time>
      </trkpt>
      <trkpt lat="44.05321" lon="5.28766">
        <ele>511</ele>
        <time>2020-07-11T07:17:52.591Z</time>
      </trkpt>
      <trkpt lat="44.05324" lon="5.2877">
        <ele>511</ele>
        <time>2020-07-11T07:17:53.591Z</time>
      </trkpt>
      <trkpt lat="44.05326" lon="5.28776">
        <ele>511</ele>
        <time>2020-07-11T07:17:54.590Z</time>
      </trkpt>
      <trkpt lat="44.05328" lon="5.2878">
        <ele>511</ele>
        <time>2020-07-11T07:17:55.591Z</time>
      </trkpt>
      <trkpt lat="44.05331" lon="5.28785">
        <ele>511</ele>
        <time>2020-07-11T07:17:56.591Z</time>
      </trkpt>
      <trkpt lat="44.05333" lon="5.28791">
        <ele>511</ele>
        <time>2020-07-11T07:17:57.591Z</time>
      </trkpt>
      <trkpt lat="44.05334" lon="5.28796">
        <ele>511</ele>
        <time>2020-07-11T07:17:58.591Z</time>
      </trkpt>
      <trkpt lat="44.05336" lon="5.28803">
        <ele>511</ele>
        <time>2020-07-11T07:17:59.590Z</time>
      </trkpt>
      <trkpt lat="44.05337" lon="5.28809">
        <ele>511</ele>
        <time>2020-07-11T07:18:00.591Z</time>
      </trkpt>
      <trkpt lat="44.05338" lon="5.28814">
        <ele>511</ele>
        <time>2020-07-11T07:18:01.591Z</time>
      </trkpt>
      <trkpt lat="44.05339" lon="5.2882">
        <ele>511</ele>
        <time>2020-07-11T07:18:02.591Z</time>
      </trkpt>
      <trkpt lat="44.05339" lon="5.28826">
        <ele>511</ele>
        <time>2020-07-11T07:18:03.591Z</time>
      </trkpt>
      <trkpt lat="44.0534" lon="5.28832">
        <ele>511</ele>
        <time>2020-07-11T07:18:04.590Z</time>
      </trkpt>
      <trkpt lat="44.05342" lon="5.28839">
        <ele>510</ele>
        <time>2020-07-11T07:18:05.591Z</time>
      </trkpt>
      <trkpt lat="44.05343" lon="5.28845">
        <ele>510</ele>
        <time>2020-07-11T07:18:06.591Z</time>
      </trkpt>
      <trkpt lat="44.05344" lon="5.28851">
        <ele>510</ele>
        <time>2020-07-11T07:18:07.591Z</time>
      </trkpt>
      <trkpt lat="44.05345" lon="5.28857">
        <ele>510</ele>
        <time>2020-07-11T07:18:08.591Z</time>
      </trkpt>
      <trkpt lat="44.05345" lon="5.28862">
        <ele>511</ele>
        <time>2020-07-11T07:18:09.591Z</time>
      </trkpt>
      <trkpt lat="44.05346" lon="5.28868">
        <ele>511</ele>
        <time>2020-07-11T07:18:10.591Z</time>
      </trkpt>
      <trkpt lat="44.05347" lon="5.28874">
        <ele>511</ele>
        <time>2020-07-11T07:18:11.590Z</time>
      </trkpt>
      <trkpt lat="44.05348" lon="5.28879">
        <ele>512</ele>
        <time>2020-07-11T07:18:12.591Z</time>
      </trkpt>
      <trkpt lat="44.05348" lon="5.28885">
        <ele>512</ele>
        <time>2020-07-11T07:18:13.591Z</time>
      </trkpt>
      <trkpt lat="44.05349" lon="5.28892">
        <ele>512</ele>
        <time>2020-07-11T07:18:14.591Z</time>
      </trkpt>
      <trkpt lat="44.05349" lon="5.28898">
        <ele>512</ele>
        <time>2020-07-11T07:18:15.591Z</time>
      </trkpt>
      <trkpt lat="44.05349" lon="5.28904">
        <ele>511</ele>
        <time>2020-07-11T07:18:16.590Z</time>
      </trkpt>
      <trkpt lat="44.05349" lon="5.2891">
        <ele>511</ele>
        <time>2020-07-11T07:18:17.590Z</time>
      </trkpt>
      <trkpt lat="44.05349" lon="5.28917">
        <ele>512</ele>
        <time>2020-07-11T07:18:18.590Z</time>
      </trkpt>
      <trkpt lat="44.05349" lon="5.28923">
        <ele>512</ele>
        <time>2020-07-11T07:18:19.591Z</time>
      </trkpt>
      <trkpt lat="44.05349" lon="5.28929">
        <ele>513</ele>
        <time>2020-07-11T07:18:20.590Z</time>
      </trkpt>
      <trkpt lat="44.05348" lon="5.28935">
        <ele>513</ele>
        <time>2020-07-11T07:18:21.591Z</time>
      </trkpt>
      <trkpt lat="44.05348" lon="5.28942">
        <ele>513</ele>
        <time>2020-07-11T07:18:22.590Z</time>
      </trkpt>
      <trkpt lat="44.05347" lon="5.28948">
        <ele>512</ele>
        <time>2020-07-11T07:18:23.590Z</time>
      </trkpt>
      <trkpt lat="44.05347" lon="5.28954">
        <ele>512</ele>
        <time>2020-07-11T07:18:24.590Z</time>
      </trkpt>
      <trkpt lat="44.05347" lon="5.2896">
        <ele>512</ele>
        <time>2020-07-11T07:18:25.591Z</time>
      </trkpt>
      <trkpt lat="44.05346" lon="5.28966">
        <ele>512</ele>
        <time>2020-07-11T07:18:26.591Z</time>
      </trkpt>
      <trkpt lat="44.05346" lon="5.28972">
        <ele>511</ele>
        <time>2020-07-11T07:18:27.591Z</time>
      </trkpt>
      <trkpt lat="44.05345" lon="5.28976">
        <ele>511</ele>
        <time>2020-07-11T07:18:28.591Z</time>
      </trkpt>
      <trkpt lat="44.05345" lon="5.28983">
        <ele>511</ele>
        <time>2020-07-11T07:18:29.591Z</time>
      </trkpt>
      <trkpt lat="44.05344" lon="5.28989">
        <ele>512</ele>
        <time>2020-07-11T07:18:30.591Z</time>
      </trkpt>
      <trkpt lat="44.05343" lon="5.28995">
        <ele>511</ele>
        <time>2020-07-11T07:18:31.591Z</time>
      </trkpt>
      <trkpt lat="44.05343" lon="5.29">
        <ele>511</ele>
        <time>2020-07-11T07:18:32.590Z</time>
      </trkpt>
      <trkpt lat="44.05342" lon="5.29006">
        <ele>511</ele>
        <time>2020-07-11T07:18:33.591Z</time>
      </trkpt>
      <trkpt lat="44.05342" lon="5.29012">
        <ele>511</ele>
        <time>2020-07-11T07:18:34.591Z</time>
      </trkpt>
      <trkpt lat="44.05341" lon="5.29019">
        <ele>510</ele>
        <time>2020-07-11T07:18:35.590Z</time>
      </trkpt>
      <trkpt lat="44.0534" lon="5.29025">
        <ele>510</ele>
        <time>2020-07-11T07:18:36.591Z</time>
      </trkpt>
      <trkpt lat="44.0534" lon="5.29031">
        <ele>509</ele>
        <time>2020-07-11T07:18:37.590Z</time>
      </trkpt>
      <trkpt lat="44.0534" lon="5.29037">
        <ele>509</ele>
        <time>2020-07-11T07:18:38.591Z</time>
      </trkpt>
      <trkpt lat="44.0534" lon="5.29044">
        <ele>509</ele>
        <time>2020-07-11T07:18:39.590Z</time>
      </trkpt>
      <trkpt lat="44.0534" lon="5.2905">
        <ele>509</ele>
        <time>2020-07-11T07:18:40.591Z</time>
      </trkpt>
      <trkpt lat="44.0534" lon="5.29055">
        <ele>509</ele>
        <time>2020-07-11T07:18:41.591Z</time>
      </trkpt>
      <trkpt lat="44.05341" lon="5.2906">
        <ele>508</ele>
        <time>2020-07-11T07:18:42.591Z</time>
      </trkpt>
      <trkpt lat="44.05341" lon="5.29065">
        <ele>508</ele>
        <time>2020-07-11T07:18:43.591Z</time>
      </trkpt>
      <trkpt lat="44.05342" lon="5.2907">
        <ele>507</ele>
        <time>2020-07-11T07:18:44.590Z</time>
      </trkpt>
      <trkpt lat="44.05344" lon="5.29075">
        <ele>507</ele>
        <time>2020-07-11T07:18:45.590Z</time>
      </trkpt>
      <trkpt lat="44.05346" lon="5.2908">
        <ele>507</ele>
        <time>2020-07-11T07:18:46.590Z</time>
      </trkpt>
      <trkpt lat="44.05347" lon="5.29083">
        <ele>507</ele>
        <time>2020-07-11T07:18:47.591Z</time>
      </trkpt>
      <trkpt lat="44.0535" lon="5.29087">
        <ele>506</ele>
        <time>2020-07-11T07:18:48.591Z</time>
      </trkpt>
      <trkpt lat="44.05353" lon="5.2909">
        <ele>506</ele>
        <time>2020-07-11T07:18:49.591Z</time>
      </trkpt>
      <trkpt lat="44.05357" lon="5.29093">
        <ele>506</ele>
        <time>2020-07-11T07:18:50.591Z</time>
      </trkpt>
      <trkpt lat="44.0536" lon="5.29094">
        <ele>506</ele>
        <time>2020-07-11T07:18:51.591Z</time>
      </trkpt>
      <trkpt lat="44.05364" lon="5.29096">
        <ele>506</ele>
        <time>2020-07-11T07:18:52.591Z</time>
      </trkpt>
      <trkpt lat="44.05369" lon="5.29097">
        <ele>506</ele>
        <time>2020-07-11T07:18:53.590Z</time>
      </trkpt>
      <trkpt lat="44.05374" lon="5.29098">
        <ele>506</ele>
        <time>2020-07-11T07:18:54.590Z</time>
      </trkpt>
      <trkpt lat="44.05378" lon="5.29099">
        <ele>506</ele>
        <time>2020-07-11T07:18:55.591Z</time>
      </trkpt>
      <trkpt lat="44.05383" lon="5.29099">
        <ele>506</ele>
        <time>2020-07-11T07:18:56.590Z</time>
      </trkpt>
      <trkpt lat="44.05386" lon="5.291">
        <ele>505</ele>
        <time>2020-07-11T07:18:57.590Z</time>
      </trkpt>
      <trkpt lat="44.05392" lon="5.29101">
        <ele>505</ele>
        <time>2020-07-11T07:18:58.591Z</time>
      </trkpt>
      <trkpt lat="44.05397" lon="5.29103">
        <ele>505</ele>
        <time>2020-07-11T07:18:59.590Z</time>
      </trkpt>
      <trkpt lat="44.05402" lon="5.29105">
        <ele>505</ele>
        <time>2020-07-11T07:19:00.591Z</time>
      </trkpt>
      <trkpt lat="44.05406" lon="5.29106">
        <ele>505</ele>
        <time>2020-07-11T07:19:01.591Z</time>
      </trkpt>
      <trkpt lat="44.05409" lon="5.29108">
        <ele>505</ele>
        <time>2020-07-11T07:19:02.591Z</time>
      </trkpt>
      <trkpt lat="44.05413" lon="5.29111">
        <ele>505</ele>
        <time>2020-07-11T07:19:03.591Z</time>
      </trkpt>
      <trkpt lat="44.05416" lon="5.29116">
        <ele>505</ele>
        <time>2020-07-11T07:19:04.591Z</time>
      </trkpt>
      <trkpt lat="44.05419" lon="5.29121">
        <ele>505</ele>
        <time>2020-07-11T07:19:05.591Z</time>
      </trkpt>
      <trkpt lat="44.05421" lon="5.29126">
        <ele>505</ele>
        <time>2020-07-11T07:19:06.590Z</time>
      </trkpt>
      <trkpt lat="44.05423" lon="5.2913">
        <ele>505</ele>
        <time>2020-07-11T07:19:07.591Z</time>
      </trkpt>
      <trkpt lat="44.05425" lon="5.29137">
        <ele>505</ele>
        <time>2020-07-11T07:19:08.591Z</time>
      </trkpt>
      <trkpt lat="44.05426" lon="5.29143">
        <ele>505</ele>
        <time>2020-07-11T07:19:09.591Z</time>
      </trkpt>
      <trkpt lat="44.05427" lon="5.29149">
        <ele>505</ele>
        <time>2020-07-11T07:19:10.590Z</time>
      </trkpt>
      <trkpt lat="44.05428" lon="5.29153">
        <ele>505</ele>
        <time>2020-07-11T07:19:11.591Z</time>
      </trkpt>
      <trkpt lat="44.0543" lon="5.29161">
        <ele>505</ele>
        <time>2020-07-11T07:19:12.590Z</time>
      </trkpt>
      <trkpt lat="44.05431" lon="5.29167">
        <ele>505</ele>
        <time>2020-07-11T07:19:13.590Z</time>
      </trkpt>
      <trkpt lat="44.05432" lon="5.29173">
        <ele>505</ele>
        <time>2020-07-11T07:19:14.591Z</time>
      </trkpt>
      <trkpt lat="44.05433" lon="5.29178">
        <ele>505</ele>
        <time>2020-07-11T07:19:15.591Z</time>
      </trkpt>
      <trkpt lat="44.05435" lon="5.29184">
        <ele>506</ele>
        <time>2020-07-11T07:19:16.591Z</time>
      </trkpt>
      <trkpt lat="44.05437" lon="5.29191">
        <ele>506</ele>
        <time>2020-07-11T07:19:17.591Z</time>
      </trkpt>
      <trkpt lat="44.05438" lon="5.29197">
        <ele>506</ele>
        <time>2020-07-11T07:19:18.591Z</time>
      </trkpt>
      <trkpt lat="44.0544" lon="5.29202">
        <ele>506</ele>
        <time>2020-07-11T07:19:19.591Z</time>
      </trkpt>
      <trkpt lat="44.05442" lon="5.29208">
        <ele>506</ele>
        <time>2020-07-11T07:19:20.591Z</time>
      </trkpt>
      <trkpt lat="44.05444" lon="5.29213">
        <ele>506</ele>
        <time>2020-07-11T07:19:21.591Z</time>
      </trkpt>
      <trkpt lat="44.05446" lon="5.29218">
        <ele>506</ele>
        <time>2020-07-11T07:19:22.591Z</time>
      </trkpt>
      <trkpt lat="44.05448" lon="5.29223">
        <ele>506</ele>
        <time>2020-07-11T07:19:23.591Z</time>
      </trkpt>
      <trkpt lat="44.05451" lon="5.29227">
        <ele>506</ele>
        <time>2020-07-11T07:19:24.590Z</time>
      </trkpt>
      <trkpt lat="44.05454" lon="5.29233">
        <ele>506</ele>
        <time>2020-07-11T07:19:25.590Z</time>
      </trkpt>
      <trkpt lat="44.05456" lon="5.29238">
        <ele>506</ele>
        <time>2020-07-11T07:19:26.590Z</time>
      </trkpt>
      <trkpt lat="44.05459" lon="5.29243">
        <ele>506</ele>
        <time>2020-07-11T07:19:27.590Z</time>
      </trkpt>
      <trkpt lat="44.05461" lon="5.29248">
        <ele>507</ele>
        <time>2020-07-11T07:19:28.591Z</time>
      </trkpt>
      <trkpt lat="44.05464" lon="5.29254">
        <ele>507</ele>
        <time>2020-07-11T07:19:29.590Z</time>
      </trkpt>
      <trkpt lat="44.05467" lon="5.29259">
        <ele>507</ele>
        <time>2020-07-11T07:19:30.591Z</time>
      </trkpt>
      <trkpt lat="44.05469" lon="5.29265">
        <ele>507</ele>
        <time>2020-07-11T07:19:31.591Z</time>
      </trkpt>
      <trkpt lat="44.05472" lon="5.2927">
        <ele>507</ele>
        <time>2020-07-11T07:19:32.590Z</time>
      </trkpt>
      <trkpt lat="44.05474" lon="5.29275">
        <ele>508</ele>
        <time>2020-07-11T07:19:33.591Z</time>
      </trkpt>
      <trkpt lat="44.05477" lon="5.29281">
        <ele>508</ele>
        <time>2020-07-11T07:19:34.591Z</time>
      </trkpt>
      <trkpt lat="44.05479" lon="5.29286">
        <ele>508</ele>
        <time>2020-07-11T07:19:35.591Z</time>
      </trkpt>
      <trkpt lat="44.05482" lon="5.29291">
        <ele>508</ele>
        <time>2020-07-11T07:19:36.591Z</time>
      </trkpt>
      <trkpt lat="44.05485" lon="5.29296">
        <ele>508</ele>
        <time>2020-07-11T07:19:37.590Z</time>
      </trkpt>
      <trkpt lat="44.05487" lon="5.29302">
        <ele>508</ele>
        <time>2020-07-11T07:19:38.590Z</time>
      </trkpt>
      <trkpt lat="44.05489" lon="5.29307">
        <ele>509</ele>
        <time>2020-07-11T07:19:39.591Z</time>
      </trkpt>
      <trkpt lat="44.05491" lon="5.29313">
        <ele>509</ele>
        <time>2020-07-11T07:19:40.590Z</time>
      </trkpt>
      <trkpt lat="44.05493" lon="5.29318">
        <ele>510</ele>
        <time>2020-07-11T07:19:41.591Z</time>
      </trkpt>
      <trkpt lat="44.05495" lon="5.29324">
        <ele>510</ele>
        <time>2020-07-11T07:19:42.590Z</time>
      </trkpt>
      <trkpt lat="44.05497" lon="5.2933">
        <ele>511</ele>
        <time>2020-07-11T07:19:43.590Z</time>
      </trkpt>
      <trkpt lat="44.05499" lon="5.29335">
        <ele>511</ele>
        <time>2020-07-11T07:19:44.590Z</time>
      </trkpt>
      <trkpt lat="44.055" lon="5.29341">
        <ele>512</ele>
        <time>2020-07-11T07:19:45.590Z</time>
      </trkpt>
      <trkpt lat="44.05502" lon="5.29347">
        <ele>512</ele>
        <time>2020-07-11T07:19:46.590Z</time>
      </trkpt>
      <trkpt lat="44.05504" lon="5.29353">
        <ele>513</ele>
        <time>2020-07-11T07:19:47.590Z</time>
      </trkpt>
      <trkpt lat="44.05505" lon="5.29359">
        <ele>513</ele>
        <time>2020-07-11T07:19:48.590Z</time>
      </trkpt>
      <trkpt lat="44.05507" lon="5.29365">
        <ele>514</ele>
        <time>2020-07-11T07:19:49.591Z</time>
      </trkpt>
      <trkpt lat="44.05508" lon="5.29371">
        <ele>515</ele>
        <time>2020-07-11T07:19:50.590Z</time>
      </trkpt>
      <trkpt lat="44.05509" lon="5.29378">
        <ele>515</ele>
        <time>2020-07-11T07:19:51.591Z</time>
      </trkpt>
      <trkpt lat="44.0551" lon="5.29384">
        <ele>516</ele>
        <time>2020-07-11T07:19:52.591Z</time>
      </trkpt>
      <trkpt lat="44.05511" lon="5.2939">
        <ele>516</ele>
        <time>2020-07-11T07:19:53.591Z</time>
      </trkpt>
      <trkpt lat="44.05512" lon="5.29396">
        <ele>516</ele>
        <time>2020-07-11T07:19:54.591Z</time>
      </trkpt>
      <trkpt lat="44.05513" lon="5.29402">
        <ele>517</ele>
        <time>2020-07-11T07:19:55.591Z</time>
      </trkpt>
      <trkpt lat="44.05514" lon="5.29409">
        <ele>517</ele>
        <time>2020-07-11T07:19:56.590Z</time>
      </trkpt>
      <trkpt lat="44.05516" lon="5.29414">
        <ele>518</ele>
        <time>2020-07-11T07:19:57.591Z</time>
      </trkpt>
      <trkpt lat="44.05517" lon="5.29421">
        <ele>518</ele>
        <time>2020-07-11T07:19:58.591Z</time>
      </trkpt>
      <trkpt lat="44.05518" lon="5.29428">
        <ele>518</ele>
        <time>2020-07-11T07:19:59.591Z</time>
      </trkpt>
      <trkpt lat="44.05519" lon="5.29433">
        <ele>518</ele>
        <time>2020-07-11T07:20:00.591Z</time>
      </trkpt>
      <trkpt lat="44.05521" lon="5.2944">
        <ele>518</ele>
        <time>2020-07-11T07:20:01.591Z</time>
      </trkpt>
      <trkpt lat="44.05523" lon="5.29444">
        <ele>519</ele>
        <time>2020-07-11T07:20:02.590Z</time>
      </trkpt>
      <trkpt lat="44.05526" lon="5.2945">
        <ele>519</ele>
        <time>2020-07-11T07:20:03.591Z</time>
      </trkpt>
      <trkpt lat="44.0553" lon="5.29454">
        <ele>519</ele>
        <time>2020-07-11T07:20:04.591Z</time>
      </trkpt>
      <trkpt lat="44.05534" lon="5.29457">
        <ele>519</ele>
        <time>2020-07-11T07:20:05.591Z</time>
      </trkpt>
      <trkpt lat="44.05539" lon="5.2946">
        <ele>519</ele>
        <time>2020-07-11T07:20:06.591Z</time>
      </trkpt>
      <trkpt lat="44.05543" lon="5.29462">
        <ele>519</ele>
        <time>2020-07-11T07:20:07.591Z</time>
      </trkpt>
      <trkpt lat="44.05548" lon="5.29465">
        <ele>519</ele>
        <time>2020-07-11T07:20:08.591Z</time>
      </trkpt>
      <trkpt lat="44.05552" lon="5.29469">
        <ele>518</ele>
        <time>2020-07-11T07:20:09.590Z</time>
      </trkpt>
      <trkpt lat="44.05556" lon="5.29472">
        <ele>518</ele>
        <time>2020-07-11T07:20:10.591Z</time>
      </trkpt>
      <trkpt lat="44.05559" lon="5.29476">
        <ele>518</ele>
        <time>2020-07-11T07:20:11.591Z</time>
      </trkpt>
      <trkpt lat="44.05564" lon="5.29482">
        <ele>519</ele>
        <time>2020-07-11T07:20:12.591Z</time>
      </trkpt>
      <trkpt lat="44.05566" lon="5.29487">
        <ele>519</ele>
        <time>2020-07-11T07:20:13.590Z</time>
      </trkpt>
      <trkpt lat="44.05569" lon="5.29493">
        <ele>519</ele>
        <time>2020-07-11T07:20:14.591Z</time>
      </trkpt>
      <trkpt lat="44.0557" lon="5.29499">
        <ele>519</ele>
        <time>2020-07-11T07:20:15.591Z</time>
      </trkpt>
      <trkpt lat="44.05572" lon="5.29505">
        <ele>519</ele>
        <time>2020-07-11T07:20:16.591Z</time>
      </trkpt>
      <trkpt lat="44.05573" lon="5.29512">
        <ele>519</ele>
        <time>2020-07-11T07:20:17.591Z</time>
      </trkpt>
      <trkpt lat="44.05575" lon="5.29518">
        <ele>519</ele>
        <time>2020-07-11T07:20:18.591Z</time>
      </trkpt>
      <trkpt lat="44.05576" lon="5.29524">
        <ele>519</ele>
        <time>2020-07-11T07:20:19.591Z</time>
      </trkpt>
      <trkpt lat="44.05578" lon="5.29529">
        <ele>519</ele>
        <time>2020-07-11T07:20:20.591Z</time>
      </trkpt>
      <trkpt lat="44.05581" lon="5.29535">
        <ele>519</ele>
        <time>2020-07-11T07:20:21.591Z</time>
      </trkpt>
      <trkpt lat="44.05584" lon="5.29541">
        <ele>519</ele>
        <time>2020-07-11T07:20:22.591Z</time>
      </trkpt>
      <trkpt lat="44.05587" lon="5.29546">
        <ele>519</ele>
        <time>2020-07-11T07:20:23.591Z</time>
      </trkpt>
      <trkpt lat="44.0559" lon="5.2955">
        <ele>519</ele>
        <time>2020-07-11T07:20:24.591Z</time>
      </trkpt>
      <trkpt lat="44.05593" lon="5.29554">
        <ele>518</ele>
        <time>2020-07-11T07:20:25.591Z</time>
      </trkpt>
      <trkpt lat="44.05597" lon="5.29559">
        <ele>518</ele>
        <time>2020-07-11T07:20:26.591Z</time>
      </trkpt>
      <trkpt lat="44.056" lon="5.29563">
        <ele>517</ele>
        <time>2020-07-11T07:20:27.590Z</time>
      </trkpt>
      <trkpt lat="44.05605" lon="5.29567">
        <ele>517</ele>
        <time>2020-07-11T07:20:28.590Z</time>
      </trkpt>
      <trkpt lat="44.05609" lon="5.29571">
        <ele>517</ele>
        <time>2020-07-11T07:20:29.591Z</time>
      </trkpt>
      <trkpt lat="44.05612" lon="5.29574">
        <ele>517</ele>
        <time>2020-07-11T07:20:30.590Z</time>
      </trkpt>
      <trkpt lat="44.05616" lon="5.29577">
        <ele>517</ele>
        <time>2020-07-11T07:20:31.591Z</time>
      </trkpt>
      <trkpt lat="44.05621" lon="5.29581">
        <ele>517</ele>
        <time>2020-07-11T07:20:32.591Z</time>
      </trkpt>
      <trkpt lat="44.05625" lon="5.29583">
        <ele>517</ele>
        <time>2020-07-11T07:20:33.590Z</time>
      </trkpt>
      <trkpt lat="44.05629" lon="5.29586">
        <ele>517</ele>
        <time>2020-07-11T07:20:34.590Z</time>
      </trkpt>
      <trkpt lat="44.05633" lon="5.2959">
        <ele>518</ele>
        <time>2020-07-11T07:20:35.591Z</time>
      </trkpt>
      <trkpt lat="44.05637" lon="5.29594">
        <ele>518</ele>
        <time>2020-07-11T07:20:36.591Z</time>
      </trkpt>
      <trkpt lat="44.0564" lon="5.29598">
        <ele>519</ele>
        <time>2020-07-11T07:20:37.591Z</time>
      </trkpt>
      <trkpt lat="44.05644" lon="5.29603">
        <ele>519</ele>
        <time>2020-07-11T07:20:38.591Z</time>
      </trkpt>
      <trkpt lat="44.05646" lon="5.29608">
        <ele>520</ele>
        <time>2020-07-11T07:20:39.591Z</time>
      </trkpt>
      <trkpt lat="44.05648" lon="5.29611">
        <ele>520</ele>
        <time>2020-07-11T07:20:40.590Z</time>
      </trkpt>
      <trkpt lat="44.05652" lon="5.29617">
        <ele>520</ele>
        <time>2020-07-11T07:20:41.591Z</time>
      </trkpt>
      <trkpt lat="44.05654" lon="5.29622">
        <ele>521</ele>
        <time>2020-07-11T07:20:42.591Z</time>
      </trkpt>
      <trkpt lat="44.05657" lon="5.29628">
        <ele>521</ele>
        <time>2020-07-11T07:20:43.591Z</time>
      </trkpt>
      <trkpt lat="44.05659" lon="5.29632">
        <ele>522</ele>
        <time>2020-07-11T07:20:44.591Z</time>
      </trkpt>
      <trkpt lat="44.05662" lon="5.29637">
        <ele>522</ele>
        <time>2020-07-11T07:20:45.591Z</time>
      </trkpt>
      <trkpt lat="44.05666" lon="5.29644">
        <ele>522</ele>
        <time>2020-07-11T07:20:46.591Z</time>
      </trkpt>
      <trkpt lat="44.05668" lon="5.29649">
        <ele>522</ele>
        <time>2020-07-11T07:20:47.591Z</time>
      </trkpt>
      <trkpt lat="44.05671" lon="5.29656">
        <ele>523</ele>
        <time>2020-07-11T07:20:48.591Z</time>
      </trkpt>
      <trkpt lat="44.05672" lon="5.29662">
        <ele>523</ele>
        <time>2020-07-11T07:20:49.591Z</time>
      </trkpt>
      <trkpt lat="44.05674" lon="5.29668">
        <ele>523</ele>
        <time>2020-07-11T07:20:50.591Z</time>
      </trkpt>
      <trkpt lat="44.05676" lon="5.29675">
        <ele>523</ele>
        <time>2020-07-11T07:20:51.591Z</time>
      </trkpt>
      <trkpt lat="44.05677" lon="5.29682">
        <ele>524</ele>
        <time>2020-07-11T07:20:52.591Z</time>
      </trkpt>
      <trkpt lat="44.05677" lon="5.29689">
        <ele>524</ele>
        <time>2020-07-11T07:20:53.591Z</time>
      </trkpt>
      <trkpt lat="44.05678" lon="5.29695">
        <ele>525</ele>
        <time>2020-07-11T07:20:54.591Z</time>
      </trkpt>
      <trkpt lat="44.05679" lon="5.29702">
        <ele>525</ele>
        <time>2020-07-11T07:20:55.590Z</time>
      </trkpt>
      <trkpt lat="44.05679" lon="5.29708">
        <ele>525</ele>
        <time>2020-07-11T07:20:56.590Z</time>
      </trkpt>
      <trkpt lat="44.0568" lon="5.29715">
        <ele>526</ele>
        <time>2020-07-11T07:20:57.591Z</time>
      </trkpt>
      <trkpt lat="44.0568" lon="5.29722">
        <ele>526</ele>
        <time>2020-07-11T07:20:58.590Z</time>
      </trkpt>
      <trkpt lat="44.05681" lon="5.29728">
        <ele>526</ele>
        <time>2020-07-11T07:20:59.591Z</time>
      </trkpt>
      <trkpt lat="44.05682" lon="5.29735">
        <ele>526</ele>
        <time>2020-07-11T07:21:00.591Z</time>
      </trkpt>
      <trkpt lat="44.05683" lon="5.29741">
        <ele>525</ele>
        <time>2020-07-11T07:21:01.591Z</time>
      </trkpt>
      <trkpt lat="44.05684" lon="5.29747">
        <ele>525</ele>
        <time>2020-07-11T07:21:02.591Z</time>
      </trkpt>
      <trkpt lat="44.05684" lon="5.29753">
        <ele>525</ele>
        <time>2020-07-11T07:21:03.591Z</time>
      </trkpt>
      <trkpt lat="44.05685" lon="5.29757">
        <ele>526</ele>
        <time>2020-07-11T07:21:04.591Z</time>
      </trkpt>
      <trkpt lat="44.05687" lon="5.29762">
        <ele>526</ele>
        <time>2020-07-11T07:21:05.591Z</time>
      </trkpt>
      <trkpt lat="44.05688" lon="5.29768">
        <ele>526</ele>
        <time>2020-07-11T07:21:06.591Z</time>
      </trkpt>
      <trkpt lat="44.05688" lon="5.29773">
        <ele>526</ele>
        <time>2020-07-11T07:21:07.591Z</time>
      </trkpt>
      <trkpt lat="44.05689" lon="5.29779">
        <ele>526</ele>
        <time>2020-07-11T07:21:08.591Z</time>
      </trkpt>
      <trkpt lat="44.0569" lon="5.29784">
        <ele>526</ele>
        <time>2020-07-11T07:21:09.590Z</time>
      </trkpt>
      <trkpt lat="44.05692" lon="5.29788">
        <ele>526</ele>
        <time>2020-07-11T07:21:10.590Z</time>
      </trkpt>
      <trkpt lat="44.05694" lon="5.29793">
        <ele>526</ele>
        <time>2020-07-11T07:21:11.591Z</time>
      </trkpt>
      <trkpt lat="44.05696" lon="5.29796">
        <ele>526</ele>
        <time>2020-07-11T07:21:12.591Z</time>
      </trkpt>
      <trkpt lat="44.057" lon="5.298">
        <ele>525</ele>
        <time>2020-07-11T07:21:13.591Z</time>
      </trkpt>
      <trkpt lat="44.05703" lon="5.29803">
        <ele>524</ele>
        <time>2020-07-11T07:21:14.590Z</time>
      </trkpt>
      <trkpt lat="44.05707" lon="5.29805">
        <ele>523</ele>
        <time>2020-07-11T07:21:15.590Z</time>
      </trkpt>
      <trkpt lat="44.0571" lon="5.29807">
        <ele>523</ele>
        <time>2020-07-11T07:21:16.591Z</time>
      </trkpt>
      <trkpt lat="44.05714" lon="5.29808">
        <ele>523</ele>
        <time>2020-07-11T07:21:17.591Z</time>
      </trkpt>
      <trkpt lat="44.05719" lon="5.2981">
        <ele>523</ele>
        <time>2020-07-11T07:21:18.591Z</time>
      </trkpt>
      <trkpt lat="44.05724" lon="5.29811">
        <ele>523</ele>
        <time>2020-07-11T07:21:19.590Z</time>
      </trkpt>
      <trkpt lat="44.05728" lon="5.29812">
        <ele>523</ele>
        <time>2020-07-11T07:21:20.590Z</time>
      </trkpt>
      <trkpt lat="44.05733" lon="5.29814">
        <ele>523</ele>
        <time>2020-07-11T07:21:21.591Z</time>
      </trkpt>
      <trkpt lat="44.05739" lon="5.29815">
        <ele>523</ele>
        <time>2020-07-11T07:21:22.591Z</time>
      </trkpt>
      <trkpt lat="44.05744" lon="5.29816">
        <ele>523</ele>
        <time>2020-07-11T07:21:23.590Z</time>
      </trkpt>
      <trkpt lat="44.05748" lon="5.29818">
        <ele>523</ele>
        <time>2020-07-11T07:21:24.591Z</time>
      </trkpt>
      <trkpt lat="44.05753" lon="5.2982">
        <ele>523</ele>
        <time>2020-07-11T07:21:25.591Z</time>
      </trkpt>
      <trkpt lat="44.05758" lon="5.29822">
        <ele>523</ele>
        <time>2020-07-11T07:21:26.591Z</time>
      </trkpt>
      <trkpt lat="44.05762" lon="5.29824">
        <ele>523</ele>
        <time>2020-07-11T07:21:27.590Z</time>
      </trkpt>
      <trkpt lat="44.05768" lon="5.29826">
        <ele>523</ele>
        <time>2020-07-11T07:21:28.591Z</time>
      </trkpt>
      <trkpt lat="44.05772" lon="5.29828">
        <ele>523</ele>
        <time>2020-07-11T07:21:29.591Z</time>
      </trkpt>
      <trkpt lat="44.05776" lon="5.2983">
        <ele>522</ele>
        <time>2020-07-11T07:21:30.591Z</time>
      </trkpt>
      <trkpt lat="44.05781" lon="5.29832">
        <ele>522</ele>
        <time>2020-07-11T07:21:31.591Z</time>
      </trkpt>
      <trkpt lat="44.05785" lon="5.29834">
        <ele>522</ele>
        <time>2020-07-11T07:21:32.591Z</time>
      </trkpt>
      <trkpt lat="44.0579" lon="5.29836">
        <ele>521</ele>
        <time>2020-07-11T07:21:33.590Z</time>
      </trkpt>
      <trkpt lat="44.05794" lon="5.29838">
        <ele>521</ele>
        <time>2020-07-11T07:21:34.590Z</time>
      </trkpt>
      <trkpt lat="44.05799" lon="5.29841">
        <ele>521</ele>
        <time>2020-07-11T07:21:35.590Z</time>
      </trkpt>
      <trkpt lat="44.05802" lon="5.29843">
        <ele>521</ele>
        <time>2020-07-11T07:21:36.591Z</time>
      </trkpt>
      <trkpt lat="44.05807" lon="5.29845">
        <ele>520</ele>
        <time>2020-07-11T07:21:37.591Z</time>
      </trkpt>
      <trkpt lat="44.05811" lon="5.29848">
        <ele>520</ele>
        <time>2020-07-11T07:21:38.591Z</time>
      </trkpt>
      <trkpt lat="44.05815" lon="5.2985">
        <ele>520</ele>
        <time>2020-07-11T07:21:39.590Z</time>
      </trkpt>
      <trkpt lat="44.0582" lon="5.29852">
        <ele>519</ele>
        <time>2020-07-11T07:21:40.590Z</time>
      </trkpt>
      <trkpt lat="44.05825" lon="5.29854">
        <ele>519</ele>
        <time>2020-07-11T07:21:41.591Z</time>
      </trkpt>
      <trkpt lat="44.0583" lon="5.29857">
        <ele>518</ele>
        <time>2020-07-11T07:21:42.590Z</time>
      </trkpt>
      <trkpt lat="44.05835" lon="5.2986">
        <ele>518</ele>
        <time>2020-07-11T07:21:43.590Z</time>
      </trkpt>
      <trkpt lat="44.0584" lon="5.29863">
        <ele>517</ele>
        <time>2020-07-11T07:21:44.590Z</time>
      </trkpt>
      <trkpt lat="44.05844" lon="5.29866">
        <ele>517</ele>
        <time>2020-07-11T07:21:45.591Z</time>
      </trkpt>
      <trkpt lat="44.05848" lon="5.29868">
        <ele>516</ele>
        <time>2020-07-11T07:21:46.591Z</time>
      </trkpt>
      <trkpt lat="44.05853" lon="5.29873">
        <ele>516</ele>
        <time>2020-07-11T07:21:47.590Z</time>
      </trkpt>
      <trkpt lat="44.05856" lon="5.29877">
        <ele>516</ele>
        <time>2020-07-11T07:21:48.590Z</time>
      </trkpt>
      <trkpt lat="44.0586" lon="5.29881">
        <ele>517</ele>
        <time>2020-07-11T07:21:49.590Z</time>
      </trkpt>
      <trkpt lat="44.05863" lon="5.29885">
        <ele>517</ele>
        <time>2020-07-11T07:21:50.591Z</time>
      </trkpt>
      <trkpt lat="44.05867" lon="5.29889">
        <ele>517</ele>
        <time>2020-07-11T07:21:51.590Z</time>
      </trkpt>
      <trkpt lat="44.0587" lon="5.29894">
        <ele>517</ele>
        <time>2020-07-11T07:21:52.591Z</time>
      </trkpt>
      <trkpt lat="44.05873" lon="5.29898">
        <ele>517</ele>
        <time>2020-07-11T07:21:53.590Z</time>
      </trkpt>
      <trkpt lat="44.05876" lon="5.29903">
        <ele>517</ele>
        <time>2020-07-11T07:21:54.590Z</time>
      </trkpt>
      <trkpt lat="44.05879" lon="5.29908">
        <ele>517</ele>
        <time>2020-07-11T07:21:55.590Z</time>
      </trkpt>
      <trkpt lat="44.05883" lon="5.29912">
        <ele>517</ele>
        <time>2020-07-11T07:21:56.590Z</time>
      </trkpt>
      <trkpt lat="44.05886" lon="5.29917">
        <ele>517</ele>
        <time>2020-07-11T07:21:57.590Z</time>
      </trkpt>
      <trkpt lat="44.05889" lon="5.29922">
        <ele>517</ele>
        <time>2020-07-11T07:21:58.590Z</time>
      </trkpt>
      <trkpt lat="44.05893" lon="5.29926">
        <ele>517</ele>
        <time>2020-07-11T07:21:59.591Z</time>
      </trkpt>
      <trkpt lat="44.05896" lon="5.29931">
        <ele>518</ele>
        <time>2020-07-11T07:22:00.591Z</time>
      </trkpt>
      <trkpt lat="44.059" lon="5.29936">
        <ele>518</ele>
        <time>2020-07-11T07:22:01.590Z</time>
      </trkpt>
      <trkpt lat="44.05903" lon="5.29941">
        <ele>518</ele>
        <time>2020-07-11T07:22:02.591Z</time>
      </trkpt>
      <trkpt lat="44.05907" lon="5.29946">
        <ele>517</ele>
        <time>2020-07-11T07:22:03.590Z</time>
      </trkpt>
      <trkpt lat="44.0591" lon="5.29951">
        <ele>517</ele>
        <time>2020-07-11T07:22:04.591Z</time>
      </trkpt>
      <trkpt lat="44.05914" lon="5.29956">
        <ele>517</ele>
        <time>2020-07-11T07:22:05.590Z</time>
      </trkpt>
      <trkpt lat="44.05917" lon="5.29961">
        <ele>517</ele>
        <time>2020-07-11T07:22:06.590Z</time>
      </trkpt>
      <trkpt lat="44.05921" lon="5.29966">
        <ele>517</ele>
        <time>2020-07-11T07:22:07.591Z</time>
      </trkpt>
      <trkpt lat="44.05924" lon="5.2997">
        <ele>517</ele>
        <time>2020-07-11T07:22:08.591Z</time>
      </trkpt>
      <trkpt lat="44.05926" lon="5.29974">
        <ele>517</ele>
        <time>2020-07-11T07:22:09.591Z</time>
      </trkpt>
      <trkpt lat="44.0593" lon="5.2998">
        <ele>517</ele>
        <time>2020-07-11T07:22:10.590Z</time>
      </trkpt>
      <trkpt lat="44.05933" lon="5.29986">
        <ele>517</ele>
        <time>2020-07-11T07:22:11.591Z</time>
      </trkpt>
      <trkpt lat="44.05935" lon="5.29991">
        <ele>517</ele>
        <time>2020-07-11T07:22:12.591Z</time>
      </trkpt>
      <trkpt lat="44.05938" lon="5.29997">
        <ele>517</ele>
        <time>2020-07-11T07:22:13.590Z</time>
      </trkpt>
      <trkpt lat="44.05941" lon="5.30002">
        <ele>517</ele>
        <time>2020-07-11T07:22:14.590Z</time>
      </trkpt>
      <trkpt lat="44.05943" lon="5.30007">
        <ele>517</ele>
        <time>2020-07-11T07:22:15.591Z</time>
      </trkpt>
      <trkpt lat="44.05946" lon="5.30014">
        <ele>517</ele>
        <time>2020-07-11T07:22:16.590Z</time>
      </trkpt>
      <trkpt lat="44.05948" lon="5.3002">
        <ele>517</ele>
        <time>2020-07-11T07:22:17.590Z</time>
      </trkpt>
      <trkpt lat="44.0595" lon="5.30026">
        <ele>517</ele>
        <time>2020-07-11T07:22:18.591Z</time>
      </trkpt>
      <trkpt lat="44.05951" lon="5.30032">
        <ele>516</ele>
        <time>2020-07-11T07:22:19.591Z</time>
      </trkpt>
      <trkpt lat="44.05953" lon="5.30038">
        <ele>516</ele>
        <time>2020-07-11T07:22:20.591Z</time>
      </trkpt>
      <trkpt lat="44.05955" lon="5.30044">
        <ele>516</ele>
        <time>2020-07-11T07:22:21.590Z</time>
      </trkpt>
      <trkpt lat="44.05957" lon="5.30049">
        <ele>516</ele>
        <time>2020-07-11T07:22:22.591Z</time>
      </trkpt>
      <trkpt lat="44.05958" lon="5.30055">
        <ele>516</ele>
        <time>2020-07-11T07:22:23.591Z</time>
      </trkpt>
      <trkpt lat="44.0596" lon="5.30061">
        <ele>516</ele>
        <time>2020-07-11T07:22:24.590Z</time>
      </trkpt>
      <trkpt lat="44.05962" lon="5.30067">
        <ele>517</ele>
        <time>2020-07-11T07:22:25.591Z</time>
      </trkpt>
      <trkpt lat="44.05964" lon="5.30072">
        <ele>517</ele>
        <time>2020-07-11T07:22:26.591Z</time>
      </trkpt>
      <trkpt lat="44.05966" lon="5.30077">
        <ele>518</ele>
        <time>2020-07-11T07:22:27.590Z</time>
      </trkpt>
      <trkpt lat="44.05969" lon="5.30081">
        <ele>518</ele>
        <time>2020-07-11T07:22:28.591Z</time>
      </trkpt>
      <trkpt lat="44.05972" lon="5.30086">
        <ele>519</ele>
        <time>2020-07-11T07:22:29.591Z</time>
      </trkpt>
      <trkpt lat="44.05975" lon="5.3009">
        <ele>519</ele>
        <time>2020-07-11T07:22:30.591Z</time>
      </trkpt>
      <trkpt lat="44.05979" lon="5.30094">
        <ele>520</ele>
        <time>2020-07-11T07:22:31.590Z</time>
      </trkpt>
      <trkpt lat="44.05983" lon="5.30098">
        <ele>520</ele>
        <time>2020-07-11T07:22:32.590Z</time>
      </trkpt>
      <trkpt lat="44.05987" lon="5.30101">
        <ele>520</ele>
        <time>2020-07-11T07:22:33.590Z</time>
      </trkpt>
      <trkpt lat="44.05991" lon="5.30104">
        <ele>520</ele>
        <time>2020-07-11T07:22:34.590Z</time>
      </trkpt>
      <trkpt lat="44.05995" lon="5.30107">
        <ele>520</ele>
        <time>2020-07-11T07:22:35.591Z</time>
      </trkpt>
      <trkpt lat="44.06" lon="5.3011">
        <ele>520</ele>
        <time>2020-07-11T07:22:36.591Z</time>
      </trkpt>
      <trkpt lat="44.06004" lon="5.30113">
        <ele>520</ele>
        <time>2020-07-11T07:22:37.590Z</time>
      </trkpt>
      <trkpt lat="44.06008" lon="5.30116">
        <ele>520</ele>
        <time>2020-07-11T07:22:38.591Z</time>
      </trkpt>
      <trkpt lat="44.06012" lon="5.30119">
        <ele>519</ele>
        <time>2020-07-11T07:22:39.590Z</time>
      </trkpt>
      <trkpt lat="44.06017" lon="5.30123">
        <ele>519</ele>
        <time>2020-07-11T07:22:40.591Z</time>
      </trkpt>
      <trkpt lat="44.06021" lon="5.30126">
        <ele>518</ele>
        <time>2020-07-11T07:22:41.591Z</time>
      </trkpt>
      <trkpt lat="44.06025" lon="5.30129">
        <ele>518</ele>
        <time>2020-07-11T07:22:42.590Z</time>
      </trkpt>
      <trkpt lat="44.0603" lon="5.30132">
        <ele>518</ele>
        <time>2020-07-11T07:22:43.591Z</time>
      </trkpt>
      <trkpt lat="44.06034" lon="5.30135">
        <ele>518</ele>
        <time>2020-07-11T07:22:44.591Z</time>
      </trkpt>
      <trkpt lat="44.06038" lon="5.30138">
        <ele>518</ele>
        <time>2020-07-11T07:22:45.591Z</time>
      </trkpt>
      <trkpt lat="44.06043" lon="5.3014">
        <ele>519</ele>
        <time>2020-07-11T07:22:46.591Z</time>
      </trkpt>
      <trkpt lat="44.06047" lon="5.30143">
        <ele>519</ele>
        <time>2020-07-11T07:22:47.591Z</time>
      </trkpt>
      <trkpt lat="44.06052" lon="5.30146">
        <ele>519</ele>
        <time>2020-07-11T07:22:48.590Z</time>
      </trkpt>
      <trkpt lat="44.06056" lon="5.30148">
        <ele>520</ele>
        <time>2020-07-11T07:22:49.591Z</time>
      </trkpt>
      <trkpt lat="44.0606" lon="5.30151">
        <ele>520</ele>
        <time>2020-07-11T07:22:50.591Z</time>
      </trkpt>
      <trkpt lat="44.06065" lon="5.30153">
        <ele>521</ele>
        <time>2020-07-11T07:22:51.591Z</time>
      </trkpt>
      <trkpt lat="44.06069" lon="5.30155">
        <ele>522</ele>
        <time>2020-07-11T07:22:52.590Z</time>
      </trkpt>
      <trkpt lat="44.06073" lon="5.30158">
        <ele>523</ele>
        <time>2020-07-11T07:22:53.591Z</time>
      </trkpt>
      <trkpt lat="44.06078" lon="5.3016">
        <ele>523</ele>
        <time>2020-07-11T07:22:54.590Z</time>
      </trkpt>
      <trkpt lat="44.06082" lon="5.30162">
        <ele>523</ele>
        <time>2020-07-11T07:22:55.590Z</time>
      </trkpt>
      <trkpt lat="44.06087" lon="5.30164">
        <ele>523</ele>
        <time>2020-07-11T07:22:56.591Z</time>
      </trkpt>
      <trkpt lat="44.06091" lon="5.30166">
        <ele>523</ele>
        <time>2020-07-11T07:22:57.591Z</time>
      </trkpt>
      <trkpt lat="44.06096" lon="5.30168">
        <ele>522</ele>
        <time>2020-07-11T07:22:58.590Z</time>
      </trkpt>
      <trkpt lat="44.061" lon="5.3017">
        <ele>522</ele>
        <time>2020-07-11T07:22:59.590Z</time>
      </trkpt>
      <trkpt lat="44.06105" lon="5.30172">
        <ele>522</ele>
        <time>2020-07-11T07:23:00.591Z</time>
      </trkpt>
      <trkpt lat="44.0611" lon="5.30174">
        <ele>522</ele>
        <time>2020-07-11T07:23:01.591Z</time>
      </trkpt>
      <trkpt lat="44.06114" lon="5.30176">
        <ele>522</ele>
        <time>2020-07-11T07:23:02.591Z</time>
      </trkpt>
      <trkpt lat="44.06119" lon="5.30177">
        <ele>523</ele>
        <time>2020-07-11T07:23:03.590Z</time>
      </trkpt>
      <trkpt lat="44.06124" lon="5.30178">
        <ele>523</ele>
        <time>2020-07-11T07:23:04.590Z</time>
      </trkpt>
      <trkpt lat="44.06129" lon="5.30178">
        <ele>523</ele>
        <time>2020-07-11T07:23:05.590Z</time>
      </trkpt>
      <trkpt lat="44.06134" lon="5.30177">
        <ele>523</ele>
        <time>2020-07-11T07:23:06.591Z</time>
      </trkpt>
      <trkpt lat="44.06139" lon="5.30176">
        <ele>523</ele>
        <time>2020-07-11T07:23:07.591Z</time>
      </trkpt>
      <trkpt lat="44.06144" lon="5.30174">
        <ele>523</ele>
        <time>2020-07-11T07:23:08.591Z</time>
      </trkpt>
      <trkpt lat="44.06149" lon="5.30173">
        <ele>523</ele>
        <time>2020-07-11T07:23:09.590Z</time>
      </trkpt>
      <trkpt lat="44.06155" lon="5.30172">
        <ele>523</ele>
        <time>2020-07-11T07:23:10.591Z</time>
      </trkpt>
      <trkpt lat="44.0616" lon="5.30171">
        <ele>522</ele>
        <time>2020-07-11T07:23:11.591Z</time>
      </trkpt>
      <trkpt lat="44.06165" lon="5.30171">
        <ele>522</ele>
        <time>2020-07-11T07:23:12.591Z</time>
      </trkpt>
      <trkpt lat="44.0617" lon="5.3017">
        <ele>522</ele>
        <time>2020-07-11T07:23:13.590Z</time>
      </trkpt>
      <trkpt lat="44.06175" lon="5.3017">
        <ele>522</ele>
        <time>2020-07-11T07:23:14.590Z</time>
      </trkpt>
      <trkpt lat="44.0618" lon="5.3017">
        <ele>521</ele>
        <time>2020-07-11T07:23:15.590Z</time>
      </trkpt>
      <trkpt lat="44.06185" lon="5.3017">
        <ele>521</ele>
        <time>2020-07-11T07:23:16.591Z</time>
      </trkpt>
      <trkpt lat="44.06189" lon="5.30171">
        <ele>522</ele>
        <time>2020-07-11T07:23:17.591Z</time>
      </trkpt>
      <trkpt lat="44.06195" lon="5.30171">
        <ele>522</ele>
        <time>2020-07-11T07:23:18.591Z</time>
      </trkpt>
      <trkpt lat="44.062" lon="5.30171">
        <ele>523</ele>
        <time>2020-07-11T07:23:19.591Z</time>
      </trkpt>
      <trkpt lat="44.06205" lon="5.30171">
        <ele>524</ele>
        <time>2020-07-11T07:23:20.591Z</time>
      </trkpt>
      <trkpt lat="44.06209" lon="5.30172">
        <ele>524</ele>
        <time>2020-07-11T07:23:21.591Z</time>
      </trkpt>
      <trkpt lat="44.06214" lon="5.30172">
        <ele>524</ele>
        <time>2020-07-11T07:23:22.591Z</time>
      </trkpt>
      <trkpt lat="44.06219" lon="5.30172">
        <ele>524</ele>
        <time>2020-07-11T07:23:23.591Z</time>
      </trkpt>
      <trkpt lat="44.06224" lon="5.30172">
        <ele>524</ele>
        <time>2020-07-11T07:23:24.591Z</time>
      </trkpt>
      <trkpt lat="44.06229" lon="5.30172">
        <ele>524</ele>
        <time>2020-07-11T07:23:25.591Z</time>
      </trkpt>
      <trkpt lat="44.06234" lon="5.30172">
        <ele>524</ele>
        <time>2020-07-11T07:23:26.591Z</time>
      </trkpt>
      <trkpt lat="44.06238" lon="5.30173">
        <ele>524</ele>
        <time>2020-07-11T07:23:27.591Z</time>
      </trkpt>
      <trkpt lat="44.06243" lon="5.30173">
        <ele>524</ele>
        <time>2020-07-11T07:23:28.591Z</time>
      </trkpt>
      <trkpt lat="44.06248" lon="5.30174">
        <ele>524</ele>
        <time>2020-07-11T07:23:29.591Z</time>
      </trkpt>
      <trkpt lat="44.06252" lon="5.30174">
        <ele>524</ele>
        <time>2020-07-11T07:23:30.590Z</time>
      </trkpt>
      <trkpt lat="44.06256" lon="5.30175">
        <ele>524</ele>
        <time>2020-07-11T07:23:31.591Z</time>
      </trkpt>
      <trkpt lat="44.06262" lon="5.30176">
        <ele>524</ele>
        <time>2020-07-11T07:23:32.590Z</time>
      </trkpt>
      <trkpt lat="44.06266" lon="5.30177">
        <ele>525</ele>
        <time>2020-07-11T07:23:33.591Z</time>
      </trkpt>
      <trkpt lat="44.06271" lon="5.30178">
        <ele>525</ele>
        <time>2020-07-11T07:23:34.591Z</time>
      </trkpt>
      <trkpt lat="44.06275" lon="5.3018">
        <ele>525</ele>
        <time>2020-07-11T07:23:35.591Z</time>
      </trkpt>
      <trkpt lat="44.0628" lon="5.30182">
        <ele>525</ele>
        <time>2020-07-11T07:23:36.591Z</time>
      </trkpt>
      <trkpt lat="44.06285" lon="5.30184">
        <ele>524</ele>
        <time>2020-07-11T07:23:37.591Z</time>
      </trkpt>
      <trkpt lat="44.06289" lon="5.30186">
        <ele>524</ele>
        <time>2020-07-11T07:23:38.591Z</time>
      </trkpt>
      <trkpt lat="44.06294" lon="5.30188">
        <ele>524</ele>
        <time>2020-07-11T07:23:39.590Z</time>
      </trkpt>
      <trkpt lat="44.06298" lon="5.3019">
        <ele>524</ele>
        <time>2020-07-11T07:23:40.591Z</time>
      </trkpt>
      <trkpt lat="44.06303" lon="5.30191">
        <ele>524</ele>
        <time>2020-07-11T07:23:41.591Z</time>
      </trkpt>
      <trkpt lat="44.06307" lon="5.30192">
        <ele>524</ele>
        <time>2020-07-11T07:23:42.591Z</time>
      </trkpt>
      <trkpt lat="44.06312" lon="5.30193">
        <ele>523</ele>
        <time>2020-07-11T07:23:43.591Z</time>
      </trkpt>
      <trkpt lat="44.06317" lon="5.30194">
        <ele>523</ele>
        <time>2020-07-11T07:23:44.590Z</time>
      </trkpt>
      <trkpt lat="44.06321" lon="5.30195">
        <ele>523</ele>
        <time>2020-07-11T07:23:45.590Z</time>
      </trkpt>
      <trkpt lat="44.06326" lon="5.30196">
        <ele>523</ele>
        <time>2020-07-11T07:23:46.591Z</time>
      </trkpt>
      <trkpt lat="44.06331" lon="5.30197">
        <ele>523</ele>
        <time>2020-07-11T07:23:47.591Z</time>
      </trkpt>
      <trkpt lat="44.06335" lon="5.30198">
        <ele>523</ele>
        <time>2020-07-11T07:23:48.591Z</time>
      </trkpt>
      <trkpt lat="44.0634" lon="5.30199">
        <ele>523</ele>
        <time>2020-07-11T07:23:49.590Z</time>
      </trkpt>
      <trkpt lat="44.06344" lon="5.302">
        <ele>523</ele>
        <time>2020-07-11T07:23:50.591Z</time>
      </trkpt>
      <trkpt lat="44.06349" lon="5.30201">
        <ele>524</ele>
        <time>2020-07-11T07:23:51.591Z</time>
      </trkpt>
      <trkpt lat="44.06354" lon="5.30203">
        <ele>524</ele>
        <time>2020-07-11T07:23:52.591Z</time>
      </trkpt>
      <trkpt lat="44.06358" lon="5.30204">
        <ele>525</ele>
        <time>2020-07-11T07:23:53.591Z</time>
      </trkpt>
      <trkpt lat="44.06363" lon="5.30206">
        <ele>525</ele>
        <time>2020-07-11T07:23:54.591Z</time>
      </trkpt>
      <trkpt lat="44.06367" lon="5.30208">
        <ele>525</ele>
        <time>2020-07-11T07:23:55.591Z</time>
      </trkpt>
      <trkpt lat="44.06372" lon="5.3021">
        <ele>526</ele>
        <time>2020-07-11T07:23:56.590Z</time>
      </trkpt>
      <trkpt lat="44.06376" lon="5.30211">
        <ele>526</ele>
        <time>2020-07-11T07:23:57.591Z</time>
      </trkpt>
      <trkpt lat="44.06381" lon="5.30213">
        <ele>526</ele>
        <time>2020-07-11T07:23:58.590Z</time>
      </trkpt>
      <trkpt lat="44.06385" lon="5.30215">
        <ele>527</ele>
        <time>2020-07-11T07:23:59.591Z</time>
      </trkpt>
      <trkpt lat="44.0639" lon="5.30216">
        <ele>527</ele>
        <time>2020-07-11T07:24:00.591Z</time>
      </trkpt>
      <trkpt lat="44.06394" lon="5.30218">
        <ele>527</ele>
        <time>2020-07-11T07:24:01.591Z</time>
      </trkpt>
      <trkpt lat="44.06398" lon="5.3022">
        <ele>528</ele>
        <time>2020-07-11T07:24:02.591Z</time>
      </trkpt>
      <trkpt lat="44.06402" lon="5.30223">
        <ele>528</ele>
        <time>2020-07-11T07:24:03.591Z</time>
      </trkpt>
      <trkpt lat="44.06406" lon="5.30226">
        <ele>528</ele>
        <time>2020-07-11T07:24:04.591Z</time>
      </trkpt>
      <trkpt lat="44.0641" lon="5.3023">
        <ele>529</ele>
        <time>2020-07-11T07:24:05.591Z</time>
      </trkpt>
      <trkpt lat="44.06413" lon="5.30234">
        <ele>529</ele>
        <time>2020-07-11T07:24:06.591Z</time>
      </trkpt>
      <trkpt lat="44.06416" lon="5.30238">
        <ele>529</ele>
        <time>2020-07-11T07:24:07.591Z</time>
      </trkpt>
      <trkpt lat="44.0642" lon="5.30242">
        <ele>529</ele>
        <time>2020-07-11T07:24:08.590Z</time>
      </trkpt>
      <trkpt lat="44.06423" lon="5.30246">
        <ele>529</ele>
        <time>2020-07-11T07:24:09.591Z</time>
      </trkpt>
      <trkpt lat="44.06426" lon="5.30249">
        <ele>530</ele>
        <time>2020-07-11T07:24:10.590Z</time>
      </trkpt>
      <trkpt lat="44.0643" lon="5.30253">
        <ele>530</ele>
        <time>2020-07-11T07:24:11.590Z</time>
      </trkpt>
      <trkpt lat="44.06433" lon="5.30257">
        <ele>530</ele>
        <time>2020-07-11T07:24:12.591Z</time>
      </trkpt>
      <trkpt lat="44.06436" lon="5.30261">
        <ele>530</ele>
        <time>2020-07-11T07:24:13.591Z</time>
      </trkpt>
      <trkpt lat="44.06439" lon="5.30265">
        <ele>530</ele>
        <time>2020-07-11T07:24:14.591Z</time>
      </trkpt>
      <trkpt lat="44.06442" lon="5.30269">
        <ele>530</ele>
        <time>2020-07-11T07:24:15.591Z</time>
      </trkpt>
      <trkpt lat="44.06446" lon="5.30273">
        <ele>530</ele>
        <time>2020-07-11T07:24:16.591Z</time>
      </trkpt>
      <trkpt lat="44.06449" lon="5.30277">
        <ele>530</ele>
        <time>2020-07-11T07:24:17.590Z</time>
      </trkpt>
      <trkpt lat="44.06453" lon="5.30281">
        <ele>529</ele>
        <time>2020-07-11T07:24:18.591Z</time>
      </trkpt>
      <trkpt lat="44.06456" lon="5.30285">
        <ele>529</ele>
        <time>2020-07-11T07:24:19.590Z</time>
      </trkpt>
      <trkpt lat="44.0646" lon="5.30288">
        <ele>529</ele>
        <time>2020-07-11T07:24:20.590Z</time>
      </trkpt>
      <trkpt lat="44.06464" lon="5.30292">
        <ele>529</ele>
        <time>2020-07-11T07:24:21.591Z</time>
      </trkpt>
      <trkpt lat="44.06467" lon="5.30295">
        <ele>529</ele>
        <time>2020-07-11T07:24:22.590Z</time>
      </trkpt>
      <trkpt lat="44.06471" lon="5.30298">
        <ele>529</ele>
        <time>2020-07-11T07:24:23.590Z</time>
      </trkpt>
      <trkpt lat="44.06475" lon="5.30302">
        <ele>529</ele>
        <time>2020-07-11T07:24:24.590Z</time>
      </trkpt>
      <trkpt lat="44.06478" lon="5.30305">
        <ele>529</ele>
        <time>2020-07-11T07:24:25.590Z</time>
      </trkpt>
      <trkpt lat="44.06482" lon="5.30308">
        <ele>528</ele>
        <time>2020-07-11T07:24:26.590Z</time>
      </trkpt>
      <trkpt lat="44.06486" lon="5.30311">
        <ele>529</ele>
        <time>2020-07-11T07:24:27.591Z</time>
      </trkpt>
      <trkpt lat="44.06489" lon="5.30314">
        <ele>529</ele>
        <time>2020-07-11T07:24:28.591Z</time>
      </trkpt>
      <trkpt lat="44.06493" lon="5.30317">
        <ele>530</ele>
        <time>2020-07-11T07:24:29.591Z</time>
      </trkpt>
      <trkpt lat="44.06496" lon="5.3032">
        <ele>531</ele>
        <time>2020-07-11T07:24:30.591Z</time>
      </trkpt>
      <trkpt lat="44.065" lon="5.30323">
        <ele>531</ele>
        <time>2020-07-11T07:24:31.590Z</time>
      </trkpt>
      <trkpt lat="44.06503" lon="5.30326">
        <ele>532</ele>
        <time>2020-07-11T07:24:32.591Z</time>
      </trkpt>
      <trkpt lat="44.06507" lon="5.3033">
        <ele>532</ele>
        <time>2020-07-11T07:24:33.591Z</time>
      </trkpt>
      <trkpt lat="44.0651" lon="5.30333">
        <ele>533</ele>
        <time>2020-07-11T07:24:34.591Z</time>
      </trkpt>
      <trkpt lat="44.06513" lon="5.30336">
        <ele>533</ele>
        <time>2020-07-11T07:24:35.591Z</time>
      </trkpt>
      <trkpt lat="44.06516" lon="5.30339">
        <ele>533</ele>
        <time>2020-07-11T07:24:36.591Z</time>
      </trkpt>
      <trkpt lat="44.0652" lon="5.30343">
        <ele>533</ele>
        <time>2020-07-11T07:24:37.591Z</time>
      </trkpt>
      <trkpt lat="44.06523" lon="5.30347">
        <ele>534</ele>
        <time>2020-07-11T07:24:38.591Z</time>
      </trkpt>
      <trkpt lat="44.06526" lon="5.3035">
        <ele>534</ele>
        <time>2020-07-11T07:24:39.590Z</time>
      </trkpt>
      <trkpt lat="44.06529" lon="5.30354">
        <ele>534</ele>
        <time>2020-07-11T07:24:40.591Z</time>
      </trkpt>
      <trkpt lat="44.06531" lon="5.30358">
        <ele>534</ele>
        <time>2020-07-11T07:24:41.591Z</time>
      </trkpt>
      <trkpt lat="44.06534" lon="5.30362">
        <ele>534</ele>
        <time>2020-07-11T07:24:42.590Z</time>
      </trkpt>
      <trkpt lat="44.06537" lon="5.30366">
        <ele>534</ele>
        <time>2020-07-11T07:24:43.591Z</time>
      </trkpt>
      <trkpt lat="44.0654" lon="5.30371">
        <ele>534</ele>
        <time>2020-07-11T07:24:44.591Z</time>
      </trkpt>
      <trkpt lat="44.06542" lon="5.30376">
        <ele>534</ele>
        <time>2020-07-11T07:24:45.591Z</time>
      </trkpt>
      <trkpt lat="44.06545" lon="5.3038">
        <ele>534</ele>
        <time>2020-07-11T07:24:46.590Z</time>
      </trkpt>
      <trkpt lat="44.06547" lon="5.30385">
        <ele>534</ele>
        <time>2020-07-11T07:24:47.591Z</time>
      </trkpt>
      <trkpt lat="44.06549" lon="5.30389">
        <ele>534</ele>
        <time>2020-07-11T07:24:48.590Z</time>
      </trkpt>
      <trkpt lat="44.06552" lon="5.30394">
        <ele>534</ele>
        <time>2020-07-11T07:24:49.591Z</time>
      </trkpt>
      <trkpt lat="44.06554" lon="5.30399">
        <ele>534</ele>
        <time>2020-07-11T07:24:50.590Z</time>
      </trkpt>
      <trkpt lat="44.06556" lon="5.30403">
        <ele>534</ele>
        <time>2020-07-11T07:24:51.591Z</time>
      </trkpt>
      <trkpt lat="44.06559" lon="5.30408">
        <ele>535</ele>
        <time>2020-07-11T07:24:52.590Z</time>
      </trkpt>
      <trkpt lat="44.06561" lon="5.30413">
        <ele>535</ele>
        <time>2020-07-11T07:24:53.590Z</time>
      </trkpt>
      <trkpt lat="44.06563" lon="5.30417">
        <ele>536</ele>
        <time>2020-07-11T07:24:54.590Z</time>
      </trkpt>
      <trkpt lat="44.06566" lon="5.30422">
        <ele>536</ele>
        <time>2020-07-11T07:24:55.591Z</time>
      </trkpt>
      <trkpt lat="44.06568" lon="5.30426">
        <ele>536</ele>
        <time>2020-07-11T07:24:56.591Z</time>
      </trkpt>
      <trkpt lat="44.06571" lon="5.3043">
        <ele>537</ele>
        <time>2020-07-11T07:24:57.590Z</time>
      </trkpt>
      <trkpt lat="44.06574" lon="5.30435">
        <ele>537</ele>
        <time>2020-07-11T07:24:58.590Z</time>
      </trkpt>
      <trkpt lat="44.06577" lon="5.30439">
        <ele>538</ele>
        <time>2020-07-11T07:24:59.591Z</time>
      </trkpt>
      <trkpt lat="44.0658" lon="5.30443">
        <ele>538</ele>
        <time>2020-07-11T07:25:00.591Z</time>
      </trkpt>
      <trkpt lat="44.06583" lon="5.30446">
        <ele>539</ele>
        <time>2020-07-11T07:25:01.590Z</time>
      </trkpt>
      <trkpt lat="44.06586" lon="5.3045">
        <ele>540</ele>
        <time>2020-07-11T07:25:02.591Z</time>
      </trkpt>
      <trkpt lat="44.06589" lon="5.30454">
        <ele>540</ele>
        <time>2020-07-11T07:25:03.591Z</time>
      </trkpt>
      <trkpt lat="44.06592" lon="5.30458">
        <ele>540</ele>
        <time>2020-07-11T07:25:04.591Z</time>
      </trkpt>
      <trkpt lat="44.06595" lon="5.30461">
        <ele>541</ele>
        <time>2020-07-11T07:25:05.590Z</time>
      </trkpt>
      <trkpt lat="44.06598" lon="5.30465">
        <ele>541</ele>
        <time>2020-07-11T07:25:06.591Z</time>
      </trkpt>
      <trkpt lat="44.06602" lon="5.30468">
        <ele>541</ele>
        <time>2020-07-11T07:25:07.591Z</time>
      </trkpt>
      <trkpt lat="44.06605" lon="5.30471">
        <ele>541</ele>
        <time>2020-07-11T07:25:08.590Z</time>
      </trkpt>
      <trkpt lat="44.06609" lon="5.30473">
        <ele>541</ele>
        <time>2020-07-11T07:25:09.590Z</time>
      </trkpt>
      <trkpt lat="44.06612" lon="5.30475">
        <ele>541</ele>
        <time>2020-07-11T07:25:10.591Z</time>
      </trkpt>
      <trkpt lat="44.06616" lon="5.30476">
        <ele>540</ele>
        <time>2020-07-11T07:25:11.591Z</time>
      </trkpt>
      <trkpt lat="44.0662" lon="5.30477">
        <ele>540</ele>
        <time>2020-07-11T07:25:12.591Z</time>
      </trkpt>
      <trkpt lat="44.06624" lon="5.30477">
        <ele>539</ele>
        <time>2020-07-11T07:25:13.591Z</time>
      </trkpt>
      <trkpt lat="44.06628" lon="5.30477">
        <ele>539</ele>
        <time>2020-07-11T07:25:14.591Z</time>
      </trkpt>
      <trkpt lat="44.06632" lon="5.30477">
        <ele>540</ele>
        <time>2020-07-11T07:25:15.591Z</time>
      </trkpt>
      <trkpt lat="44.06636" lon="5.30477">
        <ele>540</ele>
        <time>2020-07-11T07:25:16.591Z</time>
      </trkpt>
      <trkpt lat="44.0664" lon="5.30477">
        <ele>540</ele>
        <time>2020-07-11T07:25:17.591Z</time>
      </trkpt>
      <trkpt lat="44.06644" lon="5.30477">
        <ele>541</ele>
        <time>2020-07-11T07:25:18.590Z</time>
      </trkpt>
      <trkpt lat="44.06648" lon="5.30476">
        <ele>541</ele>
        <time>2020-07-11T07:25:19.591Z</time>
      </trkpt>
      <trkpt lat="44.06653" lon="5.30475">
        <ele>542</ele>
        <time>2020-07-11T07:25:20.591Z</time>
      </trkpt>
      <trkpt lat="44.06657" lon="5.30475">
        <ele>543</ele>
        <time>2020-07-11T07:25:21.591Z</time>
      </trkpt>
      <trkpt lat="44.06661" lon="5.30474">
        <ele>543</ele>
        <time>2020-07-11T07:25:22.591Z</time>
      </trkpt>
      <trkpt lat="44.06665" lon="5.30474">
        <ele>544</ele>
        <time>2020-07-11T07:25:23.590Z</time>
      </trkpt>
      <trkpt lat="44.06669" lon="5.30473">
        <ele>545</ele>
        <time>2020-07-11T07:25:24.591Z</time>
      </trkpt>
      <trkpt lat="44.06673" lon="5.30472">
        <ele>545</ele>
        <time>2020-07-11T07:25:25.591Z</time>
      </trkpt>
      <trkpt lat="44.06678" lon="5.30471">
        <ele>546</ele>
        <time>2020-07-11T07:25:26.590Z</time>
      </trkpt>
      <trkpt lat="44.06682" lon="5.30471">
        <ele>547</ele>
        <time>2020-07-11T07:25:27.591Z</time>
      </trkpt>
      <trkpt lat="44.06686" lon="5.30471">
        <ele>548</ele>
        <time>2020-07-11T07:25:28.591Z</time>
      </trkpt>
      <trkpt lat="44.0669" lon="5.30471">
        <ele>548</ele>
        <time>2020-07-11T07:25:29.591Z</time>
      </trkpt>
      <trkpt lat="44.06694" lon="5.30471">
        <ele>548</ele>
        <time>2020-07-11T07:25:30.591Z</time>
      </trkpt>
      <trkpt lat="44.06698" lon="5.30472">
        <ele>548</ele>
        <time>2020-07-11T07:25:31.591Z</time>
      </trkpt>
      <trkpt lat="44.06702" lon="5.30474">
        <ele>548</ele>
        <time>2020-07-11T07:25:32.591Z</time>
      </trkpt>
      <trkpt lat="44.06706" lon="5.30475">
        <ele>547</ele>
        <time>2020-07-11T07:25:33.591Z</time>
      </trkpt>
      <trkpt lat="44.06709" lon="5.30477">
        <ele>547</ele>
        <time>2020-07-11T07:25:34.591Z</time>
      </trkpt>
      <trkpt lat="44.06714" lon="5.30479">
        <ele>547</ele>
        <time>2020-07-11T07:25:35.591Z</time>
      </trkpt>
      <trkpt lat="44.06717" lon="5.30482">
        <ele>548</ele>
        <time>2020-07-11T07:25:36.591Z</time>
      </trkpt>
      <trkpt lat="44.06721" lon="5.30484">
        <ele>548</ele>
        <time>2020-07-11T07:25:37.590Z</time>
      </trkpt>
      <trkpt lat="44.06724" lon="5.30486">
        <ele>548</ele>
        <time>2020-07-11T07:25:38.590Z</time>
      </trkpt>
      <trkpt lat="44.06728" lon="5.30488">
        <ele>549</ele>
        <time>2020-07-11T07:25:39.591Z</time>
      </trkpt>
      <trkpt lat="44.06731" lon="5.3049">
        <ele>549</ele>
        <time>2020-07-11T07:25:40.590Z</time>
      </trkpt>
      <trkpt lat="44.06735" lon="5.30491">
        <ele>550</ele>
        <time>2020-07-11T07:25:41.591Z</time>
      </trkpt>
      <trkpt lat="44.06738" lon="5.30493">
        <ele>550</ele>
        <time>2020-07-11T07:25:42.591Z</time>
      </trkpt>
      <trkpt lat="44.06742" lon="5.30494">
        <ele>551</ele>
        <time>2020-07-11T07:25:43.590Z</time>
      </trkpt>
      <trkpt lat="44.06746" lon="5.30495">
        <ele>551</ele>
        <time>2020-07-11T07:25:44.591Z</time>
      </trkpt>
      <trkpt lat="44.0675" lon="5.30495">
        <ele>552</ele>
        <time>2020-07-11T07:25:45.590Z</time>
      </trkpt>
      <trkpt lat="44.06753" lon="5.30496">
        <ele>552</ele>
        <time>2020-07-11T07:25:46.591Z</time>
      </trkpt>
      <trkpt lat="44.06757" lon="5.30495">
        <ele>553</ele>
        <time>2020-07-11T07:25:47.591Z</time>
      </trkpt>
      <trkpt lat="44.06761" lon="5.30495">
        <ele>553</ele>
        <time>2020-07-11T07:25:48.591Z</time>
      </trkpt>
      <trkpt lat="44.06765" lon="5.30494">
        <ele>553</ele>
        <time>2020-07-11T07:25:49.591Z</time>
      </trkpt>
      <trkpt lat="44.06769" lon="5.30494">
        <ele>553</ele>
        <time>2020-07-11T07:25:50.591Z</time>
      </trkpt>
      <trkpt lat="44.06772" lon="5.30493">
        <ele>552</ele>
        <time>2020-07-11T07:25:51.591Z</time>
      </trkpt>
      <trkpt lat="44.06776" lon="5.30493">
        <ele>552</ele>
        <time>2020-07-11T07:25:52.590Z</time>
      </trkpt>
      <trkpt lat="44.0678" lon="5.30492">
        <ele>552</ele>
        <time>2020-07-11T07:25:53.590Z</time>
      </trkpt>
      <trkpt lat="44.06784" lon="5.30491">
        <ele>552</ele>
        <time>2020-07-11T07:25:54.591Z</time>
      </trkpt>
      <trkpt lat="44.06788" lon="5.30491">
        <ele>552</ele>
        <time>2020-07-11T07:25:55.591Z</time>
      </trkpt>
      <trkpt lat="44.06791" lon="5.3049">
        <ele>552</ele>
        <time>2020-07-11T07:25:56.591Z</time>
      </trkpt>
      <trkpt lat="44.06795" lon="5.30489">
        <ele>552</ele>
        <time>2020-07-11T07:25:57.591Z</time>
      </trkpt>
      <trkpt lat="44.06798" lon="5.30489">
        <ele>551</ele>
        <time>2020-07-11T07:25:58.591Z</time>
      </trkpt>
      <trkpt lat="44.06802" lon="5.30488">
        <ele>551</ele>
        <time>2020-07-11T07:25:59.591Z</time>
      </trkpt>
      <trkpt lat="44.06806" lon="5.30487">
        <ele>551</ele>
        <time>2020-07-11T07:26:00.590Z</time>
      </trkpt>
      <trkpt lat="44.0681" lon="5.30486">
        <ele>550</ele>
        <time>2020-07-11T07:26:01.591Z</time>
      </trkpt>
      <trkpt lat="44.06813" lon="5.30486">
        <ele>550</ele>
        <time>2020-07-11T07:26:02.591Z</time>
      </trkpt>
      <trkpt lat="44.06817" lon="5.30485">
        <ele>550</ele>
        <time>2020-07-11T07:26:03.590Z</time>
      </trkpt>
      <trkpt lat="44.06821" lon="5.30485">
        <ele>550</ele>
        <time>2020-07-11T07:26:04.591Z</time>
      </trkpt>
      <trkpt lat="44.06824" lon="5.30484">
        <ele>550</ele>
        <time>2020-07-11T07:26:05.591Z</time>
      </trkpt>
      <trkpt lat="44.06828" lon="5.30485">
        <ele>550</ele>
        <time>2020-07-11T07:26:06.591Z</time>
      </trkpt>
      <trkpt lat="44.06832" lon="5.30486">
        <ele>550</ele>
        <time>2020-07-11T07:26:07.591Z</time>
      </trkpt>
      <trkpt lat="44.06835" lon="5.30487">
        <ele>550</ele>
        <time>2020-07-11T07:26:08.591Z</time>
      </trkpt>
      <trkpt lat="44.06839" lon="5.30489">
        <ele>550</ele>
        <time>2020-07-11T07:26:09.591Z</time>
      </trkpt>
      <trkpt lat="44.06842" lon="5.30491">
        <ele>550</ele>
        <time>2020-07-11T07:26:10.591Z</time>
      </trkpt>
      <trkpt lat="44.06846" lon="5.30493">
        <ele>551</ele>
        <time>2020-07-11T07:26:11.591Z</time>
      </trkpt>
      <trkpt lat="44.0685" lon="5.30495">
        <ele>551</ele>
        <time>2020-07-11T07:26:12.591Z</time>
      </trkpt>
      <trkpt lat="44.06853" lon="5.30497">
        <ele>552</ele>
        <time>2020-07-11T07:26:13.590Z</time>
      </trkpt>
      <trkpt lat="44.06856" lon="5.30499">
        <ele>552</ele>
        <time>2020-07-11T07:26:14.590Z</time>
      </trkpt>
      <trkpt lat="44.0686" lon="5.30501">
        <ele>553</ele>
        <time>2020-07-11T07:26:15.591Z</time>
      </trkpt>
      <trkpt lat="44.06863" lon="5.30503">
        <ele>553</ele>
        <time>2020-07-11T07:26:16.590Z</time>
      </trkpt>
      <trkpt lat="44.06867" lon="5.30504">
        <ele>554</ele>
        <time>2020-07-11T07:26:17.590Z</time>
      </trkpt>
      <trkpt lat="44.06871" lon="5.30506">
        <ele>554</ele>
        <time>2020-07-11T07:26:18.590Z</time>
      </trkpt>
      <trkpt lat="44.06875" lon="5.30507">
        <ele>555</ele>
        <time>2020-07-11T07:26:19.590Z</time>
      </trkpt>
      <trkpt lat="44.06879" lon="5.30508">
        <ele>555</ele>
        <time>2020-07-11T07:26:20.591Z</time>
      </trkpt>
      <trkpt lat="44.06882" lon="5.30509">
        <ele>556</ele>
        <time>2020-07-11T07:26:21.591Z</time>
      </trkpt>
      <trkpt lat="44.06886" lon="5.3051">
        <ele>556</ele>
        <time>2020-07-11T07:26:22.591Z</time>
      </trkpt>
      <trkpt lat="44.0689" lon="5.30511">
        <ele>557</ele>
        <time>2020-07-11T07:26:23.590Z</time>
      </trkpt>
      <trkpt lat="44.06894" lon="5.30512">
        <ele>557</ele>
        <time>2020-07-11T07:26:24.590Z</time>
      </trkpt>
      <trkpt lat="44.06898" lon="5.30513">
        <ele>558</ele>
        <time>2020-07-11T07:26:25.591Z</time>
      </trkpt>
      <trkpt lat="44.06902" lon="5.30514">
        <ele>558</ele>
        <time>2020-07-11T07:26:26.591Z</time>
      </trkpt>
      <trkpt lat="44.06906" lon="5.30514">
        <ele>559</ele>
        <time>2020-07-11T07:26:27.591Z</time>
      </trkpt>
      <trkpt lat="44.06909" lon="5.30514">
        <ele>559</ele>
        <time>2020-07-11T07:26:28.591Z</time>
      </trkpt>
      <trkpt lat="44.06913" lon="5.30513">
        <ele>560</ele>
        <time>2020-07-11T07:26:29.590Z</time>
      </trkpt>
      <trkpt lat="44.06917" lon="5.30513">
        <ele>560</ele>
        <time>2020-07-11T07:26:30.591Z</time>
      </trkpt>
      <trkpt lat="44.06922" lon="5.30513">
        <ele>559</ele>
        <time>2020-07-11T07:26:31.590Z</time>
      </trkpt>
      <trkpt lat="44.06926" lon="5.30514">
        <ele>558</ele>
        <time>2020-07-11T07:26:32.591Z</time>
      </trkpt>
      <trkpt lat="44.0693" lon="5.30516">
        <ele>558</ele>
        <time>2020-07-11T07:26:33.591Z</time>
      </trkpt>
      <trkpt lat="44.06933" lon="5.30518">
        <ele>558</ele>
        <time>2020-07-11T07:26:34.591Z</time>
      </trkpt>
      <trkpt lat="44.06936" lon="5.30522">
        <ele>558</ele>
        <time>2020-07-11T07:26:35.591Z</time>
      </trkpt>
      <trkpt lat="44.06939" lon="5.30526">
        <ele>557</ele>
        <time>2020-07-11T07:26:36.591Z</time>
      </trkpt>
      <trkpt lat="44.06941" lon="5.30531">
        <ele>557</ele>
        <time>2020-07-11T07:26:37.591Z</time>
      </trkpt>
      <trkpt lat="44.06942" lon="5.30536">
        <ele>557</ele>
        <time>2020-07-11T07:26:38.591Z</time>
      </trkpt>
      <trkpt lat="44.06942" lon="5.30542">
        <ele>557</ele>
        <time>2020-07-11T07:26:39.591Z</time>
      </trkpt>
      <trkpt lat="44.06942" lon="5.30548">
        <ele>557</ele>
        <time>2020-07-11T07:26:40.590Z</time>
      </trkpt>
      <trkpt lat="44.06942" lon="5.30553">
        <ele>557</ele>
        <time>2020-07-11T07:26:41.591Z</time>
      </trkpt>
      <trkpt lat="44.06942" lon="5.30559">
        <ele>556</ele>
        <time>2020-07-11T07:26:42.591Z</time>
      </trkpt>
      <trkpt lat="44.0694" lon="5.30564">
        <ele>556</ele>
        <time>2020-07-11T07:26:43.591Z</time>
      </trkpt>
      <trkpt lat="44.06938" lon="5.30569">
        <ele>556</ele>
        <time>2020-07-11T07:26:44.591Z</time>
      </trkpt>
      <trkpt lat="44.06936" lon="5.30573">
        <ele>556</ele>
        <time>2020-07-11T07:26:45.590Z</time>
      </trkpt>
      <trkpt lat="44.06933" lon="5.30577">
        <ele>556</ele>
        <time>2020-07-11T07:26:46.590Z</time>
      </trkpt>
      <trkpt lat="44.0693" lon="5.3058">
        <ele>556</ele>
        <time>2020-07-11T07:26:47.591Z</time>
      </trkpt>
      <trkpt lat="44.06927" lon="5.30584">
        <ele>556</ele>
        <time>2020-07-11T07:26:48.591Z</time>
      </trkpt>
      <trkpt lat="44.06923" lon="5.30587">
        <ele>556</ele>
        <time>2020-07-11T07:26:49.590Z</time>
      </trkpt>
      <trkpt lat="44.0692" lon="5.30589">
        <ele>556</ele>
        <time>2020-07-11T07:26:50.591Z</time>
      </trkpt>
      <trkpt lat="44.06916" lon="5.30591">
        <ele>556</ele>
        <time>2020-07-11T07:26:51.590Z</time>
      </trkpt>
      <trkpt lat="44.06913" lon="5.30594">
        <ele>556</ele>
        <time>2020-07-11T07:26:52.591Z</time>
      </trkpt>
      <trkpt lat="44.06909" lon="5.30596">
        <ele>556</ele>
        <time>2020-07-11T07:26:53.590Z</time>
      </trkpt>
      <trkpt lat="44.06905" lon="5.30598">
        <ele>556</ele>
        <time>2020-07-11T07:26:54.590Z</time>
      </trkpt>
      <trkpt lat="44.06902" lon="5.306">
        <ele>556</ele>
        <time>2020-07-11T07:26:55.591Z</time>
      </trkpt>
      <trkpt lat="44.06898" lon="5.30603">
        <ele>557</ele>
        <time>2020-07-11T07:26:56.590Z</time>
      </trkpt>
      <trkpt lat="44.06894" lon="5.30605">
        <ele>557</ele>
        <time>2020-07-11T07:26:57.591Z</time>
      </trkpt>
      <trkpt lat="44.06891" lon="5.30607">
        <ele>558</ele>
        <time>2020-07-11T07:26:58.590Z</time>
      </trkpt>
      <trkpt lat="44.06887" lon="5.30609">
        <ele>559</ele>
        <time>2020-07-11T07:26:59.591Z</time>
      </trkpt>
      <trkpt lat="44.06883" lon="5.30611">
        <ele>559</ele>
        <time>2020-07-11T07:27:00.590Z</time>
      </trkpt>
      <trkpt lat="44.06879" lon="5.30613">
        <ele>559</ele>
        <time>2020-07-11T07:27:01.590Z</time>
      </trkpt>
      <trkpt lat="44.06876" lon="5.30615">
        <ele>559</ele>
        <time>2020-07-11T07:27:02.591Z</time>
      </trkpt>
      <trkpt lat="44.06872" lon="5.30617">
        <ele>560</ele>
        <time>2020-07-11T07:27:03.590Z</time>
      </trkpt>
      <trkpt lat="44.06868" lon="5.30618">
        <ele>560</ele>
        <time>2020-07-11T07:27:04.590Z</time>
      </trkpt>
      <trkpt lat="44.06865" lon="5.3062">
        <ele>561</ele>
        <time>2020-07-11T07:27:05.591Z</time>
      </trkpt>
      <trkpt lat="44.06861" lon="5.30622">
        <ele>561</ele>
        <time>2020-07-11T07:27:06.591Z</time>
      </trkpt>
      <trkpt lat="44.06857" lon="5.30624">
        <ele>561</ele>
        <time>2020-07-11T07:27:07.591Z</time>
      </trkpt>
      <trkpt lat="44.06854" lon="5.30627">
        <ele>561</ele>
        <time>2020-07-11T07:27:08.590Z</time>
      </trkpt>
      <trkpt lat="44.06851" lon="5.30629">
        <ele>561</ele>
        <time>2020-07-11T07:27:09.590Z</time>
      </trkpt>
      <trkpt lat="44.06847" lon="5.30633">
        <ele>560</ele>
        <time>2020-07-11T07:27:10.590Z</time>
      </trkpt>
      <trkpt lat="44.06844" lon="5.30636">
        <ele>560</ele>
        <time>2020-07-11T07:27:11.590Z</time>
      </trkpt>
      <trkpt lat="44.06842" lon="5.30639">
        <ele>560</ele>
        <time>2020-07-11T07:27:12.591Z</time>
      </trkpt>
      <trkpt lat="44.06839" lon="5.30643">
        <ele>559</ele>
        <time>2020-07-11T07:27:13.590Z</time>
      </trkpt>
      <trkpt lat="44.06836" lon="5.30647">
        <ele>559</ele>
        <time>2020-07-11T07:27:14.590Z</time>
      </trkpt>
      <trkpt lat="44.06833" lon="5.30651">
        <ele>559</ele>
        <time>2020-07-11T07:27:15.591Z</time>
      </trkpt>
      <trkpt lat="44.0683" lon="5.30655">
        <ele>558</ele>
        <time>2020-07-11T07:27:16.591Z</time>
      </trkpt>
      <trkpt lat="44.06828" lon="5.3066">
        <ele>558</ele>
        <time>2020-07-11T07:27:17.591Z</time>
      </trkpt>
      <trkpt lat="44.06825" lon="5.30664">
        <ele>558</ele>
        <time>2020-07-11T07:27:18.590Z</time>
      </trkpt>
      <trkpt lat="44.06822" lon="5.30668">
        <ele>558</ele>
        <time>2020-07-11T07:27:19.591Z</time>
      </trkpt>
      <trkpt lat="44.06819" lon="5.30672">
        <ele>557</ele>
        <time>2020-07-11T07:27:20.591Z</time>
      </trkpt>
      <trkpt lat="44.06816" lon="5.30676">
        <ele>557</ele>
        <time>2020-07-11T07:27:21.591Z</time>
      </trkpt>
      <trkpt lat="44.06812" lon="5.30679">
        <ele>557</ele>
        <time>2020-07-11T07:27:22.591Z</time>
      </trkpt>
      <trkpt lat="44.06809" lon="5.30682">
        <ele>557</ele>
        <time>2020-07-11T07:27:23.590Z</time>
      </trkpt>
      <trkpt lat="44.06805" lon="5.30684">
        <ele>557</ele>
        <time>2020-07-11T07:27:24.591Z</time>
      </trkpt>
      <trkpt lat="44.06801" lon="5.30685">
        <ele>557</ele>
        <time>2020-07-11T07:27:25.591Z</time>
      </trkpt>
      <trkpt lat="44.06796" lon="5.30687">
        <ele>556</ele>
        <time>2020-07-11T07:27:26.591Z</time>
      </trkpt>
      <trkpt lat="44.06792" lon="5.30688">
        <ele>556</ele>
        <time>2020-07-11T07:27:27.590Z</time>
      </trkpt>
      <trkpt lat="44.06788" lon="5.3069">
        <ele>556</ele>
        <time>2020-07-11T07:27:28.590Z</time>
      </trkpt>
      <trkpt lat="44.06784" lon="5.30692">
        <ele>556</ele>
        <time>2020-07-11T07:27:29.591Z</time>
      </trkpt>
      <trkpt lat="44.0678" lon="5.30694">
        <ele>556</ele>
        <time>2020-07-11T07:27:30.591Z</time>
      </trkpt>
      <trkpt lat="44.06776" lon="5.30695">
        <ele>556</ele>
        <time>2020-07-11T07:27:31.590Z</time>
      </trkpt>
      <trkpt lat="44.06772" lon="5.30697">
        <ele>557</ele>
        <time>2020-07-11T07:27:32.590Z</time>
      </trkpt>
      <trkpt lat="44.06768" lon="5.30699">
        <ele>557</ele>
        <time>2020-07-11T07:27:33.590Z</time>
      </trkpt>
      <trkpt lat="44.06764" lon="5.307">
        <ele>558</ele>
        <time>2020-07-11T07:27:34.590Z</time>
      </trkpt>
      <trkpt lat="44.0676" lon="5.30702">
        <ele>558</ele>
        <time>2020-07-11T07:27:35.590Z</time>
      </trkpt>
      <trkpt lat="44.06756" lon="5.30704">
        <ele>559</ele>
        <time>2020-07-11T07:27:36.590Z</time>
      </trkpt>
      <trkpt lat="44.06753" lon="5.30706">
        <ele>560</ele>
        <time>2020-07-11T07:27:37.590Z</time>
      </trkpt>
      <trkpt lat="44.06749" lon="5.30709">
        <ele>560</ele>
        <time>2020-07-11T07:27:38.590Z</time>
      </trkpt>
      <trkpt lat="44.06745" lon="5.30711">
        <ele>562</ele>
        <time>2020-07-11T07:27:39.590Z</time>
      </trkpt>
      <trkpt lat="44.06741" lon="5.30713">
        <ele>563</ele>
        <time>2020-07-11T07:27:40.591Z</time>
      </trkpt>
      <trkpt lat="44.06738" lon="5.30715">
        <ele>564</ele>
        <time>2020-07-11T07:27:41.590Z</time>
      </trkpt>
      <trkpt lat="44.06735" lon="5.30717">
        <ele>564</ele>
        <time>2020-07-11T07:27:42.591Z</time>
      </trkpt>
      <trkpt lat="44.0673" lon="5.3072">
        <ele>565</ele>
        <time>2020-07-11T07:27:43.591Z</time>
      </trkpt>
      <trkpt lat="44.06727" lon="5.30723">
        <ele>565</ele>
        <time>2020-07-11T07:27:44.590Z</time>
      </trkpt>
      <trkpt lat="44.06724" lon="5.30725">
        <ele>566</ele>
        <time>2020-07-11T07:27:45.591Z</time>
      </trkpt>
      <trkpt lat="44.06721" lon="5.30727">
        <ele>566</ele>
        <time>2020-07-11T07:27:46.591Z</time>
      </trkpt>
      <trkpt lat="44.06718" lon="5.3073">
        <ele>566</ele>
        <time>2020-07-11T07:27:47.591Z</time>
      </trkpt>
      <trkpt lat="44.06715" lon="5.30734">
        <ele>566</ele>
        <time>2020-07-11T07:27:48.591Z</time>
      </trkpt>
      <trkpt lat="44.06712" lon="5.30736">
        <ele>566</ele>
        <time>2020-07-11T07:27:49.591Z</time>
      </trkpt>
      <trkpt lat="44.06709" lon="5.3074">
        <ele>566</ele>
        <time>2020-07-11T07:27:50.591Z</time>
      </trkpt>
      <trkpt lat="44.06707" lon="5.30742">
        <ele>566</ele>
        <time>2020-07-11T07:27:51.591Z</time>
      </trkpt>
      <trkpt lat="44.06703" lon="5.30746">
        <ele>566</ele>
        <time>2020-07-11T07:27:52.591Z</time>
      </trkpt>
      <trkpt lat="44.06701" lon="5.30748">
        <ele>567</ele>
        <time>2020-07-11T07:27:53.590Z</time>
      </trkpt>
      <trkpt lat="44.06698" lon="5.30751">
        <ele>567</ele>
        <time>2020-07-11T07:27:54.591Z</time>
      </trkpt>
      <trkpt lat="44.06695" lon="5.30755">
        <ele>567</ele>
        <time>2020-07-11T07:27:55.591Z</time>
      </trkpt>
      <trkpt lat="44.06692" lon="5.30758">
        <ele>567</ele>
        <time>2020-07-11T07:27:56.591Z</time>
      </trkpt>
      <trkpt lat="44.0669" lon="5.30761">
        <ele>567</ele>
        <time>2020-07-11T07:27:57.590Z</time>
      </trkpt>
      <trkpt lat="44.06687" lon="5.30764">
        <ele>567</ele>
        <time>2020-07-11T07:27:58.591Z</time>
      </trkpt>
      <trkpt lat="44.06684" lon="5.30767">
        <ele>568</ele>
        <time>2020-07-11T07:27:59.591Z</time>
      </trkpt>
      <trkpt lat="44.06682" lon="5.3077">
        <ele>568</ele>
        <time>2020-07-11T07:28:00.591Z</time>
      </trkpt>
      <trkpt lat="44.06679" lon="5.30774">
        <ele>568</ele>
        <time>2020-07-11T07:28:01.591Z</time>
      </trkpt>
      <trkpt lat="44.06676" lon="5.30777">
        <ele>568</ele>
        <time>2020-07-11T07:28:02.590Z</time>
      </trkpt>
      <trkpt lat="44.06673" lon="5.30781">
        <ele>568</ele>
        <time>2020-07-11T07:28:03.591Z</time>
      </trkpt>
      <trkpt lat="44.0667" lon="5.30784">
        <ele>568</ele>
        <time>2020-07-11T07:28:04.591Z</time>
      </trkpt>
      <trkpt lat="44.06667" lon="5.30788">
        <ele>568</ele>
        <time>2020-07-11T07:28:05.591Z</time>
      </trkpt>
      <trkpt lat="44.06664" lon="5.30791">
        <ele>568</ele>
        <time>2020-07-11T07:28:06.591Z</time>
      </trkpt>
      <trkpt lat="44.06661" lon="5.30795">
        <ele>568</ele>
        <time>2020-07-11T07:28:07.590Z</time>
      </trkpt>
      <trkpt lat="44.06659" lon="5.30798">
        <ele>568</ele>
        <time>2020-07-11T07:28:08.590Z</time>
      </trkpt>
      <trkpt lat="44.06656" lon="5.30802">
        <ele>568</ele>
        <time>2020-07-11T07:28:09.591Z</time>
      </trkpt>
      <trkpt lat="44.06654" lon="5.30806">
        <ele>568</ele>
        <time>2020-07-11T07:28:10.591Z</time>
      </trkpt>
      <trkpt lat="44.06651" lon="5.30809">
        <ele>567</ele>
        <time>2020-07-11T07:28:11.591Z</time>
      </trkpt>
      <trkpt lat="44.06649" lon="5.30813">
        <ele>567</ele>
        <time>2020-07-11T07:28:12.591Z</time>
      </trkpt>
      <trkpt lat="44.06647" lon="5.30818">
        <ele>567</ele>
        <time>2020-07-11T07:28:13.591Z</time>
      </trkpt>
      <trkpt lat="44.06645" lon="5.30822">
        <ele>567</ele>
        <time>2020-07-11T07:28:14.591Z</time>
      </trkpt>
      <trkpt lat="44.06643" lon="5.30826">
        <ele>567</ele>
        <time>2020-07-11T07:28:15.591Z</time>
      </trkpt>
      <trkpt lat="44.06641" lon="5.3083">
        <ele>567</ele>
        <time>2020-07-11T07:28:16.591Z</time>
      </trkpt>
      <trkpt lat="44.06639" lon="5.30833">
        <ele>568</ele>
        <time>2020-07-11T07:28:17.591Z</time>
      </trkpt>
      <trkpt lat="44.06637" lon="5.30837">
        <ele>568</ele>
        <time>2020-07-11T07:28:18.591Z</time>
      </trkpt>
      <trkpt lat="44.06635" lon="5.3084">
        <ele>568</ele>
        <time>2020-07-11T07:28:19.591Z</time>
      </trkpt>
      <trkpt lat="44.06633" lon="5.30844">
        <ele>569</ele>
        <time>2020-07-11T07:28:20.591Z</time>
      </trkpt>
      <trkpt lat="44.06631" lon="5.30848">
        <ele>569</ele>
        <time>2020-07-11T07:28:21.591Z</time>
      </trkpt>
      <trkpt lat="44.0663" lon="5.30852">
        <ele>569</ele>
        <time>2020-07-11T07:28:22.590Z</time>
      </trkpt>
      <trkpt lat="44.06628" lon="5.30857">
        <ele>569</ele>
        <time>2020-07-11T07:28:23.590Z</time>
      </trkpt>
      <trkpt lat="44.06626" lon="5.30862">
        <ele>569</ele>
        <time>2020-07-11T07:28:24.591Z</time>
      </trkpt>
      <trkpt lat="44.06625" lon="5.30867">
        <ele>569</ele>
        <time>2020-07-11T07:28:25.590Z</time>
      </trkpt>
      <trkpt lat="44.06624" lon="5.30871">
        <ele>569</ele>
        <time>2020-07-11T07:28:26.590Z</time>
      </trkpt>
      <trkpt lat="44.06623" lon="5.30876">
        <ele>568</ele>
        <time>2020-07-11T07:28:27.591Z</time>
      </trkpt>
      <trkpt lat="44.06623" lon="5.30881">
        <ele>567</ele>
        <time>2020-07-11T07:28:28.590Z</time>
      </trkpt>
      <trkpt lat="44.06624" lon="5.30886">
        <ele>566</ele>
        <time>2020-07-11T07:28:29.591Z</time>
      </trkpt>
      <trkpt lat="44.06625" lon="5.30891">
        <ele>565</ele>
        <time>2020-07-11T07:28:30.591Z</time>
      </trkpt>
      <trkpt lat="44.06626" lon="5.30895">
        <ele>565</ele>
        <time>2020-07-11T07:28:31.590Z</time>
      </trkpt>
      <trkpt lat="44.06627" lon="5.309">
        <ele>564</ele>
        <time>2020-07-11T07:28:32.590Z</time>
      </trkpt>
      <trkpt lat="44.0663" lon="5.30904">
        <ele>564</ele>
        <time>2020-07-11T07:28:33.591Z</time>
      </trkpt>
      <trkpt lat="44.06632" lon="5.30909">
        <ele>564</ele>
        <time>2020-07-11T07:28:34.590Z</time>
      </trkpt>
      <trkpt lat="44.06635" lon="5.30913">
        <ele>564</ele>
        <time>2020-07-11T07:28:35.590Z</time>
      </trkpt>
      <trkpt lat="44.06637" lon="5.30917">
        <ele>564</ele>
        <time>2020-07-11T07:28:36.590Z</time>
      </trkpt>
      <trkpt lat="44.0664" lon="5.30921">
        <ele>564</ele>
        <time>2020-07-11T07:28:37.591Z</time>
      </trkpt>
      <trkpt lat="44.06642" lon="5.30926">
        <ele>564</ele>
        <time>2020-07-11T07:28:38.590Z</time>
      </trkpt>
      <trkpt lat="44.06645" lon="5.3093">
        <ele>564</ele>
        <time>2020-07-11T07:28:39.591Z</time>
      </trkpt>
      <trkpt lat="44.06647" lon="5.30935">
        <ele>565</ele>
        <time>2020-07-11T07:28:40.591Z</time>
      </trkpt>
      <trkpt lat="44.06649" lon="5.3094">
        <ele>565</ele>
        <time>2020-07-11T07:28:41.591Z</time>
      </trkpt>
      <trkpt lat="44.06652" lon="5.30945">
        <ele>565</ele>
        <time>2020-07-11T07:28:42.591Z</time>
      </trkpt>
      <trkpt lat="44.06654" lon="5.30949">
        <ele>565</ele>
        <time>2020-07-11T07:28:43.590Z</time>
      </trkpt>
      <trkpt lat="44.06657" lon="5.30953">
        <ele>566</ele>
        <time>2020-07-11T07:28:44.591Z</time>
      </trkpt>
      <trkpt lat="44.0666" lon="5.30957">
        <ele>566</ele>
        <time>2020-07-11T07:28:45.590Z</time>
      </trkpt>
      <trkpt lat="44.06662" lon="5.30961">
        <ele>566</ele>
        <time>2020-07-11T07:28:46.590Z</time>
      </trkpt>
      <trkpt lat="44.06665" lon="5.30965">
        <ele>567</ele>
        <time>2020-07-11T07:28:47.590Z</time>
      </trkpt>
      <trkpt lat="44.06669" lon="5.30968">
        <ele>567</ele>
        <time>2020-07-11T07:28:48.591Z</time>
      </trkpt>
      <trkpt lat="44.06672" lon="5.30972">
        <ele>567</ele>
        <time>2020-07-11T07:28:49.590Z</time>
      </trkpt>
      <trkpt lat="44.06675" lon="5.30975">
        <ele>567</ele>
        <time>2020-07-11T07:28:50.590Z</time>
      </trkpt>
      <trkpt lat="44.06679" lon="5.30978">
        <ele>567</ele>
        <time>2020-07-11T07:28:51.591Z</time>
      </trkpt>
      <trkpt lat="44.06682" lon="5.30981">
        <ele>567</ele>
        <time>2020-07-11T07:28:52.590Z</time>
      </trkpt>
      <trkpt lat="44.06686" lon="5.30984">
        <ele>567</ele>
        <time>2020-07-11T07:28:53.590Z</time>
      </trkpt>
      <trkpt lat="44.06689" lon="5.30987">
        <ele>567</ele>
        <time>2020-07-11T07:28:54.591Z</time>
      </trkpt>
      <trkpt lat="44.06693" lon="5.3099">
        <ele>567</ele>
        <time>2020-07-11T07:28:55.591Z</time>
      </trkpt>
      <trkpt lat="44.06696" lon="5.30993">
        <ele>567</ele>
        <time>2020-07-11T07:28:56.591Z</time>
      </trkpt>
      <trkpt lat="44.06699" lon="5.30997">
        <ele>567</ele>
        <time>2020-07-11T07:28:57.591Z</time>
      </trkpt>
      <trkpt lat="44.06703" lon="5.31">
        <ele>567</ele>
        <time>2020-07-11T07:28:58.591Z</time>
      </trkpt>
      <trkpt lat="44.06706" lon="5.31004">
        <ele>567</ele>
        <time>2020-07-11T07:28:59.591Z</time>
      </trkpt>
      <trkpt lat="44.0671" lon="5.31007">
        <ele>568</ele>
        <time>2020-07-11T07:29:00.591Z</time>
      </trkpt>
      <trkpt lat="44.06713" lon="5.31011">
        <ele>568</ele>
        <time>2020-07-11T07:29:01.591Z</time>
      </trkpt>
      <trkpt lat="44.06716" lon="5.31014">
        <ele>568</ele>
        <time>2020-07-11T07:29:02.591Z</time>
      </trkpt>
      <trkpt lat="44.06719" lon="5.31018">
        <ele>569</ele>
        <time>2020-07-11T07:29:03.591Z</time>
      </trkpt>
      <trkpt lat="44.06722" lon="5.31021">
        <ele>569</ele>
        <time>2020-07-11T07:29:04.591Z</time>
      </trkpt>
      <trkpt lat="44.06725" lon="5.31025">
        <ele>570</ele>
        <time>2020-07-11T07:29:05.591Z</time>
      </trkpt>
      <trkpt lat="44.06728" lon="5.31029">
        <ele>570</ele>
        <time>2020-07-11T07:29:06.591Z</time>
      </trkpt>
      <trkpt lat="44.06731" lon="5.31033">
        <ele>571</ele>
        <time>2020-07-11T07:29:07.591Z</time>
      </trkpt>
      <trkpt lat="44.06734" lon="5.31037">
        <ele>571</ele>
        <time>2020-07-11T07:29:08.591Z</time>
      </trkpt>
      <trkpt lat="44.06737" lon="5.31041">
        <ele>571</ele>
        <time>2020-07-11T07:29:09.590Z</time>
      </trkpt>
      <trkpt lat="44.0674" lon="5.31045">
        <ele>572</ele>
        <time>2020-07-11T07:29:10.591Z</time>
      </trkpt>
      <trkpt lat="44.06743" lon="5.31049">
        <ele>572</ele>
        <time>2020-07-11T07:29:11.590Z</time>
      </trkpt>
      <trkpt lat="44.06746" lon="5.31053">
        <ele>572</ele>
        <time>2020-07-11T07:29:12.591Z</time>
      </trkpt>
      <trkpt lat="44.06749" lon="5.31057">
        <ele>572</ele>
        <time>2020-07-11T07:29:13.591Z</time>
      </trkpt>
      <trkpt lat="44.06751" lon="5.31061">
        <ele>572</ele>
        <time>2020-07-11T07:29:14.591Z</time>
      </trkpt>
      <trkpt lat="44.06754" lon="5.31065">
        <ele>572</ele>
        <time>2020-07-11T07:29:15.591Z</time>
      </trkpt>
      <trkpt lat="44.06755" lon="5.31069">
        <ele>573</ele>
        <time>2020-07-11T07:29:16.590Z</time>
      </trkpt>
      <trkpt lat="44.06757" lon="5.31074">
        <ele>573</ele>
        <time>2020-07-11T07:29:17.591Z</time>
      </trkpt>
      <trkpt lat="44.06757" lon="5.31079">
        <ele>573</ele>
        <time>2020-07-11T07:29:18.590Z</time>
      </trkpt>
      <trkpt lat="44.06757" lon="5.31085">
        <ele>573</ele>
        <time>2020-07-11T07:29:19.591Z</time>
      </trkpt>
      <trkpt lat="44.06756" lon="5.31091">
        <ele>573</ele>
        <time>2020-07-11T07:29:20.590Z</time>
      </trkpt>
      <trkpt lat="44.06755" lon="5.31097">
        <ele>573</ele>
        <time>2020-07-11T07:29:21.590Z</time>
      </trkpt>
      <trkpt lat="44.06753" lon="5.31102">
        <ele>573</ele>
        <time>2020-07-11T07:29:22.591Z</time>
      </trkpt>
      <trkpt lat="44.06751" lon="5.31107">
        <ele>573</ele>
        <time>2020-07-11T07:29:23.590Z</time>
      </trkpt>
      <trkpt lat="44.06747" lon="5.31111">
        <ele>573</ele>
        <time>2020-07-11T07:29:24.591Z</time>
      </trkpt>
      <trkpt lat="44.06743" lon="5.31114">
        <ele>573</ele>
        <time>2020-07-11T07:29:25.591Z</time>
      </trkpt>
      <trkpt lat="44.06739" lon="5.31117">
        <ele>573</ele>
        <time>2020-07-11T07:29:26.591Z</time>
      </trkpt>
      <trkpt lat="44.06735" lon="5.31119">
        <ele>573</ele>
        <time>2020-07-11T07:29:27.591Z</time>
      </trkpt>
      <trkpt lat="44.0673" lon="5.3112">
        <ele>573</ele>
        <time>2020-07-11T07:29:28.590Z</time>
      </trkpt>
      <trkpt lat="44.06726" lon="5.3112">
        <ele>574</ele>
        <time>2020-07-11T07:29:29.591Z</time>
      </trkpt>
      <trkpt lat="44.06722" lon="5.31121">
        <ele>574</ele>
        <time>2020-07-11T07:29:30.591Z</time>
      </trkpt>
      <trkpt lat="44.06717" lon="5.31122">
        <ele>574</ele>
        <time>2020-07-11T07:29:31.590Z</time>
      </trkpt>
      <trkpt lat="44.06713" lon="5.31122">
        <ele>574</ele>
        <time>2020-07-11T07:29:32.590Z</time>
      </trkpt>
      <trkpt lat="44.06709" lon="5.31123">
        <ele>574</ele>
        <time>2020-07-11T07:29:33.591Z</time>
      </trkpt>
      <trkpt lat="44.06704" lon="5.31123">
        <ele>574</ele>
        <time>2020-07-11T07:29:34.591Z</time>
      </trkpt>
      <trkpt lat="44.067" lon="5.31124">
        <ele>575</ele>
        <time>2020-07-11T07:29:35.590Z</time>
      </trkpt>
      <trkpt lat="44.06696" lon="5.31125">
        <ele>575</ele>
        <time>2020-07-11T07:29:36.591Z</time>
      </trkpt>
      <trkpt lat="44.06691" lon="5.31125">
        <ele>575</ele>
        <time>2020-07-11T07:29:37.590Z</time>
      </trkpt>
      <trkpt lat="44.06687" lon="5.31126">
        <ele>575</ele>
        <time>2020-07-11T07:29:38.591Z</time>
      </trkpt>
      <trkpt lat="44.06682" lon="5.31126">
        <ele>574</ele>
        <time>2020-07-11T07:29:39.591Z</time>
      </trkpt>
      <trkpt lat="44.06678" lon="5.31127">
        <ele>574</ele>
        <time>2020-07-11T07:29:40.591Z</time>
      </trkpt>
      <trkpt lat="44.06674" lon="5.31127">
        <ele>574</ele>
        <time>2020-07-11T07:29:41.590Z</time>
      </trkpt>
      <trkpt lat="44.0667" lon="5.31128">
        <ele>574</ele>
        <time>2020-07-11T07:29:42.591Z</time>
      </trkpt>
      <trkpt lat="44.06665" lon="5.31129">
        <ele>574</ele>
        <time>2020-07-11T07:29:43.590Z</time>
      </trkpt>
      <trkpt lat="44.06661" lon="5.31129">
        <ele>575</ele>
        <time>2020-07-11T07:29:44.590Z</time>
      </trkpt>
      <trkpt lat="44.06657" lon="5.31129">
        <ele>575</ele>
        <time>2020-07-11T07:29:45.591Z</time>
      </trkpt>
      <trkpt lat="44.06653" lon="5.3113">
        <ele>575</ele>
        <time>2020-07-11T07:29:46.591Z</time>
      </trkpt>
      <trkpt lat="44.06649" lon="5.3113">
        <ele>576</ele>
        <time>2020-07-11T07:29:47.590Z</time>
      </trkpt>
      <trkpt lat="44.06645" lon="5.31131">
        <ele>576</ele>
        <time>2020-07-11T07:29:48.591Z</time>
      </trkpt>
      <trkpt lat="44.06641" lon="5.31132">
        <ele>576</ele>
        <time>2020-07-11T07:29:49.591Z</time>
      </trkpt>
      <trkpt lat="44.06637" lon="5.31132">
        <ele>576</ele>
        <time>2020-07-11T07:29:50.591Z</time>
      </trkpt>
      <trkpt lat="44.06633" lon="5.31133">
        <ele>575</ele>
        <time>2020-07-11T07:29:51.591Z</time>
      </trkpt>
      <trkpt lat="44.06629" lon="5.31134">
        <ele>575</ele>
        <time>2020-07-11T07:29:52.591Z</time>
      </trkpt>
      <trkpt lat="44.06625" lon="5.31135">
        <ele>575</ele>
        <time>2020-07-11T07:29:53.591Z</time>
      </trkpt>
      <trkpt lat="44.06621" lon="5.31136">
        <ele>575</ele>
        <time>2020-07-11T07:29:54.591Z</time>
      </trkpt>
      <trkpt lat="44.06617" lon="5.31137">
        <ele>575</ele>
        <time>2020-07-11T07:29:55.591Z</time>
      </trkpt>
      <trkpt lat="44.06613" lon="5.31139">
        <ele>575</ele>
        <time>2020-07-11T07:29:56.591Z</time>
      </trkpt>
      <trkpt lat="44.06609" lon="5.31141">
        <ele>575</ele>
        <time>2020-07-11T07:29:57.591Z</time>
      </trkpt>
      <trkpt lat="44.06605" lon="5.31144">
        <ele>575</ele>
        <time>2020-07-11T07:29:58.591Z</time>
      </trkpt>
      <trkpt lat="44.06602" lon="5.31147">
        <ele>575</ele>
        <time>2020-07-11T07:29:59.591Z</time>
      </trkpt>
      <trkpt lat="44.06598" lon="5.3115">
        <ele>575</ele>
        <time>2020-07-11T07:30:00.590Z</time>
      </trkpt>
      <trkpt lat="44.06595" lon="5.31154">
        <ele>575</ele>
        <time>2020-07-11T07:30:01.591Z</time>
      </trkpt>
      <trkpt lat="44.06592" lon="5.31157">
        <ele>575</ele>
        <time>2020-07-11T07:30:02.591Z</time>
      </trkpt>
      <trkpt lat="44.06589" lon="5.31161">
        <ele>575</ele>
        <time>2020-07-11T07:30:03.591Z</time>
      </trkpt>
      <trkpt lat="44.06586" lon="5.31165">
        <ele>576</ele>
        <time>2020-07-11T07:30:04.591Z</time>
      </trkpt>
      <trkpt lat="44.06583" lon="5.31169">
        <ele>576</ele>
        <time>2020-07-11T07:30:05.590Z</time>
      </trkpt>
      <trkpt lat="44.06581" lon="5.31174">
        <ele>576</ele>
        <time>2020-07-11T07:30:06.591Z</time>
      </trkpt>
      <trkpt lat="44.06578" lon="5.31179">
        <ele>576</ele>
        <time>2020-07-11T07:30:07.590Z</time>
      </trkpt>
      <trkpt lat="44.06576" lon="5.31184">
        <ele>576</ele>
        <time>2020-07-11T07:30:08.591Z</time>
      </trkpt>
      <trkpt lat="44.06574" lon="5.31189">
        <ele>576</ele>
        <time>2020-07-11T07:30:09.591Z</time>
      </trkpt>
      <trkpt lat="44.06571" lon="5.31194">
        <ele>576</ele>
        <time>2020-07-11T07:30:10.591Z</time>
      </trkpt>
      <trkpt lat="44.06569" lon="5.31199">
        <ele>576</ele>
        <time>2020-07-11T07:30:11.591Z</time>
      </trkpt>
      <trkpt lat="44.06567" lon="5.31203">
        <ele>576</ele>
        <time>2020-07-11T07:30:12.591Z</time>
      </trkpt>
      <trkpt lat="44.06565" lon="5.31208">
        <ele>575</ele>
        <time>2020-07-11T07:30:13.591Z</time>
      </trkpt>
      <trkpt lat="44.06563" lon="5.31213">
        <ele>575</ele>
        <time>2020-07-11T07:30:14.591Z</time>
      </trkpt>
      <trkpt lat="44.06562" lon="5.31216">
        <ele>575</ele>
        <time>2020-07-11T07:30:15.591Z</time>
      </trkpt>
      <trkpt lat="44.0656" lon="5.31222">
        <ele>575</ele>
        <time>2020-07-11T07:30:16.590Z</time>
      </trkpt>
      <trkpt lat="44.06557" lon="5.31227">
        <ele>575</ele>
        <time>2020-07-11T07:30:17.591Z</time>
      </trkpt>
      <trkpt lat="44.06555" lon="5.31232">
        <ele>575</ele>
        <time>2020-07-11T07:30:18.591Z</time>
      </trkpt>
      <trkpt lat="44.06553" lon="5.31237">
        <ele>575</ele>
        <time>2020-07-11T07:30:19.591Z</time>
      </trkpt>
      <trkpt lat="44.06551" lon="5.31242">
        <ele>575</ele>
        <time>2020-07-11T07:30:20.591Z</time>
      </trkpt>
      <trkpt lat="44.06549" lon="5.31247">
        <ele>576</ele>
        <time>2020-07-11T07:30:21.591Z</time>
      </trkpt>
      <trkpt lat="44.06547" lon="5.31252">
        <ele>576</ele>
        <time>2020-07-11T07:30:22.591Z</time>
      </trkpt>
      <trkpt lat="44.06545" lon="5.31256">
        <ele>577</ele>
        <time>2020-07-11T07:30:23.590Z</time>
      </trkpt>
      <trkpt lat="44.06543" lon="5.31261">
        <ele>577</ele>
        <time>2020-07-11T07:30:24.590Z</time>
      </trkpt>
      <trkpt lat="44.06541" lon="5.31266">
        <ele>578</ele>
        <time>2020-07-11T07:30:25.590Z</time>
      </trkpt>
      <trkpt lat="44.06539" lon="5.31272">
        <ele>578</ele>
        <time>2020-07-11T07:30:26.591Z</time>
      </trkpt>
      <trkpt lat="44.06537" lon="5.31276">
        <ele>578</ele>
        <time>2020-07-11T07:30:27.591Z</time>
      </trkpt>
      <trkpt lat="44.06534" lon="5.31281">
        <ele>577</ele>
        <time>2020-07-11T07:30:28.590Z</time>
      </trkpt>
      <trkpt lat="44.06531" lon="5.31285">
        <ele>577</ele>
        <time>2020-07-11T07:30:29.590Z</time>
      </trkpt>
      <trkpt lat="44.06529" lon="5.31289">
        <ele>577</ele>
        <time>2020-07-11T07:30:30.591Z</time>
      </trkpt>
      <trkpt lat="44.06527" lon="5.31293">
        <ele>577</ele>
        <time>2020-07-11T07:30:31.590Z</time>
      </trkpt>
      <trkpt lat="44.06524" lon="5.31297">
        <ele>577</ele>
        <time>2020-07-11T07:30:32.591Z</time>
      </trkpt>
      <trkpt lat="44.06521" lon="5.31301">
        <ele>578</ele>
        <time>2020-07-11T07:30:33.590Z</time>
      </trkpt>
      <trkpt lat="44.06518" lon="5.31305">
        <ele>578</ele>
        <time>2020-07-11T07:30:34.591Z</time>
      </trkpt>
      <trkpt lat="44.06516" lon="5.31309">
        <ele>579</ele>
        <time>2020-07-11T07:30:35.591Z</time>
      </trkpt>
      <trkpt lat="44.06513" lon="5.31313">
        <ele>579</ele>
        <time>2020-07-11T07:30:36.591Z</time>
      </trkpt>
      <trkpt lat="44.0651" lon="5.31316">
        <ele>580</ele>
        <time>2020-07-11T07:30:37.591Z</time>
      </trkpt>
      <trkpt lat="44.06506" lon="5.3132">
        <ele>580</ele>
        <time>2020-07-11T07:30:38.591Z</time>
      </trkpt>
      <trkpt lat="44.06503" lon="5.31324">
        <ele>581</ele>
        <time>2020-07-11T07:30:39.590Z</time>
      </trkpt>
      <trkpt lat="44.065" lon="5.31328">
        <ele>581</ele>
        <time>2020-07-11T07:30:40.591Z</time>
      </trkpt>
      <trkpt lat="44.06497" lon="5.31332">
        <ele>581</ele>
        <time>2020-07-11T07:30:41.590Z</time>
      </trkpt>
      <trkpt lat="44.06495" lon="5.31335">
        <ele>582</ele>
        <time>2020-07-11T07:30:42.590Z</time>
      </trkpt>
      <trkpt lat="44.06491" lon="5.3134">
        <ele>582</ele>
        <time>2020-07-11T07:30:43.590Z</time>
      </trkpt>
      <trkpt lat="44.06488" lon="5.31344">
        <ele>583</ele>
        <time>2020-07-11T07:30:44.591Z</time>
      </trkpt>
      <trkpt lat="44.06485" lon="5.31348">
        <ele>583</ele>
        <time>2020-07-11T07:30:45.590Z</time>
      </trkpt>
      <trkpt lat="44.06482" lon="5.31352">
        <ele>584</ele>
        <time>2020-07-11T07:30:46.591Z</time>
      </trkpt>
      <trkpt lat="44.06479" lon="5.31356">
        <ele>584</ele>
        <time>2020-07-11T07:30:47.591Z</time>
      </trkpt>
      <trkpt lat="44.06476" lon="5.31359">
        <ele>584</ele>
        <time>2020-07-11T07:30:48.591Z</time>
      </trkpt>
      <trkpt lat="44.06473" lon="5.31362">
        <ele>584</ele>
        <time>2020-07-11T07:30:49.591Z</time>
      </trkpt>
      <trkpt lat="44.06469" lon="5.31365">
        <ele>584</ele>
        <time>2020-07-11T07:30:50.591Z</time>
      </trkpt>
      <trkpt lat="44.06466" lon="5.31368">
        <ele>585</ele>
        <time>2020-07-11T07:30:51.591Z</time>
      </trkpt>
      <trkpt lat="44.06463" lon="5.31371">
        <ele>584</ele>
        <time>2020-07-11T07:30:52.591Z</time>
      </trkpt>
      <trkpt lat="44.0646" lon="5.31373">
        <ele>584</ele>
        <time>2020-07-11T07:30:53.590Z</time>
      </trkpt>
      <trkpt lat="44.06456" lon="5.31375">
        <ele>584</ele>
        <time>2020-07-11T07:30:54.591Z</time>
      </trkpt>
      <trkpt lat="44.06452" lon="5.31376">
        <ele>584</ele>
        <time>2020-07-11T07:30:55.591Z</time>
      </trkpt>
      <trkpt lat="44.06449" lon="5.31377">
        <ele>583</ele>
        <time>2020-07-11T07:30:56.591Z</time>
      </trkpt>
      <trkpt lat="44.06445" lon="5.31379">
        <ele>583</ele>
        <time>2020-07-11T07:30:57.591Z</time>
      </trkpt>
      <trkpt lat="44.06441" lon="5.3138">
        <ele>583</ele>
        <time>2020-07-11T07:30:58.590Z</time>
      </trkpt>
      <trkpt lat="44.06438" lon="5.31381">
        <ele>583</ele>
        <time>2020-07-11T07:30:59.590Z</time>
      </trkpt>
      <trkpt lat="44.06434" lon="5.31382">
        <ele>583</ele>
        <time>2020-07-11T07:31:00.591Z</time>
      </trkpt>
      <trkpt lat="44.06431" lon="5.31383">
        <ele>583</ele>
        <time>2020-07-11T07:31:01.591Z</time>
      </trkpt>
      <trkpt lat="44.06427" lon="5.31384">
        <ele>584</ele>
        <time>2020-07-11T07:31:02.590Z</time>
      </trkpt>
      <trkpt lat="44.06423" lon="5.31385">
        <ele>584</ele>
        <time>2020-07-11T07:31:03.590Z</time>
      </trkpt>
      <trkpt lat="44.06419" lon="5.31386">
        <ele>584</ele>
        <time>2020-07-11T07:31:04.591Z</time>
      </trkpt>
      <trkpt lat="44.06415" lon="5.31388">
        <ele>585</ele>
        <time>2020-07-11T07:31:05.591Z</time>
      </trkpt>
      <trkpt lat="44.06411" lon="5.31389">
        <ele>585</ele>
        <time>2020-07-11T07:31:06.591Z</time>
      </trkpt>
      <trkpt lat="44.06408" lon="5.31391">
        <ele>585</ele>
        <time>2020-07-11T07:31:07.590Z</time>
      </trkpt>
      <trkpt lat="44.06405" lon="5.31393">
        <ele>585</ele>
        <time>2020-07-11T07:31:08.591Z</time>
      </trkpt>
      <trkpt lat="44.06402" lon="5.31395">
        <ele>586</ele>
        <time>2020-07-11T07:31:09.591Z</time>
      </trkpt>
      <trkpt lat="44.06398" lon="5.31397">
        <ele>586</ele>
        <time>2020-07-11T07:31:10.591Z</time>
      </trkpt>
      <trkpt lat="44.06395" lon="5.31398">
        <ele>586</ele>
        <time>2020-07-11T07:31:11.590Z</time>
      </trkpt>
      <trkpt lat="44.06393" lon="5.314">
        <ele>586</ele>
        <time>2020-07-11T07:31:12.590Z</time>
      </trkpt>
      <trkpt lat="44.0639" lon="5.31401">
        <ele>586</ele>
        <time>2020-07-11T07:31:13.591Z</time>
      </trkpt>
      <trkpt lat="44.06388" lon="5.31403">
        <ele>586</ele>
        <time>2020-07-11T07:31:14.591Z</time>
      </trkpt>
      <trkpt lat="44.06385" lon="5.31404">
        <ele>586</ele>
        <time>2020-07-11T07:31:15.590Z</time>
      </trkpt>
      <trkpt lat="44.06383" lon="5.31406">
        <ele>586</ele>
        <time>2020-07-11T07:31:16.590Z</time>
      </trkpt>
      <trkpt lat="44.06381" lon="5.31409">
        <ele>586</ele>
        <time>2020-07-11T07:31:17.590Z</time>
      </trkpt>
      <trkpt lat="44.06379" lon="5.31411">
        <ele>587</ele>
        <time>2020-07-11T07:31:18.590Z</time>
      </trkpt>
      <trkpt lat="44.06377" lon="5.31414">
        <ele>587</ele>
        <time>2020-07-11T07:31:19.591Z</time>
      </trkpt>
      <trkpt lat="44.06375" lon="5.31416">
        <ele>587</ele>
        <time>2020-07-11T07:31:20.591Z</time>
      </trkpt>
      <trkpt lat="44.06372" lon="5.31418">
        <ele>587</ele>
        <time>2020-07-11T07:31:21.590Z</time>
      </trkpt>
      <trkpt lat="44.0637" lon="5.31419">
        <ele>587</ele>
        <time>2020-07-11T07:31:22.591Z</time>
      </trkpt>
      <trkpt lat="44.06368" lon="5.31422">
        <ele>587</ele>
        <time>2020-07-11T07:31:23.590Z</time>
      </trkpt>
      <trkpt lat="44.06365" lon="5.31424">
        <ele>588</ele>
        <time>2020-07-11T07:31:24.590Z</time>
      </trkpt>
      <trkpt lat="44.06363" lon="5.31427">
        <ele>588</ele>
        <time>2020-07-11T07:31:25.591Z</time>
      </trkpt>
      <trkpt lat="44.0636" lon="5.31429">
        <ele>588</ele>
        <time>2020-07-11T07:31:26.591Z</time>
      </trkpt>
      <trkpt lat="44.0636" lon="5.3143">
        <ele>588</ele>
        <time>2020-07-11T07:31:27.591Z</time>
      </trkpt>
      <trkpt lat="44.06361" lon="5.31431">
        <ele>588</ele>
        <time>2020-07-11T07:31:28.591Z</time>
      </trkpt>
      <trkpt lat="44.06361" lon="5.31434">
        <ele>588</ele>
        <time>2020-07-11T07:31:29.591Z</time>
      </trkpt>
      <trkpt lat="44.0636" lon="5.31438">
        <ele>587</ele>
        <time>2020-07-11T07:31:30.591Z</time>
      </trkpt>
      <trkpt lat="44.06358" lon="5.31443">
        <ele>587</ele>
        <time>2020-07-11T07:31:31.590Z</time>
      </trkpt>
      <trkpt lat="44.06357" lon="5.31448">
        <ele>586</ele>
        <time>2020-07-11T07:31:32.591Z</time>
      </trkpt>
      <trkpt lat="44.06356" lon="5.31453">
        <ele>585</ele>
        <time>2020-07-11T07:31:33.590Z</time>
      </trkpt>
      <trkpt lat="44.06356" lon="5.31459">
        <ele>584</ele>
        <time>2020-07-11T07:31:34.590Z</time>
      </trkpt>
      <trkpt lat="44.06356" lon="5.31463">
        <ele>583</ele>
        <time>2020-07-11T07:31:35.591Z</time>
      </trkpt>
      <trkpt lat="44.06356" lon="5.31469">
        <ele>583</ele>
        <time>2020-07-11T07:31:36.591Z</time>
      </trkpt>
      <trkpt lat="44.06356" lon="5.31474">
        <ele>583</ele>
        <time>2020-07-11T07:31:37.590Z</time>
      </trkpt>
      <trkpt lat="44.06357" lon="5.31477">
        <ele>583</ele>
        <time>2020-07-11T07:31:38.590Z</time>
      </trkpt>
      <trkpt lat="44.06358" lon="5.31481">
        <ele>583</ele>
        <time>2020-07-11T07:31:39.590Z</time>
      </trkpt>
      <trkpt lat="44.0636" lon="5.31486">
        <ele>583</ele>
        <time>2020-07-11T07:31:40.591Z</time>
      </trkpt>
      <trkpt lat="44.06362" lon="5.3149">
        <ele>583</ele>
        <time>2020-07-11T07:31:41.590Z</time>
      </trkpt>
      <trkpt lat="44.06364" lon="5.31495">
        <ele>584</ele>
        <time>2020-07-11T07:31:42.591Z</time>
      </trkpt>
      <trkpt lat="44.06366" lon="5.31498">
        <ele>584</ele>
        <time>2020-07-11T07:31:43.591Z</time>
      </trkpt>
      <trkpt lat="44.06369" lon="5.31502">
        <ele>584</ele>
        <time>2020-07-11T07:31:44.591Z</time>
      </trkpt>
      <trkpt lat="44.06372" lon="5.31507">
        <ele>585</ele>
        <time>2020-07-11T07:31:45.591Z</time>
      </trkpt>
      <trkpt lat="44.06374" lon="5.3151">
        <ele>585</ele>
        <time>2020-07-11T07:31:46.591Z</time>
      </trkpt>
      <trkpt lat="44.06377" lon="5.31513">
        <ele>585</ele>
        <time>2020-07-11T07:31:47.591Z</time>
      </trkpt>
      <trkpt lat="44.06379" lon="5.31516">
        <ele>585</ele>
        <time>2020-07-11T07:31:48.591Z</time>
      </trkpt>
      <trkpt lat="44.06383" lon="5.31519">
        <ele>585</ele>
        <time>2020-07-11T07:31:49.590Z</time>
      </trkpt>
      <trkpt lat="44.06385" lon="5.31522">
        <ele>585</ele>
        <time>2020-07-11T07:31:50.591Z</time>
      </trkpt>
      <trkpt lat="44.06388" lon="5.31525">
        <ele>585</ele>
        <time>2020-07-11T07:31:51.591Z</time>
      </trkpt>
      <trkpt lat="44.0639" lon="5.31528">
        <ele>585</ele>
        <time>2020-07-11T07:31:52.590Z</time>
      </trkpt>
      <trkpt lat="44.06393" lon="5.3153">
        <ele>584</ele>
        <time>2020-07-11T07:31:53.590Z</time>
      </trkpt>
      <trkpt lat="44.06396" lon="5.31533">
        <ele>584</ele>
        <time>2020-07-11T07:31:54.591Z</time>
      </trkpt>
      <trkpt lat="44.06398" lon="5.31535">
        <ele>584</ele>
        <time>2020-07-11T07:31:55.591Z</time>
      </trkpt>
      <trkpt lat="44.06401" lon="5.31537">
        <ele>583</ele>
        <time>2020-07-11T07:31:56.591Z</time>
      </trkpt>
      <trkpt lat="44.06404" lon="5.31539">
        <ele>583</ele>
        <time>2020-07-11T07:31:57.591Z</time>
      </trkpt>
      <trkpt lat="44.06407" lon="5.3154">
        <ele>583</ele>
        <time>2020-07-11T07:31:58.591Z</time>
      </trkpt>
      <trkpt lat="44.06411" lon="5.31541">
        <ele>582</ele>
        <time>2020-07-11T07:31:59.591Z</time>
      </trkpt>
      <trkpt lat="44.06414" lon="5.31541">
        <ele>582</ele>
        <time>2020-07-11T07:32:00.591Z</time>
      </trkpt>
      <trkpt lat="44.06417" lon="5.31541">
        <ele>582</ele>
        <time>2020-07-11T07:32:01.591Z</time>
      </trkpt>
      <trkpt lat="44.0642" lon="5.3154">
        <ele>582</ele>
        <time>2020-07-11T07:32:02.591Z</time>
      </trkpt>
      <trkpt lat="44.06423" lon="5.31539">
        <ele>581</ele>
        <time>2020-07-11T07:32:03.591Z</time>
      </trkpt>
      <trkpt lat="44.06425" lon="5.31538">
        <ele>581</ele>
        <time>2020-07-11T07:32:04.591Z</time>
      </trkpt>
      <trkpt lat="44.06428" lon="5.31536">
        <ele>582</ele>
        <time>2020-07-11T07:32:05.591Z</time>
      </trkpt>
      <trkpt lat="44.0643" lon="5.31534">
        <ele>582</ele>
        <time>2020-07-11T07:32:06.591Z</time>
      </trkpt>
      <trkpt lat="44.06433" lon="5.31532">
        <ele>582</ele>
        <time>2020-07-11T07:32:07.591Z</time>
      </trkpt>
      <trkpt lat="44.06435" lon="5.31531">
        <ele>582</ele>
        <time>2020-07-11T07:32:08.591Z</time>
      </trkpt>
      <trkpt lat="44.06438" lon="5.31529">
        <ele>582</ele>
        <time>2020-07-11T07:32:09.591Z</time>
      </trkpt>
      <trkpt lat="44.06441" lon="5.31527">
        <ele>582</ele>
        <time>2020-07-11T07:32:10.591Z</time>
      </trkpt>
      <trkpt lat="44.06443" lon="5.31525">
        <ele>583</ele>
        <time>2020-07-11T07:32:11.591Z</time>
      </trkpt>
      <trkpt lat="44.06446" lon="5.31523">
        <ele>583</ele>
        <time>2020-07-11T07:32:12.590Z</time>
      </trkpt>
      <trkpt lat="44.06448" lon="5.31521">
        <ele>583</ele>
        <time>2020-07-11T07:32:13.591Z</time>
      </trkpt>
      <trkpt lat="44.06452" lon="5.31519">
        <ele>584</ele>
        <time>2020-07-11T07:32:14.591Z</time>
      </trkpt>
      <trkpt lat="44.06454" lon="5.31517">
        <ele>584</ele>
        <time>2020-07-11T07:32:15.590Z</time>
      </trkpt>
      <trkpt lat="44.06457" lon="5.31516">
        <ele>584</ele>
        <time>2020-07-11T07:32:16.591Z</time>
      </trkpt>
      <trkpt lat="44.06461" lon="5.31514">
        <ele>585</ele>
        <time>2020-07-11T07:32:17.591Z</time>
      </trkpt>
      <trkpt lat="44.06464" lon="5.31512">
        <ele>586</ele>
        <time>2020-07-11T07:32:18.590Z</time>
      </trkpt>
      <trkpt lat="44.06468" lon="5.31511">
        <ele>586</ele>
        <time>2020-07-11T07:32:19.591Z</time>
      </trkpt>
      <trkpt lat="44.06471" lon="5.3151">
        <ele>587</ele>
        <time>2020-07-11T07:32:20.591Z</time>
      </trkpt>
      <trkpt lat="44.06475" lon="5.31509">
        <ele>587</ele>
        <time>2020-07-11T07:32:21.591Z</time>
      </trkpt>
      <trkpt lat="44.06478" lon="5.31509">
        <ele>588</ele>
        <time>2020-07-11T07:32:22.591Z</time>
      </trkpt>
      <trkpt lat="44.06482" lon="5.31509">
        <ele>588</ele>
        <time>2020-07-11T07:32:23.591Z</time>
      </trkpt>
      <trkpt lat="44.06485" lon="5.3151">
        <ele>588</ele>
        <time>2020-07-11T07:32:24.591Z</time>
      </trkpt>
      <trkpt lat="44.06489" lon="5.31511">
        <ele>589</ele>
        <time>2020-07-11T07:32:25.591Z</time>
      </trkpt>
      <trkpt lat="44.06493" lon="5.31511">
        <ele>589</ele>
        <time>2020-07-11T07:32:26.591Z</time>
      </trkpt>
      <trkpt lat="44.06497" lon="5.31512">
        <ele>589</ele>
        <time>2020-07-11T07:32:27.591Z</time>
      </trkpt>
      <trkpt lat="44.065" lon="5.31512">
        <ele>589</ele>
        <time>2020-07-11T07:32:28.590Z</time>
      </trkpt>
      <trkpt lat="44.06504" lon="5.31513">
        <ele>589</ele>
        <time>2020-07-11T07:32:29.591Z</time>
      </trkpt>
      <trkpt lat="44.06508" lon="5.31513">
        <ele>589</ele>
        <time>2020-07-11T07:32:30.591Z</time>
      </trkpt>
      <trkpt lat="44.06511" lon="5.31514">
        <ele>589</ele>
        <time>2020-07-11T07:32:31.591Z</time>
      </trkpt>
      <trkpt lat="44.06515" lon="5.31513">
        <ele>589</ele>
        <time>2020-07-11T07:32:32.591Z</time>
      </trkpt>
      <trkpt lat="44.06519" lon="5.31513">
        <ele>590</ele>
        <time>2020-07-11T07:32:33.590Z</time>
      </trkpt>
      <trkpt lat="44.06523" lon="5.31514">
        <ele>590</ele>
        <time>2020-07-11T07:32:34.591Z</time>
      </trkpt>
      <trkpt lat="44.06526" lon="5.31514">
        <ele>591</ele>
        <time>2020-07-11T07:32:35.591Z</time>
      </trkpt>
      <trkpt lat="44.0653" lon="5.31514">
        <ele>591</ele>
        <time>2020-07-11T07:32:36.591Z</time>
      </trkpt>
      <trkpt lat="44.06534" lon="5.31514">
        <ele>591</ele>
        <time>2020-07-11T07:32:37.591Z</time>
      </trkpt>
      <trkpt lat="44.06538" lon="5.31513">
        <ele>592</ele>
        <time>2020-07-11T07:32:38.590Z</time>
      </trkpt>
      <trkpt lat="44.06541" lon="5.31512">
        <ele>592</ele>
        <time>2020-07-11T07:32:39.591Z</time>
      </trkpt>
      <trkpt lat="44.06545" lon="5.31511">
        <ele>592</ele>
        <time>2020-07-11T07:32:40.591Z</time>
      </trkpt>
      <trkpt lat="44.06548" lon="5.31509">
        <ele>592</ele>
        <time>2020-07-11T07:32:41.591Z</time>
      </trkpt>
      <trkpt lat="44.06551" lon="5.31507">
        <ele>593</ele>
        <time>2020-07-11T07:32:42.591Z</time>
      </trkpt>
      <trkpt lat="44.06554" lon="5.31504">
        <ele>593</ele>
        <time>2020-07-11T07:32:43.591Z</time>
      </trkpt>
      <trkpt lat="44.06556" lon="5.31502">
        <ele>593</ele>
        <time>2020-07-11T07:32:44.591Z</time>
      </trkpt>
      <trkpt lat="44.0656" lon="5.31499">
        <ele>593</ele>
        <time>2020-07-11T07:32:45.591Z</time>
      </trkpt>
      <trkpt lat="44.06562" lon="5.31495">
        <ele>593</ele>
        <time>2020-07-11T07:32:46.590Z</time>
      </trkpt>
      <trkpt lat="44.06565" lon="5.31492">
        <ele>594</ele>
        <time>2020-07-11T07:32:47.590Z</time>
      </trkpt>
      <trkpt lat="44.06567" lon="5.31488">
        <ele>593</ele>
        <time>2020-07-11T07:32:48.591Z</time>
      </trkpt>
      <trkpt lat="44.06569" lon="5.31485">
        <ele>594</ele>
        <time>2020-07-11T07:32:49.591Z</time>
      </trkpt>
      <trkpt lat="44.06572" lon="5.31481">
        <ele>594</ele>
        <time>2020-07-11T07:32:50.590Z</time>
      </trkpt>
      <trkpt lat="44.06574" lon="5.31479">
        <ele>595</ele>
        <time>2020-07-11T07:32:51.591Z</time>
      </trkpt>
      <trkpt lat="44.06577" lon="5.31475">
        <ele>595</ele>
        <time>2020-07-11T07:32:52.590Z</time>
      </trkpt>
      <trkpt lat="44.0658" lon="5.31472">
        <ele>595</ele>
        <time>2020-07-11T07:32:53.591Z</time>
      </trkpt>
      <trkpt lat="44.06583" lon="5.3147">
        <ele>595</ele>
        <time>2020-07-11T07:32:54.591Z</time>
      </trkpt>
      <trkpt lat="44.06586" lon="5.31467">
        <ele>595</ele>
        <time>2020-07-11T07:32:55.591Z</time>
      </trkpt>
      <trkpt lat="44.06589" lon="5.31466">
        <ele>595</ele>
        <time>2020-07-11T07:32:56.591Z</time>
      </trkpt>
      <trkpt lat="44.06593" lon="5.31464">
        <ele>595</ele>
        <time>2020-07-11T07:32:57.591Z</time>
      </trkpt>
      <trkpt lat="44.06597" lon="5.31464">
        <ele>595</ele>
        <time>2020-07-11T07:32:58.590Z</time>
      </trkpt>
      <trkpt lat="44.066" lon="5.31463">
        <ele>595</ele>
        <time>2020-07-11T07:32:59.590Z</time>
      </trkpt>
      <trkpt lat="44.06604" lon="5.31463">
        <ele>595</ele>
        <time>2020-07-11T07:33:00.590Z</time>
      </trkpt>
      <trkpt lat="44.06608" lon="5.31463">
        <ele>595</ele>
        <time>2020-07-11T07:33:01.590Z</time>
      </trkpt>
      <trkpt lat="44.06612" lon="5.31463">
        <ele>595</ele>
        <time>2020-07-11T07:33:02.591Z</time>
      </trkpt>
      <trkpt lat="44.06615" lon="5.31464">
        <ele>594</ele>
        <time>2020-07-11T07:33:03.591Z</time>
      </trkpt>
      <trkpt lat="44.06619" lon="5.31464">
        <ele>594</ele>
        <time>2020-07-11T07:33:04.590Z</time>
      </trkpt>
      <trkpt lat="44.06622" lon="5.31465">
        <ele>594</ele>
        <time>2020-07-11T07:33:05.591Z</time>
      </trkpt>
      <trkpt lat="44.06626" lon="5.31466">
        <ele>593</ele>
        <time>2020-07-11T07:33:06.591Z</time>
      </trkpt>
      <trkpt lat="44.06629" lon="5.31468">
        <ele>593</ele>
        <time>2020-07-11T07:33:07.591Z</time>
      </trkpt>
      <trkpt lat="44.06633" lon="5.3147">
        <ele>593</ele>
        <time>2020-07-11T07:33:08.591Z</time>
      </trkpt>
      <trkpt lat="44.06636" lon="5.31474">
        <ele>593</ele>
        <time>2020-07-11T07:33:09.591Z</time>
      </trkpt>
      <trkpt lat="44.06638" lon="5.31477">
        <ele>594</ele>
        <time>2020-07-11T07:33:10.590Z</time>
      </trkpt>
      <trkpt lat="44.06641" lon="5.31482">
        <ele>594</ele>
        <time>2020-07-11T07:33:11.591Z</time>
      </trkpt>
      <trkpt lat="44.06643" lon="5.31485">
        <ele>595</ele>
        <time>2020-07-11T07:33:12.591Z</time>
      </trkpt>
      <trkpt lat="44.06645" lon="5.31489">
        <ele>594</ele>
        <time>2020-07-11T07:33:13.591Z</time>
      </trkpt>
      <trkpt lat="44.06647" lon="5.31493">
        <ele>594</ele>
        <time>2020-07-11T07:33:14.590Z</time>
      </trkpt>
      <trkpt lat="44.0665" lon="5.31496">
        <ele>594</ele>
        <time>2020-07-11T07:33:15.591Z</time>
      </trkpt>
      <trkpt lat="44.06652" lon="5.315">
        <ele>593</ele>
        <time>2020-07-11T07:33:16.590Z</time>
      </trkpt>
      <trkpt lat="44.06654" lon="5.31503">
        <ele>593</ele>
        <time>2020-07-11T07:33:17.591Z</time>
      </trkpt>
      <trkpt lat="44.06657" lon="5.31507">
        <ele>593</ele>
        <time>2020-07-11T07:33:18.591Z</time>
      </trkpt>
      <trkpt lat="44.0666" lon="5.3151">
        <ele>592</ele>
        <time>2020-07-11T07:33:19.591Z</time>
      </trkpt>
      <trkpt lat="44.06664" lon="5.31511">
        <ele>592</ele>
        <time>2020-07-11T07:33:20.591Z</time>
      </trkpt>
      <trkpt lat="44.06667" lon="5.31512">
        <ele>593</ele>
        <time>2020-07-11T07:33:21.591Z</time>
      </trkpt>
      <trkpt lat="44.06671" lon="5.31512">
        <ele>593</ele>
        <time>2020-07-11T07:33:22.591Z</time>
      </trkpt>
      <trkpt lat="44.06675" lon="5.31512">
        <ele>593</ele>
        <time>2020-07-11T07:33:23.590Z</time>
      </trkpt>
      <trkpt lat="44.06678" lon="5.31512">
        <ele>594</ele>
        <time>2020-07-11T07:33:24.591Z</time>
      </trkpt>
      <trkpt lat="44.06682" lon="5.31512">
        <ele>594</ele>
        <time>2020-07-11T07:33:25.591Z</time>
      </trkpt>
      <trkpt lat="44.06686" lon="5.31512">
        <ele>595</ele>
        <time>2020-07-11T07:33:26.591Z</time>
      </trkpt>
      <trkpt lat="44.06689" lon="5.31515">
        <ele>595</ele>
        <time>2020-07-11T07:33:27.591Z</time>
      </trkpt>
      <trkpt lat="44.06692" lon="5.31517">
        <ele>596</ele>
        <time>2020-07-11T07:33:28.591Z</time>
      </trkpt>
      <trkpt lat="44.06695" lon="5.31519">
        <ele>596</ele>
        <time>2020-07-11T07:33:29.591Z</time>
      </trkpt>
      <trkpt lat="44.06698" lon="5.31522">
        <ele>596</ele>
        <time>2020-07-11T07:33:30.591Z</time>
      </trkpt>
      <trkpt lat="44.06701" lon="5.31525">
        <ele>597</ele>
        <time>2020-07-11T07:33:31.591Z</time>
      </trkpt>
      <trkpt lat="44.06704" lon="5.31529">
        <ele>597</ele>
        <time>2020-07-11T07:33:32.590Z</time>
      </trkpt>
      <trkpt lat="44.06707" lon="5.31532">
        <ele>597</ele>
        <time>2020-07-11T07:33:33.590Z</time>
      </trkpt>
      <trkpt lat="44.06709" lon="5.31536">
        <ele>597</ele>
        <time>2020-07-11T07:33:34.591Z</time>
      </trkpt>
      <trkpt lat="44.06712" lon="5.31539">
        <ele>597</ele>
        <time>2020-07-11T07:33:35.591Z</time>
      </trkpt>
      <trkpt lat="44.06715" lon="5.31543">
        <ele>597</ele>
        <time>2020-07-11T07:33:36.590Z</time>
      </trkpt>
      <trkpt lat="44.06717" lon="5.31547">
        <ele>596</ele>
        <time>2020-07-11T07:33:37.591Z</time>
      </trkpt>
      <trkpt lat="44.0672" lon="5.31551">
        <ele>596</ele>
        <time>2020-07-11T07:33:38.591Z</time>
      </trkpt>
      <trkpt lat="44.06722" lon="5.31555">
        <ele>596</ele>
        <time>2020-07-11T07:33:39.591Z</time>
      </trkpt>
      <trkpt lat="44.06724" lon="5.31559">
        <ele>597</ele>
        <time>2020-07-11T07:33:40.591Z</time>
      </trkpt>
      <trkpt lat="44.06726" lon="5.31562">
        <ele>597</ele>
        <time>2020-07-11T07:33:41.591Z</time>
      </trkpt>
      <trkpt lat="44.06728" lon="5.31567">
        <ele>597</ele>
        <time>2020-07-11T07:33:42.591Z</time>
      </trkpt>
      <trkpt lat="44.0673" lon="5.31571">
        <ele>598</ele>
        <time>2020-07-11T07:33:43.591Z</time>
      </trkpt>
      <trkpt lat="44.06731" lon="5.31576">
        <ele>598</ele>
        <time>2020-07-11T07:33:44.591Z</time>
      </trkpt>
      <trkpt lat="44.06732" lon="5.31581">
        <ele>598</ele>
        <time>2020-07-11T07:33:45.590Z</time>
      </trkpt>
      <trkpt lat="44.06733" lon="5.31586">
        <ele>598</ele>
        <time>2020-07-11T07:33:46.591Z</time>
      </trkpt>
      <trkpt lat="44.06733" lon="5.31591">
        <ele>599</ele>
        <time>2020-07-11T07:33:47.591Z</time>
      </trkpt>
      <trkpt lat="44.06734" lon="5.31597">
        <ele>599</ele>
        <time>2020-07-11T07:33:48.591Z</time>
      </trkpt>
      <trkpt lat="44.06735" lon="5.31602">
        <ele>599</ele>
        <time>2020-07-11T07:33:49.591Z</time>
      </trkpt>
      <trkpt lat="44.06736" lon="5.31606">
        <ele>600</ele>
        <time>2020-07-11T07:33:50.591Z</time>
      </trkpt>
      <trkpt lat="44.06738" lon="5.31611">
        <ele>600</ele>
        <time>2020-07-11T07:33:51.591Z</time>
      </trkpt>
      <trkpt lat="44.0674" lon="5.31615">
        <ele>600</ele>
        <time>2020-07-11T07:33:52.591Z</time>
      </trkpt>
      <trkpt lat="44.06742" lon="5.31619">
        <ele>601</ele>
        <time>2020-07-11T07:33:53.591Z</time>
      </trkpt>
      <trkpt lat="44.06745" lon="5.31623">
        <ele>600</ele>
        <time>2020-07-11T07:33:54.591Z</time>
      </trkpt>
      <trkpt lat="44.06747" lon="5.31627">
        <ele>600</ele>
        <time>2020-07-11T07:33:55.591Z</time>
      </trkpt>
      <trkpt lat="44.06749" lon="5.31631">
        <ele>600</ele>
        <time>2020-07-11T07:33:56.591Z</time>
      </trkpt>
      <trkpt lat="44.06751" lon="5.31635">
        <ele>600</ele>
        <time>2020-07-11T07:33:57.591Z</time>
      </trkpt>
      <trkpt lat="44.06753" lon="5.31639">
        <ele>600</ele>
        <time>2020-07-11T07:33:58.591Z</time>
      </trkpt>
      <trkpt lat="44.06754" lon="5.31643">
        <ele>599</ele>
        <time>2020-07-11T07:33:59.590Z</time>
      </trkpt>
      <trkpt lat="44.06755" lon="5.31648">
        <ele>599</ele>
        <time>2020-07-11T07:34:00.591Z</time>
      </trkpt>
      <trkpt lat="44.06755" lon="5.31652">
        <ele>599</ele>
        <time>2020-07-11T07:34:01.591Z</time>
      </trkpt>
      <trkpt lat="44.06756" lon="5.31656">
        <ele>599</ele>
        <time>2020-07-11T07:34:02.591Z</time>
      </trkpt>
      <trkpt lat="44.06756" lon="5.31661">
        <ele>598</ele>
        <time>2020-07-11T07:34:03.591Z</time>
      </trkpt>
      <trkpt lat="44.06756" lon="5.31666">
        <ele>598</ele>
        <time>2020-07-11T07:34:04.591Z</time>
      </trkpt>
      <trkpt lat="44.06756" lon="5.31672">
        <ele>597</ele>
        <time>2020-07-11T07:34:05.591Z</time>
      </trkpt>
      <trkpt lat="44.06756" lon="5.31678">
        <ele>597</ele>
        <time>2020-07-11T07:34:06.590Z</time>
      </trkpt>
      <trkpt lat="44.06756" lon="5.31683">
        <ele>597</ele>
        <time>2020-07-11T07:34:07.590Z</time>
      </trkpt>
      <trkpt lat="44.06755" lon="5.31689">
        <ele>597</ele>
        <time>2020-07-11T07:34:08.590Z</time>
      </trkpt>
      <trkpt lat="44.06753" lon="5.31694">
        <ele>597</ele>
        <time>2020-07-11T07:34:09.591Z</time>
      </trkpt>
      <trkpt lat="44.06752" lon="5.31699">
        <ele>598</ele>
        <time>2020-07-11T07:34:10.591Z</time>
      </trkpt>
      <trkpt lat="44.0675" lon="5.31705">
        <ele>598</ele>
        <time>2020-07-11T07:34:11.591Z</time>
      </trkpt>
      <trkpt lat="44.06749" lon="5.3171">
        <ele>598</ele>
        <time>2020-07-11T07:34:12.590Z</time>
      </trkpt>
      <trkpt lat="44.06747" lon="5.31715">
        <ele>599</ele>
        <time>2020-07-11T07:34:13.591Z</time>
      </trkpt>
      <trkpt lat="44.06746" lon="5.3172">
        <ele>599</ele>
        <time>2020-07-11T07:34:14.591Z</time>
      </trkpt>
      <trkpt lat="44.06745" lon="5.31725">
        <ele>600</ele>
        <time>2020-07-11T07:34:15.591Z</time>
      </trkpt>
      <trkpt lat="44.06744" lon="5.3173">
        <ele>600</ele>
        <time>2020-07-11T07:34:16.591Z</time>
      </trkpt>
      <trkpt lat="44.06744" lon="5.31736">
        <ele>601</ele>
        <time>2020-07-11T07:34:17.591Z</time>
      </trkpt>
      <trkpt lat="44.06743" lon="5.31741">
        <ele>601</ele>
        <time>2020-07-11T07:34:18.591Z</time>
      </trkpt>
      <trkpt lat="44.06743" lon="5.31747">
        <ele>602</ele>
        <time>2020-07-11T07:34:19.591Z</time>
      </trkpt>
      <trkpt lat="44.06742" lon="5.31752">
        <ele>603</ele>
        <time>2020-07-11T07:34:20.591Z</time>
      </trkpt>
      <trkpt lat="44.06742" lon="5.31758">
        <ele>603</ele>
        <time>2020-07-11T07:34:21.591Z</time>
      </trkpt>
      <trkpt lat="44.06741" lon="5.31763">
        <ele>602</ele>
        <time>2020-07-11T07:34:22.591Z</time>
      </trkpt>
      <trkpt lat="44.0674" lon="5.31769">
        <ele>603</ele>
        <time>2020-07-11T07:34:23.591Z</time>
      </trkpt>
      <trkpt lat="44.06739" lon="5.31774">
        <ele>603</ele>
        <time>2020-07-11T07:34:24.591Z</time>
      </trkpt>
      <trkpt lat="44.06738" lon="5.3178">
        <ele>603</ele>
        <time>2020-07-11T07:34:25.590Z</time>
      </trkpt>
      <trkpt lat="44.06737" lon="5.31785">
        <ele>603</ele>
        <time>2020-07-11T07:34:26.590Z</time>
      </trkpt>
      <trkpt lat="44.06735" lon="5.3179">
        <ele>603</ele>
        <time>2020-07-11T07:34:27.590Z</time>
      </trkpt>
      <trkpt lat="44.06734" lon="5.31795">
        <ele>604</ele>
        <time>2020-07-11T07:34:28.591Z</time>
      </trkpt>
      <trkpt lat="44.06733" lon="5.318">
        <ele>604</ele>
        <time>2020-07-11T07:34:29.591Z</time>
      </trkpt>
      <trkpt lat="44.06731" lon="5.31805">
        <ele>605</ele>
        <time>2020-07-11T07:34:30.591Z</time>
      </trkpt>
      <trkpt lat="44.0673" lon="5.3181">
        <ele>606</ele>
        <time>2020-07-11T07:34:31.591Z</time>
      </trkpt>
      <trkpt lat="44.06728" lon="5.31815">
        <ele>606</ele>
        <time>2020-07-11T07:34:32.591Z</time>
      </trkpt>
      <trkpt lat="44.06726" lon="5.31819">
        <ele>607</ele>
        <time>2020-07-11T07:34:33.591Z</time>
      </trkpt>
      <trkpt lat="44.06725" lon="5.31824">
        <ele>606</ele>
        <time>2020-07-11T07:34:34.591Z</time>
      </trkpt>
      <trkpt lat="44.06723" lon="5.31829">
        <ele>606</ele>
        <time>2020-07-11T07:34:35.590Z</time>
      </trkpt>
      <trkpt lat="44.06721" lon="5.31833">
        <ele>606</ele>
        <time>2020-07-11T07:34:36.591Z</time>
      </trkpt>
      <trkpt lat="44.0672" lon="5.31838">
        <ele>606</ele>
        <time>2020-07-11T07:34:37.590Z</time>
      </trkpt>
      <trkpt lat="44.06719" lon="5.31843">
        <ele>606</ele>
        <time>2020-07-11T07:34:38.591Z</time>
      </trkpt>
      <trkpt lat="44.06718" lon="5.31847">
        <ele>605</ele>
        <time>2020-07-11T07:34:39.590Z</time>
      </trkpt>
      <trkpt lat="44.06717" lon="5.31851">
        <ele>605</ele>
        <time>2020-07-11T07:34:40.591Z</time>
      </trkpt>
      <trkpt lat="44.06717" lon="5.31856">
        <ele>604</ele>
        <time>2020-07-11T07:34:41.591Z</time>
      </trkpt>
      <trkpt lat="44.06716" lon="5.31861">
        <ele>604</ele>
        <time>2020-07-11T07:34:42.591Z</time>
      </trkpt>
      <trkpt lat="44.06716" lon="5.31866">
        <ele>604</ele>
        <time>2020-07-11T07:34:43.591Z</time>
      </trkpt>
      <trkpt lat="44.06716" lon="5.31871">
        <ele>603</ele>
        <time>2020-07-11T07:34:44.591Z</time>
      </trkpt>
      <trkpt lat="44.06716" lon="5.31876">
        <ele>603</ele>
        <time>2020-07-11T07:34:45.591Z</time>
      </trkpt>
      <trkpt lat="44.06716" lon="5.31881">
        <ele>603</ele>
        <time>2020-07-11T07:34:46.590Z</time>
      </trkpt>
      <trkpt lat="44.06716" lon="5.31886">
        <ele>603</ele>
        <time>2020-07-11T07:34:47.591Z</time>
      </trkpt>
      <trkpt lat="44.06717" lon="5.31891">
        <ele>603</ele>
        <time>2020-07-11T07:34:48.591Z</time>
      </trkpt>
      <trkpt lat="44.06717" lon="5.31896">
        <ele>603</ele>
        <time>2020-07-11T07:34:49.591Z</time>
      </trkpt>
      <trkpt lat="44.06717" lon="5.31901">
        <ele>604</ele>
        <time>2020-07-11T07:34:50.591Z</time>
      </trkpt>
      <trkpt lat="44.06717" lon="5.31906">
        <ele>604</ele>
        <time>2020-07-11T07:34:51.590Z</time>
      </trkpt>
      <trkpt lat="44.06717" lon="5.31911">
        <ele>605</ele>
        <time>2020-07-11T07:34:52.591Z</time>
      </trkpt>
      <trkpt lat="44.06718" lon="5.31916">
        <ele>604</ele>
        <time>2020-07-11T07:34:53.591Z</time>
      </trkpt>
      <trkpt lat="44.06718" lon="5.31922">
        <ele>604</ele>
        <time>2020-07-11T07:34:54.590Z</time>
      </trkpt>
      <trkpt lat="44.06718" lon="5.31927">
        <ele>604</ele>
        <time>2020-07-11T07:34:55.591Z</time>
      </trkpt>
      <trkpt lat="44.06718" lon="5.31932">
        <ele>604</ele>
        <time>2020-07-11T07:34:56.591Z</time>
      </trkpt>
      <trkpt lat="44.06719" lon="5.31937">
        <ele>605</ele>
        <time>2020-07-11T07:34:57.590Z</time>
      </trkpt>
      <trkpt lat="44.06719" lon="5.31942">
        <ele>605</ele>
        <time>2020-07-11T07:34:58.591Z</time>
      </trkpt>
      <trkpt lat="44.06719" lon="5.31948">
        <ele>606</ele>
        <time>2020-07-11T07:34:59.590Z</time>
      </trkpt>
      <trkpt lat="44.0672" lon="5.31953">
        <ele>606</ele>
        <time>2020-07-11T07:35:00.591Z</time>
      </trkpt>
      <trkpt lat="44.0672" lon="5.31959">
        <ele>607</ele>
        <time>2020-07-11T07:35:01.591Z</time>
      </trkpt>
      <trkpt lat="44.06721" lon="5.31964">
        <ele>607</ele>
        <time>2020-07-11T07:35:02.591Z</time>
      </trkpt>
      <trkpt lat="44.06722" lon="5.31969">
        <ele>607</ele>
        <time>2020-07-11T07:35:03.590Z</time>
      </trkpt>
      <trkpt lat="44.06723" lon="5.31973">
        <ele>607</ele>
        <time>2020-07-11T07:35:04.591Z</time>
      </trkpt>
      <trkpt lat="44.06724" lon="5.31978">
        <ele>607</ele>
        <time>2020-07-11T07:35:05.591Z</time>
      </trkpt>
      <trkpt lat="44.06725" lon="5.31983">
        <ele>607</ele>
        <time>2020-07-11T07:35:06.591Z</time>
      </trkpt>
      <trkpt lat="44.06727" lon="5.31987">
        <ele>607</ele>
        <time>2020-07-11T07:35:07.591Z</time>
      </trkpt>
      <trkpt lat="44.06728" lon="5.31992">
        <ele>607</ele>
        <time>2020-07-11T07:35:08.591Z</time>
      </trkpt>
      <trkpt lat="44.0673" lon="5.31997">
        <ele>607</ele>
        <time>2020-07-11T07:35:09.590Z</time>
      </trkpt>
      <trkpt lat="44.06731" lon="5.32002">
        <ele>607</ele>
        <time>2020-07-11T07:35:10.591Z</time>
      </trkpt>
      <trkpt lat="44.06733" lon="5.32007">
        <ele>607</ele>
        <time>2020-07-11T07:35:11.591Z</time>
      </trkpt>
      <trkpt lat="44.06735" lon="5.32012">
        <ele>608</ele>
        <time>2020-07-11T07:35:12.590Z</time>
      </trkpt>
      <trkpt lat="44.06736" lon="5.32017">
        <ele>608</ele>
        <time>2020-07-11T07:35:13.591Z</time>
      </trkpt>
      <trkpt lat="44.06738" lon="5.32022">
        <ele>608</ele>
        <time>2020-07-11T07:35:14.591Z</time>
      </trkpt>
      <trkpt lat="44.06739" lon="5.32027">
        <ele>608</ele>
        <time>2020-07-11T07:35:15.591Z</time>
      </trkpt>
      <trkpt lat="44.06741" lon="5.32032">
        <ele>608</ele>
        <time>2020-07-11T07:35:16.591Z</time>
      </trkpt>
      <trkpt lat="44.06743" lon="5.32037">
        <ele>608</ele>
        <time>2020-07-11T07:35:17.590Z</time>
      </trkpt>
      <trkpt lat="44.06744" lon="5.32042">
        <ele>608</ele>
        <time>2020-07-11T07:35:18.591Z</time>
      </trkpt>
      <trkpt lat="44.06746" lon="5.32048">
        <ele>608</ele>
        <time>2020-07-11T07:35:19.590Z</time>
      </trkpt>
      <trkpt lat="44.06748" lon="5.32053">
        <ele>608</ele>
        <time>2020-07-11T07:35:20.590Z</time>
      </trkpt>
      <trkpt lat="44.06749" lon="5.32057">
        <ele>608</ele>
        <time>2020-07-11T07:35:21.590Z</time>
      </trkpt>
      <trkpt lat="44.06751" lon="5.32062">
        <ele>608</ele>
        <time>2020-07-11T07:35:22.590Z</time>
      </trkpt>
      <trkpt lat="44.06753" lon="5.32066">
        <ele>607</ele>
        <time>2020-07-11T07:35:23.591Z</time>
      </trkpt>
      <trkpt lat="44.06756" lon="5.3207">
        <ele>607</ele>
        <time>2020-07-11T07:35:24.591Z</time>
      </trkpt>
      <trkpt lat="44.06759" lon="5.32073">
        <ele>607</ele>
        <time>2020-07-11T07:35:25.591Z</time>
      </trkpt>
      <trkpt lat="44.06762" lon="5.32076">
        <ele>607</ele>
        <time>2020-07-11T07:35:26.591Z</time>
      </trkpt>
      <trkpt lat="44.06766" lon="5.32078">
        <ele>607</ele>
        <time>2020-07-11T07:35:27.590Z</time>
      </trkpt>
      <trkpt lat="44.0677" lon="5.3208">
        <ele>607</ele>
        <time>2020-07-11T07:35:28.591Z</time>
      </trkpt>
      <trkpt lat="44.06774" lon="5.32082">
        <ele>608</ele>
        <time>2020-07-11T07:35:29.591Z</time>
      </trkpt>
      <trkpt lat="44.06778" lon="5.32083">
        <ele>608</ele>
        <time>2020-07-11T07:35:30.591Z</time>
      </trkpt>
      <trkpt lat="44.06782" lon="5.32084">
        <ele>609</ele>
        <time>2020-07-11T07:35:31.591Z</time>
      </trkpt>
      <trkpt lat="44.06787" lon="5.32085">
        <ele>609</ele>
        <time>2020-07-11T07:35:32.591Z</time>
      </trkpt>
      <trkpt lat="44.06791" lon="5.32086">
        <ele>610</ele>
        <time>2020-07-11T07:35:33.590Z</time>
      </trkpt>
      <trkpt lat="44.06795" lon="5.32087">
        <ele>610</ele>
        <time>2020-07-11T07:35:34.590Z</time>
      </trkpt>
      <trkpt lat="44.06799" lon="5.32089">
        <ele>609</ele>
        <time>2020-07-11T07:35:35.590Z</time>
      </trkpt>
      <trkpt lat="44.06803" lon="5.32091">
        <ele>609</ele>
        <time>2020-07-11T07:35:36.590Z</time>
      </trkpt>
      <trkpt lat="44.06806" lon="5.32094">
        <ele>609</ele>
        <time>2020-07-11T07:35:37.591Z</time>
      </trkpt>
      <trkpt lat="44.06809" lon="5.32098">
        <ele>608</ele>
        <time>2020-07-11T07:35:38.591Z</time>
      </trkpt>
      <trkpt lat="44.06812" lon="5.32102">
        <ele>609</ele>
        <time>2020-07-11T07:35:39.591Z</time>
      </trkpt>
      <trkpt lat="44.06813" lon="5.32108">
        <ele>609</ele>
        <time>2020-07-11T07:35:40.591Z</time>
      </trkpt>
      <trkpt lat="44.06814" lon="5.32114">
        <ele>609</ele>
        <time>2020-07-11T07:35:41.591Z</time>
      </trkpt>
      <trkpt lat="44.06815" lon="5.3212">
        <ele>610</ele>
        <time>2020-07-11T07:35:42.591Z</time>
      </trkpt>
      <trkpt lat="44.06815" lon="5.32125">
        <ele>610</ele>
        <time>2020-07-11T07:35:43.590Z</time>
      </trkpt>
      <trkpt lat="44.06814" lon="5.32131">
        <ele>610</ele>
        <time>2020-07-11T07:35:44.591Z</time>
      </trkpt>
      <trkpt lat="44.06813" lon="5.32136">
        <ele>611</ele>
        <time>2020-07-11T07:35:45.590Z</time>
      </trkpt>
      <trkpt lat="44.06812" lon="5.3214">
        <ele>611</ele>
        <time>2020-07-11T07:35:46.591Z</time>
      </trkpt>
      <trkpt lat="44.0681" lon="5.32144">
        <ele>611</ele>
        <time>2020-07-11T07:35:47.591Z</time>
      </trkpt>
      <trkpt lat="44.06808" lon="5.32147">
        <ele>611</ele>
        <time>2020-07-11T07:35:48.590Z</time>
      </trkpt>
      <trkpt lat="44.06805" lon="5.32151">
        <ele>611</ele>
        <time>2020-07-11T07:35:49.590Z</time>
      </trkpt>
      <trkpt lat="44.06801" lon="5.32155">
        <ele>611</ele>
        <time>2020-07-11T07:35:50.590Z</time>
      </trkpt>
      <trkpt lat="44.06798" lon="5.32158">
        <ele>612</ele>
        <time>2020-07-11T07:35:51.590Z</time>
      </trkpt>
      <trkpt lat="44.06794" lon="5.32161">
        <ele>612</ele>
        <time>2020-07-11T07:35:52.591Z</time>
      </trkpt>
      <trkpt lat="44.0679" lon="5.32163">
        <ele>613</ele>
        <time>2020-07-11T07:35:53.591Z</time>
      </trkpt>
      <trkpt lat="44.06786" lon="5.32165">
        <ele>613</ele>
        <time>2020-07-11T07:35:54.590Z</time>
      </trkpt>
      <trkpt lat="44.06782" lon="5.32167">
        <ele>614</ele>
        <time>2020-07-11T07:35:55.591Z</time>
      </trkpt>
      <trkpt lat="44.06778" lon="5.3217">
        <ele>614</ele>
        <time>2020-07-11T07:35:56.591Z</time>
      </trkpt>
      <trkpt lat="44.06774" lon="5.32173">
        <ele>615</ele>
        <time>2020-07-11T07:35:57.591Z</time>
      </trkpt>
      <trkpt lat="44.0677" lon="5.32175">
        <ele>616</ele>
        <time>2020-07-11T07:35:58.590Z</time>
      </trkpt>
      <trkpt lat="44.06766" lon="5.32177">
        <ele>616</ele>
        <time>2020-07-11T07:35:59.591Z</time>
      </trkpt>
      <trkpt lat="44.06762" lon="5.3218">
        <ele>617</ele>
        <time>2020-07-11T07:36:00.590Z</time>
      </trkpt>
      <trkpt lat="44.06758" lon="5.32183">
        <ele>617</ele>
        <time>2020-07-11T07:36:01.591Z</time>
      </trkpt>
      <trkpt lat="44.06754" lon="5.32185">
        <ele>618</ele>
        <time>2020-07-11T07:36:02.591Z</time>
      </trkpt>
      <trkpt lat="44.0675" lon="5.32187">
        <ele>618</ele>
        <time>2020-07-11T07:36:03.591Z</time>
      </trkpt>
      <trkpt lat="44.06747" lon="5.32188">
        <ele>619</ele>
        <time>2020-07-11T07:36:04.591Z</time>
      </trkpt>
      <trkpt lat="44.06743" lon="5.32189">
        <ele>619</ele>
        <time>2020-07-11T07:36:05.591Z</time>
      </trkpt>
      <trkpt lat="44.06739" lon="5.32191">
        <ele>619</ele>
        <time>2020-07-11T07:36:06.590Z</time>
      </trkpt>
      <trkpt lat="44.06735" lon="5.32191">
        <ele>619</ele>
        <time>2020-07-11T07:36:07.591Z</time>
      </trkpt>
      <trkpt lat="44.06731" lon="5.32192">
        <ele>619</ele>
        <time>2020-07-11T07:36:08.590Z</time>
      </trkpt>
      <trkpt lat="44.06727" lon="5.32192">
        <ele>619</ele>
        <time>2020-07-11T07:36:09.591Z</time>
      </trkpt>
      <trkpt lat="44.06723" lon="5.32192">
        <ele>619</ele>
        <time>2020-07-11T07:36:10.591Z</time>
      </trkpt>
      <trkpt lat="44.06719" lon="5.32192">
        <ele>620</ele>
        <time>2020-07-11T07:36:11.591Z</time>
      </trkpt>
      <trkpt lat="44.06715" lon="5.32192">
        <ele>620</ele>
        <time>2020-07-11T07:36:12.591Z</time>
      </trkpt>
      <trkpt lat="44.06711" lon="5.32191">
        <ele>620</ele>
        <time>2020-07-11T07:36:13.591Z</time>
      </trkpt>
      <trkpt lat="44.06708" lon="5.3219">
        <ele>620</ele>
        <time>2020-07-11T07:36:14.591Z</time>
      </trkpt>
      <trkpt lat="44.06704" lon="5.32188">
        <ele>621</ele>
        <time>2020-07-11T07:36:15.591Z</time>
      </trkpt>
      <trkpt lat="44.06699" lon="5.32187">
        <ele>622</ele>
        <time>2020-07-11T07:36:16.591Z</time>
      </trkpt>
      <trkpt lat="44.06695" lon="5.32185">
        <ele>622</ele>
        <time>2020-07-11T07:36:17.591Z</time>
      </trkpt>
      <trkpt lat="44.06691" lon="5.32183">
        <ele>622</ele>
        <time>2020-07-11T07:36:18.591Z</time>
      </trkpt>
      <trkpt lat="44.06688" lon="5.32181">
        <ele>622</ele>
        <time>2020-07-11T07:36:19.590Z</time>
      </trkpt>
      <trkpt lat="44.06684" lon="5.3218">
        <ele>622</ele>
        <time>2020-07-11T07:36:20.591Z</time>
      </trkpt>
      <trkpt lat="44.0668" lon="5.32178">
        <ele>622</ele>
        <time>2020-07-11T07:36:21.590Z</time>
      </trkpt>
      <trkpt lat="44.06676" lon="5.32175">
        <ele>622</ele>
        <time>2020-07-11T07:36:22.591Z</time>
      </trkpt>
      <trkpt lat="44.06672" lon="5.32173">
        <ele>623</ele>
        <time>2020-07-11T07:36:23.591Z</time>
      </trkpt>
      <trkpt lat="44.06669" lon="5.32171">
        <ele>623</ele>
        <time>2020-07-11T07:36:24.591Z</time>
      </trkpt>
      <trkpt lat="44.06665" lon="5.32169">
        <ele>623</ele>
        <time>2020-07-11T07:36:25.591Z</time>
      </trkpt>
      <trkpt lat="44.06661" lon="5.32168">
        <ele>623</ele>
        <time>2020-07-11T07:36:26.590Z</time>
      </trkpt>
      <trkpt lat="44.06658" lon="5.32166">
        <ele>623</ele>
        <time>2020-07-11T07:36:27.591Z</time>
      </trkpt>
      <trkpt lat="44.06654" lon="5.32165">
        <ele>624</ele>
        <time>2020-07-11T07:36:28.591Z</time>
      </trkpt>
      <trkpt lat="44.0665" lon="5.32166">
        <ele>624</ele>
        <time>2020-07-11T07:36:29.590Z</time>
      </trkpt>
      <trkpt lat="44.06647" lon="5.32166">
        <ele>624</ele>
        <time>2020-07-11T07:36:30.591Z</time>
      </trkpt>
      <trkpt lat="44.06643" lon="5.32168">
        <ele>624</ele>
        <time>2020-07-11T07:36:31.591Z</time>
      </trkpt>
      <trkpt lat="44.06639" lon="5.32171">
        <ele>624</ele>
        <time>2020-07-11T07:36:32.591Z</time>
      </trkpt>
      <trkpt lat="44.06636" lon="5.32174">
        <ele>624</ele>
        <time>2020-07-11T07:36:33.591Z</time>
      </trkpt>
      <trkpt lat="44.06633" lon="5.32177">
        <ele>624</ele>
        <time>2020-07-11T07:36:34.591Z</time>
      </trkpt>
      <trkpt lat="44.0663" lon="5.3218">
        <ele>624</ele>
        <time>2020-07-11T07:36:35.591Z</time>
      </trkpt>
      <trkpt lat="44.06627" lon="5.32184">
        <ele>624</ele>
        <time>2020-07-11T07:36:36.591Z</time>
      </trkpt>
      <trkpt lat="44.06624" lon="5.32188">
        <ele>624</ele>
        <time>2020-07-11T07:36:37.590Z</time>
      </trkpt>
      <trkpt lat="44.0662" lon="5.32192">
        <ele>624</ele>
        <time>2020-07-11T07:36:38.591Z</time>
      </trkpt>
      <trkpt lat="44.06617" lon="5.32196">
        <ele>624</ele>
        <time>2020-07-11T07:36:39.590Z</time>
      </trkpt>
      <trkpt lat="44.06614" lon="5.322">
        <ele>624</ele>
        <time>2020-07-11T07:36:40.590Z</time>
      </trkpt>
      <trkpt lat="44.06611" lon="5.32203">
        <ele>624</ele>
        <time>2020-07-11T07:36:41.590Z</time>
      </trkpt>
      <trkpt lat="44.06608" lon="5.32207">
        <ele>625</ele>
        <time>2020-07-11T07:36:42.591Z</time>
      </trkpt>
      <trkpt lat="44.06605" lon="5.32211">
        <ele>625</ele>
        <time>2020-07-11T07:36:43.591Z</time>
      </trkpt>
      <trkpt lat="44.06602" lon="5.32215">
        <ele>625</ele>
        <time>2020-07-11T07:36:44.591Z</time>
      </trkpt>
      <trkpt lat="44.06599" lon="5.32219">
        <ele>624</ele>
        <time>2020-07-11T07:36:45.590Z</time>
      </trkpt>
      <trkpt lat="44.06596" lon="5.32223">
        <ele>624</ele>
        <time>2020-07-11T07:36:46.591Z</time>
      </trkpt>
      <trkpt lat="44.06593" lon="5.32227">
        <ele>624</ele>
        <time>2020-07-11T07:36:47.591Z</time>
      </trkpt>
      <trkpt lat="44.0659" lon="5.32231">
        <ele>624</ele>
        <time>2020-07-11T07:36:48.591Z</time>
      </trkpt>
      <trkpt lat="44.06587" lon="5.32235">
        <ele>625</ele>
        <time>2020-07-11T07:36:49.591Z</time>
      </trkpt>
      <trkpt lat="44.06585" lon="5.32239">
        <ele>625</ele>
        <time>2020-07-11T07:36:50.591Z</time>
      </trkpt>
      <trkpt lat="44.06582" lon="5.32243">
        <ele>625</ele>
        <time>2020-07-11T07:36:51.591Z</time>
      </trkpt>
      <trkpt lat="44.06579" lon="5.32248">
        <ele>626</ele>
        <time>2020-07-11T07:36:52.590Z</time>
      </trkpt>
      <trkpt lat="44.06578" lon="5.32252">
        <ele>626</ele>
        <time>2020-07-11T07:36:53.590Z</time>
      </trkpt>
      <trkpt lat="44.06576" lon="5.32258">
        <ele>626</ele>
        <time>2020-07-11T07:36:54.590Z</time>
      </trkpt>
      <trkpt lat="44.06576" lon="5.32264">
        <ele>626</ele>
        <time>2020-07-11T07:36:55.590Z</time>
      </trkpt>
      <trkpt lat="44.06576" lon="5.3227">
        <ele>626</ele>
        <time>2020-07-11T07:36:56.591Z</time>
      </trkpt>
      <trkpt lat="44.06577" lon="5.32276">
        <ele>626</ele>
        <time>2020-07-11T07:36:57.591Z</time>
      </trkpt>
      <trkpt lat="44.06578" lon="5.32281">
        <ele>626</ele>
        <time>2020-07-11T07:36:58.591Z</time>
      </trkpt>
      <trkpt lat="44.06579" lon="5.32287">
        <ele>626</ele>
        <time>2020-07-11T07:36:59.590Z</time>
      </trkpt>
      <trkpt lat="44.06581" lon="5.32293">
        <ele>626</ele>
        <time>2020-07-11T07:37:00.591Z</time>
      </trkpt>
      <trkpt lat="44.06582" lon="5.32298">
        <ele>626</ele>
        <time>2020-07-11T07:37:01.590Z</time>
      </trkpt>
      <trkpt lat="44.06584" lon="5.32304">
        <ele>627</ele>
        <time>2020-07-11T07:37:02.591Z</time>
      </trkpt>
      <trkpt lat="44.06586" lon="5.32309">
        <ele>627</ele>
        <time>2020-07-11T07:37:03.591Z</time>
      </trkpt>
      <trkpt lat="44.06589" lon="5.32313">
        <ele>627</ele>
        <time>2020-07-11T07:37:04.590Z</time>
      </trkpt>
      <trkpt lat="44.06592" lon="5.32317">
        <ele>627</ele>
        <time>2020-07-11T07:37:05.591Z</time>
      </trkpt>
      <trkpt lat="44.06595" lon="5.32321">
        <ele>627</ele>
        <time>2020-07-11T07:37:06.591Z</time>
      </trkpt>
      <trkpt lat="44.06599" lon="5.32324">
        <ele>627</ele>
        <time>2020-07-11T07:37:07.591Z</time>
      </trkpt>
      <trkpt lat="44.06603" lon="5.32326">
        <ele>628</ele>
        <time>2020-07-11T07:37:08.590Z</time>
      </trkpt>
      <trkpt lat="44.06607" lon="5.32329">
        <ele>628</ele>
        <time>2020-07-11T07:37:09.591Z</time>
      </trkpt>
      <trkpt lat="44.06611" lon="5.32331">
        <ele>628</ele>
        <time>2020-07-11T07:37:10.591Z</time>
      </trkpt>
      <trkpt lat="44.06615" lon="5.32333">
        <ele>629</ele>
        <time>2020-07-11T07:37:11.591Z</time>
      </trkpt>
      <trkpt lat="44.06618" lon="5.32336">
        <ele>629</ele>
        <time>2020-07-11T07:37:12.590Z</time>
      </trkpt>
      <trkpt lat="44.06622" lon="5.3234">
        <ele>628</ele>
        <time>2020-07-11T07:37:13.590Z</time>
      </trkpt>
      <trkpt lat="44.06626" lon="5.32343">
        <ele>627</ele>
        <time>2020-07-11T07:37:14.591Z</time>
      </trkpt>
      <trkpt lat="44.06629" lon="5.32346">
        <ele>627</ele>
        <time>2020-07-11T07:37:15.590Z</time>
      </trkpt>
      <trkpt lat="44.06633" lon="5.3235">
        <ele>627</ele>
        <time>2020-07-11T07:37:16.590Z</time>
      </trkpt>
      <trkpt lat="44.06636" lon="5.32354">
        <ele>626</ele>
        <time>2020-07-11T07:37:17.591Z</time>
      </trkpt>
      <trkpt lat="44.06639" lon="5.32358">
        <ele>626</ele>
        <time>2020-07-11T07:37:18.591Z</time>
      </trkpt>
      <trkpt lat="44.06642" lon="5.32362">
        <ele>625</ele>
        <time>2020-07-11T07:37:19.591Z</time>
      </trkpt>
      <trkpt lat="44.06645" lon="5.32366">
        <ele>625</ele>
        <time>2020-07-11T07:37:20.590Z</time>
      </trkpt>
      <trkpt lat="44.06648" lon="5.32371">
        <ele>625</ele>
        <time>2020-07-11T07:37:21.591Z</time>
      </trkpt>
      <trkpt lat="44.06651" lon="5.32375">
        <ele>625</ele>
        <time>2020-07-11T07:37:22.591Z</time>
      </trkpt>
      <trkpt lat="44.06653" lon="5.3238">
        <ele>626</ele>
        <time>2020-07-11T07:37:23.591Z</time>
      </trkpt>
      <trkpt lat="44.06656" lon="5.32384">
        <ele>626</ele>
        <time>2020-07-11T07:37:24.591Z</time>
      </trkpt>
      <trkpt lat="44.06658" lon="5.32389">
        <ele>626</ele>
        <time>2020-07-11T07:37:25.591Z</time>
      </trkpt>
      <trkpt lat="44.06661" lon="5.32394">
        <ele>626</ele>
        <time>2020-07-11T07:37:26.591Z</time>
      </trkpt>
      <trkpt lat="44.06664" lon="5.32398">
        <ele>627</ele>
        <time>2020-07-11T07:37:27.591Z</time>
      </trkpt>
      <trkpt lat="44.06667" lon="5.32403">
        <ele>626</ele>
        <time>2020-07-11T07:37:28.590Z</time>
      </trkpt>
      <trkpt lat="44.0667" lon="5.32407">
        <ele>626</ele>
        <time>2020-07-11T07:37:29.591Z</time>
      </trkpt>
      <trkpt lat="44.06673" lon="5.32411">
        <ele>626</ele>
        <time>2020-07-11T07:37:30.591Z</time>
      </trkpt>
      <trkpt lat="44.06676" lon="5.32415">
        <ele>627</ele>
        <time>2020-07-11T07:37:31.591Z</time>
      </trkpt>
      <trkpt lat="44.06679" lon="5.3242">
        <ele>627</ele>
        <time>2020-07-11T07:37:32.590Z</time>
      </trkpt>
      <trkpt lat="44.06682" lon="5.32424">
        <ele>627</ele>
        <time>2020-07-11T07:37:33.591Z</time>
      </trkpt>
      <trkpt lat="44.06686" lon="5.32428">
        <ele>627</ele>
        <time>2020-07-11T07:37:34.591Z</time>
      </trkpt>
      <trkpt lat="44.06689" lon="5.32433">
        <ele>627</ele>
        <time>2020-07-11T07:37:35.591Z</time>
      </trkpt>
      <trkpt lat="44.06692" lon="5.32437">
        <ele>626</ele>
        <time>2020-07-11T07:37:36.591Z</time>
      </trkpt>
      <trkpt lat="44.06695" lon="5.32441">
        <ele>626</ele>
        <time>2020-07-11T07:37:37.591Z</time>
      </trkpt>
      <trkpt lat="44.06699" lon="5.32444">
        <ele>626</ele>
        <time>2020-07-11T07:37:38.591Z</time>
      </trkpt>
      <trkpt lat="44.06702" lon="5.32448">
        <ele>626</ele>
        <time>2020-07-11T07:37:39.590Z</time>
      </trkpt>
      <trkpt lat="44.06705" lon="5.32452">
        <ele>625</ele>
        <time>2020-07-11T07:37:40.590Z</time>
      </trkpt>
      <trkpt lat="44.06709" lon="5.32455">
        <ele>624</ele>
        <time>2020-07-11T07:37:41.590Z</time>
      </trkpt>
      <trkpt lat="44.06712" lon="5.32459">
        <ele>624</ele>
        <time>2020-07-11T07:37:42.591Z</time>
      </trkpt>
      <trkpt lat="44.06715" lon="5.32463">
        <ele>624</ele>
        <time>2020-07-11T07:37:43.591Z</time>
      </trkpt>
      <trkpt lat="44.06719" lon="5.32467">
        <ele>624</ele>
        <time>2020-07-11T07:37:44.591Z</time>
      </trkpt>
      <trkpt lat="44.06722" lon="5.32471">
        <ele>624</ele>
        <time>2020-07-11T07:37:45.591Z</time>
      </trkpt>
      <trkpt lat="44.06725" lon="5.32475">
        <ele>624</ele>
        <time>2020-07-11T07:37:46.591Z</time>
      </trkpt>
      <trkpt lat="44.06728" lon="5.32479">
        <ele>624</ele>
        <time>2020-07-11T07:37:47.591Z</time>
      </trkpt>
      <trkpt lat="44.06731" lon="5.32484">
        <ele>624</ele>
        <time>2020-07-11T07:37:48.591Z</time>
      </trkpt>
      <trkpt lat="44.06733" lon="5.32489">
        <ele>624</ele>
        <time>2020-07-11T07:37:49.591Z</time>
      </trkpt>
      <trkpt lat="44.06734" lon="5.32494">
        <ele>624</ele>
        <time>2020-07-11T07:37:50.591Z</time>
      </trkpt>
      <trkpt lat="44.06735" lon="5.32499">
        <ele>624</ele>
        <time>2020-07-11T07:37:51.591Z</time>
      </trkpt>
      <trkpt lat="44.06735" lon="5.32505">
        <ele>623</ele>
        <time>2020-07-11T07:37:52.591Z</time>
      </trkpt>
      <trkpt lat="44.06735" lon="5.3251">
        <ele>623</ele>
        <time>2020-07-11T07:37:53.591Z</time>
      </trkpt>
      <trkpt lat="44.06734" lon="5.32516">
        <ele>623</ele>
        <time>2020-07-11T07:37:54.590Z</time>
      </trkpt>
      <trkpt lat="44.06733" lon="5.32521">
        <ele>623</ele>
        <time>2020-07-11T07:37:55.591Z</time>
      </trkpt>
      <trkpt lat="44.0673" lon="5.32526">
        <ele>623</ele>
        <time>2020-07-11T07:37:56.591Z</time>
      </trkpt>
      <trkpt lat="44.06727" lon="5.32531">
        <ele>623</ele>
        <time>2020-07-11T07:37:57.591Z</time>
      </trkpt>
      <trkpt lat="44.06724" lon="5.32535">
        <ele>623</ele>
        <time>2020-07-11T07:37:58.591Z</time>
      </trkpt>
      <trkpt lat="44.0672" lon="5.32538">
        <ele>624</ele>
        <time>2020-07-11T07:37:59.590Z</time>
      </trkpt>
      <trkpt lat="44.06716" lon="5.3254">
        <ele>624</ele>
        <time>2020-07-11T07:38:00.591Z</time>
      </trkpt>
      <trkpt lat="44.06712" lon="5.32542">
        <ele>625</ele>
        <time>2020-07-11T07:38:01.590Z</time>
      </trkpt>
      <trkpt lat="44.06708" lon="5.32542">
        <ele>625</ele>
        <time>2020-07-11T07:38:02.591Z</time>
      </trkpt>
      <trkpt lat="44.06704" lon="5.32541">
        <ele>626</ele>
        <time>2020-07-11T07:38:03.591Z</time>
      </trkpt>
      <trkpt lat="44.067" lon="5.32541">
        <ele>627</ele>
        <time>2020-07-11T07:38:04.591Z</time>
      </trkpt>
      <trkpt lat="44.06696" lon="5.32539">
        <ele>627</ele>
        <time>2020-07-11T07:38:05.591Z</time>
      </trkpt>
      <trkpt lat="44.06692" lon="5.32538">
        <ele>627</ele>
        <time>2020-07-11T07:38:06.590Z</time>
      </trkpt>
      <trkpt lat="44.06688" lon="5.32536">
        <ele>628</ele>
        <time>2020-07-11T07:38:07.590Z</time>
      </trkpt>
      <trkpt lat="44.06684" lon="5.32534">
        <ele>628</ele>
        <time>2020-07-11T07:38:08.590Z</time>
      </trkpt>
      <trkpt lat="44.06681" lon="5.32532">
        <ele>629</ele>
        <time>2020-07-11T07:38:09.591Z</time>
      </trkpt>
      <trkpt lat="44.06678" lon="5.32529">
        <ele>629</ele>
        <time>2020-07-11T07:38:10.590Z</time>
      </trkpt>
      <trkpt lat="44.06674" lon="5.32527">
        <ele>630</ele>
        <time>2020-07-11T07:38:11.591Z</time>
      </trkpt>
      <trkpt lat="44.06671" lon="5.32525">
        <ele>630</ele>
        <time>2020-07-11T07:38:12.591Z</time>
      </trkpt>
      <trkpt lat="44.06667" lon="5.32523">
        <ele>630</ele>
        <time>2020-07-11T07:38:13.590Z</time>
      </trkpt>
      <trkpt lat="44.06663" lon="5.32521">
        <ele>630</ele>
        <time>2020-07-11T07:38:14.591Z</time>
      </trkpt>
      <trkpt lat="44.0666" lon="5.32519">
        <ele>631</ele>
        <time>2020-07-11T07:38:15.591Z</time>
      </trkpt>
      <trkpt lat="44.06656" lon="5.32518">
        <ele>631</ele>
        <time>2020-07-11T07:38:16.591Z</time>
      </trkpt>
      <trkpt lat="44.06652" lon="5.32516">
        <ele>631</ele>
        <time>2020-07-11T07:38:17.591Z</time>
      </trkpt>
      <trkpt lat="44.06648" lon="5.32514">
        <ele>631</ele>
        <time>2020-07-11T07:38:18.591Z</time>
      </trkpt>
      <trkpt lat="44.06645" lon="5.32513">
        <ele>631</ele>
        <time>2020-07-11T07:38:19.591Z</time>
      </trkpt>
      <trkpt lat="44.06641" lon="5.32511">
        <ele>631</ele>
        <time>2020-07-11T07:38:20.591Z</time>
      </trkpt>
      <trkpt lat="44.06637" lon="5.32509">
        <ele>631</ele>
        <time>2020-07-11T07:38:21.591Z</time>
      </trkpt>
      <trkpt lat="44.06633" lon="5.32508">
        <ele>631</ele>
        <time>2020-07-11T07:38:22.591Z</time>
      </trkpt>
      <trkpt lat="44.06629" lon="5.32506">
        <ele>631</ele>
        <time>2020-07-11T07:38:23.591Z</time>
      </trkpt>
      <trkpt lat="44.06625" lon="5.32504">
        <ele>632</ele>
        <time>2020-07-11T07:38:24.591Z</time>
      </trkpt>
      <trkpt lat="44.06622" lon="5.32503">
        <ele>632</ele>
        <time>2020-07-11T07:38:25.590Z</time>
      </trkpt>
      <trkpt lat="44.06618" lon="5.32501">
        <ele>633</ele>
        <time>2020-07-11T07:38:26.591Z</time>
      </trkpt>
      <trkpt lat="44.06614" lon="5.325">
        <ele>633</ele>
        <time>2020-07-11T07:38:27.591Z</time>
      </trkpt>
      <trkpt lat="44.0661" lon="5.32498">
        <ele>633</ele>
        <time>2020-07-11T07:38:28.591Z</time>
      </trkpt>
      <trkpt lat="44.06606" lon="5.32496">
        <ele>633</ele>
        <time>2020-07-11T07:38:29.591Z</time>
      </trkpt>
      <trkpt lat="44.06603" lon="5.32494">
        <ele>634</ele>
        <time>2020-07-11T07:38:30.591Z</time>
      </trkpt>
      <trkpt lat="44.06599" lon="5.32492">
        <ele>634</ele>
        <time>2020-07-11T07:38:31.591Z</time>
      </trkpt>
      <trkpt lat="44.06595" lon="5.3249">
        <ele>635</ele>
        <time>2020-07-11T07:38:32.590Z</time>
      </trkpt>
      <trkpt lat="44.06591" lon="5.32488">
        <ele>635</ele>
        <time>2020-07-11T07:38:33.591Z</time>
      </trkpt>
      <trkpt lat="44.06587" lon="5.32486">
        <ele>635</ele>
        <time>2020-07-11T07:38:34.591Z</time>
      </trkpt>
      <trkpt lat="44.06583" lon="5.32483">
        <ele>636</ele>
        <time>2020-07-11T07:38:35.591Z</time>
      </trkpt>
      <trkpt lat="44.06579" lon="5.3248">
        <ele>636</ele>
        <time>2020-07-11T07:38:36.591Z</time>
      </trkpt>
      <trkpt lat="44.06576" lon="5.32478">
        <ele>636</ele>
        <time>2020-07-11T07:38:37.591Z</time>
      </trkpt>
      <trkpt lat="44.06572" lon="5.32475">
        <ele>636</ele>
        <time>2020-07-11T07:38:38.591Z</time>
      </trkpt>
      <trkpt lat="44.06569" lon="5.32473">
        <ele>636</ele>
        <time>2020-07-11T07:38:39.591Z</time>
      </trkpt>
      <trkpt lat="44.06565" lon="5.3247">
        <ele>636</ele>
        <time>2020-07-11T07:38:40.590Z</time>
      </trkpt>
      <trkpt lat="44.06561" lon="5.32467">
        <ele>636</ele>
        <time>2020-07-11T07:38:41.590Z</time>
      </trkpt>
      <trkpt lat="44.06558" lon="5.32464">
        <ele>636</ele>
        <time>2020-07-11T07:38:42.591Z</time>
      </trkpt>
      <trkpt lat="44.06554" lon="5.32461">
        <ele>636</ele>
        <time>2020-07-11T07:38:43.591Z</time>
      </trkpt>
      <trkpt lat="44.0655" lon="5.32459">
        <ele>637</ele>
        <time>2020-07-11T07:38:44.591Z</time>
      </trkpt>
      <trkpt lat="44.06547" lon="5.32456">
        <ele>637</ele>
        <time>2020-07-11T07:38:45.591Z</time>
      </trkpt>
      <trkpt lat="44.06543" lon="5.32454">
        <ele>638</ele>
        <time>2020-07-11T07:38:46.591Z</time>
      </trkpt>
      <trkpt lat="44.06539" lon="5.32451">
        <ele>638</ele>
        <time>2020-07-11T07:38:47.591Z</time>
      </trkpt>
      <trkpt lat="44.06536" lon="5.32449">
        <ele>638</ele>
        <time>2020-07-11T07:38:48.591Z</time>
      </trkpt>
      <trkpt lat="44.06532" lon="5.32446">
        <ele>639</ele>
        <time>2020-07-11T07:38:49.591Z</time>
      </trkpt>
      <trkpt lat="44.06529" lon="5.32444">
        <ele>640</ele>
        <time>2020-07-11T07:38:50.591Z</time>
      </trkpt>
      <trkpt lat="44.06525" lon="5.32442">
        <ele>640</ele>
        <time>2020-07-11T07:38:51.590Z</time>
      </trkpt>
      <trkpt lat="44.06522" lon="5.3244">
        <ele>641</ele>
        <time>2020-07-11T07:38:52.591Z</time>
      </trkpt>
      <trkpt lat="44.06518" lon="5.32437">
        <ele>641</ele>
        <time>2020-07-11T07:38:53.591Z</time>
      </trkpt>
      <trkpt lat="44.06514" lon="5.32435">
        <ele>641</ele>
        <time>2020-07-11T07:38:54.591Z</time>
      </trkpt>
      <trkpt lat="44.06511" lon="5.32433">
        <ele>641</ele>
        <time>2020-07-11T07:38:55.591Z</time>
      </trkpt>
      <trkpt lat="44.06507" lon="5.32431">
        <ele>641</ele>
        <time>2020-07-11T07:38:56.591Z</time>
      </trkpt>
      <trkpt lat="44.06503" lon="5.32429">
        <ele>641</ele>
        <time>2020-07-11T07:38:57.591Z</time>
      </trkpt>
      <trkpt lat="44.065" lon="5.32427">
        <ele>641</ele>
        <time>2020-07-11T07:38:58.591Z</time>
      </trkpt>
      <trkpt lat="44.06496" lon="5.32425">
        <ele>641</ele>
        <time>2020-07-11T07:38:59.591Z</time>
      </trkpt>
      <trkpt lat="44.06492" lon="5.32422">
        <ele>641</ele>
        <time>2020-07-11T07:39:00.591Z</time>
      </trkpt>
      <trkpt lat="44.06488" lon="5.3242">
        <ele>641</ele>
        <time>2020-07-11T07:39:01.590Z</time>
      </trkpt>
      <trkpt lat="44.06484" lon="5.32418">
        <ele>641</ele>
        <time>2020-07-11T07:39:02.591Z</time>
      </trkpt>
      <trkpt lat="44.0648" lon="5.32416">
        <ele>641</ele>
        <time>2020-07-11T07:39:03.591Z</time>
      </trkpt>
      <trkpt lat="44.06476" lon="5.32414">
        <ele>641</ele>
        <time>2020-07-11T07:39:04.591Z</time>
      </trkpt>
      <trkpt lat="44.06472" lon="5.32412">
        <ele>641</ele>
        <time>2020-07-11T07:39:05.591Z</time>
      </trkpt>
      <trkpt lat="44.06468" lon="5.32409">
        <ele>640</ele>
        <time>2020-07-11T07:39:06.591Z</time>
      </trkpt>
      <trkpt lat="44.06465" lon="5.32406">
        <ele>640</ele>
        <time>2020-07-11T07:39:07.591Z</time>
      </trkpt>
      <trkpt lat="44.06462" lon="5.32402">
        <ele>640</ele>
        <time>2020-07-11T07:39:08.591Z</time>
      </trkpt>
      <trkpt lat="44.06459" lon="5.32398">
        <ele>639</ele>
        <time>2020-07-11T07:39:09.591Z</time>
      </trkpt>
      <trkpt lat="44.06456" lon="5.32394">
        <ele>639</ele>
        <time>2020-07-11T07:39:10.591Z</time>
      </trkpt>
      <trkpt lat="44.06454" lon="5.32389">
        <ele>639</ele>
        <time>2020-07-11T07:39:11.591Z</time>
      </trkpt>
      <trkpt lat="44.06452" lon="5.32384">
        <ele>639</ele>
        <time>2020-07-11T07:39:12.591Z</time>
      </trkpt>
      <trkpt lat="44.0645" lon="5.32379">
        <ele>638</ele>
        <time>2020-07-11T07:39:13.591Z</time>
      </trkpt>
      <trkpt lat="44.06448" lon="5.32374">
        <ele>638</ele>
        <time>2020-07-11T07:39:14.590Z</time>
      </trkpt>
      <trkpt lat="44.06446" lon="5.32369">
        <ele>638</ele>
        <time>2020-07-11T07:39:15.591Z</time>
      </trkpt>
      <trkpt lat="44.06444" lon="5.32364">
        <ele>638</ele>
        <time>2020-07-11T07:39:16.591Z</time>
      </trkpt>
      <trkpt lat="44.06442" lon="5.32359">
        <ele>638</ele>
        <time>2020-07-11T07:39:17.591Z</time>
      </trkpt>
      <trkpt lat="44.0644" lon="5.32354">
        <ele>639</ele>
        <time>2020-07-11T07:39:18.590Z</time>
      </trkpt>
      <trkpt lat="44.06439" lon="5.32349">
        <ele>639</ele>
        <time>2020-07-11T07:39:19.591Z</time>
      </trkpt>
      <trkpt lat="44.06437" lon="5.32344">
        <ele>639</ele>
        <time>2020-07-11T07:39:20.591Z</time>
      </trkpt>
      <trkpt lat="44.06435" lon="5.3234">
        <ele>639</ele>
        <time>2020-07-11T07:39:21.590Z</time>
      </trkpt>
      <trkpt lat="44.06433" lon="5.32335">
        <ele>639</ele>
        <time>2020-07-11T07:39:22.590Z</time>
      </trkpt>
      <trkpt lat="44.06431" lon="5.32329">
        <ele>639</ele>
        <time>2020-07-11T07:39:23.590Z</time>
      </trkpt>
      <trkpt lat="44.06428" lon="5.32324">
        <ele>639</ele>
        <time>2020-07-11T07:39:24.591Z</time>
      </trkpt>
      <trkpt lat="44.06427" lon="5.32319">
        <ele>639</ele>
        <time>2020-07-11T07:39:25.591Z</time>
      </trkpt>
      <trkpt lat="44.06425" lon="5.32314">
        <ele>639</ele>
        <time>2020-07-11T07:39:26.591Z</time>
      </trkpt>
      <trkpt lat="44.06423" lon="5.32309">
        <ele>640</ele>
        <time>2020-07-11T07:39:27.591Z</time>
      </trkpt>
      <trkpt lat="44.06421" lon="5.32306">
        <ele>640</ele>
        <time>2020-07-11T07:39:28.591Z</time>
      </trkpt>
      <trkpt lat="44.06419" lon="5.32299">
        <ele>640</ele>
        <time>2020-07-11T07:39:29.591Z</time>
      </trkpt>
      <trkpt lat="44.06417" lon="5.32294">
        <ele>641</ele>
        <time>2020-07-11T07:39:30.591Z</time>
      </trkpt>
      <trkpt lat="44.06415" lon="5.32289">
        <ele>642</ele>
        <time>2020-07-11T07:39:31.591Z</time>
      </trkpt>
      <trkpt lat="44.06413" lon="5.32284">
        <ele>642</ele>
        <time>2020-07-11T07:39:32.591Z</time>
      </trkpt>
      <trkpt lat="44.06411" lon="5.32278">
        <ele>643</ele>
        <time>2020-07-11T07:39:33.591Z</time>
      </trkpt>
      <trkpt lat="44.06409" lon="5.32273">
        <ele>644</ele>
        <time>2020-07-11T07:39:34.591Z</time>
      </trkpt>
      <trkpt lat="44.06407" lon="5.32268">
        <ele>645</ele>
        <time>2020-07-11T07:39:35.591Z</time>
      </trkpt>
      <trkpt lat="44.06405" lon="5.32263">
        <ele>646</ele>
        <time>2020-07-11T07:39:36.591Z</time>
      </trkpt>
      <trkpt lat="44.06403" lon="5.32258">
        <ele>647</ele>
        <time>2020-07-11T07:39:37.590Z</time>
      </trkpt>
      <trkpt lat="44.06401" lon="5.32253">
        <ele>648</ele>
        <time>2020-07-11T07:39:38.591Z</time>
      </trkpt>
      <trkpt lat="44.06398" lon="5.32249">
        <ele>649</ele>
        <time>2020-07-11T07:39:39.591Z</time>
      </trkpt>
      <trkpt lat="44.06395" lon="5.32245">
        <ele>649</ele>
        <time>2020-07-11T07:39:40.591Z</time>
      </trkpt>
      <trkpt lat="44.06393" lon="5.32241">
        <ele>650</ele>
        <time>2020-07-11T07:39:41.590Z</time>
      </trkpt>
      <trkpt lat="44.0639" lon="5.32238">
        <ele>651</ele>
        <time>2020-07-11T07:39:42.591Z</time>
      </trkpt>
      <trkpt lat="44.06387" lon="5.32234">
        <ele>652</ele>
        <time>2020-07-11T07:39:43.590Z</time>
      </trkpt>
      <trkpt lat="44.06384" lon="5.32231">
        <ele>653</ele>
        <time>2020-07-11T07:39:44.590Z</time>
      </trkpt>
      <trkpt lat="44.0638" lon="5.32228">
        <ele>653</ele>
        <time>2020-07-11T07:39:45.591Z</time>
      </trkpt>
      <trkpt lat="44.06377" lon="5.32224">
        <ele>654</ele>
        <time>2020-07-11T07:39:46.591Z</time>
      </trkpt>
      <trkpt lat="44.06375" lon="5.32222">
        <ele>655</ele>
        <time>2020-07-11T07:39:47.590Z</time>
      </trkpt>
      <trkpt lat="44.06371" lon="5.32217">
        <ele>655</ele>
        <time>2020-07-11T07:39:48.591Z</time>
      </trkpt>
      <trkpt lat="44.06368" lon="5.32214">
        <ele>656</ele>
        <time>2020-07-11T07:39:49.591Z</time>
      </trkpt>
      <trkpt lat="44.06365" lon="5.3221">
        <ele>657</ele>
        <time>2020-07-11T07:39:50.591Z</time>
      </trkpt>
      <trkpt lat="44.06364" lon="5.32206">
        <ele>658</ele>
        <time>2020-07-11T07:39:51.590Z</time>
      </trkpt>
      <trkpt lat="44.06361" lon="5.322">
        <ele>659</ele>
        <time>2020-07-11T07:39:52.591Z</time>
      </trkpt>
      <trkpt lat="44.0636" lon="5.32195">
        <ele>660</ele>
        <time>2020-07-11T07:39:53.591Z</time>
      </trkpt>
      <trkpt lat="44.0636" lon="5.3219">
        <ele>661</ele>
        <time>2020-07-11T07:39:54.591Z</time>
      </trkpt>
      <trkpt lat="44.0636" lon="5.32184">
        <ele>661</ele>
        <time>2020-07-11T07:39:55.591Z</time>
      </trkpt>
      <trkpt lat="44.06362" lon="5.32178">
        <ele>662</ele>
        <time>2020-07-11T07:39:56.591Z</time>
      </trkpt>
      <trkpt lat="44.06363" lon="5.32172">
        <ele>662</ele>
        <time>2020-07-11T07:39:57.590Z</time>
      </trkpt>
      <trkpt lat="44.06366" lon="5.32167">
        <ele>662</ele>
        <time>2020-07-11T07:39:58.591Z</time>
      </trkpt>
      <trkpt lat="44.06369" lon="5.32162">
        <ele>663</ele>
        <time>2020-07-11T07:39:59.590Z</time>
      </trkpt>
      <trkpt lat="44.06373" lon="5.32158">
        <ele>663</ele>
        <time>2020-07-11T07:40:00.590Z</time>
      </trkpt>
      <trkpt lat="44.06376" lon="5.32154">
        <ele>664</ele>
        <time>2020-07-11T07:40:01.590Z</time>
      </trkpt>
      <trkpt lat="44.0638" lon="5.32151">
        <ele>664</ele>
        <time>2020-07-11T07:40:02.591Z</time>
      </trkpt>
      <trkpt lat="44.06384" lon="5.32147">
        <ele>665</ele>
        <time>2020-07-11T07:40:03.591Z</time>
      </trkpt>
      <trkpt lat="44.06388" lon="5.32143">
        <ele>665</ele>
        <time>2020-07-11T07:40:04.590Z</time>
      </trkpt>
      <trkpt lat="44.06392" lon="5.3214">
        <ele>665</ele>
        <time>2020-07-11T07:40:05.591Z</time>
      </trkpt>
      <trkpt lat="44.06395" lon="5.32137">
        <ele>665</ele>
        <time>2020-07-11T07:40:06.591Z</time>
      </trkpt>
      <trkpt lat="44.06399" lon="5.32133">
        <ele>665</ele>
        <time>2020-07-11T07:40:07.591Z</time>
      </trkpt>
      <trkpt lat="44.06403" lon="5.3213">
        <ele>665</ele>
        <time>2020-07-11T07:40:08.591Z</time>
      </trkpt>
      <trkpt lat="44.06406" lon="5.32126">
        <ele>665</ele>
        <time>2020-07-11T07:40:09.591Z</time>
      </trkpt>
      <trkpt lat="44.06409" lon="5.32122">
        <ele>665</ele>
        <time>2020-07-11T07:40:10.591Z</time>
      </trkpt>
      <trkpt lat="44.06412" lon="5.32118">
        <ele>665</ele>
        <time>2020-07-11T07:40:11.591Z</time>
      </trkpt>
      <trkpt lat="44.06415" lon="5.32114">
        <ele>664</ele>
        <time>2020-07-11T07:40:12.590Z</time>
      </trkpt>
      <trkpt lat="44.06418" lon="5.32109">
        <ele>664</ele>
        <time>2020-07-11T07:40:13.591Z</time>
      </trkpt>
      <trkpt lat="44.06421" lon="5.32105">
        <ele>664</ele>
        <time>2020-07-11T07:40:14.590Z</time>
      </trkpt>
      <trkpt lat="44.06423" lon="5.321">
        <ele>664</ele>
        <time>2020-07-11T07:40:15.590Z</time>
      </trkpt>
      <trkpt lat="44.06426" lon="5.32095">
        <ele>663</ele>
        <time>2020-07-11T07:40:16.591Z</time>
      </trkpt>
      <trkpt lat="44.06428" lon="5.3209">
        <ele>663</ele>
        <time>2020-07-11T07:40:17.591Z</time>
      </trkpt>
      <trkpt lat="44.06431" lon="5.32084">
        <ele>664</ele>
        <time>2020-07-11T07:40:18.590Z</time>
      </trkpt>
      <trkpt lat="44.06434" lon="5.3208">
        <ele>664</ele>
        <time>2020-07-11T07:40:19.591Z</time>
      </trkpt>
      <trkpt lat="44.06436" lon="5.32075">
        <ele>664</ele>
        <time>2020-07-11T07:40:20.591Z</time>
      </trkpt>
      <trkpt lat="44.06439" lon="5.3207">
        <ele>664</ele>
        <time>2020-07-11T07:40:21.591Z</time>
      </trkpt>
      <trkpt lat="44.06441" lon="5.32065">
        <ele>664</ele>
        <time>2020-07-11T07:40:22.591Z</time>
      </trkpt>
      <trkpt lat="44.06443" lon="5.32061">
        <ele>664</ele>
        <time>2020-07-11T07:40:23.591Z</time>
      </trkpt>
      <trkpt lat="44.06446" lon="5.32056">
        <ele>664</ele>
        <time>2020-07-11T07:40:24.591Z</time>
      </trkpt>
      <trkpt lat="44.06449" lon="5.32051">
        <ele>664</ele>
        <time>2020-07-11T07:40:25.590Z</time>
      </trkpt>
      <trkpt lat="44.06451" lon="5.32047">
        <ele>665</ele>
        <time>2020-07-11T07:40:26.591Z</time>
      </trkpt>
      <trkpt lat="44.06454" lon="5.32041">
        <ele>665</ele>
        <time>2020-07-11T07:40:27.591Z</time>
      </trkpt>
      <trkpt lat="44.06456" lon="5.32035">
        <ele>665</ele>
        <time>2020-07-11T07:40:28.590Z</time>
      </trkpt>
      <trkpt lat="44.06457" lon="5.32031">
        <ele>666</ele>
        <time>2020-07-11T07:40:29.591Z</time>
      </trkpt>
      <trkpt lat="44.06458" lon="5.32025">
        <ele>665</ele>
        <time>2020-07-11T07:40:30.591Z</time>
      </trkpt>
      <trkpt lat="44.06458" lon="5.3202">
        <ele>665</ele>
        <time>2020-07-11T07:40:31.590Z</time>
      </trkpt>
      <trkpt lat="44.06458" lon="5.32014">
        <ele>665</ele>
        <time>2020-07-11T07:40:32.590Z</time>
      </trkpt>
      <trkpt lat="44.06457" lon="5.32009">
        <ele>665</ele>
        <time>2020-07-11T07:40:33.591Z</time>
      </trkpt>
      <trkpt lat="44.06456" lon="5.32002">
        <ele>665</ele>
        <time>2020-07-11T07:40:34.591Z</time>
      </trkpt>
      <trkpt lat="44.06453" lon="5.31998">
        <ele>665</ele>
        <time>2020-07-11T07:40:35.591Z</time>
      </trkpt>
      <trkpt lat="44.0645" lon="5.31993">
        <ele>665</ele>
        <time>2020-07-11T07:40:36.591Z</time>
      </trkpt>
      <trkpt lat="44.06448" lon="5.31991">
        <ele>666</ele>
        <time>2020-07-11T07:40:37.590Z</time>
      </trkpt>
      <trkpt lat="44.06444" lon="5.31988">
        <ele>666</ele>
        <time>2020-07-11T07:40:38.591Z</time>
      </trkpt>
      <trkpt lat="44.06439" lon="5.31987">
        <ele>666</ele>
        <time>2020-07-11T07:40:39.591Z</time>
      </trkpt>
      <trkpt lat="44.06436" lon="5.31986">
        <ele>667</ele>
        <time>2020-07-11T07:40:40.590Z</time>
      </trkpt>
      <trkpt lat="44.06431" lon="5.31986">
        <ele>667</ele>
        <time>2020-07-11T07:40:41.590Z</time>
      </trkpt>
      <trkpt lat="44.06427" lon="5.31986">
        <ele>668</ele>
        <time>2020-07-11T07:40:42.590Z</time>
      </trkpt>
      <trkpt lat="44.06423" lon="5.31987">
        <ele>668</ele>
        <time>2020-07-11T07:40:43.590Z</time>
      </trkpt>
      <trkpt lat="44.06418" lon="5.31989">
        <ele>668</ele>
        <time>2020-07-11T07:40:44.591Z</time>
      </trkpt>
      <trkpt lat="44.06414" lon="5.3199">
        <ele>668</ele>
        <time>2020-07-11T07:40:45.591Z</time>
      </trkpt>
      <trkpt lat="44.06409" lon="5.31992">
        <ele>668</ele>
        <time>2020-07-11T07:40:46.590Z</time>
      </trkpt>
      <trkpt lat="44.06405" lon="5.31994">
        <ele>667</ele>
        <time>2020-07-11T07:40:47.590Z</time>
      </trkpt>
      <trkpt lat="44.064" lon="5.31996">
        <ele>667</ele>
        <time>2020-07-11T07:40:48.591Z</time>
      </trkpt>
      <trkpt lat="44.06396" lon="5.31997">
        <ele>667</ele>
        <time>2020-07-11T07:40:49.591Z</time>
      </trkpt>
      <trkpt lat="44.06391" lon="5.31998">
        <ele>667</ele>
        <time>2020-07-11T07:40:50.591Z</time>
      </trkpt>
      <trkpt lat="44.06388" lon="5.31998">
        <ele>667</ele>
        <time>2020-07-11T07:40:51.591Z</time>
      </trkpt>
      <trkpt lat="44.06384" lon="5.31999">
        <ele>667</ele>
        <time>2020-07-11T07:40:52.591Z</time>
      </trkpt>
      <trkpt lat="44.06378" lon="5.31999">
        <ele>666</ele>
        <time>2020-07-11T07:40:53.591Z</time>
      </trkpt>
      <trkpt lat="44.06374" lon="5.31999">
        <ele>666</ele>
        <time>2020-07-11T07:40:54.591Z</time>
      </trkpt>
      <trkpt lat="44.06371" lon="5.31999">
        <ele>666</ele>
        <time>2020-07-11T07:40:55.590Z</time>
      </trkpt>
      <trkpt lat="44.06366" lon="5.31999">
        <ele>666</ele>
        <time>2020-07-11T07:40:56.590Z</time>
      </trkpt>
      <trkpt lat="44.06361" lon="5.31999">
        <ele>666</ele>
        <time>2020-07-11T07:40:57.591Z</time>
      </trkpt>
      <trkpt lat="44.06357" lon="5.31998">
        <ele>666</ele>
        <time>2020-07-11T07:40:58.591Z</time>
      </trkpt>
      <trkpt lat="44.06353" lon="5.31998">
        <ele>666</ele>
        <time>2020-07-11T07:40:59.590Z</time>
      </trkpt>
      <trkpt lat="44.06348" lon="5.31997">
        <ele>666</ele>
        <time>2020-07-11T07:41:00.591Z</time>
      </trkpt>
      <trkpt lat="44.06345" lon="5.31997">
        <ele>667</ele>
        <time>2020-07-11T07:41:01.591Z</time>
      </trkpt>
      <trkpt lat="44.06339" lon="5.31996">
        <ele>667</ele>
        <time>2020-07-11T07:41:02.591Z</time>
      </trkpt>
      <trkpt lat="44.06336" lon="5.31996">
        <ele>668</ele>
        <time>2020-07-11T07:41:03.591Z</time>
      </trkpt>
      <trkpt lat="44.06331" lon="5.31995">
        <ele>668</ele>
        <time>2020-07-11T07:41:04.591Z</time>
      </trkpt>
      <trkpt lat="44.06327" lon="5.31995">
        <ele>669</ele>
        <time>2020-07-11T07:41:05.591Z</time>
      </trkpt>
      <trkpt lat="44.06323" lon="5.31994">
        <ele>669</ele>
        <time>2020-07-11T07:41:06.590Z</time>
      </trkpt>
      <trkpt lat="44.06318" lon="5.31993">
        <ele>670</ele>
        <time>2020-07-11T07:41:07.591Z</time>
      </trkpt>
      <trkpt lat="44.06314" lon="5.31993">
        <ele>670</ele>
        <time>2020-07-11T07:41:08.590Z</time>
      </trkpt>
      <trkpt lat="44.0631" lon="5.31993">
        <ele>670</ele>
        <time>2020-07-11T07:41:09.590Z</time>
      </trkpt>
      <trkpt lat="44.06306" lon="5.31992">
        <ele>671</ele>
        <time>2020-07-11T07:41:10.591Z</time>
      </trkpt>
      <trkpt lat="44.06302" lon="5.31992">
        <ele>671</ele>
        <time>2020-07-11T07:41:11.591Z</time>
      </trkpt>
      <trkpt lat="44.06297" lon="5.31992">
        <ele>672</ele>
        <time>2020-07-11T07:41:12.590Z</time>
      </trkpt>
      <trkpt lat="44.06293" lon="5.31992">
        <ele>672</ele>
        <time>2020-07-11T07:41:13.591Z</time>
      </trkpt>
      <trkpt lat="44.06289" lon="5.31992">
        <ele>673</ele>
        <time>2020-07-11T07:41:14.590Z</time>
      </trkpt>
      <trkpt lat="44.06285" lon="5.31992">
        <ele>673</ele>
        <time>2020-07-11T07:41:15.591Z</time>
      </trkpt>
      <trkpt lat="44.0628" lon="5.31993">
        <ele>674</ele>
        <time>2020-07-11T07:41:16.591Z</time>
      </trkpt>
      <trkpt lat="44.06276" lon="5.31993">
        <ele>674</ele>
        <time>2020-07-11T07:41:17.591Z</time>
      </trkpt>
      <trkpt lat="44.06272" lon="5.31995">
        <ele>674</ele>
        <time>2020-07-11T07:41:18.591Z</time>
      </trkpt>
      <trkpt lat="44.06268" lon="5.31996">
        <ele>674</ele>
        <time>2020-07-11T07:41:19.590Z</time>
      </trkpt>
      <trkpt lat="44.06264" lon="5.31998">
        <ele>674</ele>
        <time>2020-07-11T07:41:20.590Z</time>
      </trkpt>
      <trkpt lat="44.0626" lon="5.32">
        <ele>674</ele>
        <time>2020-07-11T07:41:21.591Z</time>
      </trkpt>
      <trkpt lat="44.06256" lon="5.32002">
        <ele>674</ele>
        <time>2020-07-11T07:41:22.590Z</time>
      </trkpt>
      <trkpt lat="44.06252" lon="5.32005">
        <ele>674</ele>
        <time>2020-07-11T07:41:23.591Z</time>
      </trkpt>
      <trkpt lat="44.06249" lon="5.32007">
        <ele>674</ele>
        <time>2020-07-11T07:41:24.591Z</time>
      </trkpt>
      <trkpt lat="44.06244" lon="5.3201">
        <ele>674</ele>
        <time>2020-07-11T07:41:25.591Z</time>
      </trkpt>
      <trkpt lat="44.0624" lon="5.32012">
        <ele>674</ele>
        <time>2020-07-11T07:41:26.591Z</time>
      </trkpt>
      <trkpt lat="44.06236" lon="5.32015">
        <ele>674</ele>
        <time>2020-07-11T07:41:27.591Z</time>
      </trkpt>
      <trkpt lat="44.06233" lon="5.32016">
        <ele>674</ele>
        <time>2020-07-11T07:41:28.591Z</time>
      </trkpt>
      <trkpt lat="44.06229" lon="5.32019">
        <ele>674</ele>
        <time>2020-07-11T07:41:29.591Z</time>
      </trkpt>
      <trkpt lat="44.06225" lon="5.32022">
        <ele>673</ele>
        <time>2020-07-11T07:41:30.590Z</time>
      </trkpt>
      <trkpt lat="44.06221" lon="5.32024">
        <ele>673</ele>
        <time>2020-07-11T07:41:31.591Z</time>
      </trkpt>
      <trkpt lat="44.06217" lon="5.32026">
        <ele>673</ele>
        <time>2020-07-11T07:41:32.591Z</time>
      </trkpt>
      <trkpt lat="44.06214" lon="5.32027">
        <ele>673</ele>
        <time>2020-07-11T07:41:33.591Z</time>
      </trkpt>
      <trkpt lat="44.06209" lon="5.3203">
        <ele>673</ele>
        <time>2020-07-11T07:41:34.591Z</time>
      </trkpt>
      <trkpt lat="44.06206" lon="5.32032">
        <ele>673</ele>
        <time>2020-07-11T07:41:35.591Z</time>
      </trkpt>
      <trkpt lat="44.06201" lon="5.32034">
        <ele>673</ele>
        <time>2020-07-11T07:41:36.591Z</time>
      </trkpt>
      <trkpt lat="44.06198" lon="5.32036">
        <ele>673</ele>
        <time>2020-07-11T07:41:37.591Z</time>
      </trkpt>
      <trkpt lat="44.06194" lon="5.32038">
        <ele>673</ele>
        <time>2020-07-11T07:41:38.591Z</time>
      </trkpt>
      <trkpt lat="44.0619" lon="5.3204">
        <ele>673</ele>
        <time>2020-07-11T07:41:39.591Z</time>
      </trkpt>
      <trkpt lat="44.06186" lon="5.32042">
        <ele>673</ele>
        <time>2020-07-11T07:41:40.591Z</time>
      </trkpt>
      <trkpt lat="44.06182" lon="5.32045">
        <ele>673</ele>
        <time>2020-07-11T07:41:41.591Z</time>
      </trkpt>
      <trkpt lat="44.06178" lon="5.32046">
        <ele>672</ele>
        <time>2020-07-11T07:41:42.591Z</time>
      </trkpt>
      <trkpt lat="44.06175" lon="5.32048">
        <ele>672</ele>
        <time>2020-07-11T07:41:43.591Z</time>
      </trkpt>
      <trkpt lat="44.06171" lon="5.3205">
        <ele>672</ele>
        <time>2020-07-11T07:41:44.591Z</time>
      </trkpt>
      <trkpt lat="44.06167" lon="5.32053">
        <ele>671</ele>
        <time>2020-07-11T07:41:45.591Z</time>
      </trkpt>
      <trkpt lat="44.06163" lon="5.32055">
        <ele>671</ele>
        <time>2020-07-11T07:41:46.591Z</time>
      </trkpt>
      <trkpt lat="44.06159" lon="5.32057">
        <ele>671</ele>
        <time>2020-07-11T07:41:47.591Z</time>
      </trkpt>
      <trkpt lat="44.06156" lon="5.32059">
        <ele>671</ele>
        <time>2020-07-11T07:41:48.591Z</time>
      </trkpt>
      <trkpt lat="44.06152" lon="5.32061">
        <ele>671</ele>
        <time>2020-07-11T07:41:49.590Z</time>
      </trkpt>
      <trkpt lat="44.06148" lon="5.32063">
        <ele>671</ele>
        <time>2020-07-11T07:41:50.591Z</time>
      </trkpt>
      <trkpt lat="44.06145" lon="5.32065">
        <ele>670</ele>
        <time>2020-07-11T07:41:51.590Z</time>
      </trkpt>
      <trkpt lat="44.0614" lon="5.32067">
        <ele>670</ele>
        <time>2020-07-11T07:41:52.591Z</time>
      </trkpt>
      <trkpt lat="44.06137" lon="5.32069">
        <ele>670</ele>
        <time>2020-07-11T07:41:53.591Z</time>
      </trkpt>
      <trkpt lat="44.06133" lon="5.32071">
        <ele>670</ele>
        <time>2020-07-11T07:41:54.591Z</time>
      </trkpt>
      <trkpt lat="44.06129" lon="5.32073">
        <ele>670</ele>
        <time>2020-07-11T07:41:55.591Z</time>
      </trkpt>
      <trkpt lat="44.06126" lon="5.32075">
        <ele>670</ele>
        <time>2020-07-11T07:41:56.591Z</time>
      </trkpt>
      <trkpt lat="44.06122" lon="5.32077">
        <ele>670</ele>
        <time>2020-07-11T07:41:57.591Z</time>
      </trkpt>
      <trkpt lat="44.06117" lon="5.32079">
        <ele>670</ele>
        <time>2020-07-11T07:41:58.591Z</time>
      </trkpt>
      <trkpt lat="44.06114" lon="5.32081">
        <ele>670</ele>
        <time>2020-07-11T07:41:59.591Z</time>
      </trkpt>
      <trkpt lat="44.0611" lon="5.32083">
        <ele>670</ele>
        <time>2020-07-11T07:42:00.591Z</time>
      </trkpt>
      <trkpt lat="44.06106" lon="5.32085">
        <ele>671</ele>
        <time>2020-07-11T07:42:01.591Z</time>
      </trkpt>
      <trkpt lat="44.06102" lon="5.32087">
        <ele>671</ele>
        <time>2020-07-11T07:42:02.591Z</time>
      </trkpt>
      <trkpt lat="44.06098" lon="5.32088">
        <ele>671</ele>
        <time>2020-07-11T07:42:03.591Z</time>
      </trkpt>
      <trkpt lat="44.06094" lon="5.32089">
        <ele>672</ele>
        <time>2020-07-11T07:42:04.590Z</time>
      </trkpt>
      <trkpt lat="44.0609" lon="5.32089">
        <ele>672</ele>
        <time>2020-07-11T07:42:05.591Z</time>
      </trkpt>
      <trkpt lat="44.06086" lon="5.32088">
        <ele>672</ele>
        <time>2020-07-11T07:42:06.591Z</time>
      </trkpt>
      <trkpt lat="44.06081" lon="5.32086">
        <ele>673</ele>
        <time>2020-07-11T07:42:07.591Z</time>
      </trkpt>
      <trkpt lat="44.06077" lon="5.32084">
        <ele>673</ele>
        <time>2020-07-11T07:42:08.590Z</time>
      </trkpt>
      <trkpt lat="44.06073" lon="5.32083">
        <ele>673</ele>
        <time>2020-07-11T07:42:09.591Z</time>
      </trkpt>
      <trkpt lat="44.06069" lon="5.32082">
        <ele>673</ele>
        <time>2020-07-11T07:42:10.590Z</time>
      </trkpt>
      <trkpt lat="44.06065" lon="5.32081">
        <ele>673</ele>
        <time>2020-07-11T07:42:11.591Z</time>
      </trkpt>
      <trkpt lat="44.0606" lon="5.32081">
        <ele>673</ele>
        <time>2020-07-11T07:42:12.590Z</time>
      </trkpt>
      <trkpt lat="44.06056" lon="5.32082">
        <ele>673</ele>
        <time>2020-07-11T07:42:13.590Z</time>
      </trkpt>
      <trkpt lat="44.06052" lon="5.32083">
        <ele>673</ele>
        <time>2020-07-11T07:42:14.590Z</time>
      </trkpt>
      <trkpt lat="44.06048" lon="5.32085">
        <ele>673</ele>
        <time>2020-07-11T07:42:15.591Z</time>
      </trkpt>
      <trkpt lat="44.06044" lon="5.32086">
        <ele>674</ele>
        <time>2020-07-11T07:42:16.591Z</time>
      </trkpt>
      <trkpt lat="44.0604" lon="5.32087">
        <ele>674</ele>
        <time>2020-07-11T07:42:17.591Z</time>
      </trkpt>
      <trkpt lat="44.06036" lon="5.32088">
        <ele>674</ele>
        <time>2020-07-11T07:42:18.590Z</time>
      </trkpt>
      <trkpt lat="44.06031" lon="5.3209">
        <ele>674</ele>
        <time>2020-07-11T07:42:19.591Z</time>
      </trkpt>
      <trkpt lat="44.06027" lon="5.32092">
        <ele>674</ele>
        <time>2020-07-11T07:42:20.591Z</time>
      </trkpt>
      <trkpt lat="44.06022" lon="5.32093">
        <ele>674</ele>
        <time>2020-07-11T07:42:21.590Z</time>
      </trkpt>
      <trkpt lat="44.06018" lon="5.32095">
        <ele>675</ele>
        <time>2020-07-11T07:42:22.591Z</time>
      </trkpt>
      <trkpt lat="44.06014" lon="5.32097">
        <ele>675</ele>
        <time>2020-07-11T07:42:23.590Z</time>
      </trkpt>
      <trkpt lat="44.0601" lon="5.32098">
        <ele>675</ele>
        <time>2020-07-11T07:42:24.591Z</time>
      </trkpt>
      <trkpt lat="44.06006" lon="5.321">
        <ele>676</ele>
        <time>2020-07-11T07:42:25.590Z</time>
      </trkpt>
      <trkpt lat="44.06001" lon="5.32102">
        <ele>676</ele>
        <time>2020-07-11T07:42:26.590Z</time>
      </trkpt>
      <trkpt lat="44.05997" lon="5.32103">
        <ele>676</ele>
        <time>2020-07-11T07:42:27.591Z</time>
      </trkpt>
      <trkpt lat="44.05993" lon="5.32105">
        <ele>677</ele>
        <time>2020-07-11T07:42:28.591Z</time>
      </trkpt>
      <trkpt lat="44.05989" lon="5.32106">
        <ele>677</ele>
        <time>2020-07-11T07:42:29.591Z</time>
      </trkpt>
      <trkpt lat="44.05985" lon="5.32108">
        <ele>677</ele>
        <time>2020-07-11T07:42:30.590Z</time>
      </trkpt>
      <trkpt lat="44.0598" lon="5.32109">
        <ele>678</ele>
        <time>2020-07-11T07:42:31.590Z</time>
      </trkpt>
      <trkpt lat="44.05976" lon="5.32111">
        <ele>678</ele>
        <time>2020-07-11T07:42:32.591Z</time>
      </trkpt>
      <trkpt lat="44.05972" lon="5.32113">
        <ele>678</ele>
        <time>2020-07-11T07:42:33.591Z</time>
      </trkpt>
      <trkpt lat="44.05968" lon="5.32115">
        <ele>678</ele>
        <time>2020-07-11T07:42:34.591Z</time>
      </trkpt>
      <trkpt lat="44.05964" lon="5.32118">
        <ele>678</ele>
        <time>2020-07-11T07:42:35.590Z</time>
      </trkpt>
      <trkpt lat="44.05961" lon="5.32122">
        <ele>679</ele>
        <time>2020-07-11T07:42:36.591Z</time>
      </trkpt>
      <trkpt lat="44.05958" lon="5.32125">
        <ele>679</ele>
        <time>2020-07-11T07:42:37.591Z</time>
      </trkpt>
      <trkpt lat="44.05955" lon="5.3213">
        <ele>679</ele>
        <time>2020-07-11T07:42:38.590Z</time>
      </trkpt>
      <trkpt lat="44.05953" lon="5.32135">
        <ele>679</ele>
        <time>2020-07-11T07:42:39.590Z</time>
      </trkpt>
      <trkpt lat="44.05952" lon="5.32141">
        <ele>678</ele>
        <time>2020-07-11T07:42:40.591Z</time>
      </trkpt>
      <trkpt lat="44.05952" lon="5.32145">
        <ele>678</ele>
        <time>2020-07-11T07:42:41.590Z</time>
      </trkpt>
      <trkpt lat="44.05952" lon="5.32152">
        <ele>678</ele>
        <time>2020-07-11T07:42:42.591Z</time>
      </trkpt>
      <trkpt lat="44.05953" lon="5.32158">
        <ele>678</ele>
        <time>2020-07-11T07:42:43.591Z</time>
      </trkpt>
      <trkpt lat="44.05955" lon="5.32163">
        <ele>678</ele>
        <time>2020-07-11T07:42:44.590Z</time>
      </trkpt>
      <trkpt lat="44.05956" lon="5.32169">
        <ele>678</ele>
        <time>2020-07-11T07:42:45.591Z</time>
      </trkpt>
      <trkpt lat="44.05958" lon="5.32175">
        <ele>678</ele>
        <time>2020-07-11T07:42:46.590Z</time>
      </trkpt>
      <trkpt lat="44.0596" lon="5.3218">
        <ele>678</ele>
        <time>2020-07-11T07:42:47.591Z</time>
      </trkpt>
      <trkpt lat="44.05961" lon="5.32185">
        <ele>678</ele>
        <time>2020-07-11T07:42:48.591Z</time>
      </trkpt>
      <trkpt lat="44.05963" lon="5.32192">
        <ele>678</ele>
        <time>2020-07-11T07:42:49.591Z</time>
      </trkpt>
      <trkpt lat="44.05963" lon="5.32198">
        <ele>678</ele>
        <time>2020-07-11T07:42:50.591Z</time>
      </trkpt>
      <trkpt lat="44.05964" lon="5.32204">
        <ele>678</ele>
        <time>2020-07-11T07:42:51.591Z</time>
      </trkpt>
      <trkpt lat="44.05964" lon="5.3221">
        <ele>678</ele>
        <time>2020-07-11T07:42:52.591Z</time>
      </trkpt>
      <trkpt lat="44.05964" lon="5.32216">
        <ele>678</ele>
        <time>2020-07-11T07:42:53.591Z</time>
      </trkpt>
      <trkpt lat="44.05964" lon="5.32222">
        <ele>677</ele>
        <time>2020-07-11T07:42:54.591Z</time>
      </trkpt>
      <trkpt lat="44.05963" lon="5.32228">
        <ele>677</ele>
        <time>2020-07-11T07:42:55.591Z</time>
      </trkpt>
      <trkpt lat="44.05963" lon="5.32234">
        <ele>677</ele>
        <time>2020-07-11T07:42:56.591Z</time>
      </trkpt>
      <trkpt lat="44.05962" lon="5.3224">
        <ele>676</ele>
        <time>2020-07-11T07:42:57.591Z</time>
      </trkpt>
      <trkpt lat="44.05961" lon="5.32246">
        <ele>676</ele>
        <time>2020-07-11T07:42:58.591Z</time>
      </trkpt>
      <trkpt lat="44.0596" lon="5.32252">
        <ele>676</ele>
        <time>2020-07-11T07:42:59.591Z</time>
      </trkpt>
      <trkpt lat="44.05958" lon="5.32258">
        <ele>676</ele>
        <time>2020-07-11T07:43:00.591Z</time>
      </trkpt>
      <trkpt lat="44.05957" lon="5.32264">
        <ele>676</ele>
        <time>2020-07-11T07:43:01.591Z</time>
      </trkpt>
      <trkpt lat="44.05955" lon="5.3227">
        <ele>676</ele>
        <time>2020-07-11T07:43:02.591Z</time>
      </trkpt>
      <trkpt lat="44.05953" lon="5.32276">
        <ele>677</ele>
        <time>2020-07-11T07:43:03.591Z</time>
      </trkpt>
      <trkpt lat="44.05951" lon="5.32282">
        <ele>677</ele>
        <time>2020-07-11T07:43:04.591Z</time>
      </trkpt>
      <trkpt lat="44.05948" lon="5.32288">
        <ele>677</ele>
        <time>2020-07-11T07:43:05.591Z</time>
      </trkpt>
      <trkpt lat="44.05946" lon="5.32294">
        <ele>677</ele>
        <time>2020-07-11T07:43:06.591Z</time>
      </trkpt>
      <trkpt lat="44.05944" lon="5.323">
        <ele>677</ele>
        <time>2020-07-11T07:43:07.590Z</time>
      </trkpt>
      <trkpt lat="44.05942" lon="5.32307">
        <ele>677</ele>
        <time>2020-07-11T07:43:08.591Z</time>
      </trkpt>
      <trkpt lat="44.0594" lon="5.32312">
        <ele>678</ele>
        <time>2020-07-11T07:43:09.590Z</time>
      </trkpt>
      <trkpt lat="44.05937" lon="5.3232">
        <ele>678</ele>
        <time>2020-07-11T07:43:10.591Z</time>
      </trkpt>
      <trkpt lat="44.05935" lon="5.32326">
        <ele>678</ele>
        <time>2020-07-11T07:43:11.591Z</time>
      </trkpt>
      <trkpt lat="44.05933" lon="5.32332">
        <ele>679</ele>
        <time>2020-07-11T07:43:12.591Z</time>
      </trkpt>
      <trkpt lat="44.0593" lon="5.32337">
        <ele>679</ele>
        <time>2020-07-11T07:43:13.591Z</time>
      </trkpt>
      <trkpt lat="44.05928" lon="5.32343">
        <ele>679</ele>
        <time>2020-07-11T07:43:14.591Z</time>
      </trkpt>
      <trkpt lat="44.05925" lon="5.32348">
        <ele>679</ele>
        <time>2020-07-11T07:43:15.591Z</time>
      </trkpt>
      <trkpt lat="44.05922" lon="5.32353">
        <ele>680</ele>
        <time>2020-07-11T07:43:16.591Z</time>
      </trkpt>
      <trkpt lat="44.05918" lon="5.32358">
        <ele>680</ele>
        <time>2020-07-11T07:43:17.591Z</time>
      </trkpt>
      <trkpt lat="44.05916" lon="5.32362">
        <ele>680</ele>
        <time>2020-07-11T07:43:18.590Z</time>
      </trkpt>
      <trkpt lat="44.05911" lon="5.32368">
        <ele>679</ele>
        <time>2020-07-11T07:43:19.590Z</time>
      </trkpt>
      <trkpt lat="44.05908" lon="5.32372">
        <ele>680</ele>
        <time>2020-07-11T07:43:20.590Z</time>
      </trkpt>
      <trkpt lat="44.05904" lon="5.32376">
        <ele>680</ele>
        <time>2020-07-11T07:43:21.591Z</time>
      </trkpt>
      <trkpt lat="44.05901" lon="5.32379">
        <ele>680</ele>
        <time>2020-07-11T07:43:22.591Z</time>
      </trkpt>
      <trkpt lat="44.05897" lon="5.32383">
        <ele>680</ele>
        <time>2020-07-11T07:43:23.590Z</time>
      </trkpt>
      <trkpt lat="44.05892" lon="5.32387">
        <ele>680</ele>
        <time>2020-07-11T07:43:24.591Z</time>
      </trkpt>
      <trkpt lat="44.05888" lon="5.32391">
        <ele>681</ele>
        <time>2020-07-11T07:43:25.591Z</time>
      </trkpt>
      <trkpt lat="44.05884" lon="5.32395">
        <ele>681</ele>
        <time>2020-07-11T07:43:26.591Z</time>
      </trkpt>
      <trkpt lat="44.0588" lon="5.32398">
        <ele>681</ele>
        <time>2020-07-11T07:43:27.591Z</time>
      </trkpt>
      <trkpt lat="44.05876" lon="5.32402">
        <ele>681</ele>
        <time>2020-07-11T07:43:28.591Z</time>
      </trkpt>
      <trkpt lat="44.05872" lon="5.32405">
        <ele>682</ele>
        <time>2020-07-11T07:43:29.590Z</time>
      </trkpt>
      <trkpt lat="44.05868" lon="5.32408">
        <ele>682</ele>
        <time>2020-07-11T07:43:30.591Z</time>
      </trkpt>
      <trkpt lat="44.05865" lon="5.32411">
        <ele>682</ele>
        <time>2020-07-11T07:43:31.591Z</time>
      </trkpt>
      <trkpt lat="44.0586" lon="5.32415">
        <ele>683</ele>
        <time>2020-07-11T07:43:32.591Z</time>
      </trkpt>
      <trkpt lat="44.05856" lon="5.32419">
        <ele>683</ele>
        <time>2020-07-11T07:43:33.590Z</time>
      </trkpt>
      <trkpt lat="44.05853" lon="5.32422">
        <ele>683</ele>
        <time>2020-07-11T07:43:34.590Z</time>
      </trkpt>
      <trkpt lat="44.05849" lon="5.32425">
        <ele>683</ele>
        <time>2020-07-11T07:43:35.590Z</time>
      </trkpt>
      <trkpt lat="44.05845" lon="5.32429">
        <ele>684</ele>
        <time>2020-07-11T07:43:36.591Z</time>
      </trkpt>
      <trkpt lat="44.05841" lon="5.32432">
        <ele>684</ele>
        <time>2020-07-11T07:43:37.591Z</time>
      </trkpt>
      <trkpt lat="44.05837" lon="5.32436">
        <ele>684</ele>
        <time>2020-07-11T07:43:38.590Z</time>
      </trkpt>
      <trkpt lat="44.05833" lon="5.32439">
        <ele>684</ele>
        <time>2020-07-11T07:43:39.591Z</time>
      </trkpt>
      <trkpt lat="44.05829" lon="5.32442">
        <ele>684</ele>
        <time>2020-07-11T07:43:40.591Z</time>
      </trkpt>
      <trkpt lat="44.05826" lon="5.32445">
        <ele>684</ele>
        <time>2020-07-11T07:43:41.590Z</time>
      </trkpt>
      <trkpt lat="44.05821" lon="5.32449">
        <ele>684</ele>
        <time>2020-07-11T07:43:42.590Z</time>
      </trkpt>
      <trkpt lat="44.05817" lon="5.32452">
        <ele>684</ele>
        <time>2020-07-11T07:43:43.590Z</time>
      </trkpt>
      <trkpt lat="44.05813" lon="5.32455">
        <ele>684</ele>
        <time>2020-07-11T07:43:44.591Z</time>
      </trkpt>
      <trkpt lat="44.05809" lon="5.32459">
        <ele>684</ele>
        <time>2020-07-11T07:43:45.590Z</time>
      </trkpt>
      <trkpt lat="44.05806" lon="5.32462">
        <ele>684</ele>
        <time>2020-07-11T07:43:46.590Z</time>
      </trkpt>
      <trkpt lat="44.05801" lon="5.32466">
        <ele>684</ele>
        <time>2020-07-11T07:43:47.591Z</time>
      </trkpt>
      <trkpt lat="44.05797" lon="5.3247">
        <ele>685</ele>
        <time>2020-07-11T07:43:48.591Z</time>
      </trkpt>
      <trkpt lat="44.05793" lon="5.32474">
        <ele>685</ele>
        <time>2020-07-11T07:43:49.591Z</time>
      </trkpt>
      <trkpt lat="44.0579" lon="5.32478">
        <ele>686</ele>
        <time>2020-07-11T07:43:50.591Z</time>
      </trkpt>
      <trkpt lat="44.05787" lon="5.32482">
        <ele>686</ele>
        <time>2020-07-11T07:43:51.591Z</time>
      </trkpt>
      <trkpt lat="44.05783" lon="5.32487">
        <ele>686</ele>
        <time>2020-07-11T07:43:52.591Z</time>
      </trkpt>
      <trkpt lat="44.0578" lon="5.32491">
        <ele>686</ele>
        <time>2020-07-11T07:43:53.591Z</time>
      </trkpt>
      <trkpt lat="44.05778" lon="5.32495">
        <ele>686</ele>
        <time>2020-07-11T07:43:54.590Z</time>
      </trkpt>
      <trkpt lat="44.05775" lon="5.325">
        <ele>686</ele>
        <time>2020-07-11T07:43:55.591Z</time>
      </trkpt>
      <trkpt lat="44.05772" lon="5.32507">
        <ele>686</ele>
        <time>2020-07-11T07:43:56.590Z</time>
      </trkpt>
      <trkpt lat="44.05769" lon="5.32512">
        <ele>687</ele>
        <time>2020-07-11T07:43:57.591Z</time>
      </trkpt>
      <trkpt lat="44.05767" lon="5.32518">
        <ele>687</ele>
        <time>2020-07-11T07:43:58.591Z</time>
      </trkpt>
      <trkpt lat="44.05765" lon="5.32523">
        <ele>688</ele>
        <time>2020-07-11T07:43:59.591Z</time>
      </trkpt>
      <trkpt lat="44.05763" lon="5.32528">
        <ele>688</ele>
        <time>2020-07-11T07:44:00.591Z</time>
      </trkpt>
      <trkpt lat="44.0576" lon="5.32534">
        <ele>688</ele>
        <time>2020-07-11T07:44:01.591Z</time>
      </trkpt>
      <trkpt lat="44.05757" lon="5.3254">
        <ele>688</ele>
        <time>2020-07-11T07:44:02.590Z</time>
      </trkpt>
      <trkpt lat="44.05755" lon="5.32545">
        <ele>688</ele>
        <time>2020-07-11T07:44:03.591Z</time>
      </trkpt>
      <trkpt lat="44.05752" lon="5.32549">
        <ele>687</ele>
        <time>2020-07-11T07:44:04.591Z</time>
      </trkpt>
      <trkpt lat="44.05748" lon="5.32555">
        <ele>687</ele>
        <time>2020-07-11T07:44:05.591Z</time>
      </trkpt>
      <trkpt lat="44.05745" lon="5.3256">
        <ele>687</ele>
        <time>2020-07-11T07:44:06.590Z</time>
      </trkpt>
      <trkpt lat="44.05741" lon="5.32563">
        <ele>687</ele>
        <time>2020-07-11T07:44:07.591Z</time>
      </trkpt>
      <trkpt lat="44.05736" lon="5.32567">
        <ele>687</ele>
        <time>2020-07-11T07:44:08.591Z</time>
      </trkpt>
      <trkpt lat="44.05732" lon="5.3257">
        <ele>687</ele>
        <time>2020-07-11T07:44:09.591Z</time>
      </trkpt>
      <trkpt lat="44.05728" lon="5.32573">
        <ele>688</ele>
        <time>2020-07-11T07:44:10.590Z</time>
      </trkpt>
      <trkpt lat="44.05724" lon="5.32576">
        <ele>688</ele>
        <time>2020-07-11T07:44:11.591Z</time>
      </trkpt>
      <trkpt lat="44.0572" lon="5.3258">
        <ele>688</ele>
        <time>2020-07-11T07:44:12.591Z</time>
      </trkpt>
      <trkpt lat="44.05717" lon="5.32583">
        <ele>689</ele>
        <time>2020-07-11T07:44:13.591Z</time>
      </trkpt>
      <trkpt lat="44.05713" lon="5.32588">
        <ele>689</ele>
        <time>2020-07-11T07:44:14.591Z</time>
      </trkpt>
      <trkpt lat="44.0571" lon="5.32593">
        <ele>689</ele>
        <time>2020-07-11T07:44:15.591Z</time>
      </trkpt>
      <trkpt lat="44.05708" lon="5.32598">
        <ele>689</ele>
        <time>2020-07-11T07:44:16.590Z</time>
      </trkpt>
      <trkpt lat="44.05706" lon="5.32603">
        <ele>689</ele>
        <time>2020-07-11T07:44:17.591Z</time>
      </trkpt>
      <trkpt lat="44.05704" lon="5.32609">
        <ele>689</ele>
        <time>2020-07-11T07:44:18.591Z</time>
      </trkpt>
      <trkpt lat="44.05703" lon="5.32616">
        <ele>689</ele>
        <time>2020-07-11T07:44:19.590Z</time>
      </trkpt>
      <trkpt lat="44.05701" lon="5.32622">
        <ele>690</ele>
        <time>2020-07-11T07:44:20.591Z</time>
      </trkpt>
      <trkpt lat="44.057" lon="5.32629">
        <ele>690</ele>
        <time>2020-07-11T07:44:21.591Z</time>
      </trkpt>
      <trkpt lat="44.05699" lon="5.32635">
        <ele>691</ele>
        <time>2020-07-11T07:44:22.590Z</time>
      </trkpt>
      <trkpt lat="44.05697" lon="5.32642">
        <ele>692</ele>
        <time>2020-07-11T07:44:23.591Z</time>
      </trkpt>
      <trkpt lat="44.05696" lon="5.32649">
        <ele>692</ele>
        <time>2020-07-11T07:44:24.591Z</time>
      </trkpt>
      <trkpt lat="44.05694" lon="5.32656">
        <ele>693</ele>
        <time>2020-07-11T07:44:25.591Z</time>
      </trkpt>
      <trkpt lat="44.05692" lon="5.32662">
        <ele>693</ele>
        <time>2020-07-11T07:44:26.590Z</time>
      </trkpt>
      <trkpt lat="44.0569" lon="5.32668">
        <ele>694</ele>
        <time>2020-07-11T07:44:27.590Z</time>
      </trkpt>
      <trkpt lat="44.05687" lon="5.32674">
        <ele>694</ele>
        <time>2020-07-11T07:44:28.591Z</time>
      </trkpt>
      <trkpt lat="44.05684" lon="5.32679">
        <ele>694</ele>
        <time>2020-07-11T07:44:29.591Z</time>
      </trkpt>
      <trkpt lat="44.05681" lon="5.32684">
        <ele>695</ele>
        <time>2020-07-11T07:44:30.590Z</time>
      </trkpt>
      <trkpt lat="44.05677" lon="5.32688">
        <ele>695</ele>
        <time>2020-07-11T07:44:31.591Z</time>
      </trkpt>
      <trkpt lat="44.05675" lon="5.32693">
        <ele>695</ele>
        <time>2020-07-11T07:44:32.591Z</time>
      </trkpt>
      <trkpt lat="44.05672" lon="5.32698">
        <ele>696</ele>
        <time>2020-07-11T07:44:33.590Z</time>
      </trkpt>
      <trkpt lat="44.05661" lon="5.3273">
        <ele>696</ele>
        <time>2020-07-11T07:44:38.591Z</time>
      </trkpt>
      <trkpt lat="44.05661" lon="5.32734">
        <ele>696</ele>
        <time>2020-07-11T07:44:39.591Z</time>
      </trkpt>
      <trkpt lat="44.05663" lon="5.32743">
        <ele>695</ele>
        <time>2020-07-11T07:44:40.591Z</time>
      </trkpt>
      <trkpt lat="44.05663" lon="5.32746">
        <ele>695</ele>
        <time>2020-07-11T07:44:41.591Z</time>
      </trkpt>
      <trkpt lat="44.05663" lon="5.32756">
        <ele>695</ele>
        <time>2020-07-11T07:44:42.591Z</time>
      </trkpt>
      <trkpt lat="44.05662" lon="5.32762">
        <ele>695</ele>
        <time>2020-07-11T07:44:43.591Z</time>
      </trkpt>
      <trkpt lat="44.05661" lon="5.3277">
        <ele>695</ele>
        <time>2020-07-11T07:44:44.591Z</time>
      </trkpt>
      <trkpt lat="44.05659" lon="5.32776">
        <ele>696</ele>
        <time>2020-07-11T07:44:45.591Z</time>
      </trkpt>
      <trkpt lat="44.05656" lon="5.32781">
        <ele>696</ele>
        <time>2020-07-11T07:44:46.590Z</time>
      </trkpt>
      <trkpt lat="44.05653" lon="5.32786">
        <ele>696</ele>
        <time>2020-07-11T07:44:47.591Z</time>
      </trkpt>
      <trkpt lat="44.05649" lon="5.32791">
        <ele>696</ele>
        <time>2020-07-11T07:44:48.591Z</time>
      </trkpt>
      <trkpt lat="44.05645" lon="5.32796">
        <ele>696</ele>
        <time>2020-07-11T07:44:49.590Z</time>
      </trkpt>
      <trkpt lat="44.05641" lon="5.32799">
        <ele>696</ele>
        <time>2020-07-11T07:44:50.591Z</time>
      </trkpt>
      <trkpt lat="44.05636" lon="5.32803">
        <ele>695</ele>
        <time>2020-07-11T07:44:51.591Z</time>
      </trkpt>
      <trkpt lat="44.05632" lon="5.32807">
        <ele>695</ele>
        <time>2020-07-11T07:44:52.591Z</time>
      </trkpt>
      <trkpt lat="44.05628" lon="5.32811">
        <ele>695</ele>
        <time>2020-07-11T07:44:53.591Z</time>
      </trkpt>
      <trkpt lat="44.05623" lon="5.32814">
        <ele>695</ele>
        <time>2020-07-11T07:44:54.591Z</time>
      </trkpt>
      <trkpt lat="44.05619" lon="5.32817">
        <ele>695</ele>
        <time>2020-07-11T07:44:55.591Z</time>
      </trkpt>
      <trkpt lat="44.05615" lon="5.3282">
        <ele>695</ele>
        <time>2020-07-11T07:44:56.591Z</time>
      </trkpt>
      <trkpt lat="44.0561" lon="5.32823">
        <ele>696</ele>
        <time>2020-07-11T07:44:57.590Z</time>
      </trkpt>
      <trkpt lat="44.05606" lon="5.32826">
        <ele>696</ele>
        <time>2020-07-11T07:44:58.590Z</time>
      </trkpt>
      <trkpt lat="44.05601" lon="5.32829">
        <ele>697</ele>
        <time>2020-07-11T07:44:59.591Z</time>
      </trkpt>
      <trkpt lat="44.05596" lon="5.32832">
        <ele>697</ele>
        <time>2020-07-11T07:45:00.591Z</time>
      </trkpt>
      <trkpt lat="44.05592" lon="5.32836">
        <ele>697</ele>
        <time>2020-07-11T07:45:01.591Z</time>
      </trkpt>
      <trkpt lat="44.05587" lon="5.32839">
        <ele>697</ele>
        <time>2020-07-11T07:45:02.590Z</time>
      </trkpt>
      <trkpt lat="44.05582" lon="5.32841">
        <ele>697</ele>
        <time>2020-07-11T07:45:03.591Z</time>
      </trkpt>
      <trkpt lat="44.05579" lon="5.32843">
        <ele>697</ele>
        <time>2020-07-11T07:45:04.590Z</time>
      </trkpt>
      <trkpt lat="44.05573" lon="5.32845">
        <ele>697</ele>
        <time>2020-07-11T07:45:05.590Z</time>
      </trkpt>
      <trkpt lat="44.05568" lon="5.32846">
        <ele>697</ele>
        <time>2020-07-11T07:45:06.590Z</time>
      </trkpt>
      <trkpt lat="44.05563" lon="5.32847">
        <ele>697</ele>
        <time>2020-07-11T07:45:07.590Z</time>
      </trkpt>
      <trkpt lat="44.05559" lon="5.32847">
        <ele>698</ele>
        <time>2020-07-11T07:45:08.591Z</time>
      </trkpt>
      <trkpt lat="44.05554" lon="5.32848">
        <ele>698</ele>
        <time>2020-07-11T07:45:09.591Z</time>
      </trkpt>
      <trkpt lat="44.05548" lon="5.32848">
        <ele>698</ele>
        <time>2020-07-11T07:45:10.591Z</time>
      </trkpt>
      <trkpt lat="44.05543" lon="5.32848">
        <ele>698</ele>
        <time>2020-07-11T07:45:11.590Z</time>
      </trkpt>
      <trkpt lat="44.05538" lon="5.32848">
        <ele>698</ele>
        <time>2020-07-11T07:45:12.590Z</time>
      </trkpt>
      <trkpt lat="44.05534" lon="5.32848">
        <ele>698</ele>
        <time>2020-07-11T07:45:13.590Z</time>
      </trkpt>
      <trkpt lat="44.05527" lon="5.32849">
        <ele>698</ele>
        <time>2020-07-11T07:45:14.591Z</time>
      </trkpt>
      <trkpt lat="44.05522" lon="5.32849">
        <ele>698</ele>
        <time>2020-07-11T07:45:15.591Z</time>
      </trkpt>
      <trkpt lat="44.05517" lon="5.3285">
        <ele>698</ele>
        <time>2020-07-11T07:45:16.591Z</time>
      </trkpt>
      <trkpt lat="44.05513" lon="5.32852">
        <ele>698</ele>
        <time>2020-07-11T07:45:17.591Z</time>
      </trkpt>
      <trkpt lat="44.05507" lon="5.32855">
        <ele>698</ele>
        <time>2020-07-11T07:45:18.591Z</time>
      </trkpt>
      <trkpt lat="44.05503" lon="5.32858">
        <ele>698</ele>
        <time>2020-07-11T07:45:19.591Z</time>
      </trkpt>
      <trkpt lat="44.05499" lon="5.32861">
        <ele>699</ele>
        <time>2020-07-11T07:45:20.591Z</time>
      </trkpt>
      <trkpt lat="44.05495" lon="5.32866">
        <ele>699</ele>
        <time>2020-07-11T07:45:21.590Z</time>
      </trkpt>
      <trkpt lat="44.05491" lon="5.3287">
        <ele>699</ele>
        <time>2020-07-11T07:45:22.591Z</time>
      </trkpt>
      <trkpt lat="44.05488" lon="5.32875">
        <ele>700</ele>
        <time>2020-07-11T07:45:23.590Z</time>
      </trkpt>
      <trkpt lat="44.05485" lon="5.3288">
        <ele>701</ele>
        <time>2020-07-11T07:45:24.590Z</time>
      </trkpt>
      <trkpt lat="44.05482" lon="5.32885">
        <ele>701</ele>
        <time>2020-07-11T07:45:25.590Z</time>
      </trkpt>
      <trkpt lat="44.0548" lon="5.3289">
        <ele>702</ele>
        <time>2020-07-11T07:45:26.590Z</time>
      </trkpt>
      <trkpt lat="44.05476" lon="5.32896">
        <ele>703</ele>
        <time>2020-07-11T07:45:27.591Z</time>
      </trkpt>
      <trkpt lat="44.05472" lon="5.32901">
        <ele>703</ele>
        <time>2020-07-11T07:45:28.591Z</time>
      </trkpt>
      <trkpt lat="44.05468" lon="5.32906">
        <ele>704</ele>
        <time>2020-07-11T07:45:29.591Z</time>
      </trkpt>
      <trkpt lat="44.05465" lon="5.32909">
        <ele>704</ele>
        <time>2020-07-11T07:45:30.591Z</time>
      </trkpt>
      <trkpt lat="44.0546" lon="5.32911">
        <ele>705</ele>
        <time>2020-07-11T07:45:31.591Z</time>
      </trkpt>
      <trkpt lat="44.05454" lon="5.32912">
        <ele>705</ele>
        <time>2020-07-11T07:45:32.591Z</time>
      </trkpt>
      <trkpt lat="44.05448" lon="5.32911">
        <ele>705</ele>
        <time>2020-07-11T07:45:33.591Z</time>
      </trkpt>
      <trkpt lat="44.05443" lon="5.3291">
        <ele>705</ele>
        <time>2020-07-11T07:45:34.591Z</time>
      </trkpt>
      <trkpt lat="44.05439" lon="5.32909">
        <ele>704</ele>
        <time>2020-07-11T07:45:35.590Z</time>
      </trkpt>
      <trkpt lat="44.05434" lon="5.32907">
        <ele>705</ele>
        <time>2020-07-11T07:45:36.591Z</time>
      </trkpt>
      <trkpt lat="44.05427" lon="5.32906">
        <ele>705</ele>
        <time>2020-07-11T07:45:37.590Z</time>
      </trkpt>
      <trkpt lat="44.05422" lon="5.32906">
        <ele>705</ele>
        <time>2020-07-11T07:45:38.591Z</time>
      </trkpt>
      <trkpt lat="44.05417" lon="5.32907">
        <ele>705</ele>
        <time>2020-07-11T07:45:39.591Z</time>
      </trkpt>
      <trkpt lat="44.05413" lon="5.32909">
        <ele>705</ele>
        <time>2020-07-11T07:45:40.591Z</time>
      </trkpt>
      <trkpt lat="44.05408" lon="5.32913">
        <ele>705</ele>
        <time>2020-07-11T07:45:41.591Z</time>
      </trkpt>
      <trkpt lat="44.05403" lon="5.32917">
        <ele>705</ele>
        <time>2020-07-11T07:45:42.590Z</time>
      </trkpt>
      <trkpt lat="44.05399" lon="5.32922">
        <ele>705</ele>
        <time>2020-07-11T07:45:43.591Z</time>
      </trkpt>
      <trkpt lat="44.05396" lon="5.32926">
        <ele>704</ele>
        <time>2020-07-11T07:45:44.591Z</time>
      </trkpt>
      <trkpt lat="44.05392" lon="5.32931">
        <ele>704</ele>
        <time>2020-07-11T07:45:45.590Z</time>
      </trkpt>
      <trkpt lat="44.05386" lon="5.32938">
        <ele>704</ele>
        <time>2020-07-11T07:45:46.590Z</time>
      </trkpt>
      <trkpt lat="44.05381" lon="5.32943">
        <ele>705</ele>
        <time>2020-07-11T07:45:47.591Z</time>
      </trkpt>
      <trkpt lat="44.05375" lon="5.32947">
        <ele>705</ele>
        <time>2020-07-11T07:45:48.591Z</time>
      </trkpt>
      <trkpt lat="44.05371" lon="5.3295">
        <ele>706</ele>
        <time>2020-07-11T07:45:49.590Z</time>
      </trkpt>
      <trkpt lat="44.05364" lon="5.32953">
        <ele>706</ele>
        <time>2020-07-11T07:45:50.590Z</time>
      </trkpt>
      <trkpt lat="44.05357" lon="5.32955">
        <ele>707</ele>
        <time>2020-07-11T07:45:51.591Z</time>
      </trkpt>
      <trkpt lat="44.05352" lon="5.32956">
        <ele>707</ele>
        <time>2020-07-11T07:45:52.590Z</time>
      </trkpt>
      <trkpt lat="44.05346" lon="5.32957">
        <ele>707</ele>
        <time>2020-07-11T07:45:53.590Z</time>
      </trkpt>
      <trkpt lat="44.05339" lon="5.32958">
        <ele>707</ele>
        <time>2020-07-11T07:45:54.591Z</time>
      </trkpt>
      <trkpt lat="44.05331" lon="5.32958">
        <ele>707</ele>
        <time>2020-07-11T07:45:55.591Z</time>
      </trkpt>
      <trkpt lat="44.05324" lon="5.32959">
        <ele>708</ele>
        <time>2020-07-11T07:45:56.590Z</time>
      </trkpt>
      <trkpt lat="44.05318" lon="5.3296">
        <ele>708</ele>
        <time>2020-07-11T07:45:57.590Z</time>
      </trkpt>
      <trkpt lat="44.05311" lon="5.32962">
        <ele>708</ele>
        <time>2020-07-11T07:45:58.590Z</time>
      </trkpt>
      <trkpt lat="44.05305" lon="5.32965">
        <ele>708</ele>
        <time>2020-07-11T07:45:59.590Z</time>
      </trkpt>
      <trkpt lat="44.05299" lon="5.32968">
        <ele>708</ele>
        <time>2020-07-11T07:46:00.590Z</time>
      </trkpt>
      <trkpt lat="44.05294" lon="5.32974">
        <ele>708</ele>
        <time>2020-07-11T07:46:01.590Z</time>
      </trkpt>
      <trkpt lat="44.0529" lon="5.32979">
        <ele>708</ele>
        <time>2020-07-11T07:46:02.590Z</time>
      </trkpt>
      <trkpt lat="44.05286" lon="5.32987">
        <ele>708</ele>
        <time>2020-07-11T07:46:03.591Z</time>
      </trkpt>
      <trkpt lat="44.05284" lon="5.32995">
        <ele>708</ele>
        <time>2020-07-11T07:46:04.591Z</time>
      </trkpt>
      <trkpt lat="44.05282" lon="5.33003">
        <ele>708</ele>
        <time>2020-07-11T07:46:05.591Z</time>
      </trkpt>
      <trkpt lat="44.05281" lon="5.33013">
        <ele>708</ele>
        <time>2020-07-11T07:46:06.591Z</time>
      </trkpt>
      <trkpt lat="44.0528" lon="5.33022">
        <ele>707</ele>
        <time>2020-07-11T07:46:07.590Z</time>
      </trkpt>
      <trkpt lat="44.05279" lon="5.33031">
        <ele>707</ele>
        <time>2020-07-11T07:46:08.591Z</time>
      </trkpt>
      <trkpt lat="44.05277" lon="5.33041">
        <ele>707</ele>
        <time>2020-07-11T07:46:09.590Z</time>
      </trkpt>
      <trkpt lat="44.05275" lon="5.3305">
        <ele>707</ele>
        <time>2020-07-11T07:46:10.591Z</time>
      </trkpt>
      <trkpt lat="44.05272" lon="5.33056">
        <ele>707</ele>
        <time>2020-07-11T07:46:11.591Z</time>
      </trkpt>
      <trkpt lat="44.05268" lon="5.33065">
        <ele>707</ele>
        <time>2020-07-11T07:46:12.590Z</time>
      </trkpt>
      <trkpt lat="44.05263" lon="5.33071">
        <ele>707</ele>
        <time>2020-07-11T07:46:13.591Z</time>
      </trkpt>
      <trkpt lat="44.05257" lon="5.33077">
        <ele>707</ele>
        <time>2020-07-11T07:46:14.590Z</time>
      </trkpt>
      <trkpt lat="44.05252" lon="5.33082">
        <ele>707</ele>
        <time>2020-07-11T07:46:15.591Z</time>
      </trkpt>
      <trkpt lat="44.05247" lon="5.33086">
        <ele>707</ele>
        <time>2020-07-11T07:46:16.591Z</time>
      </trkpt>
      <trkpt lat="44.0524" lon="5.33092">
        <ele>707</ele>
        <time>2020-07-11T07:46:17.590Z</time>
      </trkpt>
      <trkpt lat="44.05234" lon="5.33097">
        <ele>707</ele>
        <time>2020-07-11T07:46:18.591Z</time>
      </trkpt>
      <trkpt lat="44.05228" lon="5.33101">
        <ele>707</ele>
        <time>2020-07-11T07:46:19.590Z</time>
      </trkpt>
      <trkpt lat="44.05223" lon="5.33104">
        <ele>707</ele>
        <time>2020-07-11T07:46:20.590Z</time>
      </trkpt>
      <trkpt lat="44.05216" lon="5.3311">
        <ele>707</ele>
        <time>2020-07-11T07:46:21.590Z</time>
      </trkpt>
      <trkpt lat="44.0521" lon="5.33114">
        <ele>708</ele>
        <time>2020-07-11T07:46:22.591Z</time>
      </trkpt>
      <trkpt lat="44.05204" lon="5.33118">
        <ele>709</ele>
        <time>2020-07-11T07:46:23.591Z</time>
      </trkpt>
      <trkpt lat="44.05199" lon="5.33121">
        <ele>710</ele>
        <time>2020-07-11T07:46:24.591Z</time>
      </trkpt>
      <trkpt lat="44.05193" lon="5.33125">
        <ele>710</ele>
        <time>2020-07-11T07:46:25.590Z</time>
      </trkpt>
      <trkpt lat="44.05187" lon="5.33129">
        <ele>711</ele>
        <time>2020-07-11T07:46:26.591Z</time>
      </trkpt>
      <trkpt lat="44.05182" lon="5.33133">
        <ele>712</ele>
        <time>2020-07-11T07:46:27.591Z</time>
      </trkpt>
      <trkpt lat="44.05177" lon="5.33137">
        <ele>712</ele>
        <time>2020-07-11T07:46:28.590Z</time>
      </trkpt>
      <trkpt lat="44.05174" lon="5.3314">
        <ele>712</ele>
        <time>2020-07-11T07:46:29.591Z</time>
      </trkpt>
      <trkpt lat="44.05169" lon="5.33147">
        <ele>712</ele>
        <time>2020-07-11T07:46:30.591Z</time>
      </trkpt>
      <trkpt lat="44.05165" lon="5.33152">
        <ele>712</ele>
        <time>2020-07-11T07:46:31.591Z</time>
      </trkpt>
      <trkpt lat="44.05162" lon="5.33158">
        <ele>712</ele>
        <time>2020-07-11T07:46:32.591Z</time>
      </trkpt>
      <trkpt lat="44.05159" lon="5.33165">
        <ele>711</ele>
        <time>2020-07-11T07:46:33.591Z</time>
      </trkpt>
      <trkpt lat="44.05157" lon="5.33172">
        <ele>711</ele>
        <time>2020-07-11T07:46:34.590Z</time>
      </trkpt>
      <trkpt lat="44.05155" lon="5.33179">
        <ele>710</ele>
        <time>2020-07-11T07:46:35.591Z</time>
      </trkpt>
      <trkpt lat="44.05154" lon="5.33187">
        <ele>710</ele>
        <time>2020-07-11T07:46:36.590Z</time>
      </trkpt>
      <trkpt lat="44.05153" lon="5.33195">
        <ele>710</ele>
        <time>2020-07-11T07:46:37.591Z</time>
      </trkpt>
      <trkpt lat="44.05152" lon="5.33204">
        <ele>710</ele>
        <time>2020-07-11T07:46:38.591Z</time>
      </trkpt>
      <trkpt lat="44.05151" lon="5.33212">
        <ele>709</ele>
        <time>2020-07-11T07:46:39.591Z</time>
      </trkpt>
      <trkpt lat="44.05149" lon="5.3322">
        <ele>709</ele>
        <time>2020-07-11T07:46:40.590Z</time>
      </trkpt>
      <trkpt lat="44.05148" lon="5.33228">
        <ele>709</ele>
        <time>2020-07-11T07:46:41.590Z</time>
      </trkpt>
      <trkpt lat="44.05146" lon="5.33235">
        <ele>709</ele>
        <time>2020-07-11T07:46:42.591Z</time>
      </trkpt>
      <trkpt lat="44.05143" lon="5.33241">
        <ele>709</ele>
        <time>2020-07-11T07:46:43.591Z</time>
      </trkpt>
      <trkpt lat="44.05139" lon="5.33246">
        <ele>709</ele>
        <time>2020-07-11T07:46:44.591Z</time>
      </trkpt>
      <trkpt lat="44.05134" lon="5.3325">
        <ele>708</ele>
        <time>2020-07-11T07:46:45.591Z</time>
      </trkpt>
      <trkpt lat="44.05128" lon="5.33253">
        <ele>708</ele>
        <time>2020-07-11T07:46:46.591Z</time>
      </trkpt>
      <trkpt lat="44.05122" lon="5.33254">
        <ele>709</ele>
        <time>2020-07-11T07:46:47.591Z</time>
      </trkpt>
      <trkpt lat="44.05116" lon="5.33254">
        <ele>709</ele>
        <time>2020-07-11T07:46:48.591Z</time>
      </trkpt>
      <trkpt lat="44.05109" lon="5.33254">
        <ele>710</ele>
        <time>2020-07-11T07:46:49.591Z</time>
      </trkpt>
      <trkpt lat="44.05103" lon="5.33254">
        <ele>710</ele>
        <time>2020-07-11T07:46:50.590Z</time>
      </trkpt>
      <trkpt lat="44.05097" lon="5.33255">
        <ele>711</ele>
        <time>2020-07-11T07:46:51.591Z</time>
      </trkpt>
      <trkpt lat="44.05091" lon="5.33256">
        <ele>712</ele>
        <time>2020-07-11T07:46:52.591Z</time>
      </trkpt>
      <trkpt lat="44.05085" lon="5.33259">
        <ele>713</ele>
        <time>2020-07-11T07:46:53.591Z</time>
      </trkpt>
      <trkpt lat="44.0508" lon="5.33262">
        <ele>714</ele>
        <time>2020-07-11T07:46:54.590Z</time>
      </trkpt>
      <trkpt lat="44.05075" lon="5.33265">
        <ele>714</ele>
        <time>2020-07-11T07:46:55.590Z</time>
      </trkpt>
      <trkpt lat="44.05071" lon="5.33268">
        <ele>714</ele>
        <time>2020-07-11T07:46:56.591Z</time>
      </trkpt>
      <trkpt lat="44.05065" lon="5.33273">
        <ele>715</ele>
        <time>2020-07-11T07:46:57.590Z</time>
      </trkpt>
      <trkpt lat="44.0506" lon="5.33276">
        <ele>716</ele>
        <time>2020-07-11T07:46:58.590Z</time>
      </trkpt>
      <trkpt lat="44.05055" lon="5.3328">
        <ele>716</ele>
        <time>2020-07-11T07:46:59.590Z</time>
      </trkpt>
      <trkpt lat="44.05051" lon="5.33284">
        <ele>717</ele>
        <time>2020-07-11T07:47:00.591Z</time>
      </trkpt>
      <trkpt lat="44.05046" lon="5.33289">
        <ele>717</ele>
        <time>2020-07-11T07:47:01.590Z</time>
      </trkpt>
      <trkpt lat="44.05042" lon="5.33294">
        <ele>718</ele>
        <time>2020-07-11T07:47:02.591Z</time>
      </trkpt>
      <trkpt lat="44.05037" lon="5.33298">
        <ele>718</ele>
        <time>2020-07-11T07:47:03.591Z</time>
      </trkpt>
      <trkpt lat="44.05033" lon="5.33303">
        <ele>718</ele>
        <time>2020-07-11T07:47:04.590Z</time>
      </trkpt>
      <trkpt lat="44.05028" lon="5.33306">
        <ele>718</ele>
        <time>2020-07-11T07:47:05.591Z</time>
      </trkpt>
      <trkpt lat="44.05023" lon="5.33309">
        <ele>718</ele>
        <time>2020-07-11T07:47:06.591Z</time>
      </trkpt>
      <trkpt lat="44.05018" lon="5.33313">
        <ele>718</ele>
        <time>2020-07-11T07:47:07.591Z</time>
      </trkpt>
      <trkpt lat="44.05013" lon="5.33316">
        <ele>718</ele>
        <time>2020-07-11T07:47:08.591Z</time>
      </trkpt>
      <trkpt lat="44.05008" lon="5.33319">
        <ele>718</ele>
        <time>2020-07-11T07:47:09.591Z</time>
      </trkpt>
      <trkpt lat="44.05003" lon="5.33322">
        <ele>718</ele>
        <time>2020-07-11T07:47:10.591Z</time>
      </trkpt>
      <trkpt lat="44.04998" lon="5.33323">
        <ele>718</ele>
        <time>2020-07-11T07:47:11.591Z</time>
      </trkpt>
      <trkpt lat="44.04993" lon="5.33325">
        <ele>718</ele>
        <time>2020-07-11T07:47:12.590Z</time>
      </trkpt>
      <trkpt lat="44.04987" lon="5.33325">
        <ele>718</ele>
        <time>2020-07-11T07:47:13.590Z</time>
      </trkpt>
      <trkpt lat="44.04982" lon="5.33325">
        <ele>718</ele>
        <time>2020-07-11T07:47:14.590Z</time>
      </trkpt>
      <trkpt lat="44.04976" lon="5.33325">
        <ele>718</ele>
        <time>2020-07-11T07:47:15.591Z</time>
      </trkpt>
      <trkpt lat="44.0497" lon="5.33325">
        <ele>718</ele>
        <time>2020-07-11T07:47:16.591Z</time>
      </trkpt>
      <trkpt lat="44.04965" lon="5.33325">
        <ele>718</ele>
        <time>2020-07-11T07:47:17.591Z</time>
      </trkpt>
      <trkpt lat="44.04959" lon="5.33324">
        <ele>718</ele>
        <time>2020-07-11T07:47:18.590Z</time>
      </trkpt>
      <trkpt lat="44.04904" lon="5.33331">
        <ele>719</ele>
        <time>2020-07-11T07:47:28.591Z</time>
      </trkpt>
      <trkpt lat="44.04901" lon="5.33333">
        <ele>719</ele>
        <time>2020-07-11T07:47:29.591Z</time>
      </trkpt>
      <trkpt lat="44.049" lon="5.33339">
        <ele>720</ele>
        <time>2020-07-11T07:47:30.591Z</time>
      </trkpt>
      <trkpt lat="44.04898" lon="5.33344">
        <ele>721</ele>
        <time>2020-07-11T07:47:31.591Z</time>
      </trkpt>
      <trkpt lat="44.04898" lon="5.33351">
        <ele>721</ele>
        <time>2020-07-11T07:47:32.591Z</time>
      </trkpt>
      <trkpt lat="44.04897" lon="5.33359">
        <ele>722</ele>
        <time>2020-07-11T07:47:33.591Z</time>
      </trkpt>
      <trkpt lat="44.04897" lon="5.33369">
        <ele>723</ele>
        <time>2020-07-11T07:47:34.591Z</time>
      </trkpt>
      <trkpt lat="44.04898" lon="5.33378">
        <ele>724</ele>
        <time>2020-07-11T07:47:35.591Z</time>
      </trkpt>
      <trkpt lat="44.04898" lon="5.33386">
        <ele>725</ele>
        <time>2020-07-11T07:47:36.591Z</time>
      </trkpt>
      <trkpt lat="44.04899" lon="5.33395">
        <ele>726</ele>
        <time>2020-07-11T07:47:37.591Z</time>
      </trkpt>
      <trkpt lat="44.04899" lon="5.33403">
        <ele>727</ele>
        <time>2020-07-11T07:47:38.590Z</time>
      </trkpt>
      <trkpt lat="44.04899" lon="5.33411">
        <ele>727</ele>
        <time>2020-07-11T07:47:39.591Z</time>
      </trkpt>
      <trkpt lat="44.04898" lon="5.33418">
        <ele>727</ele>
        <time>2020-07-11T07:47:40.591Z</time>
      </trkpt>
      <trkpt lat="44.04895" lon="5.33425">
        <ele>727</ele>
        <time>2020-07-11T07:47:41.591Z</time>
      </trkpt>
      <trkpt lat="44.04891" lon="5.3343">
        <ele>727</ele>
        <time>2020-07-11T07:47:42.591Z</time>
      </trkpt>
      <trkpt lat="44.04887" lon="5.33434">
        <ele>727</ele>
        <time>2020-07-11T07:47:43.591Z</time>
      </trkpt>
      <trkpt lat="44.04881" lon="5.33436">
        <ele>727</ele>
        <time>2020-07-11T07:47:44.591Z</time>
      </trkpt>
      <trkpt lat="44.04876" lon="5.33437">
        <ele>728</ele>
        <time>2020-07-11T07:47:45.591Z</time>
      </trkpt>
      <trkpt lat="44.04871" lon="5.33434">
        <ele>728</ele>
        <time>2020-07-11T07:47:46.591Z</time>
      </trkpt>
      <trkpt lat="44.04866" lon="5.33428">
        <ele>728</ele>
        <time>2020-07-11T07:47:47.591Z</time>
      </trkpt>
      <trkpt lat="44.04862" lon="5.33422">
        <ele>728</ele>
        <time>2020-07-11T07:47:48.591Z</time>
      </trkpt>
      <trkpt lat="44.04858" lon="5.33414">
        <ele>729</ele>
        <time>2020-07-11T07:47:49.591Z</time>
      </trkpt>
      <trkpt lat="44.04856" lon="5.33405">
        <ele>729</ele>
        <time>2020-07-11T07:47:50.591Z</time>
      </trkpt>
      <trkpt lat="44.04854" lon="5.33398">
        <ele>730</ele>
        <time>2020-07-11T07:47:51.591Z</time>
      </trkpt>
      <trkpt lat="44.04849" lon="5.3339">
        <ele>730</ele>
        <time>2020-07-11T07:47:52.590Z</time>
      </trkpt>
      <trkpt lat="44.04845" lon="5.33384">
        <ele>730</ele>
        <time>2020-07-11T07:47:53.591Z</time>
      </trkpt>
      <trkpt lat="44.0484" lon="5.33377">
        <ele>731</ele>
        <time>2020-07-11T07:47:54.591Z</time>
      </trkpt>
      <trkpt lat="44.04836" lon="5.3337">
        <ele>731</ele>
        <time>2020-07-11T07:47:55.591Z</time>
      </trkpt>
      <trkpt lat="44.04831" lon="5.33364">
        <ele>731</ele>
        <time>2020-07-11T07:47:56.590Z</time>
      </trkpt>
      <trkpt lat="44.04826" lon="5.33358">
        <ele>731</ele>
        <time>2020-07-11T07:47:57.590Z</time>
      </trkpt>
      <trkpt lat="44.04822" lon="5.33353">
        <ele>731</ele>
        <time>2020-07-11T07:47:58.591Z</time>
      </trkpt>
      <trkpt lat="44.04817" lon="5.33347">
        <ele>731</ele>
        <time>2020-07-11T07:47:59.590Z</time>
      </trkpt>
      <trkpt lat="44.04814" lon="5.33343">
        <ele>732</ele>
        <time>2020-07-11T07:48:00.591Z</time>
      </trkpt>
      <trkpt lat="44.04808" lon="5.33337">
        <ele>732</ele>
        <time>2020-07-11T07:48:01.590Z</time>
      </trkpt>
      <trkpt lat="44.04804" lon="5.33332">
        <ele>732</ele>
        <time>2020-07-11T07:48:02.591Z</time>
      </trkpt>
      <trkpt lat="44.048" lon="5.33327">
        <ele>732</ele>
        <time>2020-07-11T07:48:03.591Z</time>
      </trkpt>
      <trkpt lat="44.04795" lon="5.33322">
        <ele>732</ele>
        <time>2020-07-11T07:48:04.591Z</time>
      </trkpt>
      <trkpt lat="44.04791" lon="5.33317">
        <ele>732</ele>
        <time>2020-07-11T07:48:05.591Z</time>
      </trkpt>
      <trkpt lat="44.04786" lon="5.33312">
        <ele>733</ele>
        <time>2020-07-11T07:48:06.591Z</time>
      </trkpt>
      <trkpt lat="44.04782" lon="5.33307">
        <ele>733</ele>
        <time>2020-07-11T07:48:07.590Z</time>
      </trkpt>
      <trkpt lat="44.04778" lon="5.33302">
        <ele>733</ele>
        <time>2020-07-11T07:48:08.591Z</time>
      </trkpt>
      <trkpt lat="44.04772" lon="5.33297">
        <ele>733</ele>
        <time>2020-07-11T07:48:09.591Z</time>
      </trkpt>
      <trkpt lat="44.04754" lon="5.3325">
        <ele>734</ele>
        <time>2020-07-11T07:48:16.590Z</time>
      </trkpt>
      <trkpt lat="44.04756" lon="5.33242">
        <ele>735</ele>
        <time>2020-07-11T07:48:17.591Z</time>
      </trkpt>
      <trkpt lat="44.04753" lon="5.33236">
        <ele>736</ele>
        <time>2020-07-11T07:48:18.591Z</time>
      </trkpt>
      <trkpt lat="44.04749" lon="5.33227">
        <ele>737</ele>
        <time>2020-07-11T07:48:19.591Z</time>
      </trkpt>
      <trkpt lat="44.04747" lon="5.33221">
        <ele>738</ele>
        <time>2020-07-11T07:48:20.590Z</time>
      </trkpt>
      <trkpt lat="44.04743" lon="5.33212">
        <ele>739</ele>
        <time>2020-07-11T07:48:21.591Z</time>
      </trkpt>
      <trkpt lat="44.04738" lon="5.33206">
        <ele>739</ele>
        <time>2020-07-11T07:48:22.591Z</time>
      </trkpt>
      <trkpt lat="44.04734" lon="5.332">
        <ele>739</ele>
        <time>2020-07-11T07:48:23.590Z</time>
      </trkpt>
      <trkpt lat="44.04729" lon="5.33193">
        <ele>739</ele>
        <time>2020-07-11T07:48:24.591Z</time>
      </trkpt>
      <trkpt lat="44.04725" lon="5.33187">
        <ele>739</ele>
        <time>2020-07-11T07:48:25.591Z</time>
      </trkpt>
      <trkpt lat="44.04721" lon="5.33181">
        <ele>738</ele>
        <time>2020-07-11T07:48:26.591Z</time>
      </trkpt>
      <trkpt lat="44.04719" lon="5.33176">
        <ele>738</ele>
        <time>2020-07-11T07:48:27.591Z</time>
      </trkpt>
      <trkpt lat="44.04714" lon="5.33168">
        <ele>738</ele>
        <time>2020-07-11T07:48:28.591Z</time>
      </trkpt>
      <trkpt lat="44.0471" lon="5.33161">
        <ele>738</ele>
        <time>2020-07-11T07:48:29.591Z</time>
      </trkpt>
      <trkpt lat="44.04706" lon="5.33156">
        <ele>738</ele>
        <time>2020-07-11T07:48:30.591Z</time>
      </trkpt>
      <trkpt lat="44.04703" lon="5.33153">
        <ele>738</ele>
        <time>2020-07-11T07:48:31.591Z</time>
      </trkpt>
      <trkpt lat="44.04697" lon="5.33149">
        <ele>738</ele>
        <time>2020-07-11T07:48:32.591Z</time>
      </trkpt>
      <trkpt lat="44.04691" lon="5.33145">
        <ele>738</ele>
        <time>2020-07-11T07:48:33.590Z</time>
      </trkpt>
      <trkpt lat="44.04685" lon="5.33142">
        <ele>738</ele>
        <time>2020-07-11T07:48:34.590Z</time>
      </trkpt>
      <trkpt lat="44.04679" lon="5.33139">
        <ele>738</ele>
        <time>2020-07-11T07:48:35.590Z</time>
      </trkpt>
      <trkpt lat="44.04675" lon="5.33138">
        <ele>739</ele>
        <time>2020-07-11T07:48:36.591Z</time>
      </trkpt>
      <trkpt lat="44.04669" lon="5.33138">
        <ele>739</ele>
        <time>2020-07-11T07:48:37.591Z</time>
      </trkpt>
      <trkpt lat="44.04662" lon="5.33139">
        <ele>739</ele>
        <time>2020-07-11T07:48:38.591Z</time>
      </trkpt>
      <trkpt lat="44.04656" lon="5.33141">
        <ele>739</ele>
        <time>2020-07-11T07:48:39.590Z</time>
      </trkpt>
      <trkpt lat="44.0465" lon="5.33144">
        <ele>739</ele>
        <time>2020-07-11T07:48:40.590Z</time>
      </trkpt>
      <trkpt lat="44.04646" lon="5.33146">
        <ele>739</ele>
        <time>2020-07-11T07:48:41.591Z</time>
      </trkpt>
      <trkpt lat="44.04639" lon="5.3315">
        <ele>739</ele>
        <time>2020-07-11T07:48:42.591Z</time>
      </trkpt>
      <trkpt lat="44.04634" lon="5.33153">
        <ele>739</ele>
        <time>2020-07-11T07:48:43.590Z</time>
      </trkpt>
      <trkpt lat="44.04628" lon="5.33156">
        <ele>739</ele>
        <time>2020-07-11T07:48:44.591Z</time>
      </trkpt>
      <trkpt lat="44.04623" lon="5.33159">
        <ele>739</ele>
        <time>2020-07-11T07:48:45.591Z</time>
      </trkpt>
      <trkpt lat="44.0462" lon="5.33162">
        <ele>739</ele>
        <time>2020-07-11T07:48:46.591Z</time>
      </trkpt>
      <trkpt lat="44.04616" lon="5.33165">
        <ele>739</ele>
        <time>2020-07-11T07:48:47.591Z</time>
      </trkpt>
      <trkpt lat="44.04611" lon="5.33169">
        <ele>739</ele>
        <time>2020-07-11T07:48:48.590Z</time>
      </trkpt>
      <trkpt lat="44.04608" lon="5.33173">
        <ele>738</ele>
        <time>2020-07-11T07:48:49.591Z</time>
      </trkpt>
      <trkpt lat="44.04605" lon="5.33178">
        <ele>738</ele>
        <time>2020-07-11T07:48:50.591Z</time>
      </trkpt>
      <trkpt lat="44.04604" lon="5.33182">
        <ele>737</ele>
        <time>2020-07-11T07:48:51.591Z</time>
      </trkpt>
      <trkpt lat="44.04602" lon="5.33187">
        <ele>737</ele>
        <time>2020-07-11T07:48:52.591Z</time>
      </trkpt>
      <trkpt lat="44.04601" lon="5.33194">
        <ele>737</ele>
        <time>2020-07-11T07:48:53.591Z</time>
      </trkpt>
      <trkpt lat="44.04601" lon="5.332">
        <ele>737</ele>
        <time>2020-07-11T07:48:54.591Z</time>
      </trkpt>
      <trkpt lat="44.04602" lon="5.33204">
        <ele>737</ele>
        <time>2020-07-11T07:48:55.590Z</time>
      </trkpt>
      <trkpt lat="44.04602" lon="5.3321">
        <ele>737</ele>
        <time>2020-07-11T07:48:56.591Z</time>
      </trkpt>
      <trkpt lat="44.04602" lon="5.33215">
        <ele>737</ele>
        <time>2020-07-11T07:48:57.591Z</time>
      </trkpt>
      <trkpt lat="44.04601" lon="5.33219">
        <ele>737</ele>
        <time>2020-07-11T07:48:58.591Z</time>
      </trkpt>
      <trkpt lat="44.04601" lon="5.3322">
        <ele>737</ele>
        <time>2020-07-11T07:48:59.591Z</time>
      </trkpt>
      <trkpt lat="44.046" lon="5.33221">
        <ele>737</ele>
        <time>2020-07-11T07:49:00.591Z</time>
      </trkpt>
      <trkpt lat="44.04599" lon="5.33222">
        <ele>737</ele>
        <time>2020-07-11T07:49:01.591Z</time>
      </trkpt>
      <trkpt lat="44.04603" lon="5.33211">
        <ele>740</ele>
        <time>2020-07-11T07:49:02.592Z</time>
      </trkpt>
      <trkpt lat="44.04603" lon="5.33211">
        <ele>740</ele>
        <time>2020-07-11T07:49:03.592Z</time>
      </trkpt>
      <trkpt lat="44.04603" lon="5.33211">
        <ele>740</ele>
        <time>2020-07-11T07:49:04.591Z</time>
      </trkpt>
      <trkpt lat="44.04603" lon="5.33211">
        <ele>740</ele>
        <time>2020-07-11T07:49:05.592Z</time>
      </trkpt>
      <trkpt lat="44.04603" lon="5.33211">
        <ele>740</ele>
        <time>2020-07-11T07:49:06.592Z</time>
      </trkpt>
      <trkpt lat="44.04604" lon="5.33212">
        <ele>740</ele>
        <time>2020-07-11T07:49:07.591Z</time>
      </trkpt>
      <trkpt lat="44.04605" lon="5.33215">
        <ele>740</ele>
        <time>2020-07-11T07:49:08.592Z</time>
      </trkpt>
      <trkpt lat="44.04606" lon="5.33218">
        <ele>740</ele>
        <time>2020-07-11T07:49:09.591Z</time>
      </trkpt>
      <trkpt lat="44.04606" lon="5.33221">
        <ele>740</ele>
        <time>2020-07-11T07:49:10.592Z</time>
      </trkpt>
      <trkpt lat="44.04607" lon="5.33224">
        <ele>740</ele>
        <time>2020-07-11T07:49:11.591Z</time>
      </trkpt>
      <trkpt lat="44.04608" lon="5.33228">
        <ele>739</ele>
        <time>2020-07-11T07:49:12.592Z</time>
      </trkpt>
      <trkpt lat="44.04609" lon="5.33231">
        <ele>739</ele>
        <time>2020-07-11T07:49:13.592Z</time>
      </trkpt>
      <trkpt lat="44.0461" lon="5.33236">
        <ele>739</ele>
        <time>2020-07-11T07:49:14.592Z</time>
      </trkpt>
      <trkpt lat="44.04611" lon="5.33241">
        <ele>739</ele>
        <time>2020-07-11T07:49:15.592Z</time>
      </trkpt>
      <trkpt lat="44.04612" lon="5.33244">
        <ele>738</ele>
        <time>2020-07-11T07:49:16.592Z</time>
      </trkpt>
      <trkpt lat="44.04613" lon="5.33249">
        <ele>738</ele>
        <time>2020-07-11T07:49:17.592Z</time>
      </trkpt>
      <trkpt lat="44.04615" lon="5.33255">
        <ele>738</ele>
        <time>2020-07-11T07:49:18.592Z</time>
      </trkpt>
      <trkpt lat="44.04616" lon="5.33262">
        <ele>738</ele>
        <time>2020-07-11T07:49:19.592Z</time>
      </trkpt>
      <trkpt lat="44.04618" lon="5.33269">
        <ele>739</ele>
        <time>2020-07-11T07:49:20.592Z</time>
      </trkpt>
      <trkpt lat="44.04619" lon="5.33277">
        <ele>739</ele>
        <time>2020-07-11T07:49:21.592Z</time>
      </trkpt>
      <trkpt lat="44.0462" lon="5.33283">
        <ele>740</ele>
        <time>2020-07-11T07:49:22.592Z</time>
      </trkpt>
      <trkpt lat="44.04621" lon="5.33289">
        <ele>740</ele>
        <time>2020-07-11T07:49:23.592Z</time>
      </trkpt>
      <trkpt lat="44.04623" lon="5.33297">
        <ele>740</ele>
        <time>2020-07-11T07:49:24.592Z</time>
      </trkpt>
      <trkpt lat="44.04624" lon="5.33301">
        <ele>740</ele>
        <time>2020-07-11T07:49:25.591Z</time>
      </trkpt>
      <trkpt lat="44.04625" lon="5.33307">
        <ele>741</ele>
        <time>2020-07-11T07:49:26.592Z</time>
      </trkpt>
      <trkpt lat="44.04625" lon="5.33312">
        <ele>741</ele>
        <time>2020-07-11T07:49:27.591Z</time>
      </trkpt>
      <trkpt lat="44.04626" lon="5.33318">
        <ele>741</ele>
        <time>2020-07-11T07:49:28.592Z</time>
      </trkpt>
      <trkpt lat="44.04627" lon="5.33323">
        <ele>742</ele>
        <time>2020-07-11T07:49:29.591Z</time>
      </trkpt>
      <trkpt lat="44.04628" lon="5.33328">
        <ele>742</ele>
        <time>2020-07-11T07:49:30.592Z</time>
      </trkpt>
      <trkpt lat="44.04629" lon="5.33333">
        <ele>742</ele>
        <time>2020-07-11T07:49:31.591Z</time>
      </trkpt>
      <trkpt lat="44.0463" lon="5.33339">
        <ele>742</ele>
        <time>2020-07-11T07:49:32.591Z</time>
      </trkpt>
      <trkpt lat="44.0463" lon="5.33346">
        <ele>741</ele>
        <time>2020-07-11T07:49:33.592Z</time>
      </trkpt>
      <trkpt lat="44.04631" lon="5.33354">
        <ele>741</ele>
        <time>2020-07-11T07:49:34.592Z</time>
      </trkpt>
      <trkpt lat="44.04631" lon="5.33361">
        <ele>740</ele>
        <time>2020-07-11T07:49:35.591Z</time>
      </trkpt>
      <trkpt lat="44.0463" lon="5.33369">
        <ele>740</ele>
        <time>2020-07-11T07:49:36.592Z</time>
      </trkpt>
      <trkpt lat="44.04629" lon="5.33377">
        <ele>740</ele>
        <time>2020-07-11T07:49:37.592Z</time>
      </trkpt>
      <trkpt lat="44.04628" lon="5.33385">
        <ele>740</ele>
        <time>2020-07-11T07:49:38.591Z</time>
      </trkpt>
      <trkpt lat="44.04625" lon="5.33392">
        <ele>741</ele>
        <time>2020-07-11T07:49:39.592Z</time>
      </trkpt>
      <trkpt lat="44.04622" lon="5.33399">
        <ele>741</ele>
        <time>2020-07-11T07:49:40.591Z</time>
      </trkpt>
      <trkpt lat="44.04619" lon="5.33406">
        <ele>741</ele>
        <time>2020-07-11T07:49:41.592Z</time>
      </trkpt>
      <trkpt lat="44.04615" lon="5.33414">
        <ele>740</ele>
        <time>2020-07-11T07:49:42.592Z</time>
      </trkpt>
      <trkpt lat="44.04611" lon="5.33419">
        <ele>740</ele>
        <time>2020-07-11T07:49:43.592Z</time>
      </trkpt>
      <trkpt lat="44.04607" lon="5.33424">
        <ele>740</ele>
        <time>2020-07-11T07:49:44.592Z</time>
      </trkpt>
      <trkpt lat="44.04603" lon="5.3343">
        <ele>740</ele>
        <time>2020-07-11T07:49:45.592Z</time>
      </trkpt>
      <trkpt lat="44.04598" lon="5.33436">
        <ele>739</ele>
        <time>2020-07-11T07:49:46.591Z</time>
      </trkpt>
      <trkpt lat="44.04593" lon="5.33443">
        <ele>739</ele>
        <time>2020-07-11T07:49:47.591Z</time>
      </trkpt>
      <trkpt lat="44.0459" lon="5.33447">
        <ele>739</ele>
        <time>2020-07-11T07:49:48.592Z</time>
      </trkpt>
      <trkpt lat="44.04587" lon="5.33454">
        <ele>739</ele>
        <time>2020-07-11T07:49:49.592Z</time>
      </trkpt>
      <trkpt lat="44.04584" lon="5.33462">
        <ele>739</ele>
        <time>2020-07-11T07:49:50.592Z</time>
      </trkpt>
      <trkpt lat="44.04582" lon="5.33469">
        <ele>739</ele>
        <time>2020-07-11T07:49:51.592Z</time>
      </trkpt>
      <trkpt lat="44.04581" lon="5.33477">
        <ele>739</ele>
        <time>2020-07-11T07:49:52.592Z</time>
      </trkpt>
      <trkpt lat="44.04582" lon="5.33484">
        <ele>739</ele>
        <time>2020-07-11T07:49:53.591Z</time>
      </trkpt>
      <trkpt lat="44.04583" lon="5.33492">
        <ele>739</ele>
        <time>2020-07-11T07:49:54.592Z</time>
      </trkpt>
      <trkpt lat="44.04585" lon="5.33499">
        <ele>739</ele>
        <time>2020-07-11T07:49:55.592Z</time>
      </trkpt>
      <trkpt lat="44.04589" lon="5.33506">
        <ele>739</ele>
        <time>2020-07-11T07:49:56.592Z</time>
      </trkpt>
      <trkpt lat="44.04593" lon="5.33512">
        <ele>739</ele>
        <time>2020-07-11T07:49:57.592Z</time>
      </trkpt>
      <trkpt lat="44.04597" lon="5.33519">
        <ele>739</ele>
        <time>2020-07-11T07:49:58.591Z</time>
      </trkpt>
      <trkpt lat="44.04602" lon="5.33525">
        <ele>740</ele>
        <time>2020-07-11T07:49:59.592Z</time>
      </trkpt>
      <trkpt lat="44.04606" lon="5.33531">
        <ele>740</ele>
        <time>2020-07-11T07:50:00.592Z</time>
      </trkpt>
      <trkpt lat="44.04611" lon="5.33538">
        <ele>740</ele>
        <time>2020-07-11T07:50:01.592Z</time>
      </trkpt>
      <trkpt lat="44.04615" lon="5.33545">
        <ele>740</ele>
        <time>2020-07-11T07:50:02.592Z</time>
      </trkpt>
      <trkpt lat="44.0462" lon="5.33552">
        <ele>740</ele>
        <time>2020-07-11T07:50:03.592Z</time>
      </trkpt>
      <trkpt lat="44.04624" lon="5.33558">
        <ele>740</ele>
        <time>2020-07-11T07:50:04.592Z</time>
      </trkpt>
      <trkpt lat="44.04628" lon="5.33565">
        <ele>739</ele>
        <time>2020-07-11T07:50:05.591Z</time>
      </trkpt>
      <trkpt lat="44.04633" lon="5.33573">
        <ele>739</ele>
        <time>2020-07-11T07:50:06.592Z</time>
      </trkpt>
      <trkpt lat="44.04637" lon="5.3358">
        <ele>739</ele>
        <time>2020-07-11T07:50:07.592Z</time>
      </trkpt>
      <trkpt lat="44.04641" lon="5.33588">
        <ele>739</ele>
        <time>2020-07-11T07:50:08.592Z</time>
      </trkpt>
      <trkpt lat="44.04645" lon="5.33596">
        <ele>739</ele>
        <time>2020-07-11T07:50:09.591Z</time>
      </trkpt>
      <trkpt lat="44.0465" lon="5.33603">
        <ele>739</ele>
        <time>2020-07-11T07:50:10.591Z</time>
      </trkpt>
      <trkpt lat="44.04654" lon="5.33611">
        <ele>739</ele>
        <time>2020-07-11T07:50:11.592Z</time>
      </trkpt>
      <trkpt lat="44.04658" lon="5.33618">
        <ele>739</ele>
        <time>2020-07-11T07:50:12.592Z</time>
      </trkpt>
      <trkpt lat="44.04662" lon="5.33626">
        <ele>739</ele>
        <time>2020-07-11T07:50:13.592Z</time>
      </trkpt>
      <trkpt lat="44.04667" lon="5.33633">
        <ele>739</ele>
        <time>2020-07-11T07:50:14.592Z</time>
      </trkpt>
      <trkpt lat="44.04672" lon="5.33642">
        <ele>738</ele>
        <time>2020-07-11T07:50:15.591Z</time>
      </trkpt>
      <trkpt lat="44.04676" lon="5.3365">
        <ele>738</ele>
        <time>2020-07-11T07:50:16.592Z</time>
      </trkpt>
      <trkpt lat="44.04679" lon="5.33656">
        <ele>738</ele>
        <time>2020-07-11T07:50:17.592Z</time>
      </trkpt>
      <trkpt lat="44.04684" lon="5.33665">
        <ele>738</ele>
        <time>2020-07-11T07:50:18.592Z</time>
      </trkpt>
      <trkpt lat="44.04687" lon="5.33672">
        <ele>739</ele>
        <time>2020-07-11T07:50:19.592Z</time>
      </trkpt>
      <trkpt lat="44.04691" lon="5.33679">
        <ele>739</ele>
        <time>2020-07-11T07:50:20.591Z</time>
      </trkpt>
      <trkpt lat="44.04695" lon="5.33687">
        <ele>739</ele>
        <time>2020-07-11T07:50:21.591Z</time>
      </trkpt>
      <trkpt lat="44.04699" lon="5.33695">
        <ele>740</ele>
        <time>2020-07-11T07:50:22.592Z</time>
      </trkpt>
      <trkpt lat="44.04702" lon="5.33703">
        <ele>741</ele>
        <time>2020-07-11T07:50:23.592Z</time>
      </trkpt>
      <trkpt lat="44.04707" lon="5.33712">
        <ele>741</ele>
        <time>2020-07-11T07:50:24.592Z</time>
      </trkpt>
      <trkpt lat="44.0471" lon="5.3372">
        <ele>741</ele>
        <time>2020-07-11T07:50:25.592Z</time>
      </trkpt>
      <trkpt lat="44.04713" lon="5.33727">
        <ele>742</ele>
        <time>2020-07-11T07:50:26.592Z</time>
      </trkpt>
      <trkpt lat="44.04716" lon="5.33735">
        <ele>742</ele>
        <time>2020-07-11T07:50:27.591Z</time>
      </trkpt>
      <trkpt lat="44.04718" lon="5.33743">
        <ele>742</ele>
        <time>2020-07-11T07:50:28.592Z</time>
      </trkpt>
      <trkpt lat="44.0472" lon="5.33752">
        <ele>742</ele>
        <time>2020-07-11T07:50:29.591Z</time>
      </trkpt>
      <trkpt lat="44.04722" lon="5.33761">
        <ele>743</ele>
        <time>2020-07-11T07:50:30.591Z</time>
      </trkpt>
      <trkpt lat="44.04724" lon="5.3377">
        <ele>743</ele>
        <time>2020-07-11T07:50:31.592Z</time>
      </trkpt>
      <trkpt lat="44.04725" lon="5.33779">
        <ele>742</ele>
        <time>2020-07-11T07:50:32.592Z</time>
      </trkpt>
      <trkpt lat="44.04727" lon="5.33788">
        <ele>742</ele>
        <time>2020-07-11T07:50:33.591Z</time>
      </trkpt>
      <trkpt lat="44.04728" lon="5.33798">
        <ele>741</ele>
        <time>2020-07-11T07:50:34.592Z</time>
      </trkpt>
      <trkpt lat="44.0473" lon="5.33807">
        <ele>741</ele>
        <time>2020-07-11T07:50:35.592Z</time>
      </trkpt>
      <trkpt lat="44.04731" lon="5.33816">
        <ele>741</ele>
        <time>2020-07-11T07:50:36.592Z</time>
      </trkpt>
      <trkpt lat="44.04732" lon="5.33825">
        <ele>741</ele>
        <time>2020-07-11T07:50:37.592Z</time>
      </trkpt>
      <trkpt lat="44.04734" lon="5.33836">
        <ele>741</ele>
        <time>2020-07-11T07:50:38.592Z</time>
      </trkpt>
      <trkpt lat="44.04736" lon="5.33845">
        <ele>741</ele>
        <time>2020-07-11T07:50:39.592Z</time>
      </trkpt>
      <trkpt lat="44.04738" lon="5.33854">
        <ele>741</ele>
        <time>2020-07-11T07:50:40.592Z</time>
      </trkpt>
      <trkpt lat="44.04739" lon="5.33861">
        <ele>741</ele>
        <time>2020-07-11T07:50:41.591Z</time>
      </trkpt>
      <trkpt lat="44.04742" lon="5.3387">
        <ele>741</ele>
        <time>2020-07-11T07:50:42.591Z</time>
      </trkpt>
      <trkpt lat="44.04746" lon="5.33881">
        <ele>742</ele>
        <time>2020-07-11T07:50:43.592Z</time>
      </trkpt>
      <trkpt lat="44.04749" lon="5.3389">
        <ele>741</ele>
        <time>2020-07-11T07:50:44.592Z</time>
      </trkpt>
      <trkpt lat="44.04753" lon="5.33899">
        <ele>741</ele>
        <time>2020-07-11T07:50:45.592Z</time>
      </trkpt>
      <trkpt lat="44.04755" lon="5.33906">
        <ele>740</ele>
        <time>2020-07-11T07:50:46.592Z</time>
      </trkpt>
      <trkpt lat="44.04757" lon="5.33916">
        <ele>740</ele>
        <time>2020-07-11T07:50:47.591Z</time>
      </trkpt>
      <trkpt lat="44.04759" lon="5.33926">
        <ele>741</ele>
        <time>2020-07-11T07:50:48.592Z</time>
      </trkpt>
      <trkpt lat="44.04761" lon="5.33939">
        <ele>741</ele>
        <time>2020-07-11T07:50:49.592Z</time>
      </trkpt>
      <trkpt lat="44.04761" lon="5.33948">
        <ele>741</ele>
        <time>2020-07-11T07:50:50.592Z</time>
      </trkpt>
      <trkpt lat="44.04759" lon="5.33959">
        <ele>741</ele>
        <time>2020-07-11T07:50:51.592Z</time>
      </trkpt>
      <trkpt lat="44.04756" lon="5.3397">
        <ele>741</ele>
        <time>2020-07-11T07:50:52.592Z</time>
      </trkpt>
      <trkpt lat="44.04752" lon="5.33979">
        <ele>741</ele>
        <time>2020-07-11T07:50:53.591Z</time>
      </trkpt>
      <trkpt lat="44.04747" lon="5.33989">
        <ele>740</ele>
        <time>2020-07-11T07:50:54.592Z</time>
      </trkpt>
      <trkpt lat="44.04741" lon="5.33999">
        <ele>740</ele>
        <time>2020-07-11T07:50:55.592Z</time>
      </trkpt>
      <trkpt lat="44.04736" lon="5.34006">
        <ele>739</ele>
        <time>2020-07-11T07:50:56.591Z</time>
      </trkpt>
      <trkpt lat="44.0473" lon="5.34014">
        <ele>739</ele>
        <time>2020-07-11T07:50:57.591Z</time>
      </trkpt>
      <trkpt lat="44.04725" lon="5.34023">
        <ele>739</ele>
        <time>2020-07-11T07:50:58.592Z</time>
      </trkpt>
      <trkpt lat="44.04719" lon="5.34031">
        <ele>739</ele>
        <time>2020-07-11T07:50:59.592Z</time>
      </trkpt>
      <trkpt lat="44.04712" lon="5.34042">
        <ele>739</ele>
        <time>2020-07-11T07:51:00.591Z</time>
      </trkpt>
      <trkpt lat="44.04707" lon="5.34049">
        <ele>739</ele>
        <time>2020-07-11T07:51:01.592Z</time>
      </trkpt>
      <trkpt lat="44.04702" lon="5.34057">
        <ele>740</ele>
        <time>2020-07-11T07:51:02.592Z</time>
      </trkpt>
      <trkpt lat="44.04696" lon="5.34066">
        <ele>740</ele>
        <time>2020-07-11T07:51:03.592Z</time>
      </trkpt>
      <trkpt lat="44.04692" lon="5.34075">
        <ele>740</ele>
        <time>2020-07-11T07:51:04.592Z</time>
      </trkpt>
      <trkpt lat="44.04689" lon="5.34083">
        <ele>740</ele>
        <time>2020-07-11T07:51:05.592Z</time>
      </trkpt>
      <trkpt lat="44.04687" lon="5.34093">
        <ele>740</ele>
        <time>2020-07-11T07:51:06.591Z</time>
      </trkpt>
      <trkpt lat="44.04687" lon="5.34103">
        <ele>740</ele>
        <time>2020-07-11T07:51:07.592Z</time>
      </trkpt>
      <trkpt lat="44.0469" lon="5.34114">
        <ele>739</ele>
        <time>2020-07-11T07:51:08.591Z</time>
      </trkpt>
      <trkpt lat="44.04694" lon="5.34123">
        <ele>739</ele>
        <time>2020-07-11T07:51:09.592Z</time>
      </trkpt>
      <trkpt lat="44.047" lon="5.34132">
        <ele>739</ele>
        <time>2020-07-11T07:51:10.592Z</time>
      </trkpt>
      <trkpt lat="44.04707" lon="5.3414">
        <ele>738</ele>
        <time>2020-07-11T07:51:11.592Z</time>
      </trkpt>
      <trkpt lat="44.04714" lon="5.34148">
        <ele>738</ele>
        <time>2020-07-11T07:51:12.591Z</time>
      </trkpt>
      <trkpt lat="44.04722" lon="5.34155">
        <ele>737</ele>
        <time>2020-07-11T07:51:13.592Z</time>
      </trkpt>
      <trkpt lat="44.04732" lon="5.3416">
        <ele>737</ele>
        <time>2020-07-11T07:51:14.592Z</time>
      </trkpt>
      <trkpt lat="44.04741" lon="5.34165">
        <ele>737</ele>
        <time>2020-07-11T07:51:15.592Z</time>
      </trkpt>
      <trkpt lat="44.04751" lon="5.34171">
        <ele>737</ele>
        <time>2020-07-11T07:51:16.592Z</time>
      </trkpt>
      <trkpt lat="44.0476" lon="5.34177">
        <ele>737</ele>
        <time>2020-07-11T07:51:17.591Z</time>
      </trkpt>
      <trkpt lat="44.0477" lon="5.34184">
        <ele>737</ele>
        <time>2020-07-11T07:51:18.592Z</time>
      </trkpt>
      <trkpt lat="44.04779" lon="5.3419">
        <ele>736</ele>
        <time>2020-07-11T07:51:19.591Z</time>
      </trkpt>
      <trkpt lat="44.04788" lon="5.34195">
        <ele>736</ele>
        <time>2020-07-11T07:51:20.592Z</time>
      </trkpt>
      <trkpt lat="44.04797" lon="5.342">
        <ele>736</ele>
        <time>2020-07-11T07:51:21.591Z</time>
      </trkpt>
      <trkpt lat="44.04806" lon="5.34205">
        <ele>735</ele>
        <time>2020-07-11T07:51:22.592Z</time>
      </trkpt>
      <trkpt lat="44.04816" lon="5.34208">
        <ele>735</ele>
        <time>2020-07-11T07:51:23.591Z</time>
      </trkpt>
      <trkpt lat="44.04825" lon="5.3421">
        <ele>734</ele>
        <time>2020-07-11T07:51:24.592Z</time>
      </trkpt>
      <trkpt lat="44.04834" lon="5.34212">
        <ele>734</ele>
        <time>2020-07-11T07:51:25.591Z</time>
      </trkpt>
      <trkpt lat="44.04843" lon="5.34213">
        <ele>734</ele>
        <time>2020-07-11T07:51:26.592Z</time>
      </trkpt>
      <trkpt lat="44.04853" lon="5.34214">
        <ele>734</ele>
        <time>2020-07-11T07:51:27.592Z</time>
      </trkpt>
      <trkpt lat="44.04862" lon="5.34214">
        <ele>733</ele>
        <time>2020-07-11T07:51:28.591Z</time>
      </trkpt>
      <trkpt lat="44.04872" lon="5.34214">
        <ele>734</ele>
        <time>2020-07-11T07:51:29.592Z</time>
      </trkpt>
      <trkpt lat="44.04882" lon="5.34215">
        <ele>734</ele>
        <time>2020-07-11T07:51:30.591Z</time>
      </trkpt>
      <trkpt lat="44.04892" lon="5.34216">
        <ele>733</ele>
        <time>2020-07-11T07:51:31.592Z</time>
      </trkpt>
      <trkpt lat="44.04902" lon="5.34219">
        <ele>733</ele>
        <time>2020-07-11T07:51:32.591Z</time>
      </trkpt>
      <trkpt lat="44.04912" lon="5.34222">
        <ele>733</ele>
        <time>2020-07-11T07:51:33.591Z</time>
      </trkpt>
      <trkpt lat="44.04922" lon="5.34228">
        <ele>733</ele>
        <time>2020-07-11T07:51:34.592Z</time>
      </trkpt>
      <trkpt lat="44.04931" lon="5.34236">
        <ele>733</ele>
        <time>2020-07-11T07:51:35.592Z</time>
      </trkpt>
      <trkpt lat="44.04938" lon="5.34245">
        <ele>732</ele>
        <time>2020-07-11T07:51:36.591Z</time>
      </trkpt>
      <trkpt lat="44.04946" lon="5.34254">
        <ele>732</ele>
        <time>2020-07-11T07:51:37.592Z</time>
      </trkpt>
      <trkpt lat="44.04953" lon="5.34265">
        <ele>731</ele>
        <time>2020-07-11T07:51:38.592Z</time>
      </trkpt>
      <trkpt lat="44.04961" lon="5.34275">
        <ele>730</ele>
        <time>2020-07-11T07:51:39.591Z</time>
      </trkpt>
      <trkpt lat="44.04968" lon="5.34285">
        <ele>730</ele>
        <time>2020-07-11T07:51:40.592Z</time>
      </trkpt>
      <trkpt lat="44.04976" lon="5.34294">
        <ele>730</ele>
        <time>2020-07-11T07:51:41.591Z</time>
      </trkpt>
      <trkpt lat="44.04985" lon="5.34303">
        <ele>729</ele>
        <time>2020-07-11T07:51:42.592Z</time>
      </trkpt>
      <trkpt lat="44.04994" lon="5.34311">
        <ele>729</ele>
        <time>2020-07-11T07:51:43.592Z</time>
      </trkpt>
      <trkpt lat="44.05004" lon="5.34317">
        <ele>729</ele>
        <time>2020-07-11T07:51:44.592Z</time>
      </trkpt>
      <trkpt lat="44.05014" lon="5.34321">
        <ele>729</ele>
        <time>2020-07-11T07:51:45.592Z</time>
      </trkpt>
      <trkpt lat="44.05024" lon="5.34325">
        <ele>729</ele>
        <time>2020-07-11T07:51:46.592Z</time>
      </trkpt>
      <trkpt lat="44.05034" lon="5.3433">
        <ele>729</ele>
        <time>2020-07-11T07:51:47.591Z</time>
      </trkpt>
      <trkpt lat="44.05043" lon="5.34337">
        <ele>729</ele>
        <time>2020-07-11T07:51:48.591Z</time>
      </trkpt>
      <trkpt lat="44.05051" lon="5.34346">
        <ele>728</ele>
        <time>2020-07-11T07:51:49.591Z</time>
      </trkpt>
      <trkpt lat="44.05057" lon="5.34357">
        <ele>728</ele>
        <time>2020-07-11T07:51:50.591Z</time>
      </trkpt>
      <trkpt lat="44.05062" lon="5.34369">
        <ele>727</ele>
        <time>2020-07-11T07:51:51.592Z</time>
      </trkpt>
      <trkpt lat="44.05068" lon="5.34381">
        <ele>727</ele>
        <time>2020-07-11T07:51:52.591Z</time>
      </trkpt>
      <trkpt lat="44.05075" lon="5.34393">
        <ele>726</ele>
        <time>2020-07-11T07:51:53.592Z</time>
      </trkpt>
      <trkpt lat="44.05083" lon="5.34402">
        <ele>726</ele>
        <time>2020-07-11T07:51:54.592Z</time>
      </trkpt>
      <trkpt lat="44.05091" lon="5.3441">
        <ele>725</ele>
        <time>2020-07-11T07:51:55.591Z</time>
      </trkpt>
      <trkpt lat="44.05101" lon="5.34416">
        <ele>724</ele>
        <time>2020-07-11T07:51:56.592Z</time>
      </trkpt>
      <trkpt lat="44.05111" lon="5.34421">
        <ele>723</ele>
        <time>2020-07-11T07:51:57.592Z</time>
      </trkpt>
      <trkpt lat="44.05121" lon="5.34424">
        <ele>722</ele>
        <time>2020-07-11T07:51:58.592Z</time>
      </trkpt>
      <trkpt lat="44.05133" lon="5.34426">
        <ele>722</ele>
        <time>2020-07-11T07:51:59.592Z</time>
      </trkpt>
      <trkpt lat="44.05145" lon="5.34426">
        <ele>721</ele>
        <time>2020-07-11T07:52:00.591Z</time>
      </trkpt>
      <trkpt lat="44.05156" lon="5.34427">
        <ele>721</ele>
        <time>2020-07-11T07:52:01.591Z</time>
      </trkpt>
      <trkpt lat="44.05167" lon="5.34429">
        <ele>720</ele>
        <time>2020-07-11T07:52:02.591Z</time>
      </trkpt>
      <trkpt lat="44.05177" lon="5.34434">
        <ele>720</ele>
        <time>2020-07-11T07:52:03.591Z</time>
      </trkpt>
      <trkpt lat="44.05188" lon="5.3444">
        <ele>720</ele>
        <time>2020-07-11T07:52:04.592Z</time>
      </trkpt>
      <trkpt lat="44.05197" lon="5.34447">
        <ele>720</ele>
        <time>2020-07-11T07:52:05.592Z</time>
      </trkpt>
      <trkpt lat="44.05205" lon="5.34455">
        <ele>719</ele>
        <time>2020-07-11T07:52:06.592Z</time>
      </trkpt>
      <trkpt lat="44.05212" lon="5.34465">
        <ele>719</ele>
        <time>2020-07-11T07:52:07.592Z</time>
      </trkpt>
      <trkpt lat="44.05217" lon="5.34477">
        <ele>719</ele>
        <time>2020-07-11T07:52:08.592Z</time>
      </trkpt>
      <trkpt lat="44.05218" lon="5.34489">
        <ele>719</ele>
        <time>2020-07-11T07:52:09.591Z</time>
      </trkpt>
      <trkpt lat="44.05215" lon="5.345">
        <ele>719</ele>
        <time>2020-07-11T07:52:10.591Z</time>
      </trkpt>
      <trkpt lat="44.05208" lon="5.34512">
        <ele>718</ele>
        <time>2020-07-11T07:52:11.591Z</time>
      </trkpt>
      <trkpt lat="44.05201" lon="5.34523">
        <ele>718</ele>
        <time>2020-07-11T07:52:12.592Z</time>
      </trkpt>
      <trkpt lat="44.05194" lon="5.34534">
        <ele>717</ele>
        <time>2020-07-11T07:52:13.592Z</time>
      </trkpt>
      <trkpt lat="44.05187" lon="5.34545">
        <ele>717</ele>
        <time>2020-07-11T07:52:14.592Z</time>
      </trkpt>
      <trkpt lat="44.05181" lon="5.34558">
        <ele>716</ele>
        <time>2020-07-11T07:52:15.592Z</time>
      </trkpt>
      <trkpt lat="44.05176" lon="5.34571">
        <ele>716</ele>
        <time>2020-07-11T07:52:16.591Z</time>
      </trkpt>
      <trkpt lat="44.05173" lon="5.34585">
        <ele>715</ele>
        <time>2020-07-11T07:52:17.592Z</time>
      </trkpt>
      <trkpt lat="44.05171" lon="5.34599">
        <ele>714</ele>
        <time>2020-07-11T07:52:18.592Z</time>
      </trkpt>
      <trkpt lat="44.0517" lon="5.34612">
        <ele>714</ele>
        <time>2020-07-11T07:52:19.592Z</time>
      </trkpt>
      <trkpt lat="44.05172" lon="5.34627">
        <ele>714</ele>
        <time>2020-07-11T07:52:20.592Z</time>
      </trkpt>
      <trkpt lat="44.05175" lon="5.3464">
        <ele>714</ele>
        <time>2020-07-11T07:52:21.591Z</time>
      </trkpt>
      <trkpt lat="44.05179" lon="5.34653">
        <ele>714</ele>
        <time>2020-07-11T07:52:22.591Z</time>
      </trkpt>
      <trkpt lat="44.05186" lon="5.34664">
        <ele>714</ele>
        <time>2020-07-11T07:52:23.592Z</time>
      </trkpt>
      <trkpt lat="44.05195" lon="5.34674">
        <ele>714</ele>
        <time>2020-07-11T07:52:24.592Z</time>
      </trkpt>
      <trkpt lat="44.05204" lon="5.34682">
        <ele>714</ele>
        <time>2020-07-11T07:52:25.592Z</time>
      </trkpt>
      <trkpt lat="44.05213" lon="5.34689">
        <ele>713</ele>
        <time>2020-07-11T07:52:26.591Z</time>
      </trkpt>
      <trkpt lat="44.05224" lon="5.34695">
        <ele>713</ele>
        <time>2020-07-11T07:52:27.592Z</time>
      </trkpt>
      <trkpt lat="44.05234" lon="5.34702">
        <ele>712</ele>
        <time>2020-07-11T07:52:28.592Z</time>
      </trkpt>
      <trkpt lat="44.05244" lon="5.34708">
        <ele>711</ele>
        <time>2020-07-11T07:52:29.591Z</time>
      </trkpt>
      <trkpt lat="44.05254" lon="5.34714">
        <ele>710</ele>
        <time>2020-07-11T07:52:30.592Z</time>
      </trkpt>
      <trkpt lat="44.05265" lon="5.34719">
        <ele>710</ele>
        <time>2020-07-11T07:52:31.592Z</time>
      </trkpt>
      <trkpt lat="44.05275" lon="5.34724">
        <ele>709</ele>
        <time>2020-07-11T07:52:32.592Z</time>
      </trkpt>
      <trkpt lat="44.05288" lon="5.3473">
        <ele>709</ele>
        <time>2020-07-11T07:52:33.591Z</time>
      </trkpt>
      <trkpt lat="44.05296" lon="5.34734">
        <ele>709</ele>
        <time>2020-07-11T07:52:34.592Z</time>
      </trkpt>
      <trkpt lat="44.05304" lon="5.34742">
        <ele>709</ele>
        <time>2020-07-11T07:52:35.592Z</time>
      </trkpt>
      <trkpt lat="44.05313" lon="5.34755">
        <ele>709</ele>
        <time>2020-07-11T07:52:36.592Z</time>
      </trkpt>
      <trkpt lat="44.05317" lon="5.34767">
        <ele>709</ele>
        <time>2020-07-11T07:52:37.592Z</time>
      </trkpt>
      <trkpt lat="44.0532" lon="5.34778">
        <ele>709</ele>
        <time>2020-07-11T07:52:38.592Z</time>
      </trkpt>
      <trkpt lat="44.05323" lon="5.34791">
        <ele>709</ele>
        <time>2020-07-11T07:52:39.592Z</time>
      </trkpt>
      <trkpt lat="44.05326" lon="5.34806">
        <ele>709</ele>
        <time>2020-07-11T07:52:40.592Z</time>
      </trkpt>
      <trkpt lat="44.05329" lon="5.34821">
        <ele>709</ele>
        <time>2020-07-11T07:52:41.591Z</time>
      </trkpt>
      <trkpt lat="44.05332" lon="5.34835">
        <ele>709</ele>
        <time>2020-07-11T07:52:42.592Z</time>
      </trkpt>
      <trkpt lat="44.05336" lon="5.3485">
        <ele>709</ele>
        <time>2020-07-11T07:52:43.592Z</time>
      </trkpt>
      <trkpt lat="44.0534" lon="5.34865">
        <ele>709</ele>
        <time>2020-07-11T07:52:44.591Z</time>
      </trkpt>
      <trkpt lat="44.05345" lon="5.3488">
        <ele>710</ele>
        <time>2020-07-11T07:52:45.591Z</time>
      </trkpt>
      <trkpt lat="44.05349" lon="5.34894">
        <ele>710</ele>
        <time>2020-07-11T07:52:46.591Z</time>
      </trkpt>
      <trkpt lat="44.05353" lon="5.34908">
        <ele>710</ele>
        <time>2020-07-11T07:52:47.592Z</time>
      </trkpt>
      <trkpt lat="44.05357" lon="5.34922">
        <ele>709</ele>
        <time>2020-07-11T07:52:48.591Z</time>
      </trkpt>
      <trkpt lat="44.05361" lon="5.34936">
        <ele>709</ele>
        <time>2020-07-11T07:52:49.592Z</time>
      </trkpt>
      <trkpt lat="44.05367" lon="5.34949">
        <ele>709</ele>
        <time>2020-07-11T07:52:50.592Z</time>
      </trkpt>
      <trkpt lat="44.05373" lon="5.34961">
        <ele>709</ele>
        <time>2020-07-11T07:52:51.592Z</time>
      </trkpt>
      <trkpt lat="44.0538" lon="5.34972">
        <ele>709</ele>
        <time>2020-07-11T07:52:52.592Z</time>
      </trkpt>
      <trkpt lat="44.05387" lon="5.34982">
        <ele>709</ele>
        <time>2020-07-11T07:52:53.591Z</time>
      </trkpt>
      <trkpt lat="44.05396" lon="5.3499">
        <ele>709</ele>
        <time>2020-07-11T07:52:54.591Z</time>
      </trkpt>
      <trkpt lat="44.05406" lon="5.34998">
        <ele>709</ele>
        <time>2020-07-11T07:52:55.592Z</time>
      </trkpt>
      <trkpt lat="44.05415" lon="5.35006">
        <ele>709</ele>
        <time>2020-07-11T07:52:56.592Z</time>
      </trkpt>
      <trkpt lat="44.05424" lon="5.35014">
        <ele>708</ele>
        <time>2020-07-11T07:52:57.592Z</time>
      </trkpt>
      <trkpt lat="44.05433" lon="5.35023">
        <ele>708</ele>
        <time>2020-07-11T07:52:58.592Z</time>
      </trkpt>
      <trkpt lat="44.05441" lon="5.35032">
        <ele>707</ele>
        <time>2020-07-11T07:52:59.591Z</time>
      </trkpt>
      <trkpt lat="44.05449" lon="5.35043">
        <ele>706</ele>
        <time>2020-07-11T07:53:00.592Z</time>
      </trkpt>
      <trkpt lat="44.05456" lon="5.35053">
        <ele>705</ele>
        <time>2020-07-11T07:53:01.592Z</time>
      </trkpt>
      <trkpt lat="44.05464" lon="5.35063">
        <ele>704</ele>
        <time>2020-07-11T07:53:02.592Z</time>
      </trkpt>
      <trkpt lat="44.05471" lon="5.35073">
        <ele>703</ele>
        <time>2020-07-11T07:53:03.592Z</time>
      </trkpt>
      <trkpt lat="44.05479" lon="5.35083">
        <ele>702</ele>
        <time>2020-07-11T07:53:04.592Z</time>
      </trkpt>
      <trkpt lat="44.05488" lon="5.35092">
        <ele>701</ele>
        <time>2020-07-11T07:53:05.592Z</time>
      </trkpt>
      <trkpt lat="44.05496" lon="5.351">
        <ele>700</ele>
        <time>2020-07-11T07:53:06.592Z</time>
      </trkpt>
      <trkpt lat="44.05508" lon="5.35108">
        <ele>699</ele>
        <time>2020-07-11T07:53:07.591Z</time>
      </trkpt>
      <trkpt lat="44.05516" lon="5.35113">
        <ele>699</ele>
        <time>2020-07-11T07:53:08.592Z</time>
      </trkpt>
      <trkpt lat="44.05527" lon="5.35118">
        <ele>698</ele>
        <time>2020-07-11T07:53:09.591Z</time>
      </trkpt>
      <trkpt lat="44.0554" lon="5.35122">
        <ele>698</ele>
        <time>2020-07-11T07:53:10.592Z</time>
      </trkpt>
      <trkpt lat="44.05551" lon="5.35125">
        <ele>698</ele>
        <time>2020-07-11T07:53:11.592Z</time>
      </trkpt>
      <trkpt lat="44.05559" lon="5.35127">
        <ele>698</ele>
        <time>2020-07-11T07:53:12.592Z</time>
      </trkpt>
      <trkpt lat="44.05568" lon="5.35132">
        <ele>698</ele>
        <time>2020-07-11T07:53:13.592Z</time>
      </trkpt>
      <trkpt lat="44.05578" lon="5.35142">
        <ele>699</ele>
        <time>2020-07-11T07:53:14.591Z</time>
      </trkpt>
      <trkpt lat="44.05584" lon="5.35154">
        <ele>699</ele>
        <time>2020-07-11T07:53:15.592Z</time>
      </trkpt>
      <trkpt lat="44.05588" lon="5.35167">
        <ele>699</ele>
        <time>2020-07-11T07:53:16.592Z</time>
      </trkpt>
      <trkpt lat="44.0559" lon="5.35179">
        <ele>699</ele>
        <time>2020-07-11T07:53:17.592Z</time>
      </trkpt>
      <trkpt lat="44.05594" lon="5.35195">
        <ele>699</ele>
        <time>2020-07-11T07:53:18.591Z</time>
      </trkpt>
      <trkpt lat="44.05598" lon="5.35206">
        <ele>699</ele>
        <time>2020-07-11T07:53:19.591Z</time>
      </trkpt>
      <trkpt lat="44.05603" lon="5.35219">
        <ele>698</ele>
        <time>2020-07-11T07:53:20.592Z</time>
      </trkpt>
      <trkpt lat="44.0561" lon="5.35231">
        <ele>698</ele>
        <time>2020-07-11T07:53:21.592Z</time>
      </trkpt>
      <trkpt lat="44.05617" lon="5.35242">
        <ele>698</ele>
        <time>2020-07-11T07:53:22.592Z</time>
      </trkpt>
      <trkpt lat="44.05626" lon="5.35255">
        <ele>697</ele>
        <time>2020-07-11T07:53:23.592Z</time>
      </trkpt>
      <trkpt lat="44.05635" lon="5.35264">
        <ele>697</ele>
        <time>2020-07-11T07:53:24.592Z</time>
      </trkpt>
      <trkpt lat="44.05643" lon="5.35272">
        <ele>697</ele>
        <time>2020-07-11T07:53:25.591Z</time>
      </trkpt>
      <trkpt lat="44.05652" lon="5.35281">
        <ele>697</ele>
        <time>2020-07-11T07:53:26.592Z</time>
      </trkpt>
      <trkpt lat="44.05662" lon="5.35289">
        <ele>697</ele>
        <time>2020-07-11T07:53:27.591Z</time>
      </trkpt>
      <trkpt lat="44.05674" lon="5.35294">
        <ele>697</ele>
        <time>2020-07-11T07:53:28.592Z</time>
      </trkpt>
      <trkpt lat="44.05685" lon="5.35297">
        <ele>696</ele>
        <time>2020-07-11T07:53:29.592Z</time>
      </trkpt>
      <trkpt lat="44.05696" lon="5.35299">
        <ele>695</ele>
        <time>2020-07-11T07:53:30.592Z</time>
      </trkpt>
      <trkpt lat="44.05708" lon="5.35297">
        <ele>695</ele>
        <time>2020-07-11T07:53:31.592Z</time>
      </trkpt>
      <trkpt lat="44.0572" lon="5.35295">
        <ele>694</ele>
        <time>2020-07-11T07:53:32.592Z</time>
      </trkpt>
      <trkpt lat="44.05733" lon="5.35293">
        <ele>693</ele>
        <time>2020-07-11T07:53:33.592Z</time>
      </trkpt>
      <trkpt lat="44.05745" lon="5.35293">
        <ele>693</ele>
        <time>2020-07-11T07:53:34.591Z</time>
      </trkpt>
      <trkpt lat="44.05757" lon="5.35295">
        <ele>693</ele>
        <time>2020-07-11T07:53:35.592Z</time>
      </trkpt>
      <trkpt lat="44.05769" lon="5.35299">
        <ele>693</ele>
        <time>2020-07-11T07:53:36.592Z</time>
      </trkpt>
      <trkpt lat="44.0578" lon="5.35306">
        <ele>693</ele>
        <time>2020-07-11T07:53:37.592Z</time>
      </trkpt>
      <trkpt lat="44.05791" lon="5.35314">
        <ele>693</ele>
        <time>2020-07-11T07:53:38.591Z</time>
      </trkpt>
      <trkpt lat="44.05803" lon="5.35321">
        <ele>693</ele>
        <time>2020-07-11T07:53:39.592Z</time>
      </trkpt>
      <trkpt lat="44.05814" lon="5.35327">
        <ele>693</ele>
        <time>2020-07-11T07:53:40.592Z</time>
      </trkpt>
      <trkpt lat="44.05825" lon="5.35331">
        <ele>692</ele>
        <time>2020-07-11T07:53:41.592Z</time>
      </trkpt>
      <trkpt lat="44.05837" lon="5.35333">
        <ele>692</ele>
        <time>2020-07-11T07:53:42.592Z</time>
      </trkpt>
      <trkpt lat="44.05849" lon="5.35334">
        <ele>692</ele>
        <time>2020-07-11T07:53:43.592Z</time>
      </trkpt>
      <trkpt lat="44.05861" lon="5.35336">
        <ele>692</ele>
        <time>2020-07-11T07:53:44.591Z</time>
      </trkpt>
      <trkpt lat="44.05876" lon="5.35338">
        <ele>691</ele>
        <time>2020-07-11T07:53:45.592Z</time>
      </trkpt>
      <trkpt lat="44.05886" lon="5.35339">
        <ele>691</ele>
        <time>2020-07-11T07:53:46.591Z</time>
      </trkpt>
      <trkpt lat="44.05898" lon="5.35342">
        <ele>691</ele>
        <time>2020-07-11T07:53:47.592Z</time>
      </trkpt>
      <trkpt lat="44.05909" lon="5.35347">
        <ele>691</ele>
        <time>2020-07-11T07:53:48.591Z</time>
      </trkpt>
      <trkpt lat="44.0592" lon="5.35353">
        <ele>690</ele>
        <time>2020-07-11T07:53:49.592Z</time>
      </trkpt>
      <trkpt lat="44.0593" lon="5.35362">
        <ele>690</ele>
        <time>2020-07-11T07:53:50.592Z</time>
      </trkpt>
      <trkpt lat="44.0594" lon="5.35372">
        <ele>689</ele>
        <time>2020-07-11T07:53:51.592Z</time>
      </trkpt>
      <trkpt lat="44.05949" lon="5.35383">
        <ele>689</ele>
        <time>2020-07-11T07:53:52.592Z</time>
      </trkpt>
      <trkpt lat="44.05959" lon="5.35397">
        <ele>688</ele>
        <time>2020-07-11T07:53:53.591Z</time>
      </trkpt>
      <trkpt lat="44.05966" lon="5.35408">
        <ele>688</ele>
        <time>2020-07-11T07:53:54.591Z</time>
      </trkpt>
      <trkpt lat="44.05974" lon="5.3542">
        <ele>687</ele>
        <time>2020-07-11T07:53:55.592Z</time>
      </trkpt>
      <trkpt lat="44.05982" lon="5.35432">
        <ele>687</ele>
        <time>2020-07-11T07:53:56.592Z</time>
      </trkpt>
      <trkpt lat="44.05992" lon="5.35447">
        <ele>686</ele>
        <time>2020-07-11T07:53:57.592Z</time>
      </trkpt>
      <trkpt lat="44.06001" lon="5.35458">
        <ele>686</ele>
        <time>2020-07-11T07:53:58.592Z</time>
      </trkpt>
      <trkpt lat="44.0601" lon="5.35467">
        <ele>685</ele>
        <time>2020-07-11T07:53:59.592Z</time>
      </trkpt>
      <trkpt lat="44.06018" lon="5.35475">
        <ele>684</ele>
        <time>2020-07-11T07:54:00.592Z</time>
      </trkpt>
      <trkpt lat="44.0603" lon="5.35485">
        <ele>684</ele>
        <time>2020-07-11T07:54:01.591Z</time>
      </trkpt>
      <trkpt lat="44.06038" lon="5.35491">
        <ele>683</ele>
        <time>2020-07-11T07:54:02.591Z</time>
      </trkpt>
      <trkpt lat="44.06048" lon="5.35499">
        <ele>683</ele>
        <time>2020-07-11T07:54:03.592Z</time>
      </trkpt>
      <trkpt lat="44.06059" lon="5.35506">
        <ele>682</ele>
        <time>2020-07-11T07:54:04.591Z</time>
      </trkpt>
      <trkpt lat="44.06069" lon="5.35514">
        <ele>681</ele>
        <time>2020-07-11T07:54:05.592Z</time>
      </trkpt>
      <trkpt lat="44.06081" lon="5.35523">
        <ele>680</ele>
        <time>2020-07-11T07:54:06.591Z</time>
      </trkpt>
      <trkpt lat="44.06092" lon="5.35531">
        <ele>680</ele>
        <time>2020-07-11T07:54:07.591Z</time>
      </trkpt>
      <trkpt lat="44.061" lon="5.35537">
        <ele>680</ele>
        <time>2020-07-11T07:54:08.592Z</time>
      </trkpt>
      <trkpt lat="44.06112" lon="5.35548">
        <ele>679</ele>
        <time>2020-07-11T07:54:09.592Z</time>
      </trkpt>
      <trkpt lat="44.0612" lon="5.35556">
        <ele>678</ele>
        <time>2020-07-11T07:54:10.591Z</time>
      </trkpt>
      <trkpt lat="44.0613" lon="5.35566">
        <ele>678</ele>
        <time>2020-07-11T07:54:11.592Z</time>
      </trkpt>
      <trkpt lat="44.06139" lon="5.35577">
        <ele>677</ele>
        <time>2020-07-11T07:54:12.592Z</time>
      </trkpt>
      <trkpt lat="44.06147" lon="5.35588">
        <ele>677</ele>
        <time>2020-07-11T07:54:13.592Z</time>
      </trkpt>
      <trkpt lat="44.06156" lon="5.35599">
        <ele>676</ele>
        <time>2020-07-11T07:54:14.592Z</time>
      </trkpt>
      <trkpt lat="44.06168" lon="5.35612">
        <ele>676</ele>
        <time>2020-07-11T07:54:15.591Z</time>
      </trkpt>
      <trkpt lat="44.06177" lon="5.35623">
        <ele>675</ele>
        <time>2020-07-11T07:54:16.591Z</time>
      </trkpt>
      <trkpt lat="44.06184" lon="5.35631">
        <ele>675</ele>
        <time>2020-07-11T07:54:17.592Z</time>
      </trkpt>
      <trkpt lat="44.06194" lon="5.35641">
        <ele>675</ele>
        <time>2020-07-11T07:54:18.592Z</time>
      </trkpt>
      <trkpt lat="44.06203" lon="5.35652">
        <ele>674</ele>
        <time>2020-07-11T07:54:19.592Z</time>
      </trkpt>
      <trkpt lat="44.06213" lon="5.35661">
        <ele>674</ele>
        <time>2020-07-11T07:54:20.592Z</time>
      </trkpt>
      <trkpt lat="44.06224" lon="5.35668">
        <ele>674</ele>
        <time>2020-07-11T07:54:21.592Z</time>
      </trkpt>
      <trkpt lat="44.06235" lon="5.35674">
        <ele>673</ele>
        <time>2020-07-11T07:54:22.592Z</time>
      </trkpt>
      <trkpt lat="44.06247" lon="5.35679">
        <ele>673</ele>
        <time>2020-07-11T07:54:23.592Z</time>
      </trkpt>
      <trkpt lat="44.06259" lon="5.35682">
        <ele>672</ele>
        <time>2020-07-11T07:54:24.591Z</time>
      </trkpt>
      <trkpt lat="44.06271" lon="5.35685">
        <ele>672</ele>
        <time>2020-07-11T07:54:25.591Z</time>
      </trkpt>
      <trkpt lat="44.06283" lon="5.35687">
        <ele>672</ele>
        <time>2020-07-11T07:54:26.591Z</time>
      </trkpt>
      <trkpt lat="44.06298" lon="5.35689">
        <ele>671</ele>
        <time>2020-07-11T07:54:27.591Z</time>
      </trkpt>
      <trkpt lat="44.06307" lon="5.3569">
        <ele>671</ele>
        <time>2020-07-11T07:54:28.592Z</time>
      </trkpt>
      <trkpt lat="44.06319" lon="5.35691">
        <ele>671</ele>
        <time>2020-07-11T07:54:29.592Z</time>
      </trkpt>
      <trkpt lat="44.06331" lon="5.35692">
        <ele>671</ele>
        <time>2020-07-11T07:54:30.592Z</time>
      </trkpt>
      <trkpt lat="44.06345" lon="5.35693">
        <ele>671</ele>
        <time>2020-07-11T07:54:31.592Z</time>
      </trkpt>
      <trkpt lat="44.06356" lon="5.35693">
        <ele>671</ele>
        <time>2020-07-11T07:54:32.592Z</time>
      </trkpt>
      <trkpt lat="44.06365" lon="5.35694">
        <ele>670</ele>
        <time>2020-07-11T07:54:33.592Z</time>
      </trkpt>
      <trkpt lat="44.06377" lon="5.35695">
        <ele>670</ele>
        <time>2020-07-11T07:54:34.592Z</time>
      </trkpt>
      <trkpt lat="44.0639" lon="5.35696">
        <ele>670</ele>
        <time>2020-07-11T07:54:35.592Z</time>
      </trkpt>
      <trkpt lat="44.06401" lon="5.35697">
        <ele>670</ele>
        <time>2020-07-11T07:54:36.591Z</time>
      </trkpt>
      <trkpt lat="44.06412" lon="5.35699">
        <ele>670</ele>
        <time>2020-07-11T07:54:37.592Z</time>
      </trkpt>
      <trkpt lat="44.06421" lon="5.357">
        <ele>669</ele>
        <time>2020-07-11T07:54:38.591Z</time>
      </trkpt>
      <trkpt lat="44.06432" lon="5.35702">
        <ele>669</ele>
        <time>2020-07-11T07:54:39.592Z</time>
      </trkpt>
      <trkpt lat="44.06445" lon="5.35706">
        <ele>669</ele>
        <time>2020-07-11T07:54:40.592Z</time>
      </trkpt>
      <trkpt lat="44.06453" lon="5.3571">
        <ele>668</ele>
        <time>2020-07-11T07:54:41.592Z</time>
      </trkpt>
      <trkpt lat="44.06463" lon="5.35716">
        <ele>668</ele>
        <time>2020-07-11T07:54:42.592Z</time>
      </trkpt>
      <trkpt lat="44.06472" lon="5.35723">
        <ele>668</ele>
        <time>2020-07-11T07:54:43.592Z</time>
      </trkpt>
      <trkpt lat="44.06481" lon="5.35731">
        <ele>667</ele>
        <time>2020-07-11T07:54:44.592Z</time>
      </trkpt>
      <trkpt lat="44.06489" lon="5.35739">
        <ele>667</ele>
        <time>2020-07-11T07:54:45.591Z</time>
      </trkpt>
      <trkpt lat="44.06498" lon="5.35746">
        <ele>667</ele>
        <time>2020-07-11T07:54:46.592Z</time>
      </trkpt>
      <trkpt lat="44.06504" lon="5.35753">
        <ele>668</ele>
        <time>2020-07-11T07:54:47.592Z</time>
      </trkpt>
      <trkpt lat="44.06513" lon="5.3576">
        <ele>669</ele>
        <time>2020-07-11T07:54:48.592Z</time>
      </trkpt>
      <trkpt lat="44.0652" lon="5.35767">
        <ele>669</ele>
        <time>2020-07-11T07:54:49.591Z</time>
      </trkpt>
      <trkpt lat="44.06527" lon="5.35775">
        <ele>669</ele>
        <time>2020-07-11T07:54:50.592Z</time>
      </trkpt>
      <trkpt lat="44.06534" lon="5.35782">
        <ele>669</ele>
        <time>2020-07-11T07:54:51.592Z</time>
      </trkpt>
      <trkpt lat="44.06541" lon="5.35789">
        <ele>668</ele>
        <time>2020-07-11T07:54:52.592Z</time>
      </trkpt>
      <trkpt lat="44.06549" lon="5.35796">
        <ele>668</ele>
        <time>2020-07-11T07:54:53.592Z</time>
      </trkpt>
      <trkpt lat="44.06556" lon="5.35803">
        <ele>667</ele>
        <time>2020-07-11T07:54:54.592Z</time>
      </trkpt>
      <trkpt lat="44.06564" lon="5.35809">
        <ele>667</ele>
        <time>2020-07-11T07:54:55.592Z</time>
      </trkpt>
      <trkpt lat="44.06572" lon="5.35816">
        <ele>666</ele>
        <time>2020-07-11T07:54:56.591Z</time>
      </trkpt>
      <trkpt lat="44.0658" lon="5.35823">
        <ele>666</ele>
        <time>2020-07-11T07:54:57.592Z</time>
      </trkpt>
      <trkpt lat="44.06588" lon="5.3583">
        <ele>666</ele>
        <time>2020-07-11T07:54:58.592Z</time>
      </trkpt>
      <trkpt lat="44.06598" lon="5.35839">
        <ele>665</ele>
        <time>2020-07-11T07:54:59.591Z</time>
      </trkpt>
      <trkpt lat="44.06604" lon="5.35845">
        <ele>665</ele>
        <time>2020-07-11T07:55:00.592Z</time>
      </trkpt>
      <trkpt lat="44.06611" lon="5.35853">
        <ele>664</ele>
        <time>2020-07-11T07:55:01.592Z</time>
      </trkpt>
      <trkpt lat="44.06618" lon="5.35862">
        <ele>663</ele>
        <time>2020-07-11T07:55:02.592Z</time>
      </trkpt>
      <trkpt lat="44.06625" lon="5.35871">
        <ele>663</ele>
        <time>2020-07-11T07:55:03.592Z</time>
      </trkpt>
      <trkpt lat="44.06632" lon="5.3588">
        <ele>662</ele>
        <time>2020-07-11T07:55:04.592Z</time>
      </trkpt>
      <trkpt lat="44.06638" lon="5.3589">
        <ele>662</ele>
        <time>2020-07-11T07:55:05.592Z</time>
      </trkpt>
      <trkpt lat="44.06644" lon="5.359">
        <ele>662</ele>
        <time>2020-07-11T07:55:06.591Z</time>
      </trkpt>
      <trkpt lat="44.06651" lon="5.3591">
        <ele>662</ele>
        <time>2020-07-11T07:55:07.592Z</time>
      </trkpt>
      <trkpt lat="44.06657" lon="5.3592">
        <ele>662</ele>
        <time>2020-07-11T07:55:08.592Z</time>
      </trkpt>
      <trkpt lat="44.06664" lon="5.35929">
        <ele>662</ele>
        <time>2020-07-11T07:55:09.591Z</time>
      </trkpt>
      <trkpt lat="44.06671" lon="5.35941">
        <ele>661</ele>
        <time>2020-07-11T07:55:10.592Z</time>
      </trkpt>
      <trkpt lat="44.06678" lon="5.35951">
        <ele>661</ele>
        <time>2020-07-11T07:55:11.591Z</time>
      </trkpt>
      <trkpt lat="44.06683" lon="5.35958">
        <ele>660</ele>
        <time>2020-07-11T07:55:12.592Z</time>
      </trkpt>
      <trkpt lat="44.0669" lon="5.35969">
        <ele>660</ele>
        <time>2020-07-11T07:55:13.592Z</time>
      </trkpt>
      <trkpt lat="44.06696" lon="5.35979">
        <ele>660</ele>
        <time>2020-07-11T07:55:14.592Z</time>
      </trkpt>
      <trkpt lat="44.06704" lon="5.3599">
        <ele>659</ele>
        <time>2020-07-11T07:55:15.591Z</time>
      </trkpt>
      <trkpt lat="44.0671" lon="5.35999">
        <ele>659</ele>
        <time>2020-07-11T07:55:16.592Z</time>
      </trkpt>
      <trkpt lat="44.06715" lon="5.36006">
        <ele>659</ele>
        <time>2020-07-11T07:55:17.592Z</time>
      </trkpt>
      <trkpt lat="44.06722" lon="5.36017">
        <ele>659</ele>
        <time>2020-07-11T07:55:18.591Z</time>
      </trkpt>
      <trkpt lat="44.06729" lon="5.36025">
        <ele>658</ele>
        <time>2020-07-11T07:55:19.592Z</time>
      </trkpt>
      <trkpt lat="44.06736" lon="5.36034">
        <ele>658</ele>
        <time>2020-07-11T07:55:20.592Z</time>
      </trkpt>
      <trkpt lat="44.06741" lon="5.36041">
        <ele>657</ele>
        <time>2020-07-11T07:55:21.592Z</time>
      </trkpt>
      <trkpt lat="44.06749" lon="5.36049">
        <ele>657</ele>
        <time>2020-07-11T07:55:22.591Z</time>
      </trkpt>
      <trkpt lat="44.06756" lon="5.36057">
        <ele>657</ele>
        <time>2020-07-11T07:55:23.592Z</time>
      </trkpt>
      <trkpt lat="44.06763" lon="5.36065">
        <ele>656</ele>
        <time>2020-07-11T07:55:24.592Z</time>
      </trkpt>
      <trkpt lat="44.06771" lon="5.36073">
        <ele>656</ele>
        <time>2020-07-11T07:55:25.592Z</time>
      </trkpt>
      <trkpt lat="44.06779" lon="5.36081">
        <ele>655</ele>
        <time>2020-07-11T07:55:26.592Z</time>
      </trkpt>
      <trkpt lat="44.06788" lon="5.36089">
        <ele>655</ele>
        <time>2020-07-11T07:55:27.592Z</time>
      </trkpt>
      <trkpt lat="44.06797" lon="5.36098">
        <ele>655</ele>
        <time>2020-07-11T07:55:28.592Z</time>
      </trkpt>
      <trkpt lat="44.06805" lon="5.36107">
        <ele>655</ele>
        <time>2020-07-11T07:55:29.592Z</time>
      </trkpt>
      <trkpt lat="44.06814" lon="5.36115">
        <ele>654</ele>
        <time>2020-07-11T07:55:30.592Z</time>
      </trkpt>
      <trkpt lat="44.06822" lon="5.36124">
        <ele>654</ele>
        <time>2020-07-11T07:55:31.591Z</time>
      </trkpt>
      <trkpt lat="44.0683" lon="5.36133">
        <ele>654</ele>
        <time>2020-07-11T07:55:32.592Z</time>
      </trkpt>
      <trkpt lat="44.06839" lon="5.36141">
        <ele>653</ele>
        <time>2020-07-11T07:55:33.591Z</time>
      </trkpt>
      <trkpt lat="44.06847" lon="5.3615">
        <ele>653</ele>
        <time>2020-07-11T07:55:34.592Z</time>
      </trkpt>
      <trkpt lat="44.06856" lon="5.36158">
        <ele>653</ele>
        <time>2020-07-11T07:55:35.592Z</time>
      </trkpt>
      <trkpt lat="44.06864" lon="5.36166">
        <ele>652</ele>
        <time>2020-07-11T07:55:36.592Z</time>
      </trkpt>
      <trkpt lat="44.06871" lon="5.36175">
        <ele>652</ele>
        <time>2020-07-11T07:55:37.592Z</time>
      </trkpt>
      <trkpt lat="44.06879" lon="5.36183">
        <ele>652</ele>
        <time>2020-07-11T07:55:38.591Z</time>
      </trkpt>
      <trkpt lat="44.06886" lon="5.36191">
        <ele>652</ele>
        <time>2020-07-11T07:55:39.592Z</time>
      </trkpt>
      <trkpt lat="44.06894" lon="5.36199">
        <ele>652</ele>
        <time>2020-07-11T07:55:40.592Z</time>
      </trkpt>
      <trkpt lat="44.069" lon="5.36205">
        <ele>652</ele>
        <time>2020-07-11T07:55:41.591Z</time>
      </trkpt>
      <trkpt lat="44.06908" lon="5.36213">
        <ele>652</ele>
        <time>2020-07-11T07:55:42.592Z</time>
      </trkpt>
      <trkpt lat="44.06915" lon="5.36221">
        <ele>652</ele>
        <time>2020-07-11T07:55:43.591Z</time>
      </trkpt>
      <trkpt lat="44.06924" lon="5.3623">
        <ele>651</ele>
        <time>2020-07-11T07:55:44.592Z</time>
      </trkpt>
      <trkpt lat="44.0693" lon="5.36236">
        <ele>650</ele>
        <time>2020-07-11T07:55:45.592Z</time>
      </trkpt>
      <trkpt lat="44.06938" lon="5.36244">
        <ele>649</ele>
        <time>2020-07-11T07:55:46.592Z</time>
      </trkpt>
      <trkpt lat="44.06946" lon="5.36255">
        <ele>648</ele>
        <time>2020-07-11T07:55:47.591Z</time>
      </trkpt>
      <trkpt lat="44.06953" lon="5.36263">
        <ele>648</ele>
        <time>2020-07-11T07:55:48.592Z</time>
      </trkpt>
      <trkpt lat="44.06959" lon="5.3627">
        <ele>648</ele>
        <time>2020-07-11T07:55:49.592Z</time>
      </trkpt>
      <trkpt lat="44.06965" lon="5.36278">
        <ele>647</ele>
        <time>2020-07-11T07:55:50.592Z</time>
      </trkpt>
      <trkpt lat="44.06972" lon="5.36287">
        <ele>647</ele>
        <time>2020-07-11T07:55:51.592Z</time>
      </trkpt>
      <trkpt lat="44.06979" lon="5.36296">
        <ele>646</ele>
        <time>2020-07-11T07:55:52.592Z</time>
      </trkpt>
      <trkpt lat="44.06985" lon="5.36304">
        <ele>645</ele>
        <time>2020-07-11T07:55:53.591Z</time>
      </trkpt>
      <trkpt lat="44.06992" lon="5.36313">
        <ele>645</ele>
        <time>2020-07-11T07:55:54.592Z</time>
      </trkpt>
      <trkpt lat="44.06998" lon="5.36321">
        <ele>644</ele>
        <time>2020-07-11T07:55:55.591Z</time>
      </trkpt>
      <trkpt lat="44.07005" lon="5.3633">
        <ele>644</ele>
        <time>2020-07-11T07:55:56.592Z</time>
      </trkpt>
      <trkpt lat="44.07011" lon="5.36338">
        <ele>644</ele>
        <time>2020-07-11T07:55:57.592Z</time>
      </trkpt>
      <trkpt lat="44.07017" lon="5.36346">
        <ele>643</ele>
        <time>2020-07-11T07:55:58.592Z</time>
      </trkpt>
      <trkpt lat="44.07024" lon="5.36354">
        <ele>643</ele>
        <time>2020-07-11T07:55:59.592Z</time>
      </trkpt>
      <trkpt lat="44.0703" lon="5.36362">
        <ele>643</ele>
        <time>2020-07-11T07:56:00.592Z</time>
      </trkpt>
      <trkpt lat="44.07036" lon="5.3637">
        <ele>643</ele>
        <time>2020-07-11T07:56:01.592Z</time>
      </trkpt>
      <trkpt lat="44.07041" lon="5.36378">
        <ele>642</ele>
        <time>2020-07-11T07:56:02.592Z</time>
      </trkpt>
      <trkpt lat="44.07047" lon="5.36386">
        <ele>642</ele>
        <time>2020-07-11T07:56:03.592Z</time>
      </trkpt>
      <trkpt lat="44.07053" lon="5.36393">
        <ele>642</ele>
        <time>2020-07-11T07:56:04.592Z</time>
      </trkpt>
      <trkpt lat="44.07058" lon="5.36401">
        <ele>642</ele>
        <time>2020-07-11T07:56:05.592Z</time>
      </trkpt>
      <trkpt lat="44.07064" lon="5.36408">
        <ele>641</ele>
        <time>2020-07-11T07:56:06.592Z</time>
      </trkpt>
      <trkpt lat="44.0707" lon="5.36416">
        <ele>641</ele>
        <time>2020-07-11T07:56:07.592Z</time>
      </trkpt>
      <trkpt lat="44.07075" lon="5.36423">
        <ele>641</ele>
        <time>2020-07-11T07:56:08.591Z</time>
      </trkpt>
      <trkpt lat="44.0708" lon="5.3643">
        <ele>641</ele>
        <time>2020-07-11T07:56:09.592Z</time>
      </trkpt>
      <trkpt lat="44.07086" lon="5.36438">
        <ele>641</ele>
        <time>2020-07-11T07:56:10.592Z</time>
      </trkpt>
      <trkpt lat="44.07091" lon="5.36445">
        <ele>641</ele>
        <time>2020-07-11T07:56:11.592Z</time>
      </trkpt>
      <trkpt lat="44.07097" lon="5.36452">
        <ele>641</ele>
        <time>2020-07-11T07:56:12.592Z</time>
      </trkpt>
      <trkpt lat="44.07103" lon="5.3646">
        <ele>641</ele>
        <time>2020-07-11T07:56:13.591Z</time>
      </trkpt>
      <trkpt lat="44.07108" lon="5.36467">
        <ele>641</ele>
        <time>2020-07-11T07:56:14.592Z</time>
      </trkpt>
      <trkpt lat="44.07114" lon="5.36474">
        <ele>641</ele>
        <time>2020-07-11T07:56:15.592Z</time>
      </trkpt>
      <trkpt lat="44.07119" lon="5.36481">
        <ele>641</ele>
        <time>2020-07-11T07:56:16.591Z</time>
      </trkpt>
      <trkpt lat="44.07125" lon="5.36488">
        <ele>641</ele>
        <time>2020-07-11T07:56:17.591Z</time>
      </trkpt>
      <trkpt lat="44.07131" lon="5.36496">
        <ele>642</ele>
        <time>2020-07-11T07:56:18.592Z</time>
      </trkpt>
      <trkpt lat="44.07137" lon="5.36503">
        <ele>642</ele>
        <time>2020-07-11T07:56:19.592Z</time>
      </trkpt>
      <trkpt lat="44.07143" lon="5.36511">
        <ele>642</ele>
        <time>2020-07-11T07:56:20.591Z</time>
      </trkpt>
      <trkpt lat="44.07148" lon="5.36518">
        <ele>642</ele>
        <time>2020-07-11T07:56:21.592Z</time>
      </trkpt>
      <trkpt lat="44.07154" lon="5.36525">
        <ele>642</ele>
        <time>2020-07-11T07:56:22.591Z</time>
      </trkpt>
      <trkpt lat="44.0716" lon="5.36532">
        <ele>642</ele>
        <time>2020-07-11T07:56:23.592Z</time>
      </trkpt>
      <trkpt lat="44.07166" lon="5.3654">
        <ele>642</ele>
        <time>2020-07-11T07:56:24.592Z</time>
      </trkpt>
      <trkpt lat="44.07172" lon="5.36547">
        <ele>642</ele>
        <time>2020-07-11T07:56:25.592Z</time>
      </trkpt>
      <trkpt lat="44.07178" lon="5.36554">
        <ele>642</ele>
        <time>2020-07-11T07:56:26.591Z</time>
      </trkpt>
      <trkpt lat="44.07184" lon="5.36561">
        <ele>642</ele>
        <time>2020-07-11T07:56:27.592Z</time>
      </trkpt>
      <trkpt lat="44.07191" lon="5.36569">
        <ele>642</ele>
        <time>2020-07-11T07:56:28.592Z</time>
      </trkpt>
      <trkpt lat="44.07197" lon="5.36576">
        <ele>643</ele>
        <time>2020-07-11T07:56:29.592Z</time>
      </trkpt>
      <trkpt lat="44.07203" lon="5.36583">
        <ele>643</ele>
        <time>2020-07-11T07:56:30.592Z</time>
      </trkpt>
      <trkpt lat="44.07209" lon="5.36591">
        <ele>643</ele>
        <time>2020-07-11T07:56:31.592Z</time>
      </trkpt>
      <trkpt lat="44.07215" lon="5.36598">
        <ele>643</ele>
        <time>2020-07-11T07:56:32.592Z</time>
      </trkpt>
      <trkpt lat="44.07221" lon="5.36605">
        <ele>643</ele>
        <time>2020-07-11T07:56:33.592Z</time>
      </trkpt>
      <trkpt lat="44.07227" lon="5.36613">
        <ele>643</ele>
        <time>2020-07-11T07:56:34.592Z</time>
      </trkpt>
      <trkpt lat="44.07233" lon="5.3662">
        <ele>643</ele>
        <time>2020-07-11T07:56:35.591Z</time>
      </trkpt>
      <trkpt lat="44.07239" lon="5.36627">
        <ele>643</ele>
        <time>2020-07-11T07:56:36.591Z</time>
      </trkpt>
      <trkpt lat="44.07245" lon="5.36634">
        <ele>643</ele>
        <time>2020-07-11T07:56:37.592Z</time>
      </trkpt>
      <trkpt lat="44.07251" lon="5.36641">
        <ele>643</ele>
        <time>2020-07-11T07:56:38.592Z</time>
      </trkpt>
      <trkpt lat="44.07257" lon="5.36648">
        <ele>643</ele>
        <time>2020-07-11T07:56:39.592Z</time>
      </trkpt>
      <trkpt lat="44.07263" lon="5.36655">
        <ele>643</ele>
        <time>2020-07-11T07:56:40.592Z</time>
      </trkpt>
      <trkpt lat="44.07269" lon="5.36662">
        <ele>643</ele>
        <time>2020-07-11T07:56:41.592Z</time>
      </trkpt>
      <trkpt lat="44.07275" lon="5.36669">
        <ele>643</ele>
        <time>2020-07-11T07:56:42.592Z</time>
      </trkpt>
      <trkpt lat="44.07281" lon="5.36676">
        <ele>643</ele>
        <time>2020-07-11T07:56:43.592Z</time>
      </trkpt>
      <trkpt lat="44.07287" lon="5.36683">
        <ele>643</ele>
        <time>2020-07-11T07:56:44.591Z</time>
      </trkpt>
      <trkpt lat="44.07293" lon="5.3669">
        <ele>644</ele>
        <time>2020-07-11T07:56:45.592Z</time>
      </trkpt>
      <trkpt lat="44.07299" lon="5.36697">
        <ele>644</ele>
        <time>2020-07-11T07:56:46.592Z</time>
      </trkpt>
      <trkpt lat="44.07305" lon="5.36704">
        <ele>644</ele>
        <time>2020-07-11T07:56:47.592Z</time>
      </trkpt>
      <trkpt lat="44.07311" lon="5.36711">
        <ele>644</ele>
        <time>2020-07-11T07:56:48.592Z</time>
      </trkpt>
      <trkpt lat="44.07317" lon="5.36718">
        <ele>645</ele>
        <time>2020-07-11T07:56:49.592Z</time>
      </trkpt>
      <trkpt lat="44.07323" lon="5.36725">
        <ele>645</ele>
        <time>2020-07-11T07:56:50.591Z</time>
      </trkpt>
      <trkpt lat="44.0733" lon="5.36732">
        <ele>645</ele>
        <time>2020-07-11T07:56:51.592Z</time>
      </trkpt>
      <trkpt lat="44.07335" lon="5.36739">
        <ele>645</ele>
        <time>2020-07-11T07:56:52.591Z</time>
      </trkpt>
      <trkpt lat="44.07341" lon="5.36746">
        <ele>645</ele>
        <time>2020-07-11T07:56:53.591Z</time>
      </trkpt>
      <trkpt lat="44.07347" lon="5.36753">
        <ele>644</ele>
        <time>2020-07-11T07:56:54.592Z</time>
      </trkpt>
      <trkpt lat="44.07353" lon="5.3676">
        <ele>645</ele>
        <time>2020-07-11T07:56:55.591Z</time>
      </trkpt>
      <trkpt lat="44.07358" lon="5.36767">
        <ele>644</ele>
        <time>2020-07-11T07:56:56.592Z</time>
      </trkpt>
      <trkpt lat="44.07364" lon="5.36775">
        <ele>644</ele>
        <time>2020-07-11T07:56:57.592Z</time>
      </trkpt>
      <trkpt lat="44.0737" lon="5.36783">
        <ele>644</ele>
        <time>2020-07-11T07:56:58.591Z</time>
      </trkpt>
      <trkpt lat="44.07376" lon="5.36791">
        <ele>644</ele>
        <time>2020-07-11T07:56:59.592Z</time>
      </trkpt>
      <trkpt lat="44.07382" lon="5.36799">
        <ele>644</ele>
        <time>2020-07-11T07:57:00.592Z</time>
      </trkpt>
      <trkpt lat="44.07387" lon="5.36807">
        <ele>644</ele>
        <time>2020-07-11T07:57:01.592Z</time>
      </trkpt>
      <trkpt lat="44.07393" lon="5.36816">
        <ele>644</ele>
        <time>2020-07-11T07:57:02.592Z</time>
      </trkpt>
      <trkpt lat="44.07399" lon="5.36824">
        <ele>644</ele>
        <time>2020-07-11T07:57:03.592Z</time>
      </trkpt>
      <trkpt lat="44.07404" lon="5.36832">
        <ele>644</ele>
        <time>2020-07-11T07:57:04.592Z</time>
      </trkpt>
      <trkpt lat="44.0741" lon="5.36841">
        <ele>644</ele>
        <time>2020-07-11T07:57:05.592Z</time>
      </trkpt>
      <trkpt lat="44.07416" lon="5.36849">
        <ele>644</ele>
        <time>2020-07-11T07:57:06.592Z</time>
      </trkpt>
      <trkpt lat="44.07422" lon="5.36857">
        <ele>644</ele>
        <time>2020-07-11T07:57:07.592Z</time>
      </trkpt>
      <trkpt lat="44.07427" lon="5.36865">
        <ele>644</ele>
        <time>2020-07-11T07:57:08.592Z</time>
      </trkpt>
      <trkpt lat="44.07433" lon="5.36874">
        <ele>644</ele>
        <time>2020-07-11T07:57:09.592Z</time>
      </trkpt>
      <trkpt lat="44.07439" lon="5.36882">
        <ele>644</ele>
        <time>2020-07-11T07:57:10.592Z</time>
      </trkpt>
      <trkpt lat="44.07444" lon="5.36891">
        <ele>644</ele>
        <time>2020-07-11T07:57:11.592Z</time>
      </trkpt>
      <trkpt lat="44.07451" lon="5.36901">
        <ele>644</ele>
        <time>2020-07-11T07:57:12.592Z</time>
      </trkpt>
      <trkpt lat="44.07455" lon="5.36908">
        <ele>643</ele>
        <time>2020-07-11T07:57:13.592Z</time>
      </trkpt>
      <trkpt lat="44.0746" lon="5.36917">
        <ele>643</ele>
        <time>2020-07-11T07:57:14.592Z</time>
      </trkpt>
      <trkpt lat="44.07466" lon="5.36926">
        <ele>642</ele>
        <time>2020-07-11T07:57:15.592Z</time>
      </trkpt>
      <trkpt lat="44.07471" lon="5.36934">
        <ele>642</ele>
        <time>2020-07-11T07:57:16.592Z</time>
      </trkpt>
      <trkpt lat="44.07477" lon="5.36943">
        <ele>642</ele>
        <time>2020-07-11T07:57:17.592Z</time>
      </trkpt>
      <trkpt lat="44.07482" lon="5.36952">
        <ele>642</ele>
        <time>2020-07-11T07:57:18.592Z</time>
      </trkpt>
      <trkpt lat="44.07487" lon="5.36961">
        <ele>642</ele>
        <time>2020-07-11T07:57:19.592Z</time>
      </trkpt>
      <trkpt lat="44.07492" lon="5.3697">
        <ele>643</ele>
        <time>2020-07-11T07:57:20.591Z</time>
      </trkpt>
      <trkpt lat="44.07497" lon="5.3698">
        <ele>643</ele>
        <time>2020-07-11T07:57:21.592Z</time>
      </trkpt>
      <trkpt lat="44.07502" lon="5.36989">
        <ele>643</ele>
        <time>2020-07-11T07:57:22.592Z</time>
      </trkpt>
      <trkpt lat="44.07506" lon="5.36997">
        <ele>644</ele>
        <time>2020-07-11T07:57:23.592Z</time>
      </trkpt>
      <trkpt lat="44.07511" lon="5.37008">
        <ele>643</ele>
        <time>2020-07-11T07:57:24.592Z</time>
      </trkpt>
      <trkpt lat="44.07515" lon="5.37017">
        <ele>643</ele>
        <time>2020-07-11T07:57:25.592Z</time>
      </trkpt>
      <trkpt lat="44.0752" lon="5.37026">
        <ele>643</ele>
        <time>2020-07-11T07:57:26.592Z</time>
      </trkpt>
      <trkpt lat="44.07525" lon="5.37034">
        <ele>643</ele>
        <time>2020-07-11T07:57:27.592Z</time>
      </trkpt>
      <trkpt lat="44.0753" lon="5.37042">
        <ele>642</ele>
        <time>2020-07-11T07:57:28.592Z</time>
      </trkpt>
      <trkpt lat="44.07536" lon="5.37049">
        <ele>642</ele>
        <time>2020-07-11T07:57:29.592Z</time>
      </trkpt>
      <trkpt lat="44.07542" lon="5.37056">
        <ele>642</ele>
        <time>2020-07-11T07:57:30.592Z</time>
      </trkpt>
      <trkpt lat="44.07548" lon="5.37062">
        <ele>643</ele>
        <time>2020-07-11T07:57:31.591Z</time>
      </trkpt>
      <trkpt lat="44.07554" lon="5.37068">
        <ele>643</ele>
        <time>2020-07-11T07:57:32.592Z</time>
      </trkpt>
      <trkpt lat="44.0756" lon="5.37073">
        <ele>643</ele>
        <time>2020-07-11T07:57:33.592Z</time>
      </trkpt>
      <trkpt lat="44.07567" lon="5.37078">
        <ele>644</ele>
        <time>2020-07-11T07:57:34.592Z</time>
      </trkpt>
      <trkpt lat="44.07573" lon="5.37083">
        <ele>644</ele>
        <time>2020-07-11T07:57:35.591Z</time>
      </trkpt>
      <trkpt lat="44.0758" lon="5.37087">
        <ele>644</ele>
        <time>2020-07-11T07:57:36.592Z</time>
      </trkpt>
      <trkpt lat="44.07586" lon="5.37091">
        <ele>644</ele>
        <time>2020-07-11T07:57:37.592Z</time>
      </trkpt>
      <trkpt lat="44.07592" lon="5.37094">
        <ele>645</ele>
        <time>2020-07-11T07:57:38.591Z</time>
      </trkpt>
      <trkpt lat="44.07598" lon="5.37098">
        <ele>645</ele>
        <time>2020-07-11T07:57:39.592Z</time>
      </trkpt>
      <trkpt lat="44.07605" lon="5.37103">
        <ele>645</ele>
        <time>2020-07-11T07:57:40.591Z</time>
      </trkpt>
      <trkpt lat="44.07612" lon="5.37107">
        <ele>646</ele>
        <time>2020-07-11T07:57:41.592Z</time>
      </trkpt>
      <trkpt lat="44.07618" lon="5.3711">
        <ele>647</ele>
        <time>2020-07-11T07:57:42.591Z</time>
      </trkpt>
      <trkpt lat="44.07624" lon="5.37114">
        <ele>647</ele>
        <time>2020-07-11T07:57:43.591Z</time>
      </trkpt>
      <trkpt lat="44.0763" lon="5.37116">
        <ele>648</ele>
        <time>2020-07-11T07:57:44.592Z</time>
      </trkpt>
      <trkpt lat="44.07637" lon="5.3712">
        <ele>648</ele>
        <time>2020-07-11T07:57:45.592Z</time>
      </trkpt>
      <trkpt lat="44.07644" lon="5.37123">
        <ele>648</ele>
        <time>2020-07-11T07:57:46.592Z</time>
      </trkpt>
      <trkpt lat="44.0765" lon="5.37127">
        <ele>649</ele>
        <time>2020-07-11T07:57:47.592Z</time>
      </trkpt>
      <trkpt lat="44.07656" lon="5.3713">
        <ele>649</ele>
        <time>2020-07-11T07:57:48.592Z</time>
      </trkpt>
      <trkpt lat="44.07662" lon="5.37134">
        <ele>650</ele>
        <time>2020-07-11T07:57:49.592Z</time>
      </trkpt>
      <trkpt lat="44.07668" lon="5.37138">
        <ele>650</ele>
        <time>2020-07-11T07:57:50.591Z</time>
      </trkpt>
      <trkpt lat="44.07674" lon="5.37141">
        <ele>650</ele>
        <time>2020-07-11T07:57:51.592Z</time>
      </trkpt>
      <trkpt lat="44.07679" lon="5.37145">
        <ele>650</ele>
        <time>2020-07-11T07:57:52.591Z</time>
      </trkpt>
      <trkpt lat="44.07686" lon="5.3715">
        <ele>650</ele>
        <time>2020-07-11T07:57:53.591Z</time>
      </trkpt>
      <trkpt lat="44.07692" lon="5.37154">
        <ele>650</ele>
        <time>2020-07-11T07:57:54.592Z</time>
      </trkpt>
      <trkpt lat="44.07697" lon="5.37159">
        <ele>650</ele>
        <time>2020-07-11T07:57:55.592Z</time>
      </trkpt>
      <trkpt lat="44.07703" lon="5.37164">
        <ele>650</ele>
        <time>2020-07-11T07:57:56.592Z</time>
      </trkpt>
      <trkpt lat="44.07709" lon="5.37168">
        <ele>650</ele>
        <time>2020-07-11T07:57:57.591Z</time>
      </trkpt>
      <trkpt lat="44.07714" lon="5.37173">
        <ele>651</ele>
        <time>2020-07-11T07:57:58.592Z</time>
      </trkpt>
      <trkpt lat="44.07719" lon="5.37177">
        <ele>651</ele>
        <time>2020-07-11T07:57:59.592Z</time>
      </trkpt>
      <trkpt lat="44.07725" lon="5.37182">
        <ele>651</ele>
        <time>2020-07-11T07:58:00.591Z</time>
      </trkpt>
      <trkpt lat="44.07731" lon="5.37187">
        <ele>651</ele>
        <time>2020-07-11T07:58:01.592Z</time>
      </trkpt>
      <trkpt lat="44.07736" lon="5.37192">
        <ele>652</ele>
        <time>2020-07-11T07:58:02.592Z</time>
      </trkpt>
      <trkpt lat="44.07742" lon="5.37197">
        <ele>652</ele>
        <time>2020-07-11T07:58:03.592Z</time>
      </trkpt>
      <trkpt lat="44.07747" lon="5.37201">
        <ele>653</ele>
        <time>2020-07-11T07:58:04.592Z</time>
      </trkpt>
      <trkpt lat="44.07752" lon="5.37206">
        <ele>653</ele>
        <time>2020-07-11T07:58:05.591Z</time>
      </trkpt>
      <trkpt lat="44.07757" lon="5.3721">
        <ele>653</ele>
        <time>2020-07-11T07:58:06.592Z</time>
      </trkpt>
      <trkpt lat="44.07763" lon="5.37215">
        <ele>653</ele>
        <time>2020-07-11T07:58:07.592Z</time>
      </trkpt>
      <trkpt lat="44.07767" lon="5.37218">
        <ele>653</ele>
        <time>2020-07-11T07:58:08.592Z</time>
      </trkpt>
      <trkpt lat="44.07774" lon="5.37223">
        <ele>653</ele>
        <time>2020-07-11T07:58:09.591Z</time>
      </trkpt>
      <trkpt lat="44.07779" lon="5.37227">
        <ele>653</ele>
        <time>2020-07-11T07:58:10.592Z</time>
      </trkpt>
      <trkpt lat="44.07785" lon="5.37231">
        <ele>654</ele>
        <time>2020-07-11T07:58:11.592Z</time>
      </trkpt>
      <trkpt lat="44.07791" lon="5.37235">
        <ele>654</ele>
        <time>2020-07-11T07:58:12.592Z</time>
      </trkpt>
      <trkpt lat="44.07797" lon="5.37238">
        <ele>654</ele>
        <time>2020-07-11T07:58:13.592Z</time>
      </trkpt>
      <trkpt lat="44.07803" lon="5.37242">
        <ele>654</ele>
        <time>2020-07-11T07:58:14.592Z</time>
      </trkpt>
      <trkpt lat="44.07809" lon="5.37245">
        <ele>655</ele>
        <time>2020-07-11T07:58:15.592Z</time>
      </trkpt>
      <trkpt lat="44.07816" lon="5.37249">
        <ele>655</ele>
        <time>2020-07-11T07:58:16.591Z</time>
      </trkpt>
      <trkpt lat="44.07822" lon="5.37252">
        <ele>655</ele>
        <time>2020-07-11T07:58:17.592Z</time>
      </trkpt>
      <trkpt lat="44.07829" lon="5.37256">
        <ele>656</ele>
        <time>2020-07-11T07:58:18.592Z</time>
      </trkpt>
      <trkpt lat="44.07835" lon="5.37259">
        <ele>656</ele>
        <time>2020-07-11T07:58:19.592Z</time>
      </trkpt>
      <trkpt lat="44.07842" lon="5.37263">
        <ele>656</ele>
        <time>2020-07-11T07:58:20.592Z</time>
      </trkpt>
      <trkpt lat="44.07848" lon="5.37266">
        <ele>656</ele>
        <time>2020-07-11T07:58:21.591Z</time>
      </trkpt>
      <trkpt lat="44.07854" lon="5.3727">
        <ele>656</ele>
        <time>2020-07-11T07:58:22.592Z</time>
      </trkpt>
      <trkpt lat="44.07861" lon="5.37273">
        <ele>657</ele>
        <time>2020-07-11T07:58:23.592Z</time>
      </trkpt>
      <trkpt lat="44.07867" lon="5.37277">
        <ele>657</ele>
        <time>2020-07-11T07:58:24.591Z</time>
      </trkpt>
      <trkpt lat="44.07873" lon="5.37281">
        <ele>657</ele>
        <time>2020-07-11T07:58:25.592Z</time>
      </trkpt>
      <trkpt lat="44.07879" lon="5.37285">
        <ele>657</ele>
        <time>2020-07-11T07:58:26.592Z</time>
      </trkpt>
      <trkpt lat="44.07886" lon="5.37288">
        <ele>657</ele>
        <time>2020-07-11T07:58:27.592Z</time>
      </trkpt>
      <trkpt lat="44.07892" lon="5.37292">
        <ele>657</ele>
        <time>2020-07-11T07:58:28.592Z</time>
      </trkpt>
      <trkpt lat="44.07898" lon="5.37295">
        <ele>658</ele>
        <time>2020-07-11T07:58:29.592Z</time>
      </trkpt>
      <trkpt lat="44.07904" lon="5.37298">
        <ele>658</ele>
        <time>2020-07-11T07:58:30.592Z</time>
      </trkpt>
      <trkpt lat="44.07911" lon="5.37302">
        <ele>658</ele>
        <time>2020-07-11T07:58:31.592Z</time>
      </trkpt>
      <trkpt lat="44.07915" lon="5.37304">
        <ele>659</ele>
        <time>2020-07-11T07:58:32.592Z</time>
      </trkpt>
      <trkpt lat="44.07923" lon="5.37308">
        <ele>659</ele>
        <time>2020-07-11T07:58:33.592Z</time>
      </trkpt>
      <trkpt lat="44.07929" lon="5.37312">
        <ele>659</ele>
        <time>2020-07-11T07:58:34.592Z</time>
      </trkpt>
      <trkpt lat="44.07935" lon="5.37315">
        <ele>659</ele>
        <time>2020-07-11T07:58:35.592Z</time>
      </trkpt>
      <trkpt lat="44.07941" lon="5.37319">
        <ele>659</ele>
        <time>2020-07-11T07:58:36.592Z</time>
      </trkpt>
      <trkpt lat="44.07947" lon="5.37322">
        <ele>658</ele>
        <time>2020-07-11T07:58:37.592Z</time>
      </trkpt>
      <trkpt lat="44.07953" lon="5.37325">
        <ele>658</ele>
        <time>2020-07-11T07:58:38.591Z</time>
      </trkpt>
      <trkpt lat="44.0796" lon="5.37328">
        <ele>657</ele>
        <time>2020-07-11T07:58:39.592Z</time>
      </trkpt>
      <trkpt lat="44.07966" lon="5.37331">
        <ele>657</ele>
        <time>2020-07-11T07:58:40.592Z</time>
      </trkpt>
      <trkpt lat="44.07972" lon="5.37334">
        <ele>657</ele>
        <time>2020-07-11T07:58:41.591Z</time>
      </trkpt>
      <trkpt lat="44.07978" lon="5.37337">
        <ele>658</ele>
        <time>2020-07-11T07:58:42.592Z</time>
      </trkpt>
      <trkpt lat="44.07984" lon="5.37339">
        <ele>658</ele>
        <time>2020-07-11T07:58:43.591Z</time>
      </trkpt>
      <trkpt lat="44.0799" lon="5.37342">
        <ele>658</ele>
        <time>2020-07-11T07:58:44.592Z</time>
      </trkpt>
      <trkpt lat="44.07996" lon="5.37344">
        <ele>659</ele>
        <time>2020-07-11T07:58:45.592Z</time>
      </trkpt>
      <trkpt lat="44.08003" lon="5.37346">
        <ele>659</ele>
        <time>2020-07-11T07:58:46.592Z</time>
      </trkpt>
      <trkpt lat="44.08009" lon="5.37349">
        <ele>660</ele>
        <time>2020-07-11T07:58:47.592Z</time>
      </trkpt>
      <trkpt lat="44.08015" lon="5.37352">
        <ele>660</ele>
        <time>2020-07-11T07:58:48.592Z</time>
      </trkpt>
      <trkpt lat="44.08021" lon="5.37354">
        <ele>660</ele>
        <time>2020-07-11T07:58:49.591Z</time>
      </trkpt>
      <trkpt lat="44.08027" lon="5.37357">
        <ele>660</ele>
        <time>2020-07-11T07:58:50.592Z</time>
      </trkpt>
      <trkpt lat="44.08033" lon="5.3736">
        <ele>660</ele>
        <time>2020-07-11T07:58:51.592Z</time>
      </trkpt>
      <trkpt lat="44.08039" lon="5.37363">
        <ele>661</ele>
        <time>2020-07-11T07:58:52.592Z</time>
      </trkpt>
      <trkpt lat="44.08045" lon="5.37365">
        <ele>661</ele>
        <time>2020-07-11T07:58:53.592Z</time>
      </trkpt>
      <trkpt lat="44.08051" lon="5.37368">
        <ele>662</ele>
        <time>2020-07-11T07:58:54.592Z</time>
      </trkpt>
      <trkpt lat="44.08057" lon="5.37371">
        <ele>662</ele>
        <time>2020-07-11T07:58:55.592Z</time>
      </trkpt>
      <trkpt lat="44.08063" lon="5.37373">
        <ele>662</ele>
        <time>2020-07-11T07:58:56.592Z</time>
      </trkpt>
      <trkpt lat="44.08069" lon="5.37376">
        <ele>662</ele>
        <time>2020-07-11T07:58:57.592Z</time>
      </trkpt>
      <trkpt lat="44.08074" lon="5.37378">
        <ele>662</ele>
        <time>2020-07-11T07:58:58.591Z</time>
      </trkpt>
      <trkpt lat="44.08082" lon="5.37381">
        <ele>661</ele>
        <time>2020-07-11T07:58:59.591Z</time>
      </trkpt>
      <trkpt lat="44.08088" lon="5.37384">
        <ele>661</ele>
        <time>2020-07-11T07:59:00.592Z</time>
      </trkpt>
      <trkpt lat="44.08094" lon="5.37386">
        <ele>661</ele>
        <time>2020-07-11T07:59:01.592Z</time>
      </trkpt>
      <trkpt lat="44.081" lon="5.37389">
        <ele>661</ele>
        <time>2020-07-11T07:59:02.592Z</time>
      </trkpt>
      <trkpt lat="44.08104" lon="5.37391">
        <ele>661</ele>
        <time>2020-07-11T07:59:03.592Z</time>
      </trkpt>
      <trkpt lat="44.08111" lon="5.37395">
        <ele>660</ele>
        <time>2020-07-11T07:59:04.592Z</time>
      </trkpt>
      <trkpt lat="44.08117" lon="5.37399">
        <ele>661</ele>
        <time>2020-07-11T07:59:05.592Z</time>
      </trkpt>
      <trkpt lat="44.08122" lon="5.37404">
        <ele>661</ele>
        <time>2020-07-11T07:59:06.592Z</time>
      </trkpt>
      <trkpt lat="44.08127" lon="5.37408">
        <ele>661</ele>
        <time>2020-07-11T07:59:07.592Z</time>
      </trkpt>
      <trkpt lat="44.08132" lon="5.37413">
        <ele>661</ele>
        <time>2020-07-11T07:59:08.592Z</time>
      </trkpt>
      <trkpt lat="44.08137" lon="5.37418">
        <ele>661</ele>
        <time>2020-07-11T07:59:09.592Z</time>
      </trkpt>
      <trkpt lat="44.08142" lon="5.37422">
        <ele>661</ele>
        <time>2020-07-11T07:59:10.592Z</time>
      </trkpt>
      <trkpt lat="44.08147" lon="5.37427">
        <ele>661</ele>
        <time>2020-07-11T07:59:11.592Z</time>
      </trkpt>
      <trkpt lat="44.08152" lon="5.37432">
        <ele>660</ele>
        <time>2020-07-11T07:59:12.592Z</time>
      </trkpt>
      <trkpt lat="44.08157" lon="5.37437">
        <ele>660</ele>
        <time>2020-07-11T07:59:13.591Z</time>
      </trkpt>
      <trkpt lat="44.08161" lon="5.37442">
        <ele>660</ele>
        <time>2020-07-11T07:59:14.592Z</time>
      </trkpt>
      <trkpt lat="44.08166" lon="5.37447">
        <ele>660</ele>
        <time>2020-07-11T07:59:15.592Z</time>
      </trkpt>
      <trkpt lat="44.08171" lon="5.37452">
        <ele>660</ele>
        <time>2020-07-11T07:59:16.592Z</time>
      </trkpt>
      <trkpt lat="44.08175" lon="5.37456">
        <ele>660</ele>
        <time>2020-07-11T07:59:17.591Z</time>
      </trkpt>
      <trkpt lat="44.08181" lon="5.37461">
        <ele>660</ele>
        <time>2020-07-11T07:59:18.592Z</time>
      </trkpt>
      <trkpt lat="44.08186" lon="5.37466">
        <ele>660</ele>
        <time>2020-07-11T07:59:19.592Z</time>
      </trkpt>
      <trkpt lat="44.0819" lon="5.37471">
        <ele>661</ele>
        <time>2020-07-11T07:59:20.592Z</time>
      </trkpt>
      <trkpt lat="44.08195" lon="5.37476">
        <ele>661</ele>
        <time>2020-07-11T07:59:21.591Z</time>
      </trkpt>
      <trkpt lat="44.082" lon="5.37481">
        <ele>662</ele>
        <time>2020-07-11T07:59:22.591Z</time>
      </trkpt>
      <trkpt lat="44.08204" lon="5.37486">
        <ele>662</ele>
        <time>2020-07-11T07:59:23.591Z</time>
      </trkpt>
      <trkpt lat="44.08209" lon="5.37492">
        <ele>663</ele>
        <time>2020-07-11T07:59:24.592Z</time>
      </trkpt>
      <trkpt lat="44.08213" lon="5.37498">
        <ele>663</ele>
        <time>2020-07-11T07:59:25.592Z</time>
      </trkpt>
      <trkpt lat="44.08217" lon="5.37504">
        <ele>663</ele>
        <time>2020-07-11T07:59:26.592Z</time>
      </trkpt>
      <trkpt lat="44.08221" lon="5.37511">
        <ele>663</ele>
        <time>2020-07-11T07:59:27.592Z</time>
      </trkpt>
      <trkpt lat="44.08226" lon="5.37517">
        <ele>664</ele>
        <time>2020-07-11T07:59:28.592Z</time>
      </trkpt>
      <trkpt lat="44.0823" lon="5.37523">
        <ele>664</ele>
        <time>2020-07-11T07:59:29.592Z</time>
      </trkpt>
      <trkpt lat="44.08234" lon="5.37529">
        <ele>664</ele>
        <time>2020-07-11T07:59:30.592Z</time>
      </trkpt>
      <trkpt lat="44.08239" lon="5.37535">
        <ele>664</ele>
        <time>2020-07-11T07:59:31.592Z</time>
      </trkpt>
      <trkpt lat="44.08244" lon="5.37541">
        <ele>664</ele>
        <time>2020-07-11T07:59:32.592Z</time>
      </trkpt>
      <trkpt lat="44.08248" lon="5.37546">
        <ele>665</ele>
        <time>2020-07-11T07:59:33.592Z</time>
      </trkpt>
      <trkpt lat="44.08253" lon="5.37552">
        <ele>664</ele>
        <time>2020-07-11T07:59:34.591Z</time>
      </trkpt>
      <trkpt lat="44.08258" lon="5.37557">
        <ele>664</ele>
        <time>2020-07-11T07:59:35.591Z</time>
      </trkpt>
      <trkpt lat="44.08263" lon="5.37562">
        <ele>664</ele>
        <time>2020-07-11T07:59:36.592Z</time>
      </trkpt>
      <trkpt lat="44.08268" lon="5.37567">
        <ele>664</ele>
        <time>2020-07-11T07:59:37.592Z</time>
      </trkpt>
      <trkpt lat="44.08274" lon="5.37572">
        <ele>665</ele>
        <time>2020-07-11T07:59:38.592Z</time>
      </trkpt>
      <trkpt lat="44.08279" lon="5.37577">
        <ele>665</ele>
        <time>2020-07-11T07:59:39.592Z</time>
      </trkpt>
      <trkpt lat="44.08284" lon="5.37582">
        <ele>665</ele>
        <time>2020-07-11T07:59:40.591Z</time>
      </trkpt>
      <trkpt lat="44.08288" lon="5.37585">
        <ele>666</ele>
        <time>2020-07-11T07:59:41.592Z</time>
      </trkpt>
      <trkpt lat="44.08294" lon="5.37591">
        <ele>666</ele>
        <time>2020-07-11T07:59:42.592Z</time>
      </trkpt>
      <trkpt lat="44.08299" lon="5.37595">
        <ele>666</ele>
        <time>2020-07-11T07:59:43.592Z</time>
      </trkpt>
      <trkpt lat="44.08304" lon="5.376">
        <ele>666</ele>
        <time>2020-07-11T07:59:44.592Z</time>
      </trkpt>
      <trkpt lat="44.08309" lon="5.37604">
        <ele>666</ele>
        <time>2020-07-11T07:59:45.592Z</time>
      </trkpt>
      <trkpt lat="44.08314" lon="5.37609">
        <ele>667</ele>
        <time>2020-07-11T07:59:46.592Z</time>
      </trkpt>
      <trkpt lat="44.08319" lon="5.37614">
        <ele>667</ele>
        <time>2020-07-11T07:59:47.592Z</time>
      </trkpt>
      <trkpt lat="44.08324" lon="5.37619">
        <ele>667</ele>
        <time>2020-07-11T07:59:48.591Z</time>
      </trkpt>
      <trkpt lat="44.08329" lon="5.37624">
        <ele>667</ele>
        <time>2020-07-11T07:59:49.591Z</time>
      </trkpt>
      <trkpt lat="44.08334" lon="5.37628">
        <ele>667</ele>
        <time>2020-07-11T07:59:50.592Z</time>
      </trkpt>
      <trkpt lat="44.08339" lon="5.37633">
        <ele>667</ele>
        <time>2020-07-11T07:59:51.591Z</time>
      </trkpt>
      <trkpt lat="44.08344" lon="5.37637">
        <ele>667</ele>
        <time>2020-07-11T07:59:52.592Z</time>
      </trkpt>
      <trkpt lat="44.08349" lon="5.37642">
        <ele>667</ele>
        <time>2020-07-11T07:59:53.591Z</time>
      </trkpt>
      <trkpt lat="44.08354" lon="5.37647">
        <ele>667</ele>
        <time>2020-07-11T07:59:54.592Z</time>
      </trkpt>
      <trkpt lat="44.08359" lon="5.37653">
        <ele>667</ele>
        <time>2020-07-11T07:59:55.591Z</time>
      </trkpt>
      <trkpt lat="44.08364" lon="5.37657">
        <ele>667</ele>
        <time>2020-07-11T07:59:56.591Z</time>
      </trkpt>
      <trkpt lat="44.08371" lon="5.37664">
        <ele>667</ele>
        <time>2020-07-11T07:59:57.592Z</time>
      </trkpt>
      <trkpt lat="44.08376" lon="5.37669">
        <ele>668</ele>
        <time>2020-07-11T07:59:58.591Z</time>
      </trkpt>
      <trkpt lat="44.08382" lon="5.37674">
        <ele>668</ele>
        <time>2020-07-11T07:59:59.592Z</time>
      </trkpt>
      <trkpt lat="44.08387" lon="5.37679">
        <ele>668</ele>
        <time>2020-07-11T08:00:00.591Z</time>
      </trkpt>
      <trkpt lat="44.08392" lon="5.37684">
        <ele>668</ele>
        <time>2020-07-11T08:00:01.592Z</time>
      </trkpt>
      <trkpt lat="44.08397" lon="5.37689">
        <ele>669</ele>
        <time>2020-07-11T08:00:02.592Z</time>
      </trkpt>
      <trkpt lat="44.08402" lon="5.37694">
        <ele>669</ele>
        <time>2020-07-11T08:00:03.591Z</time>
      </trkpt>
      <trkpt lat="44.08407" lon="5.37698">
        <ele>669</ele>
        <time>2020-07-11T08:00:04.592Z</time>
      </trkpt>
      <trkpt lat="44.08414" lon="5.37704">
        <ele>669</ele>
        <time>2020-07-11T08:00:05.592Z</time>
      </trkpt>
      <trkpt lat="44.08417" lon="5.37707">
        <ele>669</ele>
        <time>2020-07-11T08:00:06.591Z</time>
      </trkpt>
      <trkpt lat="44.08423" lon="5.37712">
        <ele>670</ele>
        <time>2020-07-11T08:00:07.592Z</time>
      </trkpt>
      <trkpt lat="44.08428" lon="5.37717">
        <ele>670</ele>
        <time>2020-07-11T08:00:08.592Z</time>
      </trkpt>
      <trkpt lat="44.08433" lon="5.37721">
        <ele>670</ele>
        <time>2020-07-11T08:00:09.592Z</time>
      </trkpt>
      <trkpt lat="44.08438" lon="5.37726">
        <ele>670</ele>
        <time>2020-07-11T08:00:10.592Z</time>
      </trkpt>
      <trkpt lat="44.08444" lon="5.3773">
        <ele>671</ele>
        <time>2020-07-11T08:00:11.591Z</time>
      </trkpt>
      <trkpt lat="44.0845" lon="5.37734">
        <ele>671</ele>
        <time>2020-07-11T08:00:12.592Z</time>
      </trkpt>
      <trkpt lat="44.08454" lon="5.37737">
        <ele>671</ele>
        <time>2020-07-11T08:00:13.592Z</time>
      </trkpt>
      <trkpt lat="44.0846" lon="5.37741">
        <ele>671</ele>
        <time>2020-07-11T08:00:14.591Z</time>
      </trkpt>
      <trkpt lat="44.08466" lon="5.37744">
        <ele>671</ele>
        <time>2020-07-11T08:00:15.592Z</time>
      </trkpt>
      <trkpt lat="44.08472" lon="5.37747">
        <ele>671</ele>
        <time>2020-07-11T08:00:16.592Z</time>
      </trkpt>
      <trkpt lat="44.08479" lon="5.37751">
        <ele>671</ele>
        <time>2020-07-11T08:00:17.592Z</time>
      </trkpt>
      <trkpt lat="44.08485" lon="5.37754">
        <ele>670</ele>
        <time>2020-07-11T08:00:18.591Z</time>
      </trkpt>
      <trkpt lat="44.0849" lon="5.37756">
        <ele>670</ele>
        <time>2020-07-11T08:00:19.592Z</time>
      </trkpt>
      <trkpt lat="44.08496" lon="5.37759">
        <ele>670</ele>
        <time>2020-07-11T08:00:20.592Z</time>
      </trkpt>
      <trkpt lat="44.08502" lon="5.37762">
        <ele>670</ele>
        <time>2020-07-11T08:00:21.592Z</time>
      </trkpt>
      <trkpt lat="44.08509" lon="5.37765">
        <ele>670</ele>
        <time>2020-07-11T08:00:22.592Z</time>
      </trkpt>
      <trkpt lat="44.08515" lon="5.37768">
        <ele>670</ele>
        <time>2020-07-11T08:00:23.592Z</time>
      </trkpt>
      <trkpt lat="44.08521" lon="5.37772">
        <ele>670</ele>
        <time>2020-07-11T08:00:24.592Z</time>
      </trkpt>
      <trkpt lat="44.08527" lon="5.37776">
        <ele>670</ele>
        <time>2020-07-11T08:00:25.592Z</time>
      </trkpt>
      <trkpt lat="44.08533" lon="5.3778">
        <ele>671</ele>
        <time>2020-07-11T08:00:26.592Z</time>
      </trkpt>
      <trkpt lat="44.08538" lon="5.37785">
        <ele>671</ele>
        <time>2020-07-11T08:00:27.592Z</time>
      </trkpt>
      <trkpt lat="44.08544" lon="5.3779">
        <ele>672</ele>
        <time>2020-07-11T08:00:28.592Z</time>
      </trkpt>
      <trkpt lat="44.08549" lon="5.37796">
        <ele>672</ele>
        <time>2020-07-11T08:00:29.591Z</time>
      </trkpt>
      <trkpt lat="44.08554" lon="5.37802">
        <ele>672</ele>
        <time>2020-07-11T08:00:30.591Z</time>
      </trkpt>
      <trkpt lat="44.08559" lon="5.37808">
        <ele>673</ele>
        <time>2020-07-11T08:00:31.592Z</time>
      </trkpt>
      <trkpt lat="44.08564" lon="5.37814">
        <ele>673</ele>
        <time>2020-07-11T08:00:32.592Z</time>
      </trkpt>
      <trkpt lat="44.0857" lon="5.37821">
        <ele>674</ele>
        <time>2020-07-11T08:00:33.592Z</time>
      </trkpt>
      <trkpt lat="44.08574" lon="5.37826">
        <ele>674</ele>
        <time>2020-07-11T08:00:34.591Z</time>
      </trkpt>
      <trkpt lat="44.08579" lon="5.37832">
        <ele>675</ele>
        <time>2020-07-11T08:00:35.591Z</time>
      </trkpt>
      <trkpt lat="44.08585" lon="5.37839">
        <ele>675</ele>
        <time>2020-07-11T08:00:36.592Z</time>
      </trkpt>
      <trkpt lat="44.0859" lon="5.37845">
        <ele>675</ele>
        <time>2020-07-11T08:00:37.592Z</time>
      </trkpt>
      <trkpt lat="44.08595" lon="5.37851">
        <ele>675</ele>
        <time>2020-07-11T08:00:38.592Z</time>
      </trkpt>
      <trkpt lat="44.086" lon="5.37857">
        <ele>675</ele>
        <time>2020-07-11T08:00:39.592Z</time>
      </trkpt>
      <trkpt lat="44.08606" lon="5.37864">
        <ele>674</ele>
        <time>2020-07-11T08:00:40.592Z</time>
      </trkpt>
      <trkpt lat="44.08611" lon="5.3787">
        <ele>674</ele>
        <time>2020-07-11T08:00:41.591Z</time>
      </trkpt>
      <trkpt lat="44.08616" lon="5.37876">
        <ele>674</ele>
        <time>2020-07-11T08:00:42.591Z</time>
      </trkpt>
      <trkpt lat="44.08622" lon="5.37882">
        <ele>673</ele>
        <time>2020-07-11T08:00:43.591Z</time>
      </trkpt>
      <trkpt lat="44.08627" lon="5.37888">
        <ele>672</ele>
        <time>2020-07-11T08:00:44.592Z</time>
      </trkpt>
      <trkpt lat="44.08633" lon="5.37893">
        <ele>672</ele>
        <time>2020-07-11T08:00:45.592Z</time>
      </trkpt>
      <trkpt lat="44.08639" lon="5.37898">
        <ele>671</ele>
        <time>2020-07-11T08:00:46.591Z</time>
      </trkpt>
      <trkpt lat="44.08646" lon="5.37902">
        <ele>671</ele>
        <time>2020-07-11T08:00:47.591Z</time>
      </trkpt>
      <trkpt lat="44.08653" lon="5.37908">
        <ele>671</ele>
        <time>2020-07-11T08:00:48.592Z</time>
      </trkpt>
      <trkpt lat="44.08658" lon="5.37912">
        <ele>671</ele>
        <time>2020-07-11T08:00:49.592Z</time>
      </trkpt>
      <trkpt lat="44.08665" lon="5.37916">
        <ele>671</ele>
        <time>2020-07-11T08:00:50.592Z</time>
      </trkpt>
      <trkpt lat="44.08671" lon="5.3792">
        <ele>671</ele>
        <time>2020-07-11T08:00:51.591Z</time>
      </trkpt>
      <trkpt lat="44.08677" lon="5.37925">
        <ele>671</ele>
        <time>2020-07-11T08:00:52.592Z</time>
      </trkpt>
      <trkpt lat="44.08683" lon="5.37929">
        <ele>672</ele>
        <time>2020-07-11T08:00:53.591Z</time>
      </trkpt>
      <trkpt lat="44.0869" lon="5.37933">
        <ele>672</ele>
        <time>2020-07-11T08:00:54.592Z</time>
      </trkpt>
      <trkpt lat="44.08696" lon="5.37938">
        <ele>671</ele>
        <time>2020-07-11T08:00:55.591Z</time>
      </trkpt>
      <trkpt lat="44.08703" lon="5.37942">
        <ele>672</ele>
        <time>2020-07-11T08:00:56.592Z</time>
      </trkpt>
      <trkpt lat="44.08709" lon="5.37946">
        <ele>672</ele>
        <time>2020-07-11T08:00:57.592Z</time>
      </trkpt>
      <trkpt lat="44.08716" lon="5.37951">
        <ele>672</ele>
        <time>2020-07-11T08:00:58.591Z</time>
      </trkpt>
      <trkpt lat="44.08722" lon="5.37955">
        <ele>672</ele>
        <time>2020-07-11T08:00:59.592Z</time>
      </trkpt>
      <trkpt lat="44.08728" lon="5.37959">
        <ele>672</ele>
        <time>2020-07-11T08:01:00.591Z</time>
      </trkpt>
      <trkpt lat="44.08734" lon="5.37964">
        <ele>672</ele>
        <time>2020-07-11T08:01:01.591Z</time>
      </trkpt>
      <trkpt lat="44.0874" lon="5.37968">
        <ele>671</ele>
        <time>2020-07-11T08:01:02.592Z</time>
      </trkpt>
      <trkpt lat="44.08746" lon="5.37973">
        <ele>671</ele>
        <time>2020-07-11T08:01:03.591Z</time>
      </trkpt>
      <trkpt lat="44.08753" lon="5.37977">
        <ele>671</ele>
        <time>2020-07-11T08:01:04.591Z</time>
      </trkpt>
      <trkpt lat="44.08759" lon="5.37982">
        <ele>671</ele>
        <time>2020-07-11T08:01:05.592Z</time>
      </trkpt>
      <trkpt lat="44.08766" lon="5.37986">
        <ele>672</ele>
        <time>2020-07-11T08:01:06.592Z</time>
      </trkpt>
      <trkpt lat="44.08772" lon="5.37991">
        <ele>672</ele>
        <time>2020-07-11T08:01:07.591Z</time>
      </trkpt>
      <trkpt lat="44.08779" lon="5.37995">
        <ele>672</ele>
        <time>2020-07-11T08:01:08.592Z</time>
      </trkpt>
      <trkpt lat="44.08785" lon="5.38">
        <ele>672</ele>
        <time>2020-07-11T08:01:09.592Z</time>
      </trkpt>
      <trkpt lat="44.08792" lon="5.38004">
        <ele>672</ele>
        <time>2020-07-11T08:01:10.592Z</time>
      </trkpt>
      <trkpt lat="44.08799" lon="5.3801">
        <ele>672</ele>
        <time>2020-07-11T08:01:11.591Z</time>
      </trkpt>
      <trkpt lat="44.08805" lon="5.38013">
        <ele>672</ele>
        <time>2020-07-11T08:01:12.591Z</time>
      </trkpt>
      <trkpt lat="44.08811" lon="5.38018">
        <ele>672</ele>
        <time>2020-07-11T08:01:13.592Z</time>
      </trkpt>
      <trkpt lat="44.08818" lon="5.38023">
        <ele>672</ele>
        <time>2020-07-11T08:01:14.592Z</time>
      </trkpt>
      <trkpt lat="44.08824" lon="5.38027">
        <ele>672</ele>
        <time>2020-07-11T08:01:15.592Z</time>
      </trkpt>
      <trkpt lat="44.08831" lon="5.38032">
        <ele>672</ele>
        <time>2020-07-11T08:01:16.592Z</time>
      </trkpt>
      <trkpt lat="44.08837" lon="5.38036">
        <ele>672</ele>
        <time>2020-07-11T08:01:17.592Z</time>
      </trkpt>
      <trkpt lat="44.08843" lon="5.3804">
        <ele>672</ele>
        <time>2020-07-11T08:01:18.592Z</time>
      </trkpt>
      <trkpt lat="44.0885" lon="5.38043">
        <ele>672</ele>
        <time>2020-07-11T08:01:19.592Z</time>
      </trkpt>
      <trkpt lat="44.08857" lon="5.38046">
        <ele>672</ele>
        <time>2020-07-11T08:01:20.591Z</time>
      </trkpt>
      <trkpt lat="44.08863" lon="5.38049">
        <ele>672</ele>
        <time>2020-07-11T08:01:21.592Z</time>
      </trkpt>
      <trkpt lat="44.0887" lon="5.38053">
        <ele>672</ele>
        <time>2020-07-11T08:01:22.592Z</time>
      </trkpt>
      <trkpt lat="44.08877" lon="5.38056">
        <ele>673</ele>
        <time>2020-07-11T08:01:23.591Z</time>
      </trkpt>
      <trkpt lat="44.08884" lon="5.38058">
        <ele>673</ele>
        <time>2020-07-11T08:01:24.592Z</time>
      </trkpt>
      <trkpt lat="44.0889" lon="5.38061">
        <ele>673</ele>
        <time>2020-07-11T08:01:25.592Z</time>
      </trkpt>
      <trkpt lat="44.08897" lon="5.38064">
        <ele>673</ele>
        <time>2020-07-11T08:01:26.591Z</time>
      </trkpt>
      <trkpt lat="44.08904" lon="5.38067">
        <ele>674</ele>
        <time>2020-07-11T08:01:27.592Z</time>
      </trkpt>
      <trkpt lat="44.0891" lon="5.3807">
        <ele>674</ele>
        <time>2020-07-11T08:01:28.592Z</time>
      </trkpt>
      <trkpt lat="44.08917" lon="5.38073">
        <ele>674</ele>
        <time>2020-07-11T08:01:29.592Z</time>
      </trkpt>
      <trkpt lat="44.08923" lon="5.38075">
        <ele>675</ele>
        <time>2020-07-11T08:01:30.592Z</time>
      </trkpt>
      <trkpt lat="44.0893" lon="5.38078">
        <ele>675</ele>
        <time>2020-07-11T08:01:31.592Z</time>
      </trkpt>
      <trkpt lat="44.08936" lon="5.38082">
        <ele>675</ele>
        <time>2020-07-11T08:01:32.592Z</time>
      </trkpt>
      <trkpt lat="44.08942" lon="5.38086">
        <ele>675</ele>
        <time>2020-07-11T08:01:33.592Z</time>
      </trkpt>
      <trkpt lat="44.08949" lon="5.3809">
        <ele>675</ele>
        <time>2020-07-11T08:01:34.591Z</time>
      </trkpt>
      <trkpt lat="44.08955" lon="5.38095">
        <ele>675</ele>
        <time>2020-07-11T08:01:35.592Z</time>
      </trkpt>
      <trkpt lat="44.08961" lon="5.381">
        <ele>676</ele>
        <time>2020-07-11T08:01:36.591Z</time>
      </trkpt>
      <trkpt lat="44.08966" lon="5.38106">
        <ele>676</ele>
        <time>2020-07-11T08:01:37.591Z</time>
      </trkpt>
      <trkpt lat="44.08971" lon="5.38111">
        <ele>676</ele>
        <time>2020-07-11T08:01:38.591Z</time>
      </trkpt>
      <trkpt lat="44.08977" lon="5.38118">
        <ele>676</ele>
        <time>2020-07-11T08:01:39.591Z</time>
      </trkpt>
      <trkpt lat="44.08982" lon="5.38124">
        <ele>676</ele>
        <time>2020-07-11T08:01:40.591Z</time>
      </trkpt>
      <trkpt lat="44.08987" lon="5.3813">
        <ele>676</ele>
        <time>2020-07-11T08:01:41.591Z</time>
      </trkpt>
      <trkpt lat="44.08992" lon="5.38136">
        <ele>676</ele>
        <time>2020-07-11T08:01:42.592Z</time>
      </trkpt>
      <trkpt lat="44.08998" lon="5.38142">
        <ele>676</ele>
        <time>2020-07-11T08:01:43.592Z</time>
      </trkpt>
      <trkpt lat="44.09003" lon="5.38147">
        <ele>676</ele>
        <time>2020-07-11T08:01:44.592Z</time>
      </trkpt>
      <trkpt lat="44.09008" lon="5.38154">
        <ele>676</ele>
        <time>2020-07-11T08:01:45.592Z</time>
      </trkpt>
      <trkpt lat="44.09015" lon="5.38161">
        <ele>676</ele>
        <time>2020-07-11T08:01:46.591Z</time>
      </trkpt>
      <trkpt lat="44.09019" lon="5.38166">
        <ele>676</ele>
        <time>2020-07-11T08:01:47.591Z</time>
      </trkpt>
      <trkpt lat="44.09024" lon="5.38172">
        <ele>676</ele>
        <time>2020-07-11T08:01:48.591Z</time>
      </trkpt>
      <trkpt lat="44.09029" lon="5.38178">
        <ele>676</ele>
        <time>2020-07-11T08:01:49.591Z</time>
      </trkpt>
      <trkpt lat="44.09035" lon="5.38184">
        <ele>675</ele>
        <time>2020-07-11T08:01:50.591Z</time>
      </trkpt>
      <trkpt lat="44.0904" lon="5.3819">
        <ele>675</ele>
        <time>2020-07-11T08:01:51.592Z</time>
      </trkpt>
      <trkpt lat="44.09046" lon="5.38196">
        <ele>675</ele>
        <time>2020-07-11T08:01:52.592Z</time>
      </trkpt>
      <trkpt lat="44.09051" lon="5.38202">
        <ele>675</ele>
        <time>2020-07-11T08:01:53.592Z</time>
      </trkpt>
      <trkpt lat="44.09057" lon="5.38208">
        <ele>675</ele>
        <time>2020-07-11T08:01:54.592Z</time>
      </trkpt>
      <trkpt lat="44.09062" lon="5.38214">
        <ele>675</ele>
        <time>2020-07-11T08:01:55.591Z</time>
      </trkpt>
      <trkpt lat="44.09068" lon="5.3822">
        <ele>675</ele>
        <time>2020-07-11T08:01:56.592Z</time>
      </trkpt>
      <trkpt lat="44.09073" lon="5.38226">
        <ele>675</ele>
        <time>2020-07-11T08:01:57.592Z</time>
      </trkpt>
      <trkpt lat="44.09078" lon="5.38232">
        <ele>675</ele>
        <time>2020-07-11T08:01:58.592Z</time>
      </trkpt>
      <trkpt lat="44.09084" lon="5.38238">
        <ele>675</ele>
        <time>2020-07-11T08:01:59.592Z</time>
      </trkpt>
      <trkpt lat="44.09089" lon="5.38244">
        <ele>675</ele>
        <time>2020-07-11T08:02:00.591Z</time>
      </trkpt>
      <trkpt lat="44.09095" lon="5.3825">
        <ele>675</ele>
        <time>2020-07-11T08:02:01.592Z</time>
      </trkpt>
      <trkpt lat="44.091" lon="5.38256">
        <ele>674</ele>
        <time>2020-07-11T08:02:02.592Z</time>
      </trkpt>
      <trkpt lat="44.09105" lon="5.38262">
        <ele>674</ele>
        <time>2020-07-11T08:02:03.592Z</time>
      </trkpt>
      <trkpt lat="44.0911" lon="5.38267">
        <ele>675</ele>
        <time>2020-07-11T08:02:04.592Z</time>
      </trkpt>
      <trkpt lat="44.09115" lon="5.38273">
        <ele>675</ele>
        <time>2020-07-11T08:02:05.592Z</time>
      </trkpt>
      <trkpt lat="44.09121" lon="5.38278">
        <ele>675</ele>
        <time>2020-07-11T08:02:06.591Z</time>
      </trkpt>
      <trkpt lat="44.09126" lon="5.38284">
        <ele>675</ele>
        <time>2020-07-11T08:02:07.591Z</time>
      </trkpt>
      <trkpt lat="44.09131" lon="5.3829">
        <ele>676</ele>
        <time>2020-07-11T08:02:08.592Z</time>
      </trkpt>
      <trkpt lat="44.09135" lon="5.38295">
        <ele>676</ele>
        <time>2020-07-11T08:02:09.592Z</time>
      </trkpt>
      <trkpt lat="44.0914" lon="5.38301">
        <ele>676</ele>
        <time>2020-07-11T08:02:10.592Z</time>
      </trkpt>
      <trkpt lat="44.09145" lon="5.38308">
        <ele>677</ele>
        <time>2020-07-11T08:02:11.592Z</time>
      </trkpt>
      <trkpt lat="44.0915" lon="5.38315">
        <ele>676</ele>
        <time>2020-07-11T08:02:12.591Z</time>
      </trkpt>
      <trkpt lat="44.09154" lon="5.38321">
        <ele>676</ele>
        <time>2020-07-11T08:02:13.592Z</time>
      </trkpt>
      <trkpt lat="44.09158" lon="5.38329">
        <ele>675</ele>
        <time>2020-07-11T08:02:14.592Z</time>
      </trkpt>
      <trkpt lat="44.09162" lon="5.38336">
        <ele>675</ele>
        <time>2020-07-11T08:02:15.591Z</time>
      </trkpt>
      <trkpt lat="44.09166" lon="5.38343">
        <ele>674</ele>
        <time>2020-07-11T08:02:16.591Z</time>
      </trkpt>
      <trkpt lat="44.0917" lon="5.3835">
        <ele>674</ele>
        <time>2020-07-11T08:02:17.591Z</time>
      </trkpt>
      <trkpt lat="44.09174" lon="5.38358">
        <ele>675</ele>
        <time>2020-07-11T08:02:18.591Z</time>
      </trkpt>
      <trkpt lat="44.09178" lon="5.38366">
        <ele>675</ele>
        <time>2020-07-11T08:02:19.591Z</time>
      </trkpt>
      <trkpt lat="44.09182" lon="5.38373">
        <ele>675</ele>
        <time>2020-07-11T08:02:20.592Z</time>
      </trkpt>
      <trkpt lat="44.09186" lon="5.38381">
        <ele>675</ele>
        <time>2020-07-11T08:02:21.592Z</time>
      </trkpt>
      <trkpt lat="44.0919" lon="5.38389">
        <ele>676</ele>
        <time>2020-07-11T08:02:22.591Z</time>
      </trkpt>
      <trkpt lat="44.09194" lon="5.38397">
        <ele>676</ele>
        <time>2020-07-11T08:02:23.591Z</time>
      </trkpt>
      <trkpt lat="44.09197" lon="5.38404">
        <ele>677</ele>
        <time>2020-07-11T08:02:24.592Z</time>
      </trkpt>
      <trkpt lat="44.09201" lon="5.38411">
        <ele>677</ele>
        <time>2020-07-11T08:02:25.592Z</time>
      </trkpt>
      <trkpt lat="44.09205" lon="5.38419">
        <ele>677</ele>
        <time>2020-07-11T08:02:26.592Z</time>
      </trkpt>
      <trkpt lat="44.09209" lon="5.38426">
        <ele>677</ele>
        <time>2020-07-11T08:02:27.591Z</time>
      </trkpt>
      <trkpt lat="44.09212" lon="5.38433">
        <ele>677</ele>
        <time>2020-07-11T08:02:28.591Z</time>
      </trkpt>
      <trkpt lat="44.09216" lon="5.38439">
        <ele>677</ele>
        <time>2020-07-11T08:02:29.592Z</time>
      </trkpt>
      <trkpt lat="44.0922" lon="5.38446">
        <ele>676</ele>
        <time>2020-07-11T08:02:30.592Z</time>
      </trkpt>
      <trkpt lat="44.09223" lon="5.38452">
        <ele>676</ele>
        <time>2020-07-11T08:02:31.591Z</time>
      </trkpt>
      <trkpt lat="44.09227" lon="5.3846">
        <ele>676</ele>
        <time>2020-07-11T08:02:32.592Z</time>
      </trkpt>
      <trkpt lat="44.0923" lon="5.38467">
        <ele>676</ele>
        <time>2020-07-11T08:02:33.592Z</time>
      </trkpt>
      <trkpt lat="44.09234" lon="5.38474">
        <ele>676</ele>
        <time>2020-07-11T08:02:34.591Z</time>
      </trkpt>
      <trkpt lat="44.09238" lon="5.38481">
        <ele>675</ele>
        <time>2020-07-11T08:02:35.592Z</time>
      </trkpt>
      <trkpt lat="44.0924" lon="5.38486">
        <ele>675</ele>
        <time>2020-07-11T08:02:36.591Z</time>
      </trkpt>
      <trkpt lat="44.09245" lon="5.38495">
        <ele>676</ele>
        <time>2020-07-11T08:02:37.592Z</time>
      </trkpt>
      <trkpt lat="44.09248" lon="5.38502">
        <ele>676</ele>
        <time>2020-07-11T08:02:38.592Z</time>
      </trkpt>
      <trkpt lat="44.09252" lon="5.38508">
        <ele>677</ele>
        <time>2020-07-11T08:02:39.592Z</time>
      </trkpt>
      <trkpt lat="44.09256" lon="5.38515">
        <ele>677</ele>
        <time>2020-07-11T08:02:40.591Z</time>
      </trkpt>
      <trkpt lat="44.09259" lon="5.38521">
        <ele>678</ele>
        <time>2020-07-11T08:02:41.592Z</time>
      </trkpt>
      <trkpt lat="44.09263" lon="5.38528">
        <ele>678</ele>
        <time>2020-07-11T08:02:42.592Z</time>
      </trkpt>
      <trkpt lat="44.09266" lon="5.38534">
        <ele>679</ele>
        <time>2020-07-11T08:02:43.592Z</time>
      </trkpt>
      <trkpt lat="44.09269" lon="5.38541">
        <ele>679</ele>
        <time>2020-07-11T08:02:44.592Z</time>
      </trkpt>
      <trkpt lat="44.09273" lon="5.38548">
        <ele>679</ele>
        <time>2020-07-11T08:02:45.592Z</time>
      </trkpt>
      <trkpt lat="44.09275" lon="5.38553">
        <ele>680</ele>
        <time>2020-07-11T08:02:46.592Z</time>
      </trkpt>
      <trkpt lat="44.09278" lon="5.38559">
        <ele>680</ele>
        <time>2020-07-11T08:02:47.591Z</time>
      </trkpt>
      <trkpt lat="44.09281" lon="5.38567">
        <ele>679</ele>
        <time>2020-07-11T08:02:48.591Z</time>
      </trkpt>
      <trkpt lat="44.09284" lon="5.38573">
        <ele>679</ele>
        <time>2020-07-11T08:02:49.592Z</time>
      </trkpt>
      <trkpt lat="44.09288" lon="5.38578">
        <ele>679</ele>
        <time>2020-07-11T08:02:50.592Z</time>
      </trkpt>
      <trkpt lat="44.09292" lon="5.38583">
        <ele>679</ele>
        <time>2020-07-11T08:02:51.592Z</time>
      </trkpt>
      <trkpt lat="44.09296" lon="5.38586">
        <ele>679</ele>
        <time>2020-07-11T08:02:52.592Z</time>
      </trkpt>
      <trkpt lat="44.09301" lon="5.38588">
        <ele>679</ele>
        <time>2020-07-11T08:02:53.592Z</time>
      </trkpt>
      <trkpt lat="44.09305" lon="5.3859">
        <ele>679</ele>
        <time>2020-07-11T08:02:54.591Z</time>
      </trkpt>
      <trkpt lat="44.09308" lon="5.38593">
        <ele>679</ele>
        <time>2020-07-11T08:02:55.591Z</time>
      </trkpt>
      <trkpt lat="44.09311" lon="5.38598">
        <ele>679</ele>
        <time>2020-07-11T08:02:56.591Z</time>
      </trkpt>
      <trkpt lat="44.09312" lon="5.38604">
        <ele>679</ele>
        <time>2020-07-11T08:02:57.592Z</time>
      </trkpt>
      <trkpt lat="44.09313" lon="5.38612">
        <ele>679</ele>
        <time>2020-07-11T08:02:58.592Z</time>
      </trkpt>
      <trkpt lat="44.09314" lon="5.3862">
        <ele>679</ele>
        <time>2020-07-11T08:02:59.592Z</time>
      </trkpt>
      <trkpt lat="44.09315" lon="5.38628">
        <ele>680</ele>
        <time>2020-07-11T08:03:00.592Z</time>
      </trkpt>
      <trkpt lat="44.09316" lon="5.38637">
        <ele>680</ele>
        <time>2020-07-11T08:03:01.592Z</time>
      </trkpt>
      <trkpt lat="44.09317" lon="5.38646">
        <ele>681</ele>
        <time>2020-07-11T08:03:02.592Z</time>
      </trkpt>
      <trkpt lat="44.09318" lon="5.38655">
        <ele>681</ele>
        <time>2020-07-11T08:03:03.592Z</time>
      </trkpt>
      <trkpt lat="44.09319" lon="5.38665">
        <ele>681</ele>
        <time>2020-07-11T08:03:04.592Z</time>
      </trkpt>
      <trkpt lat="44.0932" lon="5.38674">
        <ele>681</ele>
        <time>2020-07-11T08:03:05.592Z</time>
      </trkpt>
      <trkpt lat="44.09321" lon="5.38684">
        <ele>681</ele>
        <time>2020-07-11T08:03:06.592Z</time>
      </trkpt>
      <trkpt lat="44.09322" lon="5.38694">
        <ele>681</ele>
        <time>2020-07-11T08:03:07.591Z</time>
      </trkpt>
      <trkpt lat="44.09322" lon="5.38704">
        <ele>681</ele>
        <time>2020-07-11T08:03:08.592Z</time>
      </trkpt>
      <trkpt lat="44.09323" lon="5.38714">
        <ele>681</ele>
        <time>2020-07-11T08:03:09.592Z</time>
      </trkpt>
      <trkpt lat="44.09324" lon="5.38724">
        <ele>681</ele>
        <time>2020-07-11T08:03:10.591Z</time>
      </trkpt>
      <trkpt lat="44.09325" lon="5.38734">
        <ele>681</ele>
        <time>2020-07-11T08:03:11.592Z</time>
      </trkpt>
      <trkpt lat="44.09326" lon="5.38745">
        <ele>681</ele>
        <time>2020-07-11T08:03:12.592Z</time>
      </trkpt>
      <trkpt lat="44.09327" lon="5.38755">
        <ele>682</ele>
        <time>2020-07-11T08:03:13.592Z</time>
      </trkpt>
      <trkpt lat="44.09328" lon="5.38765">
        <ele>682</ele>
        <time>2020-07-11T08:03:14.592Z</time>
      </trkpt>
      <trkpt lat="44.09329" lon="5.38775">
        <ele>682</ele>
        <time>2020-07-11T08:03:15.592Z</time>
      </trkpt>
      <trkpt lat="44.09329" lon="5.38786">
        <ele>683</ele>
        <time>2020-07-11T08:03:16.592Z</time>
      </trkpt>
      <trkpt lat="44.0933" lon="5.38796">
        <ele>683</ele>
        <time>2020-07-11T08:03:17.592Z</time>
      </trkpt>
      <trkpt lat="44.09331" lon="5.38806">
        <ele>684</ele>
        <time>2020-07-11T08:03:18.592Z</time>
      </trkpt>
      <trkpt lat="44.09332" lon="5.38817">
        <ele>684</ele>
        <time>2020-07-11T08:03:19.592Z</time>
      </trkpt>
      <trkpt lat="44.09333" lon="5.38827">
        <ele>684</ele>
        <time>2020-07-11T08:03:20.591Z</time>
      </trkpt>
      <trkpt lat="44.09334" lon="5.38838">
        <ele>684</ele>
        <time>2020-07-11T08:03:21.592Z</time>
      </trkpt>
      <trkpt lat="44.09335" lon="5.38848">
        <ele>684</ele>
        <time>2020-07-11T08:03:22.592Z</time>
      </trkpt>
      <trkpt lat="44.09336" lon="5.38859">
        <ele>685</ele>
        <time>2020-07-11T08:03:23.592Z</time>
      </trkpt>
      <trkpt lat="44.09336" lon="5.3887">
        <ele>685</ele>
        <time>2020-07-11T08:03:24.592Z</time>
      </trkpt>
      <trkpt lat="44.09337" lon="5.38881">
        <ele>685</ele>
        <time>2020-07-11T08:03:25.591Z</time>
      </trkpt>
      <trkpt lat="44.09338" lon="5.38892">
        <ele>685</ele>
        <time>2020-07-11T08:03:26.592Z</time>
      </trkpt>
      <trkpt lat="44.09339" lon="5.38903">
        <ele>686</ele>
        <time>2020-07-11T08:03:27.591Z</time>
      </trkpt>
      <trkpt lat="44.0934" lon="5.38913">
        <ele>686</ele>
        <time>2020-07-11T08:03:28.591Z</time>
      </trkpt>
      <trkpt lat="44.09341" lon="5.38922">
        <ele>686</ele>
        <time>2020-07-11T08:03:29.592Z</time>
      </trkpt>
      <trkpt lat="44.09342" lon="5.38935">
        <ele>686</ele>
        <time>2020-07-11T08:03:30.591Z</time>
      </trkpt>
      <trkpt lat="44.09343" lon="5.38943">
        <ele>685</ele>
        <time>2020-07-11T08:03:31.592Z</time>
      </trkpt>
      <trkpt lat="44.09345" lon="5.38956">
        <ele>685</ele>
        <time>2020-07-11T08:03:32.591Z</time>
      </trkpt>
      <trkpt lat="44.09345" lon="5.38967">
        <ele>686</ele>
        <time>2020-07-11T08:03:33.592Z</time>
      </trkpt>
      <trkpt lat="44.09346" lon="5.38978">
        <ele>686</ele>
        <time>2020-07-11T08:03:34.591Z</time>
      </trkpt>
      <trkpt lat="44.09347" lon="5.38988">
        <ele>686</ele>
        <time>2020-07-11T08:03:35.592Z</time>
      </trkpt>
      <trkpt lat="44.09348" lon="5.38999">
        <ele>686</ele>
        <time>2020-07-11T08:03:36.591Z</time>
      </trkpt>
      <trkpt lat="44.09349" lon="5.39009">
        <ele>686</ele>
        <time>2020-07-11T08:03:37.591Z</time>
      </trkpt>
      <trkpt lat="44.0935" lon="5.3902">
        <ele>686</ele>
        <time>2020-07-11T08:03:38.591Z</time>
      </trkpt>
      <trkpt lat="44.0935" lon="5.39031">
        <ele>686</ele>
        <time>2020-07-11T08:03:39.592Z</time>
      </trkpt>
      <trkpt lat="44.09351" lon="5.39041">
        <ele>686</ele>
        <time>2020-07-11T08:03:40.591Z</time>
      </trkpt>
      <trkpt lat="44.09352" lon="5.39052">
        <ele>686</ele>
        <time>2020-07-11T08:03:41.592Z</time>
      </trkpt>
      <trkpt lat="44.09353" lon="5.39062">
        <ele>686</ele>
        <time>2020-07-11T08:03:42.591Z</time>
      </trkpt>
      <trkpt lat="44.09353" lon="5.39073">
        <ele>686</ele>
        <time>2020-07-11T08:03:43.591Z</time>
      </trkpt>
      <trkpt lat="44.09354" lon="5.39083">
        <ele>686</ele>
        <time>2020-07-11T08:03:44.591Z</time>
      </trkpt>
      <trkpt lat="44.09355" lon="5.39093">
        <ele>686</ele>
        <time>2020-07-11T08:03:45.592Z</time>
      </trkpt>
      <trkpt lat="44.09356" lon="5.39103">
        <ele>686</ele>
        <time>2020-07-11T08:03:46.591Z</time>
      </trkpt>
      <trkpt lat="44.09357" lon="5.39114">
        <ele>685</ele>
        <time>2020-07-11T08:03:47.592Z</time>
      </trkpt>
      <trkpt lat="44.09357" lon="5.39124">
        <ele>685</ele>
        <time>2020-07-11T08:03:48.591Z</time>
      </trkpt>
      <trkpt lat="44.09358" lon="5.39135">
        <ele>684</ele>
        <time>2020-07-11T08:03:49.591Z</time>
      </trkpt>
      <trkpt lat="44.09359" lon="5.39145">
        <ele>684</ele>
        <time>2020-07-11T08:03:50.591Z</time>
      </trkpt>
      <trkpt lat="44.0936" lon="5.39156">
        <ele>683</ele>
        <time>2020-07-11T08:03:51.592Z</time>
      </trkpt>
      <trkpt lat="44.0936" lon="5.39166">
        <ele>683</ele>
        <time>2020-07-11T08:03:52.592Z</time>
      </trkpt>
      <trkpt lat="44.09361" lon="5.39176">
        <ele>684</ele>
        <time>2020-07-11T08:03:53.592Z</time>
      </trkpt>
      <trkpt lat="44.09362" lon="5.39187">
        <ele>684</ele>
        <time>2020-07-11T08:03:54.592Z</time>
      </trkpt>
      <trkpt lat="44.09363" lon="5.39197">
        <ele>684</ele>
        <time>2020-07-11T08:03:55.591Z</time>
      </trkpt>
      <trkpt lat="44.09364" lon="5.39207">
        <ele>684</ele>
        <time>2020-07-11T08:03:56.592Z</time>
      </trkpt>
      <trkpt lat="44.09365" lon="5.39217">
        <ele>684</ele>
        <time>2020-07-11T08:03:57.592Z</time>
      </trkpt>
      <trkpt lat="44.09365" lon="5.39227">
        <ele>684</ele>
        <time>2020-07-11T08:03:58.591Z</time>
      </trkpt>
      <trkpt lat="44.09366" lon="5.39237">
        <ele>685</ele>
        <time>2020-07-11T08:03:59.592Z</time>
      </trkpt>
      <trkpt lat="44.09367" lon="5.39247">
        <ele>685</ele>
        <time>2020-07-11T08:04:00.592Z</time>
      </trkpt>
      <trkpt lat="44.09368" lon="5.39256">
        <ele>685</ele>
        <time>2020-07-11T08:04:01.592Z</time>
      </trkpt>
      <trkpt lat="44.09369" lon="5.39267">
        <ele>685</ele>
        <time>2020-07-11T08:04:02.591Z</time>
      </trkpt>
      <trkpt lat="44.09369" lon="5.39277">
        <ele>686</ele>
        <time>2020-07-11T08:04:03.592Z</time>
      </trkpt>
      <trkpt lat="44.0937" lon="5.39289">
        <ele>686</ele>
        <time>2020-07-11T08:04:04.592Z</time>
      </trkpt>
      <trkpt lat="44.09371" lon="5.39297">
        <ele>686</ele>
        <time>2020-07-11T08:04:05.592Z</time>
      </trkpt>
      <trkpt lat="44.09371" lon="5.39307">
        <ele>686</ele>
        <time>2020-07-11T08:04:06.592Z</time>
      </trkpt>
      <trkpt lat="44.09372" lon="5.39318">
        <ele>685</ele>
        <time>2020-07-11T08:04:07.592Z</time>
      </trkpt>
      <trkpt lat="44.09372" lon="5.39326">
        <ele>685</ele>
        <time>2020-07-11T08:04:08.592Z</time>
      </trkpt>
      <trkpt lat="44.09373" lon="5.39335">
        <ele>685</ele>
        <time>2020-07-11T08:04:09.592Z</time>
      </trkpt>
      <trkpt lat="44.09373" lon="5.39345">
        <ele>685</ele>
        <time>2020-07-11T08:04:10.592Z</time>
      </trkpt>
      <trkpt lat="44.09374" lon="5.39354">
        <ele>685</ele>
        <time>2020-07-11T08:04:11.591Z</time>
      </trkpt>
      <trkpt lat="44.09374" lon="5.39364">
        <ele>686</ele>
        <time>2020-07-11T08:04:12.592Z</time>
      </trkpt>
      <trkpt lat="44.09374" lon="5.39374">
        <ele>686</ele>
        <time>2020-07-11T08:04:13.591Z</time>
      </trkpt>
      <trkpt lat="44.09374" lon="5.39382">
        <ele>686</ele>
        <time>2020-07-11T08:04:14.591Z</time>
      </trkpt>
      <trkpt lat="44.09375" lon="5.3939">
        <ele>685</ele>
        <time>2020-07-11T08:04:15.592Z</time>
      </trkpt>
      <trkpt lat="44.09375" lon="5.394">
        <ele>685</ele>
        <time>2020-07-11T08:04:16.592Z</time>
      </trkpt>
      <trkpt lat="44.09375" lon="5.39408">
        <ele>685</ele>
        <time>2020-07-11T08:04:17.592Z</time>
      </trkpt>
      <trkpt lat="44.09376" lon="5.39417">
        <ele>685</ele>
        <time>2020-07-11T08:04:18.592Z</time>
      </trkpt>
      <trkpt lat="44.09376" lon="5.39426">
        <ele>685</ele>
        <time>2020-07-11T08:04:19.592Z</time>
      </trkpt>
      <trkpt lat="44.09376" lon="5.39435">
        <ele>684</ele>
        <time>2020-07-11T08:04:20.592Z</time>
      </trkpt>
      <trkpt lat="44.09376" lon="5.39444">
        <ele>684</ele>
        <time>2020-07-11T08:04:21.591Z</time>
      </trkpt>
      <trkpt lat="44.09377" lon="5.39453">
        <ele>684</ele>
        <time>2020-07-11T08:04:22.592Z</time>
      </trkpt>
      <trkpt lat="44.09377" lon="5.39462">
        <ele>684</ele>
        <time>2020-07-11T08:04:23.591Z</time>
      </trkpt>
      <trkpt lat="44.09377" lon="5.39471">
        <ele>685</ele>
        <time>2020-07-11T08:04:24.592Z</time>
      </trkpt>
      <trkpt lat="44.09377" lon="5.3948">
        <ele>685</ele>
        <time>2020-07-11T08:04:25.592Z</time>
      </trkpt>
      <trkpt lat="44.09377" lon="5.39489">
        <ele>685</ele>
        <time>2020-07-11T08:04:26.592Z</time>
      </trkpt>
      <trkpt lat="44.09377" lon="5.39497">
        <ele>685</ele>
        <time>2020-07-11T08:04:27.591Z</time>
      </trkpt>
      <trkpt lat="44.09377" lon="5.39506">
        <ele>686</ele>
        <time>2020-07-11T08:04:28.592Z</time>
      </trkpt>
      <trkpt lat="44.09377" lon="5.39515">
        <ele>686</ele>
        <time>2020-07-11T08:04:29.592Z</time>
      </trkpt>
      <trkpt lat="44.09377" lon="5.39523">
        <ele>686</ele>
        <time>2020-07-11T08:04:30.591Z</time>
      </trkpt>
      <trkpt lat="44.09377" lon="5.39531">
        <ele>686</ele>
        <time>2020-07-11T08:04:31.591Z</time>
      </trkpt>
      <trkpt lat="44.09377" lon="5.39539">
        <ele>686</ele>
        <time>2020-07-11T08:04:32.592Z</time>
      </trkpt>
      <trkpt lat="44.09377" lon="5.39547">
        <ele>686</ele>
        <time>2020-07-11T08:04:33.592Z</time>
      </trkpt>
      <trkpt lat="44.09377" lon="5.39555">
        <ele>686</ele>
        <time>2020-07-11T08:04:34.592Z</time>
      </trkpt>
      <trkpt lat="44.09377" lon="5.39564">
        <ele>686</ele>
        <time>2020-07-11T08:04:35.592Z</time>
      </trkpt>
      <trkpt lat="44.09377" lon="5.39572">
        <ele>686</ele>
        <time>2020-07-11T08:04:36.592Z</time>
      </trkpt>
      <trkpt lat="44.09377" lon="5.3958">
        <ele>687</ele>
        <time>2020-07-11T08:04:37.592Z</time>
      </trkpt>
      <trkpt lat="44.09377" lon="5.39588">
        <ele>687</ele>
        <time>2020-07-11T08:04:38.591Z</time>
      </trkpt>
      <trkpt lat="44.09377" lon="5.39596">
        <ele>688</ele>
        <time>2020-07-11T08:04:39.592Z</time>
      </trkpt>
      <trkpt lat="44.09377" lon="5.39604">
        <ele>688</ele>
        <time>2020-07-11T08:04:40.592Z</time>
      </trkpt>
      <trkpt lat="44.09378" lon="5.39612">
        <ele>688</ele>
        <time>2020-07-11T08:04:41.592Z</time>
      </trkpt>
      <trkpt lat="44.09378" lon="5.39619">
        <ele>688</ele>
        <time>2020-07-11T08:04:42.592Z</time>
      </trkpt>
      <trkpt lat="44.09379" lon="5.39627">
        <ele>688</ele>
        <time>2020-07-11T08:04:43.592Z</time>
      </trkpt>
      <trkpt lat="44.09379" lon="5.39635">
        <ele>688</ele>
        <time>2020-07-11T08:04:44.591Z</time>
      </trkpt>
      <trkpt lat="44.0938" lon="5.39643">
        <ele>688</ele>
        <time>2020-07-11T08:04:45.592Z</time>
      </trkpt>
      <trkpt lat="44.0938" lon="5.39651">
        <ele>688</ele>
        <time>2020-07-11T08:04:46.591Z</time>
      </trkpt>
      <trkpt lat="44.09381" lon="5.39659">
        <ele>689</ele>
        <time>2020-07-11T08:04:47.592Z</time>
      </trkpt>
      <trkpt lat="44.09381" lon="5.39666">
        <ele>689</ele>
        <time>2020-07-11T08:04:48.592Z</time>
      </trkpt>
      <trkpt lat="44.09381" lon="5.39672">
        <ele>689</ele>
        <time>2020-07-11T08:04:49.592Z</time>
      </trkpt>
      <trkpt lat="44.09381" lon="5.39682">
        <ele>690</ele>
        <time>2020-07-11T08:04:50.592Z</time>
      </trkpt>
      <trkpt lat="44.09381" lon="5.3969">
        <ele>690</ele>
        <time>2020-07-11T08:04:51.592Z</time>
      </trkpt>
      <trkpt lat="44.0938" lon="5.39697">
        <ele>690</ele>
        <time>2020-07-11T08:04:52.592Z</time>
      </trkpt>
      <trkpt lat="44.09379" lon="5.39705">
        <ele>690</ele>
        <time>2020-07-11T08:04:53.591Z</time>
      </trkpt>
      <trkpt lat="44.09379" lon="5.39713">
        <ele>690</ele>
        <time>2020-07-11T08:04:54.591Z</time>
      </trkpt>
      <trkpt lat="44.09378" lon="5.39721">
        <ele>690</ele>
        <time>2020-07-11T08:04:55.592Z</time>
      </trkpt>
      <trkpt lat="44.09377" lon="5.39729">
        <ele>690</ele>
        <time>2020-07-11T08:04:56.592Z</time>
      </trkpt>
      <trkpt lat="44.09376" lon="5.39738">
        <ele>690</ele>
        <time>2020-07-11T08:04:57.592Z</time>
      </trkpt>
      <trkpt lat="44.09375" lon="5.39747">
        <ele>690</ele>
        <time>2020-07-11T08:04:58.592Z</time>
      </trkpt>
      <trkpt lat="44.09374" lon="5.39757">
        <ele>690</ele>
        <time>2020-07-11T08:04:59.592Z</time>
      </trkpt>
      <trkpt lat="44.09373" lon="5.39767">
        <ele>689</ele>
        <time>2020-07-11T08:05:00.592Z</time>
      </trkpt>
      <trkpt lat="44.09372" lon="5.39777">
        <ele>689</ele>
        <time>2020-07-11T08:05:01.592Z</time>
      </trkpt>
      <trkpt lat="44.09372" lon="5.39787">
        <ele>689</ele>
        <time>2020-07-11T08:05:02.592Z</time>
      </trkpt>
      <trkpt lat="44.09371" lon="5.39797">
        <ele>689</ele>
        <time>2020-07-11T08:05:03.592Z</time>
      </trkpt>
      <trkpt lat="44.0937" lon="5.39807">
        <ele>689</ele>
        <time>2020-07-11T08:05:04.591Z</time>
      </trkpt>
      <trkpt lat="44.09369" lon="5.39817">
        <ele>689</ele>
        <time>2020-07-11T08:05:05.592Z</time>
      </trkpt>
      <trkpt lat="44.09368" lon="5.39828">
        <ele>689</ele>
        <time>2020-07-11T08:05:06.591Z</time>
      </trkpt>
      <trkpt lat="44.09367" lon="5.39841">
        <ele>688</ele>
        <time>2020-07-11T08:05:07.592Z</time>
      </trkpt>
      <trkpt lat="44.09366" lon="5.39849">
        <ele>688</ele>
        <time>2020-07-11T08:05:08.592Z</time>
      </trkpt>
      <trkpt lat="44.09365" lon="5.3986">
        <ele>688</ele>
        <time>2020-07-11T08:05:09.592Z</time>
      </trkpt>
      <trkpt lat="44.09364" lon="5.3987">
        <ele>687</ele>
        <time>2020-07-11T08:05:10.592Z</time>
      </trkpt>
      <trkpt lat="44.09363" lon="5.3988">
        <ele>687</ele>
        <time>2020-07-11T08:05:11.592Z</time>
      </trkpt>
      <trkpt lat="44.09362" lon="5.3989">
        <ele>686</ele>
        <time>2020-07-11T08:05:12.592Z</time>
      </trkpt>
      <trkpt lat="44.0936" lon="5.399">
        <ele>686</ele>
        <time>2020-07-11T08:05:13.592Z</time>
      </trkpt>
      <trkpt lat="44.09358" lon="5.3991">
        <ele>686</ele>
        <time>2020-07-11T08:05:14.592Z</time>
      </trkpt>
      <trkpt lat="44.09355" lon="5.39919">
        <ele>686</ele>
        <time>2020-07-11T08:05:15.592Z</time>
      </trkpt>
      <trkpt lat="44.09352" lon="5.39928">
        <ele>686</ele>
        <time>2020-07-11T08:05:16.592Z</time>
      </trkpt>
      <trkpt lat="44.09347" lon="5.39936">
        <ele>686</ele>
        <time>2020-07-11T08:05:17.591Z</time>
      </trkpt>
      <trkpt lat="44.09341" lon="5.39942">
        <ele>686</ele>
        <time>2020-07-11T08:05:18.592Z</time>
      </trkpt>
      <trkpt lat="44.09335" lon="5.39947">
        <ele>686</ele>
        <time>2020-07-11T08:05:19.592Z</time>
      </trkpt>
      <trkpt lat="44.09329" lon="5.39952">
        <ele>685</ele>
        <time>2020-07-11T08:05:20.592Z</time>
      </trkpt>
      <trkpt lat="44.09323" lon="5.39957">
        <ele>685</ele>
        <time>2020-07-11T08:05:21.591Z</time>
      </trkpt>
      <trkpt lat="44.09317" lon="5.39962">
        <ele>685</ele>
        <time>2020-07-11T08:05:22.591Z</time>
      </trkpt>
      <trkpt lat="44.09311" lon="5.39968">
        <ele>684</ele>
        <time>2020-07-11T08:05:23.592Z</time>
      </trkpt>
      <trkpt lat="44.09307" lon="5.39974">
        <ele>684</ele>
        <time>2020-07-11T08:05:24.592Z</time>
      </trkpt>
      <trkpt lat="44.09302" lon="5.39981">
        <ele>685</ele>
        <time>2020-07-11T08:05:25.592Z</time>
      </trkpt>
      <trkpt lat="44.09298" lon="5.39988">
        <ele>685</ele>
        <time>2020-07-11T08:05:26.592Z</time>
      </trkpt>
      <trkpt lat="44.09294" lon="5.39995">
        <ele>685</ele>
        <time>2020-07-11T08:05:27.592Z</time>
      </trkpt>
      <trkpt lat="44.09291" lon="5.40003">
        <ele>685</ele>
        <time>2020-07-11T08:05:28.592Z</time>
      </trkpt>
      <trkpt lat="44.09287" lon="5.4001">
        <ele>686</ele>
        <time>2020-07-11T08:05:29.592Z</time>
      </trkpt>
      <trkpt lat="44.09284" lon="5.40017">
        <ele>687</ele>
        <time>2020-07-11T08:05:30.592Z</time>
      </trkpt>
      <trkpt lat="44.09282" lon="5.40025">
        <ele>688</ele>
        <time>2020-07-11T08:05:31.591Z</time>
      </trkpt>
      <trkpt lat="44.09279" lon="5.40032">
        <ele>688</ele>
        <time>2020-07-11T08:05:32.592Z</time>
      </trkpt>
      <trkpt lat="44.09276" lon="5.40039">
        <ele>689</ele>
        <time>2020-07-11T08:05:33.592Z</time>
      </trkpt>
      <trkpt lat="44.09273" lon="5.40046">
        <ele>689</ele>
        <time>2020-07-11T08:05:34.592Z</time>
      </trkpt>
      <trkpt lat="44.0927" lon="5.40053">
        <ele>690</ele>
        <time>2020-07-11T08:05:35.592Z</time>
      </trkpt>
      <trkpt lat="44.09267" lon="5.40059">
        <ele>690</ele>
        <time>2020-07-11T08:05:36.592Z</time>
      </trkpt>
      <trkpt lat="44.09264" lon="5.40066">
        <ele>691</ele>
        <time>2020-07-11T08:05:37.592Z</time>
      </trkpt>
      <trkpt lat="44.09261" lon="5.40071">
        <ele>691</ele>
        <time>2020-07-11T08:05:38.592Z</time>
      </trkpt>
      <trkpt lat="44.09258" lon="5.4008">
        <ele>691</ele>
        <time>2020-07-11T08:05:39.591Z</time>
      </trkpt>
      <trkpt lat="44.09255" lon="5.40087">
        <ele>692</ele>
        <time>2020-07-11T08:05:40.592Z</time>
      </trkpt>
      <trkpt lat="44.09252" lon="5.40094">
        <ele>692</ele>
        <time>2020-07-11T08:05:41.591Z</time>
      </trkpt>
      <trkpt lat="44.09248" lon="5.40101">
        <ele>693</ele>
        <time>2020-07-11T08:05:42.591Z</time>
      </trkpt>
      <trkpt lat="44.09245" lon="5.40108">
        <ele>693</ele>
        <time>2020-07-11T08:05:43.592Z</time>
      </trkpt>
      <trkpt lat="44.09241" lon="5.40115">
        <ele>693</ele>
        <time>2020-07-11T08:05:44.591Z</time>
      </trkpt>
      <trkpt lat="44.09238" lon="5.40122">
        <ele>693</ele>
        <time>2020-07-11T08:05:45.592Z</time>
      </trkpt>
      <trkpt lat="44.09234" lon="5.4013">
        <ele>693</ele>
        <time>2020-07-11T08:05:46.592Z</time>
      </trkpt>
      <trkpt lat="44.09231" lon="5.40137">
        <ele>693</ele>
        <time>2020-07-11T08:05:47.592Z</time>
      </trkpt>
      <trkpt lat="44.09228" lon="5.40144">
        <ele>693</ele>
        <time>2020-07-11T08:05:48.591Z</time>
      </trkpt>
      <trkpt lat="44.09225" lon="5.40152">
        <ele>693</ele>
        <time>2020-07-11T08:05:49.591Z</time>
      </trkpt>
      <trkpt lat="44.09222" lon="5.40159">
        <ele>694</ele>
        <time>2020-07-11T08:05:50.592Z</time>
      </trkpt>
      <trkpt lat="44.09219" lon="5.40167">
        <ele>694</ele>
        <time>2020-07-11T08:05:51.591Z</time>
      </trkpt>
      <trkpt lat="44.09216" lon="5.40173">
        <ele>695</ele>
        <time>2020-07-11T08:05:52.591Z</time>
      </trkpt>
      <trkpt lat="44.09211" lon="5.40183">
        <ele>695</ele>
        <time>2020-07-11T08:05:53.592Z</time>
      </trkpt>
      <trkpt lat="44.09208" lon="5.40191">
        <ele>695</ele>
        <time>2020-07-11T08:05:54.592Z</time>
      </trkpt>
      <trkpt lat="44.09205" lon="5.40198">
        <ele>695</ele>
        <time>2020-07-11T08:05:55.592Z</time>
      </trkpt>
      <trkpt lat="44.09201" lon="5.40206">
        <ele>696</ele>
        <time>2020-07-11T08:05:56.592Z</time>
      </trkpt>
      <trkpt lat="44.09198" lon="5.40214">
        <ele>696</ele>
        <time>2020-07-11T08:05:57.592Z</time>
      </trkpt>
      <trkpt lat="44.09194" lon="5.40222">
        <ele>695</ele>
        <time>2020-07-11T08:05:58.591Z</time>
      </trkpt>
      <trkpt lat="44.0919" lon="5.4023">
        <ele>695</ele>
        <time>2020-07-11T08:05:59.592Z</time>
      </trkpt>
      <trkpt lat="44.09187" lon="5.40238">
        <ele>696</ele>
        <time>2020-07-11T08:06:00.591Z</time>
      </trkpt>
      <trkpt lat="44.09183" lon="5.40246">
        <ele>696</ele>
        <time>2020-07-11T08:06:01.592Z</time>
      </trkpt>
      <trkpt lat="44.0918" lon="5.40254">
        <ele>696</ele>
        <time>2020-07-11T08:06:02.591Z</time>
      </trkpt>
      <trkpt lat="44.09177" lon="5.40261">
        <ele>695</ele>
        <time>2020-07-11T08:06:03.591Z</time>
      </trkpt>
      <trkpt lat="44.09173" lon="5.40269">
        <ele>695</ele>
        <time>2020-07-11T08:06:04.591Z</time>
      </trkpt>
      <trkpt lat="44.0917" lon="5.40277">
        <ele>696</ele>
        <time>2020-07-11T08:06:05.591Z</time>
      </trkpt>
      <trkpt lat="44.09166" lon="5.40285">
        <ele>696</ele>
        <time>2020-07-11T08:06:06.591Z</time>
      </trkpt>
      <trkpt lat="44.09163" lon="5.40293">
        <ele>696</ele>
        <time>2020-07-11T08:06:07.592Z</time>
      </trkpt>
      <trkpt lat="44.09159" lon="5.40302">
        <ele>696</ele>
        <time>2020-07-11T08:06:08.592Z</time>
      </trkpt>
      <trkpt lat="44.09155" lon="5.4031">
        <ele>696</ele>
        <time>2020-07-11T08:06:09.592Z</time>
      </trkpt>
      <trkpt lat="44.09151" lon="5.40319">
        <ele>697</ele>
        <time>2020-07-11T08:06:10.592Z</time>
      </trkpt>
      <trkpt lat="44.09148" lon="5.40327">
        <ele>697</ele>
        <time>2020-07-11T08:06:11.592Z</time>
      </trkpt>
      <trkpt lat="44.09144" lon="5.40336">
        <ele>698</ele>
        <time>2020-07-11T08:06:12.592Z</time>
      </trkpt>
      <trkpt lat="44.09141" lon="5.40344">
        <ele>698</ele>
        <time>2020-07-11T08:06:13.591Z</time>
      </trkpt>
      <trkpt lat="44.09137" lon="5.40353">
        <ele>699</ele>
        <time>2020-07-11T08:06:14.592Z</time>
      </trkpt>
      <trkpt lat="44.09133" lon="5.40361">
        <ele>698</ele>
        <time>2020-07-11T08:06:15.592Z</time>
      </trkpt>
      <trkpt lat="44.0913" lon="5.4037">
        <ele>698</ele>
        <time>2020-07-11T08:06:16.591Z</time>
      </trkpt>
      <trkpt lat="44.09126" lon="5.40378">
        <ele>698</ele>
        <time>2020-07-11T08:06:17.592Z</time>
      </trkpt>
      <trkpt lat="44.09122" lon="5.40386">
        <ele>698</ele>
        <time>2020-07-11T08:06:18.591Z</time>
      </trkpt>
      <trkpt lat="44.09119" lon="5.40395">
        <ele>698</ele>
        <time>2020-07-11T08:06:19.592Z</time>
      </trkpt>
      <trkpt lat="44.09115" lon="5.40403">
        <ele>698</ele>
        <time>2020-07-11T08:06:20.592Z</time>
      </trkpt>
      <trkpt lat="44.09112" lon="5.40411">
        <ele>698</ele>
        <time>2020-07-11T08:06:21.592Z</time>
      </trkpt>
      <trkpt lat="44.09108" lon="5.40419">
        <ele>698</ele>
        <time>2020-07-11T08:06:22.591Z</time>
      </trkpt>
      <trkpt lat="44.09105" lon="5.40427">
        <ele>698</ele>
        <time>2020-07-11T08:06:23.592Z</time>
      </trkpt>
      <trkpt lat="44.09102" lon="5.40435">
        <ele>698</ele>
        <time>2020-07-11T08:06:24.592Z</time>
      </trkpt>
      <trkpt lat="44.09098" lon="5.40442">
        <ele>698</ele>
        <time>2020-07-11T08:06:25.592Z</time>
      </trkpt>
      <trkpt lat="44.09095" lon="5.4045">
        <ele>698</ele>
        <time>2020-07-11T08:06:26.591Z</time>
      </trkpt>
      <trkpt lat="44.09093" lon="5.40456">
        <ele>698</ele>
        <time>2020-07-11T08:06:27.592Z</time>
      </trkpt>
      <trkpt lat="44.0909" lon="5.40463">
        <ele>699</ele>
        <time>2020-07-11T08:06:28.592Z</time>
      </trkpt>
      <trkpt lat="44.09087" lon="5.40472">
        <ele>699</ele>
        <time>2020-07-11T08:06:29.592Z</time>
      </trkpt>
      <trkpt lat="44.09085" lon="5.4048">
        <ele>699</ele>
        <time>2020-07-11T08:06:30.592Z</time>
      </trkpt>
      <trkpt lat="44.09082" lon="5.40487">
        <ele>699</ele>
        <time>2020-07-11T08:06:31.592Z</time>
      </trkpt>
      <trkpt lat="44.0908" lon="5.40494">
        <ele>700</ele>
        <time>2020-07-11T08:06:32.592Z</time>
      </trkpt>
      <trkpt lat="44.09079" lon="5.40502">
        <ele>700</ele>
        <time>2020-07-11T08:06:33.591Z</time>
      </trkpt>
      <trkpt lat="44.09077" lon="5.40509">
        <ele>701</ele>
        <time>2020-07-11T08:06:34.592Z</time>
      </trkpt>
      <trkpt lat="44.09075" lon="5.40517">
        <ele>702</ele>
        <time>2020-07-11T08:06:35.592Z</time>
      </trkpt>
      <trkpt lat="44.09074" lon="5.40524">
        <ele>702</ele>
        <time>2020-07-11T08:06:36.592Z</time>
      </trkpt>
      <trkpt lat="44.09072" lon="5.40532">
        <ele>703</ele>
        <time>2020-07-11T08:06:37.591Z</time>
      </trkpt>
      <trkpt lat="44.09071" lon="5.40539">
        <ele>703</ele>
        <time>2020-07-11T08:06:38.592Z</time>
      </trkpt>
      <trkpt lat="44.09069" lon="5.40547">
        <ele>704</ele>
        <time>2020-07-11T08:06:39.592Z</time>
      </trkpt>
      <trkpt lat="44.09068" lon="5.40554">
        <ele>704</ele>
        <time>2020-07-11T08:06:40.591Z</time>
      </trkpt>
      <trkpt lat="44.09066" lon="5.40561">
        <ele>705</ele>
        <time>2020-07-11T08:06:41.592Z</time>
      </trkpt>
      <trkpt lat="44.09064" lon="5.40568">
        <ele>705</ele>
        <time>2020-07-11T08:06:42.592Z</time>
      </trkpt>
      <trkpt lat="44.09063" lon="5.40575">
        <ele>705</ele>
        <time>2020-07-11T08:06:43.591Z</time>
      </trkpt>
      <trkpt lat="44.09061" lon="5.40582">
        <ele>705</ele>
        <time>2020-07-11T08:06:44.592Z</time>
      </trkpt>
      <trkpt lat="44.09059" lon="5.40589">
        <ele>706</ele>
        <time>2020-07-11T08:06:45.592Z</time>
      </trkpt>
      <trkpt lat="44.09056" lon="5.40595">
        <ele>707</ele>
        <time>2020-07-11T08:06:46.591Z</time>
      </trkpt>
      <trkpt lat="44.09054" lon="5.40601">
        <ele>708</ele>
        <time>2020-07-11T08:06:47.592Z</time>
      </trkpt>
      <trkpt lat="44.0905" lon="5.40607">
        <ele>708</ele>
        <time>2020-07-11T08:06:48.592Z</time>
      </trkpt>
      <trkpt lat="44.09047" lon="5.40613">
        <ele>709</ele>
        <time>2020-07-11T08:06:49.592Z</time>
      </trkpt>
      <trkpt lat="44.09043" lon="5.40619">
        <ele>709</ele>
        <time>2020-07-11T08:06:50.591Z</time>
      </trkpt>
      <trkpt lat="44.09039" lon="5.40624">
        <ele>709</ele>
        <time>2020-07-11T08:06:51.591Z</time>
      </trkpt>
      <trkpt lat="44.09035" lon="5.40628">
        <ele>710</ele>
        <time>2020-07-11T08:06:52.592Z</time>
      </trkpt>
      <trkpt lat="44.09029" lon="5.40633">
        <ele>711</ele>
        <time>2020-07-11T08:06:53.592Z</time>
      </trkpt>
      <trkpt lat="44.09025" lon="5.40637">
        <ele>711</ele>
        <time>2020-07-11T08:06:54.592Z</time>
      </trkpt>
      <trkpt lat="44.09021" lon="5.4064">
        <ele>712</ele>
        <time>2020-07-11T08:06:55.592Z</time>
      </trkpt>
      <trkpt lat="44.09017" lon="5.40644">
        <ele>713</ele>
        <time>2020-07-11T08:06:56.592Z</time>
      </trkpt>
      <trkpt lat="44.09013" lon="5.40647">
        <ele>713</ele>
        <time>2020-07-11T08:06:57.591Z</time>
      </trkpt>
      <trkpt lat="44.09009" lon="5.40651">
        <ele>714</ele>
        <time>2020-07-11T08:06:58.592Z</time>
      </trkpt>
      <trkpt lat="44.09004" lon="5.40654">
        <ele>714</ele>
        <time>2020-07-11T08:06:59.592Z</time>
      </trkpt>
      <trkpt lat="44.09" lon="5.40658">
        <ele>715</ele>
        <time>2020-07-11T08:07:00.592Z</time>
      </trkpt>
      <trkpt lat="44.08996" lon="5.40662">
        <ele>715</ele>
        <time>2020-07-11T08:07:01.591Z</time>
      </trkpt>
      <trkpt lat="44.08992" lon="5.40666">
        <ele>715</ele>
        <time>2020-07-11T08:07:02.592Z</time>
      </trkpt>
      <trkpt lat="44.08988" lon="5.4067">
        <ele>715</ele>
        <time>2020-07-11T08:07:03.591Z</time>
      </trkpt>
      <trkpt lat="44.08985" lon="5.40674">
        <ele>715</ele>
        <time>2020-07-11T08:07:04.592Z</time>
      </trkpt>
      <trkpt lat="44.08982" lon="5.40679">
        <ele>715</ele>
        <time>2020-07-11T08:07:05.592Z</time>
      </trkpt>
      <trkpt lat="44.08979" lon="5.40684">
        <ele>716</ele>
        <time>2020-07-11T08:07:06.592Z</time>
      </trkpt>
      <trkpt lat="44.08977" lon="5.4069">
        <ele>716</ele>
        <time>2020-07-11T08:07:07.592Z</time>
      </trkpt>
      <trkpt lat="44.08976" lon="5.40695">
        <ele>717</ele>
        <time>2020-07-11T08:07:08.592Z</time>
      </trkpt>
      <trkpt lat="44.08974" lon="5.40701">
        <ele>717</ele>
        <time>2020-07-11T08:07:09.592Z</time>
      </trkpt>
      <trkpt lat="44.08973" lon="5.40708">
        <ele>717</ele>
        <time>2020-07-11T08:07:10.591Z</time>
      </trkpt>
      <trkpt lat="44.08971" lon="5.40714">
        <ele>717</ele>
        <time>2020-07-11T08:07:11.592Z</time>
      </trkpt>
      <trkpt lat="44.08971" lon="5.40721">
        <ele>718</ele>
        <time>2020-07-11T08:07:12.591Z</time>
      </trkpt>
      <trkpt lat="44.08971" lon="5.40727">
        <ele>718</ele>
        <time>2020-07-11T08:07:13.591Z</time>
      </trkpt>
      <trkpt lat="44.0897" lon="5.40733">
        <ele>718</ele>
        <time>2020-07-11T08:07:14.592Z</time>
      </trkpt>
      <trkpt lat="44.0897" lon="5.40739">
        <ele>718</ele>
        <time>2020-07-11T08:07:15.591Z</time>
      </trkpt>
      <trkpt lat="44.08971" lon="5.40746">
        <ele>718</ele>
        <time>2020-07-11T08:07:16.592Z</time>
      </trkpt>
      <trkpt lat="44.08971" lon="5.40752">
        <ele>718</ele>
        <time>2020-07-11T08:07:17.592Z</time>
      </trkpt>
      <trkpt lat="44.08972" lon="5.40758">
        <ele>718</ele>
        <time>2020-07-11T08:07:18.591Z</time>
      </trkpt>
      <trkpt lat="44.08972" lon="5.40764">
        <ele>718</ele>
        <time>2020-07-11T08:07:19.592Z</time>
      </trkpt>
      <trkpt lat="44.08972" lon="5.4077">
        <ele>718</ele>
        <time>2020-07-11T08:07:20.592Z</time>
      </trkpt>
      <trkpt lat="44.08973" lon="5.40776">
        <ele>718</ele>
        <time>2020-07-11T08:07:21.591Z</time>
      </trkpt>
      <trkpt lat="44.08973" lon="5.40783">
        <ele>719</ele>
        <time>2020-07-11T08:07:22.592Z</time>
      </trkpt>
      <trkpt lat="44.08974" lon="5.40789">
        <ele>719</ele>
        <time>2020-07-11T08:07:23.591Z</time>
      </trkpt>
      <trkpt lat="44.08974" lon="5.40795">
        <ele>719</ele>
        <time>2020-07-11T08:07:24.592Z</time>
      </trkpt>
      <trkpt lat="44.08975" lon="5.40802">
        <ele>720</ele>
        <time>2020-07-11T08:07:25.592Z</time>
      </trkpt>
      <trkpt lat="44.08975" lon="5.40808">
        <ele>721</ele>
        <time>2020-07-11T08:07:26.591Z</time>
      </trkpt>
      <trkpt lat="44.08976" lon="5.40814">
        <ele>721</ele>
        <time>2020-07-11T08:07:27.591Z</time>
      </trkpt>
      <trkpt lat="44.08976" lon="5.4082">
        <ele>722</ele>
        <time>2020-07-11T08:07:28.592Z</time>
      </trkpt>
      <trkpt lat="44.08977" lon="5.40826">
        <ele>723</ele>
        <time>2020-07-11T08:07:29.592Z</time>
      </trkpt>
      <trkpt lat="44.08977" lon="5.40833">
        <ele>723</ele>
        <time>2020-07-11T08:07:30.591Z</time>
      </trkpt>
      <trkpt lat="44.08977" lon="5.40839">
        <ele>724</ele>
        <time>2020-07-11T08:07:31.591Z</time>
      </trkpt>
      <trkpt lat="44.08978" lon="5.40845">
        <ele>724</ele>
        <time>2020-07-11T08:07:32.591Z</time>
      </trkpt>
      <trkpt lat="44.08978" lon="5.40851">
        <ele>724</ele>
        <time>2020-07-11T08:07:33.592Z</time>
      </trkpt>
      <trkpt lat="44.08979" lon="5.40857">
        <ele>724</ele>
        <time>2020-07-11T08:07:34.591Z</time>
      </trkpt>
      <trkpt lat="44.08979" lon="5.40864">
        <ele>725</ele>
        <time>2020-07-11T08:07:35.592Z</time>
      </trkpt>
      <trkpt lat="44.08979" lon="5.4087">
        <ele>725</ele>
        <time>2020-07-11T08:07:36.592Z</time>
      </trkpt>
      <trkpt lat="44.08979" lon="5.40876">
        <ele>725</ele>
        <time>2020-07-11T08:07:37.592Z</time>
      </trkpt>
      <trkpt lat="44.08979" lon="5.40882">
        <ele>725</ele>
        <time>2020-07-11T08:07:38.591Z</time>
      </trkpt>
      <trkpt lat="44.08978" lon="5.40889">
        <ele>725</ele>
        <time>2020-07-11T08:07:39.592Z</time>
      </trkpt>
      <trkpt lat="44.08977" lon="5.40894">
        <ele>725</ele>
        <time>2020-07-11T08:07:40.592Z</time>
      </trkpt>
      <trkpt lat="44.08976" lon="5.409">
        <ele>726</ele>
        <time>2020-07-11T08:07:41.592Z</time>
      </trkpt>
      <trkpt lat="44.08974" lon="5.40905">
        <ele>725</ele>
        <time>2020-07-11T08:07:42.592Z</time>
      </trkpt>
      <trkpt lat="44.08973" lon="5.40911">
        <ele>725</ele>
        <time>2020-07-11T08:07:43.591Z</time>
      </trkpt>
      <trkpt lat="44.08971" lon="5.40917">
        <ele>725</ele>
        <time>2020-07-11T08:07:44.592Z</time>
      </trkpt>
      <trkpt lat="44.0897" lon="5.40922">
        <ele>725</ele>
        <time>2020-07-11T08:07:45.592Z</time>
      </trkpt>
      <trkpt lat="44.08968" lon="5.40927">
        <ele>724</ele>
        <time>2020-07-11T08:07:46.592Z</time>
      </trkpt>
      <trkpt lat="44.08967" lon="5.40933">
        <ele>724</ele>
        <time>2020-07-11T08:07:47.591Z</time>
      </trkpt>
      <trkpt lat="44.08965" lon="5.40939">
        <ele>724</ele>
        <time>2020-07-11T08:07:48.592Z</time>
      </trkpt>
      <trkpt lat="44.08964" lon="5.40944">
        <ele>724</ele>
        <time>2020-07-11T08:07:49.591Z</time>
      </trkpt>
      <trkpt lat="44.08962" lon="5.4095">
        <ele>725</ele>
        <time>2020-07-11T08:07:50.592Z</time>
      </trkpt>
      <trkpt lat="44.08961" lon="5.40955">
        <ele>725</ele>
        <time>2020-07-11T08:07:51.592Z</time>
      </trkpt>
      <trkpt lat="44.08959" lon="5.4096">
        <ele>726</ele>
        <time>2020-07-11T08:07:52.592Z</time>
      </trkpt>
      <trkpt lat="44.08958" lon="5.40966">
        <ele>726</ele>
        <time>2020-07-11T08:07:53.592Z</time>
      </trkpt>
      <trkpt lat="44.08956" lon="5.40971">
        <ele>727</ele>
        <time>2020-07-11T08:07:54.592Z</time>
      </trkpt>
      <trkpt lat="44.08954" lon="5.40976">
        <ele>727</ele>
        <time>2020-07-11T08:07:55.591Z</time>
      </trkpt>
      <trkpt lat="44.08953" lon="5.40981">
        <ele>728</ele>
        <time>2020-07-11T08:07:56.592Z</time>
      </trkpt>
      <trkpt lat="44.08951" lon="5.40986">
        <ele>728</ele>
        <time>2020-07-11T08:07:57.591Z</time>
      </trkpt>
      <trkpt lat="44.08949" lon="5.40992">
        <ele>729</ele>
        <time>2020-07-11T08:07:58.591Z</time>
      </trkpt>
      <trkpt lat="44.08948" lon="5.40998">
        <ele>729</ele>
        <time>2020-07-11T08:07:59.591Z</time>
      </trkpt>
      <trkpt lat="44.08946" lon="5.41003">
        <ele>730</ele>
        <time>2020-07-11T08:08:00.591Z</time>
      </trkpt>
      <trkpt lat="44.08944" lon="5.41009">
        <ele>730</ele>
        <time>2020-07-11T08:08:01.592Z</time>
      </trkpt>
      <trkpt lat="44.08942" lon="5.41015">
        <ele>731</ele>
        <time>2020-07-11T08:08:02.592Z</time>
      </trkpt>
      <trkpt lat="44.08941" lon="5.41021">
        <ele>731</ele>
        <time>2020-07-11T08:08:03.592Z</time>
      </trkpt>
      <trkpt lat="44.08939" lon="5.41026">
        <ele>731</ele>
        <time>2020-07-11T08:08:04.591Z</time>
      </trkpt>
      <trkpt lat="44.08938" lon="5.41032">
        <ele>731</ele>
        <time>2020-07-11T08:08:05.592Z</time>
      </trkpt>
      <trkpt lat="44.08936" lon="5.41038">
        <ele>731</ele>
        <time>2020-07-11T08:08:06.592Z</time>
      </trkpt>
      <trkpt lat="44.08934" lon="5.41044">
        <ele>731</ele>
        <time>2020-07-11T08:08:07.592Z</time>
      </trkpt>
      <trkpt lat="44.08932" lon="5.41049">
        <ele>731</ele>
        <time>2020-07-11T08:08:08.592Z</time>
      </trkpt>
      <trkpt lat="44.0893" lon="5.41055">
        <ele>732</ele>
        <time>2020-07-11T08:08:09.592Z</time>
      </trkpt>
      <trkpt lat="44.08928" lon="5.4106">
        <ele>732</ele>
        <time>2020-07-11T08:08:10.592Z</time>
      </trkpt>
      <trkpt lat="44.08925" lon="5.41065">
        <ele>733</ele>
        <time>2020-07-11T08:08:11.591Z</time>
      </trkpt>
      <trkpt lat="44.08922" lon="5.4107">
        <ele>733</ele>
        <time>2020-07-11T08:08:12.591Z</time>
      </trkpt>
      <trkpt lat="44.08919" lon="5.41074">
        <ele>734</ele>
        <time>2020-07-11T08:08:13.592Z</time>
      </trkpt>
      <trkpt lat="44.08916" lon="5.41077">
        <ele>734</ele>
        <time>2020-07-11T08:08:14.592Z</time>
      </trkpt>
      <trkpt lat="44.08912" lon="5.41081">
        <ele>734</ele>
        <time>2020-07-11T08:08:15.591Z</time>
      </trkpt>
      <trkpt lat="44.08908" lon="5.41083">
        <ele>734</ele>
        <time>2020-07-11T08:08:16.592Z</time>
      </trkpt>
      <trkpt lat="44.08904" lon="5.41085">
        <ele>735</ele>
        <time>2020-07-11T08:08:17.592Z</time>
      </trkpt>
      <trkpt lat="44.089" lon="5.41088">
        <ele>735</ele>
        <time>2020-07-11T08:08:18.592Z</time>
      </trkpt>
      <trkpt lat="44.08895" lon="5.4109">
        <ele>735</ele>
        <time>2020-07-11T08:08:19.592Z</time>
      </trkpt>
      <trkpt lat="44.08891" lon="5.41093">
        <ele>736</ele>
        <time>2020-07-11T08:08:20.592Z</time>
      </trkpt>
      <trkpt lat="44.08887" lon="5.41095">
        <ele>736</ele>
        <time>2020-07-11T08:08:21.592Z</time>
      </trkpt>
      <trkpt lat="44.08884" lon="5.41096">
        <ele>736</ele>
        <time>2020-07-11T08:08:22.592Z</time>
      </trkpt>
      <trkpt lat="44.08879" lon="5.41099">
        <ele>736</ele>
        <time>2020-07-11T08:08:23.591Z</time>
      </trkpt>
      <trkpt lat="44.08875" lon="5.41102">
        <ele>735</ele>
        <time>2020-07-11T08:08:24.592Z</time>
      </trkpt>
      <trkpt lat="44.08871" lon="5.41105">
        <ele>735</ele>
        <time>2020-07-11T08:08:25.591Z</time>
      </trkpt>
      <trkpt lat="44.08868" lon="5.41109">
        <ele>735</ele>
        <time>2020-07-11T08:08:26.592Z</time>
      </trkpt>
      <trkpt lat="44.08865" lon="5.41112">
        <ele>735</ele>
        <time>2020-07-11T08:08:27.591Z</time>
      </trkpt>
      <trkpt lat="44.08861" lon="5.41117">
        <ele>735</ele>
        <time>2020-07-11T08:08:28.591Z</time>
      </trkpt>
      <trkpt lat="44.08858" lon="5.41122">
        <ele>735</ele>
        <time>2020-07-11T08:08:29.592Z</time>
      </trkpt>
      <trkpt lat="44.08856" lon="5.41127">
        <ele>736</ele>
        <time>2020-07-11T08:08:30.592Z</time>
      </trkpt>
      <trkpt lat="44.08854" lon="5.41133">
        <ele>736</ele>
        <time>2020-07-11T08:08:31.591Z</time>
      </trkpt>
      <trkpt lat="44.08853" lon="5.41139">
        <ele>737</ele>
        <time>2020-07-11T08:08:32.591Z</time>
      </trkpt>
      <trkpt lat="44.08852" lon="5.41145">
        <ele>737</ele>
        <time>2020-07-11T08:08:33.592Z</time>
      </trkpt>
      <trkpt lat="44.08851" lon="5.41152">
        <ele>737</ele>
        <time>2020-07-11T08:08:34.591Z</time>
      </trkpt>
      <trkpt lat="44.0885" lon="5.41158">
        <ele>737</ele>
        <time>2020-07-11T08:08:35.592Z</time>
      </trkpt>
      <trkpt lat="44.0885" lon="5.41164">
        <ele>738</ele>
        <time>2020-07-11T08:08:36.592Z</time>
      </trkpt>
      <trkpt lat="44.08849" lon="5.41171">
        <ele>738</ele>
        <time>2020-07-11T08:08:37.591Z</time>
      </trkpt>
      <trkpt lat="44.08849" lon="5.41176">
        <ele>739</ele>
        <time>2020-07-11T08:08:38.591Z</time>
      </trkpt>
      <trkpt lat="44.08849" lon="5.41183">
        <ele>739</ele>
        <time>2020-07-11T08:08:39.592Z</time>
      </trkpt>
      <trkpt lat="44.08848" lon="5.4119">
        <ele>740</ele>
        <time>2020-07-11T08:08:40.592Z</time>
      </trkpt>
      <trkpt lat="44.08848" lon="5.41196">
        <ele>740</ele>
        <time>2020-07-11T08:08:41.592Z</time>
      </trkpt>
      <trkpt lat="44.08847" lon="5.41202">
        <ele>740</ele>
        <time>2020-07-11T08:08:42.591Z</time>
      </trkpt>
      <trkpt lat="44.08847" lon="5.41208">
        <ele>740</ele>
        <time>2020-07-11T08:08:43.592Z</time>
      </trkpt>
      <trkpt lat="44.08846" lon="5.41214">
        <ele>741</ele>
        <time>2020-07-11T08:08:44.592Z</time>
      </trkpt>
      <trkpt lat="44.08846" lon="5.4122">
        <ele>742</ele>
        <time>2020-07-11T08:08:45.592Z</time>
      </trkpt>
      <trkpt lat="44.08845" lon="5.41226">
        <ele>742</ele>
        <time>2020-07-11T08:08:46.591Z</time>
      </trkpt>
      <trkpt lat="44.08845" lon="5.4123">
        <ele>743</ele>
        <time>2020-07-11T08:08:47.592Z</time>
      </trkpt>
      <trkpt lat="44.08845" lon="5.41237">
        <ele>742</ele>
        <time>2020-07-11T08:08:48.592Z</time>
      </trkpt>
      <trkpt lat="44.08844" lon="5.41244">
        <ele>743</ele>
        <time>2020-07-11T08:08:49.591Z</time>
      </trkpt>
      <trkpt lat="44.08844" lon="5.4125">
        <ele>743</ele>
        <time>2020-07-11T08:08:50.592Z</time>
      </trkpt>
      <trkpt lat="44.08844" lon="5.41256">
        <ele>743</ele>
        <time>2020-07-11T08:08:51.592Z</time>
      </trkpt>
      <trkpt lat="44.08843" lon="5.41262">
        <ele>743</ele>
        <time>2020-07-11T08:08:52.592Z</time>
      </trkpt>
      <trkpt lat="44.08843" lon="5.41268">
        <ele>743</ele>
        <time>2020-07-11T08:08:53.592Z</time>
      </trkpt>
      <trkpt lat="44.08843" lon="5.41274">
        <ele>743</ele>
        <time>2020-07-11T08:08:54.592Z</time>
      </trkpt>
      <trkpt lat="44.08842" lon="5.4128">
        <ele>743</ele>
        <time>2020-07-11T08:08:55.591Z</time>
      </trkpt>
      <trkpt lat="44.08842" lon="5.41286">
        <ele>743</ele>
        <time>2020-07-11T08:08:56.592Z</time>
      </trkpt>
      <trkpt lat="44.08842" lon="5.41292">
        <ele>743</ele>
        <time>2020-07-11T08:08:57.592Z</time>
      </trkpt>
      <trkpt lat="44.08843" lon="5.41298">
        <ele>744</ele>
        <time>2020-07-11T08:08:58.592Z</time>
      </trkpt>
      <trkpt lat="44.08844" lon="5.41304">
        <ele>744</ele>
        <time>2020-07-11T08:08:59.591Z</time>
      </trkpt>
      <trkpt lat="44.08845" lon="5.41309">
        <ele>745</ele>
        <time>2020-07-11T08:09:00.592Z</time>
      </trkpt>
      <trkpt lat="44.08847" lon="5.41314">
        <ele>745</ele>
        <time>2020-07-11T08:09:01.592Z</time>
      </trkpt>
      <trkpt lat="44.08849" lon="5.41317">
        <ele>745</ele>
        <time>2020-07-11T08:09:02.592Z</time>
      </trkpt>
      <trkpt lat="44.08853" lon="5.41319">
        <ele>746</ele>
        <time>2020-07-11T08:09:03.592Z</time>
      </trkpt>
      <trkpt lat="44.08856" lon="5.41319">
        <ele>745</ele>
        <time>2020-07-11T08:09:04.591Z</time>
      </trkpt>
      <trkpt lat="44.08859" lon="5.41316">
        <ele>745</ele>
        <time>2020-07-11T08:09:05.592Z</time>
      </trkpt>
      <trkpt lat="44.08862" lon="5.41313">
        <ele>745</ele>
        <time>2020-07-11T08:09:06.592Z</time>
      </trkpt>
      <trkpt lat="44.08863" lon="5.41308">
        <ele>745</ele>
        <time>2020-07-11T08:09:07.592Z</time>
      </trkpt>
      <trkpt lat="44.08864" lon="5.41302">
        <ele>745</ele>
        <time>2020-07-11T08:09:08.591Z</time>
      </trkpt>
      <trkpt lat="44.08865" lon="5.41295">
        <ele>745</ele>
        <time>2020-07-11T08:09:09.592Z</time>
      </trkpt>
      <trkpt lat="44.08866" lon="5.41288">
        <ele>745</ele>
        <time>2020-07-11T08:09:10.592Z</time>
      </trkpt>
      <trkpt lat="44.08866" lon="5.41281">
        <ele>746</ele>
        <time>2020-07-11T08:09:11.592Z</time>
      </trkpt>
      <trkpt lat="44.08866" lon="5.41275">
        <ele>746</ele>
        <time>2020-07-11T08:09:12.591Z</time>
      </trkpt>
      <trkpt lat="44.08867" lon="5.41268">
        <ele>747</ele>
        <time>2020-07-11T08:09:13.591Z</time>
      </trkpt>
      <trkpt lat="44.08867" lon="5.41261">
        <ele>748</ele>
        <time>2020-07-11T08:09:14.592Z</time>
      </trkpt>
      <trkpt lat="44.08867" lon="5.41255">
        <ele>748</ele>
        <time>2020-07-11T08:09:15.592Z</time>
      </trkpt>
      <trkpt lat="44.08867" lon="5.41249">
        <ele>749</ele>
        <time>2020-07-11T08:09:16.591Z</time>
      </trkpt>
      <trkpt lat="44.08867" lon="5.41242">
        <ele>749</ele>
        <time>2020-07-11T08:09:17.592Z</time>
      </trkpt>
      <trkpt lat="44.08868" lon="5.41234">
        <ele>750</ele>
        <time>2020-07-11T08:09:18.592Z</time>
      </trkpt>
      <trkpt lat="44.08868" lon="5.41229">
        <ele>750</ele>
        <time>2020-07-11T08:09:19.592Z</time>
      </trkpt>
      <trkpt lat="44.08868" lon="5.41223">
        <ele>751</ele>
        <time>2020-07-11T08:09:20.592Z</time>
      </trkpt>
      <trkpt lat="44.08869" lon="5.41217">
        <ele>751</ele>
        <time>2020-07-11T08:09:21.592Z</time>
      </trkpt>
      <trkpt lat="44.0887" lon="5.41211">
        <ele>751</ele>
        <time>2020-07-11T08:09:22.592Z</time>
      </trkpt>
      <trkpt lat="44.0887" lon="5.41204">
        <ele>751</ele>
        <time>2020-07-11T08:09:23.591Z</time>
      </trkpt>
      <trkpt lat="44.08871" lon="5.41199">
        <ele>751</ele>
        <time>2020-07-11T08:09:24.592Z</time>
      </trkpt>
      <trkpt lat="44.08872" lon="5.41192">
        <ele>751</ele>
        <time>2020-07-11T08:09:25.592Z</time>
      </trkpt>
      <trkpt lat="44.08874" lon="5.41186">
        <ele>751</ele>
        <time>2020-07-11T08:09:26.591Z</time>
      </trkpt>
      <trkpt lat="44.08876" lon="5.41181">
        <ele>751</ele>
        <time>2020-07-11T08:09:27.591Z</time>
      </trkpt>
      <trkpt lat="44.08878" lon="5.41176">
        <ele>751</ele>
        <time>2020-07-11T08:09:28.591Z</time>
      </trkpt>
      <trkpt lat="44.08881" lon="5.41171">
        <ele>751</ele>
        <time>2020-07-11T08:09:29.591Z</time>
      </trkpt>
      <trkpt lat="44.08884" lon="5.41166">
        <ele>751</ele>
        <time>2020-07-11T08:09:30.591Z</time>
      </trkpt>
      <trkpt lat="44.08888" lon="5.41163">
        <ele>752</ele>
        <time>2020-07-11T08:09:31.592Z</time>
      </trkpt>
      <trkpt lat="44.08892" lon="5.41159">
        <ele>752</ele>
        <time>2020-07-11T08:09:32.591Z</time>
      </trkpt>
      <trkpt lat="44.08895" lon="5.41156">
        <ele>752</ele>
        <time>2020-07-11T08:09:33.592Z</time>
      </trkpt>
      <trkpt lat="44.08899" lon="5.41154">
        <ele>753</ele>
        <time>2020-07-11T08:09:34.591Z</time>
      </trkpt>
      <trkpt lat="44.08904" lon="5.41153">
        <ele>753</ele>
        <time>2020-07-11T08:09:35.592Z</time>
      </trkpt>
      <trkpt lat="44.08909" lon="5.41154">
        <ele>754</ele>
        <time>2020-07-11T08:09:36.592Z</time>
      </trkpt>
      <trkpt lat="44.08913" lon="5.41155">
        <ele>754</ele>
        <time>2020-07-11T08:09:37.592Z</time>
      </trkpt>
      <trkpt lat="44.08918" lon="5.41156">
        <ele>754</ele>
        <time>2020-07-11T08:09:38.592Z</time>
      </trkpt>
      <trkpt lat="44.08923" lon="5.41157">
        <ele>755</ele>
        <time>2020-07-11T08:09:39.592Z</time>
      </trkpt>
      <trkpt lat="44.08927" lon="5.41159">
        <ele>755</ele>
        <time>2020-07-11T08:09:40.591Z</time>
      </trkpt>
      <trkpt lat="44.08932" lon="5.41161">
        <ele>755</ele>
        <time>2020-07-11T08:09:41.592Z</time>
      </trkpt>
      <trkpt lat="44.08936" lon="5.41163">
        <ele>755</ele>
        <time>2020-07-11T08:09:42.591Z</time>
      </trkpt>
      <trkpt lat="44.08941" lon="5.41165">
        <ele>755</ele>
        <time>2020-07-11T08:09:43.592Z</time>
      </trkpt>
      <trkpt lat="44.08945" lon="5.41167">
        <ele>755</ele>
        <time>2020-07-11T08:09:44.591Z</time>
      </trkpt>
      <trkpt lat="44.0895" lon="5.4117">
        <ele>755</ele>
        <time>2020-07-11T08:09:45.591Z</time>
      </trkpt>
      <trkpt lat="44.08954" lon="5.41171">
        <ele>755</ele>
        <time>2020-07-11T08:09:46.592Z</time>
      </trkpt>
      <trkpt lat="44.08958" lon="5.41172">
        <ele>756</ele>
        <time>2020-07-11T08:09:47.592Z</time>
      </trkpt>
      <trkpt lat="44.08963" lon="5.41173">
        <ele>757</ele>
        <time>2020-07-11T08:09:48.592Z</time>
      </trkpt>
      <trkpt lat="44.08967" lon="5.41173">
        <ele>757</ele>
        <time>2020-07-11T08:09:49.592Z</time>
      </trkpt>
      <trkpt lat="44.08972" lon="5.41174">
        <ele>757</ele>
        <time>2020-07-11T08:09:50.592Z</time>
      </trkpt>
      <trkpt lat="44.08976" lon="5.41173">
        <ele>758</ele>
        <time>2020-07-11T08:09:51.592Z</time>
      </trkpt>
      <trkpt lat="44.08981" lon="5.41171">
        <ele>758</ele>
        <time>2020-07-11T08:09:52.592Z</time>
      </trkpt>
      <trkpt lat="44.08985" lon="5.4117">
        <ele>758</ele>
        <time>2020-07-11T08:09:53.591Z</time>
      </trkpt>
      <trkpt lat="44.0899" lon="5.41166">
        <ele>758</ele>
        <time>2020-07-11T08:09:54.592Z</time>
      </trkpt>
      <trkpt lat="44.08994" lon="5.41165">
        <ele>758</ele>
        <time>2020-07-11T08:09:55.592Z</time>
      </trkpt>
      <trkpt lat="44.08998" lon="5.41162">
        <ele>758</ele>
        <time>2020-07-11T08:09:56.591Z</time>
      </trkpt>
      <trkpt lat="44.09001" lon="5.41158">
        <ele>758</ele>
        <time>2020-07-11T08:09:57.592Z</time>
      </trkpt>
      <trkpt lat="44.09004" lon="5.41154">
        <ele>758</ele>
        <time>2020-07-11T08:09:58.592Z</time>
      </trkpt>
      <trkpt lat="44.09006" lon="5.41149">
        <ele>758</ele>
        <time>2020-07-11T08:09:59.592Z</time>
      </trkpt>
      <trkpt lat="44.09008" lon="5.41143">
        <ele>758</ele>
        <time>2020-07-11T08:10:00.592Z</time>
      </trkpt>
      <trkpt lat="44.0901" lon="5.41136">
        <ele>759</ele>
        <time>2020-07-11T08:10:01.592Z</time>
      </trkpt>
      <trkpt lat="44.0901" lon="5.4113">
        <ele>759</ele>
        <time>2020-07-11T08:10:02.592Z</time>
      </trkpt>
      <trkpt lat="44.09011" lon="5.41123">
        <ele>760</ele>
        <time>2020-07-11T08:10:03.592Z</time>
      </trkpt>
      <trkpt lat="44.09012" lon="5.41117">
        <ele>761</ele>
        <time>2020-07-11T08:10:04.591Z</time>
      </trkpt>
      <trkpt lat="44.09013" lon="5.4111">
        <ele>762</ele>
        <time>2020-07-11T08:10:05.592Z</time>
      </trkpt>
      <trkpt lat="44.09014" lon="5.41103">
        <ele>762</ele>
        <time>2020-07-11T08:10:06.592Z</time>
      </trkpt>
      <trkpt lat="44.09015" lon="5.41097">
        <ele>763</ele>
        <time>2020-07-11T08:10:07.592Z</time>
      </trkpt>
      <trkpt lat="44.09017" lon="5.41091">
        <ele>763</ele>
        <time>2020-07-11T08:10:08.591Z</time>
      </trkpt>
      <trkpt lat="44.09019" lon="5.41085">
        <ele>762</ele>
        <time>2020-07-11T08:10:09.592Z</time>
      </trkpt>
      <trkpt lat="44.09022" lon="5.4108">
        <ele>762</ele>
        <time>2020-07-11T08:10:10.592Z</time>
      </trkpt>
      <trkpt lat="44.09024" lon="5.41075">
        <ele>762</ele>
        <time>2020-07-11T08:10:11.591Z</time>
      </trkpt>
      <trkpt lat="44.09028" lon="5.41068">
        <ele>763</ele>
        <time>2020-07-11T08:10:12.592Z</time>
      </trkpt>
      <trkpt lat="44.09032" lon="5.41063">
        <ele>763</ele>
        <time>2020-07-11T08:10:13.592Z</time>
      </trkpt>
      <trkpt lat="44.09036" lon="5.41058">
        <ele>763</ele>
        <time>2020-07-11T08:10:14.592Z</time>
      </trkpt>
      <trkpt lat="44.0904" lon="5.41053">
        <ele>763</ele>
        <time>2020-07-11T08:10:15.592Z</time>
      </trkpt>
      <trkpt lat="44.09044" lon="5.41049">
        <ele>763</ele>
        <time>2020-07-11T08:10:16.591Z</time>
      </trkpt>
      <trkpt lat="44.09048" lon="5.41045">
        <ele>763</ele>
        <time>2020-07-11T08:10:17.591Z</time>
      </trkpt>
      <trkpt lat="44.09052" lon="5.4104">
        <ele>763</ele>
        <time>2020-07-11T08:10:18.592Z</time>
      </trkpt>
      <trkpt lat="44.09056" lon="5.41036">
        <ele>763</ele>
        <time>2020-07-11T08:10:19.592Z</time>
      </trkpt>
      <trkpt lat="44.09061" lon="5.41032">
        <ele>763</ele>
        <time>2020-07-11T08:10:20.592Z</time>
      </trkpt>
      <trkpt lat="44.09065" lon="5.41029">
        <ele>763</ele>
        <time>2020-07-11T08:10:21.592Z</time>
      </trkpt>
      <trkpt lat="44.09069" lon="5.41027">
        <ele>763</ele>
        <time>2020-07-11T08:10:22.592Z</time>
      </trkpt>
      <trkpt lat="44.09075" lon="5.41022">
        <ele>763</ele>
        <time>2020-07-11T08:10:23.592Z</time>
      </trkpt>
      <trkpt lat="44.09079" lon="5.41019">
        <ele>763</ele>
        <time>2020-07-11T08:10:24.592Z</time>
      </trkpt>
      <trkpt lat="44.09083" lon="5.41015">
        <ele>763</ele>
        <time>2020-07-11T08:10:25.592Z</time>
      </trkpt>
      <trkpt lat="44.09088" lon="5.41012">
        <ele>763</ele>
        <time>2020-07-11T08:10:26.592Z</time>
      </trkpt>
      <trkpt lat="44.09091" lon="5.41009">
        <ele>764</ele>
        <time>2020-07-11T08:10:27.592Z</time>
      </trkpt>
      <trkpt lat="44.09096" lon="5.41005">
        <ele>764</ele>
        <time>2020-07-11T08:10:28.592Z</time>
      </trkpt>
      <trkpt lat="44.091" lon="5.41001">
        <ele>764</ele>
        <time>2020-07-11T08:10:29.592Z</time>
      </trkpt>
      <trkpt lat="44.09105" lon="5.40998">
        <ele>763</ele>
        <time>2020-07-11T08:10:30.592Z</time>
      </trkpt>
      <trkpt lat="44.09108" lon="5.40995">
        <ele>763</ele>
        <time>2020-07-11T08:10:31.592Z</time>
      </trkpt>
      <trkpt lat="44.09113" lon="5.40991">
        <ele>763</ele>
        <time>2020-07-11T08:10:32.592Z</time>
      </trkpt>
      <trkpt lat="44.09116" lon="5.40988">
        <ele>763</ele>
        <time>2020-07-11T08:10:33.592Z</time>
      </trkpt>
      <trkpt lat="44.0912" lon="5.40984">
        <ele>763</ele>
        <time>2020-07-11T08:10:34.591Z</time>
      </trkpt>
      <trkpt lat="44.09123" lon="5.4098">
        <ele>763</ele>
        <time>2020-07-11T08:10:35.592Z</time>
      </trkpt>
      <trkpt lat="44.09126" lon="5.40977">
        <ele>763</ele>
        <time>2020-07-11T08:10:36.592Z</time>
      </trkpt>
      <trkpt lat="44.09129" lon="5.40974">
        <ele>763</ele>
        <time>2020-07-11T08:10:37.592Z</time>
      </trkpt>
      <trkpt lat="44.09132" lon="5.40971">
        <ele>764</ele>
        <time>2020-07-11T08:10:38.592Z</time>
      </trkpt>
      <trkpt lat="44.09136" lon="5.40966">
        <ele>764</ele>
        <time>2020-07-11T08:10:39.592Z</time>
      </trkpt>
      <trkpt lat="44.09139" lon="5.40964">
        <ele>764</ele>
        <time>2020-07-11T08:10:40.592Z</time>
      </trkpt>
      <trkpt lat="44.09142" lon="5.40962">
        <ele>765</ele>
        <time>2020-07-11T08:10:41.591Z</time>
      </trkpt>
      <trkpt lat="44.09146" lon="5.40959">
        <ele>765</ele>
        <time>2020-07-11T08:10:42.592Z</time>
      </trkpt>
      <trkpt lat="44.09148" lon="5.40958">
        <ele>766</ele>
        <time>2020-07-11T08:10:43.592Z</time>
      </trkpt>
      <trkpt lat="44.09152" lon="5.40955">
        <ele>767</ele>
        <time>2020-07-11T08:10:44.592Z</time>
      </trkpt>
      <trkpt lat="44.09156" lon="5.40953">
        <ele>767</ele>
        <time>2020-07-11T08:10:45.591Z</time>
      </trkpt>
      <trkpt lat="44.09159" lon="5.40952">
        <ele>768</ele>
        <time>2020-07-11T08:10:46.592Z</time>
      </trkpt>
      <trkpt lat="44.09163" lon="5.40951">
        <ele>768</ele>
        <time>2020-07-11T08:10:47.592Z</time>
      </trkpt>
      <trkpt lat="44.09167" lon="5.4095">
        <ele>769</ele>
        <time>2020-07-11T08:10:48.592Z</time>
      </trkpt>
      <trkpt lat="44.09171" lon="5.4095">
        <ele>769</ele>
        <time>2020-07-11T08:10:49.592Z</time>
      </trkpt>
      <trkpt lat="44.09175" lon="5.40949">
        <ele>769</ele>
        <time>2020-07-11T08:10:50.592Z</time>
      </trkpt>
      <trkpt lat="44.09178" lon="5.40948">
        <ele>769</ele>
        <time>2020-07-11T08:10:51.592Z</time>
      </trkpt>
      <trkpt lat="44.09181" lon="5.40946">
        <ele>769</ele>
        <time>2020-07-11T08:10:52.592Z</time>
      </trkpt>
      <trkpt lat="44.09184" lon="5.40944">
        <ele>769</ele>
        <time>2020-07-11T08:10:53.592Z</time>
      </trkpt>
      <trkpt lat="44.09186" lon="5.40941">
        <ele>770</ele>
        <time>2020-07-11T08:10:54.592Z</time>
      </trkpt>
      <trkpt lat="44.09188" lon="5.40939">
        <ele>770</ele>
        <time>2020-07-11T08:10:55.592Z</time>
      </trkpt>
      <trkpt lat="44.0919" lon="5.40937">
        <ele>770</ele>
        <time>2020-07-11T08:10:56.592Z</time>
      </trkpt>
      <trkpt lat="44.09193" lon="5.40934">
        <ele>771</ele>
        <time>2020-07-11T08:10:57.591Z</time>
      </trkpt>
      <trkpt lat="44.09195" lon="5.40933">
        <ele>771</ele>
        <time>2020-07-11T08:10:58.591Z</time>
      </trkpt>
      <trkpt lat="44.09197" lon="5.40933">
        <ele>771</ele>
        <time>2020-07-11T08:10:59.592Z</time>
      </trkpt>
      <trkpt lat="44.09199" lon="5.40934">
        <ele>772</ele>
        <time>2020-07-11T08:11:00.592Z</time>
      </trkpt>
      <trkpt lat="44.09202" lon="5.40936">
        <ele>772</ele>
        <time>2020-07-11T08:11:01.592Z</time>
      </trkpt>
      <trkpt lat="44.09204" lon="5.40938">
        <ele>772</ele>
        <time>2020-07-11T08:11:02.591Z</time>
      </trkpt>
      <trkpt lat="44.09207" lon="5.4094">
        <ele>772</ele>
        <time>2020-07-11T08:11:03.591Z</time>
      </trkpt>
      <trkpt lat="44.0921" lon="5.40941">
        <ele>771</ele>
        <time>2020-07-11T08:11:04.592Z</time>
      </trkpt>
      <trkpt lat="44.09214" lon="5.4094">
        <ele>771</ele>
        <time>2020-07-11T08:11:05.592Z</time>
      </trkpt>
      <trkpt lat="44.09216" lon="5.40939">
        <ele>771</ele>
        <time>2020-07-11T08:11:06.592Z</time>
      </trkpt>
      <trkpt lat="44.09218" lon="5.40937">
        <ele>771</ele>
        <time>2020-07-11T08:11:07.591Z</time>
      </trkpt>
      <trkpt lat="44.09221" lon="5.40933">
        <ele>771</ele>
        <time>2020-07-11T08:11:08.592Z</time>
      </trkpt>
      <trkpt lat="44.09222" lon="5.4093">
        <ele>771</ele>
        <time>2020-07-11T08:11:09.591Z</time>
      </trkpt>
      <trkpt lat="44.09223" lon="5.40927">
        <ele>771</ele>
        <time>2020-07-11T08:11:10.591Z</time>
      </trkpt>
      <trkpt lat="44.09224" lon="5.40923">
        <ele>771</ele>
        <time>2020-07-11T08:11:11.592Z</time>
      </trkpt>
      <trkpt lat="44.09226" lon="5.40921">
        <ele>771</ele>
        <time>2020-07-11T08:11:12.591Z</time>
      </trkpt>
      <trkpt lat="44.09227" lon="5.4092">
        <ele>772</ele>
        <time>2020-07-11T08:11:13.592Z</time>
      </trkpt>
      <trkpt lat="44.09229" lon="5.40918">
        <ele>772</ele>
        <time>2020-07-11T08:11:14.592Z</time>
      </trkpt>
      <trkpt lat="44.0923" lon="5.40916">
        <ele>773</ele>
        <time>2020-07-11T08:11:15.592Z</time>
      </trkpt>
      <trkpt lat="44.0923" lon="5.40913">
        <ele>773</ele>
        <time>2020-07-11T08:11:16.592Z</time>
      </trkpt>
      <trkpt lat="44.09231" lon="5.40911">
        <ele>773</ele>
        <time>2020-07-11T08:11:17.592Z</time>
      </trkpt>
      <trkpt lat="44.09232" lon="5.40907">
        <ele>773</ele>
        <time>2020-07-11T08:11:18.592Z</time>
      </trkpt>
      <trkpt lat="44.09233" lon="5.40904">
        <ele>772</ele>
        <time>2020-07-11T08:11:19.592Z</time>
      </trkpt>
      <trkpt lat="44.09234" lon="5.409">
        <ele>772</ele>
        <time>2020-07-11T08:11:20.591Z</time>
      </trkpt>
      <trkpt lat="44.09235" lon="5.40896">
        <ele>772</ele>
        <time>2020-07-11T08:11:21.592Z</time>
      </trkpt>
      <trkpt lat="44.09237" lon="5.40893">
        <ele>772</ele>
        <time>2020-07-11T08:11:22.591Z</time>
      </trkpt>
      <trkpt lat="44.09239" lon="5.4089">
        <ele>772</ele>
        <time>2020-07-11T08:11:23.591Z</time>
      </trkpt>
      <trkpt lat="44.09241" lon="5.40888">
        <ele>771</ele>
        <time>2020-07-11T08:11:24.592Z</time>
      </trkpt>
      <trkpt lat="44.09242" lon="5.40887">
        <ele>771</ele>
        <time>2020-07-11T08:11:25.592Z</time>
      </trkpt>
      <trkpt lat="44.09244" lon="5.40885">
        <ele>771</ele>
        <time>2020-07-11T08:11:26.592Z</time>
      </trkpt>
      <trkpt lat="44.09246" lon="5.40883">
        <ele>771</ele>
        <time>2020-07-11T08:11:27.592Z</time>
      </trkpt>
      <trkpt lat="44.09247" lon="5.40883">
        <ele>771</ele>
        <time>2020-07-11T08:11:28.591Z</time>
      </trkpt>
      <trkpt lat="44.09247" lon="5.40883">
        <ele>771</ele>
        <time>2020-07-11T08:11:29.591Z</time>
      </trkpt>
      <trkpt lat="44.09246" lon="5.40881">
        <ele>771</ele>
        <time>2020-07-11T08:11:30.591Z</time>
      </trkpt>
      <trkpt lat="44.09247" lon="5.40883">
        <ele>770</ele>
        <time>2020-07-11T08:11:31.593Z</time>
      </trkpt>
      <trkpt lat="44.09247" lon="5.40884">
        <ele>770</ele>
        <time>2020-07-11T08:11:32.594Z</time>
      </trkpt>
      <trkpt lat="44.09247" lon="5.40884">
        <ele>770</ele>
        <time>2020-07-11T08:11:33.593Z</time>
      </trkpt>
      <trkpt lat="44.09247" lon="5.40885">
        <ele>770</ele>
        <time>2020-07-11T08:11:34.594Z</time>
      </trkpt>
      <trkpt lat="44.09253" lon="5.40866">
        <ele>773</ele>
        <time>2020-07-11T08:11:35.596Z</time>
      </trkpt>
      <trkpt lat="44.09252" lon="5.40864">
        <ele>774</ele>
        <time>2020-07-11T08:11:36.596Z</time>
      </trkpt>
      <trkpt lat="44.09251" lon="5.40863">
        <ele>773</ele>
        <time>2020-07-11T08:11:37.596Z</time>
      </trkpt>
      <trkpt lat="44.09248" lon="5.40861">
        <ele>773</ele>
        <time>2020-07-11T08:11:38.596Z</time>
      </trkpt>
      <trkpt lat="44.09246" lon="5.4086">
        <ele>773</ele>
        <time>2020-07-11T08:11:39.596Z</time>
      </trkpt>
      <trkpt lat="44.09243" lon="5.40857">
        <ele>773</ele>
        <time>2020-07-11T08:11:40.595Z</time>
      </trkpt>
      <trkpt lat="44.0924" lon="5.40855">
        <ele>773</ele>
        <time>2020-07-11T08:11:41.596Z</time>
      </trkpt>
      <trkpt lat="44.09236" lon="5.40852">
        <ele>773</ele>
        <time>2020-07-11T08:11:42.595Z</time>
      </trkpt>
      <trkpt lat="44.09234" lon="5.40849">
        <ele>772</ele>
        <time>2020-07-11T08:11:43.596Z</time>
      </trkpt>
      <trkpt lat="44.09231" lon="5.40846">
        <ele>771</ele>
        <time>2020-07-11T08:11:44.596Z</time>
      </trkpt>
      <trkpt lat="44.0923" lon="5.40844">
        <ele>770</ele>
        <time>2020-07-11T08:11:45.596Z</time>
      </trkpt>
      <trkpt lat="44.09229" lon="5.40842">
        <ele>769</ele>
        <time>2020-07-11T08:11:46.596Z</time>
      </trkpt>
      <trkpt lat="44.09229" lon="5.40841">
        <ele>768</ele>
        <time>2020-07-11T08:11:47.595Z</time>
      </trkpt>
      <trkpt lat="44.09229" lon="5.40841">
        <ele>767</ele>
        <time>2020-07-11T08:11:48.595Z</time>
      </trkpt>
      <trkpt lat="44.09229" lon="5.40841">
        <ele>766</ele>
        <time>2020-07-11T08:11:49.596Z</time>
      </trkpt>
      <trkpt lat="44.09229" lon="5.4084">
        <ele>766</ele>
        <time>2020-07-11T08:11:50.595Z</time>
      </trkpt>
      <trkpt lat="44.09229" lon="5.4084">
        <ele>765</ele>
        <time>2020-07-11T08:11:51.595Z</time>
      </trkpt>
      <trkpt lat="44.09229" lon="5.4084">
        <ele>765</ele>
        <time>2020-07-11T08:11:52.596Z</time>
      </trkpt>
      <trkpt lat="44.09229" lon="5.4084">
        <ele>765</ele>
        <time>2020-07-11T08:11:53.596Z</time>
      </trkpt>
      <trkpt lat="44.0923" lon="5.40839">
        <ele>764</ele>
        <time>2020-07-11T08:11:54.596Z</time>
      </trkpt>
      <trkpt lat="44.0923" lon="5.40837">
        <ele>765</ele>
        <time>2020-07-11T08:11:55.595Z</time>
      </trkpt>
      <trkpt lat="44.09232" lon="5.40835">
        <ele>765</ele>
        <time>2020-07-11T08:11:56.595Z</time>
      </trkpt>
      <trkpt lat="44.09234" lon="5.40834">
        <ele>765</ele>
        <time>2020-07-11T08:11:57.596Z</time>
      </trkpt>
      <trkpt lat="44.09237" lon="5.40834">
        <ele>765</ele>
        <time>2020-07-11T08:11:58.596Z</time>
      </trkpt>
      <trkpt lat="44.0924" lon="5.40833">
        <ele>765</ele>
        <time>2020-07-11T08:11:59.595Z</time>
      </trkpt>
      <trkpt lat="44.09244" lon="5.40833">
        <ele>765</ele>
        <time>2020-07-11T08:12:00.596Z</time>
      </trkpt>
      <trkpt lat="44.09248" lon="5.40833">
        <ele>765</ele>
        <time>2020-07-11T08:12:01.596Z</time>
      </trkpt>
      <trkpt lat="44.09252" lon="5.40833">
        <ele>765</ele>
        <time>2020-07-11T08:12:02.596Z</time>
      </trkpt>
      <trkpt lat="44.09256" lon="5.40833">
        <ele>765</ele>
        <time>2020-07-11T08:12:03.596Z</time>
      </trkpt>
      <trkpt lat="44.09261" lon="5.40833">
        <ele>765</ele>
        <time>2020-07-11T08:12:04.596Z</time>
      </trkpt>
      <trkpt lat="44.09266" lon="5.40833">
        <ele>765</ele>
        <time>2020-07-11T08:12:05.596Z</time>
      </trkpt>
      <trkpt lat="44.09271" lon="5.40833">
        <ele>765</ele>
        <time>2020-07-11T08:12:06.595Z</time>
      </trkpt>
      <trkpt lat="44.09275" lon="5.40832">
        <ele>765</ele>
        <time>2020-07-11T08:12:07.596Z</time>
      </trkpt>
      <trkpt lat="44.09279" lon="5.40832">
        <ele>765</ele>
        <time>2020-07-11T08:12:08.596Z</time>
      </trkpt>
      <trkpt lat="44.09282" lon="5.40831">
        <ele>764</ele>
        <time>2020-07-11T08:12:09.596Z</time>
      </trkpt>
      <trkpt lat="44.09287" lon="5.40831">
        <ele>765</ele>
        <time>2020-07-11T08:12:10.595Z</time>
      </trkpt>
      <trkpt lat="44.09291" lon="5.4083">
        <ele>765</ele>
        <time>2020-07-11T08:12:11.596Z</time>
      </trkpt>
      <trkpt lat="44.09296" lon="5.40829">
        <ele>765</ele>
        <time>2020-07-11T08:12:12.595Z</time>
      </trkpt>
      <trkpt lat="44.09301" lon="5.40828">
        <ele>766</ele>
        <time>2020-07-11T08:12:13.596Z</time>
      </trkpt>
      <trkpt lat="44.09305" lon="5.40828">
        <ele>766</ele>
        <time>2020-07-11T08:12:14.596Z</time>
      </trkpt>
      <trkpt lat="44.09311" lon="5.40828">
        <ele>766</ele>
        <time>2020-07-11T08:12:15.596Z</time>
      </trkpt>
      <trkpt lat="44.09317" lon="5.40827">
        <ele>766</ele>
        <time>2020-07-11T08:12:16.596Z</time>
      </trkpt>
      <trkpt lat="44.09322" lon="5.40826">
        <ele>766</ele>
        <time>2020-07-11T08:12:17.596Z</time>
      </trkpt>
      <trkpt lat="44.09327" lon="5.40825">
        <ele>767</ele>
        <time>2020-07-11T08:12:18.595Z</time>
      </trkpt>
      <trkpt lat="44.09334" lon="5.40824">
        <ele>766</ele>
        <time>2020-07-11T08:12:19.596Z</time>
      </trkpt>
      <trkpt lat="44.0934" lon="5.40823">
        <ele>766</ele>
        <time>2020-07-11T08:12:20.595Z</time>
      </trkpt>
      <trkpt lat="44.09346" lon="5.40822">
        <ele>766</ele>
        <time>2020-07-11T08:12:21.596Z</time>
      </trkpt>
      <trkpt lat="44.09351" lon="5.40821">
        <ele>766</ele>
        <time>2020-07-11T08:12:22.596Z</time>
      </trkpt>
      <trkpt lat="44.09357" lon="5.40819">
        <ele>767</ele>
        <time>2020-07-11T08:12:23.595Z</time>
      </trkpt>
      <trkpt lat="44.09363" lon="5.40818">
        <ele>767</ele>
        <time>2020-07-11T08:12:24.596Z</time>
      </trkpt>
      <trkpt lat="44.09369" lon="5.40817">
        <ele>767</ele>
        <time>2020-07-11T08:12:25.596Z</time>
      </trkpt>
      <trkpt lat="44.09374" lon="5.40816">
        <ele>768</ele>
        <time>2020-07-11T08:12:26.596Z</time>
      </trkpt>
      <trkpt lat="44.0938" lon="5.40816">
        <ele>767</ele>
        <time>2020-07-11T08:12:27.595Z</time>
      </trkpt>
      <trkpt lat="44.09387" lon="5.40816">
        <ele>767</ele>
        <time>2020-07-11T08:12:28.596Z</time>
      </trkpt>
      <trkpt lat="44.09392" lon="5.40816">
        <ele>766</ele>
        <time>2020-07-11T08:12:29.595Z</time>
      </trkpt>
      <trkpt lat="44.094" lon="5.40816">
        <ele>766</ele>
        <time>2020-07-11T08:12:30.596Z</time>
      </trkpt>
      <trkpt lat="44.09408" lon="5.40816">
        <ele>765</ele>
        <time>2020-07-11T08:12:31.596Z</time>
      </trkpt>
      <trkpt lat="44.09414" lon="5.40815">
        <ele>765</ele>
        <time>2020-07-11T08:12:32.596Z</time>
      </trkpt>
      <trkpt lat="44.09424" lon="5.40814">
        <ele>764</ele>
        <time>2020-07-11T08:12:33.595Z</time>
      </trkpt>
      <trkpt lat="44.09432" lon="5.40813">
        <ele>764</ele>
        <time>2020-07-11T08:12:34.596Z</time>
      </trkpt>
      <trkpt lat="44.09441" lon="5.40812">
        <ele>764</ele>
        <time>2020-07-11T08:12:35.596Z</time>
      </trkpt>
      <trkpt lat="44.0945" lon="5.40811">
        <ele>764</ele>
        <time>2020-07-11T08:12:36.596Z</time>
      </trkpt>
      <trkpt lat="44.09459" lon="5.40811">
        <ele>764</ele>
        <time>2020-07-11T08:12:37.596Z</time>
      </trkpt>
      <trkpt lat="44.09469" lon="5.4081">
        <ele>764</ele>
        <time>2020-07-11T08:12:38.596Z</time>
      </trkpt>
      <trkpt lat="44.0948" lon="5.40811">
        <ele>763</ele>
        <time>2020-07-11T08:12:39.596Z</time>
      </trkpt>
      <trkpt lat="44.0949" lon="5.4081">
        <ele>763</ele>
        <time>2020-07-11T08:12:40.596Z</time>
      </trkpt>
      <trkpt lat="44.095" lon="5.40809">
        <ele>762</ele>
        <time>2020-07-11T08:12:41.596Z</time>
      </trkpt>
      <trkpt lat="44.09508" lon="5.40809">
        <ele>762</ele>
        <time>2020-07-11T08:12:42.596Z</time>
      </trkpt>
      <trkpt lat="44.09518" lon="5.40808">
        <ele>762</ele>
        <time>2020-07-11T08:12:43.595Z</time>
      </trkpt>
      <trkpt lat="44.09529" lon="5.40807">
        <ele>762</ele>
        <time>2020-07-11T08:12:44.596Z</time>
      </trkpt>
      <trkpt lat="44.0954" lon="5.40806">
        <ele>762</ele>
        <time>2020-07-11T08:12:45.596Z</time>
      </trkpt>
      <trkpt lat="44.09551" lon="5.40805">
        <ele>763</ele>
        <time>2020-07-11T08:12:46.596Z</time>
      </trkpt>
      <trkpt lat="44.09563" lon="5.40806">
        <ele>763</ele>
        <time>2020-07-11T08:12:47.595Z</time>
      </trkpt>
      <trkpt lat="44.09575" lon="5.40805">
        <ele>762</ele>
        <time>2020-07-11T08:12:48.596Z</time>
      </trkpt>
      <trkpt lat="44.09586" lon="5.40804">
        <ele>762</ele>
        <time>2020-07-11T08:12:49.595Z</time>
      </trkpt>
      <trkpt lat="44.09598" lon="5.40804">
        <ele>761</ele>
        <time>2020-07-11T08:12:50.596Z</time>
      </trkpt>
      <trkpt lat="44.0961" lon="5.40804">
        <ele>760</ele>
        <time>2020-07-11T08:12:51.595Z</time>
      </trkpt>
      <trkpt lat="44.09622" lon="5.40802">
        <ele>759</ele>
        <time>2020-07-11T08:12:52.595Z</time>
      </trkpt>
      <trkpt lat="44.09636" lon="5.40802">
        <ele>758</ele>
        <time>2020-07-11T08:12:53.596Z</time>
      </trkpt>
      <trkpt lat="44.09648" lon="5.40802">
        <ele>757</ele>
        <time>2020-07-11T08:12:54.596Z</time>
      </trkpt>
      <trkpt lat="44.09658" lon="5.40804">
        <ele>756</ele>
        <time>2020-07-11T08:12:55.595Z</time>
      </trkpt>
      <trkpt lat="44.0967" lon="5.40806">
        <ele>756</ele>
        <time>2020-07-11T08:12:56.596Z</time>
      </trkpt>
      <trkpt lat="44.09682" lon="5.40809">
        <ele>755</ele>
        <time>2020-07-11T08:12:57.596Z</time>
      </trkpt>
      <trkpt lat="44.09696" lon="5.40813">
        <ele>754</ele>
        <time>2020-07-11T08:12:58.595Z</time>
      </trkpt>
      <trkpt lat="44.09705" lon="5.40817">
        <ele>753</ele>
        <time>2020-07-11T08:12:59.595Z</time>
      </trkpt>
      <trkpt lat="44.09717" lon="5.40821">
        <ele>751</ele>
        <time>2020-07-11T08:13:00.595Z</time>
      </trkpt>
      <trkpt lat="44.09731" lon="5.40827">
        <ele>751</ele>
        <time>2020-07-11T08:13:01.596Z</time>
      </trkpt>
      <trkpt lat="44.09742" lon="5.40832">
        <ele>750</ele>
        <time>2020-07-11T08:13:02.596Z</time>
      </trkpt>
      <trkpt lat="44.09754" lon="5.40837">
        <ele>748</ele>
        <time>2020-07-11T08:13:03.595Z</time>
      </trkpt>
      <trkpt lat="44.09765" lon="5.40843">
        <ele>748</ele>
        <time>2020-07-11T08:13:04.596Z</time>
      </trkpt>
      <trkpt lat="44.09777" lon="5.40848">
        <ele>747</ele>
        <time>2020-07-11T08:13:05.595Z</time>
      </trkpt>
      <trkpt lat="44.09788" lon="5.40854">
        <ele>746</ele>
        <time>2020-07-11T08:13:06.596Z</time>
      </trkpt>
      <trkpt lat="44.098" lon="5.40859">
        <ele>745</ele>
        <time>2020-07-11T08:13:07.596Z</time>
      </trkpt>
      <trkpt lat="44.09812" lon="5.40864">
        <ele>744</ele>
        <time>2020-07-11T08:13:08.595Z</time>
      </trkpt>
      <trkpt lat="44.09824" lon="5.40869">
        <ele>743</ele>
        <time>2020-07-11T08:13:09.596Z</time>
      </trkpt>
      <trkpt lat="44.09836" lon="5.40873">
        <ele>741</ele>
        <time>2020-07-11T08:13:10.596Z</time>
      </trkpt>
      <trkpt lat="44.09849" lon="5.40879">
        <ele>740</ele>
        <time>2020-07-11T08:13:11.596Z</time>
      </trkpt>
      <trkpt lat="44.0986" lon="5.40883">
        <ele>740</ele>
        <time>2020-07-11T08:13:12.596Z</time>
      </trkpt>
      <trkpt lat="44.09872" lon="5.40888">
        <ele>739</ele>
        <time>2020-07-11T08:13:13.596Z</time>
      </trkpt>
      <trkpt lat="44.09884" lon="5.40893">
        <ele>739</ele>
        <time>2020-07-11T08:13:14.596Z</time>
      </trkpt>
      <trkpt lat="44.09896" lon="5.40898">
        <ele>738</ele>
        <time>2020-07-11T08:13:15.596Z</time>
      </trkpt>
      <trkpt lat="44.09908" lon="5.40903">
        <ele>738</ele>
        <time>2020-07-11T08:13:16.595Z</time>
      </trkpt>
      <trkpt lat="44.09919" lon="5.40907">
        <ele>737</ele>
        <time>2020-07-11T08:13:17.596Z</time>
      </trkpt>
      <trkpt lat="44.09929" lon="5.40911">
        <ele>736</ele>
        <time>2020-07-11T08:13:18.595Z</time>
      </trkpt>
      <trkpt lat="44.09942" lon="5.40916">
        <ele>735</ele>
        <time>2020-07-11T08:13:19.595Z</time>
      </trkpt>
      <trkpt lat="44.09952" lon="5.4092">
        <ele>734</ele>
        <time>2020-07-11T08:13:20.595Z</time>
      </trkpt>
      <trkpt lat="44.09961" lon="5.40922">
        <ele>732</ele>
        <time>2020-07-11T08:13:21.596Z</time>
      </trkpt>
      <trkpt lat="44.09969" lon="5.40922">
        <ele>731</ele>
        <time>2020-07-11T08:13:22.596Z</time>
      </trkpt>
      <trkpt lat="44.09975" lon="5.40919">
        <ele>730</ele>
        <time>2020-07-11T08:13:23.596Z</time>
      </trkpt>
      <trkpt lat="44.09979" lon="5.40915">
        <ele>729</ele>
        <time>2020-07-11T08:13:24.595Z</time>
      </trkpt>
      <trkpt lat="44.09981" lon="5.4091">
        <ele>729</ele>
        <time>2020-07-11T08:13:25.596Z</time>
      </trkpt>
      <trkpt lat="44.09982" lon="5.40904">
        <ele>728</ele>
        <time>2020-07-11T08:13:26.596Z</time>
      </trkpt>
      <trkpt lat="44.09976" lon="5.40896">
        <ele>727</ele>
        <time>2020-07-11T08:13:27.596Z</time>
      </trkpt>
      <trkpt lat="44.0997" lon="5.40889">
        <ele>726</ele>
        <time>2020-07-11T08:13:28.596Z</time>
      </trkpt>
      <trkpt lat="44.09962" lon="5.40881">
        <ele>725</ele>
        <time>2020-07-11T08:13:29.595Z</time>
      </trkpt>
      <trkpt lat="44.09954" lon="5.40873">
        <ele>724</ele>
        <time>2020-07-11T08:13:30.596Z</time>
      </trkpt>
      <trkpt lat="44.09945" lon="5.40864">
        <ele>723</ele>
        <time>2020-07-11T08:13:31.596Z</time>
      </trkpt>
      <trkpt lat="44.09935" lon="5.40854">
        <ele>722</ele>
        <time>2020-07-11T08:13:32.596Z</time>
      </trkpt>
      <trkpt lat="44.09925" lon="5.40844">
        <ele>721</ele>
        <time>2020-07-11T08:13:33.596Z</time>
      </trkpt>
      <trkpt lat="44.09915" lon="5.40832">
        <ele>721</ele>
        <time>2020-07-11T08:13:34.596Z</time>
      </trkpt>
      <trkpt lat="44.09905" lon="5.4082">
        <ele>720</ele>
        <time>2020-07-11T08:13:35.596Z</time>
      </trkpt>
      <trkpt lat="44.09894" lon="5.40808">
        <ele>719</ele>
        <time>2020-07-11T08:13:36.596Z</time>
      </trkpt>
      <trkpt lat="44.09883" lon="5.40797">
        <ele>718</ele>
        <time>2020-07-11T08:13:37.596Z</time>
      </trkpt>
      <trkpt lat="44.09872" lon="5.40785">
        <ele>717</ele>
        <time>2020-07-11T08:13:38.596Z</time>
      </trkpt>
      <trkpt lat="44.0986" lon="5.40773">
        <ele>716</ele>
        <time>2020-07-11T08:13:39.596Z</time>
      </trkpt>
      <trkpt lat="44.09847" lon="5.40761">
        <ele>715</ele>
        <time>2020-07-11T08:13:40.596Z</time>
      </trkpt>
      <trkpt lat="44.09835" lon="5.40749">
        <ele>714</ele>
        <time>2020-07-11T08:13:41.596Z</time>
      </trkpt>
      <trkpt lat="44.09823" lon="5.4074">
        <ele>712</ele>
        <time>2020-07-11T08:13:42.596Z</time>
      </trkpt>
      <trkpt lat="44.09812" lon="5.40729">
        <ele>711</ele>
        <time>2020-07-11T08:13:43.596Z</time>
      </trkpt>
      <trkpt lat="44.098" lon="5.4072">
        <ele>709</ele>
        <time>2020-07-11T08:13:44.596Z</time>
      </trkpt>
      <trkpt lat="44.0979" lon="5.4071">
        <ele>708</ele>
        <time>2020-07-11T08:13:45.596Z</time>
      </trkpt>
      <trkpt lat="44.0978" lon="5.40699">
        <ele>707</ele>
        <time>2020-07-11T08:13:46.596Z</time>
      </trkpt>
      <trkpt lat="44.09769" lon="5.40688">
        <ele>706</ele>
        <time>2020-07-11T08:13:47.596Z</time>
      </trkpt>
      <trkpt lat="44.09759" lon="5.40678">
        <ele>705</ele>
        <time>2020-07-11T08:13:48.596Z</time>
      </trkpt>
      <trkpt lat="44.09749" lon="5.40669">
        <ele>704</ele>
        <time>2020-07-11T08:13:49.596Z</time>
      </trkpt>
      <trkpt lat="44.09739" lon="5.4066">
        <ele>703</ele>
        <time>2020-07-11T08:13:50.596Z</time>
      </trkpt>
      <trkpt lat="44.0973" lon="5.4065">
        <ele>703</ele>
        <time>2020-07-11T08:13:51.596Z</time>
      </trkpt>
      <trkpt lat="44.09722" lon="5.40638">
        <ele>702</ele>
        <time>2020-07-11T08:13:52.596Z</time>
      </trkpt>
      <trkpt lat="44.09717" lon="5.40624">
        <ele>702</ele>
        <time>2020-07-11T08:13:53.596Z</time>
      </trkpt>
      <trkpt lat="44.09716" lon="5.4061">
        <ele>701</ele>
        <time>2020-07-11T08:13:54.596Z</time>
      </trkpt>
      <trkpt lat="44.09715" lon="5.40595">
        <ele>701</ele>
        <time>2020-07-11T08:13:55.596Z</time>
      </trkpt>
      <trkpt lat="44.09719" lon="5.4058">
        <ele>701</ele>
        <time>2020-07-11T08:13:56.596Z</time>
      </trkpt>
      <trkpt lat="44.09724" lon="5.40569">
        <ele>701</ele>
        <time>2020-07-11T08:13:57.596Z</time>
      </trkpt>
      <trkpt lat="44.0973" lon="5.40558">
        <ele>700</ele>
        <time>2020-07-11T08:13:58.596Z</time>
      </trkpt>
      <trkpt lat="44.09737" lon="5.40548">
        <ele>700</ele>
        <time>2020-07-11T08:13:59.596Z</time>
      </trkpt>
      <trkpt lat="44.09744" lon="5.4054">
        <ele>699</ele>
        <time>2020-07-11T08:14:00.596Z</time>
      </trkpt>
      <trkpt lat="44.09751" lon="5.40532">
        <ele>699</ele>
        <time>2020-07-11T08:14:01.596Z</time>
      </trkpt>
      <trkpt lat="44.09757" lon="5.40525">
        <ele>699</ele>
        <time>2020-07-11T08:14:02.596Z</time>
      </trkpt>
      <trkpt lat="44.09763" lon="5.40518">
        <ele>699</ele>
        <time>2020-07-11T08:14:03.595Z</time>
      </trkpt>
      <trkpt lat="44.09768" lon="5.40512">
        <ele>699</ele>
        <time>2020-07-11T08:14:04.595Z</time>
      </trkpt>
      <trkpt lat="44.09773" lon="5.40506">
        <ele>700</ele>
        <time>2020-07-11T08:14:05.595Z</time>
      </trkpt>
      <trkpt lat="44.09777" lon="5.405">
        <ele>700</ele>
        <time>2020-07-11T08:14:06.595Z</time>
      </trkpt>
      <trkpt lat="44.09781" lon="5.40495">
        <ele>700</ele>
        <time>2020-07-11T08:14:07.595Z</time>
      </trkpt>
      <trkpt lat="44.09785" lon="5.4049">
        <ele>700</ele>
        <time>2020-07-11T08:14:08.596Z</time>
      </trkpt>
      <trkpt lat="44.09788" lon="5.40485">
        <ele>700</ele>
        <time>2020-07-11T08:14:09.596Z</time>
      </trkpt>
      <trkpt lat="44.09792" lon="5.4048">
        <ele>700</ele>
        <time>2020-07-11T08:14:10.596Z</time>
      </trkpt>
      <trkpt lat="44.09796" lon="5.40475">
        <ele>700</ele>
        <time>2020-07-11T08:14:11.596Z</time>
      </trkpt>
      <trkpt lat="44.09799" lon="5.4047">
        <ele>700</ele>
        <time>2020-07-11T08:14:12.596Z</time>
      </trkpt>
      <trkpt lat="44.09802" lon="5.40466">
        <ele>701</ele>
        <time>2020-07-11T08:14:13.596Z</time>
      </trkpt>
      <trkpt lat="44.09806" lon="5.4046">
        <ele>701</ele>
        <time>2020-07-11T08:14:14.596Z</time>
      </trkpt>
      <trkpt lat="44.09808" lon="5.40457">
        <ele>701</ele>
        <time>2020-07-11T08:14:15.595Z</time>
      </trkpt>
      <trkpt lat="44.09811" lon="5.40452">
        <ele>702</ele>
        <time>2020-07-11T08:14:16.595Z</time>
      </trkpt>
      <trkpt lat="44.09814" lon="5.40449">
        <ele>703</ele>
        <time>2020-07-11T08:14:17.596Z</time>
      </trkpt>
      <trkpt lat="44.09817" lon="5.40445">
        <ele>703</ele>
        <time>2020-07-11T08:14:18.596Z</time>
      </trkpt>
      <trkpt lat="44.0982" lon="5.40441">
        <ele>703</ele>
        <time>2020-07-11T08:14:19.595Z</time>
      </trkpt>
      <trkpt lat="44.09823" lon="5.40437">
        <ele>703</ele>
        <time>2020-07-11T08:14:20.596Z</time>
      </trkpt>
      <trkpt lat="44.09826" lon="5.40433">
        <ele>703</ele>
        <time>2020-07-11T08:14:21.595Z</time>
      </trkpt>
      <trkpt lat="44.09828" lon="5.40429">
        <ele>704</ele>
        <time>2020-07-11T08:14:22.596Z</time>
      </trkpt>
      <trkpt lat="44.09831" lon="5.40426">
        <ele>704</ele>
        <time>2020-07-11T08:14:23.596Z</time>
      </trkpt>
      <trkpt lat="44.09834" lon="5.40422">
        <ele>704</ele>
        <time>2020-07-11T08:14:24.596Z</time>
      </trkpt>
      <trkpt lat="44.09837" lon="5.40418">
        <ele>705</ele>
        <time>2020-07-11T08:14:25.596Z</time>
      </trkpt>
      <trkpt lat="44.09839" lon="5.40414">
        <ele>705</ele>
        <time>2020-07-11T08:14:26.596Z</time>
      </trkpt>
      <trkpt lat="44.09842" lon="5.40411">
        <ele>705</ele>
        <time>2020-07-11T08:14:27.596Z</time>
      </trkpt>
      <trkpt lat="44.09845" lon="5.40407">
        <ele>705</ele>
        <time>2020-07-11T08:14:28.596Z</time>
      </trkpt>
      <trkpt lat="44.09847" lon="5.40403">
        <ele>705</ele>
        <time>2020-07-11T08:14:29.596Z</time>
      </trkpt>
      <trkpt lat="44.0985" lon="5.404">
        <ele>705</ele>
        <time>2020-07-11T08:14:30.596Z</time>
      </trkpt>
      <trkpt lat="44.09853" lon="5.40396">
        <ele>706</ele>
        <time>2020-07-11T08:14:31.596Z</time>
      </trkpt>
      <trkpt lat="44.09855" lon="5.40392">
        <ele>707</ele>
        <time>2020-07-11T08:14:32.596Z</time>
      </trkpt>
      <trkpt lat="44.09858" lon="5.40389">
        <ele>707</ele>
        <time>2020-07-11T08:14:33.596Z</time>
      </trkpt>
      <trkpt lat="44.09861" lon="5.40386">
        <ele>707</ele>
        <time>2020-07-11T08:14:34.596Z</time>
      </trkpt>
      <trkpt lat="44.09863" lon="5.40382">
        <ele>708</ele>
        <time>2020-07-11T08:14:35.595Z</time>
      </trkpt>
      <trkpt lat="44.09866" lon="5.40378">
        <ele>708</ele>
        <time>2020-07-11T08:14:36.596Z</time>
      </trkpt>
      <trkpt lat="44.09869" lon="5.40375">
        <ele>708</ele>
        <time>2020-07-11T08:14:37.596Z</time>
      </trkpt>
      <trkpt lat="44.09871" lon="5.40371">
        <ele>708</ele>
        <time>2020-07-11T08:14:38.596Z</time>
      </trkpt>
      <trkpt lat="44.09874" lon="5.40368">
        <ele>708</ele>
        <time>2020-07-11T08:14:39.596Z</time>
      </trkpt>
      <trkpt lat="44.09877" lon="5.40364">
        <ele>708</ele>
        <time>2020-07-11T08:14:40.596Z</time>
      </trkpt>
      <trkpt lat="44.0988" lon="5.40361">
        <ele>709</ele>
        <time>2020-07-11T08:14:41.595Z</time>
      </trkpt>
      <trkpt lat="44.09883" lon="5.40357">
        <ele>709</ele>
        <time>2020-07-11T08:14:42.595Z</time>
      </trkpt>
      <trkpt lat="44.09886" lon="5.40353">
        <ele>710</ele>
        <time>2020-07-11T08:14:43.596Z</time>
      </trkpt>
      <trkpt lat="44.09888" lon="5.40349">
        <ele>710</ele>
        <time>2020-07-11T08:14:44.596Z</time>
      </trkpt>
      <trkpt lat="44.09891" lon="5.40344">
        <ele>711</ele>
        <time>2020-07-11T08:14:45.596Z</time>
      </trkpt>
      <trkpt lat="44.09893" lon="5.4034">
        <ele>711</ele>
        <time>2020-07-11T08:14:46.596Z</time>
      </trkpt>
      <trkpt lat="44.09896" lon="5.40335">
        <ele>711</ele>
        <time>2020-07-11T08:14:47.596Z</time>
      </trkpt>
      <trkpt lat="44.09898" lon="5.40331">
        <ele>712</ele>
        <time>2020-07-11T08:14:48.596Z</time>
      </trkpt>
      <trkpt lat="44.09901" lon="5.40326">
        <ele>712</ele>
        <time>2020-07-11T08:14:49.596Z</time>
      </trkpt>
      <trkpt lat="44.09903" lon="5.40321">
        <ele>712</ele>
        <time>2020-07-11T08:14:50.596Z</time>
      </trkpt>
      <trkpt lat="44.09906" lon="5.40317">
        <ele>712</ele>
        <time>2020-07-11T08:14:51.595Z</time>
      </trkpt>
      <trkpt lat="44.09908" lon="5.40312">
        <ele>712</ele>
        <time>2020-07-11T08:14:52.595Z</time>
      </trkpt>
      <trkpt lat="44.09911" lon="5.40307">
        <ele>713</ele>
        <time>2020-07-11T08:14:53.596Z</time>
      </trkpt>
      <trkpt lat="44.09913" lon="5.40302">
        <ele>713</ele>
        <time>2020-07-11T08:14:54.595Z</time>
      </trkpt>
      <trkpt lat="44.09916" lon="5.40297">
        <ele>713</ele>
        <time>2020-07-11T08:14:55.595Z</time>
      </trkpt>
      <trkpt lat="44.09919" lon="5.40292">
        <ele>714</ele>
        <time>2020-07-11T08:14:56.596Z</time>
      </trkpt>
      <trkpt lat="44.09921" lon="5.40287">
        <ele>714</ele>
        <time>2020-07-11T08:14:57.596Z</time>
      </trkpt>
      <trkpt lat="44.09924" lon="5.40282">
        <ele>714</ele>
        <time>2020-07-11T08:14:58.595Z</time>
      </trkpt>
      <trkpt lat="44.09927" lon="5.40277">
        <ele>714</ele>
        <time>2020-07-11T08:14:59.596Z</time>
      </trkpt>
      <trkpt lat="44.0993" lon="5.40272">
        <ele>714</ele>
        <time>2020-07-11T08:15:00.596Z</time>
      </trkpt>
      <trkpt lat="44.09933" lon="5.40268">
        <ele>714</ele>
        <time>2020-07-11T08:15:01.596Z</time>
      </trkpt>
      <trkpt lat="44.09937" lon="5.40265">
        <ele>714</ele>
        <time>2020-07-11T08:15:02.595Z</time>
      </trkpt>
      <trkpt lat="44.09941" lon="5.40261">
        <ele>714</ele>
        <time>2020-07-11T08:15:03.596Z</time>
      </trkpt>
      <trkpt lat="44.09946" lon="5.40258">
        <ele>714</ele>
        <time>2020-07-11T08:15:04.596Z</time>
      </trkpt>
      <trkpt lat="44.0995" lon="5.40255">
        <ele>715</ele>
        <time>2020-07-11T08:15:05.596Z</time>
      </trkpt>
      <trkpt lat="44.09955" lon="5.40253">
        <ele>715</ele>
        <time>2020-07-11T08:15:06.596Z</time>
      </trkpt>
      <trkpt lat="44.0996" lon="5.40251">
        <ele>716</ele>
        <time>2020-07-11T08:15:07.596Z</time>
      </trkpt>
      <trkpt lat="44.09964" lon="5.40249">
        <ele>716</ele>
        <time>2020-07-11T08:15:08.595Z</time>
      </trkpt>
      <trkpt lat="44.0997" lon="5.40248">
        <ele>716</ele>
        <time>2020-07-11T08:15:09.596Z</time>
      </trkpt>
      <trkpt lat="44.09975" lon="5.40247">
        <ele>716</ele>
        <time>2020-07-11T08:15:10.595Z</time>
      </trkpt>
      <trkpt lat="44.0998" lon="5.40245">
        <ele>717</ele>
        <time>2020-07-11T08:15:11.595Z</time>
      </trkpt>
      <trkpt lat="44.09985" lon="5.40244">
        <ele>717</ele>
        <time>2020-07-11T08:15:12.596Z</time>
      </trkpt>
      <trkpt lat="44.09991" lon="5.40242">
        <ele>717</ele>
        <time>2020-07-11T08:15:13.595Z</time>
      </trkpt>
      <trkpt lat="44.09996" lon="5.40241">
        <ele>717</ele>
        <time>2020-07-11T08:15:14.596Z</time>
      </trkpt>
      <trkpt lat="44.10002" lon="5.40239">
        <ele>717</ele>
        <time>2020-07-11T08:15:15.596Z</time>
      </trkpt>
      <trkpt lat="44.10007" lon="5.40237">
        <ele>717</ele>
        <time>2020-07-11T08:15:16.596Z</time>
      </trkpt>
      <trkpt lat="44.10012" lon="5.40236">
        <ele>717</ele>
        <time>2020-07-11T08:15:17.596Z</time>
      </trkpt>
      <trkpt lat="44.10017" lon="5.40234">
        <ele>717</ele>
        <time>2020-07-11T08:15:18.595Z</time>
      </trkpt>
      <trkpt lat="44.10022" lon="5.40231">
        <ele>717</ele>
        <time>2020-07-11T08:15:19.596Z</time>
      </trkpt>
      <trkpt lat="44.10027" lon="5.40229">
        <ele>717</ele>
        <time>2020-07-11T08:15:20.596Z</time>
      </trkpt>
      <trkpt lat="44.10032" lon="5.40227">
        <ele>717</ele>
        <time>2020-07-11T08:15:21.596Z</time>
      </trkpt>
      <trkpt lat="44.10038" lon="5.40225">
        <ele>716</ele>
        <time>2020-07-11T08:15:22.596Z</time>
      </trkpt>
      <trkpt lat="44.10043" lon="5.40222">
        <ele>716</ele>
        <time>2020-07-11T08:15:23.596Z</time>
      </trkpt>
      <trkpt lat="44.10048" lon="5.4022">
        <ele>716</ele>
        <time>2020-07-11T08:15:24.596Z</time>
      </trkpt>
      <trkpt lat="44.10054" lon="5.40217">
        <ele>716</ele>
        <time>2020-07-11T08:15:25.595Z</time>
      </trkpt>
      <trkpt lat="44.10059" lon="5.40214">
        <ele>717</ele>
        <time>2020-07-11T08:15:26.596Z</time>
      </trkpt>
      <trkpt lat="44.10064" lon="5.40211">
        <ele>717</ele>
        <time>2020-07-11T08:15:27.596Z</time>
      </trkpt>
      <trkpt lat="44.10069" lon="5.40208">
        <ele>717</ele>
        <time>2020-07-11T08:15:28.596Z</time>
      </trkpt>
      <trkpt lat="44.10074" lon="5.40205">
        <ele>717</ele>
        <time>2020-07-11T08:15:29.595Z</time>
      </trkpt>
      <trkpt lat="44.1008" lon="5.40202">
        <ele>716</ele>
        <time>2020-07-11T08:15:30.596Z</time>
      </trkpt>
      <trkpt lat="44.10085" lon="5.40199">
        <ele>716</ele>
        <time>2020-07-11T08:15:31.596Z</time>
      </trkpt>
      <trkpt lat="44.1009" lon="5.40195">
        <ele>716</ele>
        <time>2020-07-11T08:15:32.596Z</time>
      </trkpt>
      <trkpt lat="44.10095" lon="5.40192">
        <ele>716</ele>
        <time>2020-07-11T08:15:33.596Z</time>
      </trkpt>
      <trkpt lat="44.10101" lon="5.40189">
        <ele>716</ele>
        <time>2020-07-11T08:15:34.596Z</time>
      </trkpt>
      <trkpt lat="44.10106" lon="5.40185">
        <ele>717</ele>
        <time>2020-07-11T08:15:35.596Z</time>
      </trkpt>
      <trkpt lat="44.10111" lon="5.40182">
        <ele>717</ele>
        <time>2020-07-11T08:15:36.596Z</time>
      </trkpt>
      <trkpt lat="44.10117" lon="5.40179">
        <ele>717</ele>
        <time>2020-07-11T08:15:37.596Z</time>
      </trkpt>
      <trkpt lat="44.10122" lon="5.40176">
        <ele>717</ele>
        <time>2020-07-11T08:15:38.596Z</time>
      </trkpt>
      <trkpt lat="44.10127" lon="5.40173">
        <ele>717</ele>
        <time>2020-07-11T08:15:39.596Z</time>
      </trkpt>
      <trkpt lat="44.10133" lon="5.4017">
        <ele>717</ele>
        <time>2020-07-11T08:15:40.596Z</time>
      </trkpt>
      <trkpt lat="44.10138" lon="5.40167">
        <ele>717</ele>
        <time>2020-07-11T08:15:41.596Z</time>
      </trkpt>
      <trkpt lat="44.10144" lon="5.40164">
        <ele>717</ele>
        <time>2020-07-11T08:15:42.596Z</time>
      </trkpt>
      <trkpt lat="44.10149" lon="5.40161">
        <ele>717</ele>
        <time>2020-07-11T08:15:43.596Z</time>
      </trkpt>
      <trkpt lat="44.10155" lon="5.40158">
        <ele>717</ele>
        <time>2020-07-11T08:15:44.595Z</time>
      </trkpt>
      <trkpt lat="44.1016" lon="5.40155">
        <ele>717</ele>
        <time>2020-07-11T08:15:45.596Z</time>
      </trkpt>
      <trkpt lat="44.10166" lon="5.40152">
        <ele>717</ele>
        <time>2020-07-11T08:15:46.596Z</time>
      </trkpt>
      <trkpt lat="44.10171" lon="5.40149">
        <ele>717</ele>
        <time>2020-07-11T08:15:47.596Z</time>
      </trkpt>
      <trkpt lat="44.10177" lon="5.40146">
        <ele>717</ele>
        <time>2020-07-11T08:15:48.596Z</time>
      </trkpt>
      <trkpt lat="44.10182" lon="5.40143">
        <ele>717</ele>
        <time>2020-07-11T08:15:49.595Z</time>
      </trkpt>
      <trkpt lat="44.10188" lon="5.4014">
        <ele>716</ele>
        <time>2020-07-11T08:15:50.596Z</time>
      </trkpt>
      <trkpt lat="44.10193" lon="5.40137">
        <ele>716</ele>
        <time>2020-07-11T08:15:51.595Z</time>
      </trkpt>
      <trkpt lat="44.10199" lon="5.40133">
        <ele>716</ele>
        <time>2020-07-11T08:15:52.596Z</time>
      </trkpt>
      <trkpt lat="44.10204" lon="5.4013">
        <ele>716</ele>
        <time>2020-07-11T08:15:53.596Z</time>
      </trkpt>
      <trkpt lat="44.1021" lon="5.40127">
        <ele>716</ele>
        <time>2020-07-11T08:15:54.596Z</time>
      </trkpt>
      <trkpt lat="44.10215" lon="5.40124">
        <ele>716</ele>
        <time>2020-07-11T08:15:55.596Z</time>
      </trkpt>
      <trkpt lat="44.10221" lon="5.40121">
        <ele>716</ele>
        <time>2020-07-11T08:15:56.595Z</time>
      </trkpt>
      <trkpt lat="44.10226" lon="5.40118">
        <ele>716</ele>
        <time>2020-07-11T08:15:57.596Z</time>
      </trkpt>
      <trkpt lat="44.10232" lon="5.40115">
        <ele>716</ele>
        <time>2020-07-11T08:15:58.595Z</time>
      </trkpt>
      <trkpt lat="44.10237" lon="5.40112">
        <ele>716</ele>
        <time>2020-07-11T08:15:59.596Z</time>
      </trkpt>
      <trkpt lat="44.10243" lon="5.40109">
        <ele>716</ele>
        <time>2020-07-11T08:16:00.596Z</time>
      </trkpt>
      <trkpt lat="44.10248" lon="5.40106">
        <ele>716</ele>
        <time>2020-07-11T08:16:01.596Z</time>
      </trkpt>
      <trkpt lat="44.10254" lon="5.40103">
        <ele>716</ele>
        <time>2020-07-11T08:16:02.595Z</time>
      </trkpt>
      <trkpt lat="44.10259" lon="5.401">
        <ele>717</ele>
        <time>2020-07-11T08:16:03.596Z</time>
      </trkpt>
      <trkpt lat="44.10265" lon="5.40097">
        <ele>717</ele>
        <time>2020-07-11T08:16:04.596Z</time>
      </trkpt>
      <trkpt lat="44.1027" lon="5.40095">
        <ele>717</ele>
        <time>2020-07-11T08:16:05.596Z</time>
      </trkpt>
      <trkpt lat="44.10276" lon="5.40092">
        <ele>717</ele>
        <time>2020-07-11T08:16:06.596Z</time>
      </trkpt>
      <trkpt lat="44.10281" lon="5.40089">
        <ele>717</ele>
        <time>2020-07-11T08:16:07.596Z</time>
      </trkpt>
      <trkpt lat="44.10287" lon="5.40086">
        <ele>717</ele>
        <time>2020-07-11T08:16:08.596Z</time>
      </trkpt>
      <trkpt lat="44.10292" lon="5.40083">
        <ele>717</ele>
        <time>2020-07-11T08:16:09.596Z</time>
      </trkpt>
      <trkpt lat="44.10297" lon="5.4008">
        <ele>717</ele>
        <time>2020-07-11T08:16:10.596Z</time>
      </trkpt>
      <trkpt lat="44.10302" lon="5.40077">
        <ele>717</ele>
        <time>2020-07-11T08:16:11.596Z</time>
      </trkpt>
      <trkpt lat="44.10307" lon="5.40074">
        <ele>718</ele>
        <time>2020-07-11T08:16:12.595Z</time>
      </trkpt>
      <trkpt lat="44.10313" lon="5.40071">
        <ele>718</ele>
        <time>2020-07-11T08:16:13.596Z</time>
      </trkpt>
      <trkpt lat="44.10318" lon="5.40068">
        <ele>718</ele>
        <time>2020-07-11T08:16:14.596Z</time>
      </trkpt>
      <trkpt lat="44.10323" lon="5.40065">
        <ele>718</ele>
        <time>2020-07-11T08:16:15.596Z</time>
      </trkpt>
      <trkpt lat="44.10328" lon="5.40062">
        <ele>718</ele>
        <time>2020-07-11T08:16:16.596Z</time>
      </trkpt>
      <trkpt lat="44.10333" lon="5.4006">
        <ele>718</ele>
        <time>2020-07-11T08:16:17.595Z</time>
      </trkpt>
      <trkpt lat="44.10338" lon="5.40057">
        <ele>718</ele>
        <time>2020-07-11T08:16:18.596Z</time>
      </trkpt>
      <trkpt lat="44.10342" lon="5.40054">
        <ele>718</ele>
        <time>2020-07-11T08:16:19.596Z</time>
      </trkpt>
      <trkpt lat="44.10347" lon="5.40051">
        <ele>718</ele>
        <time>2020-07-11T08:16:20.596Z</time>
      </trkpt>
      <trkpt lat="44.10352" lon="5.40048">
        <ele>717</ele>
        <time>2020-07-11T08:16:21.596Z</time>
      </trkpt>
      <trkpt lat="44.10357" lon="5.40045">
        <ele>717</ele>
        <time>2020-07-11T08:16:22.596Z</time>
      </trkpt>
      <trkpt lat="44.10361" lon="5.40041">
        <ele>717</ele>
        <time>2020-07-11T08:16:23.595Z</time>
      </trkpt>
      <trkpt lat="44.10365" lon="5.40037">
        <ele>717</ele>
        <time>2020-07-11T08:16:24.596Z</time>
      </trkpt>
      <trkpt lat="44.1037" lon="5.40032">
        <ele>717</ele>
        <time>2020-07-11T08:16:25.596Z</time>
      </trkpt>
      <trkpt lat="44.10374" lon="5.40028">
        <ele>717</ele>
        <time>2020-07-11T08:16:26.596Z</time>
      </trkpt>
      <trkpt lat="44.10379" lon="5.40023">
        <ele>717</ele>
        <time>2020-07-11T08:16:27.596Z</time>
      </trkpt>
      <trkpt lat="44.10383" lon="5.40019">
        <ele>717</ele>
        <time>2020-07-11T08:16:28.596Z</time>
      </trkpt>
      <trkpt lat="44.10387" lon="5.40014">
        <ele>717</ele>
        <time>2020-07-11T08:16:29.596Z</time>
      </trkpt>
      <trkpt lat="44.1039" lon="5.40009">
        <ele>718</ele>
        <time>2020-07-11T08:16:30.595Z</time>
      </trkpt>
      <trkpt lat="44.10394" lon="5.40004">
        <ele>718</ele>
        <time>2020-07-11T08:16:31.596Z</time>
      </trkpt>
      <trkpt lat="44.10398" lon="5.39998">
        <ele>718</ele>
        <time>2020-07-11T08:16:32.595Z</time>
      </trkpt>
      <trkpt lat="44.10402" lon="5.39993">
        <ele>718</ele>
        <time>2020-07-11T08:16:33.596Z</time>
      </trkpt>
      <trkpt lat="44.10405" lon="5.39987">
        <ele>718</ele>
        <time>2020-07-11T08:16:34.596Z</time>
      </trkpt>
      <trkpt lat="44.10408" lon="5.39982">
        <ele>718</ele>
        <time>2020-07-11T08:16:35.596Z</time>
      </trkpt>
      <trkpt lat="44.10412" lon="5.39977">
        <ele>718</ele>
        <time>2020-07-11T08:16:36.595Z</time>
      </trkpt>
      <trkpt lat="44.10415" lon="5.39971">
        <ele>718</ele>
        <time>2020-07-11T08:16:37.596Z</time>
      </trkpt>
      <trkpt lat="44.10418" lon="5.39965">
        <ele>719</ele>
        <time>2020-07-11T08:16:38.596Z</time>
      </trkpt>
      <trkpt lat="44.10422" lon="5.39959">
        <ele>719</ele>
        <time>2020-07-11T08:16:39.596Z</time>
      </trkpt>
      <trkpt lat="44.10426" lon="5.39954">
        <ele>720</ele>
        <time>2020-07-11T08:16:40.595Z</time>
      </trkpt>
      <trkpt lat="44.10429" lon="5.39949">
        <ele>720</ele>
        <time>2020-07-11T08:16:41.596Z</time>
      </trkpt>
      <trkpt lat="44.10433" lon="5.39943">
        <ele>720</ele>
        <time>2020-07-11T08:16:42.596Z</time>
      </trkpt>
      <trkpt lat="44.10437" lon="5.39939">
        <ele>720</ele>
        <time>2020-07-11T08:16:43.596Z</time>
      </trkpt>
      <trkpt lat="44.10441" lon="5.39935">
        <ele>720</ele>
        <time>2020-07-11T08:16:44.596Z</time>
      </trkpt>
      <trkpt lat="44.10446" lon="5.3993">
        <ele>721</ele>
        <time>2020-07-11T08:16:45.596Z</time>
      </trkpt>
      <trkpt lat="44.10451" lon="5.39926">
        <ele>721</ele>
        <time>2020-07-11T08:16:46.596Z</time>
      </trkpt>
      <trkpt lat="44.10456" lon="5.39923">
        <ele>721</ele>
        <time>2020-07-11T08:16:47.596Z</time>
      </trkpt>
      <trkpt lat="44.10462" lon="5.39921">
        <ele>721</ele>
        <time>2020-07-11T08:16:48.595Z</time>
      </trkpt>
      <trkpt lat="44.10467" lon="5.39919">
        <ele>721</ele>
        <time>2020-07-11T08:16:49.596Z</time>
      </trkpt>
      <trkpt lat="44.10472" lon="5.39917">
        <ele>721</ele>
        <time>2020-07-11T08:16:50.596Z</time>
      </trkpt>
      <trkpt lat="44.10477" lon="5.39915">
        <ele>721</ele>
        <time>2020-07-11T08:16:51.596Z</time>
      </trkpt>
      <trkpt lat="44.10482" lon="5.39913">
        <ele>721</ele>
        <time>2020-07-11T08:16:52.596Z</time>
      </trkpt>
      <trkpt lat="44.10488" lon="5.39912">
        <ele>721</ele>
        <time>2020-07-11T08:16:53.596Z</time>
      </trkpt>
      <trkpt lat="44.10493" lon="5.39911">
        <ele>722</ele>
        <time>2020-07-11T08:16:54.596Z</time>
      </trkpt>
      <trkpt lat="44.10499" lon="5.39911">
        <ele>722</ele>
        <time>2020-07-11T08:16:55.596Z</time>
      </trkpt>
      <trkpt lat="44.10504" lon="5.39911">
        <ele>722</ele>
        <time>2020-07-11T08:16:56.595Z</time>
      </trkpt>
      <trkpt lat="44.10509" lon="5.39912">
        <ele>722</ele>
        <time>2020-07-11T08:16:57.596Z</time>
      </trkpt>
      <trkpt lat="44.10515" lon="5.39914">
        <ele>722</ele>
        <time>2020-07-11T08:16:58.596Z</time>
      </trkpt>
      <trkpt lat="44.1052" lon="5.39916">
        <ele>722</ele>
        <time>2020-07-11T08:16:59.596Z</time>
      </trkpt>
      <trkpt lat="44.10525" lon="5.39918">
        <ele>722</ele>
        <time>2020-07-11T08:17:00.596Z</time>
      </trkpt>
      <trkpt lat="44.1053" lon="5.39921">
        <ele>722</ele>
        <time>2020-07-11T08:17:01.595Z</time>
      </trkpt>
      <trkpt lat="44.10535" lon="5.39924">
        <ele>722</ele>
        <time>2020-07-11T08:17:02.596Z</time>
      </trkpt>
      <trkpt lat="44.1054" lon="5.39927">
        <ele>722</ele>
        <time>2020-07-11T08:17:03.596Z</time>
      </trkpt>
      <trkpt lat="44.10545" lon="5.3993">
        <ele>722</ele>
        <time>2020-07-11T08:17:04.596Z</time>
      </trkpt>
      <trkpt lat="44.1055" lon="5.39933">
        <ele>722</ele>
        <time>2020-07-11T08:17:05.596Z</time>
      </trkpt>
      <trkpt lat="44.10555" lon="5.39936">
        <ele>723</ele>
        <time>2020-07-11T08:17:06.596Z</time>
      </trkpt>
      <trkpt lat="44.1056" lon="5.3994">
        <ele>723</ele>
        <time>2020-07-11T08:17:07.596Z</time>
      </trkpt>
      <trkpt lat="44.10564" lon="5.39943">
        <ele>723</ele>
        <time>2020-07-11T08:17:08.596Z</time>
      </trkpt>
      <trkpt lat="44.10569" lon="5.39946">
        <ele>724</ele>
        <time>2020-07-11T08:17:09.596Z</time>
      </trkpt>
      <trkpt lat="44.10574" lon="5.39949">
        <ele>724</ele>
        <time>2020-07-11T08:17:10.595Z</time>
      </trkpt>
      <trkpt lat="44.10578" lon="5.39953">
        <ele>723</ele>
        <time>2020-07-11T08:17:11.596Z</time>
      </trkpt>
      <trkpt lat="44.10583" lon="5.39956">
        <ele>723</ele>
        <time>2020-07-11T08:17:12.596Z</time>
      </trkpt>
      <trkpt lat="44.10587" lon="5.39959">
        <ele>724</ele>
        <time>2020-07-11T08:17:13.596Z</time>
      </trkpt>
      <trkpt lat="44.10592" lon="5.39962">
        <ele>724</ele>
        <time>2020-07-11T08:17:14.596Z</time>
      </trkpt>
      <trkpt lat="44.10596" lon="5.39964">
        <ele>724</ele>
        <time>2020-07-11T08:17:15.596Z</time>
      </trkpt>
      <trkpt lat="44.10601" lon="5.39967">
        <ele>725</ele>
        <time>2020-07-11T08:17:16.595Z</time>
      </trkpt>
      <trkpt lat="44.10605" lon="5.3997">
        <ele>726</ele>
        <time>2020-07-11T08:17:17.596Z</time>
      </trkpt>
      <trkpt lat="44.10609" lon="5.39974">
        <ele>726</ele>
        <time>2020-07-11T08:17:18.595Z</time>
      </trkpt>
      <trkpt lat="44.10614" lon="5.39976">
        <ele>726</ele>
        <time>2020-07-11T08:17:19.596Z</time>
      </trkpt>
      <trkpt lat="44.10618" lon="5.39979">
        <ele>726</ele>
        <time>2020-07-11T08:17:20.596Z</time>
      </trkpt>
      <trkpt lat="44.10622" lon="5.39982">
        <ele>726</ele>
        <time>2020-07-11T08:17:21.596Z</time>
      </trkpt>
      <trkpt lat="44.10626" lon="5.39985">
        <ele>727</ele>
        <time>2020-07-11T08:17:22.596Z</time>
      </trkpt>
      <trkpt lat="44.1063" lon="5.39987">
        <ele>727</ele>
        <time>2020-07-11T08:17:23.596Z</time>
      </trkpt>
      <trkpt lat="44.10634" lon="5.3999">
        <ele>727</ele>
        <time>2020-07-11T08:17:24.596Z</time>
      </trkpt>
      <trkpt lat="44.10638" lon="5.39992">
        <ele>727</ele>
        <time>2020-07-11T08:17:25.596Z</time>
      </trkpt>
      <trkpt lat="44.10642" lon="5.39995">
        <ele>727</ele>
        <time>2020-07-11T08:17:26.596Z</time>
      </trkpt>
      <trkpt lat="44.10645" lon="5.39998">
        <ele>726</ele>
        <time>2020-07-11T08:17:27.596Z</time>
      </trkpt>
      <trkpt lat="44.10649" lon="5.40001">
        <ele>727</ele>
        <time>2020-07-11T08:17:28.596Z</time>
      </trkpt>
      <trkpt lat="44.10653" lon="5.40004">
        <ele>727</ele>
        <time>2020-07-11T08:17:29.596Z</time>
      </trkpt>
      <trkpt lat="44.10657" lon="5.40006">
        <ele>727</ele>
        <time>2020-07-11T08:17:30.596Z</time>
      </trkpt>
      <trkpt lat="44.10661" lon="5.40009">
        <ele>727</ele>
        <time>2020-07-11T08:17:31.596Z</time>
      </trkpt>
      <trkpt lat="44.10664" lon="5.40012">
        <ele>727</ele>
        <time>2020-07-11T08:17:32.596Z</time>
      </trkpt>
      <trkpt lat="44.10668" lon="5.40015">
        <ele>727</ele>
        <time>2020-07-11T08:17:33.596Z</time>
      </trkpt>
      <trkpt lat="44.10671" lon="5.40018">
        <ele>726</ele>
        <time>2020-07-11T08:17:34.596Z</time>
      </trkpt>
      <trkpt lat="44.10675" lon="5.40021">
        <ele>726</ele>
        <time>2020-07-11T08:17:35.596Z</time>
      </trkpt>
      <trkpt lat="44.10678" lon="5.40023">
        <ele>726</ele>
        <time>2020-07-11T08:17:36.596Z</time>
      </trkpt>
      <trkpt lat="44.10681" lon="5.40026">
        <ele>727</ele>
        <time>2020-07-11T08:17:37.596Z</time>
      </trkpt>
      <trkpt lat="44.10684" lon="5.40029">
        <ele>727</ele>
        <time>2020-07-11T08:17:38.596Z</time>
      </trkpt>
      <trkpt lat="44.10687" lon="5.40032">
        <ele>727</ele>
        <time>2020-07-11T08:17:39.596Z</time>
      </trkpt>
      <trkpt lat="44.1069" lon="5.40035">
        <ele>728</ele>
        <time>2020-07-11T08:17:40.596Z</time>
      </trkpt>
      <trkpt lat="44.10693" lon="5.40038">
        <ele>728</ele>
        <time>2020-07-11T08:17:41.596Z</time>
      </trkpt>
      <trkpt lat="44.10697" lon="5.4004">
        <ele>728</ele>
        <time>2020-07-11T08:17:42.596Z</time>
      </trkpt>
      <trkpt lat="44.107" lon="5.40042">
        <ele>729</ele>
        <time>2020-07-11T08:17:43.595Z</time>
      </trkpt>
      <trkpt lat="44.10704" lon="5.40045">
        <ele>729</ele>
        <time>2020-07-11T08:17:44.596Z</time>
      </trkpt>
      <trkpt lat="44.10707" lon="5.40047">
        <ele>730</ele>
        <time>2020-07-11T08:17:45.596Z</time>
      </trkpt>
      <trkpt lat="44.1071" lon="5.40049">
        <ele>730</ele>
        <time>2020-07-11T08:17:46.596Z</time>
      </trkpt>
      <trkpt lat="44.10714" lon="5.4005">
        <ele>730</ele>
        <time>2020-07-11T08:17:47.596Z</time>
      </trkpt>
      <trkpt lat="44.10718" lon="5.40052">
        <ele>731</ele>
        <time>2020-07-11T08:17:48.596Z</time>
      </trkpt>
      <trkpt lat="44.10721" lon="5.40054">
        <ele>731</ele>
        <time>2020-07-11T08:17:49.596Z</time>
      </trkpt>
      <trkpt lat="44.10725" lon="5.40055">
        <ele>731</ele>
        <time>2020-07-11T08:17:50.596Z</time>
      </trkpt>
      <trkpt lat="44.10728" lon="5.40056">
        <ele>731</ele>
        <time>2020-07-11T08:17:51.595Z</time>
      </trkpt>
      <trkpt lat="44.10732" lon="5.40057">
        <ele>731</ele>
        <time>2020-07-11T08:17:52.596Z</time>
      </trkpt>
      <trkpt lat="44.10735" lon="5.40058">
        <ele>731</ele>
        <time>2020-07-11T08:17:53.595Z</time>
      </trkpt>
      <trkpt lat="44.10739" lon="5.40059">
        <ele>731</ele>
        <time>2020-07-11T08:17:54.596Z</time>
      </trkpt>
      <trkpt lat="44.10743" lon="5.4006">
        <ele>731</ele>
        <time>2020-07-11T08:17:55.596Z</time>
      </trkpt>
      <trkpt lat="44.10746" lon="5.40061">
        <ele>731</ele>
        <time>2020-07-11T08:17:56.596Z</time>
      </trkpt>
      <trkpt lat="44.1075" lon="5.40062">
        <ele>731</ele>
        <time>2020-07-11T08:17:57.596Z</time>
      </trkpt>
      <trkpt lat="44.10753" lon="5.40063">
        <ele>731</ele>
        <time>2020-07-11T08:17:58.596Z</time>
      </trkpt>
      <trkpt lat="44.10757" lon="5.40065">
        <ele>731</ele>
        <time>2020-07-11T08:17:59.596Z</time>
      </trkpt>
      <trkpt lat="44.10761" lon="5.40066">
        <ele>731</ele>
        <time>2020-07-11T08:18:00.596Z</time>
      </trkpt>
      <trkpt lat="44.10764" lon="5.40068">
        <ele>731</ele>
        <time>2020-07-11T08:18:01.595Z</time>
      </trkpt>
      <trkpt lat="44.10768" lon="5.4007">
        <ele>732</ele>
        <time>2020-07-11T08:18:02.596Z</time>
      </trkpt>
      <trkpt lat="44.10772" lon="5.40072">
        <ele>732</ele>
        <time>2020-07-11T08:18:03.595Z</time>
      </trkpt>
      <trkpt lat="44.10775" lon="5.40074">
        <ele>733</ele>
        <time>2020-07-11T08:18:04.595Z</time>
      </trkpt>
      <trkpt lat="44.10779" lon="5.40076">
        <ele>733</ele>
        <time>2020-07-11T08:18:05.595Z</time>
      </trkpt>
      <trkpt lat="44.10783" lon="5.40078">
        <ele>733</ele>
        <time>2020-07-11T08:18:06.596Z</time>
      </trkpt>
      <trkpt lat="44.10787" lon="5.4008">
        <ele>734</ele>
        <time>2020-07-11T08:18:07.596Z</time>
      </trkpt>
      <trkpt lat="44.1079" lon="5.40082">
        <ele>734</ele>
        <time>2020-07-11T08:18:08.596Z</time>
      </trkpt>
      <trkpt lat="44.10794" lon="5.40084">
        <ele>734</ele>
        <time>2020-07-11T08:18:09.596Z</time>
      </trkpt>
      <trkpt lat="44.10798" lon="5.40086">
        <ele>734</ele>
        <time>2020-07-11T08:18:10.596Z</time>
      </trkpt>
      <trkpt lat="44.10802" lon="5.40087">
        <ele>734</ele>
        <time>2020-07-11T08:18:11.595Z</time>
      </trkpt>
      <trkpt lat="44.10805" lon="5.40087">
        <ele>735</ele>
        <time>2020-07-11T08:18:12.595Z</time>
      </trkpt>
      <trkpt lat="44.10809" lon="5.40088">
        <ele>735</ele>
        <time>2020-07-11T08:18:13.595Z</time>
      </trkpt>
      <trkpt lat="44.10813" lon="5.40088">
        <ele>735</ele>
        <time>2020-07-11T08:18:14.596Z</time>
      </trkpt>
      <trkpt lat="44.10815" lon="5.40087">
        <ele>735</ele>
        <time>2020-07-11T08:18:15.595Z</time>
      </trkpt>
      <trkpt lat="44.10818" lon="5.40086">
        <ele>736</ele>
        <time>2020-07-11T08:18:16.596Z</time>
      </trkpt>
      <trkpt lat="44.10821" lon="5.40084">
        <ele>736</ele>
        <time>2020-07-11T08:18:17.596Z</time>
      </trkpt>
      <trkpt lat="44.10824" lon="5.40081">
        <ele>735</ele>
        <time>2020-07-11T08:18:18.595Z</time>
      </trkpt>
      <trkpt lat="44.10827" lon="5.40077">
        <ele>735</ele>
        <time>2020-07-11T08:18:19.596Z</time>
      </trkpt>
      <trkpt lat="44.10829" lon="5.40073">
        <ele>735</ele>
        <time>2020-07-11T08:18:20.596Z</time>
      </trkpt>
      <trkpt lat="44.10832" lon="5.40069">
        <ele>735</ele>
        <time>2020-07-11T08:18:21.595Z</time>
      </trkpt>
      <trkpt lat="44.10835" lon="5.40065">
        <ele>735</ele>
        <time>2020-07-11T08:18:22.595Z</time>
      </trkpt>
      <trkpt lat="44.10838" lon="5.4006">
        <ele>735</ele>
        <time>2020-07-11T08:18:23.596Z</time>
      </trkpt>
      <trkpt lat="44.1084" lon="5.40057">
        <ele>736</ele>
        <time>2020-07-11T08:18:24.596Z</time>
      </trkpt>
      <trkpt lat="44.10843" lon="5.40053">
        <ele>736</ele>
        <time>2020-07-11T08:18:25.596Z</time>
      </trkpt>
      <trkpt lat="44.10846" lon="5.40048">
        <ele>737</ele>
        <time>2020-07-11T08:18:26.595Z</time>
      </trkpt>
      <trkpt lat="44.10849" lon="5.40044">
        <ele>737</ele>
        <time>2020-07-11T08:18:27.596Z</time>
      </trkpt>
      <trkpt lat="44.10851" lon="5.4004">
        <ele>737</ele>
        <time>2020-07-11T08:18:28.596Z</time>
      </trkpt>
      <trkpt lat="44.10854" lon="5.40036">
        <ele>737</ele>
        <time>2020-07-11T08:18:29.596Z</time>
      </trkpt>
      <trkpt lat="44.10857" lon="5.40032">
        <ele>737</ele>
        <time>2020-07-11T08:18:30.595Z</time>
      </trkpt>
      <trkpt lat="44.10859" lon="5.40029">
        <ele>737</ele>
        <time>2020-07-11T08:18:31.596Z</time>
      </trkpt>
      <trkpt lat="44.10862" lon="5.40025">
        <ele>738</ele>
        <time>2020-07-11T08:18:32.596Z</time>
      </trkpt>
      <trkpt lat="44.10864" lon="5.4002">
        <ele>739</ele>
        <time>2020-07-11T08:18:33.595Z</time>
      </trkpt>
      <trkpt lat="44.10866" lon="5.40017">
        <ele>739</ele>
        <time>2020-07-11T08:18:34.596Z</time>
      </trkpt>
      <trkpt lat="44.10869" lon="5.40012">
        <ele>739</ele>
        <time>2020-07-11T08:18:35.596Z</time>
      </trkpt>
      <trkpt lat="44.10872" lon="5.40008">
        <ele>739</ele>
        <time>2020-07-11T08:18:36.595Z</time>
      </trkpt>
      <trkpt lat="44.10874" lon="5.40004">
        <ele>739</ele>
        <time>2020-07-11T08:18:37.596Z</time>
      </trkpt>
      <trkpt lat="44.10877" lon="5.4">
        <ele>740</ele>
        <time>2020-07-11T08:18:38.596Z</time>
      </trkpt>
      <trkpt lat="44.10879" lon="5.39995">
        <ele>740</ele>
        <time>2020-07-11T08:18:39.596Z</time>
      </trkpt>
      <trkpt lat="44.10882" lon="5.39991">
        <ele>740</ele>
        <time>2020-07-11T08:18:40.596Z</time>
      </trkpt>
      <trkpt lat="44.10885" lon="5.39986">
        <ele>741</ele>
        <time>2020-07-11T08:18:41.596Z</time>
      </trkpt>
      <trkpt lat="44.10887" lon="5.39983">
        <ele>741</ele>
        <time>2020-07-11T08:18:42.596Z</time>
      </trkpt>
      <trkpt lat="44.1089" lon="5.39979">
        <ele>741</ele>
        <time>2020-07-11T08:18:43.596Z</time>
      </trkpt>
      <trkpt lat="44.10893" lon="5.39975">
        <ele>742</ele>
        <time>2020-07-11T08:18:44.596Z</time>
      </trkpt>
      <trkpt lat="44.10895" lon="5.39971">
        <ele>742</ele>
        <time>2020-07-11T08:18:45.596Z</time>
      </trkpt>
      <trkpt lat="44.10898" lon="5.39967">
        <ele>743</ele>
        <time>2020-07-11T08:18:46.595Z</time>
      </trkpt>
      <trkpt lat="44.10901" lon="5.39964">
        <ele>743</ele>
        <time>2020-07-11T08:18:47.595Z</time>
      </trkpt>
      <trkpt lat="44.10904" lon="5.3996">
        <ele>744</ele>
        <time>2020-07-11T08:18:48.595Z</time>
      </trkpt>
      <trkpt lat="44.10907" lon="5.39956">
        <ele>744</ele>
        <time>2020-07-11T08:18:49.595Z</time>
      </trkpt>
      <trkpt lat="44.1091" lon="5.39953">
        <ele>744</ele>
        <time>2020-07-11T08:18:50.595Z</time>
      </trkpt>
      <trkpt lat="44.10913" lon="5.3995">
        <ele>745</ele>
        <time>2020-07-11T08:18:51.596Z</time>
      </trkpt>
      <trkpt lat="44.10916" lon="5.39947">
        <ele>745</ele>
        <time>2020-07-11T08:18:52.596Z</time>
      </trkpt>
      <trkpt lat="44.10919" lon="5.39944">
        <ele>746</ele>
        <time>2020-07-11T08:18:53.596Z</time>
      </trkpt>
      <trkpt lat="44.10922" lon="5.39941">
        <ele>746</ele>
        <time>2020-07-11T08:18:54.596Z</time>
      </trkpt>
      <trkpt lat="44.10925" lon="5.39938">
        <ele>746</ele>
        <time>2020-07-11T08:18:55.596Z</time>
      </trkpt>
      <trkpt lat="44.10928" lon="5.39935">
        <ele>746</ele>
        <time>2020-07-11T08:18:56.596Z</time>
      </trkpt>
      <trkpt lat="44.10931" lon="5.39932">
        <ele>746</ele>
        <time>2020-07-11T08:18:57.596Z</time>
      </trkpt>
      <trkpt lat="44.10934" lon="5.3993">
        <ele>746</ele>
        <time>2020-07-11T08:18:58.595Z</time>
      </trkpt>
      <trkpt lat="44.10938" lon="5.39927">
        <ele>746</ele>
        <time>2020-07-11T08:18:59.595Z</time>
      </trkpt>
      <trkpt lat="44.10941" lon="5.39925">
        <ele>746</ele>
        <time>2020-07-11T08:19:00.596Z</time>
      </trkpt>
      <trkpt lat="44.10944" lon="5.39922">
        <ele>746</ele>
        <time>2020-07-11T08:19:01.596Z</time>
      </trkpt>
      <trkpt lat="44.10947" lon="5.3992">
        <ele>746</ele>
        <time>2020-07-11T08:19:02.596Z</time>
      </trkpt>
      <trkpt lat="44.10951" lon="5.39917">
        <ele>746</ele>
        <time>2020-07-11T08:19:03.595Z</time>
      </trkpt>
      <trkpt lat="44.10954" lon="5.39915">
        <ele>747</ele>
        <time>2020-07-11T08:19:04.596Z</time>
      </trkpt>
      <trkpt lat="44.10957" lon="5.39913">
        <ele>747</ele>
        <time>2020-07-11T08:19:05.596Z</time>
      </trkpt>
      <trkpt lat="44.10961" lon="5.39911">
        <ele>747</ele>
        <time>2020-07-11T08:19:06.596Z</time>
      </trkpt>
      <trkpt lat="44.10964" lon="5.39909">
        <ele>747</ele>
        <time>2020-07-11T08:19:07.596Z</time>
      </trkpt>
      <trkpt lat="44.10967" lon="5.39906">
        <ele>748</ele>
        <time>2020-07-11T08:19:08.595Z</time>
      </trkpt>
      <trkpt lat="44.10971" lon="5.39905">
        <ele>748</ele>
        <time>2020-07-11T08:19:09.596Z</time>
      </trkpt>
      <trkpt lat="44.10974" lon="5.39902">
        <ele>748</ele>
        <time>2020-07-11T08:19:10.596Z</time>
      </trkpt>
      <trkpt lat="44.10977" lon="5.39901">
        <ele>749</ele>
        <time>2020-07-11T08:19:11.596Z</time>
      </trkpt>
      <trkpt lat="44.10981" lon="5.39899">
        <ele>749</ele>
        <time>2020-07-11T08:19:12.596Z</time>
      </trkpt>
      <trkpt lat="44.10984" lon="5.39897">
        <ele>749</ele>
        <time>2020-07-11T08:19:13.596Z</time>
      </trkpt>
      <trkpt lat="44.10987" lon="5.39895">
        <ele>750</ele>
        <time>2020-07-11T08:19:14.595Z</time>
      </trkpt>
      <trkpt lat="44.10991" lon="5.39892">
        <ele>750</ele>
        <time>2020-07-11T08:19:15.596Z</time>
      </trkpt>
      <trkpt lat="44.10994" lon="5.3989">
        <ele>751</ele>
        <time>2020-07-11T08:19:16.596Z</time>
      </trkpt>
      <trkpt lat="44.10997" lon="5.39888">
        <ele>751</ele>
        <time>2020-07-11T08:19:17.596Z</time>
      </trkpt>
      <trkpt lat="44.11001" lon="5.39885">
        <ele>752</ele>
        <time>2020-07-11T08:19:18.596Z</time>
      </trkpt>
      <trkpt lat="44.11004" lon="5.39883">
        <ele>752</ele>
        <time>2020-07-11T08:19:19.596Z</time>
      </trkpt>
      <trkpt lat="44.11007" lon="5.39881">
        <ele>752</ele>
        <time>2020-07-11T08:19:20.596Z</time>
      </trkpt>
      <trkpt lat="44.11011" lon="5.39879">
        <ele>753</ele>
        <time>2020-07-11T08:19:21.596Z</time>
      </trkpt>
      <trkpt lat="44.11014" lon="5.39877">
        <ele>753</ele>
        <time>2020-07-11T08:19:22.596Z</time>
      </trkpt>
      <trkpt lat="44.11017" lon="5.39875">
        <ele>754</ele>
        <time>2020-07-11T08:19:23.596Z</time>
      </trkpt>
      <trkpt lat="44.1102" lon="5.39873">
        <ele>754</ele>
        <time>2020-07-11T08:19:24.596Z</time>
      </trkpt>
      <trkpt lat="44.11024" lon="5.3987">
        <ele>754</ele>
        <time>2020-07-11T08:19:25.596Z</time>
      </trkpt>
      <trkpt lat="44.11027" lon="5.39868">
        <ele>754</ele>
        <time>2020-07-11T08:19:26.596Z</time>
      </trkpt>
      <trkpt lat="44.1103" lon="5.39866">
        <ele>754</ele>
        <time>2020-07-11T08:19:27.596Z</time>
      </trkpt>
      <trkpt lat="44.11034" lon="5.39864">
        <ele>755</ele>
        <time>2020-07-11T08:19:28.596Z</time>
      </trkpt>
      <trkpt lat="44.11037" lon="5.39862">
        <ele>755</ele>
        <time>2020-07-11T08:19:29.596Z</time>
      </trkpt>
      <trkpt lat="44.1104" lon="5.39859">
        <ele>755</ele>
        <time>2020-07-11T08:19:30.596Z</time>
      </trkpt>
      <trkpt lat="44.11043" lon="5.39857">
        <ele>756</ele>
        <time>2020-07-11T08:19:31.596Z</time>
      </trkpt>
      <trkpt lat="44.11046" lon="5.39855">
        <ele>756</ele>
        <time>2020-07-11T08:19:32.596Z</time>
      </trkpt>
      <trkpt lat="44.11049" lon="5.39853">
        <ele>756</ele>
        <time>2020-07-11T08:19:33.595Z</time>
      </trkpt>
      <trkpt lat="44.11053" lon="5.39851">
        <ele>756</ele>
        <time>2020-07-11T08:19:34.595Z</time>
      </trkpt>
      <trkpt lat="44.11056" lon="5.39848">
        <ele>756</ele>
        <time>2020-07-11T08:19:35.596Z</time>
      </trkpt>
      <trkpt lat="44.11059" lon="5.39846">
        <ele>756</ele>
        <time>2020-07-11T08:19:36.596Z</time>
      </trkpt>
      <trkpt lat="44.11062" lon="5.39844">
        <ele>757</ele>
        <time>2020-07-11T08:19:37.596Z</time>
      </trkpt>
      <trkpt lat="44.11065" lon="5.39842">
        <ele>757</ele>
        <time>2020-07-11T08:19:38.596Z</time>
      </trkpt>
      <trkpt lat="44.11069" lon="5.3984">
        <ele>757</ele>
        <time>2020-07-11T08:19:39.595Z</time>
      </trkpt>
      <trkpt lat="44.11072" lon="5.39838">
        <ele>756</ele>
        <time>2020-07-11T08:19:40.596Z</time>
      </trkpt>
      <trkpt lat="44.11075" lon="5.39836">
        <ele>757</ele>
        <time>2020-07-11T08:19:41.596Z</time>
      </trkpt>
      <trkpt lat="44.11078" lon="5.39833">
        <ele>757</ele>
        <time>2020-07-11T08:19:42.596Z</time>
      </trkpt>
      <trkpt lat="44.11082" lon="5.39831">
        <ele>757</ele>
        <time>2020-07-11T08:19:43.596Z</time>
      </trkpt>
      <trkpt lat="44.11085" lon="5.39828">
        <ele>758</ele>
        <time>2020-07-11T08:19:44.596Z</time>
      </trkpt>
      <trkpt lat="44.11088" lon="5.39826">
        <ele>758</ele>
        <time>2020-07-11T08:19:45.596Z</time>
      </trkpt>
      <trkpt lat="44.11091" lon="5.39823">
        <ele>758</ele>
        <time>2020-07-11T08:19:46.596Z</time>
      </trkpt>
      <trkpt lat="44.11094" lon="5.39821">
        <ele>758</ele>
        <time>2020-07-11T08:19:47.596Z</time>
      </trkpt>
      <trkpt lat="44.11098" lon="5.39818">
        <ele>758</ele>
        <time>2020-07-11T08:19:48.596Z</time>
      </trkpt>
      <trkpt lat="44.11101" lon="5.39815">
        <ele>758</ele>
        <time>2020-07-11T08:19:49.596Z</time>
      </trkpt>
      <trkpt lat="44.11104" lon="5.39813">
        <ele>758</ele>
        <time>2020-07-11T08:19:50.595Z</time>
      </trkpt>
      <trkpt lat="44.11107" lon="5.3981">
        <ele>759</ele>
        <time>2020-07-11T08:19:51.596Z</time>
      </trkpt>
      <trkpt lat="44.1111" lon="5.39807">
        <ele>759</ele>
        <time>2020-07-11T08:19:52.595Z</time>
      </trkpt>
      <trkpt lat="44.11112" lon="5.39804">
        <ele>759</ele>
        <time>2020-07-11T08:19:53.595Z</time>
      </trkpt>
      <trkpt lat="44.11115" lon="5.39801">
        <ele>760</ele>
        <time>2020-07-11T08:19:54.596Z</time>
      </trkpt>
      <trkpt lat="44.11118" lon="5.39799">
        <ele>760</ele>
        <time>2020-07-11T08:19:55.596Z</time>
      </trkpt>
      <trkpt lat="44.11121" lon="5.39796">
        <ele>761</ele>
        <time>2020-07-11T08:19:56.595Z</time>
      </trkpt>
      <trkpt lat="44.11124" lon="5.39793">
        <ele>761</ele>
        <time>2020-07-11T08:19:57.596Z</time>
      </trkpt>
      <trkpt lat="44.11127" lon="5.39791">
        <ele>761</ele>
        <time>2020-07-11T08:19:58.596Z</time>
      </trkpt>
      <trkpt lat="44.11129" lon="5.39788">
        <ele>761</ele>
        <time>2020-07-11T08:19:59.596Z</time>
      </trkpt>
      <trkpt lat="44.11132" lon="5.39785">
        <ele>761</ele>
        <time>2020-07-11T08:20:00.596Z</time>
      </trkpt>
      <trkpt lat="44.11135" lon="5.39782">
        <ele>761</ele>
        <time>2020-07-11T08:20:01.596Z</time>
      </trkpt>
      <trkpt lat="44.11138" lon="5.39779">
        <ele>762</ele>
        <time>2020-07-11T08:20:02.596Z</time>
      </trkpt>
      <trkpt lat="44.1114" lon="5.39777">
        <ele>762</ele>
        <time>2020-07-11T08:20:03.596Z</time>
      </trkpt>
      <trkpt lat="44.11143" lon="5.39774">
        <ele>762</ele>
        <time>2020-07-11T08:20:04.596Z</time>
      </trkpt>
      <trkpt lat="44.11146" lon="5.39772">
        <ele>762</ele>
        <time>2020-07-11T08:20:05.596Z</time>
      </trkpt>
      <trkpt lat="44.11149" lon="5.39769">
        <ele>763</ele>
        <time>2020-07-11T08:20:06.595Z</time>
      </trkpt>
      <trkpt lat="44.11152" lon="5.39766">
        <ele>763</ele>
        <time>2020-07-11T08:20:07.596Z</time>
      </trkpt>
      <trkpt lat="44.11155" lon="5.39764">
        <ele>763</ele>
        <time>2020-07-11T08:20:08.596Z</time>
      </trkpt>
      <trkpt lat="44.11158" lon="5.39761">
        <ele>763</ele>
        <time>2020-07-11T08:20:09.596Z</time>
      </trkpt>
      <trkpt lat="44.11162" lon="5.39759">
        <ele>762</ele>
        <time>2020-07-11T08:20:10.596Z</time>
      </trkpt>
      <trkpt lat="44.11165" lon="5.39757">
        <ele>763</ele>
        <time>2020-07-11T08:20:11.596Z</time>
      </trkpt>
      <trkpt lat="44.11168" lon="5.39755">
        <ele>763</ele>
        <time>2020-07-11T08:20:12.596Z</time>
      </trkpt>
      <trkpt lat="44.11172" lon="5.39754">
        <ele>763</ele>
        <time>2020-07-11T08:20:13.596Z</time>
      </trkpt>
      <trkpt lat="44.11175" lon="5.39753">
        <ele>764</ele>
        <time>2020-07-11T08:20:14.596Z</time>
      </trkpt>
      <trkpt lat="44.11178" lon="5.39752">
        <ele>764</ele>
        <time>2020-07-11T08:20:15.596Z</time>
      </trkpt>
      <trkpt lat="44.11182" lon="5.39751">
        <ele>764</ele>
        <time>2020-07-11T08:20:16.596Z</time>
      </trkpt>
      <trkpt lat="44.11186" lon="5.3975">
        <ele>764</ele>
        <time>2020-07-11T08:20:17.596Z</time>
      </trkpt>
      <trkpt lat="44.11189" lon="5.39748">
        <ele>764</ele>
        <time>2020-07-11T08:20:18.596Z</time>
      </trkpt>
      <trkpt lat="44.11193" lon="5.39747">
        <ele>764</ele>
        <time>2020-07-11T08:20:19.596Z</time>
      </trkpt>
      <trkpt lat="44.11197" lon="5.39746">
        <ele>764</ele>
        <time>2020-07-11T08:20:20.596Z</time>
      </trkpt>
      <trkpt lat="44.112" lon="5.39745">
        <ele>765</ele>
        <time>2020-07-11T08:20:21.595Z</time>
      </trkpt>
      <trkpt lat="44.11204" lon="5.39744">
        <ele>765</ele>
        <time>2020-07-11T08:20:22.595Z</time>
      </trkpt>
      <trkpt lat="44.11208" lon="5.39744">
        <ele>764</ele>
        <time>2020-07-11T08:20:23.595Z</time>
      </trkpt>
      <trkpt lat="44.11212" lon="5.39744">
        <ele>764</ele>
        <time>2020-07-11T08:20:24.595Z</time>
      </trkpt>
      <trkpt lat="44.11216" lon="5.39744">
        <ele>764</ele>
        <time>2020-07-11T08:20:25.596Z</time>
      </trkpt>
      <trkpt lat="44.11219" lon="5.39745">
        <ele>764</ele>
        <time>2020-07-11T08:20:26.596Z</time>
      </trkpt>
      <trkpt lat="44.11223" lon="5.39745">
        <ele>764</ele>
        <time>2020-07-11T08:20:27.596Z</time>
      </trkpt>
      <trkpt lat="44.11227" lon="5.39745">
        <ele>764</ele>
        <time>2020-07-11T08:20:28.596Z</time>
      </trkpt>
      <trkpt lat="44.11231" lon="5.39745">
        <ele>764</ele>
        <time>2020-07-11T08:20:29.596Z</time>
      </trkpt>
      <trkpt lat="44.11234" lon="5.39746">
        <ele>765</ele>
        <time>2020-07-11T08:20:30.596Z</time>
      </trkpt>
      <trkpt lat="44.11238" lon="5.39746">
        <ele>765</ele>
        <time>2020-07-11T08:20:31.596Z</time>
      </trkpt>
      <trkpt lat="44.11242" lon="5.39746">
        <ele>765</ele>
        <time>2020-07-11T08:20:32.596Z</time>
      </trkpt>
      <trkpt lat="44.11245" lon="5.39746">
        <ele>765</ele>
        <time>2020-07-11T08:20:33.595Z</time>
      </trkpt>
      <trkpt lat="44.11249" lon="5.39745">
        <ele>765</ele>
        <time>2020-07-11T08:20:34.596Z</time>
      </trkpt>
      <trkpt lat="44.11252" lon="5.39745">
        <ele>765</ele>
        <time>2020-07-11T08:20:35.596Z</time>
      </trkpt>
      <trkpt lat="44.11256" lon="5.39745">
        <ele>765</ele>
        <time>2020-07-11T08:20:36.596Z</time>
      </trkpt>
      <trkpt lat="44.1126" lon="5.39744">
        <ele>766</ele>
        <time>2020-07-11T08:20:37.596Z</time>
      </trkpt>
      <trkpt lat="44.11263" lon="5.39744">
        <ele>766</ele>
        <time>2020-07-11T08:20:38.596Z</time>
      </trkpt>
      <trkpt lat="44.11267" lon="5.39743">
        <ele>766</ele>
        <time>2020-07-11T08:20:39.596Z</time>
      </trkpt>
      <trkpt lat="44.1127" lon="5.39742">
        <ele>767</ele>
        <time>2020-07-11T08:20:40.596Z</time>
      </trkpt>
      <trkpt lat="44.11274" lon="5.39741">
        <ele>767</ele>
        <time>2020-07-11T08:20:41.596Z</time>
      </trkpt>
      <trkpt lat="44.11278" lon="5.39741">
        <ele>767</ele>
        <time>2020-07-11T08:20:42.596Z</time>
      </trkpt>
      <trkpt lat="44.11281" lon="5.3974">
        <ele>768</ele>
        <time>2020-07-11T08:20:43.596Z</time>
      </trkpt>
      <trkpt lat="44.11285" lon="5.39739">
        <ele>768</ele>
        <time>2020-07-11T08:20:44.595Z</time>
      </trkpt>
      <trkpt lat="44.11289" lon="5.39738">
        <ele>769</ele>
        <time>2020-07-11T08:20:45.596Z</time>
      </trkpt>
      <trkpt lat="44.11292" lon="5.39738">
        <ele>769</ele>
        <time>2020-07-11T08:20:46.595Z</time>
      </trkpt>
      <trkpt lat="44.11296" lon="5.39737">
        <ele>769</ele>
        <time>2020-07-11T08:20:47.596Z</time>
      </trkpt>
      <trkpt lat="44.11299" lon="5.39736">
        <ele>770</ele>
        <time>2020-07-11T08:20:48.595Z</time>
      </trkpt>
      <trkpt lat="44.11303" lon="5.39735">
        <ele>770</ele>
        <time>2020-07-11T08:20:49.596Z</time>
      </trkpt>
      <trkpt lat="44.11307" lon="5.39734">
        <ele>771</ele>
        <time>2020-07-11T08:20:50.596Z</time>
      </trkpt>
      <trkpt lat="44.11311" lon="5.39733">
        <ele>771</ele>
        <time>2020-07-11T08:20:51.596Z</time>
      </trkpt>
      <trkpt lat="44.11314" lon="5.39732">
        <ele>772</ele>
        <time>2020-07-11T08:20:52.596Z</time>
      </trkpt>
      <trkpt lat="44.11318" lon="5.39732">
        <ele>772</ele>
        <time>2020-07-11T08:20:53.596Z</time>
      </trkpt>
      <trkpt lat="44.11321" lon="5.39731">
        <ele>772</ele>
        <time>2020-07-11T08:20:54.595Z</time>
      </trkpt>
      <trkpt lat="44.11325" lon="5.3973">
        <ele>773</ele>
        <time>2020-07-11T08:20:55.596Z</time>
      </trkpt>
      <trkpt lat="44.11329" lon="5.3973">
        <ele>773</ele>
        <time>2020-07-11T08:20:56.595Z</time>
      </trkpt>
      <trkpt lat="44.11332" lon="5.3973">
        <ele>773</ele>
        <time>2020-07-11T08:20:57.596Z</time>
      </trkpt>
      <trkpt lat="44.11336" lon="5.39729">
        <ele>774</ele>
        <time>2020-07-11T08:20:58.596Z</time>
      </trkpt>
      <trkpt lat="44.1134" lon="5.39729">
        <ele>774</ele>
        <time>2020-07-11T08:20:59.596Z</time>
      </trkpt>
      <trkpt lat="44.11343" lon="5.39729">
        <ele>775</ele>
        <time>2020-07-11T08:21:00.596Z</time>
      </trkpt>
      <trkpt lat="44.11347" lon="5.39729">
        <ele>776</ele>
        <time>2020-07-11T08:21:01.595Z</time>
      </trkpt>
      <trkpt lat="44.1135" lon="5.3973">
        <ele>776</ele>
        <time>2020-07-11T08:21:02.596Z</time>
      </trkpt>
      <trkpt lat="44.11354" lon="5.3973">
        <ele>777</ele>
        <time>2020-07-11T08:21:03.596Z</time>
      </trkpt>
      <trkpt lat="44.11357" lon="5.39731">
        <ele>778</ele>
        <time>2020-07-11T08:21:04.596Z</time>
      </trkpt>
      <trkpt lat="44.11361" lon="5.39731">
        <ele>778</ele>
        <time>2020-07-11T08:21:05.596Z</time>
      </trkpt>
      <trkpt lat="44.11365" lon="5.39732">
        <ele>779</ele>
        <time>2020-07-11T08:21:06.596Z</time>
      </trkpt>
      <trkpt lat="44.11367" lon="5.39732">
        <ele>779</ele>
        <time>2020-07-11T08:21:07.595Z</time>
      </trkpt>
      <trkpt lat="44.11372" lon="5.39732">
        <ele>780</ele>
        <time>2020-07-11T08:21:08.595Z</time>
      </trkpt>
      <trkpt lat="44.11375" lon="5.39732">
        <ele>780</ele>
        <time>2020-07-11T08:21:09.595Z</time>
      </trkpt>
      <trkpt lat="44.11378" lon="5.39732">
        <ele>781</ele>
        <time>2020-07-11T08:21:10.596Z</time>
      </trkpt>
      <trkpt lat="44.11382" lon="5.39732">
        <ele>781</ele>
        <time>2020-07-11T08:21:11.596Z</time>
      </trkpt>
      <trkpt lat="44.11385" lon="5.39732">
        <ele>781</ele>
        <time>2020-07-11T08:21:12.596Z</time>
      </trkpt>
      <trkpt lat="44.11389" lon="5.39731">
        <ele>781</ele>
        <time>2020-07-11T08:21:13.595Z</time>
      </trkpt>
      <trkpt lat="44.11393" lon="5.3973">
        <ele>781</ele>
        <time>2020-07-11T08:21:14.596Z</time>
      </trkpt>
      <trkpt lat="44.11396" lon="5.39729">
        <ele>781</ele>
        <time>2020-07-11T08:21:15.596Z</time>
      </trkpt>
      <trkpt lat="44.11399" lon="5.39728">
        <ele>781</ele>
        <time>2020-07-11T08:21:16.596Z</time>
      </trkpt>
      <trkpt lat="44.11404" lon="5.39726">
        <ele>781</ele>
        <time>2020-07-11T08:21:17.596Z</time>
      </trkpt>
      <trkpt lat="44.11407" lon="5.39725">
        <ele>781</ele>
        <time>2020-07-11T08:21:18.596Z</time>
      </trkpt>
      <trkpt lat="44.1141" lon="5.39724">
        <ele>781</ele>
        <time>2020-07-11T08:21:19.596Z</time>
      </trkpt>
      <trkpt lat="44.11414" lon="5.39722">
        <ele>781</ele>
        <time>2020-07-11T08:21:20.596Z</time>
      </trkpt>
      <trkpt lat="44.11417" lon="5.3972">
        <ele>780</ele>
        <time>2020-07-11T08:21:21.596Z</time>
      </trkpt>
      <trkpt lat="44.11421" lon="5.39718">
        <ele>780</ele>
        <time>2020-07-11T08:21:22.596Z</time>
      </trkpt>
      <trkpt lat="44.11425" lon="5.39717">
        <ele>780</ele>
        <time>2020-07-11T08:21:23.596Z</time>
      </trkpt>
      <trkpt lat="44.11429" lon="5.39715">
        <ele>780</ele>
        <time>2020-07-11T08:21:24.596Z</time>
      </trkpt>
      <trkpt lat="44.11432" lon="5.39713">
        <ele>780</ele>
        <time>2020-07-11T08:21:25.596Z</time>
      </trkpt>
      <trkpt lat="44.11436" lon="5.3971">
        <ele>781</ele>
        <time>2020-07-11T08:21:26.596Z</time>
      </trkpt>
      <trkpt lat="44.11438" lon="5.39708">
        <ele>780</ele>
        <time>2020-07-11T08:21:27.596Z</time>
      </trkpt>
      <trkpt lat="44.1144" lon="5.39705">
        <ele>781</ele>
        <time>2020-07-11T08:21:28.596Z</time>
      </trkpt>
      <trkpt lat="44.11443" lon="5.39701">
        <ele>781</ele>
        <time>2020-07-11T08:21:29.596Z</time>
      </trkpt>
      <trkpt lat="44.11444" lon="5.39696">
        <ele>781</ele>
        <time>2020-07-11T08:21:30.596Z</time>
      </trkpt>
      <trkpt lat="44.11446" lon="5.39691">
        <ele>781</ele>
        <time>2020-07-11T08:21:31.596Z</time>
      </trkpt>
      <trkpt lat="44.11446" lon="5.39686">
        <ele>781</ele>
        <time>2020-07-11T08:21:32.595Z</time>
      </trkpt>
      <trkpt lat="44.11446" lon="5.39682">
        <ele>781</ele>
        <time>2020-07-11T08:21:33.596Z</time>
      </trkpt>
      <trkpt lat="44.11446" lon="5.39677">
        <ele>781</ele>
        <time>2020-07-11T08:21:34.596Z</time>
      </trkpt>
      <trkpt lat="44.11444" lon="5.39671">
        <ele>781</ele>
        <time>2020-07-11T08:21:35.596Z</time>
      </trkpt>
      <trkpt lat="44.11443" lon="5.39666">
        <ele>781</ele>
        <time>2020-07-11T08:21:36.595Z</time>
      </trkpt>
      <trkpt lat="44.11442" lon="5.39662">
        <ele>781</ele>
        <time>2020-07-11T08:21:37.596Z</time>
      </trkpt>
      <trkpt lat="44.1144" lon="5.39657">
        <ele>781</ele>
        <time>2020-07-11T08:21:38.595Z</time>
      </trkpt>
      <trkpt lat="44.11438" lon="5.39651">
        <ele>782</ele>
        <time>2020-07-11T08:21:39.596Z</time>
      </trkpt>
      <trkpt lat="44.11436" lon="5.39647">
        <ele>782</ele>
        <time>2020-07-11T08:21:40.596Z</time>
      </trkpt>
      <trkpt lat="44.11434" lon="5.39641">
        <ele>782</ele>
        <time>2020-07-11T08:21:41.596Z</time>
      </trkpt>
      <trkpt lat="44.11432" lon="5.39637">
        <ele>783</ele>
        <time>2020-07-11T08:21:42.596Z</time>
      </trkpt>
      <trkpt lat="44.1143" lon="5.39632">
        <ele>783</ele>
        <time>2020-07-11T08:21:43.596Z</time>
      </trkpt>
      <trkpt lat="44.11428" lon="5.39627">
        <ele>783</ele>
        <time>2020-07-11T08:21:44.596Z</time>
      </trkpt>
      <trkpt lat="44.11426" lon="5.39622">
        <ele>783</ele>
        <time>2020-07-11T08:21:45.596Z</time>
      </trkpt>
      <trkpt lat="44.11425" lon="5.39617">
        <ele>784</ele>
        <time>2020-07-11T08:21:46.595Z</time>
      </trkpt>
      <trkpt lat="44.11423" lon="5.39612">
        <ele>784</ele>
        <time>2020-07-11T08:21:47.596Z</time>
      </trkpt>
      <trkpt lat="44.1142" lon="5.39606">
        <ele>784</ele>
        <time>2020-07-11T08:21:48.596Z</time>
      </trkpt>
      <trkpt lat="44.11419" lon="5.39602">
        <ele>785</ele>
        <time>2020-07-11T08:21:49.596Z</time>
      </trkpt>
      <trkpt lat="44.11416" lon="5.39596">
        <ele>785</ele>
        <time>2020-07-11T08:21:50.596Z</time>
      </trkpt>
      <trkpt lat="44.11415" lon="5.39592">
        <ele>785</ele>
        <time>2020-07-11T08:21:51.596Z</time>
      </trkpt>
      <trkpt lat="44.11413" lon="5.39587">
        <ele>785</ele>
        <time>2020-07-11T08:21:52.595Z</time>
      </trkpt>
      <trkpt lat="44.11411" lon="5.39582">
        <ele>785</ele>
        <time>2020-07-11T08:21:53.596Z</time>
      </trkpt>
      <trkpt lat="44.11409" lon="5.39577">
        <ele>785</ele>
        <time>2020-07-11T08:21:54.596Z</time>
      </trkpt>
      <trkpt lat="44.11407" lon="5.39572">
        <ele>785</ele>
        <time>2020-07-11T08:21:55.596Z</time>
      </trkpt>
      <trkpt lat="44.11405" lon="5.39567">
        <ele>786</ele>
        <time>2020-07-11T08:21:56.596Z</time>
      </trkpt>
      <trkpt lat="44.11403" lon="5.39562">
        <ele>786</ele>
        <time>2020-07-11T08:21:57.596Z</time>
      </trkpt>
      <trkpt lat="44.11401" lon="5.39558">
        <ele>786</ele>
        <time>2020-07-11T08:21:58.595Z</time>
      </trkpt>
      <trkpt lat="44.114" lon="5.39553">
        <ele>786</ele>
        <time>2020-07-11T08:21:59.596Z</time>
      </trkpt>
      <trkpt lat="44.11398" lon="5.39548">
        <ele>786</ele>
        <time>2020-07-11T08:22:00.595Z</time>
      </trkpt>
      <trkpt lat="44.11396" lon="5.39543">
        <ele>787</ele>
        <time>2020-07-11T08:22:01.596Z</time>
      </trkpt>
      <trkpt lat="44.11394" lon="5.39538">
        <ele>788</ele>
        <time>2020-07-11T08:22:02.596Z</time>
      </trkpt>
      <trkpt lat="44.11392" lon="5.39533">
        <ele>788</ele>
        <time>2020-07-11T08:22:03.596Z</time>
      </trkpt>
      <trkpt lat="44.1139" lon="5.39528">
        <ele>788</ele>
        <time>2020-07-11T08:22:04.595Z</time>
      </trkpt>
      <trkpt lat="44.11388" lon="5.39523">
        <ele>788</ele>
        <time>2020-07-11T08:22:05.596Z</time>
      </trkpt>
      <trkpt lat="44.11385" lon="5.39519">
        <ele>788</ele>
        <time>2020-07-11T08:22:06.596Z</time>
      </trkpt>
      <trkpt lat="44.11383" lon="5.39515">
        <ele>788</ele>
        <time>2020-07-11T08:22:07.596Z</time>
      </trkpt>
      <trkpt lat="44.11381" lon="5.3951">
        <ele>789</ele>
        <time>2020-07-11T08:22:08.596Z</time>
      </trkpt>
      <trkpt lat="44.11378" lon="5.39506">
        <ele>789</ele>
        <time>2020-07-11T08:22:09.596Z</time>
      </trkpt>
      <trkpt lat="44.11376" lon="5.39502">
        <ele>789</ele>
        <time>2020-07-11T08:22:10.595Z</time>
      </trkpt>
      <trkpt lat="44.11373" lon="5.39498">
        <ele>790</ele>
        <time>2020-07-11T08:22:11.596Z</time>
      </trkpt>
      <trkpt lat="44.1137" lon="5.39494">
        <ele>790</ele>
        <time>2020-07-11T08:22:12.596Z</time>
      </trkpt>
      <trkpt lat="44.11368" lon="5.39491">
        <ele>791</ele>
        <time>2020-07-11T08:22:13.596Z</time>
      </trkpt>
      <trkpt lat="44.11365" lon="5.39487">
        <ele>791</ele>
        <time>2020-07-11T08:22:14.595Z</time>
      </trkpt>
      <trkpt lat="44.11362" lon="5.39483">
        <ele>791</ele>
        <time>2020-07-11T08:22:15.596Z</time>
      </trkpt>
      <trkpt lat="44.11359" lon="5.3948">
        <ele>791</ele>
        <time>2020-07-11T08:22:16.596Z</time>
      </trkpt>
      <trkpt lat="44.11356" lon="5.39477">
        <ele>792</ele>
        <time>2020-07-11T08:22:17.596Z</time>
      </trkpt>
      <trkpt lat="44.11353" lon="5.39474">
        <ele>792</ele>
        <time>2020-07-11T08:22:18.596Z</time>
      </trkpt>
      <trkpt lat="44.1135" lon="5.39471">
        <ele>792</ele>
        <time>2020-07-11T08:22:19.596Z</time>
      </trkpt>
      <trkpt lat="44.11345" lon="5.39467">
        <ele>793</ele>
        <time>2020-07-11T08:22:20.596Z</time>
      </trkpt>
      <trkpt lat="44.11342" lon="5.39465">
        <ele>793</ele>
        <time>2020-07-11T08:22:21.596Z</time>
      </trkpt>
      <trkpt lat="44.11339" lon="5.39462">
        <ele>793</ele>
        <time>2020-07-11T08:22:22.596Z</time>
      </trkpt>
      <trkpt lat="44.11336" lon="5.3946">
        <ele>793</ele>
        <time>2020-07-11T08:22:23.596Z</time>
      </trkpt>
      <trkpt lat="44.11332" lon="5.39457">
        <ele>794</ele>
        <time>2020-07-11T08:22:24.596Z</time>
      </trkpt>
      <trkpt lat="44.11329" lon="5.39455">
        <ele>794</ele>
        <time>2020-07-11T08:22:25.596Z</time>
      </trkpt>
      <trkpt lat="44.11325" lon="5.39452">
        <ele>794</ele>
        <time>2020-07-11T08:22:26.596Z</time>
      </trkpt>
      <trkpt lat="44.11321" lon="5.3945">
        <ele>794</ele>
        <time>2020-07-11T08:22:27.596Z</time>
      </trkpt>
      <trkpt lat="44.11317" lon="5.39448">
        <ele>794</ele>
        <time>2020-07-11T08:22:28.596Z</time>
      </trkpt>
      <trkpt lat="44.11314" lon="5.39446">
        <ele>795</ele>
        <time>2020-07-11T08:22:29.596Z</time>
      </trkpt>
      <trkpt lat="44.1131" lon="5.39444">
        <ele>795</ele>
        <time>2020-07-11T08:22:30.596Z</time>
      </trkpt>
      <trkpt lat="44.11306" lon="5.39442">
        <ele>796</ele>
        <time>2020-07-11T08:22:31.596Z</time>
      </trkpt>
      <trkpt lat="44.11302" lon="5.39439">
        <ele>796</ele>
        <time>2020-07-11T08:22:32.595Z</time>
      </trkpt>
      <trkpt lat="44.11298" lon="5.39437">
        <ele>796</ele>
        <time>2020-07-11T08:22:33.596Z</time>
      </trkpt>
      <trkpt lat="44.11294" lon="5.39435">
        <ele>796</ele>
        <time>2020-07-11T08:22:34.596Z</time>
      </trkpt>
      <trkpt lat="44.1129" lon="5.39432">
        <ele>796</ele>
        <time>2020-07-11T08:22:35.596Z</time>
      </trkpt>
      <trkpt lat="44.11287" lon="5.3943">
        <ele>796</ele>
        <time>2020-07-11T08:22:36.596Z</time>
      </trkpt>
      <trkpt lat="44.11283" lon="5.39428">
        <ele>797</ele>
        <time>2020-07-11T08:22:37.596Z</time>
      </trkpt>
      <trkpt lat="44.11279" lon="5.39426">
        <ele>796</ele>
        <time>2020-07-11T08:22:38.596Z</time>
      </trkpt>
      <trkpt lat="44.11276" lon="5.39424">
        <ele>796</ele>
        <time>2020-07-11T08:22:39.595Z</time>
      </trkpt>
      <trkpt lat="44.11272" lon="5.39422">
        <ele>796</ele>
        <time>2020-07-11T08:22:40.596Z</time>
      </trkpt>
      <trkpt lat="44.11268" lon="5.39419">
        <ele>796</ele>
        <time>2020-07-11T08:22:41.596Z</time>
      </trkpt>
      <trkpt lat="44.11264" lon="5.39417">
        <ele>796</ele>
        <time>2020-07-11T08:22:42.596Z</time>
      </trkpt>
      <trkpt lat="44.11261" lon="5.39415">
        <ele>796</ele>
        <time>2020-07-11T08:22:43.595Z</time>
      </trkpt>
      <trkpt lat="44.11256" lon="5.39413">
        <ele>796</ele>
        <time>2020-07-11T08:22:44.596Z</time>
      </trkpt>
      <trkpt lat="44.11253" lon="5.39411">
        <ele>796</ele>
        <time>2020-07-11T08:22:45.596Z</time>
      </trkpt>
      <trkpt lat="44.1125" lon="5.39409">
        <ele>796</ele>
        <time>2020-07-11T08:22:46.596Z</time>
      </trkpt>
      <trkpt lat="44.11246" lon="5.39407">
        <ele>796</ele>
        <time>2020-07-11T08:22:47.596Z</time>
      </trkpt>
      <trkpt lat="44.11242" lon="5.39405">
        <ele>797</ele>
        <time>2020-07-11T08:22:48.596Z</time>
      </trkpt>
      <trkpt lat="44.11239" lon="5.39403">
        <ele>797</ele>
        <time>2020-07-11T08:22:49.595Z</time>
      </trkpt>
      <trkpt lat="44.11235" lon="5.39401">
        <ele>797</ele>
        <time>2020-07-11T08:22:50.596Z</time>
      </trkpt>
      <trkpt lat="44.11231" lon="5.39399">
        <ele>797</ele>
        <time>2020-07-11T08:22:51.596Z</time>
      </trkpt>
      <trkpt lat="44.11228" lon="5.39396">
        <ele>797</ele>
        <time>2020-07-11T08:22:52.596Z</time>
      </trkpt>
      <trkpt lat="44.11223" lon="5.39394">
        <ele>798</ele>
        <time>2020-07-11T08:22:53.596Z</time>
      </trkpt>
      <trkpt lat="44.11219" lon="5.39393">
        <ele>798</ele>
        <time>2020-07-11T08:22:54.596Z</time>
      </trkpt>
      <trkpt lat="44.11216" lon="5.39391">
        <ele>798</ele>
        <time>2020-07-11T08:22:55.596Z</time>
      </trkpt>
      <trkpt lat="44.11212" lon="5.39389">
        <ele>799</ele>
        <time>2020-07-11T08:22:56.595Z</time>
      </trkpt>
      <trkpt lat="44.11208" lon="5.39388">
        <ele>799</ele>
        <time>2020-07-11T08:22:57.596Z</time>
      </trkpt>
      <trkpt lat="44.11205" lon="5.39386">
        <ele>799</ele>
        <time>2020-07-11T08:22:58.596Z</time>
      </trkpt>
      <trkpt lat="44.11201" lon="5.39385">
        <ele>799</ele>
        <time>2020-07-11T08:22:59.596Z</time>
      </trkpt>
      <trkpt lat="44.11197" lon="5.39383">
        <ele>799</ele>
        <time>2020-07-11T08:23:00.595Z</time>
      </trkpt>
      <trkpt lat="44.11193" lon="5.3938">
        <ele>799</ele>
        <time>2020-07-11T08:23:01.595Z</time>
      </trkpt>
      <trkpt lat="44.11189" lon="5.39377">
        <ele>800</ele>
        <time>2020-07-11T08:23:02.596Z</time>
      </trkpt>
      <trkpt lat="44.11187" lon="5.39374">
        <ele>800</ele>
        <time>2020-07-11T08:23:03.595Z</time>
      </trkpt>
      <trkpt lat="44.11184" lon="5.39369">
        <ele>801</ele>
        <time>2020-07-11T08:23:04.595Z</time>
      </trkpt>
      <trkpt lat="44.11182" lon="5.39364">
        <ele>801</ele>
        <time>2020-07-11T08:23:05.596Z</time>
      </trkpt>
      <trkpt lat="44.1118" lon="5.39359">
        <ele>801</ele>
        <time>2020-07-11T08:23:06.596Z</time>
      </trkpt>
      <trkpt lat="44.1118" lon="5.39353">
        <ele>800</ele>
        <time>2020-07-11T08:23:07.596Z</time>
      </trkpt>
      <trkpt lat="44.1118" lon="5.39348">
        <ele>800</ele>
        <time>2020-07-11T08:23:08.596Z</time>
      </trkpt>
      <trkpt lat="44.11181" lon="5.39342">
        <ele>800</ele>
        <time>2020-07-11T08:23:09.596Z</time>
      </trkpt>
      <trkpt lat="44.11183" lon="5.39337">
        <ele>801</ele>
        <time>2020-07-11T08:23:10.596Z</time>
      </trkpt>
      <trkpt lat="44.11186" lon="5.39331">
        <ele>801</ele>
        <time>2020-07-11T08:23:11.596Z</time>
      </trkpt>
      <trkpt lat="44.11188" lon="5.39327">
        <ele>801</ele>
        <time>2020-07-11T08:23:12.596Z</time>
      </trkpt>
      <trkpt lat="44.1119" lon="5.39323">
        <ele>802</ele>
        <time>2020-07-11T08:23:13.596Z</time>
      </trkpt>
      <trkpt lat="44.11193" lon="5.39318">
        <ele>803</ele>
        <time>2020-07-11T08:23:14.596Z</time>
      </trkpt>
      <trkpt lat="44.11196" lon="5.39315">
        <ele>803</ele>
        <time>2020-07-11T08:23:15.596Z</time>
      </trkpt>
      <trkpt lat="44.11198" lon="5.3931">
        <ele>803</ele>
        <time>2020-07-11T08:23:16.596Z</time>
      </trkpt>
      <trkpt lat="44.11201" lon="5.39306">
        <ele>804</ele>
        <time>2020-07-11T08:23:17.595Z</time>
      </trkpt>
      <trkpt lat="44.11204" lon="5.39301">
        <ele>804</ele>
        <time>2020-07-11T08:23:18.596Z</time>
      </trkpt>
      <trkpt lat="44.11207" lon="5.39298">
        <ele>804</ele>
        <time>2020-07-11T08:23:19.596Z</time>
      </trkpt>
      <trkpt lat="44.1121" lon="5.39293">
        <ele>804</ele>
        <time>2020-07-11T08:23:20.596Z</time>
      </trkpt>
      <trkpt lat="44.11212" lon="5.3929">
        <ele>804</ele>
        <time>2020-07-11T08:23:21.596Z</time>
      </trkpt>
      <trkpt lat="44.11213" lon="5.39285">
        <ele>805</ele>
        <time>2020-07-11T08:23:22.596Z</time>
      </trkpt>
      <trkpt lat="44.11215" lon="5.39279">
        <ele>805</ele>
        <time>2020-07-11T08:23:23.596Z</time>
      </trkpt>
      <trkpt lat="44.11215" lon="5.39274">
        <ele>805</ele>
        <time>2020-07-11T08:23:24.596Z</time>
      </trkpt>
      <trkpt lat="44.11215" lon="5.3927">
        <ele>806</ele>
        <time>2020-07-11T08:23:25.596Z</time>
      </trkpt>
      <trkpt lat="44.11214" lon="5.39265">
        <ele>806</ele>
        <time>2020-07-11T08:23:26.596Z</time>
      </trkpt>
      <trkpt lat="44.11212" lon="5.3926">
        <ele>806</ele>
        <time>2020-07-11T08:23:27.596Z</time>
      </trkpt>
      <trkpt lat="44.1121" lon="5.39257">
        <ele>806</ele>
        <time>2020-07-11T08:23:28.595Z</time>
      </trkpt>
      <trkpt lat="44.11207" lon="5.39254">
        <ele>807</ele>
        <time>2020-07-11T08:23:29.596Z</time>
      </trkpt>
      <trkpt lat="44.11204" lon="5.39251">
        <ele>807</ele>
        <time>2020-07-11T08:23:30.596Z</time>
      </trkpt>
      <trkpt lat="44.11201" lon="5.39249">
        <ele>807</ele>
        <time>2020-07-11T08:23:31.596Z</time>
      </trkpt>
      <trkpt lat="44.11198" lon="5.39247">
        <ele>808</ele>
        <time>2020-07-11T08:23:32.596Z</time>
      </trkpt>
      <trkpt lat="44.11194" lon="5.39246">
        <ele>808</ele>
        <time>2020-07-11T08:23:33.596Z</time>
      </trkpt>
      <trkpt lat="44.11189" lon="5.39245">
        <ele>808</ele>
        <time>2020-07-11T08:23:34.596Z</time>
      </trkpt>
      <trkpt lat="44.11186" lon="5.39244">
        <ele>809</ele>
        <time>2020-07-11T08:23:35.595Z</time>
      </trkpt>
      <trkpt lat="44.11182" lon="5.39242">
        <ele>809</ele>
        <time>2020-07-11T08:23:36.596Z</time>
      </trkpt>
      <trkpt lat="44.11178" lon="5.39241">
        <ele>810</ele>
        <time>2020-07-11T08:23:37.595Z</time>
      </trkpt>
      <trkpt lat="44.11175" lon="5.3924">
        <ele>810</ele>
        <time>2020-07-11T08:23:38.596Z</time>
      </trkpt>
      <trkpt lat="44.11171" lon="5.39238">
        <ele>811</ele>
        <time>2020-07-11T08:23:39.596Z</time>
      </trkpt>
      <trkpt lat="44.11167" lon="5.39237">
        <ele>811</ele>
        <time>2020-07-11T08:23:40.596Z</time>
      </trkpt>
      <trkpt lat="44.11164" lon="5.39236">
        <ele>811</ele>
        <time>2020-07-11T08:23:41.596Z</time>
      </trkpt>
      <trkpt lat="44.1116" lon="5.39234">
        <ele>811</ele>
        <time>2020-07-11T08:23:42.596Z</time>
      </trkpt>
      <trkpt lat="44.11156" lon="5.39232">
        <ele>811</ele>
        <time>2020-07-11T08:23:43.596Z</time>
      </trkpt>
      <trkpt lat="44.11152" lon="5.39231">
        <ele>811</ele>
        <time>2020-07-11T08:23:44.596Z</time>
      </trkpt>
      <trkpt lat="44.11148" lon="5.39229">
        <ele>811</ele>
        <time>2020-07-11T08:23:45.595Z</time>
      </trkpt>
      <trkpt lat="44.11144" lon="5.39227">
        <ele>812</ele>
        <time>2020-07-11T08:23:46.596Z</time>
      </trkpt>
      <trkpt lat="44.11141" lon="5.39226">
        <ele>812</ele>
        <time>2020-07-11T08:23:47.596Z</time>
      </trkpt>
      <trkpt lat="44.11137" lon="5.39224">
        <ele>813</ele>
        <time>2020-07-11T08:23:48.596Z</time>
      </trkpt>
      <trkpt lat="44.11134" lon="5.39222">
        <ele>813</ele>
        <time>2020-07-11T08:23:49.596Z</time>
      </trkpt>
      <trkpt lat="44.1113" lon="5.3922">
        <ele>813</ele>
        <time>2020-07-11T08:23:50.596Z</time>
      </trkpt>
      <trkpt lat="44.11126" lon="5.39218">
        <ele>813</ele>
        <time>2020-07-11T08:23:51.596Z</time>
      </trkpt>
      <trkpt lat="44.11123" lon="5.39216">
        <ele>814</ele>
        <time>2020-07-11T08:23:52.595Z</time>
      </trkpt>
      <trkpt lat="44.11119" lon="5.39214">
        <ele>814</ele>
        <time>2020-07-11T08:23:53.596Z</time>
      </trkpt>
      <trkpt lat="44.11115" lon="5.39211">
        <ele>814</ele>
        <time>2020-07-11T08:23:54.596Z</time>
      </trkpt>
      <trkpt lat="44.11112" lon="5.39209">
        <ele>815</ele>
        <time>2020-07-11T08:23:55.596Z</time>
      </trkpt>
      <trkpt lat="44.11108" lon="5.39207">
        <ele>815</ele>
        <time>2020-07-11T08:23:56.595Z</time>
      </trkpt>
      <trkpt lat="44.11104" lon="5.39204">
        <ele>815</ele>
        <time>2020-07-11T08:23:57.596Z</time>
      </trkpt>
      <trkpt lat="44.11101" lon="5.39202">
        <ele>815</ele>
        <time>2020-07-11T08:23:58.595Z</time>
      </trkpt>
      <trkpt lat="44.11097" lon="5.39199">
        <ele>815</ele>
        <time>2020-07-11T08:23:59.596Z</time>
      </trkpt>
      <trkpt lat="44.11093" lon="5.39197">
        <ele>815</ele>
        <time>2020-07-11T08:24:00.595Z</time>
      </trkpt>
      <trkpt lat="44.11089" lon="5.39194">
        <ele>815</ele>
        <time>2020-07-11T08:24:01.596Z</time>
      </trkpt>
      <trkpt lat="44.11086" lon="5.39192">
        <ele>816</ele>
        <time>2020-07-11T08:24:02.596Z</time>
      </trkpt>
      <trkpt lat="44.11082" lon="5.3919">
        <ele>816</ele>
        <time>2020-07-11T08:24:03.596Z</time>
      </trkpt>
      <trkpt lat="44.11079" lon="5.39188">
        <ele>816</ele>
        <time>2020-07-11T08:24:04.596Z</time>
      </trkpt>
      <trkpt lat="44.11075" lon="5.39186">
        <ele>817</ele>
        <time>2020-07-11T08:24:05.596Z</time>
      </trkpt>
      <trkpt lat="44.11072" lon="5.39183">
        <ele>817</ele>
        <time>2020-07-11T08:24:06.596Z</time>
      </trkpt>
      <trkpt lat="44.11068" lon="5.39181">
        <ele>817</ele>
        <time>2020-07-11T08:24:07.596Z</time>
      </trkpt>
      <trkpt lat="44.11065" lon="5.39179">
        <ele>818</ele>
        <time>2020-07-11T08:24:08.596Z</time>
      </trkpt>
      <trkpt lat="44.11061" lon="5.39176">
        <ele>818</ele>
        <time>2020-07-11T08:24:09.595Z</time>
      </trkpt>
      <trkpt lat="44.11058" lon="5.39174">
        <ele>818</ele>
        <time>2020-07-11T08:24:10.596Z</time>
      </trkpt>
      <trkpt lat="44.11054" lon="5.39172">
        <ele>819</ele>
        <time>2020-07-11T08:24:11.596Z</time>
      </trkpt>
      <trkpt lat="44.11051" lon="5.39169">
        <ele>819</ele>
        <time>2020-07-11T08:24:12.596Z</time>
      </trkpt>
      <trkpt lat="44.11048" lon="5.39166">
        <ele>819</ele>
        <time>2020-07-11T08:24:13.596Z</time>
      </trkpt>
      <trkpt lat="44.11045" lon="5.39163">
        <ele>819</ele>
        <time>2020-07-11T08:24:14.595Z</time>
      </trkpt>
      <trkpt lat="44.11041" lon="5.3916">
        <ele>819</ele>
        <time>2020-07-11T08:24:15.596Z</time>
      </trkpt>
      <trkpt lat="44.11038" lon="5.39158">
        <ele>819</ele>
        <time>2020-07-11T08:24:16.596Z</time>
      </trkpt>
      <trkpt lat="44.11035" lon="5.39155">
        <ele>819</ele>
        <time>2020-07-11T08:24:17.596Z</time>
      </trkpt>
      <trkpt lat="44.11032" lon="5.39152">
        <ele>820</ele>
        <time>2020-07-11T08:24:18.595Z</time>
      </trkpt>
      <trkpt lat="44.11028" lon="5.39149">
        <ele>820</ele>
        <time>2020-07-11T08:24:19.595Z</time>
      </trkpt>
      <trkpt lat="44.11025" lon="5.39146">
        <ele>821</ele>
        <time>2020-07-11T08:24:20.595Z</time>
      </trkpt>
      <trkpt lat="44.11022" lon="5.39143">
        <ele>821</ele>
        <time>2020-07-11T08:24:21.596Z</time>
      </trkpt>
      <trkpt lat="44.11018" lon="5.3914">
        <ele>822</ele>
        <time>2020-07-11T08:24:22.596Z</time>
      </trkpt>
      <trkpt lat="44.11015" lon="5.39137">
        <ele>822</ele>
        <time>2020-07-11T08:24:23.596Z</time>
      </trkpt>
      <trkpt lat="44.11012" lon="5.39134">
        <ele>823</ele>
        <time>2020-07-11T08:24:24.596Z</time>
      </trkpt>
      <trkpt lat="44.11009" lon="5.39131">
        <ele>823</ele>
        <time>2020-07-11T08:24:25.596Z</time>
      </trkpt>
      <trkpt lat="44.11005" lon="5.39128">
        <ele>823</ele>
        <time>2020-07-11T08:24:26.595Z</time>
      </trkpt>
      <trkpt lat="44.11002" lon="5.39126">
        <ele>823</ele>
        <time>2020-07-11T08:24:27.596Z</time>
      </trkpt>
      <trkpt lat="44.10999" lon="5.39123">
        <ele>823</ele>
        <time>2020-07-11T08:24:28.596Z</time>
      </trkpt>
      <trkpt lat="44.10995" lon="5.3912">
        <ele>823</ele>
        <time>2020-07-11T08:24:29.596Z</time>
      </trkpt>
      <trkpt lat="44.10992" lon="5.39117">
        <ele>823</ele>
        <time>2020-07-11T08:24:30.596Z</time>
      </trkpt>
      <trkpt lat="44.10989" lon="5.39113">
        <ele>823</ele>
        <time>2020-07-11T08:24:31.596Z</time>
      </trkpt>
      <trkpt lat="44.10986" lon="5.3911">
        <ele>823</ele>
        <time>2020-07-11T08:24:32.596Z</time>
      </trkpt>
      <trkpt lat="44.10984" lon="5.39106">
        <ele>823</ele>
        <time>2020-07-11T08:24:33.596Z</time>
      </trkpt>
      <trkpt lat="44.10981" lon="5.39102">
        <ele>823</ele>
        <time>2020-07-11T08:24:34.595Z</time>
      </trkpt>
      <trkpt lat="44.10979" lon="5.39097">
        <ele>823</ele>
        <time>2020-07-11T08:24:35.596Z</time>
      </trkpt>
      <trkpt lat="44.10976" lon="5.39093">
        <ele>824</ele>
        <time>2020-07-11T08:24:36.595Z</time>
      </trkpt>
      <trkpt lat="44.10975" lon="5.39088">
        <ele>824</ele>
        <time>2020-07-11T08:24:37.596Z</time>
      </trkpt>
      <trkpt lat="44.10973" lon="5.39082">
        <ele>825</ele>
        <time>2020-07-11T08:24:38.596Z</time>
      </trkpt>
      <trkpt lat="44.10972" lon="5.39077">
        <ele>825</ele>
        <time>2020-07-11T08:24:39.596Z</time>
      </trkpt>
      <trkpt lat="44.10972" lon="5.39071">
        <ele>825</ele>
        <time>2020-07-11T08:24:40.596Z</time>
      </trkpt>
      <trkpt lat="44.10971" lon="5.39066">
        <ele>825</ele>
        <time>2020-07-11T08:24:41.595Z</time>
      </trkpt>
      <trkpt lat="44.10971" lon="5.3906">
        <ele>825</ele>
        <time>2020-07-11T08:24:42.595Z</time>
      </trkpt>
      <trkpt lat="44.10971" lon="5.39054">
        <ele>825</ele>
        <time>2020-07-11T08:24:43.596Z</time>
      </trkpt>
      <trkpt lat="44.10971" lon="5.39049">
        <ele>825</ele>
        <time>2020-07-11T08:24:44.596Z</time>
      </trkpt>
      <trkpt lat="44.10972" lon="5.39043">
        <ele>826</ele>
        <time>2020-07-11T08:24:45.596Z</time>
      </trkpt>
      <trkpt lat="44.10973" lon="5.39037">
        <ele>826</ele>
        <time>2020-07-11T08:24:46.596Z</time>
      </trkpt>
      <trkpt lat="44.10974" lon="5.39031">
        <ele>826</ele>
        <time>2020-07-11T08:24:47.596Z</time>
      </trkpt>
      <trkpt lat="44.10975" lon="5.39025">
        <ele>826</ele>
        <time>2020-07-11T08:24:48.595Z</time>
      </trkpt>
      <trkpt lat="44.10976" lon="5.39019">
        <ele>827</ele>
        <time>2020-07-11T08:24:49.596Z</time>
      </trkpt>
      <trkpt lat="44.10977" lon="5.39013">
        <ele>827</ele>
        <time>2020-07-11T08:24:50.596Z</time>
      </trkpt>
      <trkpt lat="44.10978" lon="5.39007">
        <ele>827</ele>
        <time>2020-07-11T08:24:51.596Z</time>
      </trkpt>
      <trkpt lat="44.10979" lon="5.39002">
        <ele>827</ele>
        <time>2020-07-11T08:24:52.596Z</time>
      </trkpt>
      <trkpt lat="44.1098" lon="5.38996">
        <ele>828</ele>
        <time>2020-07-11T08:24:53.596Z</time>
      </trkpt>
      <trkpt lat="44.10981" lon="5.38991">
        <ele>828</ele>
        <time>2020-07-11T08:24:54.596Z</time>
      </trkpt>
      <trkpt lat="44.10983" lon="5.38987">
        <ele>828</ele>
        <time>2020-07-11T08:24:55.596Z</time>
      </trkpt>
      <trkpt lat="44.10985" lon="5.38982">
        <ele>828</ele>
        <time>2020-07-11T08:24:56.596Z</time>
      </trkpt>
      <trkpt lat="44.10987" lon="5.38977">
        <ele>828</ele>
        <time>2020-07-11T08:24:57.595Z</time>
      </trkpt>
      <trkpt lat="44.10989" lon="5.38973">
        <ele>828</ele>
        <time>2020-07-11T08:24:58.596Z</time>
      </trkpt>
      <trkpt lat="44.10991" lon="5.38968">
        <ele>828</ele>
        <time>2020-07-11T08:24:59.596Z</time>
      </trkpt>
      <trkpt lat="44.10993" lon="5.38963">
        <ele>828</ele>
        <time>2020-07-11T08:25:00.596Z</time>
      </trkpt>
      <trkpt lat="44.10996" lon="5.38958">
        <ele>828</ele>
        <time>2020-07-11T08:25:01.596Z</time>
      </trkpt>
      <trkpt lat="44.10998" lon="5.38954">
        <ele>828</ele>
        <time>2020-07-11T08:25:02.596Z</time>
      </trkpt>
      <trkpt lat="44.11001" lon="5.38949">
        <ele>828</ele>
        <time>2020-07-11T08:25:03.596Z</time>
      </trkpt>
      <trkpt lat="44.11004" lon="5.38944">
        <ele>828</ele>
        <time>2020-07-11T08:25:04.596Z</time>
      </trkpt>
      <trkpt lat="44.11007" lon="5.3894">
        <ele>828</ele>
        <time>2020-07-11T08:25:05.596Z</time>
      </trkpt>
      <trkpt lat="44.11009" lon="5.38936">
        <ele>828</ele>
        <time>2020-07-11T08:25:06.596Z</time>
      </trkpt>
      <trkpt lat="44.11012" lon="5.38932">
        <ele>828</ele>
        <time>2020-07-11T08:25:07.596Z</time>
      </trkpt>
      <trkpt lat="44.11015" lon="5.38928">
        <ele>828</ele>
        <time>2020-07-11T08:25:08.596Z</time>
      </trkpt>
      <trkpt lat="44.11018" lon="5.38924">
        <ele>828</ele>
        <time>2020-07-11T08:25:09.596Z</time>
      </trkpt>
      <trkpt lat="44.11022" lon="5.3892">
        <ele>829</ele>
        <time>2020-07-11T08:25:10.595Z</time>
      </trkpt>
      <trkpt lat="44.11025" lon="5.38917">
        <ele>829</ele>
        <time>2020-07-11T08:25:11.595Z</time>
      </trkpt>
      <trkpt lat="44.11028" lon="5.38913">
        <ele>829</ele>
        <time>2020-07-11T08:25:12.596Z</time>
      </trkpt>
      <trkpt lat="44.11031" lon="5.3891">
        <ele>830</ele>
        <time>2020-07-11T08:25:13.596Z</time>
      </trkpt>
      <trkpt lat="44.11035" lon="5.38907">
        <ele>830</ele>
        <time>2020-07-11T08:25:14.596Z</time>
      </trkpt>
      <trkpt lat="44.11038" lon="5.38903">
        <ele>831</ele>
        <time>2020-07-11T08:25:15.596Z</time>
      </trkpt>
      <trkpt lat="44.11042" lon="5.389">
        <ele>830</ele>
        <time>2020-07-11T08:25:16.595Z</time>
      </trkpt>
      <trkpt lat="44.11046" lon="5.38898">
        <ele>830</ele>
        <time>2020-07-11T08:25:17.596Z</time>
      </trkpt>
      <trkpt lat="44.1105" lon="5.38895">
        <ele>830</ele>
        <time>2020-07-11T08:25:18.596Z</time>
      </trkpt>
      <trkpt lat="44.11053" lon="5.38892">
        <ele>831</ele>
        <time>2020-07-11T08:25:19.595Z</time>
      </trkpt>
      <trkpt lat="44.11057" lon="5.3889">
        <ele>831</ele>
        <time>2020-07-11T08:25:20.595Z</time>
      </trkpt>
      <trkpt lat="44.11061" lon="5.38887">
        <ele>831</ele>
        <time>2020-07-11T08:25:21.595Z</time>
      </trkpt>
      <trkpt lat="44.11065" lon="5.38885">
        <ele>831</ele>
        <time>2020-07-11T08:25:22.595Z</time>
      </trkpt>
      <trkpt lat="44.11069" lon="5.38883">
        <ele>831</ele>
        <time>2020-07-11T08:25:23.595Z</time>
      </trkpt>
      <trkpt lat="44.11072" lon="5.38881">
        <ele>832</ele>
        <time>2020-07-11T08:25:24.596Z</time>
      </trkpt>
      <trkpt lat="44.11077" lon="5.3888">
        <ele>832</ele>
        <time>2020-07-11T08:25:25.596Z</time>
      </trkpt>
      <trkpt lat="44.11081" lon="5.38878">
        <ele>832</ele>
        <time>2020-07-11T08:25:26.595Z</time>
      </trkpt>
      <trkpt lat="44.11085" lon="5.38877">
        <ele>832</ele>
        <time>2020-07-11T08:25:27.596Z</time>
      </trkpt>
      <trkpt lat="44.11089" lon="5.38876">
        <ele>833</ele>
        <time>2020-07-11T08:25:28.596Z</time>
      </trkpt>
      <trkpt lat="44.11093" lon="5.38875">
        <ele>833</ele>
        <time>2020-07-11T08:25:29.596Z</time>
      </trkpt>
      <trkpt lat="44.11097" lon="5.38874">
        <ele>833</ele>
        <time>2020-07-11T08:25:30.596Z</time>
      </trkpt>
      <trkpt lat="44.11101" lon="5.38873">
        <ele>834</ele>
        <time>2020-07-11T08:25:31.596Z</time>
      </trkpt>
      <trkpt lat="44.11105" lon="5.38872">
        <ele>834</ele>
        <time>2020-07-11T08:25:32.596Z</time>
      </trkpt>
      <trkpt lat="44.11109" lon="5.38871">
        <ele>834</ele>
        <time>2020-07-11T08:25:33.596Z</time>
      </trkpt>
      <trkpt lat="44.11113" lon="5.38871">
        <ele>835</ele>
        <time>2020-07-11T08:25:34.596Z</time>
      </trkpt>
      <trkpt lat="44.11117" lon="5.38871">
        <ele>835</ele>
        <time>2020-07-11T08:25:35.596Z</time>
      </trkpt>
      <trkpt lat="44.11121" lon="5.3887">
        <ele>835</ele>
        <time>2020-07-11T08:25:36.596Z</time>
      </trkpt>
      <trkpt lat="44.11125" lon="5.3887">
        <ele>835</ele>
        <time>2020-07-11T08:25:37.596Z</time>
      </trkpt>
      <trkpt lat="44.11129" lon="5.3887">
        <ele>835</ele>
        <time>2020-07-11T08:25:38.596Z</time>
      </trkpt>
      <trkpt lat="44.11133" lon="5.38871">
        <ele>835</ele>
        <time>2020-07-11T08:25:39.595Z</time>
      </trkpt>
      <trkpt lat="44.11137" lon="5.38871">
        <ele>836</ele>
        <time>2020-07-11T08:25:40.596Z</time>
      </trkpt>
      <trkpt lat="44.11141" lon="5.38871">
        <ele>836</ele>
        <time>2020-07-11T08:25:41.595Z</time>
      </trkpt>
      <trkpt lat="44.11145" lon="5.38872">
        <ele>836</ele>
        <time>2020-07-11T08:25:42.596Z</time>
      </trkpt>
      <trkpt lat="44.11149" lon="5.38872">
        <ele>836</ele>
        <time>2020-07-11T08:25:43.596Z</time>
      </trkpt>
      <trkpt lat="44.11153" lon="5.38873">
        <ele>837</ele>
        <time>2020-07-11T08:25:44.596Z</time>
      </trkpt>
      <trkpt lat="44.11157" lon="5.38873">
        <ele>837</ele>
        <time>2020-07-11T08:25:45.595Z</time>
      </trkpt>
      <trkpt lat="44.11161" lon="5.38873">
        <ele>837</ele>
        <time>2020-07-11T08:25:46.596Z</time>
      </trkpt>
      <trkpt lat="44.11166" lon="5.38874">
        <ele>837</ele>
        <time>2020-07-11T08:25:47.596Z</time>
      </trkpt>
      <trkpt lat="44.1117" lon="5.38874">
        <ele>837</ele>
        <time>2020-07-11T08:25:48.596Z</time>
      </trkpt>
      <trkpt lat="44.11174" lon="5.38874">
        <ele>837</ele>
        <time>2020-07-11T08:25:49.595Z</time>
      </trkpt>
      <trkpt lat="44.11178" lon="5.38875">
        <ele>837</ele>
        <time>2020-07-11T08:25:50.596Z</time>
      </trkpt>
      <trkpt lat="44.11182" lon="5.38875">
        <ele>837</ele>
        <time>2020-07-11T08:25:51.596Z</time>
      </trkpt>
      <trkpt lat="44.11186" lon="5.38875">
        <ele>837</ele>
        <time>2020-07-11T08:25:52.596Z</time>
      </trkpt>
      <trkpt lat="44.1119" lon="5.38875">
        <ele>837</ele>
        <time>2020-07-11T08:25:53.596Z</time>
      </trkpt>
      <trkpt lat="44.11194" lon="5.38875">
        <ele>837</ele>
        <time>2020-07-11T08:25:54.596Z</time>
      </trkpt>
      <trkpt lat="44.11198" lon="5.38875">
        <ele>837</ele>
        <time>2020-07-11T08:25:55.595Z</time>
      </trkpt>
      <trkpt lat="44.11202" lon="5.38875">
        <ele>838</ele>
        <time>2020-07-11T08:25:56.596Z</time>
      </trkpt>
      <trkpt lat="44.11206" lon="5.38875">
        <ele>838</ele>
        <time>2020-07-11T08:25:57.595Z</time>
      </trkpt>
      <trkpt lat="44.1121" lon="5.38875">
        <ele>838</ele>
        <time>2020-07-11T08:25:58.596Z</time>
      </trkpt>
      <trkpt lat="44.11214" lon="5.38874">
        <ele>838</ele>
        <time>2020-07-11T08:25:59.596Z</time>
      </trkpt>
      <trkpt lat="44.11219" lon="5.38874">
        <ele>838</ele>
        <time>2020-07-11T08:26:00.596Z</time>
      </trkpt>
      <trkpt lat="44.11223" lon="5.38874">
        <ele>838</ele>
        <time>2020-07-11T08:26:01.596Z</time>
      </trkpt>
      <trkpt lat="44.11227" lon="5.38873">
        <ele>838</ele>
        <time>2020-07-11T08:26:02.596Z</time>
      </trkpt>
      <trkpt lat="44.11231" lon="5.38873">
        <ele>838</ele>
        <time>2020-07-11T08:26:03.596Z</time>
      </trkpt>
      <trkpt lat="44.11235" lon="5.38873">
        <ele>839</ele>
        <time>2020-07-11T08:26:04.596Z</time>
      </trkpt>
      <trkpt lat="44.11239" lon="5.38873">
        <ele>839</ele>
        <time>2020-07-11T08:26:05.595Z</time>
      </trkpt>
      <trkpt lat="44.11243" lon="5.38873">
        <ele>839</ele>
        <time>2020-07-11T08:26:06.596Z</time>
      </trkpt>
      <trkpt lat="44.11247" lon="5.38873">
        <ele>839</ele>
        <time>2020-07-11T08:26:07.596Z</time>
      </trkpt>
      <trkpt lat="44.11251" lon="5.38874">
        <ele>840</ele>
        <time>2020-07-11T08:26:08.596Z</time>
      </trkpt>
      <trkpt lat="44.11255" lon="5.38874">
        <ele>840</ele>
        <time>2020-07-11T08:26:09.596Z</time>
      </trkpt>
      <trkpt lat="44.11259" lon="5.38876">
        <ele>840</ele>
        <time>2020-07-11T08:26:10.596Z</time>
      </trkpt>
      <trkpt lat="44.11263" lon="5.38877">
        <ele>840</ele>
        <time>2020-07-11T08:26:11.596Z</time>
      </trkpt>
      <trkpt lat="44.11267" lon="5.38879">
        <ele>840</ele>
        <time>2020-07-11T08:26:12.596Z</time>
      </trkpt>
      <trkpt lat="44.1127" lon="5.38881">
        <ele>840</ele>
        <time>2020-07-11T08:26:13.596Z</time>
      </trkpt>
      <trkpt lat="44.11274" lon="5.38884">
        <ele>840</ele>
        <time>2020-07-11T08:26:14.596Z</time>
      </trkpt>
      <trkpt lat="44.11277" lon="5.38886">
        <ele>840</ele>
        <time>2020-07-11T08:26:15.595Z</time>
      </trkpt>
      <trkpt lat="44.1128" lon="5.38889">
        <ele>841</ele>
        <time>2020-07-11T08:26:16.596Z</time>
      </trkpt>
      <trkpt lat="44.11284" lon="5.38893">
        <ele>841</ele>
        <time>2020-07-11T08:26:17.596Z</time>
      </trkpt>
      <trkpt lat="44.11287" lon="5.38896">
        <ele>841</ele>
        <time>2020-07-11T08:26:18.596Z</time>
      </trkpt>
      <trkpt lat="44.1129" lon="5.38899">
        <ele>841</ele>
        <time>2020-07-11T08:26:19.596Z</time>
      </trkpt>
      <trkpt lat="44.11293" lon="5.38903">
        <ele>841</ele>
        <time>2020-07-11T08:26:20.595Z</time>
      </trkpt>
      <trkpt lat="44.11296" lon="5.38906">
        <ele>841</ele>
        <time>2020-07-11T08:26:21.595Z</time>
      </trkpt>
      <trkpt lat="44.113" lon="5.3891">
        <ele>842</ele>
        <time>2020-07-11T08:26:22.596Z</time>
      </trkpt>
      <trkpt lat="44.11303" lon="5.38913">
        <ele>842</ele>
        <time>2020-07-11T08:26:23.596Z</time>
      </trkpt>
      <trkpt lat="44.11306" lon="5.38917">
        <ele>842</ele>
        <time>2020-07-11T08:26:24.595Z</time>
      </trkpt>
      <trkpt lat="44.11309" lon="5.3892">
        <ele>842</ele>
        <time>2020-07-11T08:26:25.596Z</time>
      </trkpt>
      <trkpt lat="44.11312" lon="5.38923">
        <ele>842</ele>
        <time>2020-07-11T08:26:26.596Z</time>
      </trkpt>
      <trkpt lat="44.11316" lon="5.38926">
        <ele>842</ele>
        <time>2020-07-11T08:26:27.596Z</time>
      </trkpt>
      <trkpt lat="44.11319" lon="5.38929">
        <ele>843</ele>
        <time>2020-07-11T08:26:28.595Z</time>
      </trkpt>
      <trkpt lat="44.11323" lon="5.38932">
        <ele>843</ele>
        <time>2020-07-11T08:26:29.596Z</time>
      </trkpt>
      <trkpt lat="44.11326" lon="5.38935">
        <ele>843</ele>
        <time>2020-07-11T08:26:30.596Z</time>
      </trkpt>
      <trkpt lat="44.1133" lon="5.38937">
        <ele>843</ele>
        <time>2020-07-11T08:26:31.596Z</time>
      </trkpt>
      <trkpt lat="44.11334" lon="5.38939">
        <ele>843</ele>
        <time>2020-07-11T08:26:32.595Z</time>
      </trkpt>
      <trkpt lat="44.11337" lon="5.3894">
        <ele>844</ele>
        <time>2020-07-11T08:26:33.595Z</time>
      </trkpt>
      <trkpt lat="44.11341" lon="5.38941">
        <ele>844</ele>
        <time>2020-07-11T08:26:34.596Z</time>
      </trkpt>
      <trkpt lat="44.11345" lon="5.38941">
        <ele>844</ele>
        <time>2020-07-11T08:26:35.596Z</time>
      </trkpt>
      <trkpt lat="44.11349" lon="5.38941">
        <ele>845</ele>
        <time>2020-07-11T08:26:36.596Z</time>
      </trkpt>
      <trkpt lat="44.11354" lon="5.3894">
        <ele>845</ele>
        <time>2020-07-11T08:26:37.596Z</time>
      </trkpt>
      <trkpt lat="44.11357" lon="5.38939">
        <ele>845</ele>
        <time>2020-07-11T08:26:38.595Z</time>
      </trkpt>
      <trkpt lat="44.11361" lon="5.38938">
        <ele>845</ele>
        <time>2020-07-11T08:26:39.596Z</time>
      </trkpt>
      <trkpt lat="44.11365" lon="5.38936">
        <ele>845</ele>
        <time>2020-07-11T08:26:40.596Z</time>
      </trkpt>
      <trkpt lat="44.11369" lon="5.38934">
        <ele>845</ele>
        <time>2020-07-11T08:26:41.595Z</time>
      </trkpt>
      <trkpt lat="44.11372" lon="5.38931">
        <ele>845</ele>
        <time>2020-07-11T08:26:42.596Z</time>
      </trkpt>
      <trkpt lat="44.11376" lon="5.38929">
        <ele>845</ele>
        <time>2020-07-11T08:26:43.596Z</time>
      </trkpt>
      <trkpt lat="44.1138" lon="5.38926">
        <ele>846</ele>
        <time>2020-07-11T08:26:44.596Z</time>
      </trkpt>
      <trkpt lat="44.11384" lon="5.38923">
        <ele>846</ele>
        <time>2020-07-11T08:26:45.596Z</time>
      </trkpt>
      <trkpt lat="44.11389" lon="5.3892">
        <ele>846</ele>
        <time>2020-07-11T08:26:46.596Z</time>
      </trkpt>
      <trkpt lat="44.11392" lon="5.38918">
        <ele>846</ele>
        <time>2020-07-11T08:26:47.596Z</time>
      </trkpt>
      <trkpt lat="44.11396" lon="5.38916">
        <ele>846</ele>
        <time>2020-07-11T08:26:48.596Z</time>
      </trkpt>
      <trkpt lat="44.11399" lon="5.38913">
        <ele>846</ele>
        <time>2020-07-11T08:26:49.596Z</time>
      </trkpt>
      <trkpt lat="44.11403" lon="5.3891">
        <ele>846</ele>
        <time>2020-07-11T08:26:50.596Z</time>
      </trkpt>
      <trkpt lat="44.11407" lon="5.38908">
        <ele>846</ele>
        <time>2020-07-11T08:26:51.596Z</time>
      </trkpt>
      <trkpt lat="44.1141" lon="5.38905">
        <ele>846</ele>
        <time>2020-07-11T08:26:52.596Z</time>
      </trkpt>
      <trkpt lat="44.11414" lon="5.38903">
        <ele>846</ele>
        <time>2020-07-11T08:26:53.596Z</time>
      </trkpt>
      <trkpt lat="44.11418" lon="5.389">
        <ele>846</ele>
        <time>2020-07-11T08:26:54.596Z</time>
      </trkpt>
      <trkpt lat="44.11422" lon="5.38897">
        <ele>846</ele>
        <time>2020-07-11T08:26:55.596Z</time>
      </trkpt>
      <trkpt lat="44.11426" lon="5.38895">
        <ele>846</ele>
        <time>2020-07-11T08:26:56.596Z</time>
      </trkpt>
      <trkpt lat="44.1143" lon="5.38893">
        <ele>846</ele>
        <time>2020-07-11T08:26:57.595Z</time>
      </trkpt>
      <trkpt lat="44.11434" lon="5.3889">
        <ele>846</ele>
        <time>2020-07-11T08:26:58.596Z</time>
      </trkpt>
      <trkpt lat="44.11438" lon="5.38888">
        <ele>847</ele>
        <time>2020-07-11T08:26:59.596Z</time>
      </trkpt>
      <trkpt lat="44.11442" lon="5.38886">
        <ele>847</ele>
        <time>2020-07-11T08:27:00.596Z</time>
      </trkpt>
      <trkpt lat="44.11446" lon="5.38885">
        <ele>847</ele>
        <time>2020-07-11T08:27:01.595Z</time>
      </trkpt>
      <trkpt lat="44.1145" lon="5.38885">
        <ele>847</ele>
        <time>2020-07-11T08:27:02.596Z</time>
      </trkpt>
      <trkpt lat="44.11454" lon="5.38886">
        <ele>847</ele>
        <time>2020-07-11T08:27:03.596Z</time>
      </trkpt>
      <trkpt lat="44.11458" lon="5.38887">
        <ele>847</ele>
        <time>2020-07-11T08:27:04.596Z</time>
      </trkpt>
      <trkpt lat="44.11462" lon="5.38888">
        <ele>847</ele>
        <time>2020-07-11T08:27:05.596Z</time>
      </trkpt>
      <trkpt lat="44.11466" lon="5.3889">
        <ele>846</ele>
        <time>2020-07-11T08:27:06.596Z</time>
      </trkpt>
      <trkpt lat="44.1147" lon="5.38892">
        <ele>846</ele>
        <time>2020-07-11T08:27:07.595Z</time>
      </trkpt>
      <trkpt lat="44.11474" lon="5.38895">
        <ele>846</ele>
        <time>2020-07-11T08:27:08.596Z</time>
      </trkpt>
      <trkpt lat="44.11479" lon="5.38897">
        <ele>846</ele>
        <time>2020-07-11T08:27:09.596Z</time>
      </trkpt>
      <trkpt lat="44.11482" lon="5.38899">
        <ele>846</ele>
        <time>2020-07-11T08:27:10.596Z</time>
      </trkpt>
      <trkpt lat="44.11486" lon="5.38901">
        <ele>846</ele>
        <time>2020-07-11T08:27:11.596Z</time>
      </trkpt>
      <trkpt lat="44.1149" lon="5.38902">
        <ele>846</ele>
        <time>2020-07-11T08:27:12.596Z</time>
      </trkpt>
      <trkpt lat="44.11494" lon="5.38904">
        <ele>846</ele>
        <time>2020-07-11T08:27:13.595Z</time>
      </trkpt>
      <trkpt lat="44.11499" lon="5.38904">
        <ele>846</ele>
        <time>2020-07-11T08:27:14.596Z</time>
      </trkpt>
      <trkpt lat="44.11503" lon="5.38904">
        <ele>846</ele>
        <time>2020-07-11T08:27:15.596Z</time>
      </trkpt>
      <trkpt lat="44.11507" lon="5.38904">
        <ele>847</ele>
        <time>2020-07-11T08:27:16.596Z</time>
      </trkpt>
      <trkpt lat="44.11511" lon="5.38902">
        <ele>847</ele>
        <time>2020-07-11T08:27:17.596Z</time>
      </trkpt>
      <trkpt lat="44.11515" lon="5.38901">
        <ele>848</ele>
        <time>2020-07-11T08:27:18.596Z</time>
      </trkpt>
      <trkpt lat="44.11518" lon="5.38898">
        <ele>848</ele>
        <time>2020-07-11T08:27:19.596Z</time>
      </trkpt>
      <trkpt lat="44.11522" lon="5.38896">
        <ele>848</ele>
        <time>2020-07-11T08:27:20.596Z</time>
      </trkpt>
      <trkpt lat="44.11525" lon="5.38892">
        <ele>848</ele>
        <time>2020-07-11T08:27:21.596Z</time>
      </trkpt>
      <trkpt lat="44.11528" lon="5.38889">
        <ele>849</ele>
        <time>2020-07-11T08:27:22.595Z</time>
      </trkpt>
      <trkpt lat="44.11531" lon="5.38885">
        <ele>849</ele>
        <time>2020-07-11T08:27:23.595Z</time>
      </trkpt>
      <trkpt lat="44.11534" lon="5.38881">
        <ele>849</ele>
        <time>2020-07-11T08:27:24.595Z</time>
      </trkpt>
      <trkpt lat="44.11537" lon="5.38877">
        <ele>849</ele>
        <time>2020-07-11T08:27:25.596Z</time>
      </trkpt>
      <trkpt lat="44.11539" lon="5.38872">
        <ele>849</ele>
        <time>2020-07-11T08:27:26.596Z</time>
      </trkpt>
      <trkpt lat="44.11541" lon="5.38867">
        <ele>849</ele>
        <time>2020-07-11T08:27:27.595Z</time>
      </trkpt>
      <trkpt lat="44.11544" lon="5.38862">
        <ele>849</ele>
        <time>2020-07-11T08:27:28.596Z</time>
      </trkpt>
      <trkpt lat="44.11547" lon="5.38857">
        <ele>849</ele>
        <time>2020-07-11T08:27:29.596Z</time>
      </trkpt>
      <trkpt lat="44.11548" lon="5.38852">
        <ele>849</ele>
        <time>2020-07-11T08:27:30.596Z</time>
      </trkpt>
      <trkpt lat="44.1155" lon="5.38847">
        <ele>849</ele>
        <time>2020-07-11T08:27:31.596Z</time>
      </trkpt>
      <trkpt lat="44.11553" lon="5.38842">
        <ele>849</ele>
        <time>2020-07-11T08:27:32.596Z</time>
      </trkpt>
      <trkpt lat="44.11555" lon="5.38837">
        <ele>849</ele>
        <time>2020-07-11T08:27:33.596Z</time>
      </trkpt>
      <trkpt lat="44.11557" lon="5.38832">
        <ele>850</ele>
        <time>2020-07-11T08:27:34.596Z</time>
      </trkpt>
      <trkpt lat="44.11559" lon="5.38827">
        <ele>850</ele>
        <time>2020-07-11T08:27:35.596Z</time>
      </trkpt>
      <trkpt lat="44.11562" lon="5.38822">
        <ele>849</ele>
        <time>2020-07-11T08:27:36.595Z</time>
      </trkpt>
      <trkpt lat="44.11564" lon="5.38817">
        <ele>849</ele>
        <time>2020-07-11T08:27:37.596Z</time>
      </trkpt>
      <trkpt lat="44.11567" lon="5.38812">
        <ele>849</ele>
        <time>2020-07-11T08:27:38.596Z</time>
      </trkpt>
      <trkpt lat="44.11569" lon="5.38807">
        <ele>849</ele>
        <time>2020-07-11T08:27:39.596Z</time>
      </trkpt>
      <trkpt lat="44.11572" lon="5.38802">
        <ele>849</ele>
        <time>2020-07-11T08:27:40.595Z</time>
      </trkpt>
      <trkpt lat="44.11574" lon="5.38797">
        <ele>849</ele>
        <time>2020-07-11T08:27:41.595Z</time>
      </trkpt>
      <trkpt lat="44.11577" lon="5.38792">
        <ele>849</ele>
        <time>2020-07-11T08:27:42.596Z</time>
      </trkpt>
      <trkpt lat="44.1158" lon="5.38787">
        <ele>850</ele>
        <time>2020-07-11T08:27:43.596Z</time>
      </trkpt>
      <trkpt lat="44.11583" lon="5.38783">
        <ele>850</ele>
        <time>2020-07-11T08:27:44.596Z</time>
      </trkpt>
      <trkpt lat="44.11585" lon="5.38778">
        <ele>851</ele>
        <time>2020-07-11T08:27:45.596Z</time>
      </trkpt>
      <trkpt lat="44.11588" lon="5.38773">
        <ele>851</ele>
        <time>2020-07-11T08:27:46.596Z</time>
      </trkpt>
      <trkpt lat="44.11591" lon="5.38769">
        <ele>851</ele>
        <time>2020-07-11T08:27:47.596Z</time>
      </trkpt>
      <trkpt lat="44.11595" lon="5.38765">
        <ele>851</ele>
        <time>2020-07-11T08:27:48.596Z</time>
      </trkpt>
      <trkpt lat="44.11598" lon="5.38761">
        <ele>852</ele>
        <time>2020-07-11T08:27:49.596Z</time>
      </trkpt>
      <trkpt lat="44.11601" lon="5.38758">
        <ele>852</ele>
        <time>2020-07-11T08:27:50.595Z</time>
      </trkpt>
      <trkpt lat="44.11604" lon="5.38754">
        <ele>853</ele>
        <time>2020-07-11T08:27:51.596Z</time>
      </trkpt>
      <trkpt lat="44.11607" lon="5.38751">
        <ele>853</ele>
        <time>2020-07-11T08:27:52.596Z</time>
      </trkpt>
      <trkpt lat="44.11611" lon="5.38748">
        <ele>854</ele>
        <time>2020-07-11T08:27:53.596Z</time>
      </trkpt>
      <trkpt lat="44.11614" lon="5.38745">
        <ele>854</ele>
        <time>2020-07-11T08:27:54.596Z</time>
      </trkpt>
      <trkpt lat="44.11617" lon="5.38743">
        <ele>854</ele>
        <time>2020-07-11T08:27:55.596Z</time>
      </trkpt>
      <trkpt lat="44.11621" lon="5.3874">
        <ele>855</ele>
        <time>2020-07-11T08:27:56.596Z</time>
      </trkpt>
      <trkpt lat="44.11625" lon="5.38738">
        <ele>855</ele>
        <time>2020-07-11T08:27:57.595Z</time>
      </trkpt>
      <trkpt lat="44.11628" lon="5.38736">
        <ele>855</ele>
        <time>2020-07-11T08:27:58.596Z</time>
      </trkpt>
      <trkpt lat="44.11631" lon="5.38734">
        <ele>856</ele>
        <time>2020-07-11T08:27:59.596Z</time>
      </trkpt>
      <trkpt lat="44.11635" lon="5.38732">
        <ele>856</ele>
        <time>2020-07-11T08:28:00.596Z</time>
      </trkpt>
      <trkpt lat="44.11638" lon="5.38731">
        <ele>856</ele>
        <time>2020-07-11T08:28:01.595Z</time>
      </trkpt>
      <trkpt lat="44.11642" lon="5.38728">
        <ele>856</ele>
        <time>2020-07-11T08:28:02.596Z</time>
      </trkpt>
      <trkpt lat="44.11645" lon="5.38726">
        <ele>856</ele>
        <time>2020-07-11T08:28:03.595Z</time>
      </trkpt>
      <trkpt lat="44.11648" lon="5.38724">
        <ele>857</ele>
        <time>2020-07-11T08:28:04.596Z</time>
      </trkpt>
      <trkpt lat="44.11652" lon="5.38722">
        <ele>857</ele>
        <time>2020-07-11T08:28:05.596Z</time>
      </trkpt>
      <trkpt lat="44.11656" lon="5.3872">
        <ele>857</ele>
        <time>2020-07-11T08:28:06.596Z</time>
      </trkpt>
      <trkpt lat="44.11659" lon="5.38718">
        <ele>858</ele>
        <time>2020-07-11T08:28:07.596Z</time>
      </trkpt>
      <trkpt lat="44.11663" lon="5.38715">
        <ele>858</ele>
        <time>2020-07-11T08:28:08.596Z</time>
      </trkpt>
      <trkpt lat="44.11667" lon="5.38713">
        <ele>859</ele>
        <time>2020-07-11T08:28:09.595Z</time>
      </trkpt>
      <trkpt lat="44.11671" lon="5.38711">
        <ele>859</ele>
        <time>2020-07-11T08:28:10.595Z</time>
      </trkpt>
      <trkpt lat="44.11674" lon="5.38709">
        <ele>859</ele>
        <time>2020-07-11T08:28:11.596Z</time>
      </trkpt>
      <trkpt lat="44.11678" lon="5.38707">
        <ele>860</ele>
        <time>2020-07-11T08:28:12.596Z</time>
      </trkpt>
      <trkpt lat="44.11681" lon="5.38705">
        <ele>860</ele>
        <time>2020-07-11T08:28:13.595Z</time>
      </trkpt>
      <trkpt lat="44.11685" lon="5.38703">
        <ele>860</ele>
        <time>2020-07-11T08:28:14.596Z</time>
      </trkpt>
      <trkpt lat="44.11688" lon="5.38701">
        <ele>860</ele>
        <time>2020-07-11T08:28:15.596Z</time>
      </trkpt>
      <trkpt lat="44.11692" lon="5.38699">
        <ele>860</ele>
        <time>2020-07-11T08:28:16.595Z</time>
      </trkpt>
      <trkpt lat="44.11695" lon="5.38697">
        <ele>860</ele>
        <time>2020-07-11T08:28:17.595Z</time>
      </trkpt>
      <trkpt lat="44.11699" lon="5.38695">
        <ele>860</ele>
        <time>2020-07-11T08:28:18.596Z</time>
      </trkpt>
      <trkpt lat="44.11702" lon="5.38693">
        <ele>860</ele>
        <time>2020-07-11T08:28:19.596Z</time>
      </trkpt>
      <trkpt lat="44.11706" lon="5.38691">
        <ele>860</ele>
        <time>2020-07-11T08:28:20.596Z</time>
      </trkpt>
      <trkpt lat="44.11709" lon="5.38689">
        <ele>860</ele>
        <time>2020-07-11T08:28:21.596Z</time>
      </trkpt>
      <trkpt lat="44.11712" lon="5.38686">
        <ele>861</ele>
        <time>2020-07-11T08:28:22.595Z</time>
      </trkpt>
      <trkpt lat="44.11716" lon="5.38684">
        <ele>861</ele>
        <time>2020-07-11T08:28:23.596Z</time>
      </trkpt>
      <trkpt lat="44.11719" lon="5.38682">
        <ele>861</ele>
        <time>2020-07-11T08:28:24.596Z</time>
      </trkpt>
      <trkpt lat="44.11722" lon="5.38679">
        <ele>861</ele>
        <time>2020-07-11T08:28:25.596Z</time>
      </trkpt>
      <trkpt lat="44.11725" lon="5.38677">
        <ele>861</ele>
        <time>2020-07-11T08:28:26.596Z</time>
      </trkpt>
      <trkpt lat="44.11728" lon="5.38674">
        <ele>861</ele>
        <time>2020-07-11T08:28:27.596Z</time>
      </trkpt>
      <trkpt lat="44.11731" lon="5.38671">
        <ele>861</ele>
        <time>2020-07-11T08:28:28.596Z</time>
      </trkpt>
      <trkpt lat="44.11735" lon="5.38668">
        <ele>862</ele>
        <time>2020-07-11T08:28:29.596Z</time>
      </trkpt>
      <trkpt lat="44.11738" lon="5.38665">
        <ele>862</ele>
        <time>2020-07-11T08:28:30.595Z</time>
      </trkpt>
      <trkpt lat="44.11741" lon="5.38662">
        <ele>862</ele>
        <time>2020-07-11T08:28:31.595Z</time>
      </trkpt>
      <trkpt lat="44.11744" lon="5.38659">
        <ele>862</ele>
        <time>2020-07-11T08:28:32.596Z</time>
      </trkpt>
      <trkpt lat="44.11748" lon="5.38656">
        <ele>863</ele>
        <time>2020-07-11T08:28:33.596Z</time>
      </trkpt>
      <trkpt lat="44.11751" lon="5.38654">
        <ele>863</ele>
        <time>2020-07-11T08:28:34.596Z</time>
      </trkpt>
      <trkpt lat="44.11754" lon="5.38651">
        <ele>863</ele>
        <time>2020-07-11T08:28:35.596Z</time>
      </trkpt>
      <trkpt lat="44.11757" lon="5.38648">
        <ele>864</ele>
        <time>2020-07-11T08:28:36.596Z</time>
      </trkpt>
      <trkpt lat="44.1176" lon="5.38644">
        <ele>864</ele>
        <time>2020-07-11T08:28:37.596Z</time>
      </trkpt>
      <trkpt lat="44.11764" lon="5.38641">
        <ele>865</ele>
        <time>2020-07-11T08:28:38.596Z</time>
      </trkpt>
      <trkpt lat="44.11767" lon="5.38638">
        <ele>865</ele>
        <time>2020-07-11T08:28:39.596Z</time>
      </trkpt>
      <trkpt lat="44.1177" lon="5.38635">
        <ele>865</ele>
        <time>2020-07-11T08:28:40.596Z</time>
      </trkpt>
      <trkpt lat="44.11773" lon="5.38632">
        <ele>865</ele>
        <time>2020-07-11T08:28:41.596Z</time>
      </trkpt>
      <trkpt lat="44.11775" lon="5.38628">
        <ele>865</ele>
        <time>2020-07-11T08:28:42.596Z</time>
      </trkpt>
      <trkpt lat="44.11776" lon="5.38623">
        <ele>865</ele>
        <time>2020-07-11T08:28:43.596Z</time>
      </trkpt>
      <trkpt lat="44.11777" lon="5.38618">
        <ele>866</ele>
        <time>2020-07-11T08:28:44.596Z</time>
      </trkpt>
      <trkpt lat="44.11777" lon="5.38612">
        <ele>866</ele>
        <time>2020-07-11T08:28:45.595Z</time>
      </trkpt>
      <trkpt lat="44.11777" lon="5.38607">
        <ele>866</ele>
        <time>2020-07-11T08:28:46.596Z</time>
      </trkpt>
      <trkpt lat="44.11776" lon="5.38602">
        <ele>866</ele>
        <time>2020-07-11T08:28:47.596Z</time>
      </trkpt>
      <trkpt lat="44.11774" lon="5.38597">
        <ele>867</ele>
        <time>2020-07-11T08:28:48.596Z</time>
      </trkpt>
      <trkpt lat="44.11771" lon="5.38593">
        <ele>867</ele>
        <time>2020-07-11T08:28:49.596Z</time>
      </trkpt>
      <trkpt lat="44.11769" lon="5.38588">
        <ele>868</ele>
        <time>2020-07-11T08:28:50.596Z</time>
      </trkpt>
      <trkpt lat="44.11766" lon="5.38584">
        <ele>868</ele>
        <time>2020-07-11T08:28:51.596Z</time>
      </trkpt>
      <trkpt lat="44.11763" lon="5.3858">
        <ele>868</ele>
        <time>2020-07-11T08:28:52.595Z</time>
      </trkpt>
      <trkpt lat="44.1176" lon="5.38576">
        <ele>868</ele>
        <time>2020-07-11T08:28:53.596Z</time>
      </trkpt>
      <trkpt lat="44.11757" lon="5.38572">
        <ele>869</ele>
        <time>2020-07-11T08:28:54.596Z</time>
      </trkpt>
      <trkpt lat="44.11754" lon="5.38568">
        <ele>869</ele>
        <time>2020-07-11T08:28:55.595Z</time>
      </trkpt>
      <trkpt lat="44.11751" lon="5.38564">
        <ele>870</ele>
        <time>2020-07-11T08:28:56.596Z</time>
      </trkpt>
      <trkpt lat="44.11748" lon="5.3856">
        <ele>870</ele>
        <time>2020-07-11T08:28:57.596Z</time>
      </trkpt>
      <trkpt lat="44.11745" lon="5.38556">
        <ele>870</ele>
        <time>2020-07-11T08:28:58.596Z</time>
      </trkpt>
      <trkpt lat="44.11742" lon="5.38551">
        <ele>871</ele>
        <time>2020-07-11T08:28:59.596Z</time>
      </trkpt>
      <trkpt lat="44.1174" lon="5.38547">
        <ele>871</ele>
        <time>2020-07-11T08:29:00.596Z</time>
      </trkpt>
      <trkpt lat="44.11737" lon="5.38542">
        <ele>871</ele>
        <time>2020-07-11T08:29:01.596Z</time>
      </trkpt>
      <trkpt lat="44.11735" lon="5.38537">
        <ele>871</ele>
        <time>2020-07-11T08:29:02.596Z</time>
      </trkpt>
      <trkpt lat="44.11733" lon="5.38532">
        <ele>871</ele>
        <time>2020-07-11T08:29:03.595Z</time>
      </trkpt>
      <trkpt lat="44.11731" lon="5.38527">
        <ele>871</ele>
        <time>2020-07-11T08:29:04.596Z</time>
      </trkpt>
      <trkpt lat="44.11729" lon="5.38522">
        <ele>871</ele>
        <time>2020-07-11T08:29:05.596Z</time>
      </trkpt>
      <trkpt lat="44.11728" lon="5.38517">
        <ele>871</ele>
        <time>2020-07-11T08:29:06.595Z</time>
      </trkpt>
      <trkpt lat="44.11726" lon="5.38512">
        <ele>872</ele>
        <time>2020-07-11T08:29:07.596Z</time>
      </trkpt>
      <trkpt lat="44.11724" lon="5.38506">
        <ele>872</ele>
        <time>2020-07-11T08:29:08.596Z</time>
      </trkpt>
      <trkpt lat="44.11723" lon="5.385">
        <ele>872</ele>
        <time>2020-07-11T08:29:09.596Z</time>
      </trkpt>
      <trkpt lat="44.11722" lon="5.38496">
        <ele>872</ele>
        <time>2020-07-11T08:29:10.595Z</time>
      </trkpt>
      <trkpt lat="44.11721" lon="5.3849">
        <ele>872</ele>
        <time>2020-07-11T08:29:11.596Z</time>
      </trkpt>
      <trkpt lat="44.1172" lon="5.38485">
        <ele>873</ele>
        <time>2020-07-11T08:29:12.596Z</time>
      </trkpt>
      <trkpt lat="44.11719" lon="5.38479">
        <ele>873</ele>
        <time>2020-07-11T08:29:13.596Z</time>
      </trkpt>
      <trkpt lat="44.11719" lon="5.38474">
        <ele>873</ele>
        <time>2020-07-11T08:29:14.596Z</time>
      </trkpt>
      <trkpt lat="44.11718" lon="5.38468">
        <ele>874</ele>
        <time>2020-07-11T08:29:15.595Z</time>
      </trkpt>
      <trkpt lat="44.11718" lon="5.38463">
        <ele>874</ele>
        <time>2020-07-11T08:29:16.596Z</time>
      </trkpt>
      <trkpt lat="44.11718" lon="5.38457">
        <ele>874</ele>
        <time>2020-07-11T08:29:17.596Z</time>
      </trkpt>
      <trkpt lat="44.11718" lon="5.38452">
        <ele>874</ele>
        <time>2020-07-11T08:29:18.596Z</time>
      </trkpt>
      <trkpt lat="44.11718" lon="5.38446">
        <ele>874</ele>
        <time>2020-07-11T08:29:19.596Z</time>
      </trkpt>
      <trkpt lat="44.11719" lon="5.38441">
        <ele>875</ele>
        <time>2020-07-11T08:29:20.595Z</time>
      </trkpt>
      <trkpt lat="44.1172" lon="5.38435">
        <ele>875</ele>
        <time>2020-07-11T08:29:21.596Z</time>
      </trkpt>
      <trkpt lat="44.11721" lon="5.3843">
        <ele>876</ele>
        <time>2020-07-11T08:29:22.596Z</time>
      </trkpt>
      <trkpt lat="44.11722" lon="5.38425">
        <ele>876</ele>
        <time>2020-07-11T08:29:23.596Z</time>
      </trkpt>
      <trkpt lat="44.11723" lon="5.3842">
        <ele>876</ele>
        <time>2020-07-11T08:29:24.596Z</time>
      </trkpt>
      <trkpt lat="44.11725" lon="5.38415">
        <ele>876</ele>
        <time>2020-07-11T08:29:25.596Z</time>
      </trkpt>
      <trkpt lat="44.11727" lon="5.38411">
        <ele>877</ele>
        <time>2020-07-11T08:29:26.596Z</time>
      </trkpt>
      <trkpt lat="44.11729" lon="5.38407">
        <ele>877</ele>
        <time>2020-07-11T08:29:27.595Z</time>
      </trkpt>
      <trkpt lat="44.11731" lon="5.38403">
        <ele>877</ele>
        <time>2020-07-11T08:29:28.595Z</time>
      </trkpt>
      <trkpt lat="44.11733" lon="5.38398">
        <ele>877</ele>
        <time>2020-07-11T08:29:29.596Z</time>
      </trkpt>
      <trkpt lat="44.11735" lon="5.38394">
        <ele>877</ele>
        <time>2020-07-11T08:29:30.596Z</time>
      </trkpt>
      <trkpt lat="44.11738" lon="5.3839">
        <ele>877</ele>
        <time>2020-07-11T08:29:31.596Z</time>
      </trkpt>
      <trkpt lat="44.1174" lon="5.38387">
        <ele>877</ele>
        <time>2020-07-11T08:29:32.596Z</time>
      </trkpt>
      <trkpt lat="44.11743" lon="5.38383">
        <ele>878</ele>
        <time>2020-07-11T08:29:33.595Z</time>
      </trkpt>
      <trkpt lat="44.11746" lon="5.38379">
        <ele>878</ele>
        <time>2020-07-11T08:29:34.596Z</time>
      </trkpt>
      <trkpt lat="44.11749" lon="5.38376">
        <ele>878</ele>
        <time>2020-07-11T08:29:35.596Z</time>
      </trkpt>
      <trkpt lat="44.11752" lon="5.38372">
        <ele>879</ele>
        <time>2020-07-11T08:29:36.596Z</time>
      </trkpt>
      <trkpt lat="44.11755" lon="5.38369">
        <ele>880</ele>
        <time>2020-07-11T08:29:37.596Z</time>
      </trkpt>
      <trkpt lat="44.11758" lon="5.38366">
        <ele>880</ele>
        <time>2020-07-11T08:29:38.596Z</time>
      </trkpt>
      <trkpt lat="44.11761" lon="5.38363">
        <ele>880</ele>
        <time>2020-07-11T08:29:39.596Z</time>
      </trkpt>
      <trkpt lat="44.11764" lon="5.3836">
        <ele>880</ele>
        <time>2020-07-11T08:29:40.596Z</time>
      </trkpt>
      <trkpt lat="44.11767" lon="5.38357">
        <ele>880</ele>
        <time>2020-07-11T08:29:41.596Z</time>
      </trkpt>
      <trkpt lat="44.1177" lon="5.38354">
        <ele>881</ele>
        <time>2020-07-11T08:29:42.596Z</time>
      </trkpt>
      <trkpt lat="44.11773" lon="5.38351">
        <ele>881</ele>
        <time>2020-07-11T08:29:43.596Z</time>
      </trkpt>
      <trkpt lat="44.11776" lon="5.38348">
        <ele>881</ele>
        <time>2020-07-11T08:29:44.596Z</time>
      </trkpt>
      <trkpt lat="44.11779" lon="5.38344">
        <ele>881</ele>
        <time>2020-07-11T08:29:45.596Z</time>
      </trkpt>
      <trkpt lat="44.11782" lon="5.38341">
        <ele>882</ele>
        <time>2020-07-11T08:29:46.596Z</time>
      </trkpt>
      <trkpt lat="44.11785" lon="5.38338">
        <ele>882</ele>
        <time>2020-07-11T08:29:47.595Z</time>
      </trkpt>
      <trkpt lat="44.11789" lon="5.38336">
        <ele>882</ele>
        <time>2020-07-11T08:29:48.595Z</time>
      </trkpt>
      <trkpt lat="44.11792" lon="5.38333">
        <ele>882</ele>
        <time>2020-07-11T08:29:49.595Z</time>
      </trkpt>
      <trkpt lat="44.11795" lon="5.3833">
        <ele>882</ele>
        <time>2020-07-11T08:29:50.596Z</time>
      </trkpt>
      <trkpt lat="44.11798" lon="5.38327">
        <ele>883</ele>
        <time>2020-07-11T08:29:51.596Z</time>
      </trkpt>
      <trkpt lat="44.11801" lon="5.38323">
        <ele>883</ele>
        <time>2020-07-11T08:29:52.596Z</time>
      </trkpt>
      <trkpt lat="44.11804" lon="5.3832">
        <ele>884</ele>
        <time>2020-07-11T08:29:53.596Z</time>
      </trkpt>
      <trkpt lat="44.11807" lon="5.38317">
        <ele>884</ele>
        <time>2020-07-11T08:29:54.596Z</time>
      </trkpt>
      <trkpt lat="44.1181" lon="5.38314">
        <ele>885</ele>
        <time>2020-07-11T08:29:55.596Z</time>
      </trkpt>
      <trkpt lat="44.11813" lon="5.38311">
        <ele>885</ele>
        <time>2020-07-11T08:29:56.596Z</time>
      </trkpt>
      <trkpt lat="44.11816" lon="5.38308">
        <ele>886</ele>
        <time>2020-07-11T08:29:57.595Z</time>
      </trkpt>
      <trkpt lat="44.11819" lon="5.38305">
        <ele>886</ele>
        <time>2020-07-11T08:29:58.596Z</time>
      </trkpt>
      <trkpt lat="44.11822" lon="5.38302">
        <ele>886</ele>
        <time>2020-07-11T08:29:59.596Z</time>
      </trkpt>
      <trkpt lat="44.11825" lon="5.38299">
        <ele>886</ele>
        <time>2020-07-11T08:30:00.596Z</time>
      </trkpt>
      <trkpt lat="44.11828" lon="5.38296">
        <ele>886</ele>
        <time>2020-07-11T08:30:01.596Z</time>
      </trkpt>
      <trkpt lat="44.11832" lon="5.38293">
        <ele>886</ele>
        <time>2020-07-11T08:30:02.595Z</time>
      </trkpt>
      <trkpt lat="44.11835" lon="5.38289">
        <ele>885</ele>
        <time>2020-07-11T08:30:03.596Z</time>
      </trkpt>
      <trkpt lat="44.11838" lon="5.38286">
        <ele>885</ele>
        <time>2020-07-11T08:30:04.596Z</time>
      </trkpt>
      <trkpt lat="44.11841" lon="5.38283">
        <ele>885</ele>
        <time>2020-07-11T08:30:05.595Z</time>
      </trkpt>
      <trkpt lat="44.11845" lon="5.3828">
        <ele>885</ele>
        <time>2020-07-11T08:30:06.596Z</time>
      </trkpt>
      <trkpt lat="44.11848" lon="5.38278">
        <ele>885</ele>
        <time>2020-07-11T08:30:07.596Z</time>
      </trkpt>
      <trkpt lat="44.11851" lon="5.38275">
        <ele>885</ele>
        <time>2020-07-11T08:30:08.596Z</time>
      </trkpt>
      <trkpt lat="44.11854" lon="5.38272">
        <ele>885</ele>
        <time>2020-07-11T08:30:09.596Z</time>
      </trkpt>
      <trkpt lat="44.11857" lon="5.38269">
        <ele>885</ele>
        <time>2020-07-11T08:30:10.596Z</time>
      </trkpt>
      <trkpt lat="44.1186" lon="5.38265">
        <ele>886</ele>
        <time>2020-07-11T08:30:11.596Z</time>
      </trkpt>
      <trkpt lat="44.11863" lon="5.38262">
        <ele>886</ele>
        <time>2020-07-11T08:30:12.596Z</time>
      </trkpt>
      <trkpt lat="44.11866" lon="5.38259">
        <ele>886</ele>
        <time>2020-07-11T08:30:13.595Z</time>
      </trkpt>
      <trkpt lat="44.11869" lon="5.38256">
        <ele>887</ele>
        <time>2020-07-11T08:30:14.596Z</time>
      </trkpt>
      <trkpt lat="44.11872" lon="5.38253">
        <ele>887</ele>
        <time>2020-07-11T08:30:15.596Z</time>
      </trkpt>
      <trkpt lat="44.11875" lon="5.38249">
        <ele>887</ele>
        <time>2020-07-11T08:30:16.595Z</time>
      </trkpt>
      <trkpt lat="44.11878" lon="5.38246">
        <ele>888</ele>
        <time>2020-07-11T08:30:17.596Z</time>
      </trkpt>
      <trkpt lat="44.11881" lon="5.38242">
        <ele>888</ele>
        <time>2020-07-11T08:30:18.596Z</time>
      </trkpt>
      <trkpt lat="44.11884" lon="5.38239">
        <ele>889</ele>
        <time>2020-07-11T08:30:19.596Z</time>
      </trkpt>
      <trkpt lat="44.11886" lon="5.38236">
        <ele>889</ele>
        <time>2020-07-11T08:30:20.595Z</time>
      </trkpt>
      <trkpt lat="44.11889" lon="5.38232">
        <ele>890</ele>
        <time>2020-07-11T08:30:21.596Z</time>
      </trkpt>
      <trkpt lat="44.11892" lon="5.38228">
        <ele>891</ele>
        <time>2020-07-11T08:30:22.596Z</time>
      </trkpt>
      <trkpt lat="44.11894" lon="5.38225">
        <ele>891</ele>
        <time>2020-07-11T08:30:23.596Z</time>
      </trkpt>
      <trkpt lat="44.11897" lon="5.3822">
        <ele>891</ele>
        <time>2020-07-11T08:30:24.596Z</time>
      </trkpt>
      <trkpt lat="44.11898" lon="5.38215">
        <ele>891</ele>
        <time>2020-07-11T08:30:25.596Z</time>
      </trkpt>
      <trkpt lat="44.119" lon="5.3821">
        <ele>892</ele>
        <time>2020-07-11T08:30:26.596Z</time>
      </trkpt>
      <trkpt lat="44.11901" lon="5.38205">
        <ele>892</ele>
        <time>2020-07-11T08:30:27.596Z</time>
      </trkpt>
      <trkpt lat="44.11903" lon="5.382">
        <ele>892</ele>
        <time>2020-07-11T08:30:28.596Z</time>
      </trkpt>
      <trkpt lat="44.11903" lon="5.38194">
        <ele>892</ele>
        <time>2020-07-11T08:30:29.595Z</time>
      </trkpt>
      <trkpt lat="44.11904" lon="5.38188">
        <ele>893</ele>
        <time>2020-07-11T08:30:30.596Z</time>
      </trkpt>
      <trkpt lat="44.11905" lon="5.38183">
        <ele>893</ele>
        <time>2020-07-11T08:30:31.596Z</time>
      </trkpt>
      <trkpt lat="44.11905" lon="5.38177">
        <ele>893</ele>
        <time>2020-07-11T08:30:32.596Z</time>
      </trkpt>
      <trkpt lat="44.11905" lon="5.38171">
        <ele>893</ele>
        <time>2020-07-11T08:30:33.596Z</time>
      </trkpt>
      <trkpt lat="44.11906" lon="5.38166">
        <ele>894</ele>
        <time>2020-07-11T08:30:34.596Z</time>
      </trkpt>
      <trkpt lat="44.11906" lon="5.3816">
        <ele>894</ele>
        <time>2020-07-11T08:30:35.596Z</time>
      </trkpt>
      <trkpt lat="44.11908" lon="5.38155">
        <ele>894</ele>
        <time>2020-07-11T08:30:36.596Z</time>
      </trkpt>
      <trkpt lat="44.11909" lon="5.38149">
        <ele>894</ele>
        <time>2020-07-11T08:30:37.596Z</time>
      </trkpt>
      <trkpt lat="44.1191" lon="5.38143">
        <ele>895</ele>
        <time>2020-07-11T08:30:38.596Z</time>
      </trkpt>
      <trkpt lat="44.11912" lon="5.38138">
        <ele>895</ele>
        <time>2020-07-11T08:30:39.596Z</time>
      </trkpt>
      <trkpt lat="44.11913" lon="5.38133">
        <ele>895</ele>
        <time>2020-07-11T08:30:40.596Z</time>
      </trkpt>
      <trkpt lat="44.11916" lon="5.38128">
        <ele>895</ele>
        <time>2020-07-11T08:30:41.595Z</time>
      </trkpt>
      <trkpt lat="44.11918" lon="5.38123">
        <ele>894</ele>
        <time>2020-07-11T08:30:42.596Z</time>
      </trkpt>
      <trkpt lat="44.1192" lon="5.38119">
        <ele>894</ele>
        <time>2020-07-11T08:30:43.596Z</time>
      </trkpt>
      <trkpt lat="44.11922" lon="5.38115">
        <ele>894</ele>
        <time>2020-07-11T08:30:44.596Z</time>
      </trkpt>
      <trkpt lat="44.11924" lon="5.38111">
        <ele>894</ele>
        <time>2020-07-11T08:30:45.596Z</time>
      </trkpt>
      <trkpt lat="44.11927" lon="5.38107">
        <ele>894</ele>
        <time>2020-07-11T08:30:46.596Z</time>
      </trkpt>
      <trkpt lat="44.1193" lon="5.38103">
        <ele>893</ele>
        <time>2020-07-11T08:30:47.596Z</time>
      </trkpt>
      <trkpt lat="44.11932" lon="5.38099">
        <ele>893</ele>
        <time>2020-07-11T08:30:48.596Z</time>
      </trkpt>
      <trkpt lat="44.11935" lon="5.38095">
        <ele>893</ele>
        <time>2020-07-11T08:30:49.595Z</time>
      </trkpt>
      <trkpt lat="44.11938" lon="5.38091">
        <ele>894</ele>
        <time>2020-07-11T08:30:50.595Z</time>
      </trkpt>
      <trkpt lat="44.1194" lon="5.38087">
        <ele>894</ele>
        <time>2020-07-11T08:30:51.596Z</time>
      </trkpt>
      <trkpt lat="44.11943" lon="5.38083">
        <ele>894</ele>
        <time>2020-07-11T08:30:52.596Z</time>
      </trkpt>
      <trkpt lat="44.11945" lon="5.38079">
        <ele>895</ele>
        <time>2020-07-11T08:30:53.595Z</time>
      </trkpt>
      <trkpt lat="44.11948" lon="5.38075">
        <ele>895</ele>
        <time>2020-07-11T08:30:54.595Z</time>
      </trkpt>
      <trkpt lat="44.11951" lon="5.38071">
        <ele>894</ele>
        <time>2020-07-11T08:30:55.596Z</time>
      </trkpt>
      <trkpt lat="44.11953" lon="5.38068">
        <ele>894</ele>
        <time>2020-07-11T08:30:56.596Z</time>
      </trkpt>
      <trkpt lat="44.11956" lon="5.38064">
        <ele>894</ele>
        <time>2020-07-11T08:30:57.596Z</time>
      </trkpt>
      <trkpt lat="44.11959" lon="5.38061">
        <ele>894</ele>
        <time>2020-07-11T08:30:58.595Z</time>
      </trkpt>
      <trkpt lat="44.11961" lon="5.38057">
        <ele>894</ele>
        <time>2020-07-11T08:30:59.595Z</time>
      </trkpt>
      <trkpt lat="44.11964" lon="5.38054">
        <ele>895</ele>
        <time>2020-07-11T08:31:00.596Z</time>
      </trkpt>
      <trkpt lat="44.11966" lon="5.3805">
        <ele>895</ele>
        <time>2020-07-11T08:31:01.595Z</time>
      </trkpt>
      <trkpt lat="44.11969" lon="5.38046">
        <ele>896</ele>
        <time>2020-07-11T08:31:02.596Z</time>
      </trkpt>
      <trkpt lat="44.11971" lon="5.38042">
        <ele>896</ele>
        <time>2020-07-11T08:31:03.596Z</time>
      </trkpt>
      <trkpt lat="44.11974" lon="5.38038">
        <ele>897</ele>
        <time>2020-07-11T08:31:04.595Z</time>
      </trkpt>
      <trkpt lat="44.11977" lon="5.38034">
        <ele>897</ele>
        <time>2020-07-11T08:31:05.595Z</time>
      </trkpt>
      <trkpt lat="44.1198" lon="5.38029">
        <ele>898</ele>
        <time>2020-07-11T08:31:06.596Z</time>
      </trkpt>
      <trkpt lat="44.11982" lon="5.38024">
        <ele>899</ele>
        <time>2020-07-11T08:31:07.596Z</time>
      </trkpt>
      <trkpt lat="44.11985" lon="5.3802">
        <ele>899</ele>
        <time>2020-07-11T08:31:08.595Z</time>
      </trkpt>
      <trkpt lat="44.11988" lon="5.38015">
        <ele>900</ele>
        <time>2020-07-11T08:31:09.595Z</time>
      </trkpt>
      <trkpt lat="44.1199" lon="5.38012">
        <ele>900</ele>
        <time>2020-07-11T08:31:10.596Z</time>
      </trkpt>
      <trkpt lat="44.11993" lon="5.38008">
        <ele>900</ele>
        <time>2020-07-11T08:31:11.596Z</time>
      </trkpt>
      <trkpt lat="44.11996" lon="5.38004">
        <ele>900</ele>
        <time>2020-07-11T08:31:12.596Z</time>
      </trkpt>
      <trkpt lat="44.11999" lon="5.38">
        <ele>901</ele>
        <time>2020-07-11T08:31:13.596Z</time>
      </trkpt>
      <trkpt lat="44.12001" lon="5.37996">
        <ele>901</ele>
        <time>2020-07-11T08:31:14.596Z</time>
      </trkpt>
      <trkpt lat="44.12004" lon="5.37992">
        <ele>902</ele>
        <time>2020-07-11T08:31:15.596Z</time>
      </trkpt>
      <trkpt lat="44.12007" lon="5.37988">
        <ele>902</ele>
        <time>2020-07-11T08:31:16.596Z</time>
      </trkpt>
      <trkpt lat="44.1201" lon="5.37984">
        <ele>903</ele>
        <time>2020-07-11T08:31:17.596Z</time>
      </trkpt>
      <trkpt lat="44.12013" lon="5.3798">
        <ele>903</ele>
        <time>2020-07-11T08:31:18.596Z</time>
      </trkpt>
      <trkpt lat="44.12016" lon="5.37977">
        <ele>903</ele>
        <time>2020-07-11T08:31:19.596Z</time>
      </trkpt>
      <trkpt lat="44.12018" lon="5.37973">
        <ele>904</ele>
        <time>2020-07-11T08:31:20.596Z</time>
      </trkpt>
      <trkpt lat="44.12021" lon="5.37969">
        <ele>905</ele>
        <time>2020-07-11T08:31:21.596Z</time>
      </trkpt>
      <trkpt lat="44.12024" lon="5.37965">
        <ele>905</ele>
        <time>2020-07-11T08:31:22.596Z</time>
      </trkpt>
      <trkpt lat="44.12027" lon="5.37961">
        <ele>905</ele>
        <time>2020-07-11T08:31:23.596Z</time>
      </trkpt>
      <trkpt lat="44.1203" lon="5.37957">
        <ele>906</ele>
        <time>2020-07-11T08:31:24.596Z</time>
      </trkpt>
      <trkpt lat="44.12033" lon="5.37954">
        <ele>905</ele>
        <time>2020-07-11T08:31:25.596Z</time>
      </trkpt>
      <trkpt lat="44.12035" lon="5.3795">
        <ele>906</ele>
        <time>2020-07-11T08:31:26.596Z</time>
      </trkpt>
      <trkpt lat="44.12038" lon="5.37947">
        <ele>906</ele>
        <time>2020-07-11T08:31:27.596Z</time>
      </trkpt>
      <trkpt lat="44.12041" lon="5.37943">
        <ele>906</ele>
        <time>2020-07-11T08:31:28.596Z</time>
      </trkpt>
      <trkpt lat="44.12044" lon="5.3794">
        <ele>907</ele>
        <time>2020-07-11T08:31:29.595Z</time>
      </trkpt>
      <trkpt lat="44.12047" lon="5.37936">
        <ele>907</ele>
        <time>2020-07-11T08:31:30.596Z</time>
      </trkpt>
      <trkpt lat="44.1205" lon="5.37932">
        <ele>908</ele>
        <time>2020-07-11T08:31:31.596Z</time>
      </trkpt>
      <trkpt lat="44.12053" lon="5.37929">
        <ele>908</ele>
        <time>2020-07-11T08:31:32.595Z</time>
      </trkpt>
      <trkpt lat="44.12056" lon="5.37925">
        <ele>908</ele>
        <time>2020-07-11T08:31:33.596Z</time>
      </trkpt>
      <trkpt lat="44.12059" lon="5.37922">
        <ele>908</ele>
        <time>2020-07-11T08:31:34.596Z</time>
      </trkpt>
      <trkpt lat="44.12062" lon="5.37918">
        <ele>908</ele>
        <time>2020-07-11T08:31:35.595Z</time>
      </trkpt>
      <trkpt lat="44.12065" lon="5.37915">
        <ele>908</ele>
        <time>2020-07-11T08:31:36.596Z</time>
      </trkpt>
      <trkpt lat="44.12068" lon="5.37912">
        <ele>907</ele>
        <time>2020-07-11T08:31:37.596Z</time>
      </trkpt>
      <trkpt lat="44.12071" lon="5.37908">
        <ele>907</ele>
        <time>2020-07-11T08:31:38.596Z</time>
      </trkpt>
      <trkpt lat="44.12074" lon="5.37905">
        <ele>907</ele>
        <time>2020-07-11T08:31:39.596Z</time>
      </trkpt>
      <trkpt lat="44.12077" lon="5.37901">
        <ele>907</ele>
        <time>2020-07-11T08:31:40.596Z</time>
      </trkpt>
      <trkpt lat="44.1208" lon="5.37898">
        <ele>907</ele>
        <time>2020-07-11T08:31:41.596Z</time>
      </trkpt>
      <trkpt lat="44.12083" lon="5.37895">
        <ele>907</ele>
        <time>2020-07-11T08:31:42.596Z</time>
      </trkpt>
      <trkpt lat="44.12087" lon="5.37891">
        <ele>908</ele>
        <time>2020-07-11T08:31:43.596Z</time>
      </trkpt>
      <trkpt lat="44.1209" lon="5.37888">
        <ele>908</ele>
        <time>2020-07-11T08:31:44.596Z</time>
      </trkpt>
      <trkpt lat="44.12093" lon="5.37884">
        <ele>909</ele>
        <time>2020-07-11T08:31:45.596Z</time>
      </trkpt>
      <trkpt lat="44.12096" lon="5.37881">
        <ele>909</ele>
        <time>2020-07-11T08:31:46.596Z</time>
      </trkpt>
      <trkpt lat="44.12099" lon="5.37877">
        <ele>909</ele>
        <time>2020-07-11T08:31:47.596Z</time>
      </trkpt>
      <trkpt lat="44.12102" lon="5.37874">
        <ele>910</ele>
        <time>2020-07-11T08:31:48.596Z</time>
      </trkpt>
      <trkpt lat="44.12104" lon="5.3787">
        <ele>910</ele>
        <time>2020-07-11T08:31:49.596Z</time>
      </trkpt>
      <trkpt lat="44.12107" lon="5.37866">
        <ele>910</ele>
        <time>2020-07-11T08:31:50.595Z</time>
      </trkpt>
      <trkpt lat="44.1211" lon="5.37862">
        <ele>911</ele>
        <time>2020-07-11T08:31:51.596Z</time>
      </trkpt>
      <trkpt lat="44.12112" lon="5.37858">
        <ele>911</ele>
        <time>2020-07-11T08:31:52.596Z</time>
      </trkpt>
      <trkpt lat="44.12114" lon="5.37854">
        <ele>911</ele>
        <time>2020-07-11T08:31:53.596Z</time>
      </trkpt>
      <trkpt lat="44.12115" lon="5.37849">
        <ele>911</ele>
        <time>2020-07-11T08:31:54.595Z</time>
      </trkpt>
      <trkpt lat="44.12117" lon="5.37845">
        <ele>911</ele>
        <time>2020-07-11T08:31:55.595Z</time>
      </trkpt>
      <trkpt lat="44.12119" lon="5.3784">
        <ele>912</ele>
        <time>2020-07-11T08:31:56.595Z</time>
      </trkpt>
      <trkpt lat="44.12121" lon="5.37835">
        <ele>912</ele>
        <time>2020-07-11T08:31:57.596Z</time>
      </trkpt>
      <trkpt lat="44.12123" lon="5.3783">
        <ele>912</ele>
        <time>2020-07-11T08:31:58.596Z</time>
      </trkpt>
      <trkpt lat="44.12124" lon="5.37825">
        <ele>912</ele>
        <time>2020-07-11T08:31:59.596Z</time>
      </trkpt>
      <trkpt lat="44.12126" lon="5.37818">
        <ele>912</ele>
        <time>2020-07-11T08:32:00.596Z</time>
      </trkpt>
      <trkpt lat="44.12127" lon="5.37813">
        <ele>912</ele>
        <time>2020-07-11T08:32:01.596Z</time>
      </trkpt>
      <trkpt lat="44.12128" lon="5.37808">
        <ele>912</ele>
        <time>2020-07-11T08:32:02.596Z</time>
      </trkpt>
      <trkpt lat="44.1213" lon="5.37803">
        <ele>912</ele>
        <time>2020-07-11T08:32:03.595Z</time>
      </trkpt>
      <trkpt lat="44.12131" lon="5.37797">
        <ele>913</ele>
        <time>2020-07-11T08:32:04.596Z</time>
      </trkpt>
      <trkpt lat="44.12132" lon="5.37792">
        <ele>913</ele>
        <time>2020-07-11T08:32:05.596Z</time>
      </trkpt>
      <trkpt lat="44.12134" lon="5.37786">
        <ele>913</ele>
        <time>2020-07-11T08:32:06.596Z</time>
      </trkpt>
      <trkpt lat="44.12135" lon="5.37781">
        <ele>913</ele>
        <time>2020-07-11T08:32:07.596Z</time>
      </trkpt>
      <trkpt lat="44.12136" lon="5.37775">
        <ele>914</ele>
        <time>2020-07-11T08:32:08.595Z</time>
      </trkpt>
      <trkpt lat="44.12137" lon="5.37769">
        <ele>914</ele>
        <time>2020-07-11T08:32:09.596Z</time>
      </trkpt>
      <trkpt lat="44.12139" lon="5.37764">
        <ele>914</ele>
        <time>2020-07-11T08:32:10.596Z</time>
      </trkpt>
      <trkpt lat="44.1214" lon="5.37759">
        <ele>914</ele>
        <time>2020-07-11T08:32:11.596Z</time>
      </trkpt>
      <trkpt lat="44.12141" lon="5.37754">
        <ele>914</ele>
        <time>2020-07-11T08:32:12.596Z</time>
      </trkpt>
      <trkpt lat="44.12142" lon="5.37748">
        <ele>914</ele>
        <time>2020-07-11T08:32:13.596Z</time>
      </trkpt>
      <trkpt lat="44.12143" lon="5.37743">
        <ele>914</ele>
        <time>2020-07-11T08:32:14.596Z</time>
      </trkpt>
      <trkpt lat="44.12145" lon="5.37737">
        <ele>914</ele>
        <time>2020-07-11T08:32:15.596Z</time>
      </trkpt>
      <trkpt lat="44.12146" lon="5.37732">
        <ele>915</ele>
        <time>2020-07-11T08:32:16.596Z</time>
      </trkpt>
      <trkpt lat="44.12147" lon="5.37725">
        <ele>915</ele>
        <time>2020-07-11T08:32:17.596Z</time>
      </trkpt>
      <trkpt lat="44.12148" lon="5.37721">
        <ele>915</ele>
        <time>2020-07-11T08:32:18.596Z</time>
      </trkpt>
      <trkpt lat="44.1215" lon="5.37715">
        <ele>916</ele>
        <time>2020-07-11T08:32:19.596Z</time>
      </trkpt>
      <trkpt lat="44.12151" lon="5.37708">
        <ele>916</ele>
        <time>2020-07-11T08:32:20.596Z</time>
      </trkpt>
      <trkpt lat="44.12152" lon="5.37704">
        <ele>916</ele>
        <time>2020-07-11T08:32:21.595Z</time>
      </trkpt>
      <trkpt lat="44.12153" lon="5.37698">
        <ele>917</ele>
        <time>2020-07-11T08:32:22.596Z</time>
      </trkpt>
      <trkpt lat="44.12154" lon="5.37692">
        <ele>917</ele>
        <time>2020-07-11T08:32:23.596Z</time>
      </trkpt>
      <trkpt lat="44.12156" lon="5.37686">
        <ele>917</ele>
        <time>2020-07-11T08:32:24.595Z</time>
      </trkpt>
      <trkpt lat="44.12157" lon="5.37682">
        <ele>917</ele>
        <time>2020-07-11T08:32:25.596Z</time>
      </trkpt>
      <trkpt lat="44.12158" lon="5.37677">
        <ele>917</ele>
        <time>2020-07-11T08:32:26.596Z</time>
      </trkpt>
      <trkpt lat="44.1216" lon="5.37672">
        <ele>918</ele>
        <time>2020-07-11T08:32:27.596Z</time>
      </trkpt>
      <trkpt lat="44.12162" lon="5.37667">
        <ele>917</ele>
        <time>2020-07-11T08:32:28.596Z</time>
      </trkpt>
      <trkpt lat="44.12163" lon="5.37662">
        <ele>918</ele>
        <time>2020-07-11T08:32:29.596Z</time>
      </trkpt>
      <trkpt lat="44.12165" lon="5.37657">
        <ele>918</ele>
        <time>2020-07-11T08:32:30.595Z</time>
      </trkpt>
      <trkpt lat="44.12166" lon="5.37651">
        <ele>918</ele>
        <time>2020-07-11T08:32:31.596Z</time>
      </trkpt>
      <trkpt lat="44.12168" lon="5.37646">
        <ele>919</ele>
        <time>2020-07-11T08:32:32.596Z</time>
      </trkpt>
      <trkpt lat="44.1217" lon="5.37641">
        <ele>919</ele>
        <time>2020-07-11T08:32:33.596Z</time>
      </trkpt>
      <trkpt lat="44.12172" lon="5.37636">
        <ele>919</ele>
        <time>2020-07-11T08:32:34.596Z</time>
      </trkpt>
      <trkpt lat="44.12174" lon="5.37632">
        <ele>920</ele>
        <time>2020-07-11T08:32:35.596Z</time>
      </trkpt>
      <trkpt lat="44.12176" lon="5.37627">
        <ele>920</ele>
        <time>2020-07-11T08:32:36.596Z</time>
      </trkpt>
      <trkpt lat="44.12178" lon="5.37622">
        <ele>920</ele>
        <time>2020-07-11T08:32:37.596Z</time>
      </trkpt>
      <trkpt lat="44.1218" lon="5.37618">
        <ele>921</ele>
        <time>2020-07-11T08:32:38.596Z</time>
      </trkpt>
      <trkpt lat="44.12182" lon="5.37613">
        <ele>921</ele>
        <time>2020-07-11T08:32:39.595Z</time>
      </trkpt>
      <trkpt lat="44.12184" lon="5.37608">
        <ele>922</ele>
        <time>2020-07-11T08:32:40.596Z</time>
      </trkpt>
      <trkpt lat="44.12186" lon="5.37604">
        <ele>922</ele>
        <time>2020-07-11T08:32:41.596Z</time>
      </trkpt>
      <trkpt lat="44.12188" lon="5.37599">
        <ele>923</ele>
        <time>2020-07-11T08:32:42.596Z</time>
      </trkpt>
      <trkpt lat="44.1219" lon="5.37594">
        <ele>924</ele>
        <time>2020-07-11T08:32:43.596Z</time>
      </trkpt>
      <trkpt lat="44.12192" lon="5.3759">
        <ele>924</ele>
        <time>2020-07-11T08:32:44.595Z</time>
      </trkpt>
      <trkpt lat="44.12194" lon="5.37585">
        <ele>925</ele>
        <time>2020-07-11T08:32:45.596Z</time>
      </trkpt>
      <trkpt lat="44.12197" lon="5.37581">
        <ele>925</ele>
        <time>2020-07-11T08:32:46.596Z</time>
      </trkpt>
      <trkpt lat="44.12199" lon="5.37576">
        <ele>926</ele>
        <time>2020-07-11T08:32:47.596Z</time>
      </trkpt>
      <trkpt lat="44.12201" lon="5.37572">
        <ele>926</ele>
        <time>2020-07-11T08:32:48.595Z</time>
      </trkpt>
      <trkpt lat="44.12204" lon="5.37568">
        <ele>926</ele>
        <time>2020-07-11T08:32:49.595Z</time>
      </trkpt>
      <trkpt lat="44.12207" lon="5.37564">
        <ele>927</ele>
        <time>2020-07-11T08:32:50.596Z</time>
      </trkpt>
      <trkpt lat="44.1221" lon="5.3756">
        <ele>927</ele>
        <time>2020-07-11T08:32:51.596Z</time>
      </trkpt>
      <trkpt lat="44.12213" lon="5.37556">
        <ele>928</ele>
        <time>2020-07-11T08:32:52.596Z</time>
      </trkpt>
      <trkpt lat="44.12215" lon="5.37552">
        <ele>928</ele>
        <time>2020-07-11T08:32:53.596Z</time>
      </trkpt>
      <trkpt lat="44.12218" lon="5.37549">
        <ele>928</ele>
        <time>2020-07-11T08:32:54.596Z</time>
      </trkpt>
      <trkpt lat="44.12221" lon="5.37546">
        <ele>928</ele>
        <time>2020-07-11T08:32:55.596Z</time>
      </trkpt>
      <trkpt lat="44.12224" lon="5.37542">
        <ele>927</ele>
        <time>2020-07-11T08:32:56.596Z</time>
      </trkpt>
      <trkpt lat="44.12227" lon="5.37538">
        <ele>927</ele>
        <time>2020-07-11T08:32:57.596Z</time>
      </trkpt>
      <trkpt lat="44.1223" lon="5.37534">
        <ele>927</ele>
        <time>2020-07-11T08:32:58.596Z</time>
      </trkpt>
      <trkpt lat="44.12233" lon="5.3753">
        <ele>927</ele>
        <time>2020-07-11T08:32:59.596Z</time>
      </trkpt>
      <trkpt lat="44.12236" lon="5.37526">
        <ele>927</ele>
        <time>2020-07-11T08:33:00.596Z</time>
      </trkpt>
      <trkpt lat="44.12238" lon="5.37523">
        <ele>927</ele>
        <time>2020-07-11T08:33:01.596Z</time>
      </trkpt>
      <trkpt lat="44.12241" lon="5.37519">
        <ele>927</ele>
        <time>2020-07-11T08:33:02.595Z</time>
      </trkpt>
      <trkpt lat="44.12244" lon="5.37514">
        <ele>927</ele>
        <time>2020-07-11T08:33:03.596Z</time>
      </trkpt>
      <trkpt lat="44.12247" lon="5.3751">
        <ele>928</ele>
        <time>2020-07-11T08:33:04.596Z</time>
      </trkpt>
      <trkpt lat="44.12249" lon="5.37506">
        <ele>928</ele>
        <time>2020-07-11T08:33:05.595Z</time>
      </trkpt>
      <trkpt lat="44.12252" lon="5.37502">
        <ele>928</ele>
        <time>2020-07-11T08:33:06.596Z</time>
      </trkpt>
      <trkpt lat="44.12255" lon="5.37498">
        <ele>928</ele>
        <time>2020-07-11T08:33:07.595Z</time>
      </trkpt>
      <trkpt lat="44.12258" lon="5.37494">
        <ele>928</ele>
        <time>2020-07-11T08:33:08.596Z</time>
      </trkpt>
      <trkpt lat="44.12261" lon="5.37491">
        <ele>928</ele>
        <time>2020-07-11T08:33:09.596Z</time>
      </trkpt>
      <trkpt lat="44.12264" lon="5.37487">
        <ele>928</ele>
        <time>2020-07-11T08:33:10.596Z</time>
      </trkpt>
      <trkpt lat="44.12266" lon="5.37483">
        <ele>928</ele>
        <time>2020-07-11T08:33:11.596Z</time>
      </trkpt>
      <trkpt lat="44.12269" lon="5.37479">
        <ele>929</ele>
        <time>2020-07-11T08:33:12.595Z</time>
      </trkpt>
      <trkpt lat="44.12272" lon="5.37475">
        <ele>929</ele>
        <time>2020-07-11T08:33:13.595Z</time>
      </trkpt>
      <trkpt lat="44.12275" lon="5.37471">
        <ele>929</ele>
        <time>2020-07-11T08:33:14.595Z</time>
      </trkpt>
      <trkpt lat="44.12278" lon="5.37467">
        <ele>930</ele>
        <time>2020-07-11T08:33:15.596Z</time>
      </trkpt>
      <trkpt lat="44.12281" lon="5.37464">
        <ele>930</ele>
        <time>2020-07-11T08:33:16.596Z</time>
      </trkpt>
      <trkpt lat="44.12284" lon="5.3746">
        <ele>931</ele>
        <time>2020-07-11T08:33:17.595Z</time>
      </trkpt>
      <trkpt lat="44.12287" lon="5.37457">
        <ele>932</ele>
        <time>2020-07-11T08:33:18.596Z</time>
      </trkpt>
      <trkpt lat="44.1229" lon="5.37453">
        <ele>933</ele>
        <time>2020-07-11T08:33:19.596Z</time>
      </trkpt>
      <trkpt lat="44.12293" lon="5.3745">
        <ele>933</ele>
        <time>2020-07-11T08:33:20.596Z</time>
      </trkpt>
      <trkpt lat="44.12296" lon="5.37446">
        <ele>933</ele>
        <time>2020-07-11T08:33:21.596Z</time>
      </trkpt>
      <trkpt lat="44.12298" lon="5.37442">
        <ele>934</ele>
        <time>2020-07-11T08:33:22.595Z</time>
      </trkpt>
      <trkpt lat="44.12301" lon="5.37438">
        <ele>934</ele>
        <time>2020-07-11T08:33:23.596Z</time>
      </trkpt>
      <trkpt lat="44.12305" lon="5.37434">
        <ele>935</ele>
        <time>2020-07-11T08:33:24.595Z</time>
      </trkpt>
      <trkpt lat="44.12307" lon="5.37431">
        <ele>935</ele>
        <time>2020-07-11T08:33:25.596Z</time>
      </trkpt>
      <trkpt lat="44.1231" lon="5.37428">
        <ele>935</ele>
        <time>2020-07-11T08:33:26.596Z</time>
      </trkpt>
      <trkpt lat="44.12313" lon="5.37425">
        <ele>935</ele>
        <time>2020-07-11T08:33:27.595Z</time>
      </trkpt>
      <trkpt lat="44.12316" lon="5.37421">
        <ele>935</ele>
        <time>2020-07-11T08:33:28.596Z</time>
      </trkpt>
      <trkpt lat="44.12319" lon="5.37418">
        <ele>935</ele>
        <time>2020-07-11T08:33:29.596Z</time>
      </trkpt>
      <trkpt lat="44.12323" lon="5.37415">
        <ele>936</ele>
        <time>2020-07-11T08:33:30.596Z</time>
      </trkpt>
      <trkpt lat="44.12325" lon="5.37412">
        <ele>936</ele>
        <time>2020-07-11T08:33:31.595Z</time>
      </trkpt>
      <trkpt lat="44.12329" lon="5.37408">
        <ele>935</ele>
        <time>2020-07-11T08:33:32.596Z</time>
      </trkpt>
      <trkpt lat="44.12332" lon="5.37406">
        <ele>935</ele>
        <time>2020-07-11T08:33:33.596Z</time>
      </trkpt>
      <trkpt lat="44.12335" lon="5.37402">
        <ele>936</ele>
        <time>2020-07-11T08:33:34.596Z</time>
      </trkpt>
      <trkpt lat="44.12337" lon="5.374">
        <ele>936</ele>
        <time>2020-07-11T08:33:35.596Z</time>
      </trkpt>
      <trkpt lat="44.1234" lon="5.37396">
        <ele>935</ele>
        <time>2020-07-11T08:33:36.596Z</time>
      </trkpt>
      <trkpt lat="44.12343" lon="5.37393">
        <ele>935</ele>
        <time>2020-07-11T08:33:37.596Z</time>
      </trkpt>
      <trkpt lat="44.12346" lon="5.3739">
        <ele>935</ele>
        <time>2020-07-11T08:33:38.596Z</time>
      </trkpt>
      <trkpt lat="44.12349" lon="5.37387">
        <ele>935</ele>
        <time>2020-07-11T08:33:39.595Z</time>
      </trkpt>
      <trkpt lat="44.12352" lon="5.37383">
        <ele>936</ele>
        <time>2020-07-11T08:33:40.596Z</time>
      </trkpt>
      <trkpt lat="44.12355" lon="5.3738">
        <ele>936</ele>
        <time>2020-07-11T08:33:41.596Z</time>
      </trkpt>
      <trkpt lat="44.12358" lon="5.37377">
        <ele>937</ele>
        <time>2020-07-11T08:33:42.596Z</time>
      </trkpt>
      <trkpt lat="44.12362" lon="5.37374">
        <ele>937</ele>
        <time>2020-07-11T08:33:43.596Z</time>
      </trkpt>
      <trkpt lat="44.12365" lon="5.37372">
        <ele>938</ele>
        <time>2020-07-11T08:33:44.595Z</time>
      </trkpt>
      <trkpt lat="44.12368" lon="5.37369">
        <ele>938</ele>
        <time>2020-07-11T08:33:45.595Z</time>
      </trkpt>
      <trkpt lat="44.12372" lon="5.37366">
        <ele>939</ele>
        <time>2020-07-11T08:33:46.595Z</time>
      </trkpt>
      <trkpt lat="44.12375" lon="5.37363">
        <ele>939</ele>
        <time>2020-07-11T08:33:47.595Z</time>
      </trkpt>
      <trkpt lat="44.12378" lon="5.37361">
        <ele>939</ele>
        <time>2020-07-11T08:33:48.595Z</time>
      </trkpt>
      <trkpt lat="44.12381" lon="5.37358">
        <ele>938</ele>
        <time>2020-07-11T08:33:49.595Z</time>
      </trkpt>
      <trkpt lat="44.12385" lon="5.37356">
        <ele>938</ele>
        <time>2020-07-11T08:33:50.596Z</time>
      </trkpt>
      <trkpt lat="44.12388" lon="5.37353">
        <ele>938</ele>
        <time>2020-07-11T08:33:51.596Z</time>
      </trkpt>
      <trkpt lat="44.12392" lon="5.37351">
        <ele>938</ele>
        <time>2020-07-11T08:33:52.596Z</time>
      </trkpt>
      <trkpt lat="44.12395" lon="5.37348">
        <ele>938</ele>
        <time>2020-07-11T08:33:53.596Z</time>
      </trkpt>
      <trkpt lat="44.12398" lon="5.37346">
        <ele>938</ele>
        <time>2020-07-11T08:33:54.596Z</time>
      </trkpt>
      <trkpt lat="44.12402" lon="5.37344">
        <ele>938</ele>
        <time>2020-07-11T08:33:55.596Z</time>
      </trkpt>
      <trkpt lat="44.12406" lon="5.37342">
        <ele>938</ele>
        <time>2020-07-11T08:33:56.595Z</time>
      </trkpt>
      <trkpt lat="44.1241" lon="5.37339">
        <ele>938</ele>
        <time>2020-07-11T08:33:57.596Z</time>
      </trkpt>
      <trkpt lat="44.12413" lon="5.37337">
        <ele>938</ele>
        <time>2020-07-11T08:33:58.595Z</time>
      </trkpt>
      <trkpt lat="44.12417" lon="5.37335">
        <ele>938</ele>
        <time>2020-07-11T08:33:59.596Z</time>
      </trkpt>
      <trkpt lat="44.1242" lon="5.37333">
        <ele>938</ele>
        <time>2020-07-11T08:34:00.596Z</time>
      </trkpt>
      <trkpt lat="44.12424" lon="5.37331">
        <ele>938</ele>
        <time>2020-07-11T08:34:01.596Z</time>
      </trkpt>
      <trkpt lat="44.12428" lon="5.37329">
        <ele>938</ele>
        <time>2020-07-11T08:34:02.596Z</time>
      </trkpt>
      <trkpt lat="44.12431" lon="5.37327">
        <ele>939</ele>
        <time>2020-07-11T08:34:03.595Z</time>
      </trkpt>
      <trkpt lat="44.12435" lon="5.37325">
        <ele>940</ele>
        <time>2020-07-11T08:34:04.595Z</time>
      </trkpt>
      <trkpt lat="44.12439" lon="5.37323">
        <ele>940</ele>
        <time>2020-07-11T08:34:05.595Z</time>
      </trkpt>
      <trkpt lat="44.12443" lon="5.37322">
        <ele>940</ele>
        <time>2020-07-11T08:34:06.596Z</time>
      </trkpt>
      <trkpt lat="44.12447" lon="5.37321">
        <ele>940</ele>
        <time>2020-07-11T08:34:07.596Z</time>
      </trkpt>
      <trkpt lat="44.12451" lon="5.37319">
        <ele>940</ele>
        <time>2020-07-11T08:34:08.596Z</time>
      </trkpt>
      <trkpt lat="44.12454" lon="5.37318">
        <ele>940</ele>
        <time>2020-07-11T08:34:09.595Z</time>
      </trkpt>
      <trkpt lat="44.12458" lon="5.37317">
        <ele>940</ele>
        <time>2020-07-11T08:34:10.596Z</time>
      </trkpt>
      <trkpt lat="44.12462" lon="5.37316">
        <ele>940</ele>
        <time>2020-07-11T08:34:11.595Z</time>
      </trkpt>
      <trkpt lat="44.12466" lon="5.37314">
        <ele>940</ele>
        <time>2020-07-11T08:34:12.596Z</time>
      </trkpt>
      <trkpt lat="44.1247" lon="5.37313">
        <ele>941</ele>
        <time>2020-07-11T08:34:13.596Z</time>
      </trkpt>
      <trkpt lat="44.12474" lon="5.37312">
        <ele>942</ele>
        <time>2020-07-11T08:34:14.595Z</time>
      </trkpt>
      <trkpt lat="44.12478" lon="5.37311">
        <ele>942</ele>
        <time>2020-07-11T08:34:15.596Z</time>
      </trkpt>
      <trkpt lat="44.12482" lon="5.3731">
        <ele>942</ele>
        <time>2020-07-11T08:34:16.596Z</time>
      </trkpt>
      <trkpt lat="44.12486" lon="5.3731">
        <ele>943</ele>
        <time>2020-07-11T08:34:17.596Z</time>
      </trkpt>
      <trkpt lat="44.1249" lon="5.37309">
        <ele>943</ele>
        <time>2020-07-11T08:34:18.596Z</time>
      </trkpt>
      <trkpt lat="44.12494" lon="5.37308">
        <ele>943</ele>
        <time>2020-07-11T08:34:19.596Z</time>
      </trkpt>
      <trkpt lat="44.12498" lon="5.37308">
        <ele>943</ele>
        <time>2020-07-11T08:34:20.596Z</time>
      </trkpt>
      <trkpt lat="44.12502" lon="5.37308">
        <ele>944</ele>
        <time>2020-07-11T08:34:21.596Z</time>
      </trkpt>
      <trkpt lat="44.12506" lon="5.37308">
        <ele>944</ele>
        <time>2020-07-11T08:34:22.595Z</time>
      </trkpt>
      <trkpt lat="44.1251" lon="5.37308">
        <ele>944</ele>
        <time>2020-07-11T08:34:23.596Z</time>
      </trkpt>
      <trkpt lat="44.12513" lon="5.37307">
        <ele>944</ele>
        <time>2020-07-11T08:34:24.595Z</time>
      </trkpt>
      <trkpt lat="44.12517" lon="5.37307">
        <ele>945</ele>
        <time>2020-07-11T08:34:25.596Z</time>
      </trkpt>
      <trkpt lat="44.12521" lon="5.37307">
        <ele>945</ele>
        <time>2020-07-11T08:34:26.596Z</time>
      </trkpt>
      <trkpt lat="44.12524" lon="5.37307">
        <ele>945</ele>
        <time>2020-07-11T08:34:27.596Z</time>
      </trkpt>
      <trkpt lat="44.12528" lon="5.37307">
        <ele>946</ele>
        <time>2020-07-11T08:34:28.595Z</time>
      </trkpt>
      <trkpt lat="44.12531" lon="5.37307">
        <ele>946</ele>
        <time>2020-07-11T08:34:29.596Z</time>
      </trkpt>
      <trkpt lat="44.12535" lon="5.37307">
        <ele>946</ele>
        <time>2020-07-11T08:34:30.596Z</time>
      </trkpt>
      <trkpt lat="44.12539" lon="5.37307">
        <ele>946</ele>
        <time>2020-07-11T08:34:31.596Z</time>
      </trkpt>
      <trkpt lat="44.12543" lon="5.37306">
        <ele>946</ele>
        <time>2020-07-11T08:34:32.596Z</time>
      </trkpt>
      <trkpt lat="44.12546" lon="5.37306">
        <ele>946</ele>
        <time>2020-07-11T08:34:33.596Z</time>
      </trkpt>
      <trkpt lat="44.1255" lon="5.37306">
        <ele>947</ele>
        <time>2020-07-11T08:34:34.596Z</time>
      </trkpt>
      <trkpt lat="44.12554" lon="5.37306">
        <ele>947</ele>
        <time>2020-07-11T08:34:35.596Z</time>
      </trkpt>
      <trkpt lat="44.12557" lon="5.37306">
        <ele>948</ele>
        <time>2020-07-11T08:34:36.596Z</time>
      </trkpt>
      <trkpt lat="44.12561" lon="5.37306">
        <ele>948</ele>
        <time>2020-07-11T08:34:37.596Z</time>
      </trkpt>
      <trkpt lat="44.12565" lon="5.37306">
        <ele>949</ele>
        <time>2020-07-11T08:34:38.596Z</time>
      </trkpt>
      <trkpt lat="44.12569" lon="5.37306">
        <ele>950</ele>
        <time>2020-07-11T08:34:39.596Z</time>
      </trkpt>
      <trkpt lat="44.12573" lon="5.37305">
        <ele>950</ele>
        <time>2020-07-11T08:34:40.595Z</time>
      </trkpt>
      <trkpt lat="44.12577" lon="5.37305">
        <ele>951</ele>
        <time>2020-07-11T08:34:41.596Z</time>
      </trkpt>
      <trkpt lat="44.1258" lon="5.37306">
        <ele>951</ele>
        <time>2020-07-11T08:34:42.596Z</time>
      </trkpt>
      <trkpt lat="44.12584" lon="5.37306">
        <ele>951</ele>
        <time>2020-07-11T08:34:43.596Z</time>
      </trkpt>
      <trkpt lat="44.12588" lon="5.37306">
        <ele>951</ele>
        <time>2020-07-11T08:34:44.596Z</time>
      </trkpt>
      <trkpt lat="44.12592" lon="5.37306">
        <ele>951</ele>
        <time>2020-07-11T08:34:45.596Z</time>
      </trkpt>
      <trkpt lat="44.12596" lon="5.37307">
        <ele>951</ele>
        <time>2020-07-11T08:34:46.596Z</time>
      </trkpt>
      <trkpt lat="44.126" lon="5.37307">
        <ele>951</ele>
        <time>2020-07-11T08:34:47.596Z</time>
      </trkpt>
      <trkpt lat="44.12604" lon="5.37307">
        <ele>951</ele>
        <time>2020-07-11T08:34:48.595Z</time>
      </trkpt>
      <trkpt lat="44.12608" lon="5.37307">
        <ele>951</ele>
        <time>2020-07-11T08:34:49.596Z</time>
      </trkpt>
      <trkpt lat="44.12612" lon="5.37306">
        <ele>952</ele>
        <time>2020-07-11T08:34:50.595Z</time>
      </trkpt>
      <trkpt lat="44.12615" lon="5.37306">
        <ele>952</ele>
        <time>2020-07-11T08:34:51.596Z</time>
      </trkpt>
      <trkpt lat="44.12619" lon="5.37306">
        <ele>952</ele>
        <time>2020-07-11T08:34:52.596Z</time>
      </trkpt>
      <trkpt lat="44.12623" lon="5.37306">
        <ele>952</ele>
        <time>2020-07-11T08:34:53.595Z</time>
      </trkpt>
      <trkpt lat="44.12626" lon="5.37306">
        <ele>952</ele>
        <time>2020-07-11T08:34:54.595Z</time>
      </trkpt>
      <trkpt lat="44.1263" lon="5.37306">
        <ele>952</ele>
        <time>2020-07-11T08:34:55.596Z</time>
      </trkpt>
      <trkpt lat="44.12634" lon="5.37305">
        <ele>953</ele>
        <time>2020-07-11T08:34:56.596Z</time>
      </trkpt>
      <trkpt lat="44.12638" lon="5.37305">
        <ele>953</ele>
        <time>2020-07-11T08:34:57.596Z</time>
      </trkpt>
      <trkpt lat="44.12642" lon="5.37306">
        <ele>953</ele>
        <time>2020-07-11T08:34:58.595Z</time>
      </trkpt>
      <trkpt lat="44.12645" lon="5.37306">
        <ele>953</ele>
        <time>2020-07-11T08:34:59.596Z</time>
      </trkpt>
      <trkpt lat="44.12648" lon="5.37306">
        <ele>953</ele>
        <time>2020-07-11T08:35:00.596Z</time>
      </trkpt>
      <trkpt lat="44.12653" lon="5.37307">
        <ele>954</ele>
        <time>2020-07-11T08:35:01.596Z</time>
      </trkpt>
      <trkpt lat="44.12656" lon="5.37307">
        <ele>954</ele>
        <time>2020-07-11T08:35:02.595Z</time>
      </trkpt>
      <trkpt lat="44.1266" lon="5.37307">
        <ele>954</ele>
        <time>2020-07-11T08:35:03.596Z</time>
      </trkpt>
      <trkpt lat="44.12663" lon="5.37307">
        <ele>955</ele>
        <time>2020-07-11T08:35:04.596Z</time>
      </trkpt>
      <trkpt lat="44.12667" lon="5.37308">
        <ele>956</ele>
        <time>2020-07-11T08:35:05.596Z</time>
      </trkpt>
      <trkpt lat="44.12672" lon="5.37309">
        <ele>956</ele>
        <time>2020-07-11T08:35:06.596Z</time>
      </trkpt>
      <trkpt lat="44.12675" lon="5.3731">
        <ele>956</ele>
        <time>2020-07-11T08:35:07.595Z</time>
      </trkpt>
      <trkpt lat="44.12679" lon="5.37311">
        <ele>957</ele>
        <time>2020-07-11T08:35:08.596Z</time>
      </trkpt>
      <trkpt lat="44.12682" lon="5.37311">
        <ele>957</ele>
        <time>2020-07-11T08:35:09.596Z</time>
      </trkpt>
      <trkpt lat="44.12686" lon="5.37312">
        <ele>957</ele>
        <time>2020-07-11T08:35:10.596Z</time>
      </trkpt>
      <trkpt lat="44.1269" lon="5.37313">
        <ele>957</ele>
        <time>2020-07-11T08:35:11.596Z</time>
      </trkpt>
      <trkpt lat="44.12693" lon="5.37314">
        <ele>957</ele>
        <time>2020-07-11T08:35:12.596Z</time>
      </trkpt>
      <trkpt lat="44.12697" lon="5.37315">
        <ele>958</ele>
        <time>2020-07-11T08:35:13.596Z</time>
      </trkpt>
      <trkpt lat="44.12701" lon="5.37317">
        <ele>958</ele>
        <time>2020-07-11T08:35:14.596Z</time>
      </trkpt>
      <trkpt lat="44.12704" lon="5.37318">
        <ele>958</ele>
        <time>2020-07-11T08:35:15.595Z</time>
      </trkpt>
      <trkpt lat="44.12708" lon="5.3732">
        <ele>958</ele>
        <time>2020-07-11T08:35:16.596Z</time>
      </trkpt>
      <trkpt lat="44.12712" lon="5.37321">
        <ele>958</ele>
        <time>2020-07-11T08:35:17.596Z</time>
      </trkpt>
      <trkpt lat="44.12716" lon="5.37322">
        <ele>959</ele>
        <time>2020-07-11T08:35:18.596Z</time>
      </trkpt>
      <trkpt lat="44.1272" lon="5.37323">
        <ele>959</ele>
        <time>2020-07-11T08:35:19.595Z</time>
      </trkpt>
      <trkpt lat="44.12723" lon="5.37324">
        <ele>959</ele>
        <time>2020-07-11T08:35:20.596Z</time>
      </trkpt>
      <trkpt lat="44.12727" lon="5.37326">
        <ele>960</ele>
        <time>2020-07-11T08:35:21.595Z</time>
      </trkpt>
      <trkpt lat="44.1273" lon="5.37327">
        <ele>960</ele>
        <time>2020-07-11T08:35:22.596Z</time>
      </trkpt>
      <trkpt lat="44.12734" lon="5.37328">
        <ele>961</ele>
        <time>2020-07-11T08:35:23.596Z</time>
      </trkpt>
      <trkpt lat="44.12738" lon="5.3733">
        <ele>962</ele>
        <time>2020-07-11T08:35:24.595Z</time>
      </trkpt>
      <trkpt lat="44.12742" lon="5.37332">
        <ele>962</ele>
        <time>2020-07-11T08:35:25.596Z</time>
      </trkpt>
      <trkpt lat="44.12746" lon="5.37333">
        <ele>962</ele>
        <time>2020-07-11T08:35:26.596Z</time>
      </trkpt>
      <trkpt lat="44.12749" lon="5.37334">
        <ele>962</ele>
        <time>2020-07-11T08:35:27.596Z</time>
      </trkpt>
      <trkpt lat="44.12753" lon="5.37335">
        <ele>962</ele>
        <time>2020-07-11T08:35:28.596Z</time>
      </trkpt>
      <trkpt lat="44.12756" lon="5.37336">
        <ele>963</ele>
        <time>2020-07-11T08:35:29.596Z</time>
      </trkpt>
      <trkpt lat="44.1276" lon="5.37338">
        <ele>963</ele>
        <time>2020-07-11T08:35:30.596Z</time>
      </trkpt>
      <trkpt lat="44.12763" lon="5.37339">
        <ele>963</ele>
        <time>2020-07-11T08:35:31.595Z</time>
      </trkpt>
      <trkpt lat="44.12766" lon="5.3734">
        <ele>963</ele>
        <time>2020-07-11T08:35:32.596Z</time>
      </trkpt>
      <trkpt lat="44.1277" lon="5.37342">
        <ele>963</ele>
        <time>2020-07-11T08:35:33.596Z</time>
      </trkpt>
      <trkpt lat="44.12774" lon="5.37343">
        <ele>964</ele>
        <time>2020-07-11T08:35:34.596Z</time>
      </trkpt>
      <trkpt lat="44.12777" lon="5.37344">
        <ele>965</ele>
        <time>2020-07-11T08:35:35.596Z</time>
      </trkpt>
      <trkpt lat="44.12781" lon="5.37345">
        <ele>965</ele>
        <time>2020-07-11T08:35:36.596Z</time>
      </trkpt>
      <trkpt lat="44.12785" lon="5.37347">
        <ele>965</ele>
        <time>2020-07-11T08:35:37.596Z</time>
      </trkpt>
      <trkpt lat="44.12788" lon="5.37348">
        <ele>965</ele>
        <time>2020-07-11T08:35:38.596Z</time>
      </trkpt>
      <trkpt lat="44.12791" lon="5.3735">
        <ele>966</ele>
        <time>2020-07-11T08:35:39.595Z</time>
      </trkpt>
      <trkpt lat="44.12796" lon="5.37351">
        <ele>966</ele>
        <time>2020-07-11T08:35:40.595Z</time>
      </trkpt>
      <trkpt lat="44.12799" lon="5.37351">
        <ele>966</ele>
        <time>2020-07-11T08:35:41.596Z</time>
      </trkpt>
      <trkpt lat="44.12802" lon="5.37352">
        <ele>967</ele>
        <time>2020-07-11T08:35:42.596Z</time>
      </trkpt>
      <trkpt lat="44.12806" lon="5.37353">
        <ele>967</ele>
        <time>2020-07-11T08:35:43.595Z</time>
      </trkpt>
      <trkpt lat="44.12809" lon="5.37353">
        <ele>967</ele>
        <time>2020-07-11T08:35:44.595Z</time>
      </trkpt>
      <trkpt lat="44.12813" lon="5.37354">
        <ele>968</ele>
        <time>2020-07-11T08:35:45.596Z</time>
      </trkpt>
      <trkpt lat="44.12816" lon="5.37354">
        <ele>968</ele>
        <time>2020-07-11T08:35:46.596Z</time>
      </trkpt>
      <trkpt lat="44.1282" lon="5.37355">
        <ele>968</ele>
        <time>2020-07-11T08:35:47.596Z</time>
      </trkpt>
      <trkpt lat="44.12823" lon="5.37356">
        <ele>968</ele>
        <time>2020-07-11T08:35:48.596Z</time>
      </trkpt>
      <trkpt lat="44.12827" lon="5.37357">
        <ele>968</ele>
        <time>2020-07-11T08:35:49.595Z</time>
      </trkpt>
      <trkpt lat="44.1283" lon="5.37357">
        <ele>968</ele>
        <time>2020-07-11T08:35:50.596Z</time>
      </trkpt>
      <trkpt lat="44.12834" lon="5.37358">
        <ele>968</ele>
        <time>2020-07-11T08:35:51.595Z</time>
      </trkpt>
      <trkpt lat="44.12837" lon="5.37358">
        <ele>968</ele>
        <time>2020-07-11T08:35:52.596Z</time>
      </trkpt>
      <trkpt lat="44.12841" lon="5.37359">
        <ele>968</ele>
        <time>2020-07-11T08:35:53.596Z</time>
      </trkpt>
      <trkpt lat="44.12844" lon="5.37359">
        <ele>968</ele>
        <time>2020-07-11T08:35:54.595Z</time>
      </trkpt>
      <trkpt lat="44.12848" lon="5.37359">
        <ele>968</ele>
        <time>2020-07-11T08:35:55.595Z</time>
      </trkpt>
      <trkpt lat="44.12852" lon="5.37358">
        <ele>968</ele>
        <time>2020-07-11T08:35:56.596Z</time>
      </trkpt>
      <trkpt lat="44.12856" lon="5.37358">
        <ele>968</ele>
        <time>2020-07-11T08:35:57.595Z</time>
      </trkpt>
      <trkpt lat="44.1286" lon="5.37357">
        <ele>968</ele>
        <time>2020-07-11T08:35:58.596Z</time>
      </trkpt>
      <trkpt lat="44.12863" lon="5.37357">
        <ele>968</ele>
        <time>2020-07-11T08:35:59.595Z</time>
      </trkpt>
      <trkpt lat="44.12866" lon="5.37358">
        <ele>968</ele>
        <time>2020-07-11T08:36:00.596Z</time>
      </trkpt>
      <trkpt lat="44.1287" lon="5.37359">
        <ele>967</ele>
        <time>2020-07-11T08:36:01.596Z</time>
      </trkpt>
      <trkpt lat="44.12874" lon="5.37359">
        <ele>967</ele>
        <time>2020-07-11T08:36:02.595Z</time>
      </trkpt>
      <trkpt lat="44.12878" lon="5.37359">
        <ele>967</ele>
        <time>2020-07-11T08:36:03.596Z</time>
      </trkpt>
      <trkpt lat="44.12881" lon="5.37359">
        <ele>967</ele>
        <time>2020-07-11T08:36:04.596Z</time>
      </trkpt>
      <trkpt lat="44.12884" lon="5.37359">
        <ele>967</ele>
        <time>2020-07-11T08:36:05.596Z</time>
      </trkpt>
      <trkpt lat="44.12888" lon="5.37359">
        <ele>967</ele>
        <time>2020-07-11T08:36:06.595Z</time>
      </trkpt>
      <trkpt lat="44.12892" lon="5.37359">
        <ele>966</ele>
        <time>2020-07-11T08:36:07.596Z</time>
      </trkpt>
      <trkpt lat="44.12896" lon="5.37359">
        <ele>966</ele>
        <time>2020-07-11T08:36:08.596Z</time>
      </trkpt>
      <trkpt lat="44.12901" lon="5.37359">
        <ele>966</ele>
        <time>2020-07-11T08:36:09.596Z</time>
      </trkpt>
      <trkpt lat="44.12903" lon="5.37358">
        <ele>966</ele>
        <time>2020-07-11T08:36:10.596Z</time>
      </trkpt>
      <trkpt lat="44.12907" lon="5.37358">
        <ele>967</ele>
        <time>2020-07-11T08:36:11.596Z</time>
      </trkpt>
      <trkpt lat="44.12912" lon="5.37357">
        <ele>967</ele>
        <time>2020-07-11T08:36:12.596Z</time>
      </trkpt>
      <trkpt lat="44.12915" lon="5.37357">
        <ele>968</ele>
        <time>2020-07-11T08:36:13.596Z</time>
      </trkpt>
      <trkpt lat="44.12919" lon="5.37356">
        <ele>969</ele>
        <time>2020-07-11T08:36:14.596Z</time>
      </trkpt>
      <trkpt lat="44.12922" lon="5.37356">
        <ele>969</ele>
        <time>2020-07-11T08:36:15.596Z</time>
      </trkpt>
      <trkpt lat="44.12926" lon="5.37355">
        <ele>970</ele>
        <time>2020-07-11T08:36:16.595Z</time>
      </trkpt>
      <trkpt lat="44.12929" lon="5.37354">
        <ele>970</ele>
        <time>2020-07-11T08:36:17.596Z</time>
      </trkpt>
      <trkpt lat="44.12933" lon="5.37353">
        <ele>971</ele>
        <time>2020-07-11T08:36:18.596Z</time>
      </trkpt>
      <trkpt lat="44.12937" lon="5.37353">
        <ele>971</ele>
        <time>2020-07-11T08:36:19.596Z</time>
      </trkpt>
      <trkpt lat="44.1294" lon="5.37352">
        <ele>971</ele>
        <time>2020-07-11T08:36:20.596Z</time>
      </trkpt>
      <trkpt lat="44.12944" lon="5.37351">
        <ele>971</ele>
        <time>2020-07-11T08:36:21.596Z</time>
      </trkpt>
      <trkpt lat="44.12948" lon="5.37349">
        <ele>971</ele>
        <time>2020-07-11T08:36:22.596Z</time>
      </trkpt>
      <trkpt lat="44.12951" lon="5.37348">
        <ele>971</ele>
        <time>2020-07-11T08:36:23.596Z</time>
      </trkpt>
      <trkpt lat="44.12955" lon="5.37347">
        <ele>970</ele>
        <time>2020-07-11T08:36:24.595Z</time>
      </trkpt>
      <trkpt lat="44.12959" lon="5.37346">
        <ele>970</ele>
        <time>2020-07-11T08:36:25.596Z</time>
      </trkpt>
      <trkpt lat="44.12962" lon="5.37344">
        <ele>970</ele>
        <time>2020-07-11T08:36:26.596Z</time>
      </trkpt>
      <trkpt lat="44.12965" lon="5.37342">
        <ele>971</ele>
        <time>2020-07-11T08:36:27.596Z</time>
      </trkpt>
      <trkpt lat="44.12969" lon="5.3734">
        <ele>971</ele>
        <time>2020-07-11T08:36:28.596Z</time>
      </trkpt>
      <trkpt lat="44.12972" lon="5.37339">
        <ele>971</ele>
        <time>2020-07-11T08:36:29.596Z</time>
      </trkpt>
      <trkpt lat="44.12976" lon="5.37337">
        <ele>972</ele>
        <time>2020-07-11T08:36:30.596Z</time>
      </trkpt>
      <trkpt lat="44.12979" lon="5.37336">
        <ele>972</ele>
        <time>2020-07-11T08:36:31.596Z</time>
      </trkpt>
      <trkpt lat="44.12983" lon="5.37334">
        <ele>972</ele>
        <time>2020-07-11T08:36:32.596Z</time>
      </trkpt>
      <trkpt lat="44.12986" lon="5.37332">
        <ele>971</ele>
        <time>2020-07-11T08:36:33.596Z</time>
      </trkpt>
      <trkpt lat="44.1299" lon="5.37331">
        <ele>972</ele>
        <time>2020-07-11T08:36:34.596Z</time>
      </trkpt>
      <trkpt lat="44.12993" lon="5.37329">
        <ele>972</ele>
        <time>2020-07-11T08:36:35.595Z</time>
      </trkpt>
      <trkpt lat="44.12997" lon="5.37327">
        <ele>972</ele>
        <time>2020-07-11T08:36:36.596Z</time>
      </trkpt>
      <trkpt lat="44.13" lon="5.37325">
        <ele>973</ele>
        <time>2020-07-11T08:36:37.596Z</time>
      </trkpt>
      <trkpt lat="44.13004" lon="5.37323">
        <ele>974</ele>
        <time>2020-07-11T08:36:38.596Z</time>
      </trkpt>
      <trkpt lat="44.13008" lon="5.37321">
        <ele>974</ele>
        <time>2020-07-11T08:36:39.596Z</time>
      </trkpt>
      <trkpt lat="44.13011" lon="5.3732">
        <ele>975</ele>
        <time>2020-07-11T08:36:40.596Z</time>
      </trkpt>
      <trkpt lat="44.13015" lon="5.37319">
        <ele>976</ele>
        <time>2020-07-11T08:36:41.596Z</time>
      </trkpt>
      <trkpt lat="44.13018" lon="5.37318">
        <ele>976</ele>
        <time>2020-07-11T08:36:42.595Z</time>
      </trkpt>
      <trkpt lat="44.13022" lon="5.37317">
        <ele>977</ele>
        <time>2020-07-11T08:36:43.596Z</time>
      </trkpt>
      <trkpt lat="44.13026" lon="5.37317">
        <ele>977</ele>
        <time>2020-07-11T08:36:44.596Z</time>
      </trkpt>
      <trkpt lat="44.1303" lon="5.37316">
        <ele>977</ele>
        <time>2020-07-11T08:36:45.596Z</time>
      </trkpt>
      <trkpt lat="44.13033" lon="5.37316">
        <ele>977</ele>
        <time>2020-07-11T08:36:46.596Z</time>
      </trkpt>
      <trkpt lat="44.13037" lon="5.37317">
        <ele>977</ele>
        <time>2020-07-11T08:36:47.595Z</time>
      </trkpt>
      <trkpt lat="44.13042" lon="5.37317">
        <ele>977</ele>
        <time>2020-07-11T08:36:48.596Z</time>
      </trkpt>
      <trkpt lat="44.13045" lon="5.37317">
        <ele>977</ele>
        <time>2020-07-11T08:36:49.596Z</time>
      </trkpt>
      <trkpt lat="44.13049" lon="5.37318">
        <ele>977</ele>
        <time>2020-07-11T08:36:50.596Z</time>
      </trkpt>
      <trkpt lat="44.13052" lon="5.37318">
        <ele>977</ele>
        <time>2020-07-11T08:36:51.596Z</time>
      </trkpt>
      <trkpt lat="44.13056" lon="5.37319">
        <ele>977</ele>
        <time>2020-07-11T08:36:52.595Z</time>
      </trkpt>
      <trkpt lat="44.13059" lon="5.3732">
        <ele>977</ele>
        <time>2020-07-11T08:36:53.596Z</time>
      </trkpt>
      <trkpt lat="44.13063" lon="5.37321">
        <ele>977</ele>
        <time>2020-07-11T08:36:54.596Z</time>
      </trkpt>
      <trkpt lat="44.13067" lon="5.37322">
        <ele>977</ele>
        <time>2020-07-11T08:36:55.595Z</time>
      </trkpt>
      <trkpt lat="44.1307" lon="5.37323">
        <ele>978</ele>
        <time>2020-07-11T08:36:56.596Z</time>
      </trkpt>
      <trkpt lat="44.13074" lon="5.37324">
        <ele>978</ele>
        <time>2020-07-11T08:36:57.595Z</time>
      </trkpt>
      <trkpt lat="44.13078" lon="5.37325">
        <ele>978</ele>
        <time>2020-07-11T08:36:58.596Z</time>
      </trkpt>
      <trkpt lat="44.13081" lon="5.37326">
        <ele>978</ele>
        <time>2020-07-11T08:36:59.596Z</time>
      </trkpt>
      <trkpt lat="44.13084" lon="5.37327">
        <ele>979</ele>
        <time>2020-07-11T08:37:00.596Z</time>
      </trkpt>
      <trkpt lat="44.13087" lon="5.37328">
        <ele>979</ele>
        <time>2020-07-11T08:37:01.595Z</time>
      </trkpt>
      <trkpt lat="44.13091" lon="5.37329">
        <ele>980</ele>
        <time>2020-07-11T08:37:02.595Z</time>
      </trkpt>
      <trkpt lat="44.13094" lon="5.3733">
        <ele>980</ele>
        <time>2020-07-11T08:37:03.595Z</time>
      </trkpt>
      <trkpt lat="44.13099" lon="5.37332">
        <ele>980</ele>
        <time>2020-07-11T08:37:04.596Z</time>
      </trkpt>
      <trkpt lat="44.13102" lon="5.37332">
        <ele>980</ele>
        <time>2020-07-11T08:37:05.595Z</time>
      </trkpt>
      <trkpt lat="44.13105" lon="5.37333">
        <ele>981</ele>
        <time>2020-07-11T08:37:06.595Z</time>
      </trkpt>
      <trkpt lat="44.13109" lon="5.37335">
        <ele>981</ele>
        <time>2020-07-11T08:37:07.595Z</time>
      </trkpt>
      <trkpt lat="44.13113" lon="5.37336">
        <ele>981</ele>
        <time>2020-07-11T08:37:08.596Z</time>
      </trkpt>
      <trkpt lat="44.13116" lon="5.37337">
        <ele>982</ele>
        <time>2020-07-11T08:37:09.596Z</time>
      </trkpt>
      <trkpt lat="44.13119" lon="5.37338">
        <ele>982</ele>
        <time>2020-07-11T08:37:10.595Z</time>
      </trkpt>
      <trkpt lat="44.13123" lon="5.3734">
        <ele>983</ele>
        <time>2020-07-11T08:37:11.595Z</time>
      </trkpt>
      <trkpt lat="44.13127" lon="5.37342">
        <ele>983</ele>
        <time>2020-07-11T08:37:12.595Z</time>
      </trkpt>
      <trkpt lat="44.13131" lon="5.37343">
        <ele>983</ele>
        <time>2020-07-11T08:37:13.596Z</time>
      </trkpt>
      <trkpt lat="44.13134" lon="5.37345">
        <ele>983</ele>
        <time>2020-07-11T08:37:14.595Z</time>
      </trkpt>
      <trkpt lat="44.13137" lon="5.37347">
        <ele>983</ele>
        <time>2020-07-11T08:37:15.595Z</time>
      </trkpt>
      <trkpt lat="44.13141" lon="5.37349">
        <ele>984</ele>
        <time>2020-07-11T08:37:16.596Z</time>
      </trkpt>
      <trkpt lat="44.13144" lon="5.37351">
        <ele>984</ele>
        <time>2020-07-11T08:37:17.595Z</time>
      </trkpt>
      <trkpt lat="44.13149" lon="5.37353">
        <ele>984</ele>
        <time>2020-07-11T08:37:18.596Z</time>
      </trkpt>
      <trkpt lat="44.13152" lon="5.37355">
        <ele>984</ele>
        <time>2020-07-11T08:37:19.595Z</time>
      </trkpt>
      <trkpt lat="44.13155" lon="5.37356">
        <ele>984</ele>
        <time>2020-07-11T08:37:20.596Z</time>
      </trkpt>
      <trkpt lat="44.13158" lon="5.37359">
        <ele>984</ele>
        <time>2020-07-11T08:37:21.596Z</time>
      </trkpt>
      <trkpt lat="44.13162" lon="5.37361">
        <ele>984</ele>
        <time>2020-07-11T08:37:22.595Z</time>
      </trkpt>
      <trkpt lat="44.13165" lon="5.37363">
        <ele>984</ele>
        <time>2020-07-11T08:37:23.595Z</time>
      </trkpt>
      <trkpt lat="44.13169" lon="5.37365">
        <ele>984</ele>
        <time>2020-07-11T08:37:24.595Z</time>
      </trkpt>
      <trkpt lat="44.13172" lon="5.37367">
        <ele>984</ele>
        <time>2020-07-11T08:37:25.595Z</time>
      </trkpt>
      <trkpt lat="44.13176" lon="5.37369">
        <ele>985</ele>
        <time>2020-07-11T08:37:26.595Z</time>
      </trkpt>
      <trkpt lat="44.1318" lon="5.37371">
        <ele>985</ele>
        <time>2020-07-11T08:37:27.596Z</time>
      </trkpt>
      <trkpt lat="44.13183" lon="5.37373">
        <ele>985</ele>
        <time>2020-07-11T08:37:28.596Z</time>
      </trkpt>
      <trkpt lat="44.13187" lon="5.37375">
        <ele>985</ele>
        <time>2020-07-11T08:37:29.595Z</time>
      </trkpt>
      <trkpt lat="44.1319" lon="5.37377">
        <ele>985</ele>
        <time>2020-07-11T08:37:30.595Z</time>
      </trkpt>
      <trkpt lat="44.13194" lon="5.37379">
        <ele>985</ele>
        <time>2020-07-11T08:37:31.595Z</time>
      </trkpt>
      <trkpt lat="44.13197" lon="5.37381">
        <ele>986</ele>
        <time>2020-07-11T08:37:32.595Z</time>
      </trkpt>
      <trkpt lat="44.13201" lon="5.37382">
        <ele>986</ele>
        <time>2020-07-11T08:37:33.596Z</time>
      </trkpt>
      <trkpt lat="44.13204" lon="5.37384">
        <ele>987</ele>
        <time>2020-07-11T08:37:34.596Z</time>
      </trkpt>
      <trkpt lat="44.13208" lon="5.37385">
        <ele>988</ele>
        <time>2020-07-11T08:37:35.596Z</time>
      </trkpt>
      <trkpt lat="44.13211" lon="5.37387">
        <ele>988</ele>
        <time>2020-07-11T08:37:36.595Z</time>
      </trkpt>
      <trkpt lat="44.13215" lon="5.37389">
        <ele>989</ele>
        <time>2020-07-11T08:37:37.595Z</time>
      </trkpt>
      <trkpt lat="44.13218" lon="5.37391">
        <ele>989</ele>
        <time>2020-07-11T08:37:38.595Z</time>
      </trkpt>
      <trkpt lat="44.13221" lon="5.37393">
        <ele>989</ele>
        <time>2020-07-11T08:37:39.596Z</time>
      </trkpt>
      <trkpt lat="44.13225" lon="5.37395">
        <ele>990</ele>
        <time>2020-07-11T08:37:40.595Z</time>
      </trkpt>
      <trkpt lat="44.13228" lon="5.37397">
        <ele>990</ele>
        <time>2020-07-11T08:37:41.595Z</time>
      </trkpt>
      <trkpt lat="44.13231" lon="5.37399">
        <ele>990</ele>
        <time>2020-07-11T08:37:42.595Z</time>
      </trkpt>
      <trkpt lat="44.13235" lon="5.37401">
        <ele>991</ele>
        <time>2020-07-11T08:37:43.595Z</time>
      </trkpt>
      <trkpt lat="44.13238" lon="5.37403">
        <ele>991</ele>
        <time>2020-07-11T08:37:44.596Z</time>
      </trkpt>
      <trkpt lat="44.13241" lon="5.37405">
        <ele>991</ele>
        <time>2020-07-11T08:37:45.595Z</time>
      </trkpt>
      <trkpt lat="44.13245" lon="5.37407">
        <ele>991</ele>
        <time>2020-07-11T08:37:46.595Z</time>
      </trkpt>
      <trkpt lat="44.13248" lon="5.37409">
        <ele>991</ele>
        <time>2020-07-11T08:37:47.595Z</time>
      </trkpt>
      <trkpt lat="44.13252" lon="5.3741">
        <ele>991</ele>
        <time>2020-07-11T08:37:48.595Z</time>
      </trkpt>
      <trkpt lat="44.13256" lon="5.37412">
        <ele>991</ele>
        <time>2020-07-11T08:37:49.595Z</time>
      </trkpt>
      <trkpt lat="44.13259" lon="5.37414">
        <ele>991</ele>
        <time>2020-07-11T08:37:50.595Z</time>
      </trkpt>
      <trkpt lat="44.13262" lon="5.37416">
        <ele>991</ele>
        <time>2020-07-11T08:37:51.596Z</time>
      </trkpt>
      <trkpt lat="44.13266" lon="5.37418">
        <ele>991</ele>
        <time>2020-07-11T08:37:52.596Z</time>
      </trkpt>
      <trkpt lat="44.13269" lon="5.3742">
        <ele>992</ele>
        <time>2020-07-11T08:37:53.596Z</time>
      </trkpt>
      <trkpt lat="44.13273" lon="5.37421">
        <ele>993</ele>
        <time>2020-07-11T08:37:54.595Z</time>
      </trkpt>
      <trkpt lat="44.13277" lon="5.37423">
        <ele>993</ele>
        <time>2020-07-11T08:37:55.596Z</time>
      </trkpt>
      <trkpt lat="44.1328" lon="5.37424">
        <ele>994</ele>
        <time>2020-07-11T08:37:56.596Z</time>
      </trkpt>
      <trkpt lat="44.13283" lon="5.37425">
        <ele>994</ele>
        <time>2020-07-11T08:37:57.596Z</time>
      </trkpt>
      <trkpt lat="44.13287" lon="5.37426">
        <ele>995</ele>
        <time>2020-07-11T08:37:58.596Z</time>
      </trkpt>
      <trkpt lat="44.1329" lon="5.37427">
        <ele>996</ele>
        <time>2020-07-11T08:37:59.596Z</time>
      </trkpt>
      <trkpt lat="44.13293" lon="5.37428">
        <ele>996</ele>
        <time>2020-07-11T08:38:00.596Z</time>
      </trkpt>
      <trkpt lat="44.13297" lon="5.3743">
        <ele>996</ele>
        <time>2020-07-11T08:38:01.596Z</time>
      </trkpt>
      <trkpt lat="44.133" lon="5.37431">
        <ele>996</ele>
        <time>2020-07-11T08:38:02.596Z</time>
      </trkpt>
      <trkpt lat="44.13305" lon="5.37432">
        <ele>996</ele>
        <time>2020-07-11T08:38:03.595Z</time>
      </trkpt>
      <trkpt lat="44.13307" lon="5.37433">
        <ele>997</ele>
        <time>2020-07-11T08:38:04.596Z</time>
      </trkpt>
      <trkpt lat="44.13311" lon="5.37434">
        <ele>997</ele>
        <time>2020-07-11T08:38:05.596Z</time>
      </trkpt>
      <trkpt lat="44.13315" lon="5.37435">
        <ele>997</ele>
        <time>2020-07-11T08:38:06.596Z</time>
      </trkpt>
      <trkpt lat="44.13318" lon="5.37436">
        <ele>998</ele>
        <time>2020-07-11T08:38:07.596Z</time>
      </trkpt>
      <trkpt lat="44.13323" lon="5.37438">
        <ele>999</ele>
        <time>2020-07-11T08:38:08.596Z</time>
      </trkpt>
      <trkpt lat="44.13326" lon="5.37439">
        <ele>999</ele>
        <time>2020-07-11T08:38:09.596Z</time>
      </trkpt>
      <trkpt lat="44.1333" lon="5.3744">
        <ele>999</ele>
        <time>2020-07-11T08:38:10.595Z</time>
      </trkpt>
      <trkpt lat="44.13333" lon="5.37441">
        <ele>999</ele>
        <time>2020-07-11T08:38:11.596Z</time>
      </trkpt>
      <trkpt lat="44.13337" lon="5.37442">
        <ele>1000</ele>
        <time>2020-07-11T08:38:12.596Z</time>
      </trkpt>
      <trkpt lat="44.1334" lon="5.37443">
        <ele>1000</ele>
        <time>2020-07-11T08:38:13.596Z</time>
      </trkpt>
      <trkpt lat="44.13343" lon="5.37444">
        <ele>1000</ele>
        <time>2020-07-11T08:38:14.596Z</time>
      </trkpt>
      <trkpt lat="44.13347" lon="5.37445">
        <ele>1000</ele>
        <time>2020-07-11T08:38:15.596Z</time>
      </trkpt>
      <trkpt lat="44.13351" lon="5.37446">
        <ele>1000</ele>
        <time>2020-07-11T08:38:16.596Z</time>
      </trkpt>
      <trkpt lat="44.13354" lon="5.37447">
        <ele>1001</ele>
        <time>2020-07-11T08:38:17.595Z</time>
      </trkpt>
      <trkpt lat="44.13358" lon="5.37448">
        <ele>1001</ele>
        <time>2020-07-11T08:38:18.596Z</time>
      </trkpt>
      <trkpt lat="44.13362" lon="5.3745">
        <ele>1001</ele>
        <time>2020-07-11T08:38:19.596Z</time>
      </trkpt>
      <trkpt lat="44.13365" lon="5.37451">
        <ele>1000</ele>
        <time>2020-07-11T08:38:20.596Z</time>
      </trkpt>
      <trkpt lat="44.13369" lon="5.37452">
        <ele>1000</ele>
        <time>2020-07-11T08:38:21.596Z</time>
      </trkpt>
      <trkpt lat="44.13373" lon="5.37453">
        <ele>1000</ele>
        <time>2020-07-11T08:38:22.595Z</time>
      </trkpt>
      <trkpt lat="44.13376" lon="5.37454">
        <ele>1000</ele>
        <time>2020-07-11T08:38:23.596Z</time>
      </trkpt>
      <trkpt lat="44.1338" lon="5.37455">
        <ele>1001</ele>
        <time>2020-07-11T08:38:24.596Z</time>
      </trkpt>
      <trkpt lat="44.13383" lon="5.37455">
        <ele>1001</ele>
        <time>2020-07-11T08:38:25.596Z</time>
      </trkpt>
      <trkpt lat="44.13387" lon="5.37456">
        <ele>1001</ele>
        <time>2020-07-11T08:38:26.596Z</time>
      </trkpt>
      <trkpt lat="44.13391" lon="5.37456">
        <ele>1001</ele>
        <time>2020-07-11T08:38:27.596Z</time>
      </trkpt>
      <trkpt lat="44.13394" lon="5.37456">
        <ele>1002</ele>
        <time>2020-07-11T08:38:28.596Z</time>
      </trkpt>
      <trkpt lat="44.13398" lon="5.37456">
        <ele>1002</ele>
        <time>2020-07-11T08:38:29.596Z</time>
      </trkpt>
      <trkpt lat="44.13402" lon="5.37456">
        <ele>1002</ele>
        <time>2020-07-11T08:38:30.596Z</time>
      </trkpt>
      <trkpt lat="44.13405" lon="5.37455">
        <ele>1001</ele>
        <time>2020-07-11T08:38:31.596Z</time>
      </trkpt>
      <trkpt lat="44.13409" lon="5.37454">
        <ele>1001</ele>
        <time>2020-07-11T08:38:32.596Z</time>
      </trkpt>
      <trkpt lat="44.13413" lon="5.37454">
        <ele>1001</ele>
        <time>2020-07-11T08:38:33.596Z</time>
      </trkpt>
      <trkpt lat="44.13417" lon="5.37453">
        <ele>1001</ele>
        <time>2020-07-11T08:38:34.595Z</time>
      </trkpt>
      <trkpt lat="44.1342" lon="5.37452">
        <ele>1001</ele>
        <time>2020-07-11T08:38:35.596Z</time>
      </trkpt>
      <trkpt lat="44.13424" lon="5.37451">
        <ele>1000</ele>
        <time>2020-07-11T08:38:36.596Z</time>
      </trkpt>
      <trkpt lat="44.13428" lon="5.37451">
        <ele>1001</ele>
        <time>2020-07-11T08:38:37.596Z</time>
      </trkpt>
      <trkpt lat="44.13432" lon="5.3745">
        <ele>1000</ele>
        <time>2020-07-11T08:38:38.596Z</time>
      </trkpt>
      <trkpt lat="44.13436" lon="5.37449">
        <ele>1000</ele>
        <time>2020-07-11T08:38:39.596Z</time>
      </trkpt>
      <trkpt lat="44.13439" lon="5.37448">
        <ele>1000</ele>
        <time>2020-07-11T08:38:40.596Z</time>
      </trkpt>
      <trkpt lat="44.13443" lon="5.37447">
        <ele>1000</ele>
        <time>2020-07-11T08:38:41.596Z</time>
      </trkpt>
      <trkpt lat="44.13447" lon="5.37446">
        <ele>1000</ele>
        <time>2020-07-11T08:38:42.596Z</time>
      </trkpt>
      <trkpt lat="44.1345" lon="5.37445">
        <ele>1000</ele>
        <time>2020-07-11T08:38:43.596Z</time>
      </trkpt>
      <trkpt lat="44.13454" lon="5.37444">
        <ele>1000</ele>
        <time>2020-07-11T08:38:44.596Z</time>
      </trkpt>
      <trkpt lat="44.13458" lon="5.37442">
        <ele>1000</ele>
        <time>2020-07-11T08:38:45.596Z</time>
      </trkpt>
      <trkpt lat="44.13462" lon="5.37441">
        <ele>1001</ele>
        <time>2020-07-11T08:38:46.596Z</time>
      </trkpt>
      <trkpt lat="44.13465" lon="5.3744">
        <ele>1002</ele>
        <time>2020-07-11T08:38:47.596Z</time>
      </trkpt>
      <trkpt lat="44.13469" lon="5.37439">
        <ele>1002</ele>
        <time>2020-07-11T08:38:48.596Z</time>
      </trkpt>
      <trkpt lat="44.13473" lon="5.37438">
        <ele>1003</ele>
        <time>2020-07-11T08:38:49.596Z</time>
      </trkpt>
      <trkpt lat="44.13476" lon="5.37437">
        <ele>1003</ele>
        <time>2020-07-11T08:38:50.596Z</time>
      </trkpt>
      <trkpt lat="44.1348" lon="5.37436">
        <ele>1004</ele>
        <time>2020-07-11T08:38:51.596Z</time>
      </trkpt>
      <trkpt lat="44.13484" lon="5.37435">
        <ele>1004</ele>
        <time>2020-07-11T08:38:52.596Z</time>
      </trkpt>
      <trkpt lat="44.13487" lon="5.37434">
        <ele>1004</ele>
        <time>2020-07-11T08:38:53.596Z</time>
      </trkpt>
      <trkpt lat="44.13491" lon="5.37433">
        <ele>1004</ele>
        <time>2020-07-11T08:38:54.596Z</time>
      </trkpt>
      <trkpt lat="44.13495" lon="5.37432">
        <ele>1005</ele>
        <time>2020-07-11T08:38:55.596Z</time>
      </trkpt>
      <trkpt lat="44.13499" lon="5.37431">
        <ele>1004</ele>
        <time>2020-07-11T08:38:56.596Z</time>
      </trkpt>
      <trkpt lat="44.13502" lon="5.3743">
        <ele>1005</ele>
        <time>2020-07-11T08:38:57.596Z</time>
      </trkpt>
      <trkpt lat="44.13506" lon="5.37429">
        <ele>1005</ele>
        <time>2020-07-11T08:38:58.596Z</time>
      </trkpt>
      <trkpt lat="44.13511" lon="5.37427">
        <ele>1006</ele>
        <time>2020-07-11T08:38:59.595Z</time>
      </trkpt>
      <trkpt lat="44.13514" lon="5.37426">
        <ele>1006</ele>
        <time>2020-07-11T08:39:00.596Z</time>
      </trkpt>
      <trkpt lat="44.13517" lon="5.37425">
        <ele>1007</ele>
        <time>2020-07-11T08:39:01.596Z</time>
      </trkpt>
      <trkpt lat="44.13521" lon="5.37423">
        <ele>1008</ele>
        <time>2020-07-11T08:39:02.595Z</time>
      </trkpt>
      <trkpt lat="44.13525" lon="5.37422">
        <ele>1009</ele>
        <time>2020-07-11T08:39:03.596Z</time>
      </trkpt>
      <trkpt lat="44.13529" lon="5.37421">
        <ele>1009</ele>
        <time>2020-07-11T08:39:04.596Z</time>
      </trkpt>
      <trkpt lat="44.13533" lon="5.3742">
        <ele>1009</ele>
        <time>2020-07-11T08:39:05.596Z</time>
      </trkpt>
      <trkpt lat="44.13537" lon="5.37419">
        <ele>1009</ele>
        <time>2020-07-11T08:39:06.595Z</time>
      </trkpt>
      <trkpt lat="44.1354" lon="5.37419">
        <ele>1009</ele>
        <time>2020-07-11T08:39:07.596Z</time>
      </trkpt>
      <trkpt lat="44.13545" lon="5.37418">
        <ele>1009</ele>
        <time>2020-07-11T08:39:08.596Z</time>
      </trkpt>
      <trkpt lat="44.13549" lon="5.37417">
        <ele>1009</ele>
        <time>2020-07-11T08:39:09.596Z</time>
      </trkpt>
      <trkpt lat="44.13552" lon="5.37416">
        <ele>1009</ele>
        <time>2020-07-11T08:39:10.596Z</time>
      </trkpt>
      <trkpt lat="44.13556" lon="5.37415">
        <ele>1009</ele>
        <time>2020-07-11T08:39:11.596Z</time>
      </trkpt>
      <trkpt lat="44.1356" lon="5.37414">
        <ele>1009</ele>
        <time>2020-07-11T08:39:12.596Z</time>
      </trkpt>
      <trkpt lat="44.13564" lon="5.37413">
        <ele>1009</ele>
        <time>2020-07-11T08:39:13.595Z</time>
      </trkpt>
      <trkpt lat="44.13568" lon="5.37412">
        <ele>1010</ele>
        <time>2020-07-11T08:39:14.596Z</time>
      </trkpt>
      <trkpt lat="44.13572" lon="5.37412">
        <ele>1010</ele>
        <time>2020-07-11T08:39:15.596Z</time>
      </trkpt>
      <trkpt lat="44.13575" lon="5.37411">
        <ele>1010</ele>
        <time>2020-07-11T08:39:16.596Z</time>
      </trkpt>
      <trkpt lat="44.13579" lon="5.37411">
        <ele>1010</ele>
        <time>2020-07-11T08:39:17.596Z</time>
      </trkpt>
      <trkpt lat="44.13583" lon="5.3741">
        <ele>1010</ele>
        <time>2020-07-11T08:39:18.596Z</time>
      </trkpt>
      <trkpt lat="44.13587" lon="5.37409">
        <ele>1010</ele>
        <time>2020-07-11T08:39:19.595Z</time>
      </trkpt>
      <trkpt lat="44.1359" lon="5.37408">
        <ele>1011</ele>
        <time>2020-07-11T08:39:20.596Z</time>
      </trkpt>
      <trkpt lat="44.13594" lon="5.37408">
        <ele>1011</ele>
        <time>2020-07-11T08:39:21.596Z</time>
      </trkpt>
      <trkpt lat="44.13598" lon="5.37408">
        <ele>1012</ele>
        <time>2020-07-11T08:39:22.596Z</time>
      </trkpt>
      <trkpt lat="44.13601" lon="5.37407">
        <ele>1012</ele>
        <time>2020-07-11T08:39:23.596Z</time>
      </trkpt>
      <trkpt lat="44.13605" lon="5.37407">
        <ele>1012</ele>
        <time>2020-07-11T08:39:24.596Z</time>
      </trkpt>
      <trkpt lat="44.13609" lon="5.37406">
        <ele>1012</ele>
        <time>2020-07-11T08:39:25.596Z</time>
      </trkpt>
      <trkpt lat="44.13612" lon="5.37405">
        <ele>1013</ele>
        <time>2020-07-11T08:39:26.595Z</time>
      </trkpt>
      <trkpt lat="44.13616" lon="5.37404">
        <ele>1013</ele>
        <time>2020-07-11T08:39:27.595Z</time>
      </trkpt>
      <trkpt lat="44.13619" lon="5.37404">
        <ele>1014</ele>
        <time>2020-07-11T08:39:28.595Z</time>
      </trkpt>
      <trkpt lat="44.13623" lon="5.37403">
        <ele>1014</ele>
        <time>2020-07-11T08:39:29.595Z</time>
      </trkpt>
      <trkpt lat="44.13626" lon="5.37402">
        <ele>1015</ele>
        <time>2020-07-11T08:39:30.596Z</time>
      </trkpt>
      <trkpt lat="44.1363" lon="5.37401">
        <ele>1015</ele>
        <time>2020-07-11T08:39:31.596Z</time>
      </trkpt>
      <trkpt lat="44.13633" lon="5.374">
        <ele>1016</ele>
        <time>2020-07-11T08:39:32.596Z</time>
      </trkpt>
      <trkpt lat="44.13636" lon="5.37399">
        <ele>1017</ele>
        <time>2020-07-11T08:39:33.595Z</time>
      </trkpt>
      <trkpt lat="44.13639" lon="5.37397">
        <ele>1017</ele>
        <time>2020-07-11T08:39:34.595Z</time>
      </trkpt>
      <trkpt lat="44.13642" lon="5.37394">
        <ele>1017</ele>
        <time>2020-07-11T08:39:35.595Z</time>
      </trkpt>
      <trkpt lat="44.13645" lon="5.37391">
        <ele>1017</ele>
        <time>2020-07-11T08:39:36.596Z</time>
      </trkpt>
      <trkpt lat="44.13647" lon="5.37387">
        <ele>1017</ele>
        <time>2020-07-11T08:39:37.595Z</time>
      </trkpt>
      <trkpt lat="44.13648" lon="5.37383">
        <ele>1017</ele>
        <time>2020-07-11T08:39:38.596Z</time>
      </trkpt>
      <trkpt lat="44.13649" lon="5.37378">
        <ele>1017</ele>
        <time>2020-07-11T08:39:39.595Z</time>
      </trkpt>
      <trkpt lat="44.13649" lon="5.37374">
        <ele>1018</ele>
        <time>2020-07-11T08:39:40.596Z</time>
      </trkpt>
      <trkpt lat="44.13649" lon="5.37368">
        <ele>1018</ele>
        <time>2020-07-11T08:39:41.596Z</time>
      </trkpt>
      <trkpt lat="44.13648" lon="5.37363">
        <ele>1018</ele>
        <time>2020-07-11T08:39:42.596Z</time>
      </trkpt>
      <trkpt lat="44.13647" lon="5.3736">
        <ele>1019</ele>
        <time>2020-07-11T08:39:43.596Z</time>
      </trkpt>
      <trkpt lat="44.13645" lon="5.37356">
        <ele>1019</ele>
        <time>2020-07-11T08:39:44.596Z</time>
      </trkpt>
      <trkpt lat="44.13642" lon="5.37353">
        <ele>1019</ele>
        <time>2020-07-11T08:39:45.596Z</time>
      </trkpt>
      <trkpt lat="44.1364" lon="5.3735">
        <ele>1020</ele>
        <time>2020-07-11T08:39:46.596Z</time>
      </trkpt>
      <trkpt lat="44.13637" lon="5.37347">
        <ele>1020</ele>
        <time>2020-07-11T08:39:47.596Z</time>
      </trkpt>
      <trkpt lat="44.13634" lon="5.37344">
        <ele>1020</ele>
        <time>2020-07-11T08:39:48.595Z</time>
      </trkpt>
      <trkpt lat="44.13631" lon="5.37342">
        <ele>1019</ele>
        <time>2020-07-11T08:39:49.596Z</time>
      </trkpt>
      <trkpt lat="44.13628" lon="5.3734">
        <ele>1019</ele>
        <time>2020-07-11T08:39:50.596Z</time>
      </trkpt>
      <trkpt lat="44.13625" lon="5.37338">
        <ele>1018</ele>
        <time>2020-07-11T08:39:51.596Z</time>
      </trkpt>
      <trkpt lat="44.13621" lon="5.37335">
        <ele>1018</ele>
        <time>2020-07-11T08:39:52.595Z</time>
      </trkpt>
      <trkpt lat="44.13618" lon="5.37334">
        <ele>1019</ele>
        <time>2020-07-11T08:39:53.596Z</time>
      </trkpt>
      <trkpt lat="44.13614" lon="5.37332">
        <ele>1019</ele>
        <time>2020-07-11T08:39:54.596Z</time>
      </trkpt>
      <trkpt lat="44.13611" lon="5.3733">
        <ele>1020</ele>
        <time>2020-07-11T08:39:55.596Z</time>
      </trkpt>
      <trkpt lat="44.13607" lon="5.37329">
        <ele>1021</ele>
        <time>2020-07-11T08:39:56.596Z</time>
      </trkpt>
      <trkpt lat="44.13604" lon="5.37327">
        <ele>1021</ele>
        <time>2020-07-11T08:39:57.595Z</time>
      </trkpt>
      <trkpt lat="44.136" lon="5.37326">
        <ele>1022</ele>
        <time>2020-07-11T08:39:58.595Z</time>
      </trkpt>
      <trkpt lat="44.13596" lon="5.37323">
        <ele>1023</ele>
        <time>2020-07-11T08:39:59.595Z</time>
      </trkpt>
      <trkpt lat="44.13593" lon="5.37321">
        <ele>1023</ele>
        <time>2020-07-11T08:40:00.595Z</time>
      </trkpt>
      <trkpt lat="44.1359" lon="5.37318">
        <ele>1023</ele>
        <time>2020-07-11T08:40:01.596Z</time>
      </trkpt>
      <trkpt lat="44.13586" lon="5.37316">
        <ele>1024</ele>
        <time>2020-07-11T08:40:02.596Z</time>
      </trkpt>
      <trkpt lat="44.13583" lon="5.37314">
        <ele>1024</ele>
        <time>2020-07-11T08:40:03.596Z</time>
      </trkpt>
      <trkpt lat="44.1358" lon="5.37312">
        <ele>1024</ele>
        <time>2020-07-11T08:40:04.595Z</time>
      </trkpt>
      <trkpt lat="44.13577" lon="5.3731">
        <ele>1024</ele>
        <time>2020-07-11T08:40:05.596Z</time>
      </trkpt>
      <trkpt lat="44.13573" lon="5.37307">
        <ele>1025</ele>
        <time>2020-07-11T08:40:06.596Z</time>
      </trkpt>
      <trkpt lat="44.13571" lon="5.37305">
        <ele>1025</ele>
        <time>2020-07-11T08:40:07.596Z</time>
      </trkpt>
      <trkpt lat="44.13568" lon="5.37303">
        <ele>1025</ele>
        <time>2020-07-11T08:40:08.596Z</time>
      </trkpt>
      <trkpt lat="44.13565" lon="5.373">
        <ele>1025</ele>
        <time>2020-07-11T08:40:09.595Z</time>
      </trkpt>
      <trkpt lat="44.13562" lon="5.37297">
        <ele>1025</ele>
        <time>2020-07-11T08:40:10.596Z</time>
      </trkpt>
      <trkpt lat="44.13559" lon="5.37294">
        <ele>1026</ele>
        <time>2020-07-11T08:40:11.596Z</time>
      </trkpt>
      <trkpt lat="44.13556" lon="5.37291">
        <ele>1026</ele>
        <time>2020-07-11T08:40:12.595Z</time>
      </trkpt>
      <trkpt lat="44.13553" lon="5.37288">
        <ele>1026</ele>
        <time>2020-07-11T08:40:13.595Z</time>
      </trkpt>
      <trkpt lat="44.13551" lon="5.37285">
        <ele>1026</ele>
        <time>2020-07-11T08:40:14.595Z</time>
      </trkpt>
      <trkpt lat="44.13548" lon="5.37281">
        <ele>1026</ele>
        <time>2020-07-11T08:40:15.596Z</time>
      </trkpt>
      <trkpt lat="44.13546" lon="5.37278">
        <ele>1026</ele>
        <time>2020-07-11T08:40:16.595Z</time>
      </trkpt>
      <trkpt lat="44.13543" lon="5.37274">
        <ele>1027</ele>
        <time>2020-07-11T08:40:17.596Z</time>
      </trkpt>
      <trkpt lat="44.1354" lon="5.37271">
        <ele>1027</ele>
        <time>2020-07-11T08:40:18.596Z</time>
      </trkpt>
      <trkpt lat="44.13538" lon="5.37267">
        <ele>1028</ele>
        <time>2020-07-11T08:40:19.596Z</time>
      </trkpt>
      <trkpt lat="44.13535" lon="5.37264">
        <ele>1028</ele>
        <time>2020-07-11T08:40:20.596Z</time>
      </trkpt>
      <trkpt lat="44.13532" lon="5.3726">
        <ele>1028</ele>
        <time>2020-07-11T08:40:21.596Z</time>
      </trkpt>
      <trkpt lat="44.1353" lon="5.37256">
        <ele>1029</ele>
        <time>2020-07-11T08:40:22.595Z</time>
      </trkpt>
      <trkpt lat="44.13527" lon="5.37253">
        <ele>1029</ele>
        <time>2020-07-11T08:40:23.596Z</time>
      </trkpt>
      <trkpt lat="44.13525" lon="5.37249">
        <ele>1029</ele>
        <time>2020-07-11T08:40:24.596Z</time>
      </trkpt>
      <trkpt lat="44.13522" lon="5.37245">
        <ele>1029</ele>
        <time>2020-07-11T08:40:25.595Z</time>
      </trkpt>
      <trkpt lat="44.13519" lon="5.37242">
        <ele>1029</ele>
        <time>2020-07-11T08:40:26.596Z</time>
      </trkpt>
      <trkpt lat="44.13516" lon="5.37238">
        <ele>1030</ele>
        <time>2020-07-11T08:40:27.596Z</time>
      </trkpt>
      <trkpt lat="44.13514" lon="5.37234">
        <ele>1030</ele>
        <time>2020-07-11T08:40:28.596Z</time>
      </trkpt>
      <trkpt lat="44.13511" lon="5.3723">
        <ele>1030</ele>
        <time>2020-07-11T08:40:29.595Z</time>
      </trkpt>
      <trkpt lat="44.13508" lon="5.37226">
        <ele>1031</ele>
        <time>2020-07-11T08:40:30.596Z</time>
      </trkpt>
      <trkpt lat="44.13505" lon="5.37222">
        <ele>1031</ele>
        <time>2020-07-11T08:40:31.595Z</time>
      </trkpt>
      <trkpt lat="44.13502" lon="5.37218">
        <ele>1031</ele>
        <time>2020-07-11T08:40:32.596Z</time>
      </trkpt>
      <trkpt lat="44.13499" lon="5.37214">
        <ele>1032</ele>
        <time>2020-07-11T08:40:33.596Z</time>
      </trkpt>
      <trkpt lat="44.13496" lon="5.3721">
        <ele>1032</ele>
        <time>2020-07-11T08:40:34.596Z</time>
      </trkpt>
      <trkpt lat="44.13493" lon="5.37207">
        <ele>1032</ele>
        <time>2020-07-11T08:40:35.595Z</time>
      </trkpt>
      <trkpt lat="44.1349" lon="5.37203">
        <ele>1032</ele>
        <time>2020-07-11T08:40:36.595Z</time>
      </trkpt>
      <trkpt lat="44.13487" lon="5.37199">
        <ele>1033</ele>
        <time>2020-07-11T08:40:37.596Z</time>
      </trkpt>
      <trkpt lat="44.13484" lon="5.37196">
        <ele>1033</ele>
        <time>2020-07-11T08:40:38.596Z</time>
      </trkpt>
      <trkpt lat="44.13481" lon="5.37192">
        <ele>1033</ele>
        <time>2020-07-11T08:40:39.596Z</time>
      </trkpt>
      <trkpt lat="44.13477" lon="5.37188">
        <ele>1034</ele>
        <time>2020-07-11T08:40:40.596Z</time>
      </trkpt>
      <trkpt lat="44.13474" lon="5.37185">
        <ele>1034</ele>
        <time>2020-07-11T08:40:41.596Z</time>
      </trkpt>
      <trkpt lat="44.13471" lon="5.37181">
        <ele>1034</ele>
        <time>2020-07-11T08:40:42.595Z</time>
      </trkpt>
      <trkpt lat="44.13468" lon="5.37177">
        <ele>1034</ele>
        <time>2020-07-11T08:40:43.596Z</time>
      </trkpt>
      <trkpt lat="44.13465" lon="5.37173">
        <ele>1034</ele>
        <time>2020-07-11T08:40:44.595Z</time>
      </trkpt>
      <trkpt lat="44.13462" lon="5.37169">
        <ele>1034</ele>
        <time>2020-07-11T08:40:45.595Z</time>
      </trkpt>
      <trkpt lat="44.1346" lon="5.37166">
        <ele>1034</ele>
        <time>2020-07-11T08:40:46.596Z</time>
      </trkpt>
      <trkpt lat="44.13457" lon="5.37162">
        <ele>1034</ele>
        <time>2020-07-11T08:40:47.596Z</time>
      </trkpt>
      <trkpt lat="44.13454" lon="5.37158">
        <ele>1034</ele>
        <time>2020-07-11T08:40:48.596Z</time>
      </trkpt>
      <trkpt lat="44.13451" lon="5.37155">
        <ele>1035</ele>
        <time>2020-07-11T08:40:49.596Z</time>
      </trkpt>
      <trkpt lat="44.13448" lon="5.37152">
        <ele>1036</ele>
        <time>2020-07-11T08:40:50.596Z</time>
      </trkpt>
      <trkpt lat="44.13445" lon="5.37148">
        <ele>1036</ele>
        <time>2020-07-11T08:40:51.596Z</time>
      </trkpt>
      <trkpt lat="44.13442" lon="5.37144">
        <ele>1036</ele>
        <time>2020-07-11T08:40:52.595Z</time>
      </trkpt>
      <trkpt lat="44.1344" lon="5.3714">
        <ele>1036</ele>
        <time>2020-07-11T08:40:53.596Z</time>
      </trkpt>
      <trkpt lat="44.13437" lon="5.37136">
        <ele>1037</ele>
        <time>2020-07-11T08:40:54.596Z</time>
      </trkpt>
      <trkpt lat="44.13435" lon="5.37131">
        <ele>1037</ele>
        <time>2020-07-11T08:40:55.596Z</time>
      </trkpt>
      <trkpt lat="44.13433" lon="5.37126">
        <ele>1037</ele>
        <time>2020-07-11T08:40:56.596Z</time>
      </trkpt>
      <trkpt lat="44.13432" lon="5.37121">
        <ele>1037</ele>
        <time>2020-07-11T08:40:57.595Z</time>
      </trkpt>
      <trkpt lat="44.13431" lon="5.37115">
        <ele>1037</ele>
        <time>2020-07-11T08:40:58.596Z</time>
      </trkpt>
      <trkpt lat="44.13431" lon="5.3711">
        <ele>1037</ele>
        <time>2020-07-11T08:40:59.596Z</time>
      </trkpt>
      <trkpt lat="44.13432" lon="5.37104">
        <ele>1037</ele>
        <time>2020-07-11T08:41:00.596Z</time>
      </trkpt>
      <trkpt lat="44.13433" lon="5.37098">
        <ele>1037</ele>
        <time>2020-07-11T08:41:01.596Z</time>
      </trkpt>
      <trkpt lat="44.13434" lon="5.37093">
        <ele>1038</ele>
        <time>2020-07-11T08:41:02.595Z</time>
      </trkpt>
      <trkpt lat="44.13436" lon="5.37087">
        <ele>1038</ele>
        <time>2020-07-11T08:41:03.595Z</time>
      </trkpt>
      <trkpt lat="44.13439" lon="5.37083">
        <ele>1038</ele>
        <time>2020-07-11T08:41:04.596Z</time>
      </trkpt>
      <trkpt lat="44.13442" lon="5.37078">
        <ele>1038</ele>
        <time>2020-07-11T08:41:05.596Z</time>
      </trkpt>
      <trkpt lat="44.13445" lon="5.37075">
        <ele>1038</ele>
        <time>2020-07-11T08:41:06.596Z</time>
      </trkpt>
      <trkpt lat="44.13448" lon="5.37071">
        <ele>1038</ele>
        <time>2020-07-11T08:41:07.596Z</time>
      </trkpt>
      <trkpt lat="44.13451" lon="5.37068">
        <ele>1038</ele>
        <time>2020-07-11T08:41:08.596Z</time>
      </trkpt>
      <trkpt lat="44.13455" lon="5.37065">
        <ele>1038</ele>
        <time>2020-07-11T08:41:09.595Z</time>
      </trkpt>
      <trkpt lat="44.13458" lon="5.37062">
        <ele>1038</ele>
        <time>2020-07-11T08:41:10.596Z</time>
      </trkpt>
      <trkpt lat="44.13462" lon="5.3706">
        <ele>1038</ele>
        <time>2020-07-11T08:41:11.596Z</time>
      </trkpt>
      <trkpt lat="44.13465" lon="5.37057">
        <ele>1039</ele>
        <time>2020-07-11T08:41:12.596Z</time>
      </trkpt>
      <trkpt lat="44.13469" lon="5.37055">
        <ele>1039</ele>
        <time>2020-07-11T08:41:13.596Z</time>
      </trkpt>
      <trkpt lat="44.13472" lon="5.37053">
        <ele>1039</ele>
        <time>2020-07-11T08:41:14.595Z</time>
      </trkpt>
      <trkpt lat="44.13476" lon="5.3705">
        <ele>1039</ele>
        <time>2020-07-11T08:41:15.596Z</time>
      </trkpt>
      <trkpt lat="44.13479" lon="5.37048">
        <ele>1040</ele>
        <time>2020-07-11T08:41:16.595Z</time>
      </trkpt>
      <trkpt lat="44.13483" lon="5.37046">
        <ele>1040</ele>
        <time>2020-07-11T08:41:17.596Z</time>
      </trkpt>
      <trkpt lat="44.13486" lon="5.37044">
        <ele>1040</ele>
        <time>2020-07-11T08:41:18.596Z</time>
      </trkpt>
      <trkpt lat="44.1349" lon="5.37042">
        <ele>1040</ele>
        <time>2020-07-11T08:41:19.595Z</time>
      </trkpt>
      <trkpt lat="44.13494" lon="5.3704">
        <ele>1040</ele>
        <time>2020-07-11T08:41:20.596Z</time>
      </trkpt>
      <trkpt lat="44.13497" lon="5.37038">
        <ele>1040</ele>
        <time>2020-07-11T08:41:21.596Z</time>
      </trkpt>
      <trkpt lat="44.13501" lon="5.37035">
        <ele>1040</ele>
        <time>2020-07-11T08:41:22.596Z</time>
      </trkpt>
      <trkpt lat="44.13505" lon="5.37032">
        <ele>1040</ele>
        <time>2020-07-11T08:41:23.595Z</time>
      </trkpt>
      <trkpt lat="44.13508" lon="5.37029">
        <ele>1040</ele>
        <time>2020-07-11T08:41:24.595Z</time>
      </trkpt>
      <trkpt lat="44.13512" lon="5.37027">
        <ele>1041</ele>
        <time>2020-07-11T08:41:25.596Z</time>
      </trkpt>
      <trkpt lat="44.13515" lon="5.37024">
        <ele>1041</ele>
        <time>2020-07-11T08:41:26.595Z</time>
      </trkpt>
      <trkpt lat="44.13519" lon="5.37022">
        <ele>1041</ele>
        <time>2020-07-11T08:41:27.595Z</time>
      </trkpt>
      <trkpt lat="44.13522" lon="5.37019">
        <ele>1042</ele>
        <time>2020-07-11T08:41:28.596Z</time>
      </trkpt>
      <trkpt lat="44.13526" lon="5.37017">
        <ele>1042</ele>
        <time>2020-07-11T08:41:29.596Z</time>
      </trkpt>
      <trkpt lat="44.13529" lon="5.37014">
        <ele>1042</ele>
        <time>2020-07-11T08:41:30.596Z</time>
      </trkpt>
      <trkpt lat="44.13532" lon="5.37011">
        <ele>1042</ele>
        <time>2020-07-11T08:41:31.596Z</time>
      </trkpt>
      <trkpt lat="44.13536" lon="5.37009">
        <ele>1042</ele>
        <time>2020-07-11T08:41:32.596Z</time>
      </trkpt>
      <trkpt lat="44.13539" lon="5.37007">
        <ele>1043</ele>
        <time>2020-07-11T08:41:33.595Z</time>
      </trkpt>
      <trkpt lat="44.13542" lon="5.37004">
        <ele>1043</ele>
        <time>2020-07-11T08:41:34.595Z</time>
      </trkpt>
      <trkpt lat="44.13546" lon="5.37002">
        <ele>1044</ele>
        <time>2020-07-11T08:41:35.596Z</time>
      </trkpt>
      <trkpt lat="44.13549" lon="5.37">
        <ele>1044</ele>
        <time>2020-07-11T08:41:36.596Z</time>
      </trkpt>
      <trkpt lat="44.13552" lon="5.36998">
        <ele>1044</ele>
        <time>2020-07-11T08:41:37.596Z</time>
      </trkpt>
      <trkpt lat="44.13555" lon="5.36996">
        <ele>1044</ele>
        <time>2020-07-11T08:41:38.596Z</time>
      </trkpt>
      <trkpt lat="44.13558" lon="5.36994">
        <ele>1044</ele>
        <time>2020-07-11T08:41:39.595Z</time>
      </trkpt>
      <trkpt lat="44.13561" lon="5.36992">
        <ele>1044</ele>
        <time>2020-07-11T08:41:40.596Z</time>
      </trkpt>
      <trkpt lat="44.13565" lon="5.36989">
        <ele>1044</ele>
        <time>2020-07-11T08:41:41.596Z</time>
      </trkpt>
      <trkpt lat="44.13568" lon="5.36987">
        <ele>1043</ele>
        <time>2020-07-11T08:41:42.596Z</time>
      </trkpt>
      <trkpt lat="44.13571" lon="5.36985">
        <ele>1043</ele>
        <time>2020-07-11T08:41:43.596Z</time>
      </trkpt>
      <trkpt lat="44.13575" lon="5.36983">
        <ele>1044</ele>
        <time>2020-07-11T08:41:44.596Z</time>
      </trkpt>
      <trkpt lat="44.13578" lon="5.3698">
        <ele>1044</ele>
        <time>2020-07-11T08:41:45.595Z</time>
      </trkpt>
      <trkpt lat="44.13581" lon="5.36978">
        <ele>1045</ele>
        <time>2020-07-11T08:41:46.596Z</time>
      </trkpt>
      <trkpt lat="44.13585" lon="5.36976">
        <ele>1045</ele>
        <time>2020-07-11T08:41:47.595Z</time>
      </trkpt>
      <trkpt lat="44.13588" lon="5.36974">
        <ele>1045</ele>
        <time>2020-07-11T08:41:48.596Z</time>
      </trkpt>
      <trkpt lat="44.13591" lon="5.36973">
        <ele>1045</ele>
        <time>2020-07-11T08:41:49.596Z</time>
      </trkpt>
      <trkpt lat="44.13595" lon="5.36971">
        <ele>1046</ele>
        <time>2020-07-11T08:41:50.595Z</time>
      </trkpt>
      <trkpt lat="44.13598" lon="5.36969">
        <ele>1046</ele>
        <time>2020-07-11T08:41:51.596Z</time>
      </trkpt>
      <trkpt lat="44.13601" lon="5.36967">
        <ele>1046</ele>
        <time>2020-07-11T08:41:52.596Z</time>
      </trkpt>
      <trkpt lat="44.13605" lon="5.36966">
        <ele>1046</ele>
        <time>2020-07-11T08:41:53.596Z</time>
      </trkpt>
      <trkpt lat="44.13608" lon="5.36964">
        <ele>1047</ele>
        <time>2020-07-11T08:41:54.595Z</time>
      </trkpt>
      <trkpt lat="44.13612" lon="5.36962">
        <ele>1047</ele>
        <time>2020-07-11T08:41:55.595Z</time>
      </trkpt>
      <trkpt lat="44.13615" lon="5.36961">
        <ele>1047</ele>
        <time>2020-07-11T08:41:56.596Z</time>
      </trkpt>
      <trkpt lat="44.13619" lon="5.3696">
        <ele>1047</ele>
        <time>2020-07-11T08:41:57.596Z</time>
      </trkpt>
      <trkpt lat="44.13623" lon="5.36959">
        <ele>1047</ele>
        <time>2020-07-11T08:41:58.596Z</time>
      </trkpt>
      <trkpt lat="44.13626" lon="5.36958">
        <ele>1046</ele>
        <time>2020-07-11T08:41:59.596Z</time>
      </trkpt>
      <trkpt lat="44.1363" lon="5.36957">
        <ele>1046</ele>
        <time>2020-07-11T08:42:00.595Z</time>
      </trkpt>
      <trkpt lat="44.13634" lon="5.36955">
        <ele>1047</ele>
        <time>2020-07-11T08:42:01.596Z</time>
      </trkpt>
      <trkpt lat="44.13637" lon="5.36954">
        <ele>1047</ele>
        <time>2020-07-11T08:42:02.596Z</time>
      </trkpt>
      <trkpt lat="44.13641" lon="5.36953">
        <ele>1048</ele>
        <time>2020-07-11T08:42:03.596Z</time>
      </trkpt>
      <trkpt lat="44.13645" lon="5.36953">
        <ele>1049</ele>
        <time>2020-07-11T08:42:04.595Z</time>
      </trkpt>
      <trkpt lat="44.13648" lon="5.36952">
        <ele>1049</ele>
        <time>2020-07-11T08:42:05.596Z</time>
      </trkpt>
      <trkpt lat="44.13652" lon="5.36951">
        <ele>1050</ele>
        <time>2020-07-11T08:42:06.595Z</time>
      </trkpt>
      <trkpt lat="44.13656" lon="5.3695">
        <ele>1050</ele>
        <time>2020-07-11T08:42:07.595Z</time>
      </trkpt>
      <trkpt lat="44.1366" lon="5.36949">
        <ele>1051</ele>
        <time>2020-07-11T08:42:08.596Z</time>
      </trkpt>
      <trkpt lat="44.13664" lon="5.36948">
        <ele>1051</ele>
        <time>2020-07-11T08:42:09.595Z</time>
      </trkpt>
      <trkpt lat="44.13668" lon="5.36947">
        <ele>1052</ele>
        <time>2020-07-11T08:42:10.596Z</time>
      </trkpt>
      <trkpt lat="44.13672" lon="5.36945">
        <ele>1052</ele>
        <time>2020-07-11T08:42:11.595Z</time>
      </trkpt>
      <trkpt lat="44.13675" lon="5.36944">
        <ele>1053</ele>
        <time>2020-07-11T08:42:12.596Z</time>
      </trkpt>
      <trkpt lat="44.13679" lon="5.36943">
        <ele>1053</ele>
        <time>2020-07-11T08:42:13.595Z</time>
      </trkpt>
      <trkpt lat="44.13683" lon="5.36943">
        <ele>1053</ele>
        <time>2020-07-11T08:42:14.595Z</time>
      </trkpt>
      <trkpt lat="44.13687" lon="5.36942">
        <ele>1053</ele>
        <time>2020-07-11T08:42:15.595Z</time>
      </trkpt>
      <trkpt lat="44.13691" lon="5.36941">
        <ele>1054</ele>
        <time>2020-07-11T08:42:16.596Z</time>
      </trkpt>
      <trkpt lat="44.13694" lon="5.36939">
        <ele>1054</ele>
        <time>2020-07-11T08:42:17.596Z</time>
      </trkpt>
      <trkpt lat="44.13698" lon="5.36938">
        <ele>1055</ele>
        <time>2020-07-11T08:42:18.595Z</time>
      </trkpt>
      <trkpt lat="44.13702" lon="5.36936">
        <ele>1055</ele>
        <time>2020-07-11T08:42:19.596Z</time>
      </trkpt>
      <trkpt lat="44.13705" lon="5.36935">
        <ele>1056</ele>
        <time>2020-07-11T08:42:20.596Z</time>
      </trkpt>
      <trkpt lat="44.13709" lon="5.36934">
        <ele>1056</ele>
        <time>2020-07-11T08:42:21.596Z</time>
      </trkpt>
      <trkpt lat="44.13712" lon="5.36933">
        <ele>1056</ele>
        <time>2020-07-11T08:42:22.596Z</time>
      </trkpt>
      <trkpt lat="44.13716" lon="5.36931">
        <ele>1057</ele>
        <time>2020-07-11T08:42:23.595Z</time>
      </trkpt>
      <trkpt lat="44.13719" lon="5.3693">
        <ele>1057</ele>
        <time>2020-07-11T08:42:24.596Z</time>
      </trkpt>
      <trkpt lat="44.13723" lon="5.36928">
        <ele>1058</ele>
        <time>2020-07-11T08:42:25.596Z</time>
      </trkpt>
      <trkpt lat="44.13727" lon="5.36927">
        <ele>1058</ele>
        <time>2020-07-11T08:42:26.596Z</time>
      </trkpt>
      <trkpt lat="44.1373" lon="5.36925">
        <ele>1059</ele>
        <time>2020-07-11T08:42:27.596Z</time>
      </trkpt>
      <trkpt lat="44.13734" lon="5.36923">
        <ele>1060</ele>
        <time>2020-07-11T08:42:28.596Z</time>
      </trkpt>
      <trkpt lat="44.13738" lon="5.3692">
        <ele>1060</ele>
        <time>2020-07-11T08:42:29.596Z</time>
      </trkpt>
      <trkpt lat="44.13741" lon="5.36919">
        <ele>1060</ele>
        <time>2020-07-11T08:42:30.596Z</time>
      </trkpt>
      <trkpt lat="44.13744" lon="5.36916">
        <ele>1061</ele>
        <time>2020-07-11T08:42:31.596Z</time>
      </trkpt>
      <trkpt lat="44.13748" lon="5.36914">
        <ele>1061</ele>
        <time>2020-07-11T08:42:32.596Z</time>
      </trkpt>
      <trkpt lat="44.13751" lon="5.36912">
        <ele>1061</ele>
        <time>2020-07-11T08:42:33.596Z</time>
      </trkpt>
      <trkpt lat="44.13755" lon="5.3691">
        <ele>1061</ele>
        <time>2020-07-11T08:42:34.596Z</time>
      </trkpt>
      <trkpt lat="44.13758" lon="5.36907">
        <ele>1061</ele>
        <time>2020-07-11T08:42:35.596Z</time>
      </trkpt>
      <trkpt lat="44.13761" lon="5.36905">
        <ele>1061</ele>
        <time>2020-07-11T08:42:36.596Z</time>
      </trkpt>
      <trkpt lat="44.13765" lon="5.36902">
        <ele>1061</ele>
        <time>2020-07-11T08:42:37.596Z</time>
      </trkpt>
      <trkpt lat="44.13768" lon="5.36899">
        <ele>1061</ele>
        <time>2020-07-11T08:42:38.596Z</time>
      </trkpt>
      <trkpt lat="44.13771" lon="5.36897">
        <ele>1062</ele>
        <time>2020-07-11T08:42:39.596Z</time>
      </trkpt>
      <trkpt lat="44.13774" lon="5.36893">
        <ele>1062</ele>
        <time>2020-07-11T08:42:40.596Z</time>
      </trkpt>
      <trkpt lat="44.13777" lon="5.3689">
        <ele>1062</ele>
        <time>2020-07-11T08:42:41.596Z</time>
      </trkpt>
      <trkpt lat="44.1378" lon="5.36886">
        <ele>1063</ele>
        <time>2020-07-11T08:42:42.595Z</time>
      </trkpt>
      <trkpt lat="44.13782" lon="5.36883">
        <ele>1063</ele>
        <time>2020-07-11T08:42:43.596Z</time>
      </trkpt>
      <trkpt lat="44.13785" lon="5.36879">
        <ele>1063</ele>
        <time>2020-07-11T08:42:44.596Z</time>
      </trkpt>
      <trkpt lat="44.13788" lon="5.36876">
        <ele>1063</ele>
        <time>2020-07-11T08:42:45.596Z</time>
      </trkpt>
      <trkpt lat="44.13791" lon="5.36873">
        <ele>1063</ele>
        <time>2020-07-11T08:42:46.596Z</time>
      </trkpt>
      <trkpt lat="44.13794" lon="5.36869">
        <ele>1063</ele>
        <time>2020-07-11T08:42:47.596Z</time>
      </trkpt>
      <trkpt lat="44.13796" lon="5.36866">
        <ele>1063</ele>
        <time>2020-07-11T08:42:48.595Z</time>
      </trkpt>
      <trkpt lat="44.13799" lon="5.36862">
        <ele>1063</ele>
        <time>2020-07-11T08:42:49.596Z</time>
      </trkpt>
      <trkpt lat="44.13802" lon="5.36859">
        <ele>1063</ele>
        <time>2020-07-11T08:42:50.595Z</time>
      </trkpt>
      <trkpt lat="44.13805" lon="5.36855">
        <ele>1063</ele>
        <time>2020-07-11T08:42:51.596Z</time>
      </trkpt>
      <trkpt lat="44.13807" lon="5.36851">
        <ele>1063</ele>
        <time>2020-07-11T08:42:52.596Z</time>
      </trkpt>
      <trkpt lat="44.1381" lon="5.36847">
        <ele>1064</ele>
        <time>2020-07-11T08:42:53.595Z</time>
      </trkpt>
      <trkpt lat="44.13813" lon="5.36844">
        <ele>1064</ele>
        <time>2020-07-11T08:42:54.596Z</time>
      </trkpt>
      <trkpt lat="44.13816" lon="5.36841">
        <ele>1064</ele>
        <time>2020-07-11T08:42:55.595Z</time>
      </trkpt>
      <trkpt lat="44.13819" lon="5.36838">
        <ele>1064</ele>
        <time>2020-07-11T08:42:56.595Z</time>
      </trkpt>
      <trkpt lat="44.13821" lon="5.36835">
        <ele>1064</ele>
        <time>2020-07-11T08:42:57.595Z</time>
      </trkpt>
      <trkpt lat="44.13824" lon="5.36832">
        <ele>1065</ele>
        <time>2020-07-11T08:42:58.596Z</time>
      </trkpt>
      <trkpt lat="44.13827" lon="5.36829">
        <ele>1065</ele>
        <time>2020-07-11T08:42:59.596Z</time>
      </trkpt>
      <trkpt lat="44.13831" lon="5.36826">
        <ele>1065</ele>
        <time>2020-07-11T08:43:00.595Z</time>
      </trkpt>
      <trkpt lat="44.13834" lon="5.36823">
        <ele>1065</ele>
        <time>2020-07-11T08:43:01.596Z</time>
      </trkpt>
      <trkpt lat="44.13837" lon="5.3682">
        <ele>1065</ele>
        <time>2020-07-11T08:43:02.596Z</time>
      </trkpt>
      <trkpt lat="44.1384" lon="5.36818">
        <ele>1065</ele>
        <time>2020-07-11T08:43:03.596Z</time>
      </trkpt>
      <trkpt lat="44.13843" lon="5.36815">
        <ele>1065</ele>
        <time>2020-07-11T08:43:04.595Z</time>
      </trkpt>
      <trkpt lat="44.13846" lon="5.36812">
        <ele>1065</ele>
        <time>2020-07-11T08:43:05.596Z</time>
      </trkpt>
      <trkpt lat="44.13849" lon="5.3681">
        <ele>1066</ele>
        <time>2020-07-11T08:43:06.596Z</time>
      </trkpt>
      <trkpt lat="44.13852" lon="5.36808">
        <ele>1066</ele>
        <time>2020-07-11T08:43:07.596Z</time>
      </trkpt>
      <trkpt lat="44.13856" lon="5.36806">
        <ele>1066</ele>
        <time>2020-07-11T08:43:08.596Z</time>
      </trkpt>
      <trkpt lat="44.13859" lon="5.36804">
        <ele>1066</ele>
        <time>2020-07-11T08:43:09.595Z</time>
      </trkpt>
      <trkpt lat="44.13863" lon="5.36803">
        <ele>1066</ele>
        <time>2020-07-11T08:43:10.596Z</time>
      </trkpt>
      <trkpt lat="44.13866" lon="5.36801">
        <ele>1066</ele>
        <time>2020-07-11T08:43:11.596Z</time>
      </trkpt>
      <trkpt lat="44.1387" lon="5.36799">
        <ele>1067</ele>
        <time>2020-07-11T08:43:12.595Z</time>
      </trkpt>
      <trkpt lat="44.13873" lon="5.36797">
        <ele>1068</ele>
        <time>2020-07-11T08:43:13.596Z</time>
      </trkpt>
      <trkpt lat="44.13877" lon="5.36795">
        <ele>1068</ele>
        <time>2020-07-11T08:43:14.596Z</time>
      </trkpt>
      <trkpt lat="44.1388" lon="5.36793">
        <ele>1069</ele>
        <time>2020-07-11T08:43:15.596Z</time>
      </trkpt>
      <trkpt lat="44.13883" lon="5.36792">
        <ele>1069</ele>
        <time>2020-07-11T08:43:16.596Z</time>
      </trkpt>
      <trkpt lat="44.13887" lon="5.3679">
        <ele>1070</ele>
        <time>2020-07-11T08:43:17.596Z</time>
      </trkpt>
      <trkpt lat="44.1389" lon="5.36789">
        <ele>1070</ele>
        <time>2020-07-11T08:43:18.596Z</time>
      </trkpt>
      <trkpt lat="44.13894" lon="5.36788">
        <ele>1070</ele>
        <time>2020-07-11T08:43:19.596Z</time>
      </trkpt>
      <trkpt lat="44.13897" lon="5.36787">
        <ele>1070</ele>
        <time>2020-07-11T08:43:20.596Z</time>
      </trkpt>
      <trkpt lat="44.13901" lon="5.36786">
        <ele>1070</ele>
        <time>2020-07-11T08:43:21.596Z</time>
      </trkpt>
      <trkpt lat="44.13904" lon="5.36786">
        <ele>1070</ele>
        <time>2020-07-11T08:43:22.596Z</time>
      </trkpt>
      <trkpt lat="44.13908" lon="5.36785">
        <ele>1070</ele>
        <time>2020-07-11T08:43:23.595Z</time>
      </trkpt>
      <trkpt lat="44.13911" lon="5.36784">
        <ele>1071</ele>
        <time>2020-07-11T08:43:24.596Z</time>
      </trkpt>
      <trkpt lat="44.13915" lon="5.36784">
        <ele>1071</ele>
        <time>2020-07-11T08:43:25.596Z</time>
      </trkpt>
      <trkpt lat="44.13918" lon="5.36784">
        <ele>1071</ele>
        <time>2020-07-11T08:43:26.596Z</time>
      </trkpt>
      <trkpt lat="44.13921" lon="5.36785">
        <ele>1071</ele>
        <time>2020-07-11T08:43:27.596Z</time>
      </trkpt>
      <trkpt lat="44.13925" lon="5.36785">
        <ele>1071</ele>
        <time>2020-07-11T08:43:28.595Z</time>
      </trkpt>
      <trkpt lat="44.13928" lon="5.36785">
        <ele>1071</ele>
        <time>2020-07-11T08:43:29.595Z</time>
      </trkpt>
      <trkpt lat="44.13931" lon="5.36785">
        <ele>1071</ele>
        <time>2020-07-11T08:43:30.596Z</time>
      </trkpt>
      <trkpt lat="44.13934" lon="5.36786">
        <ele>1071</ele>
        <time>2020-07-11T08:43:31.596Z</time>
      </trkpt>
      <trkpt lat="44.13938" lon="5.36786">
        <ele>1071</ele>
        <time>2020-07-11T08:43:32.596Z</time>
      </trkpt>
      <trkpt lat="44.13941" lon="5.36786">
        <ele>1072</ele>
        <time>2020-07-11T08:43:33.596Z</time>
      </trkpt>
      <trkpt lat="44.13945" lon="5.36786">
        <ele>1072</ele>
        <time>2020-07-11T08:43:34.595Z</time>
      </trkpt>
      <trkpt lat="44.13948" lon="5.36787">
        <ele>1072</ele>
        <time>2020-07-11T08:43:35.596Z</time>
      </trkpt>
      <trkpt lat="44.13951" lon="5.36787">
        <ele>1073</ele>
        <time>2020-07-11T08:43:36.595Z</time>
      </trkpt>
      <trkpt lat="44.13954" lon="5.36787">
        <ele>1073</ele>
        <time>2020-07-11T08:43:37.596Z</time>
      </trkpt>
      <trkpt lat="44.13958" lon="5.36787">
        <ele>1074</ele>
        <time>2020-07-11T08:43:38.595Z</time>
      </trkpt>
      <trkpt lat="44.13961" lon="5.36788">
        <ele>1073</ele>
        <time>2020-07-11T08:43:39.596Z</time>
      </trkpt>
      <trkpt lat="44.13965" lon="5.36788">
        <ele>1073</ele>
        <time>2020-07-11T08:43:40.596Z</time>
      </trkpt>
      <trkpt lat="44.13968" lon="5.36788">
        <ele>1073</ele>
        <time>2020-07-11T08:43:41.595Z</time>
      </trkpt>
      <trkpt lat="44.13971" lon="5.36789">
        <ele>1073</ele>
        <time>2020-07-11T08:43:42.596Z</time>
      </trkpt>
      <trkpt lat="44.13974" lon="5.36789">
        <ele>1073</ele>
        <time>2020-07-11T08:43:43.595Z</time>
      </trkpt>
      <trkpt lat="44.13978" lon="5.3679">
        <ele>1073</ele>
        <time>2020-07-11T08:43:44.596Z</time>
      </trkpt>
      <trkpt lat="44.13981" lon="5.36791">
        <ele>1073</ele>
        <time>2020-07-11T08:43:45.596Z</time>
      </trkpt>
      <trkpt lat="44.13984" lon="5.36792">
        <ele>1073</ele>
        <time>2020-07-11T08:43:46.595Z</time>
      </trkpt>
      <trkpt lat="44.13987" lon="5.36793">
        <ele>1072</ele>
        <time>2020-07-11T08:43:47.596Z</time>
      </trkpt>
      <trkpt lat="44.1399" lon="5.36794">
        <ele>1072</ele>
        <time>2020-07-11T08:43:48.596Z</time>
      </trkpt>
      <trkpt lat="44.13994" lon="5.36794">
        <ele>1072</ele>
        <time>2020-07-11T08:43:49.596Z</time>
      </trkpt>
      <trkpt lat="44.13997" lon="5.36794">
        <ele>1072</ele>
        <time>2020-07-11T08:43:50.596Z</time>
      </trkpt>
      <trkpt lat="44.14" lon="5.36795">
        <ele>1072</ele>
        <time>2020-07-11T08:43:51.596Z</time>
      </trkpt>
      <trkpt lat="44.14003" lon="5.36795">
        <ele>1072</ele>
        <time>2020-07-11T08:43:52.596Z</time>
      </trkpt>
      <trkpt lat="44.14007" lon="5.36796">
        <ele>1072</ele>
        <time>2020-07-11T08:43:53.596Z</time>
      </trkpt>
      <trkpt lat="44.14011" lon="5.36798">
        <ele>1072</ele>
        <time>2020-07-11T08:43:54.595Z</time>
      </trkpt>
      <trkpt lat="44.14013" lon="5.36799">
        <ele>1073</ele>
        <time>2020-07-11T08:43:55.596Z</time>
      </trkpt>
      <trkpt lat="44.14017" lon="5.368">
        <ele>1073</ele>
        <time>2020-07-11T08:43:56.596Z</time>
      </trkpt>
      <trkpt lat="44.14021" lon="5.36802">
        <ele>1074</ele>
        <time>2020-07-11T08:43:57.596Z</time>
      </trkpt>
      <trkpt lat="44.14024" lon="5.36803">
        <ele>1075</ele>
        <time>2020-07-11T08:43:58.596Z</time>
      </trkpt>
      <trkpt lat="44.14029" lon="5.36805">
        <ele>1076</ele>
        <time>2020-07-11T08:43:59.596Z</time>
      </trkpt>
      <trkpt lat="44.14031" lon="5.36806">
        <ele>1077</ele>
        <time>2020-07-11T08:44:00.595Z</time>
      </trkpt>
      <trkpt lat="44.14034" lon="5.36808">
        <ele>1078</ele>
        <time>2020-07-11T08:44:01.596Z</time>
      </trkpt>
      <trkpt lat="44.14038" lon="5.36809">
        <ele>1078</ele>
        <time>2020-07-11T08:44:02.596Z</time>
      </trkpt>
      <trkpt lat="44.14041" lon="5.36811">
        <ele>1079</ele>
        <time>2020-07-11T08:44:03.596Z</time>
      </trkpt>
      <trkpt lat="44.14044" lon="5.36813">
        <ele>1079</ele>
        <time>2020-07-11T08:44:04.596Z</time>
      </trkpt>
      <trkpt lat="44.14047" lon="5.36814">
        <ele>1079</ele>
        <time>2020-07-11T08:44:05.596Z</time>
      </trkpt>
      <trkpt lat="44.1405" lon="5.36815">
        <ele>1080</ele>
        <time>2020-07-11T08:44:06.596Z</time>
      </trkpt>
      <trkpt lat="44.14053" lon="5.36816">
        <ele>1080</ele>
        <time>2020-07-11T08:44:07.596Z</time>
      </trkpt>
      <trkpt lat="44.14057" lon="5.36818">
        <ele>1080</ele>
        <time>2020-07-11T08:44:08.596Z</time>
      </trkpt>
      <trkpt lat="44.14059" lon="5.3682">
        <ele>1081</ele>
        <time>2020-07-11T08:44:09.596Z</time>
      </trkpt>
      <trkpt lat="44.14062" lon="5.36822">
        <ele>1081</ele>
        <time>2020-07-11T08:44:10.595Z</time>
      </trkpt>
      <trkpt lat="44.14066" lon="5.36825">
        <ele>1081</ele>
        <time>2020-07-11T08:44:11.596Z</time>
      </trkpt>
      <trkpt lat="44.14069" lon="5.36827">
        <ele>1081</ele>
        <time>2020-07-11T08:44:12.596Z</time>
      </trkpt>
      <trkpt lat="44.14072" lon="5.36829">
        <ele>1082</ele>
        <time>2020-07-11T08:44:13.596Z</time>
      </trkpt>
      <trkpt lat="44.14075" lon="5.36831">
        <ele>1082</ele>
        <time>2020-07-11T08:44:14.596Z</time>
      </trkpt>
      <trkpt lat="44.14078" lon="5.36834">
        <ele>1082</ele>
        <time>2020-07-11T08:44:15.596Z</time>
      </trkpt>
      <trkpt lat="44.14081" lon="5.36838">
        <ele>1082</ele>
        <time>2020-07-11T08:44:16.596Z</time>
      </trkpt>
      <trkpt lat="44.14084" lon="5.3684">
        <ele>1082</ele>
        <time>2020-07-11T08:44:17.596Z</time>
      </trkpt>
      <trkpt lat="44.14087" lon="5.36843">
        <ele>1082</ele>
        <time>2020-07-11T08:44:18.596Z</time>
      </trkpt>
      <trkpt lat="44.1409" lon="5.36845">
        <ele>1083</ele>
        <time>2020-07-11T08:44:19.595Z</time>
      </trkpt>
      <trkpt lat="44.14093" lon="5.36848">
        <ele>1084</ele>
        <time>2020-07-11T08:44:20.596Z</time>
      </trkpt>
      <trkpt lat="44.14096" lon="5.36851">
        <ele>1085</ele>
        <time>2020-07-11T08:44:21.596Z</time>
      </trkpt>
      <trkpt lat="44.14099" lon="5.36853">
        <ele>1085</ele>
        <time>2020-07-11T08:44:22.596Z</time>
      </trkpt>
      <trkpt lat="44.14102" lon="5.36856">
        <ele>1085</ele>
        <time>2020-07-11T08:44:23.595Z</time>
      </trkpt>
      <trkpt lat="44.14105" lon="5.36859">
        <ele>1085</ele>
        <time>2020-07-11T08:44:24.596Z</time>
      </trkpt>
      <trkpt lat="44.14108" lon="5.36862">
        <ele>1086</ele>
        <time>2020-07-11T08:44:25.596Z</time>
      </trkpt>
      <trkpt lat="44.14111" lon="5.36865">
        <ele>1086</ele>
        <time>2020-07-11T08:44:26.596Z</time>
      </trkpt>
      <trkpt lat="44.14114" lon="5.36868">
        <ele>1086</ele>
        <time>2020-07-11T08:44:27.596Z</time>
      </trkpt>
      <trkpt lat="44.14116" lon="5.36871">
        <ele>1086</ele>
        <time>2020-07-11T08:44:28.596Z</time>
      </trkpt>
      <trkpt lat="44.14119" lon="5.36875">
        <ele>1086</ele>
        <time>2020-07-11T08:44:29.596Z</time>
      </trkpt>
      <trkpt lat="44.14121" lon="5.36877">
        <ele>1086</ele>
        <time>2020-07-11T08:44:30.596Z</time>
      </trkpt>
      <trkpt lat="44.14124" lon="5.36881">
        <ele>1087</ele>
        <time>2020-07-11T08:44:31.596Z</time>
      </trkpt>
      <trkpt lat="44.14127" lon="5.36884">
        <ele>1087</ele>
        <time>2020-07-11T08:44:32.596Z</time>
      </trkpt>
      <trkpt lat="44.14129" lon="5.36887">
        <ele>1087</ele>
        <time>2020-07-11T08:44:33.595Z</time>
      </trkpt>
      <trkpt lat="44.14132" lon="5.36891">
        <ele>1088</ele>
        <time>2020-07-11T08:44:34.595Z</time>
      </trkpt>
      <trkpt lat="44.14135" lon="5.36894">
        <ele>1088</ele>
        <time>2020-07-11T08:44:35.596Z</time>
      </trkpt>
      <trkpt lat="44.14137" lon="5.36897">
        <ele>1089</ele>
        <time>2020-07-11T08:44:36.595Z</time>
      </trkpt>
      <trkpt lat="44.1414" lon="5.36901">
        <ele>1089</ele>
        <time>2020-07-11T08:44:37.596Z</time>
      </trkpt>
      <trkpt lat="44.14143" lon="5.36904">
        <ele>1089</ele>
        <time>2020-07-11T08:44:38.595Z</time>
      </trkpt>
      <trkpt lat="44.14145" lon="5.36908">
        <ele>1089</ele>
        <time>2020-07-11T08:44:39.596Z</time>
      </trkpt>
      <trkpt lat="44.14147" lon="5.36912">
        <ele>1089</ele>
        <time>2020-07-11T08:44:40.595Z</time>
      </trkpt>
      <trkpt lat="44.1415" lon="5.36916">
        <ele>1090</ele>
        <time>2020-07-11T08:44:41.596Z</time>
      </trkpt>
      <trkpt lat="44.14152" lon="5.3692">
        <ele>1090</ele>
        <time>2020-07-11T08:44:42.595Z</time>
      </trkpt>
      <trkpt lat="44.14154" lon="5.36924">
        <ele>1090</ele>
        <time>2020-07-11T08:44:43.596Z</time>
      </trkpt>
      <trkpt lat="44.14156" lon="5.36928">
        <ele>1090</ele>
        <time>2020-07-11T08:44:44.596Z</time>
      </trkpt>
      <trkpt lat="44.14158" lon="5.36932">
        <ele>1090</ele>
        <time>2020-07-11T08:44:45.596Z</time>
      </trkpt>
      <trkpt lat="44.14161" lon="5.36936">
        <ele>1090</ele>
        <time>2020-07-11T08:44:46.596Z</time>
      </trkpt>
      <trkpt lat="44.14163" lon="5.3694">
        <ele>1091</ele>
        <time>2020-07-11T08:44:47.596Z</time>
      </trkpt>
      <trkpt lat="44.14165" lon="5.36945">
        <ele>1092</ele>
        <time>2020-07-11T08:44:48.596Z</time>
      </trkpt>
      <trkpt lat="44.14168" lon="5.36949">
        <ele>1092</ele>
        <time>2020-07-11T08:44:49.595Z</time>
      </trkpt>
      <trkpt lat="44.1417" lon="5.36953">
        <ele>1094</ele>
        <time>2020-07-11T08:44:50.596Z</time>
      </trkpt>
      <trkpt lat="44.14172" lon="5.36958">
        <ele>1095</ele>
        <time>2020-07-11T08:44:51.596Z</time>
      </trkpt>
      <trkpt lat="44.14174" lon="5.36962">
        <ele>1096</ele>
        <time>2020-07-11T08:44:52.596Z</time>
      </trkpt>
      <trkpt lat="44.14176" lon="5.36967">
        <ele>1097</ele>
        <time>2020-07-11T08:44:53.595Z</time>
      </trkpt>
      <trkpt lat="44.14178" lon="5.36972">
        <ele>1098</ele>
        <time>2020-07-11T08:44:54.596Z</time>
      </trkpt>
      <trkpt lat="44.14179" lon="5.36977">
        <ele>1098</ele>
        <time>2020-07-11T08:44:55.596Z</time>
      </trkpt>
      <trkpt lat="44.14181" lon="5.36982">
        <ele>1099</ele>
        <time>2020-07-11T08:44:56.596Z</time>
      </trkpt>
      <trkpt lat="44.14182" lon="5.36986">
        <ele>1099</ele>
        <time>2020-07-11T08:44:57.596Z</time>
      </trkpt>
      <trkpt lat="44.14183" lon="5.36991">
        <ele>1100</ele>
        <time>2020-07-11T08:44:58.596Z</time>
      </trkpt>
      <trkpt lat="44.14184" lon="5.36996">
        <ele>1100</ele>
        <time>2020-07-11T08:44:59.596Z</time>
      </trkpt>
      <trkpt lat="44.14186" lon="5.37001">
        <ele>1100</ele>
        <time>2020-07-11T08:45:00.596Z</time>
      </trkpt>
      <trkpt lat="44.14187" lon="5.37006">
        <ele>1100</ele>
        <time>2020-07-11T08:45:01.595Z</time>
      </trkpt>
      <trkpt lat="44.14188" lon="5.37011">
        <ele>1100</ele>
        <time>2020-07-11T08:45:02.596Z</time>
      </trkpt>
      <trkpt lat="44.14189" lon="5.37016">
        <ele>1100</ele>
        <time>2020-07-11T08:45:03.595Z</time>
      </trkpt>
      <trkpt lat="44.1419" lon="5.37021">
        <ele>1101</ele>
        <time>2020-07-11T08:45:04.595Z</time>
      </trkpt>
      <trkpt lat="44.14191" lon="5.37026">
        <ele>1101</ele>
        <time>2020-07-11T08:45:05.595Z</time>
      </trkpt>
      <trkpt lat="44.14193" lon="5.37031">
        <ele>1101</ele>
        <time>2020-07-11T08:45:06.596Z</time>
      </trkpt>
      <trkpt lat="44.14194" lon="5.37036">
        <ele>1102</ele>
        <time>2020-07-11T08:45:07.596Z</time>
      </trkpt>
      <trkpt lat="44.14195" lon="5.37041">
        <ele>1101</ele>
        <time>2020-07-11T08:45:08.596Z</time>
      </trkpt>
      <trkpt lat="44.14197" lon="5.37045">
        <ele>1102</ele>
        <time>2020-07-11T08:45:09.595Z</time>
      </trkpt>
      <trkpt lat="44.14198" lon="5.3705">
        <ele>1101</ele>
        <time>2020-07-11T08:45:10.596Z</time>
      </trkpt>
      <trkpt lat="44.14201" lon="5.37054">
        <ele>1101</ele>
        <time>2020-07-11T08:45:11.596Z</time>
      </trkpt>
      <trkpt lat="44.14203" lon="5.37058">
        <ele>1101</ele>
        <time>2020-07-11T08:45:12.596Z</time>
      </trkpt>
      <trkpt lat="44.14206" lon="5.37062">
        <ele>1100</ele>
        <time>2020-07-11T08:45:13.596Z</time>
      </trkpt>
      <trkpt lat="44.14208" lon="5.37065">
        <ele>1100</ele>
        <time>2020-07-11T08:45:14.596Z</time>
      </trkpt>
      <trkpt lat="44.14211" lon="5.37067">
        <ele>1100</ele>
        <time>2020-07-11T08:45:15.596Z</time>
      </trkpt>
      <trkpt lat="44.14215" lon="5.37069">
        <ele>1100</ele>
        <time>2020-07-11T08:45:16.596Z</time>
      </trkpt>
      <trkpt lat="44.14218" lon="5.3707">
        <ele>1101</ele>
        <time>2020-07-11T08:45:17.596Z</time>
      </trkpt>
      <trkpt lat="44.14222" lon="5.3707">
        <ele>1101</ele>
        <time>2020-07-11T08:45:18.596Z</time>
      </trkpt>
      <trkpt lat="44.14225" lon="5.37069">
        <ele>1102</ele>
        <time>2020-07-11T08:45:19.596Z</time>
      </trkpt>
      <trkpt lat="44.14229" lon="5.37068">
        <ele>1102</ele>
        <time>2020-07-11T08:45:20.596Z</time>
      </trkpt>
      <trkpt lat="44.14233" lon="5.37066">
        <ele>1102</ele>
        <time>2020-07-11T08:45:21.596Z</time>
      </trkpt>
      <trkpt lat="44.14236" lon="5.37063">
        <ele>1102</ele>
        <time>2020-07-11T08:45:22.596Z</time>
      </trkpt>
      <trkpt lat="44.14239" lon="5.37059">
        <ele>1102</ele>
        <time>2020-07-11T08:45:23.596Z</time>
      </trkpt>
      <trkpt lat="44.14242" lon="5.37055">
        <ele>1102</ele>
        <time>2020-07-11T08:45:24.596Z</time>
      </trkpt>
      <trkpt lat="44.14245" lon="5.37051">
        <ele>1102</ele>
        <time>2020-07-11T08:45:25.596Z</time>
      </trkpt>
      <trkpt lat="44.14248" lon="5.37047">
        <ele>1102</ele>
        <time>2020-07-11T08:45:26.596Z</time>
      </trkpt>
      <trkpt lat="44.1425" lon="5.37043">
        <ele>1102</ele>
        <time>2020-07-11T08:45:27.596Z</time>
      </trkpt>
      <trkpt lat="44.14253" lon="5.37039">
        <ele>1102</ele>
        <time>2020-07-11T08:45:28.596Z</time>
      </trkpt>
      <trkpt lat="44.14255" lon="5.37035">
        <ele>1102</ele>
        <time>2020-07-11T08:45:29.596Z</time>
      </trkpt>
      <trkpt lat="44.14258" lon="5.37031">
        <ele>1102</ele>
        <time>2020-07-11T08:45:30.596Z</time>
      </trkpt>
      <trkpt lat="44.1426" lon="5.37026">
        <ele>1103</ele>
        <time>2020-07-11T08:45:31.596Z</time>
      </trkpt>
      <trkpt lat="44.14262" lon="5.37021">
        <ele>1103</ele>
        <time>2020-07-11T08:45:32.596Z</time>
      </trkpt>
      <trkpt lat="44.14264" lon="5.37016">
        <ele>1103</ele>
        <time>2020-07-11T08:45:33.596Z</time>
      </trkpt>
      <trkpt lat="44.14265" lon="5.3701">
        <ele>1104</ele>
        <time>2020-07-11T08:45:34.596Z</time>
      </trkpt>
      <trkpt lat="44.14266" lon="5.37006">
        <ele>1104</ele>
        <time>2020-07-11T08:45:35.596Z</time>
      </trkpt>
      <trkpt lat="44.14266" lon="5.37">
        <ele>1104</ele>
        <time>2020-07-11T08:45:36.596Z</time>
      </trkpt>
      <trkpt lat="44.14267" lon="5.36995">
        <ele>1104</ele>
        <time>2020-07-11T08:45:37.596Z</time>
      </trkpt>
      <trkpt lat="44.14267" lon="5.36989">
        <ele>1104</ele>
        <time>2020-07-11T08:45:38.596Z</time>
      </trkpt>
      <trkpt lat="44.14268" lon="5.36983">
        <ele>1104</ele>
        <time>2020-07-11T08:45:39.596Z</time>
      </trkpt>
      <trkpt lat="44.14268" lon="5.36978">
        <ele>1104</ele>
        <time>2020-07-11T08:45:40.596Z</time>
      </trkpt>
      <trkpt lat="44.14269" lon="5.36972">
        <ele>1104</ele>
        <time>2020-07-11T08:45:41.596Z</time>
      </trkpt>
      <trkpt lat="44.14269" lon="5.36966">
        <ele>1104</ele>
        <time>2020-07-11T08:45:42.595Z</time>
      </trkpt>
      <trkpt lat="44.14269" lon="5.36961">
        <ele>1104</ele>
        <time>2020-07-11T08:45:43.596Z</time>
      </trkpt>
      <trkpt lat="44.1427" lon="5.36955">
        <ele>1104</ele>
        <time>2020-07-11T08:45:44.596Z</time>
      </trkpt>
      <trkpt lat="44.1427" lon="5.36949">
        <ele>1104</ele>
        <time>2020-07-11T08:45:45.596Z</time>
      </trkpt>
      <trkpt lat="44.1427" lon="5.36943">
        <ele>1104</ele>
        <time>2020-07-11T08:45:46.595Z</time>
      </trkpt>
      <trkpt lat="44.1427" lon="5.36937">
        <ele>1104</ele>
        <time>2020-07-11T08:45:47.596Z</time>
      </trkpt>
      <trkpt lat="44.14271" lon="5.36932">
        <ele>1105</ele>
        <time>2020-07-11T08:45:48.596Z</time>
      </trkpt>
      <trkpt lat="44.14271" lon="5.36926">
        <ele>1105</ele>
        <time>2020-07-11T08:45:49.596Z</time>
      </trkpt>
      <trkpt lat="44.14271" lon="5.3692">
        <ele>1106</ele>
        <time>2020-07-11T08:45:50.596Z</time>
      </trkpt>
      <trkpt lat="44.14271" lon="5.36915">
        <ele>1106</ele>
        <time>2020-07-11T08:45:51.596Z</time>
      </trkpt>
      <trkpt lat="44.14271" lon="5.36909">
        <ele>1106</ele>
        <time>2020-07-11T08:45:52.596Z</time>
      </trkpt>
      <trkpt lat="44.14272" lon="5.36904">
        <ele>1107</ele>
        <time>2020-07-11T08:45:53.596Z</time>
      </trkpt>
      <trkpt lat="44.14272" lon="5.36898">
        <ele>1107</ele>
        <time>2020-07-11T08:45:54.596Z</time>
      </trkpt>
      <trkpt lat="44.14272" lon="5.36892">
        <ele>1107</ele>
        <time>2020-07-11T08:45:55.595Z</time>
      </trkpt>
      <trkpt lat="44.14272" lon="5.36887">
        <ele>1108</ele>
        <time>2020-07-11T08:45:56.596Z</time>
      </trkpt>
      <trkpt lat="44.14273" lon="5.36881">
        <ele>1108</ele>
        <time>2020-07-11T08:45:57.596Z</time>
      </trkpt>
      <trkpt lat="44.14273" lon="5.36876">
        <ele>1108</ele>
        <time>2020-07-11T08:45:58.596Z</time>
      </trkpt>
      <trkpt lat="44.14273" lon="5.3687">
        <ele>1108</ele>
        <time>2020-07-11T08:45:59.596Z</time>
      </trkpt>
      <trkpt lat="44.14274" lon="5.36865">
        <ele>1108</ele>
        <time>2020-07-11T08:46:00.595Z</time>
      </trkpt>
      <trkpt lat="44.14274" lon="5.36859">
        <ele>1109</ele>
        <time>2020-07-11T08:46:01.595Z</time>
      </trkpt>
      <trkpt lat="44.14274" lon="5.36854">
        <ele>1109</ele>
        <time>2020-07-11T08:46:02.596Z</time>
      </trkpt>
      <trkpt lat="44.14275" lon="5.36848">
        <ele>1109</ele>
        <time>2020-07-11T08:46:03.595Z</time>
      </trkpt>
      <trkpt lat="44.14276" lon="5.36841">
        <ele>1110</ele>
        <time>2020-07-11T08:46:04.596Z</time>
      </trkpt>
      <trkpt lat="44.14276" lon="5.36836">
        <ele>1110</ele>
        <time>2020-07-11T08:46:05.596Z</time>
      </trkpt>
      <trkpt lat="44.14277" lon="5.3683">
        <ele>1110</ele>
        <time>2020-07-11T08:46:06.596Z</time>
      </trkpt>
      <trkpt lat="44.14278" lon="5.36826">
        <ele>1110</ele>
        <time>2020-07-11T08:46:07.596Z</time>
      </trkpt>
      <trkpt lat="44.14279" lon="5.36819">
        <ele>1110</ele>
        <time>2020-07-11T08:46:08.596Z</time>
      </trkpt>
      <trkpt lat="44.1428" lon="5.36813">
        <ele>1111</ele>
        <time>2020-07-11T08:46:09.595Z</time>
      </trkpt>
      <trkpt lat="44.14281" lon="5.36807">
        <ele>1110</ele>
        <time>2020-07-11T08:46:10.596Z</time>
      </trkpt>
      <trkpt lat="44.14282" lon="5.36801">
        <ele>1110</ele>
        <time>2020-07-11T08:46:11.595Z</time>
      </trkpt>
      <trkpt lat="44.14284" lon="5.36797">
        <ele>1111</ele>
        <time>2020-07-11T08:46:12.596Z</time>
      </trkpt>
      <trkpt lat="44.14286" lon="5.36789">
        <ele>1111</ele>
        <time>2020-07-11T08:46:13.595Z</time>
      </trkpt>
      <trkpt lat="44.14288" lon="5.36785">
        <ele>1112</ele>
        <time>2020-07-11T08:46:14.595Z</time>
      </trkpt>
      <trkpt lat="44.14291" lon="5.36779">
        <ele>1112</ele>
        <time>2020-07-11T08:46:15.596Z</time>
      </trkpt>
      <trkpt lat="44.14294" lon="5.36773">
        <ele>1113</ele>
        <time>2020-07-11T08:46:16.596Z</time>
      </trkpt>
      <trkpt lat="44.14297" lon="5.36767">
        <ele>1113</ele>
        <time>2020-07-11T08:46:17.596Z</time>
      </trkpt>
      <trkpt lat="44.143" lon="5.36761">
        <ele>1114</ele>
        <time>2020-07-11T08:46:18.596Z</time>
      </trkpt>
      <trkpt lat="44.14303" lon="5.36756">
        <ele>1114</ele>
        <time>2020-07-11T08:46:19.595Z</time>
      </trkpt>
      <trkpt lat="44.14306" lon="5.36751">
        <ele>1114</ele>
        <time>2020-07-11T08:46:20.596Z</time>
      </trkpt>
      <trkpt lat="44.14309" lon="5.36746">
        <ele>1115</ele>
        <time>2020-07-11T08:46:21.596Z</time>
      </trkpt>
      <trkpt lat="44.14313" lon="5.36742">
        <ele>1115</ele>
        <time>2020-07-11T08:46:22.596Z</time>
      </trkpt>
      <trkpt lat="44.14316" lon="5.36738">
        <ele>1115</ele>
        <time>2020-07-11T08:46:23.595Z</time>
      </trkpt>
      <trkpt lat="44.1432" lon="5.36733">
        <ele>1115</ele>
        <time>2020-07-11T08:46:24.596Z</time>
      </trkpt>
      <trkpt lat="44.14323" lon="5.36729">
        <ele>1115</ele>
        <time>2020-07-11T08:46:25.595Z</time>
      </trkpt>
      <trkpt lat="44.14327" lon="5.36724">
        <ele>1115</ele>
        <time>2020-07-11T08:46:26.596Z</time>
      </trkpt>
      <trkpt lat="44.14331" lon="5.3672">
        <ele>1114</ele>
        <time>2020-07-11T08:46:27.596Z</time>
      </trkpt>
      <trkpt lat="44.14335" lon="5.36716">
        <ele>1114</ele>
        <time>2020-07-11T08:46:28.595Z</time>
      </trkpt>
      <trkpt lat="44.14339" lon="5.36711">
        <ele>1114</ele>
        <time>2020-07-11T08:46:29.596Z</time>
      </trkpt>
      <trkpt lat="44.14343" lon="5.36707">
        <ele>1114</ele>
        <time>2020-07-11T08:46:30.596Z</time>
      </trkpt>
      <trkpt lat="44.14347" lon="5.36703">
        <ele>1114</ele>
        <time>2020-07-11T08:46:31.596Z</time>
      </trkpt>
      <trkpt lat="44.14352" lon="5.36699">
        <ele>1115</ele>
        <time>2020-07-11T08:46:32.596Z</time>
      </trkpt>
      <trkpt lat="44.14357" lon="5.36696">
        <ele>1115</ele>
        <time>2020-07-11T08:46:33.596Z</time>
      </trkpt>
      <trkpt lat="44.1436" lon="5.36694">
        <ele>1115</ele>
        <time>2020-07-11T08:46:34.596Z</time>
      </trkpt>
      <trkpt lat="44.14365" lon="5.36691">
        <ele>1114</ele>
        <time>2020-07-11T08:46:35.596Z</time>
      </trkpt>
      <trkpt lat="44.14369" lon="5.36688">
        <ele>1114</ele>
        <time>2020-07-11T08:46:36.596Z</time>
      </trkpt>
      <trkpt lat="44.14373" lon="5.36685">
        <ele>1114</ele>
        <time>2020-07-11T08:46:37.596Z</time>
      </trkpt>
      <trkpt lat="44.14378" lon="5.36681">
        <ele>1114</ele>
        <time>2020-07-11T08:46:38.596Z</time>
      </trkpt>
      <trkpt lat="44.14382" lon="5.36678">
        <ele>1114</ele>
        <time>2020-07-11T08:46:39.595Z</time>
      </trkpt>
      <trkpt lat="44.14387" lon="5.36675">
        <ele>1114</ele>
        <time>2020-07-11T08:46:40.596Z</time>
      </trkpt>
      <trkpt lat="44.14391" lon="5.36672">
        <ele>1114</ele>
        <time>2020-07-11T08:46:41.596Z</time>
      </trkpt>
      <trkpt lat="44.14396" lon="5.3667">
        <ele>1115</ele>
        <time>2020-07-11T08:46:42.596Z</time>
      </trkpt>
      <trkpt lat="44.14401" lon="5.36667">
        <ele>1116</ele>
        <time>2020-07-11T08:46:43.596Z</time>
      </trkpt>
      <trkpt lat="44.14405" lon="5.36665">
        <ele>1116</ele>
        <time>2020-07-11T08:46:44.596Z</time>
      </trkpt>
      <trkpt lat="44.1441" lon="5.36663">
        <ele>1117</ele>
        <time>2020-07-11T08:46:45.595Z</time>
      </trkpt>
      <trkpt lat="44.14414" lon="5.36662">
        <ele>1117</ele>
        <time>2020-07-11T08:46:46.596Z</time>
      </trkpt>
      <trkpt lat="44.1442" lon="5.3666">
        <ele>1117</ele>
        <time>2020-07-11T08:46:47.595Z</time>
      </trkpt>
      <trkpt lat="44.14424" lon="5.36658">
        <ele>1118</ele>
        <time>2020-07-11T08:46:48.595Z</time>
      </trkpt>
      <trkpt lat="44.14428" lon="5.36658">
        <ele>1118</ele>
        <time>2020-07-11T08:46:49.596Z</time>
      </trkpt>
      <trkpt lat="44.14433" lon="5.36657">
        <ele>1117</ele>
        <time>2020-07-11T08:46:50.596Z</time>
      </trkpt>
      <trkpt lat="44.14438" lon="5.36657">
        <ele>1117</ele>
        <time>2020-07-11T08:46:51.595Z</time>
      </trkpt>
      <trkpt lat="44.14443" lon="5.36656">
        <ele>1117</ele>
        <time>2020-07-11T08:46:52.595Z</time>
      </trkpt>
      <trkpt lat="44.14446" lon="5.36656">
        <ele>1116</ele>
        <time>2020-07-11T08:46:53.596Z</time>
      </trkpt>
      <trkpt lat="44.14451" lon="5.36656">
        <ele>1117</ele>
        <time>2020-07-11T08:46:54.596Z</time>
      </trkpt>
      <trkpt lat="44.14455" lon="5.36655">
        <ele>1117</ele>
        <time>2020-07-11T08:46:55.595Z</time>
      </trkpt>
      <trkpt lat="44.1446" lon="5.36655">
        <ele>1117</ele>
        <time>2020-07-11T08:46:56.595Z</time>
      </trkpt>
      <trkpt lat="44.14465" lon="5.36654">
        <ele>1118</ele>
        <time>2020-07-11T08:46:57.596Z</time>
      </trkpt>
      <trkpt lat="44.14469" lon="5.36654">
        <ele>1118</ele>
        <time>2020-07-11T08:46:58.596Z</time>
      </trkpt>
      <trkpt lat="44.14473" lon="5.36653">
        <ele>1119</ele>
        <time>2020-07-11T08:46:59.596Z</time>
      </trkpt>
      <trkpt lat="44.14478" lon="5.36652">
        <ele>1119</ele>
        <time>2020-07-11T08:47:00.596Z</time>
      </trkpt>
      <trkpt lat="44.14481" lon="5.36652">
        <ele>1119</ele>
        <time>2020-07-11T08:47:01.596Z</time>
      </trkpt>
      <trkpt lat="44.14487" lon="5.36652">
        <ele>1119</ele>
        <time>2020-07-11T08:47:02.595Z</time>
      </trkpt>
      <trkpt lat="44.14491" lon="5.36653">
        <ele>1120</ele>
        <time>2020-07-11T08:47:03.595Z</time>
      </trkpt>
      <trkpt lat="44.14495" lon="5.36653">
        <ele>1120</ele>
        <time>2020-07-11T08:47:04.595Z</time>
      </trkpt>
      <trkpt lat="44.14499" lon="5.36654">
        <ele>1121</ele>
        <time>2020-07-11T08:47:05.596Z</time>
      </trkpt>
      <trkpt lat="44.14504" lon="5.36655">
        <ele>1121</ele>
        <time>2020-07-11T08:47:06.596Z</time>
      </trkpt>
      <trkpt lat="44.14509" lon="5.36657">
        <ele>1121</ele>
        <time>2020-07-11T08:47:07.596Z</time>
      </trkpt>
      <trkpt lat="44.14513" lon="5.36658">
        <ele>1121</ele>
        <time>2020-07-11T08:47:08.596Z</time>
      </trkpt>
      <trkpt lat="44.14517" lon="5.36659">
        <ele>1121</ele>
        <time>2020-07-11T08:47:09.596Z</time>
      </trkpt>
      <trkpt lat="44.14521" lon="5.36661">
        <ele>1121</ele>
        <time>2020-07-11T08:47:10.596Z</time>
      </trkpt>
      <trkpt lat="44.14525" lon="5.36662">
        <ele>1121</ele>
        <time>2020-07-11T08:47:11.595Z</time>
      </trkpt>
      <trkpt lat="44.14529" lon="5.36663">
        <ele>1121</ele>
        <time>2020-07-11T08:47:12.595Z</time>
      </trkpt>
      <trkpt lat="44.14533" lon="5.36664">
        <ele>1121</ele>
        <time>2020-07-11T08:47:13.595Z</time>
      </trkpt>
      <trkpt lat="44.14537" lon="5.36665">
        <ele>1121</ele>
        <time>2020-07-11T08:47:14.596Z</time>
      </trkpt>
      <trkpt lat="44.14542" lon="5.36666">
        <ele>1121</ele>
        <time>2020-07-11T08:47:15.596Z</time>
      </trkpt>
      <trkpt lat="44.14547" lon="5.36667">
        <ele>1121</ele>
        <time>2020-07-11T08:47:16.595Z</time>
      </trkpt>
      <trkpt lat="44.1455" lon="5.36668">
        <ele>1121</ele>
        <time>2020-07-11T08:47:17.596Z</time>
      </trkpt>
      <trkpt lat="44.14554" lon="5.36669">
        <ele>1121</ele>
        <time>2020-07-11T08:47:18.596Z</time>
      </trkpt>
      <trkpt lat="44.14559" lon="5.3667">
        <ele>1121</ele>
        <time>2020-07-11T08:47:19.596Z</time>
      </trkpt>
      <trkpt lat="44.14563" lon="5.36672">
        <ele>1121</ele>
        <time>2020-07-11T08:47:20.596Z</time>
      </trkpt>
      <trkpt lat="44.14568" lon="5.36672">
        <ele>1122</ele>
        <time>2020-07-11T08:47:21.596Z</time>
      </trkpt>
      <trkpt lat="44.14572" lon="5.36672">
        <ele>1122</ele>
        <time>2020-07-11T08:47:22.595Z</time>
      </trkpt>
      <trkpt lat="44.14576" lon="5.3667">
        <ele>1122</ele>
        <time>2020-07-11T08:47:23.596Z</time>
      </trkpt>
      <trkpt lat="44.14579" lon="5.36668">
        <ele>1123</ele>
        <time>2020-07-11T08:47:24.596Z</time>
      </trkpt>
      <trkpt lat="44.14584" lon="5.36664">
        <ele>1123</ele>
        <time>2020-07-11T08:47:25.596Z</time>
      </trkpt>
      <trkpt lat="44.14586" lon="5.36659">
        <ele>1124</ele>
        <time>2020-07-11T08:47:26.596Z</time>
      </trkpt>
      <trkpt lat="44.14588" lon="5.36654">
        <ele>1125</ele>
        <time>2020-07-11T08:47:27.596Z</time>
      </trkpt>
      <trkpt lat="44.14589" lon="5.36648">
        <ele>1125</ele>
        <time>2020-07-11T08:47:28.596Z</time>
      </trkpt>
      <trkpt lat="44.14589" lon="5.36641">
        <ele>1126</ele>
        <time>2020-07-11T08:47:29.596Z</time>
      </trkpt>
      <trkpt lat="44.14588" lon="5.36635">
        <ele>1126</ele>
        <time>2020-07-11T08:47:30.595Z</time>
      </trkpt>
      <trkpt lat="44.14585" lon="5.36629">
        <ele>1127</ele>
        <time>2020-07-11T08:47:31.596Z</time>
      </trkpt>
      <trkpt lat="44.14582" lon="5.36623">
        <ele>1127</ele>
        <time>2020-07-11T08:47:32.596Z</time>
      </trkpt>
      <trkpt lat="44.14579" lon="5.36617">
        <ele>1127</ele>
        <time>2020-07-11T08:47:33.596Z</time>
      </trkpt>
      <trkpt lat="44.14576" lon="5.36611">
        <ele>1128</ele>
        <time>2020-07-11T08:47:34.596Z</time>
      </trkpt>
      <trkpt lat="44.14572" lon="5.36604">
        <ele>1128</ele>
        <time>2020-07-11T08:47:35.596Z</time>
      </trkpt>
      <trkpt lat="44.14568" lon="5.36598">
        <ele>1129</ele>
        <time>2020-07-11T08:47:36.596Z</time>
      </trkpt>
      <trkpt lat="44.14565" lon="5.3659">
        <ele>1129</ele>
        <time>2020-07-11T08:47:37.596Z</time>
      </trkpt>
      <trkpt lat="44.14562" lon="5.36585">
        <ele>1129</ele>
        <time>2020-07-11T08:47:38.596Z</time>
      </trkpt>
      <trkpt lat="44.1456" lon="5.36578">
        <ele>1129</ele>
        <time>2020-07-11T08:47:39.595Z</time>
      </trkpt>
      <trkpt lat="44.14557" lon="5.36571">
        <ele>1130</ele>
        <time>2020-07-11T08:47:40.596Z</time>
      </trkpt>
      <trkpt lat="44.14553" lon="5.36564">
        <ele>1130</ele>
        <time>2020-07-11T08:47:41.596Z</time>
      </trkpt>
      <trkpt lat="44.1455" lon="5.3656">
        <ele>1130</ele>
        <time>2020-07-11T08:47:42.596Z</time>
      </trkpt>
      <trkpt lat="44.14546" lon="5.36556">
        <ele>1131</ele>
        <time>2020-07-11T08:47:43.596Z</time>
      </trkpt>
      <trkpt lat="44.14542" lon="5.36552">
        <ele>1131</ele>
        <time>2020-07-11T08:47:44.596Z</time>
      </trkpt>
      <trkpt lat="44.1454" lon="5.36547">
        <ele>1132</ele>
        <time>2020-07-11T08:47:45.596Z</time>
      </trkpt>
      <trkpt lat="44.14537" lon="5.36541">
        <ele>1132</ele>
        <time>2020-07-11T08:47:46.596Z</time>
      </trkpt>
      <trkpt lat="44.14533" lon="5.36535">
        <ele>1132</ele>
        <time>2020-07-11T08:47:47.596Z</time>
      </trkpt>
      <trkpt lat="44.1453" lon="5.36529">
        <ele>1133</ele>
        <time>2020-07-11T08:47:48.596Z</time>
      </trkpt>
      <trkpt lat="44.14527" lon="5.36523">
        <ele>1133</ele>
        <time>2020-07-11T08:47:49.596Z</time>
      </trkpt>
      <trkpt lat="44.14524" lon="5.36517">
        <ele>1134</ele>
        <time>2020-07-11T08:47:50.596Z</time>
      </trkpt>
      <trkpt lat="44.14521" lon="5.36512">
        <ele>1135</ele>
        <time>2020-07-11T08:47:51.596Z</time>
      </trkpt>
      <trkpt lat="44.14519" lon="5.36505">
        <ele>1135</ele>
        <time>2020-07-11T08:47:52.596Z</time>
      </trkpt>
      <trkpt lat="44.14516" lon="5.36499">
        <ele>1135</ele>
        <time>2020-07-11T08:47:53.596Z</time>
      </trkpt>
      <trkpt lat="44.14514" lon="5.36493">
        <ele>1136</ele>
        <time>2020-07-11T08:47:54.596Z</time>
      </trkpt>
      <trkpt lat="44.14511" lon="5.36488">
        <ele>1136</ele>
        <time>2020-07-11T08:47:55.596Z</time>
      </trkpt>
      <trkpt lat="44.14508" lon="5.36483">
        <ele>1137</ele>
        <time>2020-07-11T08:47:56.596Z</time>
      </trkpt>
      <trkpt lat="44.14505" lon="5.36477">
        <ele>1138</ele>
        <time>2020-07-11T08:47:57.596Z</time>
      </trkpt>
      <trkpt lat="44.14503" lon="5.36471">
        <ele>1138</ele>
        <time>2020-07-11T08:47:58.595Z</time>
      </trkpt>
      <trkpt lat="44.14502" lon="5.36464">
        <ele>1139</ele>
        <time>2020-07-11T08:47:59.596Z</time>
      </trkpt>
      <trkpt lat="44.14501" lon="5.36456">
        <ele>1139</ele>
        <time>2020-07-11T08:48:00.596Z</time>
      </trkpt>
      <trkpt lat="44.14501" lon="5.36449">
        <ele>1139</ele>
        <time>2020-07-11T08:48:01.595Z</time>
      </trkpt>
      <trkpt lat="44.14502" lon="5.36442">
        <ele>1138</ele>
        <time>2020-07-11T08:48:02.596Z</time>
      </trkpt>
      <trkpt lat="44.14503" lon="5.36434">
        <ele>1137</ele>
        <time>2020-07-11T08:48:03.595Z</time>
      </trkpt>
      <trkpt lat="44.14504" lon="5.36426">
        <ele>1137</ele>
        <time>2020-07-11T08:48:04.596Z</time>
      </trkpt>
      <trkpt lat="44.14506" lon="5.36419">
        <ele>1136</ele>
        <time>2020-07-11T08:48:05.596Z</time>
      </trkpt>
      <trkpt lat="44.14509" lon="5.36411">
        <ele>1136</ele>
        <time>2020-07-11T08:48:06.595Z</time>
      </trkpt>
      <trkpt lat="44.14512" lon="5.36405">
        <ele>1136</ele>
        <time>2020-07-11T08:48:07.596Z</time>
      </trkpt>
      <trkpt lat="44.14515" lon="5.36399">
        <ele>1136</ele>
        <time>2020-07-11T08:48:08.596Z</time>
      </trkpt>
      <trkpt lat="44.14519" lon="5.36393">
        <ele>1136</ele>
        <time>2020-07-11T08:48:09.596Z</time>
      </trkpt>
      <trkpt lat="44.14523" lon="5.36387">
        <ele>1136</ele>
        <time>2020-07-11T08:48:10.596Z</time>
      </trkpt>
      <trkpt lat="44.14527" lon="5.36382">
        <ele>1136</ele>
        <time>2020-07-11T08:48:11.596Z</time>
      </trkpt>
      <trkpt lat="44.14531" lon="5.36377">
        <ele>1136</ele>
        <time>2020-07-11T08:48:12.596Z</time>
      </trkpt>
      <trkpt lat="44.14536" lon="5.36372">
        <ele>1137</ele>
        <time>2020-07-11T08:48:13.596Z</time>
      </trkpt>
      <trkpt lat="44.1454" lon="5.36368">
        <ele>1137</ele>
        <time>2020-07-11T08:48:14.596Z</time>
      </trkpt>
      <trkpt lat="44.14544" lon="5.36364">
        <ele>1137</ele>
        <time>2020-07-11T08:48:15.596Z</time>
      </trkpt>
      <trkpt lat="44.14548" lon="5.3636">
        <ele>1137</ele>
        <time>2020-07-11T08:48:16.596Z</time>
      </trkpt>
      <trkpt lat="44.14552" lon="5.36356">
        <ele>1137</ele>
        <time>2020-07-11T08:48:17.596Z</time>
      </trkpt>
      <trkpt lat="44.14556" lon="5.36351">
        <ele>1137</ele>
        <time>2020-07-11T08:48:18.595Z</time>
      </trkpt>
      <trkpt lat="44.1456" lon="5.36347">
        <ele>1137</ele>
        <time>2020-07-11T08:48:19.596Z</time>
      </trkpt>
      <trkpt lat="44.14564" lon="5.36343">
        <ele>1137</ele>
        <time>2020-07-11T08:48:20.595Z</time>
      </trkpt>
      <trkpt lat="44.14568" lon="5.36339">
        <ele>1137</ele>
        <time>2020-07-11T08:48:21.596Z</time>
      </trkpt>
      <trkpt lat="44.14572" lon="5.36335">
        <ele>1137</ele>
        <time>2020-07-11T08:48:22.595Z</time>
      </trkpt>
      <trkpt lat="44.14576" lon="5.36332">
        <ele>1137</ele>
        <time>2020-07-11T08:48:23.596Z</time>
      </trkpt>
      <trkpt lat="44.1458" lon="5.36328">
        <ele>1137</ele>
        <time>2020-07-11T08:48:24.596Z</time>
      </trkpt>
      <trkpt lat="44.14584" lon="5.36323">
        <ele>1137</ele>
        <time>2020-07-11T08:48:25.596Z</time>
      </trkpt>
      <trkpt lat="44.14587" lon="5.36319">
        <ele>1137</ele>
        <time>2020-07-11T08:48:26.596Z</time>
      </trkpt>
      <trkpt lat="44.14591" lon="5.36315">
        <ele>1137</ele>
        <time>2020-07-11T08:48:27.596Z</time>
      </trkpt>
      <trkpt lat="44.14595" lon="5.3631">
        <ele>1138</ele>
        <time>2020-07-11T08:48:28.596Z</time>
      </trkpt>
      <trkpt lat="44.14598" lon="5.36304">
        <ele>1138</ele>
        <time>2020-07-11T08:48:29.595Z</time>
      </trkpt>
      <trkpt lat="44.14601" lon="5.36299">
        <ele>1138</ele>
        <time>2020-07-11T08:48:30.596Z</time>
      </trkpt>
      <trkpt lat="44.14603" lon="5.36293">
        <ele>1139</ele>
        <time>2020-07-11T08:48:31.596Z</time>
      </trkpt>
      <trkpt lat="44.14605" lon="5.36286">
        <ele>1139</ele>
        <time>2020-07-11T08:48:32.596Z</time>
      </trkpt>
      <trkpt lat="44.14606" lon="5.3628">
        <ele>1140</ele>
        <time>2020-07-11T08:48:33.595Z</time>
      </trkpt>
      <trkpt lat="44.14607" lon="5.36273">
        <ele>1140</ele>
        <time>2020-07-11T08:48:34.596Z</time>
      </trkpt>
      <trkpt lat="44.14607" lon="5.36265">
        <ele>1141</ele>
        <time>2020-07-11T08:48:35.596Z</time>
      </trkpt>
      <trkpt lat="44.14607" lon="5.36259">
        <ele>1142</ele>
        <time>2020-07-11T08:48:36.596Z</time>
      </trkpt>
      <trkpt lat="44.14607" lon="5.36252">
        <ele>1142</ele>
        <time>2020-07-11T08:48:37.596Z</time>
      </trkpt>
      <trkpt lat="44.14607" lon="5.36245">
        <ele>1143</ele>
        <time>2020-07-11T08:48:38.595Z</time>
      </trkpt>
      <trkpt lat="44.14606" lon="5.36238">
        <ele>1143</ele>
        <time>2020-07-11T08:48:39.596Z</time>
      </trkpt>
      <trkpt lat="44.14606" lon="5.36231">
        <ele>1143</ele>
        <time>2020-07-11T08:48:40.596Z</time>
      </trkpt>
      <trkpt lat="44.14605" lon="5.36224">
        <ele>1144</ele>
        <time>2020-07-11T08:48:41.595Z</time>
      </trkpt>
      <trkpt lat="44.14605" lon="5.36217">
        <ele>1144</ele>
        <time>2020-07-11T08:48:42.596Z</time>
      </trkpt>
      <trkpt lat="44.14604" lon="5.3621">
        <ele>1144</ele>
        <time>2020-07-11T08:48:43.596Z</time>
      </trkpt>
      <trkpt lat="44.14604" lon="5.36204">
        <ele>1144</ele>
        <time>2020-07-11T08:48:44.596Z</time>
      </trkpt>
      <trkpt lat="44.14603" lon="5.36197">
        <ele>1145</ele>
        <time>2020-07-11T08:48:45.596Z</time>
      </trkpt>
      <trkpt lat="44.14602" lon="5.36191">
        <ele>1145</ele>
        <time>2020-07-11T08:48:46.596Z</time>
      </trkpt>
      <trkpt lat="44.14602" lon="5.36184">
        <ele>1145</ele>
        <time>2020-07-11T08:48:47.596Z</time>
      </trkpt>
      <trkpt lat="44.14602" lon="5.36178">
        <ele>1145</ele>
        <time>2020-07-11T08:48:48.596Z</time>
      </trkpt>
      <trkpt lat="44.14601" lon="5.36171">
        <ele>1146</ele>
        <time>2020-07-11T08:48:49.596Z</time>
      </trkpt>
      <trkpt lat="44.14601" lon="5.36164">
        <ele>1146</ele>
        <time>2020-07-11T08:48:50.596Z</time>
      </trkpt>
      <trkpt lat="44.14601" lon="5.36157">
        <ele>1146</ele>
        <time>2020-07-11T08:48:51.596Z</time>
      </trkpt>
      <trkpt lat="44.146" lon="5.36151">
        <ele>1146</ele>
        <time>2020-07-11T08:48:52.596Z</time>
      </trkpt>
      <trkpt lat="44.146" lon="5.36144">
        <ele>1146</ele>
        <time>2020-07-11T08:48:53.595Z</time>
      </trkpt>
      <trkpt lat="44.146" lon="5.36137">
        <ele>1146</ele>
        <time>2020-07-11T08:48:54.595Z</time>
      </trkpt>
      <trkpt lat="44.14601" lon="5.3613">
        <ele>1147</ele>
        <time>2020-07-11T08:48:55.596Z</time>
      </trkpt>
      <trkpt lat="44.14601" lon="5.36123">
        <ele>1147</ele>
        <time>2020-07-11T08:48:56.596Z</time>
      </trkpt>
      <trkpt lat="44.14602" lon="5.36117">
        <ele>1148</ele>
        <time>2020-07-11T08:48:57.596Z</time>
      </trkpt>
      <trkpt lat="44.14602" lon="5.3611">
        <ele>1148</ele>
        <time>2020-07-11T08:48:58.596Z</time>
      </trkpt>
      <trkpt lat="44.14603" lon="5.36104">
        <ele>1149</ele>
        <time>2020-07-11T08:48:59.596Z</time>
      </trkpt>
      <trkpt lat="44.14604" lon="5.36098">
        <ele>1149</ele>
        <time>2020-07-11T08:49:00.596Z</time>
      </trkpt>
      <trkpt lat="44.14605" lon="5.36092">
        <ele>1150</ele>
        <time>2020-07-11T08:49:01.596Z</time>
      </trkpt>
      <trkpt lat="44.14606" lon="5.36085">
        <ele>1151</ele>
        <time>2020-07-11T08:49:02.595Z</time>
      </trkpt>
      <trkpt lat="44.14608" lon="5.36079">
        <ele>1151</ele>
        <time>2020-07-11T08:49:03.595Z</time>
      </trkpt>
      <trkpt lat="44.14609" lon="5.36072">
        <ele>1152</ele>
        <time>2020-07-11T08:49:04.596Z</time>
      </trkpt>
      <trkpt lat="44.14611" lon="5.36066">
        <ele>1152</ele>
        <time>2020-07-11T08:49:05.596Z</time>
      </trkpt>
      <trkpt lat="44.14612" lon="5.3606">
        <ele>1152</ele>
        <time>2020-07-11T08:49:06.596Z</time>
      </trkpt>
      <trkpt lat="44.14614" lon="5.36053">
        <ele>1152</ele>
        <time>2020-07-11T08:49:07.596Z</time>
      </trkpt>
      <trkpt lat="44.14616" lon="5.36048">
        <ele>1152</ele>
        <time>2020-07-11T08:49:08.596Z</time>
      </trkpt>
      <trkpt lat="44.14618" lon="5.36042">
        <ele>1153</ele>
        <time>2020-07-11T08:49:09.596Z</time>
      </trkpt>
      <trkpt lat="44.1462" lon="5.36036">
        <ele>1153</ele>
        <time>2020-07-11T08:49:10.596Z</time>
      </trkpt>
      <trkpt lat="44.14622" lon="5.3603">
        <ele>1153</ele>
        <time>2020-07-11T08:49:11.596Z</time>
      </trkpt>
      <trkpt lat="44.14624" lon="5.36024">
        <ele>1153</ele>
        <time>2020-07-11T08:49:12.595Z</time>
      </trkpt>
      <trkpt lat="44.14626" lon="5.36018">
        <ele>1154</ele>
        <time>2020-07-11T08:49:13.596Z</time>
      </trkpt>
      <trkpt lat="44.14629" lon="5.36012">
        <ele>1154</ele>
        <time>2020-07-11T08:49:14.596Z</time>
      </trkpt>
      <trkpt lat="44.14631" lon="5.36007">
        <ele>1154</ele>
        <time>2020-07-11T08:49:15.596Z</time>
      </trkpt>
      <trkpt lat="44.14633" lon="5.36001">
        <ele>1154</ele>
        <time>2020-07-11T08:49:16.596Z</time>
      </trkpt>
      <trkpt lat="44.14636" lon="5.35996">
        <ele>1154</ele>
        <time>2020-07-11T08:49:17.595Z</time>
      </trkpt>
      <trkpt lat="44.14639" lon="5.35991">
        <ele>1154</ele>
        <time>2020-07-11T08:49:18.596Z</time>
      </trkpt>
      <trkpt lat="44.14642" lon="5.35986">
        <ele>1154</ele>
        <time>2020-07-11T08:49:19.596Z</time>
      </trkpt>
      <trkpt lat="44.14645" lon="5.35981">
        <ele>1154</ele>
        <time>2020-07-11T08:49:20.596Z</time>
      </trkpt>
      <trkpt lat="44.14648" lon="5.35977">
        <ele>1154</ele>
        <time>2020-07-11T08:49:21.596Z</time>
      </trkpt>
      <trkpt lat="44.14651" lon="5.35973">
        <ele>1155</ele>
        <time>2020-07-11T08:49:22.596Z</time>
      </trkpt>
      <trkpt lat="44.14655" lon="5.35968">
        <ele>1155</ele>
        <time>2020-07-11T08:49:23.596Z</time>
      </trkpt>
      <trkpt lat="44.14658" lon="5.35964">
        <ele>1155</ele>
        <time>2020-07-11T08:49:24.595Z</time>
      </trkpt>
      <trkpt lat="44.14662" lon="5.35961">
        <ele>1155</ele>
        <time>2020-07-11T08:49:25.596Z</time>
      </trkpt>
      <trkpt lat="44.14665" lon="5.35957">
        <ele>1156</ele>
        <time>2020-07-11T08:49:26.595Z</time>
      </trkpt>
      <trkpt lat="44.14669" lon="5.35953">
        <ele>1156</ele>
        <time>2020-07-11T08:49:27.595Z</time>
      </trkpt>
      <trkpt lat="44.14673" lon="5.3595">
        <ele>1156</ele>
        <time>2020-07-11T08:49:28.595Z</time>
      </trkpt>
      <trkpt lat="44.14677" lon="5.35947">
        <ele>1156</ele>
        <time>2020-07-11T08:49:29.596Z</time>
      </trkpt>
      <trkpt lat="44.14681" lon="5.35944">
        <ele>1157</ele>
        <time>2020-07-11T08:49:30.596Z</time>
      </trkpt>
      <trkpt lat="44.14684" lon="5.35941">
        <ele>1157</ele>
        <time>2020-07-11T08:49:31.595Z</time>
      </trkpt>
      <trkpt lat="44.14689" lon="5.35938">
        <ele>1157</ele>
        <time>2020-07-11T08:49:32.596Z</time>
      </trkpt>
      <trkpt lat="44.14693" lon="5.35935">
        <ele>1158</ele>
        <time>2020-07-11T08:49:33.596Z</time>
      </trkpt>
      <trkpt lat="44.14696" lon="5.35932">
        <ele>1159</ele>
        <time>2020-07-11T08:49:34.596Z</time>
      </trkpt>
      <trkpt lat="44.147" lon="5.35929">
        <ele>1160</ele>
        <time>2020-07-11T08:49:35.596Z</time>
      </trkpt>
      <trkpt lat="44.14705" lon="5.35927">
        <ele>1161</ele>
        <time>2020-07-11T08:49:36.595Z</time>
      </trkpt>
      <trkpt lat="44.14709" lon="5.35925">
        <ele>1161</ele>
        <time>2020-07-11T08:49:37.595Z</time>
      </trkpt>
      <trkpt lat="44.14713" lon="5.35924">
        <ele>1162</ele>
        <time>2020-07-11T08:49:38.596Z</time>
      </trkpt>
      <trkpt lat="44.14717" lon="5.35922">
        <ele>1162</ele>
        <time>2020-07-11T08:49:39.596Z</time>
      </trkpt>
      <trkpt lat="44.14721" lon="5.35921">
        <ele>1163</ele>
        <time>2020-07-11T08:49:40.596Z</time>
      </trkpt>
      <trkpt lat="44.14725" lon="5.35919">
        <ele>1163</ele>
        <time>2020-07-11T08:49:41.595Z</time>
      </trkpt>
      <trkpt lat="44.1473" lon="5.35918">
        <ele>1164</ele>
        <time>2020-07-11T08:49:42.596Z</time>
      </trkpt>
      <trkpt lat="44.14734" lon="5.35917">
        <ele>1164</ele>
        <time>2020-07-11T08:49:43.596Z</time>
      </trkpt>
      <trkpt lat="44.14738" lon="5.35916">
        <ele>1165</ele>
        <time>2020-07-11T08:49:44.596Z</time>
      </trkpt>
      <trkpt lat="44.14742" lon="5.35914">
        <ele>1166</ele>
        <time>2020-07-11T08:49:45.596Z</time>
      </trkpt>
      <trkpt lat="44.14747" lon="5.35912">
        <ele>1167</ele>
        <time>2020-07-11T08:49:46.596Z</time>
      </trkpt>
      <trkpt lat="44.14751" lon="5.35911">
        <ele>1168</ele>
        <time>2020-07-11T08:49:47.596Z</time>
      </trkpt>
      <trkpt lat="44.14755" lon="5.3591">
        <ele>1168</ele>
        <time>2020-07-11T08:49:48.595Z</time>
      </trkpt>
      <trkpt lat="44.14759" lon="5.3591">
        <ele>1168</ele>
        <time>2020-07-11T08:49:49.596Z</time>
      </trkpt>
      <trkpt lat="44.14764" lon="5.3591">
        <ele>1169</ele>
        <time>2020-07-11T08:49:50.595Z</time>
      </trkpt>
      <trkpt lat="44.14768" lon="5.3591">
        <ele>1168</ele>
        <time>2020-07-11T08:49:51.595Z</time>
      </trkpt>
      <trkpt lat="44.14772" lon="5.35911">
        <ele>1168</ele>
        <time>2020-07-11T08:49:52.596Z</time>
      </trkpt>
      <trkpt lat="44.14776" lon="5.35912">
        <ele>1168</ele>
        <time>2020-07-11T08:49:53.596Z</time>
      </trkpt>
      <trkpt lat="44.1478" lon="5.35913">
        <ele>1167</ele>
        <time>2020-07-11T08:49:54.596Z</time>
      </trkpt>
      <trkpt lat="44.14785" lon="5.35914">
        <ele>1167</ele>
        <time>2020-07-11T08:49:55.595Z</time>
      </trkpt>
      <trkpt lat="44.14789" lon="5.35915">
        <ele>1167</ele>
        <time>2020-07-11T08:49:56.595Z</time>
      </trkpt>
      <trkpt lat="44.14793" lon="5.35917">
        <ele>1167</ele>
        <time>2020-07-11T08:49:57.595Z</time>
      </trkpt>
      <trkpt lat="44.14797" lon="5.35919">
        <ele>1167</ele>
        <time>2020-07-11T08:49:58.596Z</time>
      </trkpt>
      <trkpt lat="44.14801" lon="5.35921">
        <ele>1167</ele>
        <time>2020-07-11T08:49:59.596Z</time>
      </trkpt>
      <trkpt lat="44.14805" lon="5.35922">
        <ele>1166</ele>
        <time>2020-07-11T08:50:00.596Z</time>
      </trkpt>
      <trkpt lat="44.14809" lon="5.35924">
        <ele>1166</ele>
        <time>2020-07-11T08:50:01.596Z</time>
      </trkpt>
      <trkpt lat="44.14813" lon="5.35926">
        <ele>1166</ele>
        <time>2020-07-11T08:50:02.596Z</time>
      </trkpt>
      <trkpt lat="44.14817" lon="5.35927">
        <ele>1166</ele>
        <time>2020-07-11T08:50:03.596Z</time>
      </trkpt>
      <trkpt lat="44.14821" lon="5.35929">
        <ele>1166</ele>
        <time>2020-07-11T08:50:04.596Z</time>
      </trkpt>
      <trkpt lat="44.14825" lon="5.35931">
        <ele>1167</ele>
        <time>2020-07-11T08:50:05.596Z</time>
      </trkpt>
      <trkpt lat="44.14829" lon="5.35932">
        <ele>1167</ele>
        <time>2020-07-11T08:50:06.596Z</time>
      </trkpt>
      <trkpt lat="44.14834" lon="5.35934">
        <ele>1167</ele>
        <time>2020-07-11T08:50:07.596Z</time>
      </trkpt>
      <trkpt lat="44.14839" lon="5.35936">
        <ele>1168</ele>
        <time>2020-07-11T08:50:08.596Z</time>
      </trkpt>
      <trkpt lat="44.14843" lon="5.35938">
        <ele>1168</ele>
        <time>2020-07-11T08:50:09.596Z</time>
      </trkpt>
      <trkpt lat="44.14847" lon="5.35939">
        <ele>1168</ele>
        <time>2020-07-11T08:50:10.595Z</time>
      </trkpt>
      <trkpt lat="44.14851" lon="5.35941">
        <ele>1168</ele>
        <time>2020-07-11T08:50:11.596Z</time>
      </trkpt>
      <trkpt lat="44.14855" lon="5.35942">
        <ele>1168</ele>
        <time>2020-07-11T08:50:12.596Z</time>
      </trkpt>
      <trkpt lat="44.14859" lon="5.35944">
        <ele>1168</ele>
        <time>2020-07-11T08:50:13.596Z</time>
      </trkpt>
      <trkpt lat="44.14862" lon="5.35946">
        <ele>1168</ele>
        <time>2020-07-11T08:50:14.596Z</time>
      </trkpt>
      <trkpt lat="44.14866" lon="5.35947">
        <ele>1167</ele>
        <time>2020-07-11T08:50:15.596Z</time>
      </trkpt>
      <trkpt lat="44.14871" lon="5.35948">
        <ele>1167</ele>
        <time>2020-07-11T08:50:16.596Z</time>
      </trkpt>
      <trkpt lat="44.14874" lon="5.3595">
        <ele>1168</ele>
        <time>2020-07-11T08:50:17.595Z</time>
      </trkpt>
      <trkpt lat="44.14878" lon="5.35951">
        <ele>1168</ele>
        <time>2020-07-11T08:50:18.595Z</time>
      </trkpt>
      <trkpt lat="44.14882" lon="5.35953">
        <ele>1168</ele>
        <time>2020-07-11T08:50:19.596Z</time>
      </trkpt>
      <trkpt lat="44.14886" lon="5.35954">
        <ele>1167</ele>
        <time>2020-07-11T08:50:20.595Z</time>
      </trkpt>
      <trkpt lat="44.1489" lon="5.35956">
        <ele>1167</ele>
        <time>2020-07-11T08:50:21.596Z</time>
      </trkpt>
      <trkpt lat="44.14894" lon="5.35957">
        <ele>1168</ele>
        <time>2020-07-11T08:50:22.596Z</time>
      </trkpt>
      <trkpt lat="44.14898" lon="5.35958">
        <ele>1168</ele>
        <time>2020-07-11T08:50:23.596Z</time>
      </trkpt>
      <trkpt lat="44.14902" lon="5.35959">
        <ele>1168</ele>
        <time>2020-07-11T08:50:24.596Z</time>
      </trkpt>
      <trkpt lat="44.14906" lon="5.35961">
        <ele>1168</ele>
        <time>2020-07-11T08:50:25.596Z</time>
      </trkpt>
      <trkpt lat="44.1491" lon="5.35962">
        <ele>1168</ele>
        <time>2020-07-11T08:50:26.596Z</time>
      </trkpt>
      <trkpt lat="44.14914" lon="5.35964">
        <ele>1168</ele>
        <time>2020-07-11T08:50:27.596Z</time>
      </trkpt>
      <trkpt lat="44.14917" lon="5.35965">
        <ele>1169</ele>
        <time>2020-07-11T08:50:28.596Z</time>
      </trkpt>
      <trkpt lat="44.14921" lon="5.35966">
        <ele>1169</ele>
        <time>2020-07-11T08:50:29.596Z</time>
      </trkpt>
      <trkpt lat="44.14925" lon="5.35967">
        <ele>1169</ele>
        <time>2020-07-11T08:50:30.596Z</time>
      </trkpt>
      <trkpt lat="44.14929" lon="5.35968">
        <ele>1169</ele>
        <time>2020-07-11T08:50:31.596Z</time>
      </trkpt>
      <trkpt lat="44.14933" lon="5.35969">
        <ele>1170</ele>
        <time>2020-07-11T08:50:32.596Z</time>
      </trkpt>
      <trkpt lat="44.14937" lon="5.3597">
        <ele>1170</ele>
        <time>2020-07-11T08:50:33.596Z</time>
      </trkpt>
      <trkpt lat="44.14941" lon="5.35971">
        <ele>1171</ele>
        <time>2020-07-11T08:50:34.596Z</time>
      </trkpt>
      <trkpt lat="44.14944" lon="5.35971">
        <ele>1171</ele>
        <time>2020-07-11T08:50:35.596Z</time>
      </trkpt>
      <trkpt lat="44.14948" lon="5.3597">
        <ele>1171</ele>
        <time>2020-07-11T08:50:36.595Z</time>
      </trkpt>
      <trkpt lat="44.14951" lon="5.35967">
        <ele>1171</ele>
        <time>2020-07-11T08:50:37.596Z</time>
      </trkpt>
      <trkpt lat="44.14953" lon="5.35964">
        <ele>1171</ele>
        <time>2020-07-11T08:50:38.596Z</time>
      </trkpt>
      <trkpt lat="44.14955" lon="5.3596">
        <ele>1172</ele>
        <time>2020-07-11T08:50:39.595Z</time>
      </trkpt>
      <trkpt lat="44.14957" lon="5.35955">
        <ele>1172</ele>
        <time>2020-07-11T08:50:40.596Z</time>
      </trkpt>
      <trkpt lat="44.14958" lon="5.3595">
        <ele>1172</ele>
        <time>2020-07-11T08:50:41.596Z</time>
      </trkpt>
      <trkpt lat="44.14958" lon="5.35944">
        <ele>1173</ele>
        <time>2020-07-11T08:50:42.596Z</time>
      </trkpt>
      <trkpt lat="44.14957" lon="5.3594">
        <ele>1173</ele>
        <time>2020-07-11T08:50:43.596Z</time>
      </trkpt>
      <trkpt lat="44.14954" lon="5.35935">
        <ele>1174</ele>
        <time>2020-07-11T08:50:44.596Z</time>
      </trkpt>
      <trkpt lat="44.14951" lon="5.3593">
        <ele>1175</ele>
        <time>2020-07-11T08:50:45.596Z</time>
      </trkpt>
      <trkpt lat="44.14947" lon="5.35928">
        <ele>1176</ele>
        <time>2020-07-11T08:50:46.595Z</time>
      </trkpt>
      <trkpt lat="44.1494" lon="5.35926">
        <ele>1177</ele>
        <time>2020-07-11T08:50:47.596Z</time>
      </trkpt>
      <trkpt lat="44.14936" lon="5.35924">
        <ele>1178</ele>
        <time>2020-07-11T08:50:48.596Z</time>
      </trkpt>
      <trkpt lat="44.14931" lon="5.35921">
        <ele>1179</ele>
        <time>2020-07-11T08:50:49.596Z</time>
      </trkpt>
      <trkpt lat="44.14926" lon="5.35916">
        <ele>1180</ele>
        <time>2020-07-11T08:50:50.596Z</time>
      </trkpt>
      <trkpt lat="44.14923" lon="5.35912">
        <ele>1181</ele>
        <time>2020-07-11T08:50:51.596Z</time>
      </trkpt>
      <trkpt lat="44.1492" lon="5.35908">
        <ele>1182</ele>
        <time>2020-07-11T08:50:52.596Z</time>
      </trkpt>
      <trkpt lat="44.14917" lon="5.35904">
        <ele>1183</ele>
        <time>2020-07-11T08:50:53.596Z</time>
      </trkpt>
      <trkpt lat="44.14913" lon="5.35901">
        <ele>1184</ele>
        <time>2020-07-11T08:50:54.596Z</time>
      </trkpt>
      <trkpt lat="44.14909" lon="5.35897">
        <ele>1184</ele>
        <time>2020-07-11T08:50:55.596Z</time>
      </trkpt>
      <trkpt lat="44.14905" lon="5.35893">
        <ele>1185</ele>
        <time>2020-07-11T08:50:56.596Z</time>
      </trkpt>
      <trkpt lat="44.14902" lon="5.35888">
        <ele>1185</ele>
        <time>2020-07-11T08:50:57.596Z</time>
      </trkpt>
      <trkpt lat="44.149" lon="5.35885">
        <ele>1185</ele>
        <time>2020-07-11T08:50:58.595Z</time>
      </trkpt>
      <trkpt lat="44.14896" lon="5.35879">
        <ele>1186</ele>
        <time>2020-07-11T08:50:59.596Z</time>
      </trkpt>
      <trkpt lat="44.14893" lon="5.35873">
        <ele>1186</ele>
        <time>2020-07-11T08:51:00.596Z</time>
      </trkpt>
      <trkpt lat="44.14891" lon="5.35868">
        <ele>1187</ele>
        <time>2020-07-11T08:51:01.596Z</time>
      </trkpt>
      <trkpt lat="44.14889" lon="5.35863">
        <ele>1188</ele>
        <time>2020-07-11T08:51:02.596Z</time>
      </trkpt>
      <trkpt lat="44.14888" lon="5.35857">
        <ele>1188</ele>
        <time>2020-07-11T08:51:03.596Z</time>
      </trkpt>
      <trkpt lat="44.14886" lon="5.3585">
        <ele>1188</ele>
        <time>2020-07-11T08:51:04.595Z</time>
      </trkpt>
      <trkpt lat="44.14886" lon="5.35844">
        <ele>1188</ele>
        <time>2020-07-11T08:51:05.596Z</time>
      </trkpt>
      <trkpt lat="44.14885" lon="5.35838">
        <ele>1188</ele>
        <time>2020-07-11T08:51:06.596Z</time>
      </trkpt>
      <trkpt lat="44.14884" lon="5.35834">
        <ele>1188</ele>
        <time>2020-07-11T08:51:07.596Z</time>
      </trkpt>
      <trkpt lat="44.14882" lon="5.35827">
        <ele>1187</ele>
        <time>2020-07-11T08:51:08.595Z</time>
      </trkpt>
      <trkpt lat="44.1488" lon="5.35821">
        <ele>1188</ele>
        <time>2020-07-11T08:51:09.596Z</time>
      </trkpt>
      <trkpt lat="44.14879" lon="5.35815">
        <ele>1188</ele>
        <time>2020-07-11T08:51:10.596Z</time>
      </trkpt>
      <trkpt lat="44.14878" lon="5.35808">
        <ele>1188</ele>
        <time>2020-07-11T08:51:11.595Z</time>
      </trkpt>
      <trkpt lat="44.14877" lon="5.35802">
        <ele>1189</ele>
        <time>2020-07-11T08:51:12.595Z</time>
      </trkpt>
      <trkpt lat="44.14876" lon="5.35795">
        <ele>1189</ele>
        <time>2020-07-11T08:51:13.596Z</time>
      </trkpt>
      <trkpt lat="44.14875" lon="5.35789">
        <ele>1189</ele>
        <time>2020-07-11T08:51:14.596Z</time>
      </trkpt>
      <trkpt lat="44.14873" lon="5.35784">
        <ele>1189</ele>
        <time>2020-07-11T08:51:15.596Z</time>
      </trkpt>
      <trkpt lat="44.14872" lon="5.35779">
        <ele>1190</ele>
        <time>2020-07-11T08:51:16.596Z</time>
      </trkpt>
      <trkpt lat="44.14871" lon="5.35773">
        <ele>1190</ele>
        <time>2020-07-11T08:51:17.596Z</time>
      </trkpt>
      <trkpt lat="44.1487" lon="5.35768">
        <ele>1190</ele>
        <time>2020-07-11T08:51:18.596Z</time>
      </trkpt>
      <trkpt lat="44.14869" lon="5.35763">
        <ele>1190</ele>
        <time>2020-07-11T08:51:19.596Z</time>
      </trkpt>
      <trkpt lat="44.14869" lon="5.35758">
        <ele>1190</ele>
        <time>2020-07-11T08:51:20.595Z</time>
      </trkpt>
      <trkpt lat="44.14868" lon="5.35754">
        <ele>1190</ele>
        <time>2020-07-11T08:51:21.596Z</time>
      </trkpt>
      <trkpt lat="44.14867" lon="5.3575">
        <ele>1190</ele>
        <time>2020-07-11T08:51:22.596Z</time>
      </trkpt>
      <trkpt lat="44.14867" lon="5.35746">
        <ele>1190</ele>
        <time>2020-07-11T08:51:23.596Z</time>
      </trkpt>
      <trkpt lat="44.14866" lon="5.35741">
        <ele>1190</ele>
        <time>2020-07-11T08:51:24.596Z</time>
      </trkpt>
      <trkpt lat="44.14866" lon="5.35736">
        <ele>1190</ele>
        <time>2020-07-11T08:51:25.595Z</time>
      </trkpt>
      <trkpt lat="44.14866" lon="5.35731">
        <ele>1190</ele>
        <time>2020-07-11T08:51:26.596Z</time>
      </trkpt>
      <trkpt lat="44.14867" lon="5.35724">
        <ele>1190</ele>
        <time>2020-07-11T08:51:27.596Z</time>
      </trkpt>
      <trkpt lat="44.14867" lon="5.35718">
        <ele>1190</ele>
        <time>2020-07-11T08:51:28.596Z</time>
      </trkpt>
      <trkpt lat="44.14868" lon="5.35712">
        <ele>1190</ele>
        <time>2020-07-11T08:51:29.596Z</time>
      </trkpt>
      <trkpt lat="44.14868" lon="5.35707">
        <ele>1189</ele>
        <time>2020-07-11T08:51:30.596Z</time>
      </trkpt>
      <trkpt lat="44.14869" lon="5.35701">
        <ele>1189</ele>
        <time>2020-07-11T08:51:31.596Z</time>
      </trkpt>
      <trkpt lat="44.1487" lon="5.35695">
        <ele>1189</ele>
        <time>2020-07-11T08:51:32.596Z</time>
      </trkpt>
      <trkpt lat="44.14871" lon="5.35689">
        <ele>1188</ele>
        <time>2020-07-11T08:51:33.596Z</time>
      </trkpt>
      <trkpt lat="44.14872" lon="5.35683">
        <ele>1188</ele>
        <time>2020-07-11T08:51:34.596Z</time>
      </trkpt>
      <trkpt lat="44.14874" lon="5.35677">
        <ele>1189</ele>
        <time>2020-07-11T08:51:35.595Z</time>
      </trkpt>
      <trkpt lat="44.14876" lon="5.35672">
        <ele>1189</ele>
        <time>2020-07-11T08:51:36.596Z</time>
      </trkpt>
      <trkpt lat="44.14877" lon="5.35666">
        <ele>1190</ele>
        <time>2020-07-11T08:51:37.596Z</time>
      </trkpt>
      <trkpt lat="44.14879" lon="5.3566">
        <ele>1191</ele>
        <time>2020-07-11T08:51:38.596Z</time>
      </trkpt>
      <trkpt lat="44.14881" lon="5.35655">
        <ele>1191</ele>
        <time>2020-07-11T08:51:39.596Z</time>
      </trkpt>
      <trkpt lat="44.14882" lon="5.35649">
        <ele>1192</ele>
        <time>2020-07-11T08:51:40.596Z</time>
      </trkpt>
      <trkpt lat="44.14885" lon="5.35644">
        <ele>1193</ele>
        <time>2020-07-11T08:51:41.596Z</time>
      </trkpt>
      <trkpt lat="44.14887" lon="5.35639">
        <ele>1194</ele>
        <time>2020-07-11T08:51:42.596Z</time>
      </trkpt>
      <trkpt lat="44.14889" lon="5.35634">
        <ele>1194</ele>
        <time>2020-07-11T08:51:43.595Z</time>
      </trkpt>
      <trkpt lat="44.14891" lon="5.35629">
        <ele>1195</ele>
        <time>2020-07-11T08:51:44.596Z</time>
      </trkpt>
      <trkpt lat="44.14894" lon="5.35624">
        <ele>1196</ele>
        <time>2020-07-11T08:51:45.596Z</time>
      </trkpt>
      <trkpt lat="44.14896" lon="5.3562">
        <ele>1197</ele>
        <time>2020-07-11T08:51:46.595Z</time>
      </trkpt>
      <trkpt lat="44.14898" lon="5.35615">
        <ele>1198</ele>
        <time>2020-07-11T08:51:47.595Z</time>
      </trkpt>
      <trkpt lat="44.14901" lon="5.35611">
        <ele>1198</ele>
        <time>2020-07-11T08:51:48.596Z</time>
      </trkpt>
      <trkpt lat="44.14904" lon="5.35606">
        <ele>1199</ele>
        <time>2020-07-11T08:51:49.596Z</time>
      </trkpt>
      <trkpt lat="44.14906" lon="5.35602">
        <ele>1199</ele>
        <time>2020-07-11T08:51:50.595Z</time>
      </trkpt>
      <trkpt lat="44.14908" lon="5.35597">
        <ele>1200</ele>
        <time>2020-07-11T08:51:51.596Z</time>
      </trkpt>
      <trkpt lat="44.14911" lon="5.35593">
        <ele>1200</ele>
        <time>2020-07-11T08:51:52.596Z</time>
      </trkpt>
      <trkpt lat="44.14914" lon="5.35589">
        <ele>1201</ele>
        <time>2020-07-11T08:51:53.596Z</time>
      </trkpt>
      <trkpt lat="44.14917" lon="5.35584">
        <ele>1201</ele>
        <time>2020-07-11T08:51:54.596Z</time>
      </trkpt>
      <trkpt lat="44.1492" lon="5.35581">
        <ele>1202</ele>
        <time>2020-07-11T08:51:55.596Z</time>
      </trkpt>
      <trkpt lat="44.14923" lon="5.35577">
        <ele>1202</ele>
        <time>2020-07-11T08:51:56.595Z</time>
      </trkpt>
      <trkpt lat="44.14926" lon="5.35573">
        <ele>1203</ele>
        <time>2020-07-11T08:51:57.596Z</time>
      </trkpt>
      <trkpt lat="44.14929" lon="5.3557">
        <ele>1203</ele>
        <time>2020-07-11T08:51:58.595Z</time>
      </trkpt>
      <trkpt lat="44.14932" lon="5.35566">
        <ele>1204</ele>
        <time>2020-07-11T08:51:59.596Z</time>
      </trkpt>
      <trkpt lat="44.14935" lon="5.35562">
        <ele>1204</ele>
        <time>2020-07-11T08:52:00.596Z</time>
      </trkpt>
      <trkpt lat="44.14939" lon="5.35558">
        <ele>1204</ele>
        <time>2020-07-11T08:52:01.595Z</time>
      </trkpt>
      <trkpt lat="44.14942" lon="5.35554">
        <ele>1205</ele>
        <time>2020-07-11T08:52:02.596Z</time>
      </trkpt>
      <trkpt lat="44.14945" lon="5.35551">
        <ele>1205</ele>
        <time>2020-07-11T08:52:03.596Z</time>
      </trkpt>
      <trkpt lat="44.14948" lon="5.35547">
        <ele>1206</ele>
        <time>2020-07-11T08:52:04.595Z</time>
      </trkpt>
      <trkpt lat="44.14951" lon="5.35544">
        <ele>1206</ele>
        <time>2020-07-11T08:52:05.596Z</time>
      </trkpt>
      <trkpt lat="44.14954" lon="5.35541">
        <ele>1207</ele>
        <time>2020-07-11T08:52:06.596Z</time>
      </trkpt>
      <trkpt lat="44.14957" lon="5.35538">
        <ele>1207</ele>
        <time>2020-07-11T08:52:07.596Z</time>
      </trkpt>
      <trkpt lat="44.1496" lon="5.35535">
        <ele>1208</ele>
        <time>2020-07-11T08:52:08.596Z</time>
      </trkpt>
      <trkpt lat="44.14963" lon="5.35532">
        <ele>1208</ele>
        <time>2020-07-11T08:52:09.595Z</time>
      </trkpt>
      <trkpt lat="44.14966" lon="5.35529">
        <ele>1209</ele>
        <time>2020-07-11T08:52:10.596Z</time>
      </trkpt>
      <trkpt lat="44.1497" lon="5.35527">
        <ele>1209</ele>
        <time>2020-07-11T08:52:11.596Z</time>
      </trkpt>
      <trkpt lat="44.14973" lon="5.35524">
        <ele>1209</ele>
        <time>2020-07-11T08:52:12.596Z</time>
      </trkpt>
      <trkpt lat="44.14977" lon="5.35521">
        <ele>1210</ele>
        <time>2020-07-11T08:52:13.595Z</time>
      </trkpt>
      <trkpt lat="44.14981" lon="5.3552">
        <ele>1209</ele>
        <time>2020-07-11T08:52:14.596Z</time>
      </trkpt>
      <trkpt lat="44.14984" lon="5.35518">
        <ele>1209</ele>
        <time>2020-07-11T08:52:15.596Z</time>
      </trkpt>
      <trkpt lat="44.14988" lon="5.35516">
        <ele>1209</ele>
        <time>2020-07-11T08:52:16.596Z</time>
      </trkpt>
      <trkpt lat="44.14991" lon="5.35515">
        <ele>1209</ele>
        <time>2020-07-11T08:52:17.596Z</time>
      </trkpt>
      <trkpt lat="44.14995" lon="5.35513">
        <ele>1209</ele>
        <time>2020-07-11T08:52:18.596Z</time>
      </trkpt>
      <trkpt lat="44.14999" lon="5.3551">
        <ele>1209</ele>
        <time>2020-07-11T08:52:19.596Z</time>
      </trkpt>
      <trkpt lat="44.15002" lon="5.35508">
        <ele>1209</ele>
        <time>2020-07-11T08:52:20.596Z</time>
      </trkpt>
      <trkpt lat="44.15006" lon="5.35506">
        <ele>1209</ele>
        <time>2020-07-11T08:52:21.596Z</time>
      </trkpt>
      <trkpt lat="44.15009" lon="5.35505">
        <ele>1209</ele>
        <time>2020-07-11T08:52:22.596Z</time>
      </trkpt>
      <trkpt lat="44.15013" lon="5.35504">
        <ele>1209</ele>
        <time>2020-07-11T08:52:23.596Z</time>
      </trkpt>
      <trkpt lat="44.15017" lon="5.35503">
        <ele>1208</ele>
        <time>2020-07-11T08:52:24.596Z</time>
      </trkpt>
      <trkpt lat="44.15021" lon="5.35503">
        <ele>1208</ele>
        <time>2020-07-11T08:52:25.596Z</time>
      </trkpt>
      <trkpt lat="44.15025" lon="5.35504">
        <ele>1207</ele>
        <time>2020-07-11T08:52:26.596Z</time>
      </trkpt>
      <trkpt lat="44.15028" lon="5.35504">
        <ele>1206</ele>
        <time>2020-07-11T08:52:27.596Z</time>
      </trkpt>
      <trkpt lat="44.15032" lon="5.35504">
        <ele>1206</ele>
        <time>2020-07-11T08:52:28.595Z</time>
      </trkpt>
      <trkpt lat="44.15036" lon="5.35504">
        <ele>1206</ele>
        <time>2020-07-11T08:52:29.596Z</time>
      </trkpt>
      <trkpt lat="44.15039" lon="5.35505">
        <ele>1205</ele>
        <time>2020-07-11T08:52:30.596Z</time>
      </trkpt>
      <trkpt lat="44.15043" lon="5.35506">
        <ele>1205</ele>
        <time>2020-07-11T08:52:31.595Z</time>
      </trkpt>
      <trkpt lat="44.15047" lon="5.35507">
        <ele>1205</ele>
        <time>2020-07-11T08:52:32.596Z</time>
      </trkpt>
      <trkpt lat="44.15051" lon="5.35508">
        <ele>1205</ele>
        <time>2020-07-11T08:52:33.596Z</time>
      </trkpt>
      <trkpt lat="44.15055" lon="5.3551">
        <ele>1206</ele>
        <time>2020-07-11T08:52:34.596Z</time>
      </trkpt>
      <trkpt lat="44.15059" lon="5.35512">
        <ele>1206</ele>
        <time>2020-07-11T08:52:35.595Z</time>
      </trkpt>
      <trkpt lat="44.15062" lon="5.35515">
        <ele>1206</ele>
        <time>2020-07-11T08:52:36.596Z</time>
      </trkpt>
      <trkpt lat="44.15065" lon="5.35518">
        <ele>1206</ele>
        <time>2020-07-11T08:52:37.596Z</time>
      </trkpt>
      <trkpt lat="44.15068" lon="5.35522">
        <ele>1207</ele>
        <time>2020-07-11T08:52:38.596Z</time>
      </trkpt>
      <trkpt lat="44.15071" lon="5.35526">
        <ele>1207</ele>
        <time>2020-07-11T08:52:39.596Z</time>
      </trkpt>
      <trkpt lat="44.15074" lon="5.35529">
        <ele>1208</ele>
        <time>2020-07-11T08:52:40.596Z</time>
      </trkpt>
      <trkpt lat="44.15077" lon="5.35533">
        <ele>1209</ele>
        <time>2020-07-11T08:52:41.596Z</time>
      </trkpt>
      <trkpt lat="44.1508" lon="5.35538">
        <ele>1209</ele>
        <time>2020-07-11T08:52:42.596Z</time>
      </trkpt>
      <trkpt lat="44.15083" lon="5.35542">
        <ele>1210</ele>
        <time>2020-07-11T08:52:43.596Z</time>
      </trkpt>
      <trkpt lat="44.15086" lon="5.35545">
        <ele>1210</ele>
        <time>2020-07-11T08:52:44.596Z</time>
      </trkpt>
      <trkpt lat="44.15089" lon="5.35549">
        <ele>1211</ele>
        <time>2020-07-11T08:52:45.595Z</time>
      </trkpt>
      <trkpt lat="44.15092" lon="5.35553">
        <ele>1211</ele>
        <time>2020-07-11T08:52:46.596Z</time>
      </trkpt>
      <trkpt lat="44.15095" lon="5.35557">
        <ele>1212</ele>
        <time>2020-07-11T08:52:47.596Z</time>
      </trkpt>
      <trkpt lat="44.15098" lon="5.3556">
        <ele>1212</ele>
        <time>2020-07-11T08:52:48.596Z</time>
      </trkpt>
      <trkpt lat="44.15102" lon="5.35563">
        <ele>1212</ele>
        <time>2020-07-11T08:52:49.595Z</time>
      </trkpt>
      <trkpt lat="44.15106" lon="5.35564">
        <ele>1212</ele>
        <time>2020-07-11T08:52:50.596Z</time>
      </trkpt>
      <trkpt lat="44.1511" lon="5.35564">
        <ele>1212</ele>
        <time>2020-07-11T08:52:51.595Z</time>
      </trkpt>
      <trkpt lat="44.15114" lon="5.35563">
        <ele>1212</ele>
        <time>2020-07-11T08:52:52.596Z</time>
      </trkpt>
      <trkpt lat="44.15117" lon="5.35561">
        <ele>1212</ele>
        <time>2020-07-11T08:52:53.596Z</time>
      </trkpt>
      <trkpt lat="44.15121" lon="5.35558">
        <ele>1212</ele>
        <time>2020-07-11T08:52:54.596Z</time>
      </trkpt>
      <trkpt lat="44.15123" lon="5.35554">
        <ele>1213</ele>
        <time>2020-07-11T08:52:55.595Z</time>
      </trkpt>
      <trkpt lat="44.15126" lon="5.3555">
        <ele>1213</ele>
        <time>2020-07-11T08:52:56.596Z</time>
      </trkpt>
      <trkpt lat="44.15128" lon="5.35544">
        <ele>1214</ele>
        <time>2020-07-11T08:52:57.596Z</time>
      </trkpt>
      <trkpt lat="44.1513" lon="5.35539">
        <ele>1214</ele>
        <time>2020-07-11T08:52:58.596Z</time>
      </trkpt>
      <trkpt lat="44.15132" lon="5.35533">
        <ele>1214</ele>
        <time>2020-07-11T08:52:59.596Z</time>
      </trkpt>
      <trkpt lat="44.15135" lon="5.35528">
        <ele>1215</ele>
        <time>2020-07-11T08:53:00.596Z</time>
      </trkpt>
      <trkpt lat="44.15138" lon="5.35523">
        <ele>1215</ele>
        <time>2020-07-11T08:53:01.596Z</time>
      </trkpt>
      <trkpt lat="44.1514" lon="5.35518">
        <ele>1215</ele>
        <time>2020-07-11T08:53:02.596Z</time>
      </trkpt>
      <trkpt lat="44.15143" lon="5.35514">
        <ele>1216</ele>
        <time>2020-07-11T08:53:03.595Z</time>
      </trkpt>
      <trkpt lat="44.15146" lon="5.3551">
        <ele>1216</ele>
        <time>2020-07-11T08:53:04.596Z</time>
      </trkpt>
      <trkpt lat="44.15149" lon="5.35506">
        <ele>1216</ele>
        <time>2020-07-11T08:53:05.596Z</time>
      </trkpt>
      <trkpt lat="44.15152" lon="5.35503">
        <ele>1216</ele>
        <time>2020-07-11T08:53:06.596Z</time>
      </trkpt>
      <trkpt lat="44.15155" lon="5.35499">
        <ele>1217</ele>
        <time>2020-07-11T08:53:07.596Z</time>
      </trkpt>
      <trkpt lat="44.15159" lon="5.35496">
        <ele>1217</ele>
        <time>2020-07-11T08:53:08.596Z</time>
      </trkpt>
      <trkpt lat="44.15162" lon="5.35492">
        <ele>1218</ele>
        <time>2020-07-11T08:53:09.596Z</time>
      </trkpt>
      <trkpt lat="44.15165" lon="5.3549">
        <ele>1218</ele>
        <time>2020-07-11T08:53:10.596Z</time>
      </trkpt>
      <trkpt lat="44.15168" lon="5.35487">
        <ele>1219</ele>
        <time>2020-07-11T08:53:11.595Z</time>
      </trkpt>
      <trkpt lat="44.15171" lon="5.35484">
        <ele>1219</ele>
        <time>2020-07-11T08:53:12.596Z</time>
      </trkpt>
      <trkpt lat="44.15174" lon="5.35481">
        <ele>1219</ele>
        <time>2020-07-11T08:53:13.596Z</time>
      </trkpt>
      <trkpt lat="44.15177" lon="5.35479">
        <ele>1219</ele>
        <time>2020-07-11T08:53:14.595Z</time>
      </trkpt>
      <trkpt lat="44.1518" lon="5.35476">
        <ele>1219</ele>
        <time>2020-07-11T08:53:15.596Z</time>
      </trkpt>
      <trkpt lat="44.15183" lon="5.35473">
        <ele>1219</ele>
        <time>2020-07-11T08:53:16.595Z</time>
      </trkpt>
      <trkpt lat="44.15186" lon="5.35471">
        <ele>1220</ele>
        <time>2020-07-11T08:53:17.596Z</time>
      </trkpt>
      <trkpt lat="44.1519" lon="5.35469">
        <ele>1220</ele>
        <time>2020-07-11T08:53:18.596Z</time>
      </trkpt>
      <trkpt lat="44.15193" lon="5.35467">
        <ele>1221</ele>
        <time>2020-07-11T08:53:19.596Z</time>
      </trkpt>
      <trkpt lat="44.15197" lon="5.35465">
        <ele>1222</ele>
        <time>2020-07-11T08:53:20.595Z</time>
      </trkpt>
      <trkpt lat="44.15201" lon="5.35464">
        <ele>1223</ele>
        <time>2020-07-11T08:53:21.595Z</time>
      </trkpt>
      <trkpt lat="44.15205" lon="5.35463">
        <ele>1224</ele>
        <time>2020-07-11T08:53:22.596Z</time>
      </trkpt>
      <trkpt lat="44.15209" lon="5.35462">
        <ele>1225</ele>
        <time>2020-07-11T08:53:23.596Z</time>
      </trkpt>
      <trkpt lat="44.15212" lon="5.3546">
        <ele>1225</ele>
        <time>2020-07-11T08:53:24.596Z</time>
      </trkpt>
      <trkpt lat="44.15216" lon="5.35457">
        <ele>1226</ele>
        <time>2020-07-11T08:53:25.595Z</time>
      </trkpt>
      <trkpt lat="44.15219" lon="5.35454">
        <ele>1227</ele>
        <time>2020-07-11T08:53:26.595Z</time>
      </trkpt>
      <trkpt lat="44.15222" lon="5.3545">
        <ele>1227</ele>
        <time>2020-07-11T08:53:27.595Z</time>
      </trkpt>
      <trkpt lat="44.15224" lon="5.35445">
        <ele>1227</ele>
        <time>2020-07-11T08:53:28.595Z</time>
      </trkpt>
      <trkpt lat="44.15225" lon="5.3544">
        <ele>1227</ele>
        <time>2020-07-11T08:53:29.595Z</time>
      </trkpt>
      <trkpt lat="44.15225" lon="5.35435">
        <ele>1227</ele>
        <time>2020-07-11T08:53:30.596Z</time>
      </trkpt>
      <trkpt lat="44.15226" lon="5.3543">
        <ele>1227</ele>
        <time>2020-07-11T08:53:31.596Z</time>
      </trkpt>
      <trkpt lat="44.15225" lon="5.35424">
        <ele>1228</ele>
        <time>2020-07-11T08:53:32.596Z</time>
      </trkpt>
      <trkpt lat="44.15225" lon="5.35417">
        <ele>1228</ele>
        <time>2020-07-11T08:53:33.595Z</time>
      </trkpt>
      <trkpt lat="44.15224" lon="5.35412">
        <ele>1227</ele>
        <time>2020-07-11T08:53:34.596Z</time>
      </trkpt>
      <trkpt lat="44.15224" lon="5.35406">
        <ele>1227</ele>
        <time>2020-07-11T08:53:35.595Z</time>
      </trkpt>
      <trkpt lat="44.15223" lon="5.35401">
        <ele>1228</ele>
        <time>2020-07-11T08:53:36.595Z</time>
      </trkpt>
      <trkpt lat="44.15223" lon="5.35394">
        <ele>1228</ele>
        <time>2020-07-11T08:53:37.596Z</time>
      </trkpt>
      <trkpt lat="44.15224" lon="5.3539">
        <ele>1227</ele>
        <time>2020-07-11T08:53:38.595Z</time>
      </trkpt>
      <trkpt lat="44.15224" lon="5.35384">
        <ele>1227</ele>
        <time>2020-07-11T08:53:39.596Z</time>
      </trkpt>
      <trkpt lat="44.15224" lon="5.35379">
        <ele>1227</ele>
        <time>2020-07-11T08:53:40.596Z</time>
      </trkpt>
      <trkpt lat="44.15225" lon="5.35372">
        <ele>1227</ele>
        <time>2020-07-11T08:53:41.596Z</time>
      </trkpt>
      <trkpt lat="44.15226" lon="5.35368">
        <ele>1227</ele>
        <time>2020-07-11T08:53:42.596Z</time>
      </trkpt>
      <trkpt lat="44.15226" lon="5.35362">
        <ele>1227</ele>
        <time>2020-07-11T08:53:43.596Z</time>
      </trkpt>
      <trkpt lat="44.15227" lon="5.35357">
        <ele>1227</ele>
        <time>2020-07-11T08:53:44.596Z</time>
      </trkpt>
      <trkpt lat="44.15228" lon="5.35351">
        <ele>1228</ele>
        <time>2020-07-11T08:53:45.596Z</time>
      </trkpt>
      <trkpt lat="44.15229" lon="5.35346">
        <ele>1228</ele>
        <time>2020-07-11T08:53:46.596Z</time>
      </trkpt>
      <trkpt lat="44.1523" lon="5.3534">
        <ele>1228</ele>
        <time>2020-07-11T08:53:47.596Z</time>
      </trkpt>
      <trkpt lat="44.15232" lon="5.35335">
        <ele>1228</ele>
        <time>2020-07-11T08:53:48.596Z</time>
      </trkpt>
      <trkpt lat="44.15233" lon="5.3533">
        <ele>1229</ele>
        <time>2020-07-11T08:53:49.596Z</time>
      </trkpt>
      <trkpt lat="44.15234" lon="5.35325">
        <ele>1229</ele>
        <time>2020-07-11T08:53:50.596Z</time>
      </trkpt>
      <trkpt lat="44.15235" lon="5.3532">
        <ele>1230</ele>
        <time>2020-07-11T08:53:51.596Z</time>
      </trkpt>
      <trkpt lat="44.15236" lon="5.35314">
        <ele>1231</ele>
        <time>2020-07-11T08:53:52.596Z</time>
      </trkpt>
      <trkpt lat="44.15237" lon="5.3531">
        <ele>1231</ele>
        <time>2020-07-11T08:53:53.596Z</time>
      </trkpt>
      <trkpt lat="44.15239" lon="5.35304">
        <ele>1232</ele>
        <time>2020-07-11T08:53:54.596Z</time>
      </trkpt>
      <trkpt lat="44.1524" lon="5.353">
        <ele>1232</ele>
        <time>2020-07-11T08:53:55.595Z</time>
      </trkpt>
      <trkpt lat="44.15242" lon="5.35295">
        <ele>1232</ele>
        <time>2020-07-11T08:53:56.596Z</time>
      </trkpt>
      <trkpt lat="44.15243" lon="5.3529">
        <ele>1232</ele>
        <time>2020-07-11T08:53:57.596Z</time>
      </trkpt>
      <trkpt lat="44.15245" lon="5.35285">
        <ele>1233</ele>
        <time>2020-07-11T08:53:58.596Z</time>
      </trkpt>
      <trkpt lat="44.15247" lon="5.35281">
        <ele>1233</ele>
        <time>2020-07-11T08:53:59.595Z</time>
      </trkpt>
      <trkpt lat="44.15249" lon="5.35276">
        <ele>1234</ele>
        <time>2020-07-11T08:54:00.596Z</time>
      </trkpt>
      <trkpt lat="44.15251" lon="5.35272">
        <ele>1234</ele>
        <time>2020-07-11T08:54:01.596Z</time>
      </trkpt>
      <trkpt lat="44.15253" lon="5.35268">
        <ele>1235</ele>
        <time>2020-07-11T08:54:02.596Z</time>
      </trkpt>
      <trkpt lat="44.15255" lon="5.35263">
        <ele>1235</ele>
        <time>2020-07-11T08:54:03.596Z</time>
      </trkpt>
      <trkpt lat="44.15257" lon="5.35259">
        <ele>1236</ele>
        <time>2020-07-11T08:54:04.596Z</time>
      </trkpt>
      <trkpt lat="44.1526" lon="5.35254">
        <ele>1236</ele>
        <time>2020-07-11T08:54:05.596Z</time>
      </trkpt>
      <trkpt lat="44.15262" lon="5.3525">
        <ele>1237</ele>
        <time>2020-07-11T08:54:06.596Z</time>
      </trkpt>
      <trkpt lat="44.15264" lon="5.35245">
        <ele>1237</ele>
        <time>2020-07-11T08:54:07.595Z</time>
      </trkpt>
      <trkpt lat="44.15266" lon="5.35241">
        <ele>1238</ele>
        <time>2020-07-11T08:54:08.596Z</time>
      </trkpt>
      <trkpt lat="44.15268" lon="5.35236">
        <ele>1238</ele>
        <time>2020-07-11T08:54:09.596Z</time>
      </trkpt>
      <trkpt lat="44.15269" lon="5.35231">
        <ele>1239</ele>
        <time>2020-07-11T08:54:10.596Z</time>
      </trkpt>
      <trkpt lat="44.15271" lon="5.35226">
        <ele>1239</ele>
        <time>2020-07-11T08:54:11.595Z</time>
      </trkpt>
      <trkpt lat="44.15272" lon="5.3522">
        <ele>1240</ele>
        <time>2020-07-11T08:54:12.596Z</time>
      </trkpt>
      <trkpt lat="44.15274" lon="5.35215">
        <ele>1240</ele>
        <time>2020-07-11T08:54:13.596Z</time>
      </trkpt>
      <trkpt lat="44.15275" lon="5.3521">
        <ele>1240</ele>
        <time>2020-07-11T08:54:14.596Z</time>
      </trkpt>
      <trkpt lat="44.15276" lon="5.35205">
        <ele>1240</ele>
        <time>2020-07-11T08:54:15.596Z</time>
      </trkpt>
      <trkpt lat="44.15277" lon="5.35199">
        <ele>1240</ele>
        <time>2020-07-11T08:54:16.596Z</time>
      </trkpt>
      <trkpt lat="44.15278" lon="5.35194">
        <ele>1241</ele>
        <time>2020-07-11T08:54:17.596Z</time>
      </trkpt>
      <trkpt lat="44.15279" lon="5.35188">
        <ele>1241</ele>
        <time>2020-07-11T08:54:18.595Z</time>
      </trkpt>
      <trkpt lat="44.15279" lon="5.35182">
        <ele>1242</ele>
        <time>2020-07-11T08:54:19.596Z</time>
      </trkpt>
      <trkpt lat="44.15279" lon="5.35176">
        <ele>1242</ele>
        <time>2020-07-11T08:54:20.596Z</time>
      </trkpt>
      <trkpt lat="44.15278" lon="5.3517">
        <ele>1243</ele>
        <time>2020-07-11T08:54:21.596Z</time>
      </trkpt>
      <trkpt lat="44.15279" lon="5.35163">
        <ele>1243</ele>
        <time>2020-07-11T08:54:22.596Z</time>
      </trkpt>
      <trkpt lat="44.15279" lon="5.35157">
        <ele>1243</ele>
        <time>2020-07-11T08:54:23.596Z</time>
      </trkpt>
      <trkpt lat="44.15279" lon="5.35152">
        <ele>1243</ele>
        <time>2020-07-11T08:54:24.596Z</time>
      </trkpt>
      <trkpt lat="44.15279" lon="5.35146">
        <ele>1242</ele>
        <time>2020-07-11T08:54:25.596Z</time>
      </trkpt>
      <trkpt lat="44.15279" lon="5.3514">
        <ele>1242</ele>
        <time>2020-07-11T08:54:26.596Z</time>
      </trkpt>
      <trkpt lat="44.1528" lon="5.35134">
        <ele>1242</ele>
        <time>2020-07-11T08:54:27.596Z</time>
      </trkpt>
      <trkpt lat="44.1528" lon="5.35128">
        <ele>1242</ele>
        <time>2020-07-11T08:54:28.596Z</time>
      </trkpt>
      <trkpt lat="44.1528" lon="5.35122">
        <ele>1242</ele>
        <time>2020-07-11T08:54:29.596Z</time>
      </trkpt>
      <trkpt lat="44.1528" lon="5.35116">
        <ele>1243</ele>
        <time>2020-07-11T08:54:30.595Z</time>
      </trkpt>
      <trkpt lat="44.1528" lon="5.35111">
        <ele>1243</ele>
        <time>2020-07-11T08:54:31.596Z</time>
      </trkpt>
      <trkpt lat="44.15281" lon="5.35105">
        <ele>1243</ele>
        <time>2020-07-11T08:54:32.596Z</time>
      </trkpt>
      <trkpt lat="44.15281" lon="5.35099">
        <ele>1244</ele>
        <time>2020-07-11T08:54:33.596Z</time>
      </trkpt>
      <trkpt lat="44.15282" lon="5.35094">
        <ele>1244</ele>
        <time>2020-07-11T08:54:34.596Z</time>
      </trkpt>
      <trkpt lat="44.15282" lon="5.35087">
        <ele>1244</ele>
        <time>2020-07-11T08:54:35.596Z</time>
      </trkpt>
      <trkpt lat="44.15283" lon="5.35081">
        <ele>1245</ele>
        <time>2020-07-11T08:54:36.596Z</time>
      </trkpt>
      <trkpt lat="44.15284" lon="5.35076">
        <ele>1245</ele>
        <time>2020-07-11T08:54:37.596Z</time>
      </trkpt>
      <trkpt lat="44.15285" lon="5.3507">
        <ele>1245</ele>
        <time>2020-07-11T08:54:38.595Z</time>
      </trkpt>
      <trkpt lat="44.15287" lon="5.35065">
        <ele>1245</ele>
        <time>2020-07-11T08:54:39.596Z</time>
      </trkpt>
      <trkpt lat="44.15289" lon="5.35059">
        <ele>1246</ele>
        <time>2020-07-11T08:54:40.595Z</time>
      </trkpt>
      <trkpt lat="44.15291" lon="5.35054">
        <ele>1246</ele>
        <time>2020-07-11T08:54:41.596Z</time>
      </trkpt>
      <trkpt lat="44.15293" lon="5.35049">
        <ele>1246</ele>
        <time>2020-07-11T08:54:42.596Z</time>
      </trkpt>
      <trkpt lat="44.15296" lon="5.35045">
        <ele>1246</ele>
        <time>2020-07-11T08:54:43.596Z</time>
      </trkpt>
      <trkpt lat="44.15298" lon="5.3504">
        <ele>1247</ele>
        <time>2020-07-11T08:54:44.596Z</time>
      </trkpt>
      <trkpt lat="44.15301" lon="5.35036">
        <ele>1247</ele>
        <time>2020-07-11T08:54:45.596Z</time>
      </trkpt>
      <trkpt lat="44.15304" lon="5.35032">
        <ele>1248</ele>
        <time>2020-07-11T08:54:46.596Z</time>
      </trkpt>
      <trkpt lat="44.15306" lon="5.35028">
        <ele>1248</ele>
        <time>2020-07-11T08:54:47.596Z</time>
      </trkpt>
      <trkpt lat="44.15309" lon="5.35024">
        <ele>1248</ele>
        <time>2020-07-11T08:54:48.596Z</time>
      </trkpt>
      <trkpt lat="44.15312" lon="5.35021">
        <ele>1249</ele>
        <time>2020-07-11T08:54:49.596Z</time>
      </trkpt>
      <trkpt lat="44.15316" lon="5.35018">
        <ele>1249</ele>
        <time>2020-07-11T08:54:50.596Z</time>
      </trkpt>
      <trkpt lat="44.15319" lon="5.35015">
        <ele>1250</ele>
        <time>2020-07-11T08:54:51.596Z</time>
      </trkpt>
      <trkpt lat="44.15323" lon="5.35013">
        <ele>1250</ele>
        <time>2020-07-11T08:54:52.596Z</time>
      </trkpt>
      <trkpt lat="44.15327" lon="5.35011">
        <ele>1251</ele>
        <time>2020-07-11T08:54:53.596Z</time>
      </trkpt>
      <trkpt lat="44.1533" lon="5.35009">
        <ele>1252</ele>
        <time>2020-07-11T08:54:54.595Z</time>
      </trkpt>
      <trkpt lat="44.15335" lon="5.35007">
        <ele>1252</ele>
        <time>2020-07-11T08:54:55.596Z</time>
      </trkpt>
      <trkpt lat="44.15339" lon="5.35005">
        <ele>1252</ele>
        <time>2020-07-11T08:54:56.596Z</time>
      </trkpt>
      <trkpt lat="44.15342" lon="5.35003">
        <ele>1253</ele>
        <time>2020-07-11T08:54:57.596Z</time>
      </trkpt>
      <trkpt lat="44.15346" lon="5.35002">
        <ele>1253</ele>
        <time>2020-07-11T08:54:58.596Z</time>
      </trkpt>
      <trkpt lat="44.15352" lon="5.35001">
        <ele>1253</ele>
        <time>2020-07-11T08:54:59.596Z</time>
      </trkpt>
      <trkpt lat="44.15356" lon="5.34999">
        <ele>1253</ele>
        <time>2020-07-11T08:55:00.596Z</time>
      </trkpt>
      <trkpt lat="44.1536" lon="5.34999">
        <ele>1253</ele>
        <time>2020-07-11T08:55:01.596Z</time>
      </trkpt>
      <trkpt lat="44.15364" lon="5.34998">
        <ele>1253</ele>
        <time>2020-07-11T08:55:02.596Z</time>
      </trkpt>
      <trkpt lat="44.15368" lon="5.34998">
        <ele>1253</ele>
        <time>2020-07-11T08:55:03.596Z</time>
      </trkpt>
      <trkpt lat="44.15373" lon="5.34997">
        <ele>1253</ele>
        <time>2020-07-11T08:55:04.595Z</time>
      </trkpt>
      <trkpt lat="44.15379" lon="5.34996">
        <ele>1253</ele>
        <time>2020-07-11T08:55:05.595Z</time>
      </trkpt>
      <trkpt lat="44.15383" lon="5.34995">
        <ele>1253</ele>
        <time>2020-07-11T08:55:06.596Z</time>
      </trkpt>
      <trkpt lat="44.15387" lon="5.34994">
        <ele>1253</ele>
        <time>2020-07-11T08:55:07.596Z</time>
      </trkpt>
      <trkpt lat="44.15393" lon="5.34994">
        <ele>1252</ele>
        <time>2020-07-11T08:55:08.595Z</time>
      </trkpt>
      <trkpt lat="44.15397" lon="5.34994">
        <ele>1253</ele>
        <time>2020-07-11T08:55:09.596Z</time>
      </trkpt>
      <trkpt lat="44.15402" lon="5.34994">
        <ele>1253</ele>
        <time>2020-07-11T08:55:10.596Z</time>
      </trkpt>
      <trkpt lat="44.15406" lon="5.34995">
        <ele>1253</ele>
        <time>2020-07-11T08:55:11.596Z</time>
      </trkpt>
      <trkpt lat="44.15411" lon="5.34996">
        <ele>1253</ele>
        <time>2020-07-11T08:55:12.596Z</time>
      </trkpt>
      <trkpt lat="44.15417" lon="5.34997">
        <ele>1253</ele>
        <time>2020-07-11T08:55:13.596Z</time>
      </trkpt>
      <trkpt lat="44.15422" lon="5.34999">
        <ele>1253</ele>
        <time>2020-07-11T08:55:14.596Z</time>
      </trkpt>
      <trkpt lat="44.15427" lon="5.35">
        <ele>1252</ele>
        <time>2020-07-11T08:55:15.596Z</time>
      </trkpt>
      <trkpt lat="44.15431" lon="5.35001">
        <ele>1252</ele>
        <time>2020-07-11T08:55:16.596Z</time>
      </trkpt>
      <trkpt lat="44.15438" lon="5.35002">
        <ele>1252</ele>
        <time>2020-07-11T08:55:17.596Z</time>
      </trkpt>
      <trkpt lat="44.15443" lon="5.35002">
        <ele>1252</ele>
        <time>2020-07-11T08:55:18.596Z</time>
      </trkpt>
      <trkpt lat="44.15448" lon="5.35002">
        <ele>1252</ele>
        <time>2020-07-11T08:55:19.595Z</time>
      </trkpt>
      <trkpt lat="44.15453" lon="5.35002">
        <ele>1252</ele>
        <time>2020-07-11T08:55:20.595Z</time>
      </trkpt>
      <trkpt lat="44.1546" lon="5.35">
        <ele>1252</ele>
        <time>2020-07-11T08:55:21.595Z</time>
      </trkpt>
      <trkpt lat="44.15464" lon="5.34999">
        <ele>1252</ele>
        <time>2020-07-11T08:55:22.595Z</time>
      </trkpt>
      <trkpt lat="44.1547" lon="5.34997">
        <ele>1252</ele>
        <time>2020-07-11T08:55:23.595Z</time>
      </trkpt>
      <trkpt lat="44.15476" lon="5.34995">
        <ele>1252</ele>
        <time>2020-07-11T08:55:24.595Z</time>
      </trkpt>
      <trkpt lat="44.15483" lon="5.34992">
        <ele>1252</ele>
        <time>2020-07-11T08:55:25.595Z</time>
      </trkpt>
      <trkpt lat="44.1549" lon="5.34989">
        <ele>1252</ele>
        <time>2020-07-11T08:55:26.596Z</time>
      </trkpt>
      <trkpt lat="44.15496" lon="5.34986">
        <ele>1252</ele>
        <time>2020-07-11T08:55:27.596Z</time>
      </trkpt>
      <trkpt lat="44.15502" lon="5.34983">
        <ele>1252</ele>
        <time>2020-07-11T08:55:28.595Z</time>
      </trkpt>
      <trkpt lat="44.15508" lon="5.3498">
        <ele>1252</ele>
        <time>2020-07-11T08:55:29.596Z</time>
      </trkpt>
      <trkpt lat="44.15513" lon="5.34977">
        <ele>1252</ele>
        <time>2020-07-11T08:55:30.596Z</time>
      </trkpt>
      <trkpt lat="44.15519" lon="5.34973">
        <ele>1252</ele>
        <time>2020-07-11T08:55:31.595Z</time>
      </trkpt>
      <trkpt lat="44.15524" lon="5.3497">
        <ele>1252</ele>
        <time>2020-07-11T08:55:32.596Z</time>
      </trkpt>
      <trkpt lat="44.15529" lon="5.34966">
        <ele>1252</ele>
        <time>2020-07-11T08:55:33.596Z</time>
      </trkpt>
      <trkpt lat="44.15536" lon="5.34962">
        <ele>1252</ele>
        <time>2020-07-11T08:55:34.596Z</time>
      </trkpt>
      <trkpt lat="44.15541" lon="5.34958">
        <ele>1252</ele>
        <time>2020-07-11T08:55:35.595Z</time>
      </trkpt>
      <trkpt lat="44.15547" lon="5.34955">
        <ele>1253</ele>
        <time>2020-07-11T08:55:36.596Z</time>
      </trkpt>
      <trkpt lat="44.15553" lon="5.34952">
        <ele>1253</ele>
        <time>2020-07-11T08:55:37.595Z</time>
      </trkpt>
      <trkpt lat="44.15559" lon="5.34949">
        <ele>1253</ele>
        <time>2020-07-11T08:55:38.595Z</time>
      </trkpt>
      <trkpt lat="44.15566" lon="5.34946">
        <ele>1253</ele>
        <time>2020-07-11T08:55:39.595Z</time>
      </trkpt>
      <trkpt lat="44.15571" lon="5.34944">
        <ele>1254</ele>
        <time>2020-07-11T08:55:40.596Z</time>
      </trkpt>
      <trkpt lat="44.15579" lon="5.34943">
        <ele>1254</ele>
        <time>2020-07-11T08:55:41.596Z</time>
      </trkpt>
      <trkpt lat="44.15586" lon="5.34942">
        <ele>1254</ele>
        <time>2020-07-11T08:55:42.596Z</time>
      </trkpt>
      <trkpt lat="44.15592" lon="5.34941">
        <ele>1254</ele>
        <time>2020-07-11T08:55:43.596Z</time>
      </trkpt>
      <trkpt lat="44.15597" lon="5.34941">
        <ele>1254</ele>
        <time>2020-07-11T08:55:44.595Z</time>
      </trkpt>
      <trkpt lat="44.15604" lon="5.34941">
        <ele>1254</ele>
        <time>2020-07-11T08:55:45.596Z</time>
      </trkpt>
      <trkpt lat="44.15611" lon="5.34943">
        <ele>1254</ele>
        <time>2020-07-11T08:55:46.596Z</time>
      </trkpt>
      <trkpt lat="44.15619" lon="5.34946">
        <ele>1254</ele>
        <time>2020-07-11T08:55:47.595Z</time>
      </trkpt>
      <trkpt lat="44.15625" lon="5.34949">
        <ele>1254</ele>
        <time>2020-07-11T08:55:48.595Z</time>
      </trkpt>
      <trkpt lat="44.15631" lon="5.34953">
        <ele>1254</ele>
        <time>2020-07-11T08:55:49.595Z</time>
      </trkpt>
      <trkpt lat="44.15637" lon="5.34957">
        <ele>1254</ele>
        <time>2020-07-11T08:55:50.596Z</time>
      </trkpt>
      <trkpt lat="44.15643" lon="5.34961">
        <ele>1255</ele>
        <time>2020-07-11T08:55:51.596Z</time>
      </trkpt>
      <trkpt lat="44.15649" lon="5.34966">
        <ele>1255</ele>
        <time>2020-07-11T08:55:52.596Z</time>
      </trkpt>
      <trkpt lat="44.15654" lon="5.34969">
        <ele>1255</ele>
        <time>2020-07-11T08:55:53.596Z</time>
      </trkpt>
      <trkpt lat="44.15661" lon="5.34973">
        <ele>1255</ele>
        <time>2020-07-11T08:55:54.596Z</time>
      </trkpt>
      <trkpt lat="44.15667" lon="5.34975">
        <ele>1255</ele>
        <time>2020-07-11T08:55:55.596Z</time>
      </trkpt>
      <trkpt lat="44.15673" lon="5.34977">
        <ele>1255</ele>
        <time>2020-07-11T08:55:56.595Z</time>
      </trkpt>
      <trkpt lat="44.15679" lon="5.34978">
        <ele>1256</ele>
        <time>2020-07-11T08:55:57.596Z</time>
      </trkpt>
      <trkpt lat="44.15685" lon="5.34979">
        <ele>1256</ele>
        <time>2020-07-11T08:55:58.596Z</time>
      </trkpt>
      <trkpt lat="44.15692" lon="5.3498">
        <ele>1256</ele>
        <time>2020-07-11T08:55:59.596Z</time>
      </trkpt>
      <trkpt lat="44.157" lon="5.3498">
        <ele>1256</ele>
        <time>2020-07-11T08:56:00.596Z</time>
      </trkpt>
      <trkpt lat="44.15706" lon="5.3498">
        <ele>1256</ele>
        <time>2020-07-11T08:56:01.596Z</time>
      </trkpt>
      <trkpt lat="44.15712" lon="5.3498">
        <ele>1257</ele>
        <time>2020-07-11T08:56:02.595Z</time>
      </trkpt>
      <trkpt lat="44.15719" lon="5.34978">
        <ele>1257</ele>
        <time>2020-07-11T08:56:03.596Z</time>
      </trkpt>
      <trkpt lat="44.15725" lon="5.34974">
        <ele>1257</ele>
        <time>2020-07-11T08:56:04.596Z</time>
      </trkpt>
      <trkpt lat="44.15728" lon="5.34968">
        <ele>1257</ele>
        <time>2020-07-11T08:56:05.596Z</time>
      </trkpt>
      <trkpt lat="44.15729" lon="5.34962">
        <ele>1257</ele>
        <time>2020-07-11T08:56:06.595Z</time>
      </trkpt>
      <trkpt lat="44.15728" lon="5.34954">
        <ele>1257</ele>
        <time>2020-07-11T08:56:07.596Z</time>
      </trkpt>
      <trkpt lat="44.15724" lon="5.34947">
        <ele>1257</ele>
        <time>2020-07-11T08:56:08.596Z</time>
      </trkpt>
      <trkpt lat="44.1572" lon="5.34938">
        <ele>1257</ele>
        <time>2020-07-11T08:56:09.596Z</time>
      </trkpt>
      <trkpt lat="44.15717" lon="5.34928">
        <ele>1257</ele>
        <time>2020-07-11T08:56:10.596Z</time>
      </trkpt>
      <trkpt lat="44.15713" lon="5.34919">
        <ele>1258</ele>
        <time>2020-07-11T08:56:11.596Z</time>
      </trkpt>
      <trkpt lat="44.15709" lon="5.34911">
        <ele>1258</ele>
        <time>2020-07-11T08:56:12.595Z</time>
      </trkpt>
      <trkpt lat="44.15705" lon="5.34903">
        <ele>1259</ele>
        <time>2020-07-11T08:56:13.595Z</time>
      </trkpt>
      <trkpt lat="44.15701" lon="5.34894">
        <ele>1260</ele>
        <time>2020-07-11T08:56:14.595Z</time>
      </trkpt>
      <trkpt lat="44.15697" lon="5.34886">
        <ele>1260</ele>
        <time>2020-07-11T08:56:15.596Z</time>
      </trkpt>
      <trkpt lat="44.15694" lon="5.34877">
        <ele>1261</ele>
        <time>2020-07-11T08:56:16.596Z</time>
      </trkpt>
      <trkpt lat="44.15692" lon="5.34867">
        <ele>1260</ele>
        <time>2020-07-11T08:56:17.596Z</time>
      </trkpt>
      <trkpt lat="44.15691" lon="5.34857">
        <ele>1260</ele>
        <time>2020-07-11T08:56:18.596Z</time>
      </trkpt>
      <trkpt lat="44.15694" lon="5.34849">
        <ele>1260</ele>
        <time>2020-07-11T08:56:19.596Z</time>
      </trkpt>
      <trkpt lat="44.15697" lon="5.34842">
        <ele>1260</ele>
        <time>2020-07-11T08:56:20.596Z</time>
      </trkpt>
      <trkpt lat="44.15703" lon="5.34834">
        <ele>1261</ele>
        <time>2020-07-11T08:56:21.596Z</time>
      </trkpt>
      <trkpt lat="44.15706" lon="5.34828">
        <ele>1261</ele>
        <time>2020-07-11T08:56:22.596Z</time>
      </trkpt>
      <trkpt lat="44.15711" lon="5.34823">
        <ele>1262</ele>
        <time>2020-07-11T08:56:23.596Z</time>
      </trkpt>
      <trkpt lat="44.15718" lon="5.34818">
        <ele>1262</ele>
        <time>2020-07-11T08:56:24.596Z</time>
      </trkpt>
      <trkpt lat="44.15724" lon="5.34814">
        <ele>1262</ele>
        <time>2020-07-11T08:56:25.596Z</time>
      </trkpt>
      <trkpt lat="44.1573" lon="5.3481">
        <ele>1263</ele>
        <time>2020-07-11T08:56:26.596Z</time>
      </trkpt>
      <trkpt lat="44.15734" lon="5.34808">
        <ele>1263</ele>
        <time>2020-07-11T08:56:27.596Z</time>
      </trkpt>
      <trkpt lat="44.1574" lon="5.34805">
        <ele>1263</ele>
        <time>2020-07-11T08:56:28.596Z</time>
      </trkpt>
      <trkpt lat="44.15747" lon="5.34802">
        <ele>1263</ele>
        <time>2020-07-11T08:56:29.596Z</time>
      </trkpt>
      <trkpt lat="44.15752" lon="5.348">
        <ele>1264</ele>
        <time>2020-07-11T08:56:30.595Z</time>
      </trkpt>
      <trkpt lat="44.15758" lon="5.34797">
        <ele>1264</ele>
        <time>2020-07-11T08:56:31.596Z</time>
      </trkpt>
      <trkpt lat="44.15763" lon="5.34794">
        <ele>1264</ele>
        <time>2020-07-11T08:56:32.596Z</time>
      </trkpt>
      <trkpt lat="44.15768" lon="5.34789">
        <ele>1264</ele>
        <time>2020-07-11T08:56:33.595Z</time>
      </trkpt>
      <trkpt lat="44.15773" lon="5.34783">
        <ele>1264</ele>
        <time>2020-07-11T08:56:34.595Z</time>
      </trkpt>
      <trkpt lat="44.15775" lon="5.34775">
        <ele>1264</ele>
        <time>2020-07-11T08:56:35.595Z</time>
      </trkpt>
      <trkpt lat="44.15775" lon="5.34769">
        <ele>1264</ele>
        <time>2020-07-11T08:56:36.596Z</time>
      </trkpt>
      <trkpt lat="44.15774" lon="5.34761">
        <ele>1264</ele>
        <time>2020-07-11T08:56:37.596Z</time>
      </trkpt>
      <trkpt lat="44.15771" lon="5.34754">
        <ele>1264</ele>
        <time>2020-07-11T08:56:38.596Z</time>
      </trkpt>
      <trkpt lat="44.15767" lon="5.34748">
        <ele>1264</ele>
        <time>2020-07-11T08:56:39.596Z</time>
      </trkpt>
      <trkpt lat="44.15761" lon="5.34742">
        <ele>1265</ele>
        <time>2020-07-11T08:56:40.596Z</time>
      </trkpt>
      <trkpt lat="44.15755" lon="5.34739">
        <ele>1265</ele>
        <time>2020-07-11T08:56:41.595Z</time>
      </trkpt>
      <trkpt lat="44.15749" lon="5.34739">
        <ele>1265</ele>
        <time>2020-07-11T08:56:42.596Z</time>
      </trkpt>
      <trkpt lat="44.15743" lon="5.34738">
        <ele>1266</ele>
        <time>2020-07-11T08:56:43.596Z</time>
      </trkpt>
      <trkpt lat="44.15736" lon="5.34736">
        <ele>1266</ele>
        <time>2020-07-11T08:56:44.596Z</time>
      </trkpt>
      <trkpt lat="44.1573" lon="5.34735">
        <ele>1267</ele>
        <time>2020-07-11T08:56:45.595Z</time>
      </trkpt>
      <trkpt lat="44.15724" lon="5.34734">
        <ele>1268</ele>
        <time>2020-07-11T08:56:46.596Z</time>
      </trkpt>
      <trkpt lat="44.15718" lon="5.34732">
        <ele>1269</ele>
        <time>2020-07-11T08:56:47.596Z</time>
      </trkpt>
      <trkpt lat="44.15713" lon="5.3473">
        <ele>1269</ele>
        <time>2020-07-11T08:56:48.596Z</time>
      </trkpt>
      <trkpt lat="44.15707" lon="5.34728">
        <ele>1270</ele>
        <time>2020-07-11T08:56:49.595Z</time>
      </trkpt>
      <trkpt lat="44.15702" lon="5.34725">
        <ele>1270</ele>
        <time>2020-07-11T08:56:50.596Z</time>
      </trkpt>
      <trkpt lat="44.15696" lon="5.34723">
        <ele>1270</ele>
        <time>2020-07-11T08:56:51.595Z</time>
      </trkpt>
      <trkpt lat="44.1569" lon="5.3472">
        <ele>1271</ele>
        <time>2020-07-11T08:56:52.596Z</time>
      </trkpt>
      <trkpt lat="44.15685" lon="5.34717">
        <ele>1272</ele>
        <time>2020-07-11T08:56:53.596Z</time>
      </trkpt>
      <trkpt lat="44.1568" lon="5.34714">
        <ele>1273</ele>
        <time>2020-07-11T08:56:54.596Z</time>
      </trkpt>
      <trkpt lat="44.15674" lon="5.3471">
        <ele>1274</ele>
        <time>2020-07-11T08:56:55.595Z</time>
      </trkpt>
      <trkpt lat="44.15669" lon="5.34707">
        <ele>1276</ele>
        <time>2020-07-11T08:56:56.596Z</time>
      </trkpt>
      <trkpt lat="44.15664" lon="5.34704">
        <ele>1277</ele>
        <time>2020-07-11T08:56:57.596Z</time>
      </trkpt>
      <trkpt lat="44.15659" lon="5.347">
        <ele>1278</ele>
        <time>2020-07-11T08:56:58.595Z</time>
      </trkpt>
      <trkpt lat="44.15654" lon="5.34696">
        <ele>1279</ele>
        <time>2020-07-11T08:56:59.596Z</time>
      </trkpt>
      <trkpt lat="44.1565" lon="5.34692">
        <ele>1279</ele>
        <time>2020-07-11T08:57:00.596Z</time>
      </trkpt>
      <trkpt lat="44.15645" lon="5.34687">
        <ele>1280</ele>
        <time>2020-07-11T08:57:01.596Z</time>
      </trkpt>
      <trkpt lat="44.15641" lon="5.34682">
        <ele>1281</ele>
        <time>2020-07-11T08:57:02.596Z</time>
      </trkpt>
      <trkpt lat="44.15638" lon="5.34677">
        <ele>1281</ele>
        <time>2020-07-11T08:57:03.596Z</time>
      </trkpt>
      <trkpt lat="44.15634" lon="5.34672">
        <ele>1280</ele>
        <time>2020-07-11T08:57:04.596Z</time>
      </trkpt>
      <trkpt lat="44.15631" lon="5.34666">
        <ele>1280</ele>
        <time>2020-07-11T08:57:05.596Z</time>
      </trkpt>
      <trkpt lat="44.15628" lon="5.34661">
        <ele>1280</ele>
        <time>2020-07-11T08:57:06.596Z</time>
      </trkpt>
      <trkpt lat="44.15625" lon="5.34655">
        <ele>1279</ele>
        <time>2020-07-11T08:57:07.596Z</time>
      </trkpt>
      <trkpt lat="44.15622" lon="5.34649">
        <ele>1279</ele>
        <time>2020-07-11T08:57:08.596Z</time>
      </trkpt>
      <trkpt lat="44.15619" lon="5.34643">
        <ele>1279</ele>
        <time>2020-07-11T08:57:09.596Z</time>
      </trkpt>
      <trkpt lat="44.15615" lon="5.34636">
        <ele>1279</ele>
        <time>2020-07-11T08:57:10.596Z</time>
      </trkpt>
      <trkpt lat="44.15612" lon="5.3463">
        <ele>1278</ele>
        <time>2020-07-11T08:57:11.595Z</time>
      </trkpt>
      <trkpt lat="44.15609" lon="5.34625">
        <ele>1278</ele>
        <time>2020-07-11T08:57:12.596Z</time>
      </trkpt>
      <trkpt lat="44.15606" lon="5.34619">
        <ele>1277</ele>
        <time>2020-07-11T08:57:13.596Z</time>
      </trkpt>
      <trkpt lat="44.15602" lon="5.34613">
        <ele>1276</ele>
        <time>2020-07-11T08:57:14.596Z</time>
      </trkpt>
      <trkpt lat="44.15598" lon="5.34607">
        <ele>1276</ele>
        <time>2020-07-11T08:57:15.595Z</time>
      </trkpt>
      <trkpt lat="44.15594" lon="5.34602">
        <ele>1276</ele>
        <time>2020-07-11T08:57:16.595Z</time>
      </trkpt>
      <trkpt lat="44.15589" lon="5.34597">
        <ele>1276</ele>
        <time>2020-07-11T08:57:17.596Z</time>
      </trkpt>
      <trkpt lat="44.15585" lon="5.34592">
        <ele>1277</ele>
        <time>2020-07-11T08:57:18.595Z</time>
      </trkpt>
      <trkpt lat="44.1558" lon="5.34588">
        <ele>1277</ele>
        <time>2020-07-11T08:57:19.596Z</time>
      </trkpt>
      <trkpt lat="44.15575" lon="5.34583">
        <ele>1278</ele>
        <time>2020-07-11T08:57:20.596Z</time>
      </trkpt>
      <trkpt lat="44.1557" lon="5.34578">
        <ele>1279</ele>
        <time>2020-07-11T08:57:21.596Z</time>
      </trkpt>
      <trkpt lat="44.15566" lon="5.34574">
        <ele>1279</ele>
        <time>2020-07-11T08:57:22.596Z</time>
      </trkpt>
      <trkpt lat="44.15561" lon="5.34569">
        <ele>1279</ele>
        <time>2020-07-11T08:57:23.595Z</time>
      </trkpt>
      <trkpt lat="44.15557" lon="5.34563">
        <ele>1280</ele>
        <time>2020-07-11T08:57:24.596Z</time>
      </trkpt>
      <trkpt lat="44.15553" lon="5.34557">
        <ele>1281</ele>
        <time>2020-07-11T08:57:25.596Z</time>
      </trkpt>
      <trkpt lat="44.15549" lon="5.34551">
        <ele>1281</ele>
        <time>2020-07-11T08:57:26.596Z</time>
      </trkpt>
      <trkpt lat="44.15546" lon="5.34545">
        <ele>1281</ele>
        <time>2020-07-11T08:57:27.596Z</time>
      </trkpt>
      <trkpt lat="44.15543" lon="5.34538">
        <ele>1281</ele>
        <time>2020-07-11T08:57:28.596Z</time>
      </trkpt>
      <trkpt lat="44.15541" lon="5.34532">
        <ele>1282</ele>
        <time>2020-07-11T08:57:29.596Z</time>
      </trkpt>
      <trkpt lat="44.15538" lon="5.34525">
        <ele>1282</ele>
        <time>2020-07-11T08:57:30.596Z</time>
      </trkpt>
      <trkpt lat="44.15536" lon="5.34518">
        <ele>1282</ele>
        <time>2020-07-11T08:57:31.596Z</time>
      </trkpt>
      <trkpt lat="44.15533" lon="5.34512">
        <ele>1282</ele>
        <time>2020-07-11T08:57:32.596Z</time>
      </trkpt>
      <trkpt lat="44.15531" lon="5.34506">
        <ele>1282</ele>
        <time>2020-07-11T08:57:33.596Z</time>
      </trkpt>
      <trkpt lat="44.15528" lon="5.34499">
        <ele>1282</ele>
        <time>2020-07-11T08:57:34.595Z</time>
      </trkpt>
      <trkpt lat="44.15525" lon="5.34493">
        <ele>1282</ele>
        <time>2020-07-11T08:57:35.596Z</time>
      </trkpt>
      <trkpt lat="44.15522" lon="5.34487">
        <ele>1283</ele>
        <time>2020-07-11T08:57:36.596Z</time>
      </trkpt>
      <trkpt lat="44.15518" lon="5.3448">
        <ele>1283</ele>
        <time>2020-07-11T08:57:37.596Z</time>
      </trkpt>
      <trkpt lat="44.15515" lon="5.34474">
        <ele>1283</ele>
        <time>2020-07-11T08:57:38.596Z</time>
      </trkpt>
      <trkpt lat="44.15512" lon="5.34468">
        <ele>1284</ele>
        <time>2020-07-11T08:57:39.596Z</time>
      </trkpt>
      <trkpt lat="44.1551" lon="5.34463">
        <ele>1284</ele>
        <time>2020-07-11T08:57:40.595Z</time>
      </trkpt>
      <trkpt lat="44.15507" lon="5.34458">
        <ele>1285</ele>
        <time>2020-07-11T08:57:41.595Z</time>
      </trkpt>
      <trkpt lat="44.15503" lon="5.34453">
        <ele>1285</ele>
        <time>2020-07-11T08:57:42.596Z</time>
      </trkpt>
      <trkpt lat="44.155" lon="5.3445">
        <ele>1286</ele>
        <time>2020-07-11T08:57:43.596Z</time>
      </trkpt>
      <trkpt lat="44.15496" lon="5.34447">
        <ele>1286</ele>
        <time>2020-07-11T08:57:44.596Z</time>
      </trkpt>
      <trkpt lat="44.15491" lon="5.34447">
        <ele>1287</ele>
        <time>2020-07-11T08:57:45.596Z</time>
      </trkpt>
      <trkpt lat="44.15488" lon="5.34447">
        <ele>1288</ele>
        <time>2020-07-11T08:57:46.596Z</time>
      </trkpt>
      <trkpt lat="44.15485" lon="5.34451">
        <ele>1289</ele>
        <time>2020-07-11T08:57:47.595Z</time>
      </trkpt>
      <trkpt lat="44.15481" lon="5.34458">
        <ele>1289</ele>
        <time>2020-07-11T08:57:48.595Z</time>
      </trkpt>
      <trkpt lat="44.15477" lon="5.34464">
        <ele>1290</ele>
        <time>2020-07-11T08:57:49.596Z</time>
      </trkpt>
      <trkpt lat="44.15475" lon="5.3447">
        <ele>1290</ele>
        <time>2020-07-11T08:57:50.596Z</time>
      </trkpt>
      <trkpt lat="44.15472" lon="5.34477">
        <ele>1290</ele>
        <time>2020-07-11T08:57:51.595Z</time>
      </trkpt>
      <trkpt lat="44.1547" lon="5.34484">
        <ele>1290</ele>
        <time>2020-07-11T08:57:52.596Z</time>
      </trkpt>
      <trkpt lat="44.15467" lon="5.34491">
        <ele>1290</ele>
        <time>2020-07-11T08:57:53.595Z</time>
      </trkpt>
      <trkpt lat="44.15464" lon="5.34497">
        <ele>1289</ele>
        <time>2020-07-11T08:57:54.596Z</time>
      </trkpt>
      <trkpt lat="44.15461" lon="5.34504">
        <ele>1289</ele>
        <time>2020-07-11T08:57:55.595Z</time>
      </trkpt>
      <trkpt lat="44.15458" lon="5.34511">
        <ele>1289</ele>
        <time>2020-07-11T08:57:56.596Z</time>
      </trkpt>
      <trkpt lat="44.15454" lon="5.34517">
        <ele>1289</ele>
        <time>2020-07-11T08:57:57.596Z</time>
      </trkpt>
      <trkpt lat="44.15451" lon="5.34524">
        <ele>1289</ele>
        <time>2020-07-11T08:57:58.596Z</time>
      </trkpt>
      <trkpt lat="44.15447" lon="5.34531">
        <ele>1288</ele>
        <time>2020-07-11T08:57:59.595Z</time>
      </trkpt>
      <trkpt lat="44.15442" lon="5.34539">
        <ele>1288</ele>
        <time>2020-07-11T08:58:00.596Z</time>
      </trkpt>
      <trkpt lat="44.15439" lon="5.34545">
        <ele>1288</ele>
        <time>2020-07-11T08:58:01.595Z</time>
      </trkpt>
      <trkpt lat="44.15435" lon="5.34551">
        <ele>1287</ele>
        <time>2020-07-11T08:58:02.595Z</time>
      </trkpt>
      <trkpt lat="44.1543" lon="5.34558">
        <ele>1287</ele>
        <time>2020-07-11T08:58:03.596Z</time>
      </trkpt>
      <trkpt lat="44.15425" lon="5.34563">
        <ele>1287</ele>
        <time>2020-07-11T08:58:04.596Z</time>
      </trkpt>
      <trkpt lat="44.1542" lon="5.34568">
        <ele>1286</ele>
        <time>2020-07-11T08:58:05.595Z</time>
      </trkpt>
      <trkpt lat="44.15414" lon="5.34572">
        <ele>1286</ele>
        <time>2020-07-11T08:58:06.596Z</time>
      </trkpt>
      <trkpt lat="44.15408" lon="5.34577">
        <ele>1286</ele>
        <time>2020-07-11T08:58:07.596Z</time>
      </trkpt>
      <trkpt lat="44.15402" lon="5.3458">
        <ele>1286</ele>
        <time>2020-07-11T08:58:08.596Z</time>
      </trkpt>
      <trkpt lat="44.15396" lon="5.34584">
        <ele>1286</ele>
        <time>2020-07-11T08:58:09.595Z</time>
      </trkpt>
      <trkpt lat="44.1539" lon="5.34586">
        <ele>1285</ele>
        <time>2020-07-11T08:58:10.596Z</time>
      </trkpt>
      <trkpt lat="44.15383" lon="5.34588">
        <ele>1285</ele>
        <time>2020-07-11T08:58:11.596Z</time>
      </trkpt>
      <trkpt lat="44.15376" lon="5.34589">
        <ele>1285</ele>
        <time>2020-07-11T08:58:12.596Z</time>
      </trkpt>
      <trkpt lat="44.15369" lon="5.3459">
        <ele>1285</ele>
        <time>2020-07-11T08:58:13.595Z</time>
      </trkpt>
      <trkpt lat="44.15362" lon="5.3459">
        <ele>1285</ele>
        <time>2020-07-11T08:58:14.596Z</time>
      </trkpt>
      <trkpt lat="44.15355" lon="5.3459">
        <ele>1285</ele>
        <time>2020-07-11T08:58:15.596Z</time>
      </trkpt>
      <trkpt lat="44.15348" lon="5.34589">
        <ele>1285</ele>
        <time>2020-07-11T08:58:16.596Z</time>
      </trkpt>
      <trkpt lat="44.15341" lon="5.34588">
        <ele>1285</ele>
        <time>2020-07-11T08:58:17.596Z</time>
      </trkpt>
      <trkpt lat="44.15334" lon="5.34586">
        <ele>1285</ele>
        <time>2020-07-11T08:58:18.596Z</time>
      </trkpt>
      <trkpt lat="44.15328" lon="5.34585">
        <ele>1285</ele>
        <time>2020-07-11T08:58:19.595Z</time>
      </trkpt>
      <trkpt lat="44.15321" lon="5.34584">
        <ele>1285</ele>
        <time>2020-07-11T08:58:20.596Z</time>
      </trkpt>
      <trkpt lat="44.15314" lon="5.34582">
        <ele>1286</ele>
        <time>2020-07-11T08:58:21.596Z</time>
      </trkpt>
      <trkpt lat="44.15308" lon="5.3458">
        <ele>1286</ele>
        <time>2020-07-11T08:58:22.596Z</time>
      </trkpt>
      <trkpt lat="44.15301" lon="5.34578">
        <ele>1287</ele>
        <time>2020-07-11T08:58:23.595Z</time>
      </trkpt>
      <trkpt lat="44.15294" lon="5.34577">
        <ele>1287</ele>
        <time>2020-07-11T08:58:24.595Z</time>
      </trkpt>
      <trkpt lat="44.15288" lon="5.34574">
        <ele>1287</ele>
        <time>2020-07-11T08:58:25.596Z</time>
      </trkpt>
      <trkpt lat="44.15281" lon="5.34572">
        <ele>1287</ele>
        <time>2020-07-11T08:58:26.596Z</time>
      </trkpt>
      <trkpt lat="44.15275" lon="5.34568">
        <ele>1287</ele>
        <time>2020-07-11T08:58:27.596Z</time>
      </trkpt>
      <trkpt lat="44.15269" lon="5.34563">
        <ele>1287</ele>
        <time>2020-07-11T08:58:28.596Z</time>
      </trkpt>
      <trkpt lat="44.15264" lon="5.34558">
        <ele>1287</ele>
        <time>2020-07-11T08:58:29.596Z</time>
      </trkpt>
      <trkpt lat="44.15258" lon="5.34553">
        <ele>1287</ele>
        <time>2020-07-11T08:58:30.596Z</time>
      </trkpt>
      <trkpt lat="44.15253" lon="5.34547">
        <ele>1287</ele>
        <time>2020-07-11T08:58:31.596Z</time>
      </trkpt>
      <trkpt lat="44.15247" lon="5.3454">
        <ele>1288</ele>
        <time>2020-07-11T08:58:32.596Z</time>
      </trkpt>
      <trkpt lat="44.15243" lon="5.34533">
        <ele>1288</ele>
        <time>2020-07-11T08:58:33.595Z</time>
      </trkpt>
      <trkpt lat="44.15239" lon="5.34526">
        <ele>1289</ele>
        <time>2020-07-11T08:58:34.596Z</time>
      </trkpt>
      <trkpt lat="44.15234" lon="5.34518">
        <ele>1289</ele>
        <time>2020-07-11T08:58:35.596Z</time>
      </trkpt>
      <trkpt lat="44.1523" lon="5.3451">
        <ele>1290</ele>
        <time>2020-07-11T08:58:36.596Z</time>
      </trkpt>
      <trkpt lat="44.15226" lon="5.34502">
        <ele>1290</ele>
        <time>2020-07-11T08:58:37.596Z</time>
      </trkpt>
      <trkpt lat="44.15222" lon="5.34495">
        <ele>1290</ele>
        <time>2020-07-11T08:58:38.595Z</time>
      </trkpt>
      <trkpt lat="44.15217" lon="5.34489">
        <ele>1291</ele>
        <time>2020-07-11T08:58:39.596Z</time>
      </trkpt>
      <trkpt lat="44.15211" lon="5.34484">
        <ele>1291</ele>
        <time>2020-07-11T08:58:40.596Z</time>
      </trkpt>
      <trkpt lat="44.15205" lon="5.34481">
        <ele>1291</ele>
        <time>2020-07-11T08:58:41.596Z</time>
      </trkpt>
      <trkpt lat="44.15199" lon="5.3448">
        <ele>1291</ele>
        <time>2020-07-11T08:58:42.595Z</time>
      </trkpt>
      <trkpt lat="44.15192" lon="5.34481">
        <ele>1292</ele>
        <time>2020-07-11T08:58:43.596Z</time>
      </trkpt>
      <trkpt lat="44.15186" lon="5.34484">
        <ele>1293</ele>
        <time>2020-07-11T08:58:44.596Z</time>
      </trkpt>
      <trkpt lat="44.15181" lon="5.3449">
        <ele>1293</ele>
        <time>2020-07-11T08:58:45.596Z</time>
      </trkpt>
      <trkpt lat="44.15174" lon="5.34499">
        <ele>1294</ele>
        <time>2020-07-11T08:58:46.595Z</time>
      </trkpt>
      <trkpt lat="44.15168" lon="5.34506">
        <ele>1294</ele>
        <time>2020-07-11T08:58:47.596Z</time>
      </trkpt>
      <trkpt lat="44.15162" lon="5.34514">
        <ele>1295</ele>
        <time>2020-07-11T08:58:48.596Z</time>
      </trkpt>
      <trkpt lat="44.15157" lon="5.34521">
        <ele>1295</ele>
        <time>2020-07-11T08:58:49.595Z</time>
      </trkpt>
      <trkpt lat="44.1515" lon="5.34526">
        <ele>1295</ele>
        <time>2020-07-11T08:58:50.596Z</time>
      </trkpt>
      <trkpt lat="44.15144" lon="5.34531">
        <ele>1295</ele>
        <time>2020-07-11T08:58:51.596Z</time>
      </trkpt>
      <trkpt lat="44.15137" lon="5.34534">
        <ele>1295</ele>
        <time>2020-07-11T08:58:52.595Z</time>
      </trkpt>
      <trkpt lat="44.1513" lon="5.34536">
        <ele>1294</ele>
        <time>2020-07-11T08:58:53.596Z</time>
      </trkpt>
      <trkpt lat="44.15123" lon="5.34537">
        <ele>1294</ele>
        <time>2020-07-11T08:58:54.595Z</time>
      </trkpt>
      <trkpt lat="44.15115" lon="5.34538">
        <ele>1294</ele>
        <time>2020-07-11T08:58:55.596Z</time>
      </trkpt>
      <trkpt lat="44.15107" lon="5.34539">
        <ele>1294</ele>
        <time>2020-07-11T08:58:56.596Z</time>
      </trkpt>
      <trkpt lat="44.151" lon="5.34539">
        <ele>1294</ele>
        <time>2020-07-11T08:58:57.596Z</time>
      </trkpt>
      <trkpt lat="44.15093" lon="5.34539">
        <ele>1294</ele>
        <time>2020-07-11T08:58:58.596Z</time>
      </trkpt>
      <trkpt lat="44.15086" lon="5.3454">
        <ele>1295</ele>
        <time>2020-07-11T08:58:59.596Z</time>
      </trkpt>
      <trkpt lat="44.1508" lon="5.34539">
        <ele>1295</ele>
        <time>2020-07-11T08:59:00.596Z</time>
      </trkpt>
      <trkpt lat="44.15072" lon="5.34538">
        <ele>1295</ele>
        <time>2020-07-11T08:59:01.596Z</time>
      </trkpt>
      <trkpt lat="44.15065" lon="5.34538">
        <ele>1295</ele>
        <time>2020-07-11T08:59:02.596Z</time>
      </trkpt>
      <trkpt lat="44.15058" lon="5.34536">
        <ele>1296</ele>
        <time>2020-07-11T08:59:03.596Z</time>
      </trkpt>
      <trkpt lat="44.15051" lon="5.34535">
        <ele>1296</ele>
        <time>2020-07-11T08:59:04.596Z</time>
      </trkpt>
      <trkpt lat="44.15044" lon="5.34533">
        <ele>1296</ele>
        <time>2020-07-11T08:59:05.596Z</time>
      </trkpt>
      <trkpt lat="44.15037" lon="5.34531">
        <ele>1296</ele>
        <time>2020-07-11T08:59:06.596Z</time>
      </trkpt>
      <trkpt lat="44.1503" lon="5.3453">
        <ele>1297</ele>
        <time>2020-07-11T08:59:07.596Z</time>
      </trkpt>
      <trkpt lat="44.15023" lon="5.34528">
        <ele>1298</ele>
        <time>2020-07-11T08:59:08.595Z</time>
      </trkpt>
      <trkpt lat="44.15016" lon="5.34526">
        <ele>1298</ele>
        <time>2020-07-11T08:59:09.596Z</time>
      </trkpt>
      <trkpt lat="44.15009" lon="5.34524">
        <ele>1298</ele>
        <time>2020-07-11T08:59:10.596Z</time>
      </trkpt>
      <trkpt lat="44.15003" lon="5.34521">
        <ele>1299</ele>
        <time>2020-07-11T08:59:11.596Z</time>
      </trkpt>
      <trkpt lat="44.14997" lon="5.34519">
        <ele>1299</ele>
        <time>2020-07-11T08:59:12.595Z</time>
      </trkpt>
      <trkpt lat="44.14991" lon="5.34516">
        <ele>1299</ele>
        <time>2020-07-11T08:59:13.596Z</time>
      </trkpt>
      <trkpt lat="44.14985" lon="5.34513">
        <ele>1299</ele>
        <time>2020-07-11T08:59:14.596Z</time>
      </trkpt>
      <trkpt lat="44.14979" lon="5.34509">
        <ele>1299</ele>
        <time>2020-07-11T08:59:15.595Z</time>
      </trkpt>
      <trkpt lat="44.14974" lon="5.34504">
        <ele>1298</ele>
        <time>2020-07-11T08:59:16.596Z</time>
      </trkpt>
      <trkpt lat="44.14968" lon="5.34499">
        <ele>1298</ele>
        <time>2020-07-11T08:59:17.596Z</time>
      </trkpt>
      <trkpt lat="44.14964" lon="5.34493">
        <ele>1298</ele>
        <time>2020-07-11T08:59:18.596Z</time>
      </trkpt>
      <trkpt lat="44.14959" lon="5.34487">
        <ele>1298</ele>
        <time>2020-07-11T08:59:19.596Z</time>
      </trkpt>
      <trkpt lat="44.14954" lon="5.34481">
        <ele>1298</ele>
        <time>2020-07-11T08:59:20.596Z</time>
      </trkpt>
      <trkpt lat="44.14948" lon="5.34476">
        <ele>1299</ele>
        <time>2020-07-11T08:59:21.595Z</time>
      </trkpt>
      <trkpt lat="44.14943" lon="5.34473">
        <ele>1299</ele>
        <time>2020-07-11T08:59:22.596Z</time>
      </trkpt>
      <trkpt lat="44.14937" lon="5.34472">
        <ele>1300</ele>
        <time>2020-07-11T08:59:23.596Z</time>
      </trkpt>
      <trkpt lat="44.14931" lon="5.34472">
        <ele>1300</ele>
        <time>2020-07-11T08:59:24.596Z</time>
      </trkpt>
      <trkpt lat="44.14925" lon="5.34475">
        <ele>1301</ele>
        <time>2020-07-11T08:59:25.596Z</time>
      </trkpt>
      <trkpt lat="44.14919" lon="5.34479">
        <ele>1301</ele>
        <time>2020-07-11T08:59:26.595Z</time>
      </trkpt>
      <trkpt lat="44.14913" lon="5.34485">
        <ele>1302</ele>
        <time>2020-07-11T08:59:27.596Z</time>
      </trkpt>
      <trkpt lat="44.14906" lon="5.3449">
        <ele>1302</ele>
        <time>2020-07-11T08:59:28.596Z</time>
      </trkpt>
      <trkpt lat="44.14899" lon="5.34494">
        <ele>1303</ele>
        <time>2020-07-11T08:59:29.595Z</time>
      </trkpt>
      <trkpt lat="44.14892" lon="5.34497">
        <ele>1303</ele>
        <time>2020-07-11T08:59:30.595Z</time>
      </trkpt>
      <trkpt lat="44.14885" lon="5.345">
        <ele>1303</ele>
        <time>2020-07-11T08:59:31.596Z</time>
      </trkpt>
      <trkpt lat="44.14878" lon="5.34502">
        <ele>1304</ele>
        <time>2020-07-11T08:59:32.596Z</time>
      </trkpt>
      <trkpt lat="44.14871" lon="5.34503">
        <ele>1304</ele>
        <time>2020-07-11T08:59:33.596Z</time>
      </trkpt>
      <trkpt lat="44.14865" lon="5.34505">
        <ele>1305</ele>
        <time>2020-07-11T08:59:34.596Z</time>
      </trkpt>
      <trkpt lat="44.14859" lon="5.34507">
        <ele>1305</ele>
        <time>2020-07-11T08:59:35.596Z</time>
      </trkpt>
      <trkpt lat="44.14853" lon="5.34509">
        <ele>1305</ele>
        <time>2020-07-11T08:59:36.596Z</time>
      </trkpt>
      <trkpt lat="44.14846" lon="5.3451">
        <ele>1305</ele>
        <time>2020-07-11T08:59:37.595Z</time>
      </trkpt>
      <trkpt lat="44.1484" lon="5.3451">
        <ele>1304</ele>
        <time>2020-07-11T08:59:38.596Z</time>
      </trkpt>
      <trkpt lat="44.14834" lon="5.34511">
        <ele>1304</ele>
        <time>2020-07-11T08:59:39.595Z</time>
      </trkpt>
      <trkpt lat="44.14828" lon="5.34512">
        <ele>1304</ele>
        <time>2020-07-11T08:59:40.596Z</time>
      </trkpt>
      <trkpt lat="44.14822" lon="5.34513">
        <ele>1304</ele>
        <time>2020-07-11T08:59:41.596Z</time>
      </trkpt>
      <trkpt lat="44.14815" lon="5.34515">
        <ele>1304</ele>
        <time>2020-07-11T08:59:42.596Z</time>
      </trkpt>
      <trkpt lat="44.14808" lon="5.34516">
        <ele>1304</ele>
        <time>2020-07-11T08:59:43.596Z</time>
      </trkpt>
      <trkpt lat="44.14802" lon="5.34517">
        <ele>1304</ele>
        <time>2020-07-11T08:59:44.595Z</time>
      </trkpt>
      <trkpt lat="44.14795" lon="5.34517">
        <ele>1303</ele>
        <time>2020-07-11T08:59:45.596Z</time>
      </trkpt>
      <trkpt lat="44.14789" lon="5.34517">
        <ele>1304</ele>
        <time>2020-07-11T08:59:46.596Z</time>
      </trkpt>
      <trkpt lat="44.14782" lon="5.34517">
        <ele>1304</ele>
        <time>2020-07-11T08:59:47.596Z</time>
      </trkpt>
      <trkpt lat="44.14775" lon="5.34516">
        <ele>1304</ele>
        <time>2020-07-11T08:59:48.596Z</time>
      </trkpt>
      <trkpt lat="44.14769" lon="5.34516">
        <ele>1304</ele>
        <time>2020-07-11T08:59:49.596Z</time>
      </trkpt>
      <trkpt lat="44.14763" lon="5.34516">
        <ele>1304</ele>
        <time>2020-07-11T08:59:50.595Z</time>
      </trkpt>
      <trkpt lat="44.14757" lon="5.34516">
        <ele>1303</ele>
        <time>2020-07-11T08:59:51.595Z</time>
      </trkpt>
      <trkpt lat="44.14751" lon="5.34516">
        <ele>1303</ele>
        <time>2020-07-11T08:59:52.596Z</time>
      </trkpt>
      <trkpt lat="44.14745" lon="5.34516">
        <ele>1303</ele>
        <time>2020-07-11T08:59:53.596Z</time>
      </trkpt>
      <trkpt lat="44.14738" lon="5.34516">
        <ele>1303</ele>
        <time>2020-07-11T08:59:54.596Z</time>
      </trkpt>
      <trkpt lat="44.14732" lon="5.34517">
        <ele>1303</ele>
        <time>2020-07-11T08:59:55.596Z</time>
      </trkpt>
      <trkpt lat="44.14726" lon="5.34517">
        <ele>1303</ele>
        <time>2020-07-11T08:59:56.595Z</time>
      </trkpt>
      <trkpt lat="44.14719" lon="5.34517">
        <ele>1304</ele>
        <time>2020-07-11T08:59:57.595Z</time>
      </trkpt>
      <trkpt lat="44.14713" lon="5.34517">
        <ele>1305</ele>
        <time>2020-07-11T08:59:58.596Z</time>
      </trkpt>
      <trkpt lat="44.14707" lon="5.34516">
        <ele>1305</ele>
        <time>2020-07-11T08:59:59.595Z</time>
      </trkpt>
      <trkpt lat="44.14701" lon="5.34516">
        <ele>1305</ele>
        <time>2020-07-11T09:00:00.596Z</time>
      </trkpt>
      <trkpt lat="44.14694" lon="5.34515">
        <ele>1306</ele>
        <time>2020-07-11T09:00:01.596Z</time>
      </trkpt>
      <trkpt lat="44.14688" lon="5.34514">
        <ele>1307</ele>
        <time>2020-07-11T09:00:02.596Z</time>
      </trkpt>
      <trkpt lat="44.14682" lon="5.34514">
        <ele>1307</ele>
        <time>2020-07-11T09:00:03.596Z</time>
      </trkpt>
      <trkpt lat="44.14676" lon="5.34513">
        <ele>1308</ele>
        <time>2020-07-11T09:00:04.596Z</time>
      </trkpt>
      <trkpt lat="44.14669" lon="5.34512">
        <ele>1308</ele>
        <time>2020-07-11T09:00:05.596Z</time>
      </trkpt>
      <trkpt lat="44.14663" lon="5.34511">
        <ele>1308</ele>
        <time>2020-07-11T09:00:06.595Z</time>
      </trkpt>
      <trkpt lat="44.14657" lon="5.3451">
        <ele>1309</ele>
        <time>2020-07-11T09:00:07.596Z</time>
      </trkpt>
      <trkpt lat="44.1465" lon="5.34509">
        <ele>1310</ele>
        <time>2020-07-11T09:00:08.596Z</time>
      </trkpt>
      <trkpt lat="44.14644" lon="5.34507">
        <ele>1310</ele>
        <time>2020-07-11T09:00:09.595Z</time>
      </trkpt>
      <trkpt lat="44.14638" lon="5.34505">
        <ele>1310</ele>
        <time>2020-07-11T09:00:10.596Z</time>
      </trkpt>
      <trkpt lat="44.14632" lon="5.34503">
        <ele>1310</ele>
        <time>2020-07-11T09:00:11.595Z</time>
      </trkpt>
      <trkpt lat="44.14626" lon="5.345">
        <ele>1310</ele>
        <time>2020-07-11T09:00:12.596Z</time>
      </trkpt>
      <trkpt lat="44.1462" lon="5.34497">
        <ele>1310</ele>
        <time>2020-07-11T09:00:13.596Z</time>
      </trkpt>
      <trkpt lat="44.14614" lon="5.34494">
        <ele>1310</ele>
        <time>2020-07-11T09:00:14.595Z</time>
      </trkpt>
      <trkpt lat="44.14608" lon="5.3449">
        <ele>1310</ele>
        <time>2020-07-11T09:00:15.596Z</time>
      </trkpt>
      <trkpt lat="44.14602" lon="5.34486">
        <ele>1310</ele>
        <time>2020-07-11T09:00:16.596Z</time>
      </trkpt>
      <trkpt lat="44.14596" lon="5.34481">
        <ele>1310</ele>
        <time>2020-07-11T09:00:17.595Z</time>
      </trkpt>
      <trkpt lat="44.1459" lon="5.34476">
        <ele>1311</ele>
        <time>2020-07-11T09:00:18.596Z</time>
      </trkpt>
      <trkpt lat="44.14584" lon="5.34471">
        <ele>1311</ele>
        <time>2020-07-11T09:00:19.595Z</time>
      </trkpt>
      <trkpt lat="44.14579" lon="5.34465">
        <ele>1312</ele>
        <time>2020-07-11T09:00:20.596Z</time>
      </trkpt>
      <trkpt lat="44.14574" lon="5.34459">
        <ele>1312</ele>
        <time>2020-07-11T09:00:21.596Z</time>
      </trkpt>
      <trkpt lat="44.1457" lon="5.34452">
        <ele>1313</ele>
        <time>2020-07-11T09:00:22.596Z</time>
      </trkpt>
      <trkpt lat="44.14565" lon="5.34444">
        <ele>1313</ele>
        <time>2020-07-11T09:00:23.596Z</time>
      </trkpt>
      <trkpt lat="44.1456" lon="5.34437">
        <ele>1314</ele>
        <time>2020-07-11T09:00:24.595Z</time>
      </trkpt>
      <trkpt lat="44.14556" lon="5.3443">
        <ele>1314</ele>
        <time>2020-07-11T09:00:25.596Z</time>
      </trkpt>
      <trkpt lat="44.14551" lon="5.34422">
        <ele>1314</ele>
        <time>2020-07-11T09:00:26.596Z</time>
      </trkpt>
      <trkpt lat="44.14547" lon="5.34414">
        <ele>1314</ele>
        <time>2020-07-11T09:00:27.595Z</time>
      </trkpt>
      <trkpt lat="44.14542" lon="5.34407">
        <ele>1315</ele>
        <time>2020-07-11T09:00:28.595Z</time>
      </trkpt>
      <trkpt lat="44.14537" lon="5.34401">
        <ele>1315</ele>
        <time>2020-07-11T09:00:29.596Z</time>
      </trkpt>
      <trkpt lat="44.14532" lon="5.34395">
        <ele>1315</ele>
        <time>2020-07-11T09:00:30.596Z</time>
      </trkpt>
      <trkpt lat="44.14526" lon="5.3439">
        <ele>1315</ele>
        <time>2020-07-11T09:00:31.595Z</time>
      </trkpt>
      <trkpt lat="44.14521" lon="5.34386">
        <ele>1315</ele>
        <time>2020-07-11T09:00:32.595Z</time>
      </trkpt>
      <trkpt lat="44.14515" lon="5.34385">
        <ele>1315</ele>
        <time>2020-07-11T09:00:33.596Z</time>
      </trkpt>
      <trkpt lat="44.14508" lon="5.34385">
        <ele>1315</ele>
        <time>2020-07-11T09:00:34.596Z</time>
      </trkpt>
      <trkpt lat="44.14502" lon="5.34386">
        <ele>1315</ele>
        <time>2020-07-11T09:00:35.596Z</time>
      </trkpt>
      <trkpt lat="44.14497" lon="5.34388">
        <ele>1315</ele>
        <time>2020-07-11T09:00:36.596Z</time>
      </trkpt>
      <trkpt lat="44.14491" lon="5.34392">
        <ele>1315</ele>
        <time>2020-07-11T09:00:37.596Z</time>
      </trkpt>
      <trkpt lat="44.14485" lon="5.34396">
        <ele>1316</ele>
        <time>2020-07-11T09:00:38.596Z</time>
      </trkpt>
      <trkpt lat="44.1448" lon="5.34401">
        <ele>1316</ele>
        <time>2020-07-11T09:00:39.595Z</time>
      </trkpt>
      <trkpt lat="44.14474" lon="5.34408">
        <ele>1316</ele>
        <time>2020-07-11T09:00:40.595Z</time>
      </trkpt>
      <trkpt lat="44.14468" lon="5.34414">
        <ele>1316</ele>
        <time>2020-07-11T09:00:41.595Z</time>
      </trkpt>
      <trkpt lat="44.14463" lon="5.3442">
        <ele>1316</ele>
        <time>2020-07-11T09:00:42.596Z</time>
      </trkpt>
      <trkpt lat="44.14457" lon="5.34426">
        <ele>1317</ele>
        <time>2020-07-11T09:00:43.596Z</time>
      </trkpt>
      <trkpt lat="44.14452" lon="5.34432">
        <ele>1317</ele>
        <time>2020-07-11T09:00:44.596Z</time>
      </trkpt>
      <trkpt lat="44.14447" lon="5.34438">
        <ele>1317</ele>
        <time>2020-07-11T09:00:45.596Z</time>
      </trkpt>
      <trkpt lat="44.14441" lon="5.34444">
        <ele>1317</ele>
        <time>2020-07-11T09:00:46.596Z</time>
      </trkpt>
      <trkpt lat="44.14435" lon="5.34448">
        <ele>1317</ele>
        <time>2020-07-11T09:00:47.595Z</time>
      </trkpt>
      <trkpt lat="44.1443" lon="5.34455">
        <ele>1317</ele>
        <time>2020-07-11T09:00:48.596Z</time>
      </trkpt>
      <trkpt lat="44.14426" lon="5.34459">
        <ele>1317</ele>
        <time>2020-07-11T09:00:49.596Z</time>
      </trkpt>
      <trkpt lat="44.1442" lon="5.34464">
        <ele>1317</ele>
        <time>2020-07-11T09:00:50.596Z</time>
      </trkpt>
      <trkpt lat="44.14414" lon="5.34468">
        <ele>1317</ele>
        <time>2020-07-11T09:00:51.595Z</time>
      </trkpt>
      <trkpt lat="44.14409" lon="5.34472">
        <ele>1318</ele>
        <time>2020-07-11T09:00:52.595Z</time>
      </trkpt>
      <trkpt lat="44.14404" lon="5.34476">
        <ele>1318</ele>
        <time>2020-07-11T09:00:53.596Z</time>
      </trkpt>
      <trkpt lat="44.14398" lon="5.3448">
        <ele>1318</ele>
        <time>2020-07-11T09:00:54.596Z</time>
      </trkpt>
      <trkpt lat="44.14392" lon="5.34485">
        <ele>1318</ele>
        <time>2020-07-11T09:00:55.596Z</time>
      </trkpt>
      <trkpt lat="44.14387" lon="5.34489">
        <ele>1319</ele>
        <time>2020-07-11T09:00:56.596Z</time>
      </trkpt>
      <trkpt lat="44.14381" lon="5.34492">
        <ele>1319</ele>
        <time>2020-07-11T09:00:57.596Z</time>
      </trkpt>
      <trkpt lat="44.14375" lon="5.34496">
        <ele>1319</ele>
        <time>2020-07-11T09:00:58.596Z</time>
      </trkpt>
      <trkpt lat="44.14369" lon="5.345">
        <ele>1320</ele>
        <time>2020-07-11T09:00:59.596Z</time>
      </trkpt>
      <trkpt lat="44.14363" lon="5.34503">
        <ele>1320</ele>
        <time>2020-07-11T09:01:00.595Z</time>
      </trkpt>
      <trkpt lat="44.14357" lon="5.34507">
        <ele>1320</ele>
        <time>2020-07-11T09:01:01.596Z</time>
      </trkpt>
      <trkpt lat="44.14351" lon="5.3451">
        <ele>1321</ele>
        <time>2020-07-11T09:01:02.596Z</time>
      </trkpt>
      <trkpt lat="44.14345" lon="5.34513">
        <ele>1321</ele>
        <time>2020-07-11T09:01:03.596Z</time>
      </trkpt>
      <trkpt lat="44.14339" lon="5.34516">
        <ele>1322</ele>
        <time>2020-07-11T09:01:04.596Z</time>
      </trkpt>
      <trkpt lat="44.14332" lon="5.34519">
        <ele>1323</ele>
        <time>2020-07-11T09:01:05.596Z</time>
      </trkpt>
      <trkpt lat="44.14326" lon="5.34522">
        <ele>1324</ele>
        <time>2020-07-11T09:01:06.595Z</time>
      </trkpt>
      <trkpt lat="44.14319" lon="5.34524">
        <ele>1324</ele>
        <time>2020-07-11T09:01:07.596Z</time>
      </trkpt>
      <trkpt lat="44.14313" lon="5.34526">
        <ele>1324</ele>
        <time>2020-07-11T09:01:08.596Z</time>
      </trkpt>
      <trkpt lat="44.14306" lon="5.34527">
        <ele>1325</ele>
        <time>2020-07-11T09:01:09.596Z</time>
      </trkpt>
      <trkpt lat="44.14299" lon="5.34528">
        <ele>1325</ele>
        <time>2020-07-11T09:01:10.596Z</time>
      </trkpt>
      <trkpt lat="44.14293" lon="5.34529">
        <ele>1326</ele>
        <time>2020-07-11T09:01:11.596Z</time>
      </trkpt>
      <trkpt lat="44.14287" lon="5.3453">
        <ele>1326</ele>
        <time>2020-07-11T09:01:12.596Z</time>
      </trkpt>
      <trkpt lat="44.1428" lon="5.34531">
        <ele>1326</ele>
        <time>2020-07-11T09:01:13.596Z</time>
      </trkpt>
      <trkpt lat="44.14274" lon="5.34531">
        <ele>1326</ele>
        <time>2020-07-11T09:01:14.596Z</time>
      </trkpt>
      <trkpt lat="44.14267" lon="5.34532">
        <ele>1326</ele>
        <time>2020-07-11T09:01:15.596Z</time>
      </trkpt>
      <trkpt lat="44.14261" lon="5.34532">
        <ele>1327</ele>
        <time>2020-07-11T09:01:16.596Z</time>
      </trkpt>
      <trkpt lat="44.14254" lon="5.34531">
        <ele>1327</ele>
        <time>2020-07-11T09:01:17.596Z</time>
      </trkpt>
      <trkpt lat="44.14248" lon="5.3453">
        <ele>1327</ele>
        <time>2020-07-11T09:01:18.596Z</time>
      </trkpt>
      <trkpt lat="44.14241" lon="5.34529">
        <ele>1327</ele>
        <time>2020-07-11T09:01:19.595Z</time>
      </trkpt>
      <trkpt lat="44.14235" lon="5.34527">
        <ele>1327</ele>
        <time>2020-07-11T09:01:20.595Z</time>
      </trkpt>
      <trkpt lat="44.14229" lon="5.34525">
        <ele>1327</ele>
        <time>2020-07-11T09:01:21.596Z</time>
      </trkpt>
      <trkpt lat="44.14222" lon="5.34523">
        <ele>1327</ele>
        <time>2020-07-11T09:01:22.596Z</time>
      </trkpt>
      <trkpt lat="44.14215" lon="5.3452">
        <ele>1327</ele>
        <time>2020-07-11T09:01:23.596Z</time>
      </trkpt>
      <trkpt lat="44.14208" lon="5.34516">
        <ele>1327</ele>
        <time>2020-07-11T09:01:24.595Z</time>
      </trkpt>
      <trkpt lat="44.14201" lon="5.34513">
        <ele>1327</ele>
        <time>2020-07-11T09:01:25.595Z</time>
      </trkpt>
      <trkpt lat="44.14194" lon="5.3451">
        <ele>1327</ele>
        <time>2020-07-11T09:01:26.596Z</time>
      </trkpt>
      <trkpt lat="44.14188" lon="5.34507">
        <ele>1328</ele>
        <time>2020-07-11T09:01:27.596Z</time>
      </trkpt>
      <trkpt lat="44.14182" lon="5.34503">
        <ele>1328</ele>
        <time>2020-07-11T09:01:28.596Z</time>
      </trkpt>
      <trkpt lat="44.14176" lon="5.345">
        <ele>1328</ele>
        <time>2020-07-11T09:01:29.596Z</time>
      </trkpt>
      <trkpt lat="44.14169" lon="5.34497">
        <ele>1328</ele>
        <time>2020-07-11T09:01:30.595Z</time>
      </trkpt>
      <trkpt lat="44.14163" lon="5.34494">
        <ele>1329</ele>
        <time>2020-07-11T09:01:31.595Z</time>
      </trkpt>
      <trkpt lat="44.14157" lon="5.34491">
        <ele>1329</ele>
        <time>2020-07-11T09:01:32.596Z</time>
      </trkpt>
      <trkpt lat="44.14151" lon="5.34487">
        <ele>1329</ele>
        <time>2020-07-11T09:01:33.596Z</time>
      </trkpt>
      <trkpt lat="44.14145" lon="5.34482">
        <ele>1330</ele>
        <time>2020-07-11T09:01:34.596Z</time>
      </trkpt>
      <trkpt lat="44.14138" lon="5.34478">
        <ele>1330</ele>
        <time>2020-07-11T09:01:35.596Z</time>
      </trkpt>
      <trkpt lat="44.14133" lon="5.34474">
        <ele>1331</ele>
        <time>2020-07-11T09:01:36.596Z</time>
      </trkpt>
      <trkpt lat="44.14127" lon="5.34469">
        <ele>1331</ele>
        <time>2020-07-11T09:01:37.596Z</time>
      </trkpt>
      <trkpt lat="44.14121" lon="5.34463">
        <ele>1332</ele>
        <time>2020-07-11T09:01:38.595Z</time>
      </trkpt>
      <trkpt lat="44.14117" lon="5.34457">
        <ele>1332</ele>
        <time>2020-07-11T09:01:39.596Z</time>
      </trkpt>
      <trkpt lat="44.14113" lon="5.3445">
        <ele>1332</ele>
        <time>2020-07-11T09:01:40.596Z</time>
      </trkpt>
      <trkpt lat="44.1411" lon="5.34442">
        <ele>1332</ele>
        <time>2020-07-11T09:01:41.596Z</time>
      </trkpt>
      <trkpt lat="44.14109" lon="5.34434">
        <ele>1332</ele>
        <time>2020-07-11T09:01:42.595Z</time>
      </trkpt>
      <trkpt lat="44.1411" lon="5.34425">
        <ele>1331</ele>
        <time>2020-07-11T09:01:43.596Z</time>
      </trkpt>
      <trkpt lat="44.14113" lon="5.34418">
        <ele>1331</ele>
        <time>2020-07-11T09:01:44.596Z</time>
      </trkpt>
      <trkpt lat="44.14116" lon="5.3441">
        <ele>1331</ele>
        <time>2020-07-11T09:01:45.595Z</time>
      </trkpt>
      <trkpt lat="44.1412" lon="5.34402">
        <ele>1330</ele>
        <time>2020-07-11T09:01:46.596Z</time>
      </trkpt>
      <trkpt lat="44.14125" lon="5.34395">
        <ele>1330</ele>
        <time>2020-07-11T09:01:47.596Z</time>
      </trkpt>
      <trkpt lat="44.1413" lon="5.34387">
        <ele>1329</ele>
        <time>2020-07-11T09:01:48.595Z</time>
      </trkpt>
      <trkpt lat="44.14135" lon="5.3438">
        <ele>1329</ele>
        <time>2020-07-11T09:01:49.595Z</time>
      </trkpt>
      <trkpt lat="44.14141" lon="5.34374">
        <ele>1329</ele>
        <time>2020-07-11T09:01:50.596Z</time>
      </trkpt>
      <trkpt lat="44.14146" lon="5.34368">
        <ele>1330</ele>
        <time>2020-07-11T09:01:51.595Z</time>
      </trkpt>
      <trkpt lat="44.14152" lon="5.34362">
        <ele>1330</ele>
        <time>2020-07-11T09:01:52.596Z</time>
      </trkpt>
      <trkpt lat="44.14157" lon="5.34356">
        <ele>1330</ele>
        <time>2020-07-11T09:01:53.595Z</time>
      </trkpt>
      <trkpt lat="44.14161" lon="5.3435">
        <ele>1330</ele>
        <time>2020-07-11T09:01:54.596Z</time>
      </trkpt>
      <trkpt lat="44.14166" lon="5.34343">
        <ele>1331</ele>
        <time>2020-07-11T09:01:55.596Z</time>
      </trkpt>
      <trkpt lat="44.14171" lon="5.34337">
        <ele>1331</ele>
        <time>2020-07-11T09:01:56.596Z</time>
      </trkpt>
      <trkpt lat="44.14176" lon="5.34331">
        <ele>1331</ele>
        <time>2020-07-11T09:01:57.595Z</time>
      </trkpt>
      <trkpt lat="44.14179" lon="5.34324">
        <ele>1331</ele>
        <time>2020-07-11T09:01:58.596Z</time>
      </trkpt>
      <trkpt lat="44.14183" lon="5.34318">
        <ele>1332</ele>
        <time>2020-07-11T09:01:59.595Z</time>
      </trkpt>
      <trkpt lat="44.14186" lon="5.34311">
        <ele>1332</ele>
        <time>2020-07-11T09:02:00.595Z</time>
      </trkpt>
      <trkpt lat="44.14189" lon="5.34304">
        <ele>1332</ele>
        <time>2020-07-11T09:02:01.596Z</time>
      </trkpt>
      <trkpt lat="44.14192" lon="5.34297">
        <ele>1332</ele>
        <time>2020-07-11T09:02:02.596Z</time>
      </trkpt>
      <trkpt lat="44.14195" lon="5.34289">
        <ele>1332</ele>
        <time>2020-07-11T09:02:03.596Z</time>
      </trkpt>
      <trkpt lat="44.14197" lon="5.34282">
        <ele>1332</ele>
        <time>2020-07-11T09:02:04.596Z</time>
      </trkpt>
      <trkpt lat="44.142" lon="5.34274">
        <ele>1333</ele>
        <time>2020-07-11T09:02:05.595Z</time>
      </trkpt>
      <trkpt lat="44.14203" lon="5.34267">
        <ele>1332</ele>
        <time>2020-07-11T09:02:06.596Z</time>
      </trkpt>
      <trkpt lat="44.14205" lon="5.34259">
        <ele>1332</ele>
        <time>2020-07-11T09:02:07.596Z</time>
      </trkpt>
      <trkpt lat="44.14208" lon="5.34252">
        <ele>1333</ele>
        <time>2020-07-11T09:02:08.596Z</time>
      </trkpt>
      <trkpt lat="44.14211" lon="5.34245">
        <ele>1333</ele>
        <time>2020-07-11T09:02:09.596Z</time>
      </trkpt>
      <trkpt lat="44.14213" lon="5.34237">
        <ele>1332</ele>
        <time>2020-07-11T09:02:10.596Z</time>
      </trkpt>
      <trkpt lat="44.14215" lon="5.34229">
        <ele>1332</ele>
        <time>2020-07-11T09:02:11.596Z</time>
      </trkpt>
      <trkpt lat="44.14216" lon="5.3422">
        <ele>1333</ele>
        <time>2020-07-11T09:02:12.595Z</time>
      </trkpt>
      <trkpt lat="44.14218" lon="5.34212">
        <ele>1333</ele>
        <time>2020-07-11T09:02:13.596Z</time>
      </trkpt>
      <trkpt lat="44.14219" lon="5.34203">
        <ele>1333</ele>
        <time>2020-07-11T09:02:14.596Z</time>
      </trkpt>
      <trkpt lat="44.14221" lon="5.34195">
        <ele>1333</ele>
        <time>2020-07-11T09:02:15.595Z</time>
      </trkpt>
      <trkpt lat="44.14222" lon="5.34187">
        <ele>1333</ele>
        <time>2020-07-11T09:02:16.596Z</time>
      </trkpt>
      <trkpt lat="44.14223" lon="5.34178">
        <ele>1333</ele>
        <time>2020-07-11T09:02:17.596Z</time>
      </trkpt>
      <trkpt lat="44.14223" lon="5.34169">
        <ele>1334</ele>
        <time>2020-07-11T09:02:18.596Z</time>
      </trkpt>
      <trkpt lat="44.14224" lon="5.34161">
        <ele>1334</ele>
        <time>2020-07-11T09:02:19.596Z</time>
      </trkpt>
      <trkpt lat="44.14225" lon="5.34153">
        <ele>1335</ele>
        <time>2020-07-11T09:02:20.596Z</time>
      </trkpt>
      <trkpt lat="44.14226" lon="5.34144">
        <ele>1335</ele>
        <time>2020-07-11T09:02:21.596Z</time>
      </trkpt>
      <trkpt lat="44.14227" lon="5.34136">
        <ele>1335</ele>
        <time>2020-07-11T09:02:22.595Z</time>
      </trkpt>
      <trkpt lat="44.14228" lon="5.34128">
        <ele>1336</ele>
        <time>2020-07-11T09:02:23.596Z</time>
      </trkpt>
      <trkpt lat="44.1423" lon="5.34119">
        <ele>1336</ele>
        <time>2020-07-11T09:02:24.596Z</time>
      </trkpt>
      <trkpt lat="44.14232" lon="5.34111">
        <ele>1336</ele>
        <time>2020-07-11T09:02:25.596Z</time>
      </trkpt>
      <trkpt lat="44.14234" lon="5.34103">
        <ele>1337</ele>
        <time>2020-07-11T09:02:26.596Z</time>
      </trkpt>
      <trkpt lat="44.14236" lon="5.34095">
        <ele>1337</ele>
        <time>2020-07-11T09:02:27.596Z</time>
      </trkpt>
      <trkpt lat="44.14238" lon="5.34087">
        <ele>1338</ele>
        <time>2020-07-11T09:02:28.596Z</time>
      </trkpt>
      <trkpt lat="44.14241" lon="5.3408">
        <ele>1338</ele>
        <time>2020-07-11T09:02:29.596Z</time>
      </trkpt>
      <trkpt lat="44.14243" lon="5.34072">
        <ele>1339</ele>
        <time>2020-07-11T09:02:30.596Z</time>
      </trkpt>
      <trkpt lat="44.14246" lon="5.34065">
        <ele>1340</ele>
        <time>2020-07-11T09:02:31.595Z</time>
      </trkpt>
      <trkpt lat="44.14248" lon="5.34057">
        <ele>1340</ele>
        <time>2020-07-11T09:02:32.596Z</time>
      </trkpt>
      <trkpt lat="44.1425" lon="5.3405">
        <ele>1340</ele>
        <time>2020-07-11T09:02:33.596Z</time>
      </trkpt>
      <trkpt lat="44.14253" lon="5.34042">
        <ele>1340</ele>
        <time>2020-07-11T09:02:34.596Z</time>
      </trkpt>
      <trkpt lat="44.14256" lon="5.34035">
        <ele>1340</ele>
        <time>2020-07-11T09:02:35.596Z</time>
      </trkpt>
      <trkpt lat="44.14258" lon="5.34027">
        <ele>1340</ele>
        <time>2020-07-11T09:02:36.596Z</time>
      </trkpt>
      <trkpt lat="44.14262" lon="5.3402">
        <ele>1340</ele>
        <time>2020-07-11T09:02:37.596Z</time>
      </trkpt>
      <trkpt lat="44.14265" lon="5.34013">
        <ele>1340</ele>
        <time>2020-07-11T09:02:38.596Z</time>
      </trkpt>
      <trkpt lat="44.14269" lon="5.34006">
        <ele>1341</ele>
        <time>2020-07-11T09:02:39.596Z</time>
      </trkpt>
      <trkpt lat="44.14273" lon="5.34">
        <ele>1341</ele>
        <time>2020-07-11T09:02:40.595Z</time>
      </trkpt>
      <trkpt lat="44.14277" lon="5.33994">
        <ele>1341</ele>
        <time>2020-07-11T09:02:41.596Z</time>
      </trkpt>
      <trkpt lat="44.14282" lon="5.33988">
        <ele>1341</ele>
        <time>2020-07-11T09:02:42.595Z</time>
      </trkpt>
      <trkpt lat="44.14287" lon="5.33983">
        <ele>1341</ele>
        <time>2020-07-11T09:02:43.595Z</time>
      </trkpt>
      <trkpt lat="44.14292" lon="5.33978">
        <ele>1341</ele>
        <time>2020-07-11T09:02:44.596Z</time>
      </trkpt>
      <trkpt lat="44.14296" lon="5.33974">
        <ele>1341</ele>
        <time>2020-07-11T09:02:45.596Z</time>
      </trkpt>
      <trkpt lat="44.14301" lon="5.3397">
        <ele>1342</ele>
        <time>2020-07-11T09:02:46.596Z</time>
      </trkpt>
      <trkpt lat="44.14306" lon="5.33965">
        <ele>1342</ele>
        <time>2020-07-11T09:02:47.595Z</time>
      </trkpt>
      <trkpt lat="44.1431" lon="5.33962">
        <ele>1342</ele>
        <time>2020-07-11T09:02:48.596Z</time>
      </trkpt>
      <trkpt lat="44.14315" lon="5.33958">
        <ele>1342</ele>
        <time>2020-07-11T09:02:49.596Z</time>
      </trkpt>
      <trkpt lat="44.1432" lon="5.33954">
        <ele>1343</ele>
        <time>2020-07-11T09:02:50.596Z</time>
      </trkpt>
      <trkpt lat="44.14325" lon="5.33949">
        <ele>1343</ele>
        <time>2020-07-11T09:02:51.596Z</time>
      </trkpt>
      <trkpt lat="44.1433" lon="5.33945">
        <ele>1343</ele>
        <time>2020-07-11T09:02:52.596Z</time>
      </trkpt>
      <trkpt lat="44.14336" lon="5.33943">
        <ele>1344</ele>
        <time>2020-07-11T09:02:53.595Z</time>
      </trkpt>
      <trkpt lat="44.14342" lon="5.33941">
        <ele>1344</ele>
        <time>2020-07-11T09:02:54.596Z</time>
      </trkpt>
      <trkpt lat="44.14349" lon="5.3394">
        <ele>1344</ele>
        <time>2020-07-11T09:02:55.596Z</time>
      </trkpt>
      <trkpt lat="44.14354" lon="5.33939">
        <ele>1345</ele>
        <time>2020-07-11T09:02:56.596Z</time>
      </trkpt>
      <trkpt lat="44.1436" lon="5.33939">
        <ele>1345</ele>
        <time>2020-07-11T09:02:57.596Z</time>
      </trkpt>
      <trkpt lat="44.14365" lon="5.33939">
        <ele>1344</ele>
        <time>2020-07-11T09:02:58.596Z</time>
      </trkpt>
      <trkpt lat="44.1437" lon="5.33939">
        <ele>1344</ele>
        <time>2020-07-11T09:02:59.596Z</time>
      </trkpt>
      <trkpt lat="44.14376" lon="5.33939">
        <ele>1344</ele>
        <time>2020-07-11T09:03:00.596Z</time>
      </trkpt>
      <trkpt lat="44.14382" lon="5.33939">
        <ele>1344</ele>
        <time>2020-07-11T09:03:01.596Z</time>
      </trkpt>
      <trkpt lat="44.14387" lon="5.33939">
        <ele>1343</ele>
        <time>2020-07-11T09:03:02.596Z</time>
      </trkpt>
      <trkpt lat="44.14393" lon="5.33939">
        <ele>1343</ele>
        <time>2020-07-11T09:03:03.596Z</time>
      </trkpt>
      <trkpt lat="44.14398" lon="5.33939">
        <ele>1343</ele>
        <time>2020-07-11T09:03:04.596Z</time>
      </trkpt>
      <trkpt lat="44.14403" lon="5.33938">
        <ele>1343</ele>
        <time>2020-07-11T09:03:05.595Z</time>
      </trkpt>
      <trkpt lat="44.14409" lon="5.33938">
        <ele>1343</ele>
        <time>2020-07-11T09:03:06.596Z</time>
      </trkpt>
      <trkpt lat="44.14415" lon="5.33937">
        <ele>1343</ele>
        <time>2020-07-11T09:03:07.596Z</time>
      </trkpt>
      <trkpt lat="44.14421" lon="5.33937">
        <ele>1343</ele>
        <time>2020-07-11T09:03:08.596Z</time>
      </trkpt>
      <trkpt lat="44.14427" lon="5.33935">
        <ele>1344</ele>
        <time>2020-07-11T09:03:09.596Z</time>
      </trkpt>
      <trkpt lat="44.14433" lon="5.33934">
        <ele>1344</ele>
        <time>2020-07-11T09:03:10.596Z</time>
      </trkpt>
      <trkpt lat="44.14439" lon="5.33931">
        <ele>1345</ele>
        <time>2020-07-11T09:03:11.596Z</time>
      </trkpt>
      <trkpt lat="44.14445" lon="5.33929">
        <ele>1346</ele>
        <time>2020-07-11T09:03:12.596Z</time>
      </trkpt>
      <trkpt lat="44.14451" lon="5.33926">
        <ele>1346</ele>
        <time>2020-07-11T09:03:13.596Z</time>
      </trkpt>
      <trkpt lat="44.14456" lon="5.33923">
        <ele>1347</ele>
        <time>2020-07-11T09:03:14.595Z</time>
      </trkpt>
      <trkpt lat="44.14462" lon="5.33921">
        <ele>1346</ele>
        <time>2020-07-11T09:03:15.596Z</time>
      </trkpt>
      <trkpt lat="44.14467" lon="5.33918">
        <ele>1346</ele>
        <time>2020-07-11T09:03:16.596Z</time>
      </trkpt>
      <trkpt lat="44.14472" lon="5.33915">
        <ele>1345</ele>
        <time>2020-07-11T09:03:17.595Z</time>
      </trkpt>
      <trkpt lat="44.14477" lon="5.33912">
        <ele>1345</ele>
        <time>2020-07-11T09:03:18.596Z</time>
      </trkpt>
      <trkpt lat="44.14482" lon="5.33909">
        <ele>1345</ele>
        <time>2020-07-11T09:03:19.595Z</time>
      </trkpt>
      <trkpt lat="44.14487" lon="5.33906">
        <ele>1345</ele>
        <time>2020-07-11T09:03:20.596Z</time>
      </trkpt>
      <trkpt lat="44.14492" lon="5.33903">
        <ele>1345</ele>
        <time>2020-07-11T09:03:21.596Z</time>
      </trkpt>
      <trkpt lat="44.14497" lon="5.33899">
        <ele>1345</ele>
        <time>2020-07-11T09:03:22.596Z</time>
      </trkpt>
      <trkpt lat="44.14503" lon="5.33896">
        <ele>1345</ele>
        <time>2020-07-11T09:03:23.596Z</time>
      </trkpt>
      <trkpt lat="44.14508" lon="5.33893">
        <ele>1345</ele>
        <time>2020-07-11T09:03:24.595Z</time>
      </trkpt>
      <trkpt lat="44.14513" lon="5.3389">
        <ele>1346</ele>
        <time>2020-07-11T09:03:25.596Z</time>
      </trkpt>
      <trkpt lat="44.14518" lon="5.33887">
        <ele>1346</ele>
        <time>2020-07-11T09:03:26.596Z</time>
      </trkpt>
      <trkpt lat="44.14523" lon="5.33885">
        <ele>1346</ele>
        <time>2020-07-11T09:03:27.596Z</time>
      </trkpt>
      <trkpt lat="44.14528" lon="5.33882">
        <ele>1346</ele>
        <time>2020-07-11T09:03:28.595Z</time>
      </trkpt>
      <trkpt lat="44.14533" lon="5.33879">
        <ele>1347</ele>
        <time>2020-07-11T09:03:29.595Z</time>
      </trkpt>
      <trkpt lat="44.14538" lon="5.33877">
        <ele>1347</ele>
        <time>2020-07-11T09:03:30.596Z</time>
      </trkpt>
      <trkpt lat="44.14544" lon="5.33875">
        <ele>1347</ele>
        <time>2020-07-11T09:03:31.596Z</time>
      </trkpt>
      <trkpt lat="44.14549" lon="5.33874">
        <ele>1346</ele>
        <time>2020-07-11T09:03:32.595Z</time>
      </trkpt>
      <trkpt lat="44.14554" lon="5.33873">
        <ele>1347</ele>
        <time>2020-07-11T09:03:33.596Z</time>
      </trkpt>
      <trkpt lat="44.1456" lon="5.33872">
        <ele>1347</ele>
        <time>2020-07-11T09:03:34.596Z</time>
      </trkpt>
      <trkpt lat="44.14566" lon="5.33872">
        <ele>1348</ele>
        <time>2020-07-11T09:03:35.595Z</time>
      </trkpt>
      <trkpt lat="44.14571" lon="5.33872">
        <ele>1348</ele>
        <time>2020-07-11T09:03:36.595Z</time>
      </trkpt>
      <trkpt lat="44.14577" lon="5.33872">
        <ele>1349</ele>
        <time>2020-07-11T09:03:37.596Z</time>
      </trkpt>
      <trkpt lat="44.14582" lon="5.33872">
        <ele>1350</ele>
        <time>2020-07-11T09:03:38.596Z</time>
      </trkpt>
      <trkpt lat="44.14588" lon="5.33872">
        <ele>1351</ele>
        <time>2020-07-11T09:03:39.596Z</time>
      </trkpt>
      <trkpt lat="44.14593" lon="5.33872">
        <ele>1351</ele>
        <time>2020-07-11T09:03:40.596Z</time>
      </trkpt>
      <trkpt lat="44.14599" lon="5.33873">
        <ele>1352</ele>
        <time>2020-07-11T09:03:41.596Z</time>
      </trkpt>
      <trkpt lat="44.14605" lon="5.33873">
        <ele>1352</ele>
        <time>2020-07-11T09:03:42.596Z</time>
      </trkpt>
      <trkpt lat="44.14611" lon="5.33873">
        <ele>1353</ele>
        <time>2020-07-11T09:03:43.596Z</time>
      </trkpt>
      <trkpt lat="44.14616" lon="5.33872">
        <ele>1353</ele>
        <time>2020-07-11T09:03:44.596Z</time>
      </trkpt>
      <trkpt lat="44.14621" lon="5.33869">
        <ele>1353</ele>
        <time>2020-07-11T09:03:45.596Z</time>
      </trkpt>
      <trkpt lat="44.14626" lon="5.33866">
        <ele>1353</ele>
        <time>2020-07-11T09:03:46.596Z</time>
      </trkpt>
      <trkpt lat="44.14629" lon="5.3386">
        <ele>1353</ele>
        <time>2020-07-11T09:03:47.595Z</time>
      </trkpt>
      <trkpt lat="44.14628" lon="5.33854">
        <ele>1353</ele>
        <time>2020-07-11T09:03:48.596Z</time>
      </trkpt>
      <trkpt lat="44.14625" lon="5.33848">
        <ele>1353</ele>
        <time>2020-07-11T09:03:49.596Z</time>
      </trkpt>
      <trkpt lat="44.14621" lon="5.33842">
        <ele>1353</ele>
        <time>2020-07-11T09:03:50.596Z</time>
      </trkpt>
      <trkpt lat="44.14615" lon="5.33837">
        <ele>1354</ele>
        <time>2020-07-11T09:03:51.596Z</time>
      </trkpt>
      <trkpt lat="44.14607" lon="5.33835">
        <ele>1354</ele>
        <time>2020-07-11T09:03:52.596Z</time>
      </trkpt>
      <trkpt lat="44.14601" lon="5.33831">
        <ele>1354</ele>
        <time>2020-07-11T09:03:53.595Z</time>
      </trkpt>
      <trkpt lat="44.14594" lon="5.33826">
        <ele>1355</ele>
        <time>2020-07-11T09:03:54.596Z</time>
      </trkpt>
      <trkpt lat="44.14588" lon="5.33821">
        <ele>1355</ele>
        <time>2020-07-11T09:03:55.596Z</time>
      </trkpt>
      <trkpt lat="44.14581" lon="5.33817">
        <ele>1356</ele>
        <time>2020-07-11T09:03:56.596Z</time>
      </trkpt>
      <trkpt lat="44.14575" lon="5.33814">
        <ele>1356</ele>
        <time>2020-07-11T09:03:57.596Z</time>
      </trkpt>
      <trkpt lat="44.14568" lon="5.3381">
        <ele>1356</ele>
        <time>2020-07-11T09:03:58.596Z</time>
      </trkpt>
      <trkpt lat="44.14561" lon="5.33807">
        <ele>1356</ele>
        <time>2020-07-11T09:03:59.595Z</time>
      </trkpt>
      <trkpt lat="44.14554" lon="5.33803">
        <ele>1356</ele>
        <time>2020-07-11T09:04:00.596Z</time>
      </trkpt>
      <trkpt lat="44.14547" lon="5.33798">
        <ele>1356</ele>
        <time>2020-07-11T09:04:01.595Z</time>
      </trkpt>
      <trkpt lat="44.1454" lon="5.33794">
        <ele>1356</ele>
        <time>2020-07-11T09:04:02.595Z</time>
      </trkpt>
      <trkpt lat="44.14533" lon="5.3379">
        <ele>1356</ele>
        <time>2020-07-11T09:04:03.596Z</time>
      </trkpt>
      <trkpt lat="44.14526" lon="5.33785">
        <ele>1355</ele>
        <time>2020-07-11T09:04:04.595Z</time>
      </trkpt>
      <trkpt lat="44.1452" lon="5.33782">
        <ele>1355</ele>
        <time>2020-07-11T09:04:05.596Z</time>
      </trkpt>
      <trkpt lat="44.14513" lon="5.33777">
        <ele>1355</ele>
        <time>2020-07-11T09:04:06.596Z</time>
      </trkpt>
      <trkpt lat="44.14507" lon="5.33773">
        <ele>1355</ele>
        <time>2020-07-11T09:04:07.596Z</time>
      </trkpt>
      <trkpt lat="44.14501" lon="5.33768">
        <ele>1355</ele>
        <time>2020-07-11T09:04:08.596Z</time>
      </trkpt>
      <trkpt lat="44.14495" lon="5.33764">
        <ele>1355</ele>
        <time>2020-07-11T09:04:09.595Z</time>
      </trkpt>
      <trkpt lat="44.14489" lon="5.3376">
        <ele>1355</ele>
        <time>2020-07-11T09:04:10.595Z</time>
      </trkpt>
      <trkpt lat="44.14484" lon="5.33755">
        <ele>1355</ele>
        <time>2020-07-11T09:04:11.596Z</time>
      </trkpt>
      <trkpt lat="44.1448" lon="5.33748">
        <ele>1355</ele>
        <time>2020-07-11T09:04:12.596Z</time>
      </trkpt>
      <trkpt lat="44.14476" lon="5.33741">
        <ele>1356</ele>
        <time>2020-07-11T09:04:13.596Z</time>
      </trkpt>
      <trkpt lat="44.14472" lon="5.33733">
        <ele>1356</ele>
        <time>2020-07-11T09:04:14.596Z</time>
      </trkpt>
      <trkpt lat="44.14468" lon="5.33726">
        <ele>1357</ele>
        <time>2020-07-11T09:04:15.596Z</time>
      </trkpt>
      <trkpt lat="44.14465" lon="5.33718">
        <ele>1357</ele>
        <time>2020-07-11T09:04:16.596Z</time>
      </trkpt>
      <trkpt lat="44.14463" lon="5.33709">
        <ele>1358</ele>
        <time>2020-07-11T09:04:17.595Z</time>
      </trkpt>
      <trkpt lat="44.14462" lon="5.337">
        <ele>1358</ele>
        <time>2020-07-11T09:04:18.596Z</time>
      </trkpt>
      <trkpt lat="44.14462" lon="5.33691">
        <ele>1358</ele>
        <time>2020-07-11T09:04:19.596Z</time>
      </trkpt>
      <trkpt lat="44.14463" lon="5.33682">
        <ele>1358</ele>
        <time>2020-07-11T09:04:20.596Z</time>
      </trkpt>
      <trkpt lat="44.14463" lon="5.33674">
        <ele>1358</ele>
        <time>2020-07-11T09:04:21.596Z</time>
      </trkpt>
      <trkpt lat="44.14464" lon="5.33665">
        <ele>1357</ele>
        <time>2020-07-11T09:04:22.595Z</time>
      </trkpt>
      <trkpt lat="44.14465" lon="5.33655">
        <ele>1357</ele>
        <time>2020-07-11T09:04:23.595Z</time>
      </trkpt>
      <trkpt lat="44.14466" lon="5.33647">
        <ele>1357</ele>
        <time>2020-07-11T09:04:24.595Z</time>
      </trkpt>
      <trkpt lat="44.14468" lon="5.33638">
        <ele>1357</ele>
        <time>2020-07-11T09:04:25.596Z</time>
      </trkpt>
      <trkpt lat="44.1447" lon="5.33629">
        <ele>1357</ele>
        <time>2020-07-11T09:04:26.595Z</time>
      </trkpt>
      <trkpt lat="44.14472" lon="5.33621">
        <ele>1357</ele>
        <time>2020-07-11T09:04:27.596Z</time>
      </trkpt>
      <trkpt lat="44.14475" lon="5.33613">
        <ele>1357</ele>
        <time>2020-07-11T09:04:28.596Z</time>
      </trkpt>
      <trkpt lat="44.14477" lon="5.33604">
        <ele>1358</ele>
        <time>2020-07-11T09:04:29.596Z</time>
      </trkpt>
      <trkpt lat="44.14479" lon="5.33596">
        <ele>1358</ele>
        <time>2020-07-11T09:04:30.596Z</time>
      </trkpt>
      <trkpt lat="44.14481" lon="5.33589">
        <ele>1359</ele>
        <time>2020-07-11T09:04:31.596Z</time>
      </trkpt>
      <trkpt lat="44.14484" lon="5.33581">
        <ele>1359</ele>
        <time>2020-07-11T09:04:32.596Z</time>
      </trkpt>
      <trkpt lat="44.14486" lon="5.33573">
        <ele>1360</ele>
        <time>2020-07-11T09:04:33.596Z</time>
      </trkpt>
      <trkpt lat="44.14488" lon="5.33566">
        <ele>1360</ele>
        <time>2020-07-11T09:04:34.596Z</time>
      </trkpt>
      <trkpt lat="44.1449" lon="5.33557">
        <ele>1360</ele>
        <time>2020-07-11T09:04:35.595Z</time>
      </trkpt>
      <trkpt lat="44.14492" lon="5.3355">
        <ele>1361</ele>
        <time>2020-07-11T09:04:36.596Z</time>
      </trkpt>
      <trkpt lat="44.14495" lon="5.33542">
        <ele>1361</ele>
        <time>2020-07-11T09:04:37.596Z</time>
      </trkpt>
      <trkpt lat="44.14497" lon="5.33534">
        <ele>1361</ele>
        <time>2020-07-11T09:04:38.596Z</time>
      </trkpt>
      <trkpt lat="44.145" lon="5.33526">
        <ele>1362</ele>
        <time>2020-07-11T09:04:39.596Z</time>
      </trkpt>
      <trkpt lat="44.14502" lon="5.33518">
        <ele>1362</ele>
        <time>2020-07-11T09:04:40.596Z</time>
      </trkpt>
      <trkpt lat="44.14504" lon="5.33511">
        <ele>1363</ele>
        <time>2020-07-11T09:04:41.596Z</time>
      </trkpt>
      <trkpt lat="44.14506" lon="5.33504">
        <ele>1364</ele>
        <time>2020-07-11T09:04:42.595Z</time>
      </trkpt>
      <trkpt lat="44.14509" lon="5.33497">
        <ele>1364</ele>
        <time>2020-07-11T09:04:43.596Z</time>
      </trkpt>
      <trkpt lat="44.14512" lon="5.3349">
        <ele>1365</ele>
        <time>2020-07-11T09:04:44.596Z</time>
      </trkpt>
      <trkpt lat="44.14515" lon="5.33484">
        <ele>1365</ele>
        <time>2020-07-11T09:04:45.595Z</time>
      </trkpt>
      <trkpt lat="44.14518" lon="5.33478">
        <ele>1365</ele>
        <time>2020-07-11T09:04:46.596Z</time>
      </trkpt>
      <trkpt lat="44.14521" lon="5.33471">
        <ele>1365</ele>
        <time>2020-07-11T09:04:47.595Z</time>
      </trkpt>
      <trkpt lat="44.14525" lon="5.33465">
        <ele>1366</ele>
        <time>2020-07-11T09:04:48.596Z</time>
      </trkpt>
      <trkpt lat="44.14528" lon="5.33459">
        <ele>1366</ele>
        <time>2020-07-11T09:04:49.596Z</time>
      </trkpt>
      <trkpt lat="44.14532" lon="5.33454">
        <ele>1366</ele>
        <time>2020-07-11T09:04:50.595Z</time>
      </trkpt>
      <trkpt lat="44.14536" lon="5.3345">
        <ele>1367</ele>
        <time>2020-07-11T09:04:51.596Z</time>
      </trkpt>
      <trkpt lat="44.1454" lon="5.33446">
        <ele>1367</ele>
        <time>2020-07-11T09:04:52.596Z</time>
      </trkpt>
      <trkpt lat="44.14545" lon="5.33443">
        <ele>1367</ele>
        <time>2020-07-11T09:04:53.596Z</time>
      </trkpt>
      <trkpt lat="44.1455" lon="5.3344">
        <ele>1367</ele>
        <time>2020-07-11T09:04:54.596Z</time>
      </trkpt>
      <trkpt lat="44.14554" lon="5.33439">
        <ele>1367</ele>
        <time>2020-07-11T09:04:55.596Z</time>
      </trkpt>
      <trkpt lat="44.14559" lon="5.33439">
        <ele>1368</ele>
        <time>2020-07-11T09:04:56.595Z</time>
      </trkpt>
      <trkpt lat="44.14564" lon="5.33439">
        <ele>1368</ele>
        <time>2020-07-11T09:04:57.596Z</time>
      </trkpt>
      <trkpt lat="44.14569" lon="5.33439">
        <ele>1367</ele>
        <time>2020-07-11T09:04:58.596Z</time>
      </trkpt>
      <trkpt lat="44.14574" lon="5.3344">
        <ele>1367</ele>
        <time>2020-07-11T09:04:59.596Z</time>
      </trkpt>
      <trkpt lat="44.14579" lon="5.3344">
        <ele>1368</ele>
        <time>2020-07-11T09:05:00.596Z</time>
      </trkpt>
      <trkpt lat="44.14583" lon="5.33441">
        <ele>1368</ele>
        <time>2020-07-11T09:05:01.596Z</time>
      </trkpt>
      <trkpt lat="44.14588" lon="5.33442">
        <ele>1368</ele>
        <time>2020-07-11T09:05:02.596Z</time>
      </trkpt>
      <trkpt lat="44.14593" lon="5.33443">
        <ele>1368</ele>
        <time>2020-07-11T09:05:03.595Z</time>
      </trkpt>
      <trkpt lat="44.14598" lon="5.33444">
        <ele>1368</ele>
        <time>2020-07-11T09:05:04.596Z</time>
      </trkpt>
      <trkpt lat="44.14602" lon="5.33445">
        <ele>1368</ele>
        <time>2020-07-11T09:05:05.596Z</time>
      </trkpt>
      <trkpt lat="44.14607" lon="5.33446">
        <ele>1368</ele>
        <time>2020-07-11T09:05:06.595Z</time>
      </trkpt>
      <trkpt lat="44.14611" lon="5.33446">
        <ele>1368</ele>
        <time>2020-07-11T09:05:07.596Z</time>
      </trkpt>
      <trkpt lat="44.14616" lon="5.33447">
        <ele>1368</ele>
        <time>2020-07-11T09:05:08.596Z</time>
      </trkpt>
      <trkpt lat="44.1462" lon="5.33447">
        <ele>1368</ele>
        <time>2020-07-11T09:05:09.596Z</time>
      </trkpt>
      <trkpt lat="44.14625" lon="5.33448">
        <ele>1368</ele>
        <time>2020-07-11T09:05:10.596Z</time>
      </trkpt>
      <trkpt lat="44.1463" lon="5.33449">
        <ele>1368</ele>
        <time>2020-07-11T09:05:11.595Z</time>
      </trkpt>
      <trkpt lat="44.14634" lon="5.33449">
        <ele>1368</ele>
        <time>2020-07-11T09:05:12.595Z</time>
      </trkpt>
      <trkpt lat="44.14639" lon="5.3345">
        <ele>1368</ele>
        <time>2020-07-11T09:05:13.596Z</time>
      </trkpt>
      <trkpt lat="44.14643" lon="5.3345">
        <ele>1368</ele>
        <time>2020-07-11T09:05:14.596Z</time>
      </trkpt>
      <trkpt lat="44.14647" lon="5.3345">
        <ele>1367</ele>
        <time>2020-07-11T09:05:15.596Z</time>
      </trkpt>
      <trkpt lat="44.14651" lon="5.3345">
        <ele>1367</ele>
        <time>2020-07-11T09:05:16.596Z</time>
      </trkpt>
      <trkpt lat="44.14656" lon="5.3345">
        <ele>1367</ele>
        <time>2020-07-11T09:05:17.595Z</time>
      </trkpt>
      <trkpt lat="44.1466" lon="5.3345">
        <ele>1367</ele>
        <time>2020-07-11T09:05:18.596Z</time>
      </trkpt>
      <trkpt lat="44.14664" lon="5.3345">
        <ele>1367</ele>
        <time>2020-07-11T09:05:19.596Z</time>
      </trkpt>
      <trkpt lat="44.14669" lon="5.33449">
        <ele>1367</ele>
        <time>2020-07-11T09:05:20.596Z</time>
      </trkpt>
      <trkpt lat="44.14673" lon="5.33449">
        <ele>1368</ele>
        <time>2020-07-11T09:05:21.596Z</time>
      </trkpt>
      <trkpt lat="44.14677" lon="5.33449">
        <ele>1368</ele>
        <time>2020-07-11T09:05:22.595Z</time>
      </trkpt>
      <trkpt lat="44.14682" lon="5.33449">
        <ele>1369</ele>
        <time>2020-07-11T09:05:23.595Z</time>
      </trkpt>
      <trkpt lat="44.14686" lon="5.33449">
        <ele>1369</ele>
        <time>2020-07-11T09:05:24.596Z</time>
      </trkpt>
      <trkpt lat="44.1469" lon="5.33448">
        <ele>1370</ele>
        <time>2020-07-11T09:05:25.596Z</time>
      </trkpt>
      <trkpt lat="44.14695" lon="5.33448">
        <ele>1370</ele>
        <time>2020-07-11T09:05:26.596Z</time>
      </trkpt>
      <trkpt lat="44.14699" lon="5.33448">
        <ele>1370</ele>
        <time>2020-07-11T09:05:27.596Z</time>
      </trkpt>
      <trkpt lat="44.14703" lon="5.33448">
        <ele>1370</ele>
        <time>2020-07-11T09:05:28.595Z</time>
      </trkpt>
      <trkpt lat="44.14708" lon="5.33447">
        <ele>1371</ele>
        <time>2020-07-11T09:05:29.596Z</time>
      </trkpt>
      <trkpt lat="44.14712" lon="5.33446">
        <ele>1371</ele>
        <time>2020-07-11T09:05:30.596Z</time>
      </trkpt>
      <trkpt lat="44.14716" lon="5.33446">
        <ele>1372</ele>
        <time>2020-07-11T09:05:31.595Z</time>
      </trkpt>
      <trkpt lat="44.14721" lon="5.33445">
        <ele>1373</ele>
        <time>2020-07-11T09:05:32.595Z</time>
      </trkpt>
      <trkpt lat="44.14724" lon="5.33444">
        <ele>1373</ele>
        <time>2020-07-11T09:05:33.596Z</time>
      </trkpt>
      <trkpt lat="44.14728" lon="5.33443">
        <ele>1374</ele>
        <time>2020-07-11T09:05:34.595Z</time>
      </trkpt>
      <trkpt lat="44.14733" lon="5.33442">
        <ele>1375</ele>
        <time>2020-07-11T09:05:35.596Z</time>
      </trkpt>
      <trkpt lat="44.14737" lon="5.33441">
        <ele>1375</ele>
        <time>2020-07-11T09:05:36.596Z</time>
      </trkpt>
      <trkpt lat="44.14742" lon="5.3344">
        <ele>1376</ele>
        <time>2020-07-11T09:05:37.596Z</time>
      </trkpt>
      <trkpt lat="44.14746" lon="5.33439">
        <ele>1377</ele>
        <time>2020-07-11T09:05:38.596Z</time>
      </trkpt>
      <trkpt lat="44.1475" lon="5.33438">
        <ele>1377</ele>
        <time>2020-07-11T09:05:39.595Z</time>
      </trkpt>
      <trkpt lat="44.14755" lon="5.33438">
        <ele>1378</ele>
        <time>2020-07-11T09:05:40.596Z</time>
      </trkpt>
      <trkpt lat="44.14759" lon="5.33436">
        <ele>1378</ele>
        <time>2020-07-11T09:05:41.595Z</time>
      </trkpt>
      <trkpt lat="44.14763" lon="5.33435">
        <ele>1378</ele>
        <time>2020-07-11T09:05:42.596Z</time>
      </trkpt>
      <trkpt lat="44.14768" lon="5.33434">
        <ele>1378</ele>
        <time>2020-07-11T09:05:43.596Z</time>
      </trkpt>
      <trkpt lat="44.14772" lon="5.33433">
        <ele>1378</ele>
        <time>2020-07-11T09:05:44.595Z</time>
      </trkpt>
      <trkpt lat="44.14777" lon="5.33432">
        <ele>1378</ele>
        <time>2020-07-11T09:05:45.596Z</time>
      </trkpt>
      <trkpt lat="44.14781" lon="5.33432">
        <ele>1378</ele>
        <time>2020-07-11T09:05:46.596Z</time>
      </trkpt>
      <trkpt lat="44.14786" lon="5.33431">
        <ele>1378</ele>
        <time>2020-07-11T09:05:47.596Z</time>
      </trkpt>
      <trkpt lat="44.1479" lon="5.3343">
        <ele>1378</ele>
        <time>2020-07-11T09:05:48.596Z</time>
      </trkpt>
      <trkpt lat="44.14794" lon="5.33428">
        <ele>1378</ele>
        <time>2020-07-11T09:05:49.595Z</time>
      </trkpt>
      <trkpt lat="44.14798" lon="5.33427">
        <ele>1379</ele>
        <time>2020-07-11T09:05:50.595Z</time>
      </trkpt>
      <trkpt lat="44.14803" lon="5.33426">
        <ele>1379</ele>
        <time>2020-07-11T09:05:51.596Z</time>
      </trkpt>
      <trkpt lat="44.14807" lon="5.33425">
        <ele>1379</ele>
        <time>2020-07-11T09:05:52.596Z</time>
      </trkpt>
      <trkpt lat="44.14811" lon="5.33423">
        <ele>1380</ele>
        <time>2020-07-11T09:05:53.596Z</time>
      </trkpt>
      <trkpt lat="44.14815" lon="5.33422">
        <ele>1380</ele>
        <time>2020-07-11T09:05:54.596Z</time>
      </trkpt>
      <trkpt lat="44.14819" lon="5.33421">
        <ele>1380</ele>
        <time>2020-07-11T09:05:55.595Z</time>
      </trkpt>
      <trkpt lat="44.14823" lon="5.33419">
        <ele>1380</ele>
        <time>2020-07-11T09:05:56.596Z</time>
      </trkpt>
      <trkpt lat="44.14828" lon="5.33418">
        <ele>1380</ele>
        <time>2020-07-11T09:05:57.595Z</time>
      </trkpt>
      <trkpt lat="44.14832" lon="5.33417">
        <ele>1380</ele>
        <time>2020-07-11T09:05:58.595Z</time>
      </trkpt>
      <trkpt lat="44.14836" lon="5.33415">
        <ele>1380</ele>
        <time>2020-07-11T09:05:59.596Z</time>
      </trkpt>
      <trkpt lat="44.1484" lon="5.33414">
        <ele>1380</ele>
        <time>2020-07-11T09:06:00.596Z</time>
      </trkpt>
      <trkpt lat="44.14844" lon="5.33413">
        <ele>1381</ele>
        <time>2020-07-11T09:06:01.596Z</time>
      </trkpt>
      <trkpt lat="44.14848" lon="5.33412">
        <ele>1381</ele>
        <time>2020-07-11T09:06:02.596Z</time>
      </trkpt>
      <trkpt lat="44.14852" lon="5.33411">
        <ele>1381</ele>
        <time>2020-07-11T09:06:03.596Z</time>
      </trkpt>
      <trkpt lat="44.14856" lon="5.3341">
        <ele>1382</ele>
        <time>2020-07-11T09:06:04.596Z</time>
      </trkpt>
      <trkpt lat="44.14861" lon="5.33409">
        <ele>1383</ele>
        <time>2020-07-11T09:06:05.596Z</time>
      </trkpt>
      <trkpt lat="44.14865" lon="5.33408">
        <ele>1383</ele>
        <time>2020-07-11T09:06:06.596Z</time>
      </trkpt>
      <trkpt lat="44.1487" lon="5.33408">
        <ele>1383</ele>
        <time>2020-07-11T09:06:07.596Z</time>
      </trkpt>
      <trkpt lat="44.14874" lon="5.33409">
        <ele>1383</ele>
        <time>2020-07-11T09:06:08.595Z</time>
      </trkpt>
      <trkpt lat="44.14879" lon="5.33409">
        <ele>1383</ele>
        <time>2020-07-11T09:06:09.596Z</time>
      </trkpt>
      <trkpt lat="44.14883" lon="5.3341">
        <ele>1383</ele>
        <time>2020-07-11T09:06:10.596Z</time>
      </trkpt>
      <trkpt lat="44.14888" lon="5.33411">
        <ele>1383</ele>
        <time>2020-07-11T09:06:11.595Z</time>
      </trkpt>
      <trkpt lat="44.14892" lon="5.33412">
        <ele>1383</ele>
        <time>2020-07-11T09:06:12.595Z</time>
      </trkpt>
      <trkpt lat="44.14897" lon="5.33413">
        <ele>1383</ele>
        <time>2020-07-11T09:06:13.595Z</time>
      </trkpt>
      <trkpt lat="44.14901" lon="5.33415">
        <ele>1383</ele>
        <time>2020-07-11T09:06:14.596Z</time>
      </trkpt>
      <trkpt lat="44.14905" lon="5.33417">
        <ele>1383</ele>
        <time>2020-07-11T09:06:15.596Z</time>
      </trkpt>
      <trkpt lat="44.14909" lon="5.33419">
        <ele>1383</ele>
        <time>2020-07-11T09:06:16.595Z</time>
      </trkpt>
      <trkpt lat="44.14913" lon="5.33422">
        <ele>1383</ele>
        <time>2020-07-11T09:06:17.595Z</time>
      </trkpt>
      <trkpt lat="44.14917" lon="5.33424">
        <ele>1383</ele>
        <time>2020-07-11T09:06:18.595Z</time>
      </trkpt>
      <trkpt lat="44.14921" lon="5.33426">
        <ele>1383</ele>
        <time>2020-07-11T09:06:19.596Z</time>
      </trkpt>
      <trkpt lat="44.14924" lon="5.33427">
        <ele>1384</ele>
        <time>2020-07-11T09:06:20.596Z</time>
      </trkpt>
      <trkpt lat="44.14929" lon="5.33428">
        <ele>1384</ele>
        <time>2020-07-11T09:06:21.596Z</time>
      </trkpt>
      <trkpt lat="44.14933" lon="5.33428">
        <ele>1385</ele>
        <time>2020-07-11T09:06:22.595Z</time>
      </trkpt>
      <trkpt lat="44.14937" lon="5.33426">
        <ele>1386</ele>
        <time>2020-07-11T09:06:23.596Z</time>
      </trkpt>
      <trkpt lat="44.1494" lon="5.33424">
        <ele>1386</ele>
        <time>2020-07-11T09:06:24.596Z</time>
      </trkpt>
      <trkpt lat="44.14942" lon="5.3342">
        <ele>1387</ele>
        <time>2020-07-11T09:06:25.596Z</time>
      </trkpt>
      <trkpt lat="44.14944" lon="5.33415">
        <ele>1387</ele>
        <time>2020-07-11T09:06:26.595Z</time>
      </trkpt>
      <trkpt lat="44.14944" lon="5.3341">
        <ele>1388</ele>
        <time>2020-07-11T09:06:27.595Z</time>
      </trkpt>
      <trkpt lat="44.14943" lon="5.33405">
        <ele>1388</ele>
        <time>2020-07-11T09:06:28.595Z</time>
      </trkpt>
      <trkpt lat="44.14941" lon="5.33401">
        <ele>1388</ele>
        <time>2020-07-11T09:06:29.596Z</time>
      </trkpt>
      <trkpt lat="44.14938" lon="5.33396">
        <ele>1389</ele>
        <time>2020-07-11T09:06:30.596Z</time>
      </trkpt>
      <trkpt lat="44.14934" lon="5.33392">
        <ele>1389</ele>
        <time>2020-07-11T09:06:31.595Z</time>
      </trkpt>
      <trkpt lat="44.14931" lon="5.33388">
        <ele>1390</ele>
        <time>2020-07-11T09:06:32.596Z</time>
      </trkpt>
      <trkpt lat="44.14928" lon="5.33383">
        <ele>1391</ele>
        <time>2020-07-11T09:06:33.595Z</time>
      </trkpt>
      <trkpt lat="44.14925" lon="5.33378">
        <ele>1391</ele>
        <time>2020-07-11T09:06:34.596Z</time>
      </trkpt>
      <trkpt lat="44.14921" lon="5.33374">
        <ele>1392</ele>
        <time>2020-07-11T09:06:35.595Z</time>
      </trkpt>
      <trkpt lat="44.14918" lon="5.33369">
        <ele>1392</ele>
        <time>2020-07-11T09:06:36.595Z</time>
      </trkpt>
      <trkpt lat="44.14916" lon="5.33363">
        <ele>1393</ele>
        <time>2020-07-11T09:06:37.595Z</time>
      </trkpt>
      <trkpt lat="44.14913" lon="5.33357">
        <ele>1393</ele>
        <time>2020-07-11T09:06:38.595Z</time>
      </trkpt>
      <trkpt lat="44.14911" lon="5.33352">
        <ele>1393</ele>
        <time>2020-07-11T09:06:39.596Z</time>
      </trkpt>
      <trkpt lat="44.14908" lon="5.33346">
        <ele>1393</ele>
        <time>2020-07-11T09:06:40.596Z</time>
      </trkpt>
      <trkpt lat="44.14905" lon="5.3334">
        <ele>1393</ele>
        <time>2020-07-11T09:06:41.595Z</time>
      </trkpt>
      <trkpt lat="44.14902" lon="5.33334">
        <ele>1393</ele>
        <time>2020-07-11T09:06:42.596Z</time>
      </trkpt>
      <trkpt lat="44.14898" lon="5.33328">
        <ele>1394</ele>
        <time>2020-07-11T09:06:43.595Z</time>
      </trkpt>
      <trkpt lat="44.14895" lon="5.33322">
        <ele>1394</ele>
        <time>2020-07-11T09:06:44.596Z</time>
      </trkpt>
      <trkpt lat="44.14893" lon="5.33316">
        <ele>1394</ele>
        <time>2020-07-11T09:06:45.596Z</time>
      </trkpt>
      <trkpt lat="44.1489" lon="5.33309">
        <ele>1394</ele>
        <time>2020-07-11T09:06:46.596Z</time>
      </trkpt>
      <trkpt lat="44.14888" lon="5.33303">
        <ele>1394</ele>
        <time>2020-07-11T09:06:47.595Z</time>
      </trkpt>
      <trkpt lat="44.14887" lon="5.33296">
        <ele>1393</ele>
        <time>2020-07-11T09:06:48.595Z</time>
      </trkpt>
      <trkpt lat="44.14888" lon="5.3329">
        <ele>1393</ele>
        <time>2020-07-11T09:06:49.596Z</time>
      </trkpt>
      <trkpt lat="44.14891" lon="5.33284">
        <ele>1392</ele>
        <time>2020-07-11T09:06:50.595Z</time>
      </trkpt>
      <trkpt lat="44.14894" lon="5.33279">
        <ele>1392</ele>
        <time>2020-07-11T09:06:51.595Z</time>
      </trkpt>
      <trkpt lat="44.14898" lon="5.33276">
        <ele>1392</ele>
        <time>2020-07-11T09:06:52.595Z</time>
      </trkpt>
      <trkpt lat="44.14903" lon="5.33273">
        <ele>1392</ele>
        <time>2020-07-11T09:06:53.595Z</time>
      </trkpt>
      <trkpt lat="44.14908" lon="5.33272">
        <ele>1392</ele>
        <time>2020-07-11T09:06:54.595Z</time>
      </trkpt>
      <trkpt lat="44.14914" lon="5.33271">
        <ele>1392</ele>
        <time>2020-07-11T09:06:55.595Z</time>
      </trkpt>
      <trkpt lat="44.1492" lon="5.33271">
        <ele>1392</ele>
        <time>2020-07-11T09:06:56.595Z</time>
      </trkpt>
      <trkpt lat="44.14925" lon="5.33269">
        <ele>1392</ele>
        <time>2020-07-11T09:06:57.596Z</time>
      </trkpt>
      <trkpt lat="44.1493" lon="5.33266">
        <ele>1392</ele>
        <time>2020-07-11T09:06:58.595Z</time>
      </trkpt>
      <trkpt lat="44.14935" lon="5.33262">
        <ele>1393</ele>
        <time>2020-07-11T09:06:59.595Z</time>
      </trkpt>
      <trkpt lat="44.14939" lon="5.33258">
        <ele>1393</ele>
        <time>2020-07-11T09:07:00.595Z</time>
      </trkpt>
      <trkpt lat="44.14942" lon="5.33252">
        <ele>1393</ele>
        <time>2020-07-11T09:07:01.596Z</time>
      </trkpt>
      <trkpt lat="44.14945" lon="5.33246">
        <ele>1394</ele>
        <time>2020-07-11T09:07:02.595Z</time>
      </trkpt>
      <trkpt lat="44.14946" lon="5.33239">
        <ele>1394</ele>
        <time>2020-07-11T09:07:03.596Z</time>
      </trkpt>
      <trkpt lat="44.14947" lon="5.33231">
        <ele>1395</ele>
        <time>2020-07-11T09:07:04.596Z</time>
      </trkpt>
      <trkpt lat="44.14947" lon="5.33223">
        <ele>1395</ele>
        <time>2020-07-11T09:07:05.595Z</time>
      </trkpt>
      <trkpt lat="44.14947" lon="5.33215">
        <ele>1395</ele>
        <time>2020-07-11T09:07:06.596Z</time>
      </trkpt>
      <trkpt lat="44.14945" lon="5.33207">
        <ele>1396</ele>
        <time>2020-07-11T09:07:07.596Z</time>
      </trkpt>
      <trkpt lat="44.14944" lon="5.33199">
        <ele>1396</ele>
        <time>2020-07-11T09:07:08.595Z</time>
      </trkpt>
      <trkpt lat="44.14941" lon="5.3319">
        <ele>1397</ele>
        <time>2020-07-11T09:07:09.596Z</time>
      </trkpt>
      <trkpt lat="44.14939" lon="5.33182">
        <ele>1397</ele>
        <time>2020-07-11T09:07:10.596Z</time>
      </trkpt>
      <trkpt lat="44.14937" lon="5.33174">
        <ele>1397</ele>
        <time>2020-07-11T09:07:11.596Z</time>
      </trkpt>
      <trkpt lat="44.14935" lon="5.33167">
        <ele>1397</ele>
        <time>2020-07-11T09:07:12.595Z</time>
      </trkpt>
      <trkpt lat="44.14932" lon="5.33159">
        <ele>1397</ele>
        <time>2020-07-11T09:07:13.595Z</time>
      </trkpt>
      <trkpt lat="44.14929" lon="5.33151">
        <ele>1396</ele>
        <time>2020-07-11T09:07:14.595Z</time>
      </trkpt>
      <trkpt lat="44.14927" lon="5.33142">
        <ele>1396</ele>
        <time>2020-07-11T09:07:15.596Z</time>
      </trkpt>
      <trkpt lat="44.14924" lon="5.33134">
        <ele>1396</ele>
        <time>2020-07-11T09:07:16.596Z</time>
      </trkpt>
      <trkpt lat="44.14921" lon="5.33126">
        <ele>1396</ele>
        <time>2020-07-11T09:07:17.596Z</time>
      </trkpt>
      <trkpt lat="44.14918" lon="5.33116">
        <ele>1397</ele>
        <time>2020-07-11T09:07:18.596Z</time>
      </trkpt>
      <trkpt lat="44.14916" lon="5.3311">
        <ele>1397</ele>
        <time>2020-07-11T09:07:19.596Z</time>
      </trkpt>
      <trkpt lat="44.14914" lon="5.331">
        <ele>1397</ele>
        <time>2020-07-11T09:07:20.595Z</time>
      </trkpt>
      <trkpt lat="44.14913" lon="5.33091">
        <ele>1397</ele>
        <time>2020-07-11T09:07:21.596Z</time>
      </trkpt>
      <trkpt lat="44.1491" lon="5.33083">
        <ele>1397</ele>
        <time>2020-07-11T09:07:22.595Z</time>
      </trkpt>
      <trkpt lat="44.14908" lon="5.33075">
        <ele>1398</ele>
        <time>2020-07-11T09:07:23.595Z</time>
      </trkpt>
      <trkpt lat="44.14906" lon="5.33067">
        <ele>1398</ele>
        <time>2020-07-11T09:07:24.596Z</time>
      </trkpt>
      <trkpt lat="44.14904" lon="5.33059">
        <ele>1398</ele>
        <time>2020-07-11T09:07:25.595Z</time>
      </trkpt>
      <trkpt lat="44.14902" lon="5.33051">
        <ele>1399</ele>
        <time>2020-07-11T09:07:26.595Z</time>
      </trkpt>
      <trkpt lat="44.149" lon="5.33043">
        <ele>1399</ele>
        <time>2020-07-11T09:07:27.596Z</time>
      </trkpt>
      <trkpt lat="44.14898" lon="5.33034">
        <ele>1400</ele>
        <time>2020-07-11T09:07:28.596Z</time>
      </trkpt>
      <trkpt lat="44.14896" lon="5.33026">
        <ele>1400</ele>
        <time>2020-07-11T09:07:29.596Z</time>
      </trkpt>
      <trkpt lat="44.14894" lon="5.33018">
        <ele>1401</ele>
        <time>2020-07-11T09:07:30.596Z</time>
      </trkpt>
      <trkpt lat="44.14893" lon="5.3301">
        <ele>1401</ele>
        <time>2020-07-11T09:07:31.595Z</time>
      </trkpt>
      <trkpt lat="44.14892" lon="5.33001">
        <ele>1401</ele>
        <time>2020-07-11T09:07:32.596Z</time>
      </trkpt>
      <trkpt lat="44.14892" lon="5.32992">
        <ele>1402</ele>
        <time>2020-07-11T09:07:33.596Z</time>
      </trkpt>
      <trkpt lat="44.14891" lon="5.32983">
        <ele>1402</ele>
        <time>2020-07-11T09:07:34.596Z</time>
      </trkpt>
      <trkpt lat="44.1489" lon="5.32973">
        <ele>1402</ele>
        <time>2020-07-11T09:07:35.596Z</time>
      </trkpt>
      <trkpt lat="44.14891" lon="5.32965">
        <ele>1402</ele>
        <time>2020-07-11T09:07:36.596Z</time>
      </trkpt>
      <trkpt lat="44.14892" lon="5.32956">
        <ele>1401</ele>
        <time>2020-07-11T09:07:37.596Z</time>
      </trkpt>
      <trkpt lat="44.14893" lon="5.32948">
        <ele>1401</ele>
        <time>2020-07-11T09:07:38.596Z</time>
      </trkpt>
      <trkpt lat="44.14894" lon="5.32939">
        <ele>1401</ele>
        <time>2020-07-11T09:07:39.596Z</time>
      </trkpt>
      <trkpt lat="44.14895" lon="5.32931">
        <ele>1401</ele>
        <time>2020-07-11T09:07:40.596Z</time>
      </trkpt>
      <trkpt lat="44.14896" lon="5.32922">
        <ele>1401</ele>
        <time>2020-07-11T09:07:41.596Z</time>
      </trkpt>
      <trkpt lat="44.14897" lon="5.32913">
        <ele>1401</ele>
        <time>2020-07-11T09:07:42.596Z</time>
      </trkpt>
      <trkpt lat="44.14897" lon="5.32904">
        <ele>1401</ele>
        <time>2020-07-11T09:07:43.596Z</time>
      </trkpt>
      <trkpt lat="44.14897" lon="5.32895">
        <ele>1401</ele>
        <time>2020-07-11T09:07:44.596Z</time>
      </trkpt>
      <trkpt lat="44.14898" lon="5.32886">
        <ele>1401</ele>
        <time>2020-07-11T09:07:45.596Z</time>
      </trkpt>
      <trkpt lat="44.14898" lon="5.32877">
        <ele>1401</ele>
        <time>2020-07-11T09:07:46.596Z</time>
      </trkpt>
      <trkpt lat="44.14898" lon="5.32868">
        <ele>1401</ele>
        <time>2020-07-11T09:07:47.596Z</time>
      </trkpt>
      <trkpt lat="44.14899" lon="5.32859">
        <ele>1402</ele>
        <time>2020-07-11T09:07:48.595Z</time>
      </trkpt>
      <trkpt lat="44.149" lon="5.32851">
        <ele>1402</ele>
        <time>2020-07-11T09:07:49.596Z</time>
      </trkpt>
      <trkpt lat="44.149" lon="5.32842">
        <ele>1402</ele>
        <time>2020-07-11T09:07:50.596Z</time>
      </trkpt>
      <trkpt lat="44.149" lon="5.32833">
        <ele>1401</ele>
        <time>2020-07-11T09:07:51.596Z</time>
      </trkpt>
      <trkpt lat="44.149" lon="5.32824">
        <ele>1401</ele>
        <time>2020-07-11T09:07:52.595Z</time>
      </trkpt>
      <trkpt lat="44.149" lon="5.32816">
        <ele>1401</ele>
        <time>2020-07-11T09:07:53.596Z</time>
      </trkpt>
      <trkpt lat="44.14899" lon="5.32808">
        <ele>1401</ele>
        <time>2020-07-11T09:07:54.595Z</time>
      </trkpt>
      <trkpt lat="44.14897" lon="5.328">
        <ele>1402</ele>
        <time>2020-07-11T09:07:55.596Z</time>
      </trkpt>
      <trkpt lat="44.14895" lon="5.32792">
        <ele>1402</ele>
        <time>2020-07-11T09:07:56.596Z</time>
      </trkpt>
      <trkpt lat="44.14892" lon="5.32784">
        <ele>1402</ele>
        <time>2020-07-11T09:07:57.596Z</time>
      </trkpt>
      <trkpt lat="44.14889" lon="5.32776">
        <ele>1402</ele>
        <time>2020-07-11T09:07:58.596Z</time>
      </trkpt>
      <trkpt lat="44.14886" lon="5.32768">
        <ele>1403</ele>
        <time>2020-07-11T09:07:59.596Z</time>
      </trkpt>
      <trkpt lat="44.14883" lon="5.32759">
        <ele>1403</ele>
        <time>2020-07-11T09:08:00.595Z</time>
      </trkpt>
      <trkpt lat="44.1488" lon="5.32751">
        <ele>1403</ele>
        <time>2020-07-11T09:08:01.596Z</time>
      </trkpt>
      <trkpt lat="44.14878" lon="5.32742">
        <ele>1403</ele>
        <time>2020-07-11T09:08:02.596Z</time>
      </trkpt>
      <trkpt lat="44.14876" lon="5.32731">
        <ele>1402</ele>
        <time>2020-07-11T09:08:03.596Z</time>
      </trkpt>
      <trkpt lat="44.14875" lon="5.32724">
        <ele>1402</ele>
        <time>2020-07-11T09:08:04.596Z</time>
      </trkpt>
      <trkpt lat="44.14875" lon="5.32714">
        <ele>1402</ele>
        <time>2020-07-11T09:08:05.596Z</time>
      </trkpt>
      <trkpt lat="44.14876" lon="5.32706">
        <ele>1402</ele>
        <time>2020-07-11T09:08:06.596Z</time>
      </trkpt>
      <trkpt lat="44.14878" lon="5.32697">
        <ele>1402</ele>
        <time>2020-07-11T09:08:07.596Z</time>
      </trkpt>
      <trkpt lat="44.14882" lon="5.3269">
        <ele>1402</ele>
        <time>2020-07-11T09:08:08.595Z</time>
      </trkpt>
      <trkpt lat="44.14886" lon="5.32684">
        <ele>1402</ele>
        <time>2020-07-11T09:08:09.595Z</time>
      </trkpt>
      <trkpt lat="44.14891" lon="5.3268">
        <ele>1401</ele>
        <time>2020-07-11T09:08:10.595Z</time>
      </trkpt>
      <trkpt lat="44.14898" lon="5.3268">
        <ele>1400</ele>
        <time>2020-07-11T09:08:11.595Z</time>
      </trkpt>
      <trkpt lat="44.14904" lon="5.3268">
        <ele>1400</ele>
        <time>2020-07-11T09:08:12.596Z</time>
      </trkpt>
      <trkpt lat="44.1491" lon="5.32682">
        <ele>1399</ele>
        <time>2020-07-11T09:08:13.596Z</time>
      </trkpt>
      <trkpt lat="44.14916" lon="5.32683">
        <ele>1398</ele>
        <time>2020-07-11T09:08:14.596Z</time>
      </trkpt>
      <trkpt lat="44.14922" lon="5.32686">
        <ele>1398</ele>
        <time>2020-07-11T09:08:15.596Z</time>
      </trkpt>
      <trkpt lat="44.14928" lon="5.32688">
        <ele>1398</ele>
        <time>2020-07-11T09:08:16.595Z</time>
      </trkpt>
      <trkpt lat="44.14934" lon="5.32691">
        <ele>1397</ele>
        <time>2020-07-11T09:08:17.595Z</time>
      </trkpt>
      <trkpt lat="44.1494" lon="5.32694">
        <ele>1397</ele>
        <time>2020-07-11T09:08:18.596Z</time>
      </trkpt>
      <trkpt lat="44.14946" lon="5.32698">
        <ele>1397</ele>
        <time>2020-07-11T09:08:19.595Z</time>
      </trkpt>
      <trkpt lat="44.14952" lon="5.32702">
        <ele>1396</ele>
        <time>2020-07-11T09:08:20.595Z</time>
      </trkpt>
      <trkpt lat="44.14958" lon="5.32705">
        <ele>1396</ele>
        <time>2020-07-11T09:08:21.595Z</time>
      </trkpt>
      <trkpt lat="44.14964" lon="5.32709">
        <ele>1396</ele>
        <time>2020-07-11T09:08:22.596Z</time>
      </trkpt>
      <trkpt lat="44.14969" lon="5.32712">
        <ele>1396</ele>
        <time>2020-07-11T09:08:23.596Z</time>
      </trkpt>
      <trkpt lat="44.14975" lon="5.32715">
        <ele>1396</ele>
        <time>2020-07-11T09:08:24.595Z</time>
      </trkpt>
      <trkpt lat="44.14981" lon="5.32719">
        <ele>1396</ele>
        <time>2020-07-11T09:08:25.596Z</time>
      </trkpt>
      <trkpt lat="44.14986" lon="5.32722">
        <ele>1396</ele>
        <time>2020-07-11T09:08:26.596Z</time>
      </trkpt>
      <trkpt lat="44.14992" lon="5.32725">
        <ele>1395</ele>
        <time>2020-07-11T09:08:27.596Z</time>
      </trkpt>
      <trkpt lat="44.14998" lon="5.32728">
        <ele>1396</ele>
        <time>2020-07-11T09:08:28.596Z</time>
      </trkpt>
      <trkpt lat="44.15003" lon="5.32731">
        <ele>1396</ele>
        <time>2020-07-11T09:08:29.596Z</time>
      </trkpt>
      <trkpt lat="44.15009" lon="5.32734">
        <ele>1396</ele>
        <time>2020-07-11T09:08:30.596Z</time>
      </trkpt>
      <trkpt lat="44.15015" lon="5.32738">
        <ele>1396</ele>
        <time>2020-07-11T09:08:31.595Z</time>
      </trkpt>
      <trkpt lat="44.15021" lon="5.32741">
        <ele>1395</ele>
        <time>2020-07-11T09:08:32.596Z</time>
      </trkpt>
      <trkpt lat="44.15027" lon="5.32744">
        <ele>1395</ele>
        <time>2020-07-11T09:08:33.596Z</time>
      </trkpt>
      <trkpt lat="44.15033" lon="5.32746">
        <ele>1395</ele>
        <time>2020-07-11T09:08:34.596Z</time>
      </trkpt>
      <trkpt lat="44.15039" lon="5.32748">
        <ele>1395</ele>
        <time>2020-07-11T09:08:35.596Z</time>
      </trkpt>
      <trkpt lat="44.15045" lon="5.3275">
        <ele>1395</ele>
        <time>2020-07-11T09:08:36.596Z</time>
      </trkpt>
      <trkpt lat="44.15052" lon="5.32754">
        <ele>1395</ele>
        <time>2020-07-11T09:08:37.596Z</time>
      </trkpt>
      <trkpt lat="44.15057" lon="5.32756">
        <ele>1395</ele>
        <time>2020-07-11T09:08:38.596Z</time>
      </trkpt>
      <trkpt lat="44.15062" lon="5.32758">
        <ele>1396</ele>
        <time>2020-07-11T09:08:39.596Z</time>
      </trkpt>
      <trkpt lat="44.15068" lon="5.3276">
        <ele>1396</ele>
        <time>2020-07-11T09:08:40.595Z</time>
      </trkpt>
      <trkpt lat="44.15075" lon="5.32763">
        <ele>1396</ele>
        <time>2020-07-11T09:08:41.595Z</time>
      </trkpt>
      <trkpt lat="44.15079" lon="5.32764">
        <ele>1396</ele>
        <time>2020-07-11T09:08:42.596Z</time>
      </trkpt>
      <trkpt lat="44.15085" lon="5.32766">
        <ele>1397</ele>
        <time>2020-07-11T09:08:43.595Z</time>
      </trkpt>
      <trkpt lat="44.15091" lon="5.32769">
        <ele>1397</ele>
        <time>2020-07-11T09:08:44.595Z</time>
      </trkpt>
      <trkpt lat="44.15097" lon="5.32771">
        <ele>1397</ele>
        <time>2020-07-11T09:08:45.595Z</time>
      </trkpt>
      <trkpt lat="44.15103" lon="5.32774">
        <ele>1397</ele>
        <time>2020-07-11T09:08:46.596Z</time>
      </trkpt>
      <trkpt lat="44.15109" lon="5.32776">
        <ele>1397</ele>
        <time>2020-07-11T09:08:47.595Z</time>
      </trkpt>
      <trkpt lat="44.15115" lon="5.32778">
        <ele>1396</ele>
        <time>2020-07-11T09:08:48.596Z</time>
      </trkpt>
      <trkpt lat="44.15121" lon="5.32779">
        <ele>1396</ele>
        <time>2020-07-11T09:08:49.596Z</time>
      </trkpt>
      <trkpt lat="44.15127" lon="5.32781">
        <ele>1395</ele>
        <time>2020-07-11T09:08:50.596Z</time>
      </trkpt>
      <trkpt lat="44.15134" lon="5.32783">
        <ele>1395</ele>
        <time>2020-07-11T09:08:51.596Z</time>
      </trkpt>
      <trkpt lat="44.15141" lon="5.32784">
        <ele>1395</ele>
        <time>2020-07-11T09:08:52.596Z</time>
      </trkpt>
      <trkpt lat="44.15147" lon="5.32785">
        <ele>1395</ele>
        <time>2020-07-11T09:08:53.596Z</time>
      </trkpt>
      <trkpt lat="44.15153" lon="5.32786">
        <ele>1395</ele>
        <time>2020-07-11T09:08:54.596Z</time>
      </trkpt>
      <trkpt lat="44.1516" lon="5.32788">
        <ele>1395</ele>
        <time>2020-07-11T09:08:55.596Z</time>
      </trkpt>
      <trkpt lat="44.15167" lon="5.32789">
        <ele>1396</ele>
        <time>2020-07-11T09:08:56.596Z</time>
      </trkpt>
      <trkpt lat="44.15172" lon="5.3279">
        <ele>1396</ele>
        <time>2020-07-11T09:08:57.596Z</time>
      </trkpt>
      <trkpt lat="44.15179" lon="5.32791">
        <ele>1396</ele>
        <time>2020-07-11T09:08:58.596Z</time>
      </trkpt>
      <trkpt lat="44.15184" lon="5.32791">
        <ele>1397</ele>
        <time>2020-07-11T09:08:59.596Z</time>
      </trkpt>
      <trkpt lat="44.1519" lon="5.32791">
        <ele>1398</ele>
        <time>2020-07-11T09:09:00.595Z</time>
      </trkpt>
      <trkpt lat="44.15196" lon="5.32792">
        <ele>1398</ele>
        <time>2020-07-11T09:09:01.595Z</time>
      </trkpt>
      <trkpt lat="44.15203" lon="5.32792">
        <ele>1398</ele>
        <time>2020-07-11T09:09:02.596Z</time>
      </trkpt>
      <trkpt lat="44.15209" lon="5.32793">
        <ele>1399</ele>
        <time>2020-07-11T09:09:03.595Z</time>
      </trkpt>
      <trkpt lat="44.15217" lon="5.32793">
        <ele>1399</ele>
        <time>2020-07-11T09:09:04.596Z</time>
      </trkpt>
      <trkpt lat="44.15224" lon="5.32795">
        <ele>1399</ele>
        <time>2020-07-11T09:09:05.595Z</time>
      </trkpt>
      <trkpt lat="44.15229" lon="5.32796">
        <ele>1399</ele>
        <time>2020-07-11T09:09:06.596Z</time>
      </trkpt>
      <trkpt lat="44.15237" lon="5.32796">
        <ele>1399</ele>
        <time>2020-07-11T09:09:07.596Z</time>
      </trkpt>
      <trkpt lat="44.15243" lon="5.32796">
        <ele>1399</ele>
        <time>2020-07-11T09:09:08.595Z</time>
      </trkpt>
      <trkpt lat="44.1525" lon="5.32796">
        <ele>1400</ele>
        <time>2020-07-11T09:09:09.595Z</time>
      </trkpt>
      <trkpt lat="44.15256" lon="5.32796">
        <ele>1400</ele>
        <time>2020-07-11T09:09:10.595Z</time>
      </trkpt>
      <trkpt lat="44.15263" lon="5.32796">
        <ele>1401</ele>
        <time>2020-07-11T09:09:11.595Z</time>
      </trkpt>
      <trkpt lat="44.15269" lon="5.32795">
        <ele>1402</ele>
        <time>2020-07-11T09:09:12.596Z</time>
      </trkpt>
      <trkpt lat="44.15276" lon="5.32795">
        <ele>1402</ele>
        <time>2020-07-11T09:09:13.596Z</time>
      </trkpt>
      <trkpt lat="44.15283" lon="5.32795">
        <ele>1402</ele>
        <time>2020-07-11T09:09:14.595Z</time>
      </trkpt>
      <trkpt lat="44.1529" lon="5.32794">
        <ele>1403</ele>
        <time>2020-07-11T09:09:15.596Z</time>
      </trkpt>
      <trkpt lat="44.15296" lon="5.32794">
        <ele>1403</ele>
        <time>2020-07-11T09:09:16.596Z</time>
      </trkpt>
      <trkpt lat="44.15302" lon="5.32794">
        <ele>1403</ele>
        <time>2020-07-11T09:09:17.596Z</time>
      </trkpt>
      <trkpt lat="44.15308" lon="5.32794">
        <ele>1403</ele>
        <time>2020-07-11T09:09:18.596Z</time>
      </trkpt>
      <trkpt lat="44.15316" lon="5.32794">
        <ele>1403</ele>
        <time>2020-07-11T09:09:19.596Z</time>
      </trkpt>
      <trkpt lat="44.15321" lon="5.32794">
        <ele>1403</ele>
        <time>2020-07-11T09:09:20.596Z</time>
      </trkpt>
      <trkpt lat="44.15328" lon="5.32793">
        <ele>1403</ele>
        <time>2020-07-11T09:09:21.595Z</time>
      </trkpt>
      <trkpt lat="44.15333" lon="5.3279">
        <ele>1403</ele>
        <time>2020-07-11T09:09:22.596Z</time>
      </trkpt>
      <trkpt lat="44.15337" lon="5.32783">
        <ele>1403</ele>
        <time>2020-07-11T09:09:23.595Z</time>
      </trkpt>
      <trkpt lat="44.15339" lon="5.32776">
        <ele>1403</ele>
        <time>2020-07-11T09:09:24.596Z</time>
      </trkpt>
      <trkpt lat="44.15338" lon="5.32769">
        <ele>1403</ele>
        <time>2020-07-11T09:09:25.596Z</time>
      </trkpt>
      <trkpt lat="44.15335" lon="5.32763">
        <ele>1403</ele>
        <time>2020-07-11T09:09:26.596Z</time>
      </trkpt>
      <trkpt lat="44.15328" lon="5.32756">
        <ele>1403</ele>
        <time>2020-07-11T09:09:27.595Z</time>
      </trkpt>
      <trkpt lat="44.1532" lon="5.32752">
        <ele>1403</ele>
        <time>2020-07-11T09:09:28.596Z</time>
      </trkpt>
      <trkpt lat="44.15312" lon="5.32748">
        <ele>1404</ele>
        <time>2020-07-11T09:09:29.596Z</time>
      </trkpt>
      <trkpt lat="44.15304" lon="5.32745">
        <ele>1404</ele>
        <time>2020-07-11T09:09:30.596Z</time>
      </trkpt>
      <trkpt lat="44.15297" lon="5.32741">
        <ele>1405</ele>
        <time>2020-07-11T09:09:31.596Z</time>
      </trkpt>
      <trkpt lat="44.1529" lon="5.32737">
        <ele>1405</ele>
        <time>2020-07-11T09:09:32.596Z</time>
      </trkpt>
      <trkpt lat="44.15282" lon="5.32734">
        <ele>1406</ele>
        <time>2020-07-11T09:09:33.596Z</time>
      </trkpt>
      <trkpt lat="44.15273" lon="5.32729">
        <ele>1406</ele>
        <time>2020-07-11T09:09:34.595Z</time>
      </trkpt>
      <trkpt lat="44.15265" lon="5.32725">
        <ele>1407</ele>
        <time>2020-07-11T09:09:35.595Z</time>
      </trkpt>
      <trkpt lat="44.15259" lon="5.32723">
        <ele>1407</ele>
        <time>2020-07-11T09:09:36.596Z</time>
      </trkpt>
      <trkpt lat="44.15251" lon="5.32719">
        <ele>1407</ele>
        <time>2020-07-11T09:09:37.596Z</time>
      </trkpt>
      <trkpt lat="44.15244" lon="5.32715">
        <ele>1407</ele>
        <time>2020-07-11T09:09:38.596Z</time>
      </trkpt>
      <trkpt lat="44.15237" lon="5.32711">
        <ele>1408</ele>
        <time>2020-07-11T09:09:39.596Z</time>
      </trkpt>
      <trkpt lat="44.15229" lon="5.32707">
        <ele>1408</ele>
        <time>2020-07-11T09:09:40.595Z</time>
      </trkpt>
      <trkpt lat="44.15222" lon="5.32703">
        <ele>1408</ele>
        <time>2020-07-11T09:09:41.596Z</time>
      </trkpt>
      <trkpt lat="44.15215" lon="5.32698">
        <ele>1408</ele>
        <time>2020-07-11T09:09:42.595Z</time>
      </trkpt>
      <trkpt lat="44.15206" lon="5.32692">
        <ele>1409</ele>
        <time>2020-07-11T09:09:43.596Z</time>
      </trkpt>
      <trkpt lat="44.15199" lon="5.32688">
        <ele>1409</ele>
        <time>2020-07-11T09:09:44.596Z</time>
      </trkpt>
      <trkpt lat="44.15192" lon="5.32683">
        <ele>1409</ele>
        <time>2020-07-11T09:09:45.596Z</time>
      </trkpt>
      <trkpt lat="44.15187" lon="5.3268">
        <ele>1409</ele>
        <time>2020-07-11T09:09:46.596Z</time>
      </trkpt>
      <trkpt lat="44.15181" lon="5.32675">
        <ele>1409</ele>
        <time>2020-07-11T09:09:47.596Z</time>
      </trkpt>
      <trkpt lat="44.15173" lon="5.3267">
        <ele>1409</ele>
        <time>2020-07-11T09:09:48.596Z</time>
      </trkpt>
      <trkpt lat="44.15167" lon="5.32663">
        <ele>1409</ele>
        <time>2020-07-11T09:09:49.596Z</time>
      </trkpt>
      <trkpt lat="44.15161" lon="5.32656">
        <ele>1409</ele>
        <time>2020-07-11T09:09:50.595Z</time>
      </trkpt>
      <trkpt lat="44.15156" lon="5.32648">
        <ele>1409</ele>
        <time>2020-07-11T09:09:51.595Z</time>
      </trkpt>
      <trkpt lat="44.15152" lon="5.32641">
        <ele>1409</ele>
        <time>2020-07-11T09:09:52.596Z</time>
      </trkpt>
      <trkpt lat="44.15147" lon="5.32634">
        <ele>1409</ele>
        <time>2020-07-11T09:09:53.596Z</time>
      </trkpt>
      <trkpt lat="44.15142" lon="5.32627">
        <ele>1409</ele>
        <time>2020-07-11T09:09:54.596Z</time>
      </trkpt>
      <trkpt lat="44.15137" lon="5.32622">
        <ele>1409</ele>
        <time>2020-07-11T09:09:55.595Z</time>
      </trkpt>
      <trkpt lat="44.15132" lon="5.32614">
        <ele>1409</ele>
        <time>2020-07-11T09:09:56.596Z</time>
      </trkpt>
      <trkpt lat="44.15128" lon="5.32609">
        <ele>1409</ele>
        <time>2020-07-11T09:09:57.596Z</time>
      </trkpt>
      <trkpt lat="44.15122" lon="5.32599">
        <ele>1410</ele>
        <time>2020-07-11T09:09:58.596Z</time>
      </trkpt>
      <trkpt lat="44.15118" lon="5.32592">
        <ele>1410</ele>
        <time>2020-07-11T09:09:59.596Z</time>
      </trkpt>
      <trkpt lat="44.15113" lon="5.32584">
        <ele>1410</ele>
        <time>2020-07-11T09:10:00.596Z</time>
      </trkpt>
      <trkpt lat="44.15108" lon="5.32575">
        <ele>1410</ele>
        <time>2020-07-11T09:10:01.596Z</time>
      </trkpt>
      <trkpt lat="44.15104" lon="5.32567">
        <ele>1410</ele>
        <time>2020-07-11T09:10:02.596Z</time>
      </trkpt>
      <trkpt lat="44.15099" lon="5.32558">
        <ele>1410</ele>
        <time>2020-07-11T09:10:03.596Z</time>
      </trkpt>
      <trkpt lat="44.15095" lon="5.3255">
        <ele>1410</ele>
        <time>2020-07-11T09:10:04.596Z</time>
      </trkpt>
      <trkpt lat="44.1509" lon="5.32542">
        <ele>1410</ele>
        <time>2020-07-11T09:10:05.596Z</time>
      </trkpt>
      <trkpt lat="44.15084" lon="5.32535">
        <ele>1409</ele>
        <time>2020-07-11T09:10:06.596Z</time>
      </trkpt>
      <trkpt lat="44.15079" lon="5.32528">
        <ele>1409</ele>
        <time>2020-07-11T09:10:07.596Z</time>
      </trkpt>
      <trkpt lat="44.15073" lon="5.32522">
        <ele>1409</ele>
        <time>2020-07-11T09:10:08.596Z</time>
      </trkpt>
      <trkpt lat="44.15068" lon="5.32515">
        <ele>1408</ele>
        <time>2020-07-11T09:10:09.595Z</time>
      </trkpt>
      <trkpt lat="44.15062" lon="5.32508">
        <ele>1408</ele>
        <time>2020-07-11T09:10:10.595Z</time>
      </trkpt>
      <trkpt lat="44.15056" lon="5.32501">
        <ele>1408</ele>
        <time>2020-07-11T09:10:11.595Z</time>
      </trkpt>
      <trkpt lat="44.1505" lon="5.32494">
        <ele>1408</ele>
        <time>2020-07-11T09:10:12.596Z</time>
      </trkpt>
      <trkpt lat="44.15044" lon="5.32487">
        <ele>1408</ele>
        <time>2020-07-11T09:10:13.596Z</time>
      </trkpt>
      <trkpt lat="44.15038" lon="5.3248">
        <ele>1407</ele>
        <time>2020-07-11T09:10:14.596Z</time>
      </trkpt>
      <trkpt lat="44.15032" lon="5.32472">
        <ele>1407</ele>
        <time>2020-07-11T09:10:15.596Z</time>
      </trkpt>
      <trkpt lat="44.15027" lon="5.32467">
        <ele>1406</ele>
        <time>2020-07-11T09:10:16.596Z</time>
      </trkpt>
      <trkpt lat="44.15021" lon="5.32461">
        <ele>1406</ele>
        <time>2020-07-11T09:10:17.595Z</time>
      </trkpt>
      <trkpt lat="44.15014" lon="5.32454">
        <ele>1406</ele>
        <time>2020-07-11T09:10:18.595Z</time>
      </trkpt>
      <trkpt lat="44.15006" lon="5.32447">
        <ele>1405</ele>
        <time>2020-07-11T09:10:19.596Z</time>
      </trkpt>
      <trkpt lat="44.15001" lon="5.32443">
        <ele>1405</ele>
        <time>2020-07-11T09:10:20.595Z</time>
      </trkpt>
      <trkpt lat="44.14994" lon="5.32438">
        <ele>1406</ele>
        <time>2020-07-11T09:10:21.596Z</time>
      </trkpt>
      <trkpt lat="44.14987" lon="5.32433">
        <ele>1406</ele>
        <time>2020-07-11T09:10:22.596Z</time>
      </trkpt>
      <trkpt lat="44.1498" lon="5.32427">
        <ele>1406</ele>
        <time>2020-07-11T09:10:23.595Z</time>
      </trkpt>
      <trkpt lat="44.14973" lon="5.32422">
        <ele>1406</ele>
        <time>2020-07-11T09:10:24.596Z</time>
      </trkpt>
      <trkpt lat="44.14966" lon="5.32417">
        <ele>1406</ele>
        <time>2020-07-11T09:10:25.596Z</time>
      </trkpt>
      <trkpt lat="44.1496" lon="5.32411">
        <ele>1406</ele>
        <time>2020-07-11T09:10:26.596Z</time>
      </trkpt>
      <trkpt lat="44.14953" lon="5.32406">
        <ele>1406</ele>
        <time>2020-07-11T09:10:27.596Z</time>
      </trkpt>
      <trkpt lat="44.14947" lon="5.324">
        <ele>1406</ele>
        <time>2020-07-11T09:10:28.596Z</time>
      </trkpt>
      <trkpt lat="44.1494" lon="5.32394">
        <ele>1406</ele>
        <time>2020-07-11T09:10:29.596Z</time>
      </trkpt>
      <trkpt lat="44.14934" lon="5.32388">
        <ele>1406</ele>
        <time>2020-07-11T09:10:30.595Z</time>
      </trkpt>
      <trkpt lat="44.14927" lon="5.32382">
        <ele>1407</ele>
        <time>2020-07-11T09:10:31.596Z</time>
      </trkpt>
      <trkpt lat="44.1492" lon="5.32378">
        <ele>1407</ele>
        <time>2020-07-11T09:10:32.596Z</time>
      </trkpt>
      <trkpt lat="44.14913" lon="5.32373">
        <ele>1407</ele>
        <time>2020-07-11T09:10:33.595Z</time>
      </trkpt>
      <trkpt lat="44.14905" lon="5.32369">
        <ele>1407</ele>
        <time>2020-07-11T09:10:34.596Z</time>
      </trkpt>
      <trkpt lat="44.14898" lon="5.32365">
        <ele>1407</ele>
        <time>2020-07-11T09:10:35.596Z</time>
      </trkpt>
      <trkpt lat="44.14891" lon="5.32361">
        <ele>1407</ele>
        <time>2020-07-11T09:10:36.596Z</time>
      </trkpt>
      <trkpt lat="44.14884" lon="5.32356">
        <ele>1407</ele>
        <time>2020-07-11T09:10:37.596Z</time>
      </trkpt>
      <trkpt lat="44.14877" lon="5.32352">
        <ele>1407</ele>
        <time>2020-07-11T09:10:38.596Z</time>
      </trkpt>
      <trkpt lat="44.1487" lon="5.32347">
        <ele>1407</ele>
        <time>2020-07-11T09:10:39.596Z</time>
      </trkpt>
      <trkpt lat="44.14863" lon="5.32342">
        <ele>1407</ele>
        <time>2020-07-11T09:10:40.596Z</time>
      </trkpt>
      <trkpt lat="44.14857" lon="5.32336">
        <ele>1407</ele>
        <time>2020-07-11T09:10:41.596Z</time>
      </trkpt>
      <trkpt lat="44.14852" lon="5.3233">
        <ele>1407</ele>
        <time>2020-07-11T09:10:42.596Z</time>
      </trkpt>
      <trkpt lat="44.14847" lon="5.32323">
        <ele>1408</ele>
        <time>2020-07-11T09:10:43.596Z</time>
      </trkpt>
      <trkpt lat="44.14842" lon="5.32315">
        <ele>1408</ele>
        <time>2020-07-11T09:10:44.596Z</time>
      </trkpt>
      <trkpt lat="44.14839" lon="5.32308">
        <ele>1408</ele>
        <time>2020-07-11T09:10:45.595Z</time>
      </trkpt>
      <trkpt lat="44.14835" lon="5.32299">
        <ele>1409</ele>
        <time>2020-07-11T09:10:46.596Z</time>
      </trkpt>
      <trkpt lat="44.14832" lon="5.32291">
        <ele>1409</ele>
        <time>2020-07-11T09:10:47.595Z</time>
      </trkpt>
      <trkpt lat="44.1483" lon="5.32282">
        <ele>1409</ele>
        <time>2020-07-11T09:10:48.596Z</time>
      </trkpt>
      <trkpt lat="44.14828" lon="5.32273">
        <ele>1410</ele>
        <time>2020-07-11T09:10:49.596Z</time>
      </trkpt>
      <trkpt lat="44.14827" lon="5.32263">
        <ele>1410</ele>
        <time>2020-07-11T09:10:50.596Z</time>
      </trkpt>
      <trkpt lat="44.14826" lon="5.32254">
        <ele>1410</ele>
        <time>2020-07-11T09:10:51.595Z</time>
      </trkpt>
      <trkpt lat="44.14826" lon="5.32244">
        <ele>1410</ele>
        <time>2020-07-11T09:10:52.595Z</time>
      </trkpt>
      <trkpt lat="44.14827" lon="5.32235">
        <ele>1410</ele>
        <time>2020-07-11T09:10:53.596Z</time>
      </trkpt>
      <trkpt lat="44.14828" lon="5.32225">
        <ele>1411</ele>
        <time>2020-07-11T09:10:54.595Z</time>
      </trkpt>
      <trkpt lat="44.1483" lon="5.32216">
        <ele>1411</ele>
        <time>2020-07-11T09:10:55.596Z</time>
      </trkpt>
      <trkpt lat="44.14833" lon="5.32207">
        <ele>1411</ele>
        <time>2020-07-11T09:10:56.596Z</time>
      </trkpt>
      <trkpt lat="44.14836" lon="5.32198">
        <ele>1411</ele>
        <time>2020-07-11T09:10:57.596Z</time>
      </trkpt>
      <trkpt lat="44.1484" lon="5.32189">
        <ele>1411</ele>
        <time>2020-07-11T09:10:58.596Z</time>
      </trkpt>
      <trkpt lat="44.14844" lon="5.32181">
        <ele>1412</ele>
        <time>2020-07-11T09:10:59.596Z</time>
      </trkpt>
      <trkpt lat="44.14847" lon="5.32173">
        <ele>1412</ele>
        <time>2020-07-11T09:11:00.596Z</time>
      </trkpt>
      <trkpt lat="44.14852" lon="5.32164">
        <ele>1413</ele>
        <time>2020-07-11T09:11:01.596Z</time>
      </trkpt>
      <trkpt lat="44.14856" lon="5.32155">
        <ele>1413</ele>
        <time>2020-07-11T09:11:02.596Z</time>
      </trkpt>
      <trkpt lat="44.1486" lon="5.32147">
        <ele>1413</ele>
        <time>2020-07-11T09:11:03.595Z</time>
      </trkpt>
      <trkpt lat="44.14864" lon="5.32138">
        <ele>1413</ele>
        <time>2020-07-11T09:11:04.596Z</time>
      </trkpt>
      <trkpt lat="44.14868" lon="5.3213">
        <ele>1413</ele>
        <time>2020-07-11T09:11:05.596Z</time>
      </trkpt>
      <trkpt lat="44.14872" lon="5.32121">
        <ele>1413</ele>
        <time>2020-07-11T09:11:06.595Z</time>
      </trkpt>
      <trkpt lat="44.14875" lon="5.32112">
        <ele>1413</ele>
        <time>2020-07-11T09:11:07.595Z</time>
      </trkpt>
      <trkpt lat="44.14878" lon="5.32103">
        <ele>1413</ele>
        <time>2020-07-11T09:11:08.596Z</time>
      </trkpt>
      <trkpt lat="44.14881" lon="5.32094">
        <ele>1413</ele>
        <time>2020-07-11T09:11:09.596Z</time>
      </trkpt>
      <trkpt lat="44.14884" lon="5.32085">
        <ele>1413</ele>
        <time>2020-07-11T09:11:10.596Z</time>
      </trkpt>
      <trkpt lat="44.14886" lon="5.32076">
        <ele>1412</ele>
        <time>2020-07-11T09:11:11.596Z</time>
      </trkpt>
      <trkpt lat="44.14889" lon="5.32067">
        <ele>1412</ele>
        <time>2020-07-11T09:11:12.596Z</time>
      </trkpt>
      <trkpt lat="44.14891" lon="5.32058">
        <ele>1413</ele>
        <time>2020-07-11T09:11:13.596Z</time>
      </trkpt>
      <trkpt lat="44.14893" lon="5.32048">
        <ele>1413</ele>
        <time>2020-07-11T09:11:14.595Z</time>
      </trkpt>
      <trkpt lat="44.14894" lon="5.32038">
        <ele>1413</ele>
        <time>2020-07-11T09:11:15.596Z</time>
      </trkpt>
      <trkpt lat="44.14896" lon="5.32029">
        <ele>1414</ele>
        <time>2020-07-11T09:11:16.596Z</time>
      </trkpt>
      <trkpt lat="44.14897" lon="5.3202">
        <ele>1414</ele>
        <time>2020-07-11T09:11:17.596Z</time>
      </trkpt>
      <trkpt lat="44.14898" lon="5.3201">
        <ele>1414</ele>
        <time>2020-07-11T09:11:18.595Z</time>
      </trkpt>
      <trkpt lat="44.14898" lon="5.32">
        <ele>1414</ele>
        <time>2020-07-11T09:11:19.595Z</time>
      </trkpt>
      <trkpt lat="44.14898" lon="5.3199">
        <ele>1414</ele>
        <time>2020-07-11T09:11:20.596Z</time>
      </trkpt>
      <trkpt lat="44.14898" lon="5.3198">
        <ele>1413</ele>
        <time>2020-07-11T09:11:21.595Z</time>
      </trkpt>
      <trkpt lat="44.14898" lon="5.3197">
        <ele>1413</ele>
        <time>2020-07-11T09:11:22.595Z</time>
      </trkpt>
      <trkpt lat="44.14898" lon="5.3196">
        <ele>1413</ele>
        <time>2020-07-11T09:11:23.596Z</time>
      </trkpt>
      <trkpt lat="44.14898" lon="5.3195">
        <ele>1414</ele>
        <time>2020-07-11T09:11:24.596Z</time>
      </trkpt>
      <trkpt lat="44.14898" lon="5.3194">
        <ele>1414</ele>
        <time>2020-07-11T09:11:25.596Z</time>
      </trkpt>
      <trkpt lat="44.14898" lon="5.3193">
        <ele>1414</ele>
        <time>2020-07-11T09:11:26.596Z</time>
      </trkpt>
      <trkpt lat="44.14897" lon="5.31919">
        <ele>1414</ele>
        <time>2020-07-11T09:11:27.596Z</time>
      </trkpt>
      <trkpt lat="44.14897" lon="5.31909">
        <ele>1415</ele>
        <time>2020-07-11T09:11:28.595Z</time>
      </trkpt>
      <trkpt lat="44.14897" lon="5.31899">
        <ele>1415</ele>
        <time>2020-07-11T09:11:29.596Z</time>
      </trkpt>
      <trkpt lat="44.14897" lon="5.31889">
        <ele>1415</ele>
        <time>2020-07-11T09:11:30.595Z</time>
      </trkpt>
      <trkpt lat="44.14898" lon="5.31879">
        <ele>1415</ele>
        <time>2020-07-11T09:11:31.596Z</time>
      </trkpt>
      <trkpt lat="44.14898" lon="5.3187">
        <ele>1415</ele>
        <time>2020-07-11T09:11:32.596Z</time>
      </trkpt>
      <trkpt lat="44.14899" lon="5.3186">
        <ele>1416</ele>
        <time>2020-07-11T09:11:33.596Z</time>
      </trkpt>
      <trkpt lat="44.149" lon="5.31851">
        <ele>1416</ele>
        <time>2020-07-11T09:11:34.595Z</time>
      </trkpt>
      <trkpt lat="44.14902" lon="5.31842">
        <ele>1416</ele>
        <time>2020-07-11T09:11:35.596Z</time>
      </trkpt>
      <trkpt lat="44.14904" lon="5.31832">
        <ele>1416</ele>
        <time>2020-07-11T09:11:36.596Z</time>
      </trkpt>
      <trkpt lat="44.14906" lon="5.31823">
        <ele>1417</ele>
        <time>2020-07-11T09:11:37.596Z</time>
      </trkpt>
      <trkpt lat="44.14909" lon="5.31814">
        <ele>1416</ele>
        <time>2020-07-11T09:11:38.595Z</time>
      </trkpt>
      <trkpt lat="44.14911" lon="5.31805">
        <ele>1416</ele>
        <time>2020-07-11T09:11:39.596Z</time>
      </trkpt>
      <trkpt lat="44.14914" lon="5.31796">
        <ele>1416</ele>
        <time>2020-07-11T09:11:40.595Z</time>
      </trkpt>
      <trkpt lat="44.14918" lon="5.31787">
        <ele>1416</ele>
        <time>2020-07-11T09:11:41.595Z</time>
      </trkpt>
      <trkpt lat="44.14923" lon="5.31779">
        <ele>1416</ele>
        <time>2020-07-11T09:11:42.595Z</time>
      </trkpt>
      <trkpt lat="44.14928" lon="5.31771">
        <ele>1416</ele>
        <time>2020-07-11T09:11:43.596Z</time>
      </trkpt>
      <trkpt lat="44.14933" lon="5.31766">
        <ele>1416</ele>
        <time>2020-07-11T09:11:44.595Z</time>
      </trkpt>
      <trkpt lat="44.1494" lon="5.31763">
        <ele>1416</ele>
        <time>2020-07-11T09:11:45.595Z</time>
      </trkpt>
      <trkpt lat="44.14947" lon="5.31763">
        <ele>1415</ele>
        <time>2020-07-11T09:11:46.596Z</time>
      </trkpt>
      <trkpt lat="44.14954" lon="5.31764">
        <ele>1415</ele>
        <time>2020-07-11T09:11:47.596Z</time>
      </trkpt>
      <trkpt lat="44.14961" lon="5.31767">
        <ele>1415</ele>
        <time>2020-07-11T09:11:48.596Z</time>
      </trkpt>
      <trkpt lat="44.14968" lon="5.3177">
        <ele>1415</ele>
        <time>2020-07-11T09:11:49.595Z</time>
      </trkpt>
      <trkpt lat="44.14974" lon="5.31773">
        <ele>1415</ele>
        <time>2020-07-11T09:11:50.596Z</time>
      </trkpt>
      <trkpt lat="44.14981" lon="5.31778">
        <ele>1416</ele>
        <time>2020-07-11T09:11:51.596Z</time>
      </trkpt>
      <trkpt lat="44.14988" lon="5.31781">
        <ele>1416</ele>
        <time>2020-07-11T09:11:52.596Z</time>
      </trkpt>
      <trkpt lat="44.14994" lon="5.31785">
        <ele>1416</ele>
        <time>2020-07-11T09:11:53.595Z</time>
      </trkpt>
      <trkpt lat="44.15001" lon="5.31787">
        <ele>1416</ele>
        <time>2020-07-11T09:11:54.595Z</time>
      </trkpt>
      <trkpt lat="44.15007" lon="5.3179">
        <ele>1416</ele>
        <time>2020-07-11T09:11:55.596Z</time>
      </trkpt>
      <trkpt lat="44.15013" lon="5.31791">
        <ele>1417</ele>
        <time>2020-07-11T09:11:56.595Z</time>
      </trkpt>
      <trkpt lat="44.15019" lon="5.31793">
        <ele>1417</ele>
        <time>2020-07-11T09:11:57.595Z</time>
      </trkpt>
      <trkpt lat="44.15026" lon="5.31796">
        <ele>1417</ele>
        <time>2020-07-11T09:11:58.596Z</time>
      </trkpt>
      <trkpt lat="44.15032" lon="5.31798">
        <ele>1417</ele>
        <time>2020-07-11T09:11:59.596Z</time>
      </trkpt>
      <trkpt lat="44.15038" lon="5.318">
        <ele>1417</ele>
        <time>2020-07-11T09:12:00.596Z</time>
      </trkpt>
      <trkpt lat="44.15044" lon="5.31803">
        <ele>1417</ele>
        <time>2020-07-11T09:12:01.595Z</time>
      </trkpt>
      <trkpt lat="44.1505" lon="5.31804">
        <ele>1417</ele>
        <time>2020-07-11T09:12:02.596Z</time>
      </trkpt>
      <trkpt lat="44.15056" lon="5.31806">
        <ele>1417</ele>
        <time>2020-07-11T09:12:03.596Z</time>
      </trkpt>
      <trkpt lat="44.15062" lon="5.31808">
        <ele>1417</ele>
        <time>2020-07-11T09:12:04.596Z</time>
      </trkpt>
      <trkpt lat="44.15068" lon="5.3181">
        <ele>1418</ele>
        <time>2020-07-11T09:12:05.596Z</time>
      </trkpt>
      <trkpt lat="44.15074" lon="5.31812">
        <ele>1418</ele>
        <time>2020-07-11T09:12:06.596Z</time>
      </trkpt>
      <trkpt lat="44.1508" lon="5.31815">
        <ele>1418</ele>
        <time>2020-07-11T09:12:07.596Z</time>
      </trkpt>
      <trkpt lat="44.15086" lon="5.31818">
        <ele>1418</ele>
        <time>2020-07-11T09:12:08.596Z</time>
      </trkpt>
      <trkpt lat="44.15092" lon="5.31821">
        <ele>1418</ele>
        <time>2020-07-11T09:12:09.596Z</time>
      </trkpt>
      <trkpt lat="44.15097" lon="5.31825">
        <ele>1418</ele>
        <time>2020-07-11T09:12:10.596Z</time>
      </trkpt>
      <trkpt lat="44.15102" lon="5.31828">
        <ele>1418</ele>
        <time>2020-07-11T09:12:11.596Z</time>
      </trkpt>
      <trkpt lat="44.15107" lon="5.31832">
        <ele>1418</ele>
        <time>2020-07-11T09:12:12.596Z</time>
      </trkpt>
      <trkpt lat="44.15112" lon="5.31835">
        <ele>1418</ele>
        <time>2020-07-11T09:12:13.595Z</time>
      </trkpt>
      <trkpt lat="44.15117" lon="5.31839">
        <ele>1419</ele>
        <time>2020-07-11T09:12:14.595Z</time>
      </trkpt>
      <trkpt lat="44.15122" lon="5.31843">
        <ele>1419</ele>
        <time>2020-07-11T09:12:15.595Z</time>
      </trkpt>
      <trkpt lat="44.15128" lon="5.31847">
        <ele>1418</ele>
        <time>2020-07-11T09:12:16.596Z</time>
      </trkpt>
      <trkpt lat="44.15132" lon="5.31851">
        <ele>1418</ele>
        <time>2020-07-11T09:12:17.596Z</time>
      </trkpt>
      <trkpt lat="44.15137" lon="5.31855">
        <ele>1417</ele>
        <time>2020-07-11T09:12:18.596Z</time>
      </trkpt>
      <trkpt lat="44.15142" lon="5.31859">
        <ele>1417</ele>
        <time>2020-07-11T09:12:19.596Z</time>
      </trkpt>
      <trkpt lat="44.15145" lon="5.31862">
        <ele>1417</ele>
        <time>2020-07-11T09:12:20.596Z</time>
      </trkpt>
      <trkpt lat="44.1515" lon="5.31866">
        <ele>1416</ele>
        <time>2020-07-11T09:12:21.596Z</time>
      </trkpt>
      <trkpt lat="44.15155" lon="5.31871">
        <ele>1416</ele>
        <time>2020-07-11T09:12:22.595Z</time>
      </trkpt>
      <trkpt lat="44.1516" lon="5.31875">
        <ele>1416</ele>
        <time>2020-07-11T09:12:23.595Z</time>
      </trkpt>
      <trkpt lat="44.15165" lon="5.31879">
        <ele>1416</ele>
        <time>2020-07-11T09:12:24.595Z</time>
      </trkpt>
      <trkpt lat="44.1517" lon="5.31883">
        <ele>1416</ele>
        <time>2020-07-11T09:12:25.595Z</time>
      </trkpt>
      <trkpt lat="44.15175" lon="5.31887">
        <ele>1417</ele>
        <time>2020-07-11T09:12:26.596Z</time>
      </trkpt>
      <trkpt lat="44.1518" lon="5.31891">
        <ele>1417</ele>
        <time>2020-07-11T09:12:27.595Z</time>
      </trkpt>
      <trkpt lat="44.15184" lon="5.31893">
        <ele>1417</ele>
        <time>2020-07-11T09:12:28.595Z</time>
      </trkpt>
      <trkpt lat="44.15189" lon="5.31896">
        <ele>1417</ele>
        <time>2020-07-11T09:12:29.596Z</time>
      </trkpt>
      <trkpt lat="44.15194" lon="5.31898">
        <ele>1417</ele>
        <time>2020-07-11T09:12:30.596Z</time>
      </trkpt>
      <trkpt lat="44.15199" lon="5.31898">
        <ele>1417</ele>
        <time>2020-07-11T09:12:31.596Z</time>
      </trkpt>
      <trkpt lat="44.15203" lon="5.31897">
        <ele>1417</ele>
        <time>2020-07-11T09:12:32.595Z</time>
      </trkpt>
      <trkpt lat="44.15207" lon="5.31895">
        <ele>1417</ele>
        <time>2020-07-11T09:12:33.595Z</time>
      </trkpt>
      <trkpt lat="44.15212" lon="5.31892">
        <ele>1417</ele>
        <time>2020-07-11T09:12:34.596Z</time>
      </trkpt>
      <trkpt lat="44.15217" lon="5.31887">
        <ele>1416</ele>
        <time>2020-07-11T09:12:35.596Z</time>
      </trkpt>
      <trkpt lat="44.15221" lon="5.31883">
        <ele>1416</ele>
        <time>2020-07-11T09:12:36.595Z</time>
      </trkpt>
      <trkpt lat="44.15224" lon="5.31878">
        <ele>1416</ele>
        <time>2020-07-11T09:12:37.596Z</time>
      </trkpt>
      <trkpt lat="44.15227" lon="5.31871">
        <ele>1416</ele>
        <time>2020-07-11T09:12:38.596Z</time>
      </trkpt>
      <trkpt lat="44.15229" lon="5.31865">
        <ele>1416</ele>
        <time>2020-07-11T09:12:39.596Z</time>
      </trkpt>
      <trkpt lat="44.1523" lon="5.31859">
        <ele>1416</ele>
        <time>2020-07-11T09:12:40.595Z</time>
      </trkpt>
      <trkpt lat="44.1523" lon="5.31853">
        <ele>1416</ele>
        <time>2020-07-11T09:12:41.595Z</time>
      </trkpt>
      <trkpt lat="44.15229" lon="5.31846">
        <ele>1416</ele>
        <time>2020-07-11T09:12:42.596Z</time>
      </trkpt>
      <trkpt lat="44.15227" lon="5.3184">
        <ele>1416</ele>
        <time>2020-07-11T09:12:43.596Z</time>
      </trkpt>
      <trkpt lat="44.15226" lon="5.31834">
        <ele>1416</ele>
        <time>2020-07-11T09:12:44.595Z</time>
      </trkpt>
      <trkpt lat="44.15224" lon="5.31829">
        <ele>1417</ele>
        <time>2020-07-11T09:12:45.596Z</time>
      </trkpt>
      <trkpt lat="44.15222" lon="5.31822">
        <ele>1417</ele>
        <time>2020-07-11T09:12:46.596Z</time>
      </trkpt>
      <trkpt lat="44.1522" lon="5.31817">
        <ele>1417</ele>
        <time>2020-07-11T09:12:47.596Z</time>
      </trkpt>
      <trkpt lat="44.15218" lon="5.31811">
        <ele>1418</ele>
        <time>2020-07-11T09:12:48.596Z</time>
      </trkpt>
      <trkpt lat="44.15216" lon="5.31805">
        <ele>1418</ele>
        <time>2020-07-11T09:12:49.596Z</time>
      </trkpt>
      <trkpt lat="44.15214" lon="5.318">
        <ele>1419</ele>
        <time>2020-07-11T09:12:50.595Z</time>
      </trkpt>
      <trkpt lat="44.15213" lon="5.31794">
        <ele>1419</ele>
        <time>2020-07-11T09:12:51.596Z</time>
      </trkpt>
      <trkpt lat="44.15211" lon="5.31789">
        <ele>1419</ele>
        <time>2020-07-11T09:12:52.596Z</time>
      </trkpt>
      <trkpt lat="44.15209" lon="5.31784">
        <ele>1420</ele>
        <time>2020-07-11T09:12:53.595Z</time>
      </trkpt>
      <trkpt lat="44.15208" lon="5.31778">
        <ele>1420</ele>
        <time>2020-07-11T09:12:54.595Z</time>
      </trkpt>
      <trkpt lat="44.15207" lon="5.31773">
        <ele>1421</ele>
        <time>2020-07-11T09:12:55.595Z</time>
      </trkpt>
      <trkpt lat="44.15206" lon="5.31768">
        <ele>1421</ele>
        <time>2020-07-11T09:12:56.596Z</time>
      </trkpt>
      <trkpt lat="44.15205" lon="5.31762">
        <ele>1421</ele>
        <time>2020-07-11T09:12:57.596Z</time>
      </trkpt>
      <trkpt lat="44.15203" lon="5.31757">
        <ele>1422</ele>
        <time>2020-07-11T09:12:58.595Z</time>
      </trkpt>
      <trkpt lat="44.15202" lon="5.31751">
        <ele>1422</ele>
        <time>2020-07-11T09:12:59.596Z</time>
      </trkpt>
      <trkpt lat="44.152" lon="5.31746">
        <ele>1422</ele>
        <time>2020-07-11T09:13:00.596Z</time>
      </trkpt>
      <trkpt lat="44.15198" lon="5.31742">
        <ele>1423</ele>
        <time>2020-07-11T09:13:01.596Z</time>
      </trkpt>
      <trkpt lat="44.15197" lon="5.31737">
        <ele>1423</ele>
        <time>2020-07-11T09:13:02.595Z</time>
      </trkpt>
      <trkpt lat="44.15195" lon="5.31732">
        <ele>1424</ele>
        <time>2020-07-11T09:13:03.596Z</time>
      </trkpt>
      <trkpt lat="44.15193" lon="5.31726">
        <ele>1425</ele>
        <time>2020-07-11T09:13:04.596Z</time>
      </trkpt>
      <trkpt lat="44.15191" lon="5.31722">
        <ele>1425</ele>
        <time>2020-07-11T09:13:05.596Z</time>
      </trkpt>
      <trkpt lat="44.15189" lon="5.31717">
        <ele>1426</ele>
        <time>2020-07-11T09:13:06.595Z</time>
      </trkpt>
      <trkpt lat="44.15187" lon="5.31712">
        <ele>1426</ele>
        <time>2020-07-11T09:13:07.595Z</time>
      </trkpt>
      <trkpt lat="44.15186" lon="5.31708">
        <ele>1426</ele>
        <time>2020-07-11T09:13:08.595Z</time>
      </trkpt>
      <trkpt lat="44.15183" lon="5.31702">
        <ele>1427</ele>
        <time>2020-07-11T09:13:09.596Z</time>
      </trkpt>
      <trkpt lat="44.15181" lon="5.31698">
        <ele>1427</ele>
        <time>2020-07-11T09:13:10.595Z</time>
      </trkpt>
      <trkpt lat="44.1518" lon="5.31694">
        <ele>1427</ele>
        <time>2020-07-11T09:13:11.596Z</time>
      </trkpt>
      <trkpt lat="44.15178" lon="5.3169">
        <ele>1427</ele>
        <time>2020-07-11T09:13:12.596Z</time>
      </trkpt>
      <trkpt lat="44.15176" lon="5.31686">
        <ele>1427</ele>
        <time>2020-07-11T09:13:13.595Z</time>
      </trkpt>
      <trkpt lat="44.15175" lon="5.31682">
        <ele>1428</ele>
        <time>2020-07-11T09:13:14.596Z</time>
      </trkpt>
      <trkpt lat="44.15173" lon="5.31678">
        <ele>1428</ele>
        <time>2020-07-11T09:13:15.596Z</time>
      </trkpt>
      <trkpt lat="44.15172" lon="5.31673">
        <ele>1429</ele>
        <time>2020-07-11T09:13:16.595Z</time>
      </trkpt>
      <trkpt lat="44.15169" lon="5.31668">
        <ele>1429</ele>
        <time>2020-07-11T09:13:17.596Z</time>
      </trkpt>
      <trkpt lat="44.15167" lon="5.31664">
        <ele>1429</ele>
        <time>2020-07-11T09:13:18.595Z</time>
      </trkpt>
      <trkpt lat="44.15166" lon="5.31661">
        <ele>1430</ele>
        <time>2020-07-11T09:13:19.596Z</time>
      </trkpt>
      <trkpt lat="44.15164" lon="5.31656">
        <ele>1430</ele>
        <time>2020-07-11T09:13:20.595Z</time>
      </trkpt>
      <trkpt lat="44.15162" lon="5.31652">
        <ele>1431</ele>
        <time>2020-07-11T09:13:21.595Z</time>
      </trkpt>
      <trkpt lat="44.15161" lon="5.31647">
        <ele>1431</ele>
        <time>2020-07-11T09:13:22.596Z</time>
      </trkpt>
      <trkpt lat="44.15159" lon="5.31642">
        <ele>1431</ele>
        <time>2020-07-11T09:13:23.595Z</time>
      </trkpt>
      <trkpt lat="44.15156" lon="5.31638">
        <ele>1431</ele>
        <time>2020-07-11T09:13:24.596Z</time>
      </trkpt>
      <trkpt lat="44.15155" lon="5.31633">
        <ele>1431</ele>
        <time>2020-07-11T09:13:25.596Z</time>
      </trkpt>
      <trkpt lat="44.15153" lon="5.31628">
        <ele>1431</ele>
        <time>2020-07-11T09:13:26.596Z</time>
      </trkpt>
      <trkpt lat="44.15152" lon="5.31624">
        <ele>1431</ele>
        <time>2020-07-11T09:13:27.595Z</time>
      </trkpt>
      <trkpt lat="44.1515" lon="5.31618">
        <ele>1431</ele>
        <time>2020-07-11T09:13:28.595Z</time>
      </trkpt>
      <trkpt lat="44.15149" lon="5.31614">
        <ele>1431</ele>
        <time>2020-07-11T09:13:29.596Z</time>
      </trkpt>
      <trkpt lat="44.15147" lon="5.3161">
        <ele>1431</ele>
        <time>2020-07-11T09:13:30.596Z</time>
      </trkpt>
      <trkpt lat="44.15146" lon="5.31605">
        <ele>1432</ele>
        <time>2020-07-11T09:13:31.596Z</time>
      </trkpt>
      <trkpt lat="44.15145" lon="5.31601">
        <ele>1432</ele>
        <time>2020-07-11T09:13:32.596Z</time>
      </trkpt>
      <trkpt lat="44.15144" lon="5.31596">
        <ele>1433</ele>
        <time>2020-07-11T09:13:33.596Z</time>
      </trkpt>
      <trkpt lat="44.15143" lon="5.31592">
        <ele>1433</ele>
        <time>2020-07-11T09:13:34.595Z</time>
      </trkpt>
      <trkpt lat="44.15142" lon="5.31587">
        <ele>1434</ele>
        <time>2020-07-11T09:13:35.596Z</time>
      </trkpt>
      <trkpt lat="44.15141" lon="5.31583">
        <ele>1434</ele>
        <time>2020-07-11T09:13:36.596Z</time>
      </trkpt>
      <trkpt lat="44.1514" lon="5.31578">
        <ele>1435</ele>
        <time>2020-07-11T09:13:37.596Z</time>
      </trkpt>
      <trkpt lat="44.15139" lon="5.31574">
        <ele>1436</ele>
        <time>2020-07-11T09:13:38.595Z</time>
      </trkpt>
      <trkpt lat="44.15138" lon="5.31569">
        <ele>1436</ele>
        <time>2020-07-11T09:13:39.596Z</time>
      </trkpt>
      <trkpt lat="44.15136" lon="5.31565">
        <ele>1436</ele>
        <time>2020-07-11T09:13:40.596Z</time>
      </trkpt>
      <trkpt lat="44.15135" lon="5.31561">
        <ele>1437</ele>
        <time>2020-07-11T09:13:41.595Z</time>
      </trkpt>
      <trkpt lat="44.15134" lon="5.31556">
        <ele>1437</ele>
        <time>2020-07-11T09:13:42.596Z</time>
      </trkpt>
      <trkpt lat="44.15133" lon="5.31552">
        <ele>1437</ele>
        <time>2020-07-11T09:13:43.595Z</time>
      </trkpt>
      <trkpt lat="44.15132" lon="5.31547">
        <ele>1437</ele>
        <time>2020-07-11T09:13:44.596Z</time>
      </trkpt>
      <trkpt lat="44.15131" lon="5.31543">
        <ele>1438</ele>
        <time>2020-07-11T09:13:45.596Z</time>
      </trkpt>
      <trkpt lat="44.1513" lon="5.31538">
        <ele>1438</ele>
        <time>2020-07-11T09:13:46.596Z</time>
      </trkpt>
      <trkpt lat="44.15128" lon="5.31533">
        <ele>1438</ele>
        <time>2020-07-11T09:13:47.596Z</time>
      </trkpt>
      <trkpt lat="44.15127" lon="5.31529">
        <ele>1438</ele>
        <time>2020-07-11T09:13:48.596Z</time>
      </trkpt>
      <trkpt lat="44.15126" lon="5.31525">
        <ele>1438</ele>
        <time>2020-07-11T09:13:49.596Z</time>
      </trkpt>
      <trkpt lat="44.15125" lon="5.3152">
        <ele>1439</ele>
        <time>2020-07-11T09:13:50.596Z</time>
      </trkpt>
      <trkpt lat="44.15124" lon="5.31516">
        <ele>1439</ele>
        <time>2020-07-11T09:13:51.596Z</time>
      </trkpt>
      <trkpt lat="44.15122" lon="5.31512">
        <ele>1439</ele>
        <time>2020-07-11T09:13:52.596Z</time>
      </trkpt>
      <trkpt lat="44.15121" lon="5.31507">
        <ele>1440</ele>
        <time>2020-07-11T09:13:53.596Z</time>
      </trkpt>
      <trkpt lat="44.1512" lon="5.31503">
        <ele>1440</ele>
        <time>2020-07-11T09:13:54.596Z</time>
      </trkpt>
      <trkpt lat="44.15118" lon="5.31498">
        <ele>1440</ele>
        <time>2020-07-11T09:13:55.596Z</time>
      </trkpt>
      <trkpt lat="44.15116" lon="5.31494">
        <ele>1441</ele>
        <time>2020-07-11T09:13:56.596Z</time>
      </trkpt>
      <trkpt lat="44.15115" lon="5.3149">
        <ele>1441</ele>
        <time>2020-07-11T09:13:57.596Z</time>
      </trkpt>
      <trkpt lat="44.15113" lon="5.31486">
        <ele>1441</ele>
        <time>2020-07-11T09:13:58.595Z</time>
      </trkpt>
      <trkpt lat="44.15111" lon="5.31482">
        <ele>1441</ele>
        <time>2020-07-11T09:13:59.595Z</time>
      </trkpt>
      <trkpt lat="44.15109" lon="5.31477">
        <ele>1442</ele>
        <time>2020-07-11T09:14:00.596Z</time>
      </trkpt>
      <trkpt lat="44.15107" lon="5.31473">
        <ele>1442</ele>
        <time>2020-07-11T09:14:01.596Z</time>
      </trkpt>
      <trkpt lat="44.15105" lon="5.31469">
        <ele>1442</ele>
        <time>2020-07-11T09:14:02.596Z</time>
      </trkpt>
      <trkpt lat="44.15103" lon="5.31465">
        <ele>1443</ele>
        <time>2020-07-11T09:14:03.596Z</time>
      </trkpt>
      <trkpt lat="44.15101" lon="5.31461">
        <ele>1443</ele>
        <time>2020-07-11T09:14:04.595Z</time>
      </trkpt>
      <trkpt lat="44.15099" lon="5.31456">
        <ele>1443</ele>
        <time>2020-07-11T09:14:05.596Z</time>
      </trkpt>
      <trkpt lat="44.15097" lon="5.31452">
        <ele>1443</ele>
        <time>2020-07-11T09:14:06.596Z</time>
      </trkpt>
      <trkpt lat="44.15095" lon="5.31447">
        <ele>1443</ele>
        <time>2020-07-11T09:14:07.596Z</time>
      </trkpt>
      <trkpt lat="44.15094" lon="5.31442">
        <ele>1443</ele>
        <time>2020-07-11T09:14:08.596Z</time>
      </trkpt>
      <trkpt lat="44.15093" lon="5.31437">
        <ele>1443</ele>
        <time>2020-07-11T09:14:09.595Z</time>
      </trkpt>
      <trkpt lat="44.15092" lon="5.31433">
        <ele>1444</ele>
        <time>2020-07-11T09:14:10.596Z</time>
      </trkpt>
      <trkpt lat="44.15091" lon="5.31428">
        <ele>1444</ele>
        <time>2020-07-11T09:14:11.596Z</time>
      </trkpt>
      <trkpt lat="44.15091" lon="5.31425">
        <ele>1445</ele>
        <time>2020-07-11T09:14:12.596Z</time>
      </trkpt>
      <trkpt lat="44.15092" lon="5.3142">
        <ele>1445</ele>
        <time>2020-07-11T09:14:13.596Z</time>
      </trkpt>
      <trkpt lat="44.15093" lon="5.31416">
        <ele>1445</ele>
        <time>2020-07-11T09:14:14.595Z</time>
      </trkpt>
      <trkpt lat="44.15094" lon="5.31412">
        <ele>1446</ele>
        <time>2020-07-11T09:14:15.596Z</time>
      </trkpt>
      <trkpt lat="44.15095" lon="5.31408">
        <ele>1446</ele>
        <time>2020-07-11T09:14:16.595Z</time>
      </trkpt>
      <trkpt lat="44.15096" lon="5.31405">
        <ele>1446</ele>
        <time>2020-07-11T09:14:17.596Z</time>
      </trkpt>
      <trkpt lat="44.15098" lon="5.31401">
        <ele>1446</ele>
        <time>2020-07-11T09:14:18.596Z</time>
      </trkpt>
      <trkpt lat="44.151" lon="5.31398">
        <ele>1446</ele>
        <time>2020-07-11T09:14:19.595Z</time>
      </trkpt>
      <trkpt lat="44.15102" lon="5.31395">
        <ele>1447</ele>
        <time>2020-07-11T09:14:20.595Z</time>
      </trkpt>
      <trkpt lat="44.15104" lon="5.31392">
        <ele>1447</ele>
        <time>2020-07-11T09:14:21.596Z</time>
      </trkpt>
      <trkpt lat="44.15107" lon="5.31389">
        <ele>1447</ele>
        <time>2020-07-11T09:14:22.596Z</time>
      </trkpt>
      <trkpt lat="44.15109" lon="5.31386">
        <ele>1447</ele>
        <time>2020-07-11T09:14:23.596Z</time>
      </trkpt>
      <trkpt lat="44.15111" lon="5.31383">
        <ele>1447</ele>
        <time>2020-07-11T09:14:24.596Z</time>
      </trkpt>
      <trkpt lat="44.15114" lon="5.3138">
        <ele>1448</ele>
        <time>2020-07-11T09:14:25.596Z</time>
      </trkpt>
      <trkpt lat="44.15116" lon="5.31378">
        <ele>1448</ele>
        <time>2020-07-11T09:14:26.595Z</time>
      </trkpt>
      <trkpt lat="44.15118" lon="5.31375">
        <ele>1448</ele>
        <time>2020-07-11T09:14:27.596Z</time>
      </trkpt>
      <trkpt lat="44.15121" lon="5.31372">
        <ele>1449</ele>
        <time>2020-07-11T09:14:28.596Z</time>
      </trkpt>
      <trkpt lat="44.15124" lon="5.31369">
        <ele>1449</ele>
        <time>2020-07-11T09:14:29.596Z</time>
      </trkpt>
      <trkpt lat="44.15127" lon="5.31367">
        <ele>1449</ele>
        <time>2020-07-11T09:14:30.596Z</time>
      </trkpt>
      <trkpt lat="44.1513" lon="5.31365">
        <ele>1449</ele>
        <time>2020-07-11T09:14:31.596Z</time>
      </trkpt>
      <trkpt lat="44.15133" lon="5.31362">
        <ele>1449</ele>
        <time>2020-07-11T09:14:32.596Z</time>
      </trkpt>
      <trkpt lat="44.15136" lon="5.3136">
        <ele>1450</ele>
        <time>2020-07-11T09:14:33.596Z</time>
      </trkpt>
      <trkpt lat="44.15139" lon="5.31358">
        <ele>1450</ele>
        <time>2020-07-11T09:14:34.596Z</time>
      </trkpt>
      <trkpt lat="44.15142" lon="5.31356">
        <ele>1450</ele>
        <time>2020-07-11T09:14:35.595Z</time>
      </trkpt>
      <trkpt lat="44.15146" lon="5.31355">
        <ele>1450</ele>
        <time>2020-07-11T09:14:36.596Z</time>
      </trkpt>
      <trkpt lat="44.15149" lon="5.31353">
        <ele>1450</ele>
        <time>2020-07-11T09:14:37.596Z</time>
      </trkpt>
      <trkpt lat="44.15152" lon="5.31352">
        <ele>1450</ele>
        <time>2020-07-11T09:14:38.596Z</time>
      </trkpt>
      <trkpt lat="44.15156" lon="5.3135">
        <ele>1450</ele>
        <time>2020-07-11T09:14:39.596Z</time>
      </trkpt>
      <trkpt lat="44.15159" lon="5.3135">
        <ele>1450</ele>
        <time>2020-07-11T09:14:40.596Z</time>
      </trkpt>
      <trkpt lat="44.15162" lon="5.31349">
        <ele>1450</ele>
        <time>2020-07-11T09:14:41.596Z</time>
      </trkpt>
      <trkpt lat="44.15165" lon="5.3135">
        <ele>1451</ele>
        <time>2020-07-11T09:14:42.596Z</time>
      </trkpt>
      <trkpt lat="44.15169" lon="5.3135">
        <ele>1451</ele>
        <time>2020-07-11T09:14:43.596Z</time>
      </trkpt>
      <trkpt lat="44.15172" lon="5.3135">
        <ele>1452</ele>
        <time>2020-07-11T09:14:44.596Z</time>
      </trkpt>
      <trkpt lat="44.15175" lon="5.3135">
        <ele>1452</ele>
        <time>2020-07-11T09:14:45.596Z</time>
      </trkpt>
      <trkpt lat="44.15178" lon="5.31351">
        <ele>1453</ele>
        <time>2020-07-11T09:14:46.595Z</time>
      </trkpt>
      <trkpt lat="44.1518" lon="5.31352">
        <ele>1453</ele>
        <time>2020-07-11T09:14:47.596Z</time>
      </trkpt>
      <trkpt lat="44.15183" lon="5.31352">
        <ele>1454</ele>
        <time>2020-07-11T09:14:48.595Z</time>
      </trkpt>
      <trkpt lat="44.15187" lon="5.31353">
        <ele>1454</ele>
        <time>2020-07-11T09:14:49.596Z</time>
      </trkpt>
      <trkpt lat="44.1519" lon="5.31354">
        <ele>1455</ele>
        <time>2020-07-11T09:14:50.595Z</time>
      </trkpt>
      <trkpt lat="44.15193" lon="5.31355">
        <ele>1455</ele>
        <time>2020-07-11T09:14:51.595Z</time>
      </trkpt>
      <trkpt lat="44.15196" lon="5.31356">
        <ele>1456</ele>
        <time>2020-07-11T09:14:52.596Z</time>
      </trkpt>
      <trkpt lat="44.15199" lon="5.31357">
        <ele>1456</ele>
        <time>2020-07-11T09:14:53.596Z</time>
      </trkpt>
      <trkpt lat="44.15203" lon="5.31357">
        <ele>1456</ele>
        <time>2020-07-11T09:14:54.596Z</time>
      </trkpt>
      <trkpt lat="44.15205" lon="5.31358">
        <ele>1457</ele>
        <time>2020-07-11T09:14:55.596Z</time>
      </trkpt>
      <trkpt lat="44.15208" lon="5.31359">
        <ele>1457</ele>
        <time>2020-07-11T09:14:56.596Z</time>
      </trkpt>
      <trkpt lat="44.1521" lon="5.31359">
        <ele>1458</ele>
        <time>2020-07-11T09:14:57.596Z</time>
      </trkpt>
      <trkpt lat="44.15213" lon="5.3136">
        <ele>1458</ele>
        <time>2020-07-11T09:14:58.596Z</time>
      </trkpt>
      <trkpt lat="44.15216" lon="5.31361">
        <ele>1458</ele>
        <time>2020-07-11T09:14:59.596Z</time>
      </trkpt>
      <trkpt lat="44.15219" lon="5.31362">
        <ele>1458</ele>
        <time>2020-07-11T09:15:00.596Z</time>
      </trkpt>
      <trkpt lat="44.15223" lon="5.31363">
        <ele>1458</ele>
        <time>2020-07-11T09:15:01.596Z</time>
      </trkpt>
      <trkpt lat="44.15226" lon="5.31364">
        <ele>1458</ele>
        <time>2020-07-11T09:15:02.596Z</time>
      </trkpt>
      <trkpt lat="44.15229" lon="5.31364">
        <ele>1459</ele>
        <time>2020-07-11T09:15:03.595Z</time>
      </trkpt>
      <trkpt lat="44.15232" lon="5.31366">
        <ele>1459</ele>
        <time>2020-07-11T09:15:04.596Z</time>
      </trkpt>
      <trkpt lat="44.15236" lon="5.31368">
        <ele>1458</ele>
        <time>2020-07-11T09:15:05.596Z</time>
      </trkpt>
      <trkpt lat="44.15238" lon="5.31369">
        <ele>1458</ele>
        <time>2020-07-11T09:15:06.596Z</time>
      </trkpt>
      <trkpt lat="44.15241" lon="5.3137">
        <ele>1458</ele>
        <time>2020-07-11T09:15:07.596Z</time>
      </trkpt>
      <trkpt lat="44.15244" lon="5.31372">
        <ele>1459</ele>
        <time>2020-07-11T09:15:08.596Z</time>
      </trkpt>
      <trkpt lat="44.15247" lon="5.31373">
        <ele>1459</ele>
        <time>2020-07-11T09:15:09.596Z</time>
      </trkpt>
      <trkpt lat="44.1525" lon="5.31374">
        <ele>1459</ele>
        <time>2020-07-11T09:15:10.596Z</time>
      </trkpt>
      <trkpt lat="44.15253" lon="5.31376">
        <ele>1459</ele>
        <time>2020-07-11T09:15:11.596Z</time>
      </trkpt>
      <trkpt lat="44.15256" lon="5.31378">
        <ele>1459</ele>
        <time>2020-07-11T09:15:12.595Z</time>
      </trkpt>
      <trkpt lat="44.15258" lon="5.3138">
        <ele>1460</ele>
        <time>2020-07-11T09:15:13.596Z</time>
      </trkpt>
      <trkpt lat="44.1526" lon="5.31382">
        <ele>1460</ele>
        <time>2020-07-11T09:15:14.596Z</time>
      </trkpt>
      <trkpt lat="44.15262" lon="5.31384">
        <ele>1461</ele>
        <time>2020-07-11T09:15:15.596Z</time>
      </trkpt>
      <trkpt lat="44.15264" lon="5.31386">
        <ele>1462</ele>
        <time>2020-07-11T09:15:16.596Z</time>
      </trkpt>
      <trkpt lat="44.15267" lon="5.31388">
        <ele>1462</ele>
        <time>2020-07-11T09:15:17.596Z</time>
      </trkpt>
      <trkpt lat="44.15269" lon="5.31391">
        <ele>1463</ele>
        <time>2020-07-11T09:15:18.596Z</time>
      </trkpt>
      <trkpt lat="44.15271" lon="5.31394">
        <ele>1463</ele>
        <time>2020-07-11T09:15:19.596Z</time>
      </trkpt>
      <trkpt lat="44.15274" lon="5.31397">
        <ele>1463</ele>
        <time>2020-07-11T09:15:20.596Z</time>
      </trkpt>
      <trkpt lat="44.15275" lon="5.31399">
        <ele>1463</ele>
        <time>2020-07-11T09:15:21.595Z</time>
      </trkpt>
      <trkpt lat="44.15277" lon="5.31402">
        <ele>1464</ele>
        <time>2020-07-11T09:15:22.596Z</time>
      </trkpt>
      <trkpt lat="44.15279" lon="5.31405">
        <ele>1464</ele>
        <time>2020-07-11T09:15:23.595Z</time>
      </trkpt>
      <trkpt lat="44.15281" lon="5.31408">
        <ele>1465</ele>
        <time>2020-07-11T09:15:24.596Z</time>
      </trkpt>
      <trkpt lat="44.15283" lon="5.31411">
        <ele>1465</ele>
        <time>2020-07-11T09:15:25.596Z</time>
      </trkpt>
      <trkpt lat="44.15284" lon="5.31413">
        <ele>1465</ele>
        <time>2020-07-11T09:15:26.596Z</time>
      </trkpt>
      <trkpt lat="44.15287" lon="5.31416">
        <ele>1465</ele>
        <time>2020-07-11T09:15:27.596Z</time>
      </trkpt>
      <trkpt lat="44.15289" lon="5.31419">
        <ele>1465</ele>
        <time>2020-07-11T09:15:28.595Z</time>
      </trkpt>
      <trkpt lat="44.15291" lon="5.31422">
        <ele>1465</ele>
        <time>2020-07-11T09:15:29.596Z</time>
      </trkpt>
      <trkpt lat="44.15293" lon="5.31425">
        <ele>1465</ele>
        <time>2020-07-11T09:15:30.596Z</time>
      </trkpt>
      <trkpt lat="44.15295" lon="5.31427">
        <ele>1465</ele>
        <time>2020-07-11T09:15:31.596Z</time>
      </trkpt>
      <trkpt lat="44.15297" lon="5.3143">
        <ele>1465</ele>
        <time>2020-07-11T09:15:32.596Z</time>
      </trkpt>
      <trkpt lat="44.153" lon="5.31433">
        <ele>1464</ele>
        <time>2020-07-11T09:15:33.596Z</time>
      </trkpt>
      <trkpt lat="44.15303" lon="5.31435">
        <ele>1465</ele>
        <time>2020-07-11T09:15:34.596Z</time>
      </trkpt>
      <trkpt lat="44.15305" lon="5.31437">
        <ele>1465</ele>
        <time>2020-07-11T09:15:35.596Z</time>
      </trkpt>
      <trkpt lat="44.15307" lon="5.3144">
        <ele>1465</ele>
        <time>2020-07-11T09:15:36.596Z</time>
      </trkpt>
      <trkpt lat="44.1531" lon="5.31441">
        <ele>1466</ele>
        <time>2020-07-11T09:15:37.596Z</time>
      </trkpt>
      <trkpt lat="44.15312" lon="5.31443">
        <ele>1466</ele>
        <time>2020-07-11T09:15:38.596Z</time>
      </trkpt>
      <trkpt lat="44.15316" lon="5.31445">
        <ele>1467</ele>
        <time>2020-07-11T09:15:39.596Z</time>
      </trkpt>
      <trkpt lat="44.15319" lon="5.31447">
        <ele>1468</ele>
        <time>2020-07-11T09:15:40.596Z</time>
      </trkpt>
      <trkpt lat="44.15322" lon="5.31449">
        <ele>1468</ele>
        <time>2020-07-11T09:15:41.596Z</time>
      </trkpt>
      <trkpt lat="44.15324" lon="5.3145">
        <ele>1469</ele>
        <time>2020-07-11T09:15:42.595Z</time>
      </trkpt>
      <trkpt lat="44.15327" lon="5.31452">
        <ele>1469</ele>
        <time>2020-07-11T09:15:43.596Z</time>
      </trkpt>
      <trkpt lat="44.15329" lon="5.31453">
        <ele>1469</ele>
        <time>2020-07-11T09:15:44.596Z</time>
      </trkpt>
      <trkpt lat="44.15332" lon="5.31454">
        <ele>1469</ele>
        <time>2020-07-11T09:15:45.596Z</time>
      </trkpt>
      <trkpt lat="44.15335" lon="5.31456">
        <ele>1469</ele>
        <time>2020-07-11T09:15:46.596Z</time>
      </trkpt>
      <trkpt lat="44.15338" lon="5.31457">
        <ele>1470</ele>
        <time>2020-07-11T09:15:47.595Z</time>
      </trkpt>
      <trkpt lat="44.15341" lon="5.31459">
        <ele>1470</ele>
        <time>2020-07-11T09:15:48.595Z</time>
      </trkpt>
      <trkpt lat="44.15344" lon="5.3146">
        <ele>1470</ele>
        <time>2020-07-11T09:15:49.596Z</time>
      </trkpt>
      <trkpt lat="44.15347" lon="5.31462">
        <ele>1470</ele>
        <time>2020-07-11T09:15:50.596Z</time>
      </trkpt>
      <trkpt lat="44.1535" lon="5.31463">
        <ele>1471</ele>
        <time>2020-07-11T09:15:51.596Z</time>
      </trkpt>
      <trkpt lat="44.15352" lon="5.31465">
        <ele>1471</ele>
        <time>2020-07-11T09:15:52.595Z</time>
      </trkpt>
      <trkpt lat="44.15355" lon="5.31466">
        <ele>1471</ele>
        <time>2020-07-11T09:15:53.595Z</time>
      </trkpt>
      <trkpt lat="44.15358" lon="5.31467">
        <ele>1472</ele>
        <time>2020-07-11T09:15:54.596Z</time>
      </trkpt>
      <trkpt lat="44.15361" lon="5.31468">
        <ele>1473</ele>
        <time>2020-07-11T09:15:55.596Z</time>
      </trkpt>
      <trkpt lat="44.15364" lon="5.3147">
        <ele>1474</ele>
        <time>2020-07-11T09:15:56.596Z</time>
      </trkpt>
      <trkpt lat="44.15367" lon="5.31471">
        <ele>1474</ele>
        <time>2020-07-11T09:15:57.596Z</time>
      </trkpt>
      <trkpt lat="44.15369" lon="5.31472">
        <ele>1474</ele>
        <time>2020-07-11T09:15:58.596Z</time>
      </trkpt>
      <trkpt lat="44.15372" lon="5.31474">
        <ele>1474</ele>
        <time>2020-07-11T09:15:59.596Z</time>
      </trkpt>
      <trkpt lat="44.15375" lon="5.31475">
        <ele>1474</ele>
        <time>2020-07-11T09:16:00.595Z</time>
      </trkpt>
      <trkpt lat="44.15378" lon="5.31476">
        <ele>1474</ele>
        <time>2020-07-11T09:16:01.596Z</time>
      </trkpt>
      <trkpt lat="44.1538" lon="5.31478">
        <ele>1474</ele>
        <time>2020-07-11T09:16:02.596Z</time>
      </trkpt>
      <trkpt lat="44.15383" lon="5.3148">
        <ele>1474</ele>
        <time>2020-07-11T09:16:03.596Z</time>
      </trkpt>
      <trkpt lat="44.15386" lon="5.31482">
        <ele>1474</ele>
        <time>2020-07-11T09:16:04.596Z</time>
      </trkpt>
      <trkpt lat="44.15389" lon="5.31484">
        <ele>1474</ele>
        <time>2020-07-11T09:16:05.596Z</time>
      </trkpt>
      <trkpt lat="44.15392" lon="5.31486">
        <ele>1474</ele>
        <time>2020-07-11T09:16:06.596Z</time>
      </trkpt>
      <trkpt lat="44.15395" lon="5.31488">
        <ele>1474</ele>
        <time>2020-07-11T09:16:07.596Z</time>
      </trkpt>
      <trkpt lat="44.15398" lon="5.3149">
        <ele>1475</ele>
        <time>2020-07-11T09:16:08.596Z</time>
      </trkpt>
      <trkpt lat="44.15401" lon="5.31492">
        <ele>1475</ele>
        <time>2020-07-11T09:16:09.596Z</time>
      </trkpt>
      <trkpt lat="44.15403" lon="5.31494">
        <ele>1475</ele>
        <time>2020-07-11T09:16:10.596Z</time>
      </trkpt>
      <trkpt lat="44.15405" lon="5.31496">
        <ele>1476</ele>
        <time>2020-07-11T09:16:11.595Z</time>
      </trkpt>
      <trkpt lat="44.15408" lon="5.31498">
        <ele>1476</ele>
        <time>2020-07-11T09:16:12.596Z</time>
      </trkpt>
      <trkpt lat="44.1541" lon="5.315">
        <ele>1477</ele>
        <time>2020-07-11T09:16:13.596Z</time>
      </trkpt>
      <trkpt lat="44.15412" lon="5.31502">
        <ele>1477</ele>
        <time>2020-07-11T09:16:14.596Z</time>
      </trkpt>
      <trkpt lat="44.15414" lon="5.31503">
        <ele>1477</ele>
        <time>2020-07-11T09:16:15.596Z</time>
      </trkpt>
      <trkpt lat="44.15417" lon="5.31505">
        <ele>1478</ele>
        <time>2020-07-11T09:16:16.595Z</time>
      </trkpt>
      <trkpt lat="44.1542" lon="5.31506">
        <ele>1478</ele>
        <time>2020-07-11T09:16:17.596Z</time>
      </trkpt>
      <trkpt lat="44.15422" lon="5.31508">
        <ele>1478</ele>
        <time>2020-07-11T09:16:18.595Z</time>
      </trkpt>
      <trkpt lat="44.15425" lon="5.31511">
        <ele>1478</ele>
        <time>2020-07-11T09:16:19.596Z</time>
      </trkpt>
      <trkpt lat="44.15429" lon="5.31514">
        <ele>1478</ele>
        <time>2020-07-11T09:16:20.596Z</time>
      </trkpt>
      <trkpt lat="44.15432" lon="5.31516">
        <ele>1478</ele>
        <time>2020-07-11T09:16:21.595Z</time>
      </trkpt>
      <trkpt lat="44.15434" lon="5.31517">
        <ele>1477</ele>
        <time>2020-07-11T09:16:22.596Z</time>
      </trkpt>
      <trkpt lat="44.15436" lon="5.31519">
        <ele>1478</ele>
        <time>2020-07-11T09:16:23.595Z</time>
      </trkpt>
      <trkpt lat="44.15438" lon="5.31521">
        <ele>1478</ele>
        <time>2020-07-11T09:16:24.596Z</time>
      </trkpt>
      <trkpt lat="44.15441" lon="5.31523">
        <ele>1478</ele>
        <time>2020-07-11T09:16:25.596Z</time>
      </trkpt>
      <trkpt lat="44.15444" lon="5.31525">
        <ele>1479</ele>
        <time>2020-07-11T09:16:26.596Z</time>
      </trkpt>
      <trkpt lat="44.15447" lon="5.31527">
        <ele>1479</ele>
        <time>2020-07-11T09:16:27.596Z</time>
      </trkpt>
      <trkpt lat="44.1545" lon="5.31528">
        <ele>1479</ele>
        <time>2020-07-11T09:16:28.595Z</time>
      </trkpt>
      <trkpt lat="44.15453" lon="5.3153">
        <ele>1479</ele>
        <time>2020-07-11T09:16:29.596Z</time>
      </trkpt>
      <trkpt lat="44.15455" lon="5.31532">
        <ele>1479</ele>
        <time>2020-07-11T09:16:30.596Z</time>
      </trkpt>
      <trkpt lat="44.15458" lon="5.31534">
        <ele>1480</ele>
        <time>2020-07-11T09:16:31.596Z</time>
      </trkpt>
      <trkpt lat="44.1546" lon="5.31536">
        <ele>1480</ele>
        <time>2020-07-11T09:16:32.596Z</time>
      </trkpt>
      <trkpt lat="44.15463" lon="5.31537">
        <ele>1480</ele>
        <time>2020-07-11T09:16:33.596Z</time>
      </trkpt>
      <trkpt lat="44.15466" lon="5.31539">
        <ele>1480</ele>
        <time>2020-07-11T09:16:34.596Z</time>
      </trkpt>
      <trkpt lat="44.15469" lon="5.31541">
        <ele>1480</ele>
        <time>2020-07-11T09:16:35.596Z</time>
      </trkpt>
      <trkpt lat="44.15472" lon="5.31543">
        <ele>1481</ele>
        <time>2020-07-11T09:16:36.596Z</time>
      </trkpt>
      <trkpt lat="44.15475" lon="5.31545">
        <ele>1481</ele>
        <time>2020-07-11T09:16:37.596Z</time>
      </trkpt>
      <trkpt lat="44.15477" lon="5.31547">
        <ele>1481</ele>
        <time>2020-07-11T09:16:38.596Z</time>
      </trkpt>
      <trkpt lat="44.1548" lon="5.31548">
        <ele>1481</ele>
        <time>2020-07-11T09:16:39.596Z</time>
      </trkpt>
      <trkpt lat="44.15483" lon="5.31549">
        <ele>1482</ele>
        <time>2020-07-11T09:16:40.596Z</time>
      </trkpt>
      <trkpt lat="44.15486" lon="5.3155">
        <ele>1482</ele>
        <time>2020-07-11T09:16:41.596Z</time>
      </trkpt>
      <trkpt lat="44.15489" lon="5.3155">
        <ele>1483</ele>
        <time>2020-07-11T09:16:42.596Z</time>
      </trkpt>
      <trkpt lat="44.15492" lon="5.31549">
        <ele>1483</ele>
        <time>2020-07-11T09:16:43.596Z</time>
      </trkpt>
      <trkpt lat="44.15495" lon="5.31548">
        <ele>1484</ele>
        <time>2020-07-11T09:16:44.596Z</time>
      </trkpt>
      <trkpt lat="44.15498" lon="5.31546">
        <ele>1484</ele>
        <time>2020-07-11T09:16:45.596Z</time>
      </trkpt>
      <trkpt lat="44.155" lon="5.31543">
        <ele>1484</ele>
        <time>2020-07-11T09:16:46.595Z</time>
      </trkpt>
      <trkpt lat="44.15502" lon="5.31539">
        <ele>1485</ele>
        <time>2020-07-11T09:16:47.596Z</time>
      </trkpt>
      <trkpt lat="44.15502" lon="5.31535">
        <ele>1485</ele>
        <time>2020-07-11T09:16:48.596Z</time>
      </trkpt>
      <trkpt lat="44.15502" lon="5.3153">
        <ele>1485</ele>
        <time>2020-07-11T09:16:49.595Z</time>
      </trkpt>
      <trkpt lat="44.15501" lon="5.31526">
        <ele>1486</ele>
        <time>2020-07-11T09:16:50.595Z</time>
      </trkpt>
      <trkpt lat="44.155" lon="5.31521">
        <ele>1486</ele>
        <time>2020-07-11T09:16:51.595Z</time>
      </trkpt>
      <trkpt lat="44.15498" lon="5.31517">
        <ele>1486</ele>
        <time>2020-07-11T09:16:52.596Z</time>
      </trkpt>
      <trkpt lat="44.15496" lon="5.31512">
        <ele>1486</ele>
        <time>2020-07-11T09:16:53.595Z</time>
      </trkpt>
      <trkpt lat="44.15494" lon="5.31507">
        <ele>1486</ele>
        <time>2020-07-11T09:16:54.595Z</time>
      </trkpt>
      <trkpt lat="44.15492" lon="5.31502">
        <ele>1486</ele>
        <time>2020-07-11T09:16:55.596Z</time>
      </trkpt>
      <trkpt lat="44.1549" lon="5.31496">
        <ele>1487</ele>
        <time>2020-07-11T09:16:56.596Z</time>
      </trkpt>
      <trkpt lat="44.15488" lon="5.31491">
        <ele>1487</ele>
        <time>2020-07-11T09:16:57.596Z</time>
      </trkpt>
      <trkpt lat="44.15486" lon="5.31485">
        <ele>1487</ele>
        <time>2020-07-11T09:16:58.596Z</time>
      </trkpt>
      <trkpt lat="44.15485" lon="5.3148">
        <ele>1487</ele>
        <time>2020-07-11T09:16:59.596Z</time>
      </trkpt>
      <trkpt lat="44.15484" lon="5.31474">
        <ele>1487</ele>
        <time>2020-07-11T09:17:00.596Z</time>
      </trkpt>
      <trkpt lat="44.15483" lon="5.31469">
        <ele>1487</ele>
        <time>2020-07-11T09:17:01.596Z</time>
      </trkpt>
      <trkpt lat="44.15482" lon="5.31463">
        <ele>1488</ele>
        <time>2020-07-11T09:17:02.596Z</time>
      </trkpt>
      <trkpt lat="44.15481" lon="5.31457">
        <ele>1488</ele>
        <time>2020-07-11T09:17:03.595Z</time>
      </trkpt>
      <trkpt lat="44.1548" lon="5.31451">
        <ele>1489</ele>
        <time>2020-07-11T09:17:04.596Z</time>
      </trkpt>
      <trkpt lat="44.1548" lon="5.31446">
        <ele>1489</ele>
        <time>2020-07-11T09:17:05.596Z</time>
      </trkpt>
      <trkpt lat="44.15479" lon="5.3144">
        <ele>1490</ele>
        <time>2020-07-11T09:17:06.596Z</time>
      </trkpt>
      <trkpt lat="44.15479" lon="5.31435">
        <ele>1490</ele>
        <time>2020-07-11T09:17:07.595Z</time>
      </trkpt>
      <trkpt lat="44.15479" lon="5.31428">
        <ele>1490</ele>
        <time>2020-07-11T09:17:08.596Z</time>
      </trkpt>
      <trkpt lat="44.15479" lon="5.31423">
        <ele>1489</ele>
        <time>2020-07-11T09:17:09.595Z</time>
      </trkpt>
      <trkpt lat="44.1548" lon="5.31419">
        <ele>1489</ele>
        <time>2020-07-11T09:17:10.596Z</time>
      </trkpt>
      <trkpt lat="44.1548" lon="5.31414">
        <ele>1489</ele>
        <time>2020-07-11T09:17:11.596Z</time>
      </trkpt>
      <trkpt lat="44.1548" lon="5.31409">
        <ele>1489</ele>
        <time>2020-07-11T09:17:12.595Z</time>
      </trkpt>
      <trkpt lat="44.1548" lon="5.31404">
        <ele>1489</ele>
        <time>2020-07-11T09:17:13.596Z</time>
      </trkpt>
      <trkpt lat="44.1548" lon="5.31397">
        <ele>1489</ele>
        <time>2020-07-11T09:17:14.596Z</time>
      </trkpt>
      <trkpt lat="44.1548" lon="5.31391">
        <ele>1490</ele>
        <time>2020-07-11T09:17:15.596Z</time>
      </trkpt>
      <trkpt lat="44.15481" lon="5.31386">
        <ele>1490</ele>
        <time>2020-07-11T09:17:16.596Z</time>
      </trkpt>
      <trkpt lat="44.15482" lon="5.31381">
        <ele>1490</ele>
        <time>2020-07-11T09:17:17.596Z</time>
      </trkpt>
      <trkpt lat="44.15481" lon="5.31375">
        <ele>1490</ele>
        <time>2020-07-11T09:17:18.596Z</time>
      </trkpt>
      <trkpt lat="44.15481" lon="5.31369">
        <ele>1491</ele>
        <time>2020-07-11T09:17:19.596Z</time>
      </trkpt>
      <trkpt lat="44.15481" lon="5.31364">
        <ele>1491</ele>
        <time>2020-07-11T09:17:20.595Z</time>
      </trkpt>
      <trkpt lat="44.15482" lon="5.31359">
        <ele>1492</ele>
        <time>2020-07-11T09:17:21.595Z</time>
      </trkpt>
      <trkpt lat="44.15482" lon="5.31354">
        <ele>1492</ele>
        <time>2020-07-11T09:17:22.596Z</time>
      </trkpt>
      <trkpt lat="44.15482" lon="5.31348">
        <ele>1493</ele>
        <time>2020-07-11T09:17:23.595Z</time>
      </trkpt>
      <trkpt lat="44.15483" lon="5.31343">
        <ele>1493</ele>
        <time>2020-07-11T09:17:24.595Z</time>
      </trkpt>
      <trkpt lat="44.15483" lon="5.31337">
        <ele>1493</ele>
        <time>2020-07-11T09:17:25.595Z</time>
      </trkpt>
      <trkpt lat="44.15484" lon="5.31332">
        <ele>1493</ele>
        <time>2020-07-11T09:17:26.596Z</time>
      </trkpt>
      <trkpt lat="44.15484" lon="5.31327">
        <ele>1493</ele>
        <time>2020-07-11T09:17:27.596Z</time>
      </trkpt>
      <trkpt lat="44.15485" lon="5.31322">
        <ele>1493</ele>
        <time>2020-07-11T09:17:28.596Z</time>
      </trkpt>
      <trkpt lat="44.15485" lon="5.31317">
        <ele>1494</ele>
        <time>2020-07-11T09:17:29.596Z</time>
      </trkpt>
      <trkpt lat="44.15486" lon="5.31312">
        <ele>1494</ele>
        <time>2020-07-11T09:17:30.596Z</time>
      </trkpt>
      <trkpt lat="44.15486" lon="5.31306">
        <ele>1495</ele>
        <time>2020-07-11T09:17:31.596Z</time>
      </trkpt>
      <trkpt lat="44.15486" lon="5.31301">
        <ele>1495</ele>
        <time>2020-07-11T09:17:32.596Z</time>
      </trkpt>
      <trkpt lat="44.15487" lon="5.31296">
        <ele>1495</ele>
        <time>2020-07-11T09:17:33.596Z</time>
      </trkpt>
      <trkpt lat="44.15487" lon="5.31291">
        <ele>1495</ele>
        <time>2020-07-11T09:17:34.596Z</time>
      </trkpt>
      <trkpt lat="44.15488" lon="5.31286">
        <ele>1495</ele>
        <time>2020-07-11T09:17:35.596Z</time>
      </trkpt>
      <trkpt lat="44.15488" lon="5.31281">
        <ele>1494</ele>
        <time>2020-07-11T09:17:36.596Z</time>
      </trkpt>
      <trkpt lat="44.15489" lon="5.31276">
        <ele>1494</ele>
        <time>2020-07-11T09:17:37.595Z</time>
      </trkpt>
      <trkpt lat="44.1549" lon="5.3127">
        <ele>1494</ele>
        <time>2020-07-11T09:17:38.596Z</time>
      </trkpt>
      <trkpt lat="44.15491" lon="5.31265">
        <ele>1494</ele>
        <time>2020-07-11T09:17:39.596Z</time>
      </trkpt>
      <trkpt lat="44.15492" lon="5.3126">
        <ele>1494</ele>
        <time>2020-07-11T09:17:40.596Z</time>
      </trkpt>
      <trkpt lat="44.15493" lon="5.31255">
        <ele>1494</ele>
        <time>2020-07-11T09:17:41.596Z</time>
      </trkpt>
      <trkpt lat="44.15495" lon="5.31251">
        <ele>1494</ele>
        <time>2020-07-11T09:17:42.595Z</time>
      </trkpt>
      <trkpt lat="44.15497" lon="5.31246">
        <ele>1494</ele>
        <time>2020-07-11T09:17:43.595Z</time>
      </trkpt>
      <trkpt lat="44.15498" lon="5.31242">
        <ele>1494</ele>
        <time>2020-07-11T09:17:44.596Z</time>
      </trkpt>
      <trkpt lat="44.155" lon="5.31237">
        <ele>1495</ele>
        <time>2020-07-11T09:17:45.596Z</time>
      </trkpt>
      <trkpt lat="44.15503" lon="5.31233">
        <ele>1495</ele>
        <time>2020-07-11T09:17:46.596Z</time>
      </trkpt>
      <trkpt lat="44.15506" lon="5.3123">
        <ele>1496</ele>
        <time>2020-07-11T09:17:47.596Z</time>
      </trkpt>
      <trkpt lat="44.15509" lon="5.31226">
        <ele>1496</ele>
        <time>2020-07-11T09:17:48.596Z</time>
      </trkpt>
      <trkpt lat="44.15512" lon="5.31224">
        <ele>1497</ele>
        <time>2020-07-11T09:17:49.595Z</time>
      </trkpt>
      <trkpt lat="44.15515" lon="5.31221">
        <ele>1497</ele>
        <time>2020-07-11T09:17:50.595Z</time>
      </trkpt>
      <trkpt lat="44.15519" lon="5.3122">
        <ele>1497</ele>
        <time>2020-07-11T09:17:51.596Z</time>
      </trkpt>
      <trkpt lat="44.15522" lon="5.31218">
        <ele>1497</ele>
        <time>2020-07-11T09:17:52.596Z</time>
      </trkpt>
      <trkpt lat="44.15526" lon="5.31218">
        <ele>1497</ele>
        <time>2020-07-11T09:17:53.596Z</time>
      </trkpt>
      <trkpt lat="44.1553" lon="5.31217">
        <ele>1497</ele>
        <time>2020-07-11T09:17:54.595Z</time>
      </trkpt>
      <trkpt lat="44.15533" lon="5.31217">
        <ele>1498</ele>
        <time>2020-07-11T09:17:55.596Z</time>
      </trkpt>
      <trkpt lat="44.15537" lon="5.31217">
        <ele>1498</ele>
        <time>2020-07-11T09:17:56.596Z</time>
      </trkpt>
      <trkpt lat="44.1554" lon="5.31218">
        <ele>1498</ele>
        <time>2020-07-11T09:17:57.596Z</time>
      </trkpt>
      <trkpt lat="44.15544" lon="5.31219">
        <ele>1498</ele>
        <time>2020-07-11T09:17:58.596Z</time>
      </trkpt>
      <trkpt lat="44.15547" lon="5.3122">
        <ele>1498</ele>
        <time>2020-07-11T09:17:59.596Z</time>
      </trkpt>
      <trkpt lat="44.15551" lon="5.31222">
        <ele>1499</ele>
        <time>2020-07-11T09:18:00.596Z</time>
      </trkpt>
      <trkpt lat="44.15554" lon="5.31224">
        <ele>1499</ele>
        <time>2020-07-11T09:18:01.596Z</time>
      </trkpt>
      <trkpt lat="44.15558" lon="5.31226">
        <ele>1499</ele>
        <time>2020-07-11T09:18:02.596Z</time>
      </trkpt>
      <trkpt lat="44.15561" lon="5.31229">
        <ele>1499</ele>
        <time>2020-07-11T09:18:03.596Z</time>
      </trkpt>
      <trkpt lat="44.15564" lon="5.31231">
        <ele>1500</ele>
        <time>2020-07-11T09:18:04.596Z</time>
      </trkpt>
      <trkpt lat="44.15567" lon="5.31234">
        <ele>1500</ele>
        <time>2020-07-11T09:18:05.596Z</time>
      </trkpt>
      <trkpt lat="44.1557" lon="5.31236">
        <ele>1501</ele>
        <time>2020-07-11T09:18:06.596Z</time>
      </trkpt>
      <trkpt lat="44.15573" lon="5.31239">
        <ele>1501</ele>
        <time>2020-07-11T09:18:07.596Z</time>
      </trkpt>
      <trkpt lat="44.15577" lon="5.31242">
        <ele>1502</ele>
        <time>2020-07-11T09:18:08.596Z</time>
      </trkpt>
      <trkpt lat="44.1558" lon="5.31244">
        <ele>1503</ele>
        <time>2020-07-11T09:18:09.596Z</time>
      </trkpt>
      <trkpt lat="44.15583" lon="5.31247">
        <ele>1503</ele>
        <time>2020-07-11T09:18:10.596Z</time>
      </trkpt>
      <trkpt lat="44.15586" lon="5.3125">
        <ele>1503</ele>
        <time>2020-07-11T09:18:11.596Z</time>
      </trkpt>
      <trkpt lat="44.15589" lon="5.31252">
        <ele>1503</ele>
        <time>2020-07-11T09:18:12.596Z</time>
      </trkpt>
      <trkpt lat="44.15593" lon="5.31255">
        <ele>1504</ele>
        <time>2020-07-11T09:18:13.596Z</time>
      </trkpt>
      <trkpt lat="44.15596" lon="5.31257">
        <ele>1504</ele>
        <time>2020-07-11T09:18:14.596Z</time>
      </trkpt>
      <trkpt lat="44.15599" lon="5.3126">
        <ele>1504</ele>
        <time>2020-07-11T09:18:15.596Z</time>
      </trkpt>
      <trkpt lat="44.15602" lon="5.31262">
        <ele>1505</ele>
        <time>2020-07-11T09:18:16.596Z</time>
      </trkpt>
      <trkpt lat="44.15606" lon="5.31264">
        <ele>1505</ele>
        <time>2020-07-11T09:18:17.595Z</time>
      </trkpt>
      <trkpt lat="44.15609" lon="5.31267">
        <ele>1505</ele>
        <time>2020-07-11T09:18:18.596Z</time>
      </trkpt>
      <trkpt lat="44.15613" lon="5.31269">
        <ele>1506</ele>
        <time>2020-07-11T09:18:19.596Z</time>
      </trkpt>
      <trkpt lat="44.15616" lon="5.31271">
        <ele>1506</ele>
        <time>2020-07-11T09:18:20.596Z</time>
      </trkpt>
      <trkpt lat="44.15619" lon="5.31273">
        <ele>1507</ele>
        <time>2020-07-11T09:18:21.595Z</time>
      </trkpt>
      <trkpt lat="44.15623" lon="5.31275">
        <ele>1508</ele>
        <time>2020-07-11T09:18:22.596Z</time>
      </trkpt>
      <trkpt lat="44.15626" lon="5.31277">
        <ele>1508</ele>
        <time>2020-07-11T09:18:23.596Z</time>
      </trkpt>
      <trkpt lat="44.1563" lon="5.31279">
        <ele>1508</ele>
        <time>2020-07-11T09:18:24.596Z</time>
      </trkpt>
      <trkpt lat="44.15633" lon="5.31281">
        <ele>1508</ele>
        <time>2020-07-11T09:18:25.596Z</time>
      </trkpt>
      <trkpt lat="44.15637" lon="5.31283">
        <ele>1509</ele>
        <time>2020-07-11T09:18:26.595Z</time>
      </trkpt>
      <trkpt lat="44.1564" lon="5.31284">
        <ele>1509</ele>
        <time>2020-07-11T09:18:27.596Z</time>
      </trkpt>
      <trkpt lat="44.15644" lon="5.31286">
        <ele>1509</ele>
        <time>2020-07-11T09:18:28.596Z</time>
      </trkpt>
      <trkpt lat="44.15648" lon="5.31288">
        <ele>1509</ele>
        <time>2020-07-11T09:18:29.596Z</time>
      </trkpt>
      <trkpt lat="44.15651" lon="5.3129">
        <ele>1509</ele>
        <time>2020-07-11T09:18:30.596Z</time>
      </trkpt>
      <trkpt lat="44.15655" lon="5.31291">
        <ele>1509</ele>
        <time>2020-07-11T09:18:31.596Z</time>
      </trkpt>
      <trkpt lat="44.15658" lon="5.31293">
        <ele>1508</ele>
        <time>2020-07-11T09:18:32.596Z</time>
      </trkpt>
      <trkpt lat="44.15662" lon="5.31294">
        <ele>1508</ele>
        <time>2020-07-11T09:18:33.595Z</time>
      </trkpt>
      <trkpt lat="44.15665" lon="5.31296">
        <ele>1507</ele>
        <time>2020-07-11T09:18:34.596Z</time>
      </trkpt>
      <trkpt lat="44.15669" lon="5.31297">
        <ele>1507</ele>
        <time>2020-07-11T09:18:35.596Z</time>
      </trkpt>
      <trkpt lat="44.15672" lon="5.31299">
        <ele>1507</ele>
        <time>2020-07-11T09:18:36.596Z</time>
      </trkpt>
      <trkpt lat="44.15676" lon="5.313">
        <ele>1506</ele>
        <time>2020-07-11T09:18:37.596Z</time>
      </trkpt>
      <trkpt lat="44.15679" lon="5.31301">
        <ele>1506</ele>
        <time>2020-07-11T09:18:38.596Z</time>
      </trkpt>
      <trkpt lat="44.15683" lon="5.31303">
        <ele>1506</ele>
        <time>2020-07-11T09:18:39.596Z</time>
      </trkpt>
      <trkpt lat="44.15686" lon="5.31305">
        <ele>1507</ele>
        <time>2020-07-11T09:18:40.596Z</time>
      </trkpt>
      <trkpt lat="44.1569" lon="5.31306">
        <ele>1507</ele>
        <time>2020-07-11T09:18:41.595Z</time>
      </trkpt>
      <trkpt lat="44.15693" lon="5.31308">
        <ele>1507</ele>
        <time>2020-07-11T09:18:42.595Z</time>
      </trkpt>
      <trkpt lat="44.15697" lon="5.3131">
        <ele>1507</ele>
        <time>2020-07-11T09:18:43.596Z</time>
      </trkpt>
      <trkpt lat="44.15701" lon="5.31311">
        <ele>1508</ele>
        <time>2020-07-11T09:18:44.595Z</time>
      </trkpt>
      <trkpt lat="44.15704" lon="5.31313">
        <ele>1508</ele>
        <time>2020-07-11T09:18:45.596Z</time>
      </trkpt>
      <trkpt lat="44.15707" lon="5.31315">
        <ele>1508</ele>
        <time>2020-07-11T09:18:46.596Z</time>
      </trkpt>
      <trkpt lat="44.15711" lon="5.31317">
        <ele>1508</ele>
        <time>2020-07-11T09:18:47.596Z</time>
      </trkpt>
      <trkpt lat="44.15714" lon="5.31319">
        <ele>1509</ele>
        <time>2020-07-11T09:18:48.595Z</time>
      </trkpt>
      <trkpt lat="44.15718" lon="5.31322">
        <ele>1509</ele>
        <time>2020-07-11T09:18:49.596Z</time>
      </trkpt>
      <trkpt lat="44.15721" lon="5.31324">
        <ele>1509</ele>
        <time>2020-07-11T09:18:50.596Z</time>
      </trkpt>
      <trkpt lat="44.15724" lon="5.31326">
        <ele>1509</ele>
        <time>2020-07-11T09:18:51.596Z</time>
      </trkpt>
      <trkpt lat="44.15728" lon="5.31329">
        <ele>1509</ele>
        <time>2020-07-11T09:18:52.596Z</time>
      </trkpt>
      <trkpt lat="44.15731" lon="5.31331">
        <ele>1509</ele>
        <time>2020-07-11T09:18:53.595Z</time>
      </trkpt>
      <trkpt lat="44.15734" lon="5.31334">
        <ele>1509</ele>
        <time>2020-07-11T09:18:54.596Z</time>
      </trkpt>
      <trkpt lat="44.15737" lon="5.31337">
        <ele>1510</ele>
        <time>2020-07-11T09:18:55.596Z</time>
      </trkpt>
      <trkpt lat="44.1574" lon="5.31339">
        <ele>1511</ele>
        <time>2020-07-11T09:18:56.596Z</time>
      </trkpt>
      <trkpt lat="44.15743" lon="5.31342">
        <ele>1511</ele>
        <time>2020-07-11T09:18:57.596Z</time>
      </trkpt>
      <trkpt lat="44.15747" lon="5.31344">
        <ele>1512</ele>
        <time>2020-07-11T09:18:58.595Z</time>
      </trkpt>
      <trkpt lat="44.1575" lon="5.31346">
        <ele>1512</ele>
        <time>2020-07-11T09:18:59.595Z</time>
      </trkpt>
      <trkpt lat="44.15753" lon="5.31348">
        <ele>1512</ele>
        <time>2020-07-11T09:19:00.595Z</time>
      </trkpt>
      <trkpt lat="44.15757" lon="5.31349">
        <ele>1513</ele>
        <time>2020-07-11T09:19:01.596Z</time>
      </trkpt>
      <trkpt lat="44.1576" lon="5.3135">
        <ele>1513</ele>
        <time>2020-07-11T09:19:02.596Z</time>
      </trkpt>
      <trkpt lat="44.15764" lon="5.3135">
        <ele>1514</ele>
        <time>2020-07-11T09:19:03.596Z</time>
      </trkpt>
      <trkpt lat="44.15767" lon="5.31349">
        <ele>1514</ele>
        <time>2020-07-11T09:19:04.596Z</time>
      </trkpt>
      <trkpt lat="44.15771" lon="5.31347">
        <ele>1515</ele>
        <time>2020-07-11T09:19:05.596Z</time>
      </trkpt>
      <trkpt lat="44.15775" lon="5.31345">
        <ele>1515</ele>
        <time>2020-07-11T09:19:06.595Z</time>
      </trkpt>
      <trkpt lat="44.15779" lon="5.31342">
        <ele>1515</ele>
        <time>2020-07-11T09:19:07.596Z</time>
      </trkpt>
      <trkpt lat="44.15781" lon="5.31339">
        <ele>1514</ele>
        <time>2020-07-11T09:19:08.596Z</time>
      </trkpt>
      <trkpt lat="44.15783" lon="5.31335">
        <ele>1515</ele>
        <time>2020-07-11T09:19:09.596Z</time>
      </trkpt>
      <trkpt lat="44.15785" lon="5.3133">
        <ele>1515</ele>
        <time>2020-07-11T09:19:10.595Z</time>
      </trkpt>
      <trkpt lat="44.15786" lon="5.31325">
        <ele>1515</ele>
        <time>2020-07-11T09:19:11.596Z</time>
      </trkpt>
      <trkpt lat="44.15787" lon="5.31319">
        <ele>1515</ele>
        <time>2020-07-11T09:19:12.596Z</time>
      </trkpt>
      <trkpt lat="44.15787" lon="5.31314">
        <ele>1515</ele>
        <time>2020-07-11T09:19:13.595Z</time>
      </trkpt>
      <trkpt lat="44.15787" lon="5.31307">
        <ele>1514</ele>
        <time>2020-07-11T09:19:14.596Z</time>
      </trkpt>
      <trkpt lat="44.15787" lon="5.31303">
        <ele>1515</ele>
        <time>2020-07-11T09:19:15.596Z</time>
      </trkpt>
      <trkpt lat="44.15787" lon="5.31298">
        <ele>1515</ele>
        <time>2020-07-11T09:19:16.595Z</time>
      </trkpt>
      <trkpt lat="44.15787" lon="5.31293">
        <ele>1515</ele>
        <time>2020-07-11T09:19:17.596Z</time>
      </trkpt>
      <trkpt lat="44.15786" lon="5.31288">
        <ele>1515</ele>
        <time>2020-07-11T09:19:18.596Z</time>
      </trkpt>
      <trkpt lat="44.15786" lon="5.31283">
        <ele>1516</ele>
        <time>2020-07-11T09:19:19.596Z</time>
      </trkpt>
      <trkpt lat="44.15786" lon="5.31277">
        <ele>1516</ele>
        <time>2020-07-11T09:19:20.596Z</time>
      </trkpt>
      <trkpt lat="44.15785" lon="5.31272">
        <ele>1516</ele>
        <time>2020-07-11T09:19:21.596Z</time>
      </trkpt>
      <trkpt lat="44.15785" lon="5.31267">
        <ele>1516</ele>
        <time>2020-07-11T09:19:22.596Z</time>
      </trkpt>
      <trkpt lat="44.15784" lon="5.31261">
        <ele>1516</ele>
        <time>2020-07-11T09:19:23.596Z</time>
      </trkpt>
      <trkpt lat="44.15784" lon="5.31256">
        <ele>1517</ele>
        <time>2020-07-11T09:19:24.596Z</time>
      </trkpt>
      <trkpt lat="44.15784" lon="5.31252">
        <ele>1518</ele>
        <time>2020-07-11T09:19:25.595Z</time>
      </trkpt>
      <trkpt lat="44.15783" lon="5.31247">
        <ele>1518</ele>
        <time>2020-07-11T09:19:26.596Z</time>
      </trkpt>
      <trkpt lat="44.15783" lon="5.31242">
        <ele>1518</ele>
        <time>2020-07-11T09:19:27.595Z</time>
      </trkpt>
      <trkpt lat="44.15783" lon="5.31237">
        <ele>1518</ele>
        <time>2020-07-11T09:19:28.596Z</time>
      </trkpt>
      <trkpt lat="44.15782" lon="5.31232">
        <ele>1518</ele>
        <time>2020-07-11T09:19:29.596Z</time>
      </trkpt>
      <trkpt lat="44.15782" lon="5.31227">
        <ele>1518</ele>
        <time>2020-07-11T09:19:30.596Z</time>
      </trkpt>
      <trkpt lat="44.15781" lon="5.31223">
        <ele>1518</ele>
        <time>2020-07-11T09:19:31.596Z</time>
      </trkpt>
      <trkpt lat="44.1578" lon="5.31218">
        <ele>1518</ele>
        <time>2020-07-11T09:19:32.596Z</time>
      </trkpt>
      <trkpt lat="44.15779" lon="5.31213">
        <ele>1519</ele>
        <time>2020-07-11T09:19:33.595Z</time>
      </trkpt>
      <trkpt lat="44.15778" lon="5.31209">
        <ele>1519</ele>
        <time>2020-07-11T09:19:34.595Z</time>
      </trkpt>
      <trkpt lat="44.15776" lon="5.31204">
        <ele>1520</ele>
        <time>2020-07-11T09:19:35.595Z</time>
      </trkpt>
      <trkpt lat="44.15775" lon="5.312">
        <ele>1521</ele>
        <time>2020-07-11T09:19:36.596Z</time>
      </trkpt>
      <trkpt lat="44.15773" lon="5.31196">
        <ele>1521</ele>
        <time>2020-07-11T09:19:37.596Z</time>
      </trkpt>
      <trkpt lat="44.15771" lon="5.31192">
        <ele>1522</ele>
        <time>2020-07-11T09:19:38.596Z</time>
      </trkpt>
      <trkpt lat="44.15769" lon="5.31188">
        <ele>1523</ele>
        <time>2020-07-11T09:19:39.595Z</time>
      </trkpt>
      <trkpt lat="44.15767" lon="5.31183">
        <ele>1523</ele>
        <time>2020-07-11T09:19:40.596Z</time>
      </trkpt>
      <trkpt lat="44.15765" lon="5.31179">
        <ele>1524</ele>
        <time>2020-07-11T09:19:41.596Z</time>
      </trkpt>
      <trkpt lat="44.15763" lon="5.31174">
        <ele>1524</ele>
        <time>2020-07-11T09:19:42.596Z</time>
      </trkpt>
      <trkpt lat="44.15762" lon="5.3117">
        <ele>1525</ele>
        <time>2020-07-11T09:19:43.595Z</time>
      </trkpt>
      <trkpt lat="44.1576" lon="5.31166">
        <ele>1525</ele>
        <time>2020-07-11T09:19:44.596Z</time>
      </trkpt>
      <trkpt lat="44.15758" lon="5.31162">
        <ele>1525</ele>
        <time>2020-07-11T09:19:45.595Z</time>
      </trkpt>
      <trkpt lat="44.15757" lon="5.31157">
        <ele>1526</ele>
        <time>2020-07-11T09:19:46.596Z</time>
      </trkpt>
      <trkpt lat="44.15756" lon="5.31153">
        <ele>1526</ele>
        <time>2020-07-11T09:19:47.596Z</time>
      </trkpt>
      <trkpt lat="44.15754" lon="5.31148">
        <ele>1526</ele>
        <time>2020-07-11T09:19:48.595Z</time>
      </trkpt>
      <trkpt lat="44.15753" lon="5.31144">
        <ele>1526</ele>
        <time>2020-07-11T09:19:49.596Z</time>
      </trkpt>
      <trkpt lat="44.15752" lon="5.31139">
        <ele>1526</ele>
        <time>2020-07-11T09:19:50.595Z</time>
      </trkpt>
      <trkpt lat="44.15751" lon="5.31134">
        <ele>1527</ele>
        <time>2020-07-11T09:19:51.596Z</time>
      </trkpt>
      <trkpt lat="44.1575" lon="5.3113">
        <ele>1527</ele>
        <time>2020-07-11T09:19:52.596Z</time>
      </trkpt>
      <trkpt lat="44.15749" lon="5.31125">
        <ele>1527</ele>
        <time>2020-07-11T09:19:53.596Z</time>
      </trkpt>
      <trkpt lat="44.15748" lon="5.3112">
        <ele>1528</ele>
        <time>2020-07-11T09:19:54.595Z</time>
      </trkpt>
      <trkpt lat="44.15747" lon="5.31116">
        <ele>1528</ele>
        <time>2020-07-11T09:19:55.596Z</time>
      </trkpt>
      <trkpt lat="44.15747" lon="5.31112">
        <ele>1528</ele>
        <time>2020-07-11T09:19:56.596Z</time>
      </trkpt>
      <trkpt lat="44.15746" lon="5.31107">
        <ele>1529</ele>
        <time>2020-07-11T09:19:57.596Z</time>
      </trkpt>
      <trkpt lat="44.15746" lon="5.31103">
        <ele>1529</ele>
        <time>2020-07-11T09:19:58.596Z</time>
      </trkpt>
      <trkpt lat="44.15745" lon="5.31099">
        <ele>1529</ele>
        <time>2020-07-11T09:19:59.596Z</time>
      </trkpt>
      <trkpt lat="44.15745" lon="5.31095">
        <ele>1530</ele>
        <time>2020-07-11T09:20:00.595Z</time>
      </trkpt>
      <trkpt lat="44.15744" lon="5.31091">
        <ele>1530</ele>
        <time>2020-07-11T09:20:01.595Z</time>
      </trkpt>
      <trkpt lat="44.15744" lon="5.31086">
        <ele>1530</ele>
        <time>2020-07-11T09:20:02.595Z</time>
      </trkpt>
      <trkpt lat="44.15743" lon="5.31081">
        <ele>1530</ele>
        <time>2020-07-11T09:20:03.596Z</time>
      </trkpt>
      <trkpt lat="44.15743" lon="5.31077">
        <ele>1530</ele>
        <time>2020-07-11T09:20:04.596Z</time>
      </trkpt>
      <trkpt lat="44.15743" lon="5.31072">
        <ele>1530</ele>
        <time>2020-07-11T09:20:05.596Z</time>
      </trkpt>
      <trkpt lat="44.15743" lon="5.31068">
        <ele>1531</ele>
        <time>2020-07-11T09:20:06.596Z</time>
      </trkpt>
      <trkpt lat="44.15743" lon="5.31064">
        <ele>1531</ele>
        <time>2020-07-11T09:20:07.596Z</time>
      </trkpt>
      <trkpt lat="44.15743" lon="5.31059">
        <ele>1531</ele>
        <time>2020-07-11T09:20:08.596Z</time>
      </trkpt>
      <trkpt lat="44.15743" lon="5.31055">
        <ele>1531</ele>
        <time>2020-07-11T09:20:09.596Z</time>
      </trkpt>
      <trkpt lat="44.15743" lon="5.31051">
        <ele>1532</ele>
        <time>2020-07-11T09:20:10.596Z</time>
      </trkpt>
      <trkpt lat="44.15743" lon="5.31046">
        <ele>1532</ele>
        <time>2020-07-11T09:20:11.595Z</time>
      </trkpt>
      <trkpt lat="44.15743" lon="5.31042">
        <ele>1532</ele>
        <time>2020-07-11T09:20:12.596Z</time>
      </trkpt>
      <trkpt lat="44.15743" lon="5.31038">
        <ele>1533</ele>
        <time>2020-07-11T09:20:13.596Z</time>
      </trkpt>
      <trkpt lat="44.15744" lon="5.31033">
        <ele>1533</ele>
        <time>2020-07-11T09:20:14.596Z</time>
      </trkpt>
      <trkpt lat="44.15744" lon="5.31029">
        <ele>1533</ele>
        <time>2020-07-11T09:20:15.596Z</time>
      </trkpt>
      <trkpt lat="44.15745" lon="5.31025">
        <ele>1534</ele>
        <time>2020-07-11T09:20:16.596Z</time>
      </trkpt>
      <trkpt lat="44.15745" lon="5.31021">
        <ele>1534</ele>
        <time>2020-07-11T09:20:17.596Z</time>
      </trkpt>
      <trkpt lat="44.15746" lon="5.31016">
        <ele>1535</ele>
        <time>2020-07-11T09:20:18.596Z</time>
      </trkpt>
      <trkpt lat="44.15747" lon="5.31012">
        <ele>1535</ele>
        <time>2020-07-11T09:20:19.595Z</time>
      </trkpt>
      <trkpt lat="44.15748" lon="5.31008">
        <ele>1535</ele>
        <time>2020-07-11T09:20:20.595Z</time>
      </trkpt>
      <trkpt lat="44.15749" lon="5.31003">
        <ele>1535</ele>
        <time>2020-07-11T09:20:21.596Z</time>
      </trkpt>
      <trkpt lat="44.15749" lon="5.30999">
        <ele>1536</ele>
        <time>2020-07-11T09:20:22.596Z</time>
      </trkpt>
      <trkpt lat="44.1575" lon="5.30995">
        <ele>1536</ele>
        <time>2020-07-11T09:20:23.596Z</time>
      </trkpt>
      <trkpt lat="44.15751" lon="5.3099">
        <ele>1536</ele>
        <time>2020-07-11T09:20:24.595Z</time>
      </trkpt>
      <trkpt lat="44.15752" lon="5.30986">
        <ele>1537</ele>
        <time>2020-07-11T09:20:25.596Z</time>
      </trkpt>
      <trkpt lat="44.15753" lon="5.30982">
        <ele>1537</ele>
        <time>2020-07-11T09:20:26.596Z</time>
      </trkpt>
      <trkpt lat="44.15754" lon="5.30977">
        <ele>1537</ele>
        <time>2020-07-11T09:20:27.596Z</time>
      </trkpt>
      <trkpt lat="44.15754" lon="5.30973">
        <ele>1538</ele>
        <time>2020-07-11T09:20:28.596Z</time>
      </trkpt>
      <trkpt lat="44.15755" lon="5.30968">
        <ele>1538</ele>
        <time>2020-07-11T09:20:29.596Z</time>
      </trkpt>
      <trkpt lat="44.15756" lon="5.30964">
        <ele>1538</ele>
        <time>2020-07-11T09:20:30.596Z</time>
      </trkpt>
      <trkpt lat="44.15758" lon="5.3096">
        <ele>1537</ele>
        <time>2020-07-11T09:20:31.596Z</time>
      </trkpt>
      <trkpt lat="44.15759" lon="5.30956">
        <ele>1537</ele>
        <time>2020-07-11T09:20:32.596Z</time>
      </trkpt>
      <trkpt lat="44.1576" lon="5.30952">
        <ele>1538</ele>
        <time>2020-07-11T09:20:33.595Z</time>
      </trkpt>
      <trkpt lat="44.15761" lon="5.30948">
        <ele>1538</ele>
        <time>2020-07-11T09:20:34.596Z</time>
      </trkpt>
      <trkpt lat="44.15762" lon="5.30943">
        <ele>1539</ele>
        <time>2020-07-11T09:20:35.596Z</time>
      </trkpt>
      <trkpt lat="44.15764" lon="5.30939">
        <ele>1539</ele>
        <time>2020-07-11T09:20:36.596Z</time>
      </trkpt>
      <trkpt lat="44.15765" lon="5.30935">
        <ele>1539</ele>
        <time>2020-07-11T09:20:37.596Z</time>
      </trkpt>
      <trkpt lat="44.15766" lon="5.30931">
        <ele>1540</ele>
        <time>2020-07-11T09:20:38.596Z</time>
      </trkpt>
      <trkpt lat="44.15768" lon="5.30928">
        <ele>1540</ele>
        <time>2020-07-11T09:20:39.596Z</time>
      </trkpt>
      <trkpt lat="44.15769" lon="5.30924">
        <ele>1540</ele>
        <time>2020-07-11T09:20:40.596Z</time>
      </trkpt>
      <trkpt lat="44.15771" lon="5.3092">
        <ele>1540</ele>
        <time>2020-07-11T09:20:41.596Z</time>
      </trkpt>
      <trkpt lat="44.15772" lon="5.30917">
        <ele>1541</ele>
        <time>2020-07-11T09:20:42.596Z</time>
      </trkpt>
      <trkpt lat="44.15774" lon="5.30913">
        <ele>1541</ele>
        <time>2020-07-11T09:20:43.596Z</time>
      </trkpt>
      <trkpt lat="44.15776" lon="5.30909">
        <ele>1541</ele>
        <time>2020-07-11T09:20:44.596Z</time>
      </trkpt>
      <trkpt lat="44.15777" lon="5.30905">
        <ele>1541</ele>
        <time>2020-07-11T09:20:45.595Z</time>
      </trkpt>
      <trkpt lat="44.15779" lon="5.30902">
        <ele>1542</ele>
        <time>2020-07-11T09:20:46.595Z</time>
      </trkpt>
      <trkpt lat="44.1578" lon="5.30899">
        <ele>1542</ele>
        <time>2020-07-11T09:20:47.596Z</time>
      </trkpt>
      <trkpt lat="44.15782" lon="5.30895">
        <ele>1543</ele>
        <time>2020-07-11T09:20:48.596Z</time>
      </trkpt>
      <trkpt lat="44.15784" lon="5.30892">
        <ele>1543</ele>
        <time>2020-07-11T09:20:49.596Z</time>
      </trkpt>
      <trkpt lat="44.15786" lon="5.30889">
        <ele>1543</ele>
        <time>2020-07-11T09:20:50.596Z</time>
      </trkpt>
      <trkpt lat="44.15789" lon="5.30886">
        <ele>1543</ele>
        <time>2020-07-11T09:20:51.596Z</time>
      </trkpt>
      <trkpt lat="44.15791" lon="5.30883">
        <ele>1543</ele>
        <time>2020-07-11T09:20:52.596Z</time>
      </trkpt>
      <trkpt lat="44.15793" lon="5.3088">
        <ele>1543</ele>
        <time>2020-07-11T09:20:53.596Z</time>
      </trkpt>
      <trkpt lat="44.15796" lon="5.30877">
        <ele>1543</ele>
        <time>2020-07-11T09:20:54.595Z</time>
      </trkpt>
      <trkpt lat="44.15798" lon="5.30873">
        <ele>1543</ele>
        <time>2020-07-11T09:20:55.596Z</time>
      </trkpt>
      <trkpt lat="44.158" lon="5.3087">
        <ele>1544</ele>
        <time>2020-07-11T09:20:56.596Z</time>
      </trkpt>
      <trkpt lat="44.15803" lon="5.30867">
        <ele>1544</ele>
        <time>2020-07-11T09:20:57.596Z</time>
      </trkpt>
      <trkpt lat="44.15805" lon="5.30864">
        <ele>1545</ele>
        <time>2020-07-11T09:20:58.596Z</time>
      </trkpt>
      <trkpt lat="44.15808" lon="5.30862">
        <ele>1545</ele>
        <time>2020-07-11T09:20:59.596Z</time>
      </trkpt>
      <trkpt lat="44.1581" lon="5.30859">
        <ele>1546</ele>
        <time>2020-07-11T09:21:00.596Z</time>
      </trkpt>
      <trkpt lat="44.15813" lon="5.30856">
        <ele>1546</ele>
        <time>2020-07-11T09:21:01.596Z</time>
      </trkpt>
      <trkpt lat="44.15816" lon="5.30854">
        <ele>1546</ele>
        <time>2020-07-11T09:21:02.596Z</time>
      </trkpt>
      <trkpt lat="44.15818" lon="5.30851">
        <ele>1545</ele>
        <time>2020-07-11T09:21:03.596Z</time>
      </trkpt>
      <trkpt lat="44.1582" lon="5.30849">
        <ele>1545</ele>
        <time>2020-07-11T09:21:04.596Z</time>
      </trkpt>
      <trkpt lat="44.15823" lon="5.30847">
        <ele>1545</ele>
        <time>2020-07-11T09:21:05.596Z</time>
      </trkpt>
      <trkpt lat="44.15826" lon="5.30845">
        <ele>1545</ele>
        <time>2020-07-11T09:21:06.595Z</time>
      </trkpt>
      <trkpt lat="44.15829" lon="5.30843">
        <ele>1545</ele>
        <time>2020-07-11T09:21:07.595Z</time>
      </trkpt>
      <trkpt lat="44.15831" lon="5.30841">
        <ele>1545</ele>
        <time>2020-07-11T09:21:08.595Z</time>
      </trkpt>
      <trkpt lat="44.15834" lon="5.30839">
        <ele>1546</ele>
        <time>2020-07-11T09:21:09.596Z</time>
      </trkpt>
      <trkpt lat="44.15836" lon="5.30838">
        <ele>1546</ele>
        <time>2020-07-11T09:21:10.595Z</time>
      </trkpt>
      <trkpt lat="44.15839" lon="5.30836">
        <ele>1546</ele>
        <time>2020-07-11T09:21:11.595Z</time>
      </trkpt>
      <trkpt lat="44.15841" lon="5.30835">
        <ele>1546</ele>
        <time>2020-07-11T09:21:12.596Z</time>
      </trkpt>
      <trkpt lat="44.15844" lon="5.30834">
        <ele>1546</ele>
        <time>2020-07-11T09:21:13.596Z</time>
      </trkpt>
      <trkpt lat="44.15847" lon="5.30833">
        <ele>1546</ele>
        <time>2020-07-11T09:21:14.595Z</time>
      </trkpt>
      <trkpt lat="44.1585" lon="5.30831">
        <ele>1546</ele>
        <time>2020-07-11T09:21:15.595Z</time>
      </trkpt>
      <trkpt lat="44.15853" lon="5.3083">
        <ele>1546</ele>
        <time>2020-07-11T09:21:16.596Z</time>
      </trkpt>
      <trkpt lat="44.15856" lon="5.30829">
        <ele>1546</ele>
        <time>2020-07-11T09:21:17.596Z</time>
      </trkpt>
      <trkpt lat="44.15859" lon="5.30828">
        <ele>1546</ele>
        <time>2020-07-11T09:21:18.596Z</time>
      </trkpt>
      <trkpt lat="44.15862" lon="5.30826">
        <ele>1546</ele>
        <time>2020-07-11T09:21:19.596Z</time>
      </trkpt>
      <trkpt lat="44.15865" lon="5.30825">
        <ele>1546</ele>
        <time>2020-07-11T09:21:20.596Z</time>
      </trkpt>
      <trkpt lat="44.15868" lon="5.30824">
        <ele>1546</ele>
        <time>2020-07-11T09:21:21.596Z</time>
      </trkpt>
      <trkpt lat="44.15872" lon="5.30822">
        <ele>1547</ele>
        <time>2020-07-11T09:21:22.595Z</time>
      </trkpt>
      <trkpt lat="44.15875" lon="5.30821">
        <ele>1547</ele>
        <time>2020-07-11T09:21:23.596Z</time>
      </trkpt>
      <trkpt lat="44.15878" lon="5.3082">
        <ele>1548</ele>
        <time>2020-07-11T09:21:24.596Z</time>
      </trkpt>
      <trkpt lat="44.15881" lon="5.30819">
        <ele>1548</ele>
        <time>2020-07-11T09:21:25.596Z</time>
      </trkpt>
      <trkpt lat="44.15885" lon="5.30818">
        <ele>1548</ele>
        <time>2020-07-11T09:21:26.596Z</time>
      </trkpt>
      <trkpt lat="44.15888" lon="5.30817">
        <ele>1548</ele>
        <time>2020-07-11T09:21:27.596Z</time>
      </trkpt>
      <trkpt lat="44.15891" lon="5.30816">
        <ele>1549</ele>
        <time>2020-07-11T09:21:28.596Z</time>
      </trkpt>
      <trkpt lat="44.15894" lon="5.30816">
        <ele>1549</ele>
        <time>2020-07-11T09:21:29.595Z</time>
      </trkpt>
      <trkpt lat="44.15897" lon="5.30815">
        <ele>1549</ele>
        <time>2020-07-11T09:21:30.596Z</time>
      </trkpt>
      <trkpt lat="44.159" lon="5.30815">
        <ele>1550</ele>
        <time>2020-07-11T09:21:31.596Z</time>
      </trkpt>
      <trkpt lat="44.15904" lon="5.30814">
        <ele>1550</ele>
        <time>2020-07-11T09:21:32.596Z</time>
      </trkpt>
      <trkpt lat="44.15907" lon="5.30814">
        <ele>1551</ele>
        <time>2020-07-11T09:21:33.596Z</time>
      </trkpt>
      <trkpt lat="44.1591" lon="5.30814">
        <ele>1551</ele>
        <time>2020-07-11T09:21:34.596Z</time>
      </trkpt>
      <trkpt lat="44.15913" lon="5.30814">
        <ele>1551</ele>
        <time>2020-07-11T09:21:35.596Z</time>
      </trkpt>
      <trkpt lat="44.15917" lon="5.30814">
        <ele>1552</ele>
        <time>2020-07-11T09:21:36.596Z</time>
      </trkpt>
      <trkpt lat="44.1592" lon="5.30815">
        <ele>1552</ele>
        <time>2020-07-11T09:21:37.596Z</time>
      </trkpt>
      <trkpt lat="44.15923" lon="5.30815">
        <ele>1553</ele>
        <time>2020-07-11T09:21:38.595Z</time>
      </trkpt>
      <trkpt lat="44.15927" lon="5.30815">
        <ele>1553</ele>
        <time>2020-07-11T09:21:39.595Z</time>
      </trkpt>
      <trkpt lat="44.1593" lon="5.30816">
        <ele>1553</ele>
        <time>2020-07-11T09:21:40.596Z</time>
      </trkpt>
      <trkpt lat="44.15933" lon="5.30817">
        <ele>1553</ele>
        <time>2020-07-11T09:21:41.596Z</time>
      </trkpt>
      <trkpt lat="44.15936" lon="5.30818">
        <ele>1553</ele>
        <time>2020-07-11T09:21:42.595Z</time>
      </trkpt>
      <trkpt lat="44.15939" lon="5.30818">
        <ele>1554</ele>
        <time>2020-07-11T09:21:43.596Z</time>
      </trkpt>
      <trkpt lat="44.15943" lon="5.30819">
        <ele>1554</ele>
        <time>2020-07-11T09:21:44.596Z</time>
      </trkpt>
      <trkpt lat="44.15946" lon="5.30819">
        <ele>1555</ele>
        <time>2020-07-11T09:21:45.595Z</time>
      </trkpt>
      <trkpt lat="44.15949" lon="5.30819">
        <ele>1556</ele>
        <time>2020-07-11T09:21:46.596Z</time>
      </trkpt>
      <trkpt lat="44.15952" lon="5.30819">
        <ele>1556</ele>
        <time>2020-07-11T09:21:47.596Z</time>
      </trkpt>
      <trkpt lat="44.15955" lon="5.3082">
        <ele>1556</ele>
        <time>2020-07-11T09:21:48.595Z</time>
      </trkpt>
      <trkpt lat="44.15958" lon="5.3082">
        <ele>1557</ele>
        <time>2020-07-11T09:21:49.596Z</time>
      </trkpt>
      <trkpt lat="44.15962" lon="5.30821">
        <ele>1557</ele>
        <time>2020-07-11T09:21:50.596Z</time>
      </trkpt>
      <trkpt lat="44.15965" lon="5.30821">
        <ele>1557</ele>
        <time>2020-07-11T09:21:51.596Z</time>
      </trkpt>
      <trkpt lat="44.15968" lon="5.30822">
        <ele>1557</ele>
        <time>2020-07-11T09:21:52.596Z</time>
      </trkpt>
      <trkpt lat="44.15971" lon="5.30822">
        <ele>1558</ele>
        <time>2020-07-11T09:21:53.596Z</time>
      </trkpt>
      <trkpt lat="44.15974" lon="5.30823">
        <ele>1558</ele>
        <time>2020-07-11T09:21:54.596Z</time>
      </trkpt>
      <trkpt lat="44.15977" lon="5.30823">
        <ele>1558</ele>
        <time>2020-07-11T09:21:55.595Z</time>
      </trkpt>
      <trkpt lat="44.1598" lon="5.30823">
        <ele>1558</ele>
        <time>2020-07-11T09:21:56.596Z</time>
      </trkpt>
      <trkpt lat="44.15983" lon="5.30824">
        <ele>1558</ele>
        <time>2020-07-11T09:21:57.596Z</time>
      </trkpt>
      <trkpt lat="44.15987" lon="5.30824">
        <ele>1558</ele>
        <time>2020-07-11T09:21:58.596Z</time>
      </trkpt>
      <trkpt lat="44.1599" lon="5.30825">
        <ele>1557</ele>
        <time>2020-07-11T09:21:59.596Z</time>
      </trkpt>
      <trkpt lat="44.15993" lon="5.30825">
        <ele>1557</ele>
        <time>2020-07-11T09:22:00.595Z</time>
      </trkpt>
      <trkpt lat="44.15997" lon="5.30825">
        <ele>1557</ele>
        <time>2020-07-11T09:22:01.596Z</time>
      </trkpt>
      <trkpt lat="44.16" lon="5.30826">
        <ele>1558</ele>
        <time>2020-07-11T09:22:02.596Z</time>
      </trkpt>
      <trkpt lat="44.16003" lon="5.30826">
        <ele>1558</ele>
        <time>2020-07-11T09:22:03.596Z</time>
      </trkpt>
      <trkpt lat="44.16007" lon="5.30826">
        <ele>1559</ele>
        <time>2020-07-11T09:22:04.596Z</time>
      </trkpt>
      <trkpt lat="44.1601" lon="5.30826">
        <ele>1560</ele>
        <time>2020-07-11T09:22:05.596Z</time>
      </trkpt>
      <trkpt lat="44.16014" lon="5.30825">
        <ele>1560</ele>
        <time>2020-07-11T09:22:06.596Z</time>
      </trkpt>
      <trkpt lat="44.16017" lon="5.30824">
        <ele>1560</ele>
        <time>2020-07-11T09:22:07.595Z</time>
      </trkpt>
      <trkpt lat="44.1602" lon="5.30823">
        <ele>1560</ele>
        <time>2020-07-11T09:22:08.596Z</time>
      </trkpt>
      <trkpt lat="44.16024" lon="5.30821">
        <ele>1560</ele>
        <time>2020-07-11T09:22:09.595Z</time>
      </trkpt>
      <trkpt lat="44.16027" lon="5.30818">
        <ele>1561</ele>
        <time>2020-07-11T09:22:10.596Z</time>
      </trkpt>
      <trkpt lat="44.1603" lon="5.30814">
        <ele>1561</ele>
        <time>2020-07-11T09:22:11.596Z</time>
      </trkpt>
      <trkpt lat="44.16032" lon="5.3081">
        <ele>1562</ele>
        <time>2020-07-11T09:22:12.596Z</time>
      </trkpt>
      <trkpt lat="44.16033" lon="5.30805">
        <ele>1562</ele>
        <time>2020-07-11T09:22:13.596Z</time>
      </trkpt>
      <trkpt lat="44.16033" lon="5.30799">
        <ele>1563</ele>
        <time>2020-07-11T09:22:14.596Z</time>
      </trkpt>
      <trkpt lat="44.16033" lon="5.30794">
        <ele>1564</ele>
        <time>2020-07-11T09:22:15.596Z</time>
      </trkpt>
      <trkpt lat="44.16032" lon="5.30789">
        <ele>1564</ele>
        <time>2020-07-11T09:22:16.596Z</time>
      </trkpt>
      <trkpt lat="44.1603" lon="5.30784">
        <ele>1564</ele>
        <time>2020-07-11T09:22:17.596Z</time>
      </trkpt>
      <trkpt lat="44.16029" lon="5.30779">
        <ele>1564</ele>
        <time>2020-07-11T09:22:18.595Z</time>
      </trkpt>
      <trkpt lat="44.16027" lon="5.30774">
        <ele>1564</ele>
        <time>2020-07-11T09:22:19.596Z</time>
      </trkpt>
      <trkpt lat="44.16025" lon="5.30769">
        <ele>1565</ele>
        <time>2020-07-11T09:22:20.595Z</time>
      </trkpt>
      <trkpt lat="44.16023" lon="5.30765">
        <ele>1565</ele>
        <time>2020-07-11T09:22:21.596Z</time>
      </trkpt>
      <trkpt lat="44.16021" lon="5.3076">
        <ele>1565</ele>
        <time>2020-07-11T09:22:22.596Z</time>
      </trkpt>
      <trkpt lat="44.16019" lon="5.30756">
        <ele>1565</ele>
        <time>2020-07-11T09:22:23.595Z</time>
      </trkpt>
      <trkpt lat="44.16017" lon="5.30751">
        <ele>1566</ele>
        <time>2020-07-11T09:22:24.596Z</time>
      </trkpt>
      <trkpt lat="44.16015" lon="5.30748">
        <ele>1566</ele>
        <time>2020-07-11T09:22:25.595Z</time>
      </trkpt>
      <trkpt lat="44.16013" lon="5.30744">
        <ele>1566</ele>
        <time>2020-07-11T09:22:26.596Z</time>
      </trkpt>
      <trkpt lat="44.16011" lon="5.3074">
        <ele>1566</ele>
        <time>2020-07-11T09:22:27.596Z</time>
      </trkpt>
      <trkpt lat="44.16009" lon="5.30736">
        <ele>1566</ele>
        <time>2020-07-11T09:22:28.596Z</time>
      </trkpt>
      <trkpt lat="44.16007" lon="5.30732">
        <ele>1566</ele>
        <time>2020-07-11T09:22:29.596Z</time>
      </trkpt>
      <trkpt lat="44.16005" lon="5.30727">
        <ele>1566</ele>
        <time>2020-07-11T09:22:30.595Z</time>
      </trkpt>
      <trkpt lat="44.16003" lon="5.30723">
        <ele>1567</ele>
        <time>2020-07-11T09:22:31.596Z</time>
      </trkpt>
      <trkpt lat="44.16001" lon="5.30719">
        <ele>1567</ele>
        <time>2020-07-11T09:22:32.596Z</time>
      </trkpt>
      <trkpt lat="44.15999" lon="5.30714">
        <ele>1567</ele>
        <time>2020-07-11T09:22:33.596Z</time>
      </trkpt>
      <trkpt lat="44.15998" lon="5.3071">
        <ele>1567</ele>
        <time>2020-07-11T09:22:34.595Z</time>
      </trkpt>
      <trkpt lat="44.15996" lon="5.30705">
        <ele>1568</ele>
        <time>2020-07-11T09:22:35.595Z</time>
      </trkpt>
      <trkpt lat="44.15995" lon="5.30701">
        <ele>1568</ele>
        <time>2020-07-11T09:22:36.596Z</time>
      </trkpt>
      <trkpt lat="44.15994" lon="5.30696">
        <ele>1568</ele>
        <time>2020-07-11T09:22:37.596Z</time>
      </trkpt>
      <trkpt lat="44.15992" lon="5.30691">
        <ele>1568</ele>
        <time>2020-07-11T09:22:38.595Z</time>
      </trkpt>
      <trkpt lat="44.15991" lon="5.30687">
        <ele>1568</ele>
        <time>2020-07-11T09:22:39.596Z</time>
      </trkpt>
      <trkpt lat="44.1599" lon="5.30682">
        <ele>1568</ele>
        <time>2020-07-11T09:22:40.596Z</time>
      </trkpt>
      <trkpt lat="44.15988" lon="5.30678">
        <ele>1569</ele>
        <time>2020-07-11T09:22:41.595Z</time>
      </trkpt>
      <trkpt lat="44.15987" lon="5.30674">
        <ele>1569</ele>
        <time>2020-07-11T09:22:42.595Z</time>
      </trkpt>
      <trkpt lat="44.15986" lon="5.30669">
        <ele>1570</ele>
        <time>2020-07-11T09:22:43.596Z</time>
      </trkpt>
      <trkpt lat="44.15985" lon="5.30665">
        <ele>1570</ele>
        <time>2020-07-11T09:22:44.596Z</time>
      </trkpt>
      <trkpt lat="44.15984" lon="5.3066">
        <ele>1570</ele>
        <time>2020-07-11T09:22:45.596Z</time>
      </trkpt>
      <trkpt lat="44.15983" lon="5.30656">
        <ele>1571</ele>
        <time>2020-07-11T09:22:46.595Z</time>
      </trkpt>
      <trkpt lat="44.15982" lon="5.30652">
        <ele>1571</ele>
        <time>2020-07-11T09:22:47.595Z</time>
      </trkpt>
      <trkpt lat="44.15981" lon="5.30648">
        <ele>1572</ele>
        <time>2020-07-11T09:22:48.596Z</time>
      </trkpt>
      <trkpt lat="44.1598" lon="5.30644">
        <ele>1572</ele>
        <time>2020-07-11T09:22:49.596Z</time>
      </trkpt>
      <trkpt lat="44.15979" lon="5.30639">
        <ele>1573</ele>
        <time>2020-07-11T09:22:50.596Z</time>
      </trkpt>
      <trkpt lat="44.15978" lon="5.30635">
        <ele>1573</ele>
        <time>2020-07-11T09:22:51.596Z</time>
      </trkpt>
      <trkpt lat="44.15978" lon="5.30631">
        <ele>1573</ele>
        <time>2020-07-11T09:22:52.596Z</time>
      </trkpt>
      <trkpt lat="44.15977" lon="5.30626">
        <ele>1573</ele>
        <time>2020-07-11T09:22:53.596Z</time>
      </trkpt>
      <trkpt lat="44.15976" lon="5.30622">
        <ele>1574</ele>
        <time>2020-07-11T09:22:54.595Z</time>
      </trkpt>
      <trkpt lat="44.15975" lon="5.30618">
        <ele>1574</ele>
        <time>2020-07-11T09:22:55.596Z</time>
      </trkpt>
      <trkpt lat="44.15974" lon="5.30613">
        <ele>1574</ele>
        <time>2020-07-11T09:22:56.596Z</time>
      </trkpt>
      <trkpt lat="44.15973" lon="5.30609">
        <ele>1574</ele>
        <time>2020-07-11T09:22:57.596Z</time>
      </trkpt>
      <trkpt lat="44.15973" lon="5.30604">
        <ele>1574</ele>
        <time>2020-07-11T09:22:58.595Z</time>
      </trkpt>
      <trkpt lat="44.15972" lon="5.306">
        <ele>1575</ele>
        <time>2020-07-11T09:22:59.596Z</time>
      </trkpt>
      <trkpt lat="44.15971" lon="5.30596">
        <ele>1575</ele>
        <time>2020-07-11T09:23:00.596Z</time>
      </trkpt>
      <trkpt lat="44.1597" lon="5.30591">
        <ele>1575</ele>
        <time>2020-07-11T09:23:01.596Z</time>
      </trkpt>
      <trkpt lat="44.15969" lon="5.30587">
        <ele>1575</ele>
        <time>2020-07-11T09:23:02.596Z</time>
      </trkpt>
      <trkpt lat="44.15969" lon="5.30582">
        <ele>1576</ele>
        <time>2020-07-11T09:23:03.596Z</time>
      </trkpt>
      <trkpt lat="44.15968" lon="5.30578">
        <ele>1576</ele>
        <time>2020-07-11T09:23:04.595Z</time>
      </trkpt>
      <trkpt lat="44.15967" lon="5.30574">
        <ele>1576</ele>
        <time>2020-07-11T09:23:05.596Z</time>
      </trkpt>
      <trkpt lat="44.15966" lon="5.30569">
        <ele>1577</ele>
        <time>2020-07-11T09:23:06.596Z</time>
      </trkpt>
      <trkpt lat="44.15965" lon="5.30564">
        <ele>1577</ele>
        <time>2020-07-11T09:23:07.596Z</time>
      </trkpt>
      <trkpt lat="44.15965" lon="5.30559">
        <ele>1577</ele>
        <time>2020-07-11T09:23:08.596Z</time>
      </trkpt>
      <trkpt lat="44.15964" lon="5.30555">
        <ele>1577</ele>
        <time>2020-07-11T09:23:09.596Z</time>
      </trkpt>
      <trkpt lat="44.15964" lon="5.3055">
        <ele>1577</ele>
        <time>2020-07-11T09:23:10.595Z</time>
      </trkpt>
      <trkpt lat="44.15964" lon="5.30546">
        <ele>1577</ele>
        <time>2020-07-11T09:23:11.596Z</time>
      </trkpt>
      <trkpt lat="44.15964" lon="5.30541">
        <ele>1578</ele>
        <time>2020-07-11T09:23:12.596Z</time>
      </trkpt>
      <trkpt lat="44.15964" lon="5.30537">
        <ele>1578</ele>
        <time>2020-07-11T09:23:13.596Z</time>
      </trkpt>
      <trkpt lat="44.15964" lon="5.30532">
        <ele>1578</ele>
        <time>2020-07-11T09:23:14.595Z</time>
      </trkpt>
      <trkpt lat="44.15964" lon="5.30527">
        <ele>1578</ele>
        <time>2020-07-11T09:23:15.595Z</time>
      </trkpt>
      <trkpt lat="44.15964" lon="5.30522">
        <ele>1579</ele>
        <time>2020-07-11T09:23:16.596Z</time>
      </trkpt>
      <trkpt lat="44.15964" lon="5.30518">
        <ele>1579</ele>
        <time>2020-07-11T09:23:17.596Z</time>
      </trkpt>
      <trkpt lat="44.15964" lon="5.30513">
        <ele>1579</ele>
        <time>2020-07-11T09:23:18.595Z</time>
      </trkpt>
      <trkpt lat="44.15965" lon="5.30509">
        <ele>1580</ele>
        <time>2020-07-11T09:23:19.595Z</time>
      </trkpt>
      <trkpt lat="44.15966" lon="5.30504">
        <ele>1580</ele>
        <time>2020-07-11T09:23:20.596Z</time>
      </trkpt>
      <trkpt lat="44.15966" lon="5.305">
        <ele>1580</ele>
        <time>2020-07-11T09:23:21.596Z</time>
      </trkpt>
      <trkpt lat="44.15967" lon="5.30495">
        <ele>1580</ele>
        <time>2020-07-11T09:23:22.596Z</time>
      </trkpt>
      <trkpt lat="44.15968" lon="5.30491">
        <ele>1580</ele>
        <time>2020-07-11T09:23:23.595Z</time>
      </trkpt>
      <trkpt lat="44.15968" lon="5.30487">
        <ele>1580</ele>
        <time>2020-07-11T09:23:24.596Z</time>
      </trkpt>
      <trkpt lat="44.15969" lon="5.30483">
        <ele>1581</ele>
        <time>2020-07-11T09:23:25.596Z</time>
      </trkpt>
      <trkpt lat="44.1597" lon="5.30478">
        <ele>1581</ele>
        <time>2020-07-11T09:23:26.596Z</time>
      </trkpt>
      <trkpt lat="44.15971" lon="5.30474">
        <ele>1581</ele>
        <time>2020-07-11T09:23:27.595Z</time>
      </trkpt>
      <trkpt lat="44.15972" lon="5.3047">
        <ele>1581</ele>
        <time>2020-07-11T09:23:28.596Z</time>
      </trkpt>
      <trkpt lat="44.15973" lon="5.30465">
        <ele>1582</ele>
        <time>2020-07-11T09:23:29.596Z</time>
      </trkpt>
      <trkpt lat="44.15974" lon="5.30461">
        <ele>1582</ele>
        <time>2020-07-11T09:23:30.596Z</time>
      </trkpt>
      <trkpt lat="44.15974" lon="5.30457">
        <ele>1582</ele>
        <time>2020-07-11T09:23:31.595Z</time>
      </trkpt>
      <trkpt lat="44.15975" lon="5.30453">
        <ele>1582</ele>
        <time>2020-07-11T09:23:32.596Z</time>
      </trkpt>
      <trkpt lat="44.15976" lon="5.30449">
        <ele>1582</ele>
        <time>2020-07-11T09:23:33.596Z</time>
      </trkpt>
      <trkpt lat="44.15977" lon="5.30445">
        <ele>1582</ele>
        <time>2020-07-11T09:23:34.596Z</time>
      </trkpt>
      <trkpt lat="44.15978" lon="5.3044">
        <ele>1582</ele>
        <time>2020-07-11T09:23:35.596Z</time>
      </trkpt>
      <trkpt lat="44.15979" lon="5.30437">
        <ele>1582</ele>
        <time>2020-07-11T09:23:36.595Z</time>
      </trkpt>
      <trkpt lat="44.1598" lon="5.30433">
        <ele>1582</ele>
        <time>2020-07-11T09:23:37.596Z</time>
      </trkpt>
      <trkpt lat="44.15981" lon="5.30428">
        <ele>1582</ele>
        <time>2020-07-11T09:23:38.596Z</time>
      </trkpt>
      <trkpt lat="44.15982" lon="5.30424">
        <ele>1582</ele>
        <time>2020-07-11T09:23:39.596Z</time>
      </trkpt>
      <trkpt lat="44.15983" lon="5.30419">
        <ele>1583</ele>
        <time>2020-07-11T09:23:40.595Z</time>
      </trkpt>
      <trkpt lat="44.15984" lon="5.30415">
        <ele>1583</ele>
        <time>2020-07-11T09:23:41.596Z</time>
      </trkpt>
      <trkpt lat="44.15986" lon="5.30411">
        <ele>1583</ele>
        <time>2020-07-11T09:23:42.596Z</time>
      </trkpt>
      <trkpt lat="44.15986" lon="5.30406">
        <ele>1584</ele>
        <time>2020-07-11T09:23:43.596Z</time>
      </trkpt>
      <trkpt lat="44.15987" lon="5.30402">
        <ele>1584</ele>
        <time>2020-07-11T09:23:44.596Z</time>
      </trkpt>
      <trkpt lat="44.15988" lon="5.30398">
        <ele>1585</ele>
        <time>2020-07-11T09:23:45.595Z</time>
      </trkpt>
      <trkpt lat="44.15989" lon="5.30393">
        <ele>1585</ele>
        <time>2020-07-11T09:23:46.596Z</time>
      </trkpt>
      <trkpt lat="44.1599" lon="5.30389">
        <ele>1586</ele>
        <time>2020-07-11T09:23:47.596Z</time>
      </trkpt>
      <trkpt lat="44.15991" lon="5.30384">
        <ele>1586</ele>
        <time>2020-07-11T09:23:48.596Z</time>
      </trkpt>
      <trkpt lat="44.15992" lon="5.3038">
        <ele>1586</ele>
        <time>2020-07-11T09:23:49.596Z</time>
      </trkpt>
      <trkpt lat="44.15993" lon="5.30376">
        <ele>1586</ele>
        <time>2020-07-11T09:23:50.596Z</time>
      </trkpt>
      <trkpt lat="44.15994" lon="5.30372">
        <ele>1586</ele>
        <time>2020-07-11T09:23:51.596Z</time>
      </trkpt>
      <trkpt lat="44.15995" lon="5.30367">
        <ele>1586</ele>
        <time>2020-07-11T09:23:52.596Z</time>
      </trkpt>
      <trkpt lat="44.15995" lon="5.30363">
        <ele>1586</ele>
        <time>2020-07-11T09:23:53.596Z</time>
      </trkpt>
      <trkpt lat="44.15996" lon="5.30359">
        <ele>1586</ele>
        <time>2020-07-11T09:23:54.596Z</time>
      </trkpt>
      <trkpt lat="44.15997" lon="5.30354">
        <ele>1587</ele>
        <time>2020-07-11T09:23:55.596Z</time>
      </trkpt>
      <trkpt lat="44.15998" lon="5.3035">
        <ele>1588</ele>
        <time>2020-07-11T09:23:56.596Z</time>
      </trkpt>
      <trkpt lat="44.15999" lon="5.30346">
        <ele>1589</ele>
        <time>2020-07-11T09:23:57.596Z</time>
      </trkpt>
      <trkpt lat="44.16" lon="5.30342">
        <ele>1589</ele>
        <time>2020-07-11T09:23:58.595Z</time>
      </trkpt>
      <trkpt lat="44.16001" lon="5.30338">
        <ele>1590</ele>
        <time>2020-07-11T09:23:59.595Z</time>
      </trkpt>
      <trkpt lat="44.16002" lon="5.30333">
        <ele>1590</ele>
        <time>2020-07-11T09:24:00.595Z</time>
      </trkpt>
      <trkpt lat="44.16003" lon="5.30329">
        <ele>1590</ele>
        <time>2020-07-11T09:24:01.596Z</time>
      </trkpt>
      <trkpt lat="44.16004" lon="5.30325">
        <ele>1590</ele>
        <time>2020-07-11T09:24:02.596Z</time>
      </trkpt>
      <trkpt lat="44.16006" lon="5.3032">
        <ele>1591</ele>
        <time>2020-07-11T09:24:03.596Z</time>
      </trkpt>
      <trkpt lat="44.16008" lon="5.30316">
        <ele>1591</ele>
        <time>2020-07-11T09:24:04.596Z</time>
      </trkpt>
      <trkpt lat="44.16009" lon="5.30312">
        <ele>1591</ele>
        <time>2020-07-11T09:24:05.596Z</time>
      </trkpt>
      <trkpt lat="44.16011" lon="5.30308">
        <ele>1592</ele>
        <time>2020-07-11T09:24:06.595Z</time>
      </trkpt>
      <trkpt lat="44.16013" lon="5.30304">
        <ele>1592</ele>
        <time>2020-07-11T09:24:07.595Z</time>
      </trkpt>
      <trkpt lat="44.16014" lon="5.303">
        <ele>1592</ele>
        <time>2020-07-11T09:24:08.596Z</time>
      </trkpt>
      <trkpt lat="44.16015" lon="5.30296">
        <ele>1593</ele>
        <time>2020-07-11T09:24:09.596Z</time>
      </trkpt>
      <trkpt lat="44.16017" lon="5.30292">
        <ele>1593</ele>
        <time>2020-07-11T09:24:10.596Z</time>
      </trkpt>
      <trkpt lat="44.16018" lon="5.30288">
        <ele>1593</ele>
        <time>2020-07-11T09:24:11.596Z</time>
      </trkpt>
      <trkpt lat="44.1602" lon="5.30283">
        <ele>1593</ele>
        <time>2020-07-11T09:24:12.596Z</time>
      </trkpt>
      <trkpt lat="44.16021" lon="5.30279">
        <ele>1594</ele>
        <time>2020-07-11T09:24:13.596Z</time>
      </trkpt>
      <trkpt lat="44.16023" lon="5.30276">
        <ele>1594</ele>
        <time>2020-07-11T09:24:14.596Z</time>
      </trkpt>
      <trkpt lat="44.16024" lon="5.30272">
        <ele>1595</ele>
        <time>2020-07-11T09:24:15.596Z</time>
      </trkpt>
      <trkpt lat="44.16026" lon="5.30268">
        <ele>1595</ele>
        <time>2020-07-11T09:24:16.595Z</time>
      </trkpt>
      <trkpt lat="44.16027" lon="5.30264">
        <ele>1595</ele>
        <time>2020-07-11T09:24:17.596Z</time>
      </trkpt>
      <trkpt lat="44.16029" lon="5.3026">
        <ele>1595</ele>
        <time>2020-07-11T09:24:18.595Z</time>
      </trkpt>
      <trkpt lat="44.1603" lon="5.30256">
        <ele>1595</ele>
        <time>2020-07-11T09:24:19.596Z</time>
      </trkpt>
      <trkpt lat="44.16032" lon="5.30252">
        <ele>1595</ele>
        <time>2020-07-11T09:24:20.596Z</time>
      </trkpt>
      <trkpt lat="44.16033" lon="5.30247">
        <ele>1595</ele>
        <time>2020-07-11T09:24:21.596Z</time>
      </trkpt>
      <trkpt lat="44.16035" lon="5.30243">
        <ele>1595</ele>
        <time>2020-07-11T09:24:22.596Z</time>
      </trkpt>
      <trkpt lat="44.16036" lon="5.30239">
        <ele>1596</ele>
        <time>2020-07-11T09:24:23.596Z</time>
      </trkpt>
      <trkpt lat="44.16038" lon="5.30235">
        <ele>1596</ele>
        <time>2020-07-11T09:24:24.596Z</time>
      </trkpt>
      <trkpt lat="44.16039" lon="5.30231">
        <ele>1596</ele>
        <time>2020-07-11T09:24:25.596Z</time>
      </trkpt>
      <trkpt lat="44.16041" lon="5.30227">
        <ele>1596</ele>
        <time>2020-07-11T09:24:26.596Z</time>
      </trkpt>
      <trkpt lat="44.16042" lon="5.30223">
        <ele>1597</ele>
        <time>2020-07-11T09:24:27.595Z</time>
      </trkpt>
      <trkpt lat="44.16044" lon="5.30219">
        <ele>1597</ele>
        <time>2020-07-11T09:24:28.596Z</time>
      </trkpt>
      <trkpt lat="44.16045" lon="5.30215">
        <ele>1598</ele>
        <time>2020-07-11T09:24:29.595Z</time>
      </trkpt>
      <trkpt lat="44.16047" lon="5.30211">
        <ele>1599</ele>
        <time>2020-07-11T09:24:30.596Z</time>
      </trkpt>
      <trkpt lat="44.16049" lon="5.30207">
        <ele>1599</ele>
        <time>2020-07-11T09:24:31.596Z</time>
      </trkpt>
      <trkpt lat="44.1605" lon="5.30203">
        <ele>1599</ele>
        <time>2020-07-11T09:24:32.595Z</time>
      </trkpt>
      <trkpt lat="44.16052" lon="5.302">
        <ele>1599</ele>
        <time>2020-07-11T09:24:33.596Z</time>
      </trkpt>
      <trkpt lat="44.16054" lon="5.30196">
        <ele>1600</ele>
        <time>2020-07-11T09:24:34.596Z</time>
      </trkpt>
      <trkpt lat="44.16055" lon="5.30192">
        <ele>1600</ele>
        <time>2020-07-11T09:24:35.596Z</time>
      </trkpt>
      <trkpt lat="44.16057" lon="5.30188">
        <ele>1600</ele>
        <time>2020-07-11T09:24:36.596Z</time>
      </trkpt>
      <trkpt lat="44.16058" lon="5.30183">
        <ele>1600</ele>
        <time>2020-07-11T09:24:37.596Z</time>
      </trkpt>
      <trkpt lat="44.1606" lon="5.30179">
        <ele>1600</ele>
        <time>2020-07-11T09:24:38.596Z</time>
      </trkpt>
      <trkpt lat="44.16062" lon="5.30176">
        <ele>1600</ele>
        <time>2020-07-11T09:24:39.596Z</time>
      </trkpt>
      <trkpt lat="44.16064" lon="5.30172">
        <ele>1601</ele>
        <time>2020-07-11T09:24:40.596Z</time>
      </trkpt>
      <trkpt lat="44.16066" lon="5.30168">
        <ele>1601</ele>
        <time>2020-07-11T09:24:41.596Z</time>
      </trkpt>
      <trkpt lat="44.16067" lon="5.30165">
        <ele>1601</ele>
        <time>2020-07-11T09:24:42.595Z</time>
      </trkpt>
      <trkpt lat="44.16069" lon="5.30161">
        <ele>1601</ele>
        <time>2020-07-11T09:24:43.596Z</time>
      </trkpt>
      <trkpt lat="44.16071" lon="5.30158">
        <ele>1602</ele>
        <time>2020-07-11T09:24:44.596Z</time>
      </trkpt>
      <trkpt lat="44.16073" lon="5.30155">
        <ele>1603</ele>
        <time>2020-07-11T09:24:45.595Z</time>
      </trkpt>
      <trkpt lat="44.16075" lon="5.30152">
        <ele>1603</ele>
        <time>2020-07-11T09:24:46.595Z</time>
      </trkpt>
      <trkpt lat="44.16078" lon="5.30149">
        <ele>1603</ele>
        <time>2020-07-11T09:24:47.596Z</time>
      </trkpt>
      <trkpt lat="44.1608" lon="5.30146">
        <ele>1603</ele>
        <time>2020-07-11T09:24:48.595Z</time>
      </trkpt>
      <trkpt lat="44.16082" lon="5.30143">
        <ele>1604</ele>
        <time>2020-07-11T09:24:49.596Z</time>
      </trkpt>
      <trkpt lat="44.16084" lon="5.3014">
        <ele>1604</ele>
        <time>2020-07-11T09:24:50.595Z</time>
      </trkpt>
      <trkpt lat="44.16086" lon="5.30137">
        <ele>1604</ele>
        <time>2020-07-11T09:24:51.596Z</time>
      </trkpt>
      <trkpt lat="44.16088" lon="5.30134">
        <ele>1604</ele>
        <time>2020-07-11T09:24:52.596Z</time>
      </trkpt>
      <trkpt lat="44.16091" lon="5.30131">
        <ele>1604</ele>
        <time>2020-07-11T09:24:53.596Z</time>
      </trkpt>
      <trkpt lat="44.16093" lon="5.30129">
        <ele>1605</ele>
        <time>2020-07-11T09:24:54.596Z</time>
      </trkpt>
      <trkpt lat="44.16096" lon="5.30126">
        <ele>1605</ele>
        <time>2020-07-11T09:24:55.596Z</time>
      </trkpt>
      <trkpt lat="44.16098" lon="5.30124">
        <ele>1605</ele>
        <time>2020-07-11T09:24:56.596Z</time>
      </trkpt>
      <trkpt lat="44.161" lon="5.30121">
        <ele>1605</ele>
        <time>2020-07-11T09:24:57.596Z</time>
      </trkpt>
      <trkpt lat="44.16103" lon="5.30119">
        <ele>1605</ele>
        <time>2020-07-11T09:24:58.595Z</time>
      </trkpt>
      <trkpt lat="44.16105" lon="5.30117">
        <ele>1605</ele>
        <time>2020-07-11T09:24:59.596Z</time>
      </trkpt>
      <trkpt lat="44.16107" lon="5.30115">
        <ele>1605</ele>
        <time>2020-07-11T09:25:00.596Z</time>
      </trkpt>
      <trkpt lat="44.1611" lon="5.30113">
        <ele>1605</ele>
        <time>2020-07-11T09:25:01.596Z</time>
      </trkpt>
      <trkpt lat="44.16112" lon="5.30111">
        <ele>1606</ele>
        <time>2020-07-11T09:25:02.595Z</time>
      </trkpt>
      <trkpt lat="44.16115" lon="5.30108">
        <ele>1606</ele>
        <time>2020-07-11T09:25:03.596Z</time>
      </trkpt>
      <trkpt lat="44.16117" lon="5.30106">
        <ele>1607</ele>
        <time>2020-07-11T09:25:04.596Z</time>
      </trkpt>
      <trkpt lat="44.1612" lon="5.30104">
        <ele>1607</ele>
        <time>2020-07-11T09:25:05.596Z</time>
      </trkpt>
      <trkpt lat="44.16122" lon="5.30102">
        <ele>1608</ele>
        <time>2020-07-11T09:25:06.596Z</time>
      </trkpt>
      <trkpt lat="44.16125" lon="5.301">
        <ele>1608</ele>
        <time>2020-07-11T09:25:07.595Z</time>
      </trkpt>
      <trkpt lat="44.16127" lon="5.30098">
        <ele>1608</ele>
        <time>2020-07-11T09:25:08.596Z</time>
      </trkpt>
      <trkpt lat="44.1613" lon="5.30096">
        <ele>1609</ele>
        <time>2020-07-11T09:25:09.596Z</time>
      </trkpt>
      <trkpt lat="44.16133" lon="5.30094">
        <ele>1609</ele>
        <time>2020-07-11T09:25:10.595Z</time>
      </trkpt>
      <trkpt lat="44.16135" lon="5.30092">
        <ele>1609</ele>
        <time>2020-07-11T09:25:11.596Z</time>
      </trkpt>
      <trkpt lat="44.16138" lon="5.30091">
        <ele>1609</ele>
        <time>2020-07-11T09:25:12.596Z</time>
      </trkpt>
      <trkpt lat="44.16141" lon="5.30089">
        <ele>1610</ele>
        <time>2020-07-11T09:25:13.596Z</time>
      </trkpt>
      <trkpt lat="44.16144" lon="5.30087">
        <ele>1610</ele>
        <time>2020-07-11T09:25:14.596Z</time>
      </trkpt>
      <trkpt lat="44.16146" lon="5.30086">
        <ele>1610</ele>
        <time>2020-07-11T09:25:15.595Z</time>
      </trkpt>
      <trkpt lat="44.16149" lon="5.30084">
        <ele>1610</ele>
        <time>2020-07-11T09:25:16.596Z</time>
      </trkpt>
      <trkpt lat="44.16152" lon="5.30082">
        <ele>1610</ele>
        <time>2020-07-11T09:25:17.596Z</time>
      </trkpt>
      <trkpt lat="44.16154" lon="5.30081">
        <ele>1610</ele>
        <time>2020-07-11T09:25:18.595Z</time>
      </trkpt>
      <trkpt lat="44.16157" lon="5.3008">
        <ele>1610</ele>
        <time>2020-07-11T09:25:19.595Z</time>
      </trkpt>
      <trkpt lat="44.1616" lon="5.30078">
        <ele>1610</ele>
        <time>2020-07-11T09:25:20.595Z</time>
      </trkpt>
      <trkpt lat="44.16163" lon="5.30077">
        <ele>1610</ele>
        <time>2020-07-11T09:25:21.595Z</time>
      </trkpt>
      <trkpt lat="44.16166" lon="5.30077">
        <ele>1610</ele>
        <time>2020-07-11T09:25:22.595Z</time>
      </trkpt>
      <trkpt lat="44.16168" lon="5.30076">
        <ele>1611</ele>
        <time>2020-07-11T09:25:23.595Z</time>
      </trkpt>
      <trkpt lat="44.16171" lon="5.30076">
        <ele>1611</ele>
        <time>2020-07-11T09:25:24.596Z</time>
      </trkpt>
      <trkpt lat="44.16174" lon="5.30076">
        <ele>1612</ele>
        <time>2020-07-11T09:25:25.595Z</time>
      </trkpt>
      <trkpt lat="44.16177" lon="5.30076">
        <ele>1612</ele>
        <time>2020-07-11T09:25:26.595Z</time>
      </trkpt>
      <trkpt lat="44.16179" lon="5.30076">
        <ele>1612</ele>
        <time>2020-07-11T09:25:27.595Z</time>
      </trkpt>
      <trkpt lat="44.16182" lon="5.30077">
        <ele>1612</ele>
        <time>2020-07-11T09:25:28.596Z</time>
      </trkpt>
      <trkpt lat="44.16184" lon="5.30078">
        <ele>1612</ele>
        <time>2020-07-11T09:25:29.596Z</time>
      </trkpt>
      <trkpt lat="44.16187" lon="5.3008">
        <ele>1612</ele>
        <time>2020-07-11T09:25:30.596Z</time>
      </trkpt>
      <trkpt lat="44.16189" lon="5.30081">
        <ele>1613</ele>
        <time>2020-07-11T09:25:31.596Z</time>
      </trkpt>
      <trkpt lat="44.16191" lon="5.30083">
        <ele>1613</ele>
        <time>2020-07-11T09:25:32.595Z</time>
      </trkpt>
      <trkpt lat="44.16193" lon="5.30085">
        <ele>1613</ele>
        <time>2020-07-11T09:25:33.595Z</time>
      </trkpt>
      <trkpt lat="44.16195" lon="5.30088">
        <ele>1613</ele>
        <time>2020-07-11T09:25:34.596Z</time>
      </trkpt>
      <trkpt lat="44.16197" lon="5.30091">
        <ele>1613</ele>
        <time>2020-07-11T09:25:35.596Z</time>
      </trkpt>
      <trkpt lat="44.16199" lon="5.30093">
        <ele>1613</ele>
        <time>2020-07-11T09:25:36.596Z</time>
      </trkpt>
      <trkpt lat="44.16201" lon="5.30096">
        <ele>1613</ele>
        <time>2020-07-11T09:25:37.596Z</time>
      </trkpt>
      <trkpt lat="44.16203" lon="5.301">
        <ele>1613</ele>
        <time>2020-07-11T09:25:38.596Z</time>
      </trkpt>
      <trkpt lat="44.16205" lon="5.30103">
        <ele>1613</ele>
        <time>2020-07-11T09:25:39.596Z</time>
      </trkpt>
      <trkpt lat="44.16206" lon="5.30106">
        <ele>1613</ele>
        <time>2020-07-11T09:25:40.595Z</time>
      </trkpt>
      <trkpt lat="44.16208" lon="5.30109">
        <ele>1613</ele>
        <time>2020-07-11T09:25:41.596Z</time>
      </trkpt>
      <trkpt lat="44.16209" lon="5.30112">
        <ele>1613</ele>
        <time>2020-07-11T09:25:42.596Z</time>
      </trkpt>
      <trkpt lat="44.16211" lon="5.30116">
        <ele>1614</ele>
        <time>2020-07-11T09:25:43.596Z</time>
      </trkpt>
      <trkpt lat="44.16212" lon="5.30119">
        <ele>1614</ele>
        <time>2020-07-11T09:25:44.596Z</time>
      </trkpt>
      <trkpt lat="44.16214" lon="5.30122">
        <ele>1615</ele>
        <time>2020-07-11T09:25:45.595Z</time>
      </trkpt>
      <trkpt lat="44.16215" lon="5.30125">
        <ele>1615</ele>
        <time>2020-07-11T09:25:46.596Z</time>
      </trkpt>
      <trkpt lat="44.16217" lon="5.30128">
        <ele>1615</ele>
        <time>2020-07-11T09:25:47.596Z</time>
      </trkpt>
      <trkpt lat="44.16219" lon="5.30132">
        <ele>1615</ele>
        <time>2020-07-11T09:25:48.595Z</time>
      </trkpt>
      <trkpt lat="44.1622" lon="5.30135">
        <ele>1616</ele>
        <time>2020-07-11T09:25:49.596Z</time>
      </trkpt>
      <trkpt lat="44.16222" lon="5.30137">
        <ele>1616</ele>
        <time>2020-07-11T09:25:50.596Z</time>
      </trkpt>
      <trkpt lat="44.16224" lon="5.30141">
        <ele>1616</ele>
        <time>2020-07-11T09:25:51.596Z</time>
      </trkpt>
      <trkpt lat="44.16225" lon="5.30144">
        <ele>1616</ele>
        <time>2020-07-11T09:25:52.596Z</time>
      </trkpt>
      <trkpt lat="44.16227" lon="5.30147">
        <ele>1616</ele>
        <time>2020-07-11T09:25:53.596Z</time>
      </trkpt>
      <trkpt lat="44.16229" lon="5.3015">
        <ele>1616</ele>
        <time>2020-07-11T09:25:54.595Z</time>
      </trkpt>
      <trkpt lat="44.1623" lon="5.30154">
        <ele>1617</ele>
        <time>2020-07-11T09:25:55.596Z</time>
      </trkpt>
      <trkpt lat="44.16232" lon="5.30157">
        <ele>1617</ele>
        <time>2020-07-11T09:25:56.596Z</time>
      </trkpt>
      <trkpt lat="44.16234" lon="5.3016">
        <ele>1618</ele>
        <time>2020-07-11T09:25:57.596Z</time>
      </trkpt>
      <trkpt lat="44.16236" lon="5.30163">
        <ele>1619</ele>
        <time>2020-07-11T09:25:58.596Z</time>
      </trkpt>
      <trkpt lat="44.16237" lon="5.30166">
        <ele>1619</ele>
        <time>2020-07-11T09:25:59.595Z</time>
      </trkpt>
      <trkpt lat="44.16239" lon="5.3017">
        <ele>1620</ele>
        <time>2020-07-11T09:26:00.596Z</time>
      </trkpt>
      <trkpt lat="44.16241" lon="5.30173">
        <ele>1620</ele>
        <time>2020-07-11T09:26:01.596Z</time>
      </trkpt>
      <trkpt lat="44.16242" lon="5.30175">
        <ele>1621</ele>
        <time>2020-07-11T09:26:02.596Z</time>
      </trkpt>
      <trkpt lat="44.16244" lon="5.30179">
        <ele>1621</ele>
        <time>2020-07-11T09:26:03.596Z</time>
      </trkpt>
      <trkpt lat="44.16246" lon="5.30182">
        <ele>1621</ele>
        <time>2020-07-11T09:26:04.596Z</time>
      </trkpt>
      <trkpt lat="44.16247" lon="5.30185">
        <ele>1622</ele>
        <time>2020-07-11T09:26:05.596Z</time>
      </trkpt>
      <trkpt lat="44.16249" lon="5.30188">
        <ele>1622</ele>
        <time>2020-07-11T09:26:06.596Z</time>
      </trkpt>
      <trkpt lat="44.16251" lon="5.30191">
        <ele>1622</ele>
        <time>2020-07-11T09:26:07.596Z</time>
      </trkpt>
      <trkpt lat="44.16252" lon="5.30194">
        <ele>1622</ele>
        <time>2020-07-11T09:26:08.596Z</time>
      </trkpt>
      <trkpt lat="44.16254" lon="5.30197">
        <ele>1623</ele>
        <time>2020-07-11T09:26:09.596Z</time>
      </trkpt>
      <trkpt lat="44.16256" lon="5.302">
        <ele>1623</ele>
        <time>2020-07-11T09:26:10.596Z</time>
      </trkpt>
      <trkpt lat="44.16257" lon="5.30204">
        <ele>1623</ele>
        <time>2020-07-11T09:26:11.596Z</time>
      </trkpt>
      <trkpt lat="44.16259" lon="5.30207">
        <ele>1623</ele>
        <time>2020-07-11T09:26:12.596Z</time>
      </trkpt>
      <trkpt lat="44.1626" lon="5.3021">
        <ele>1623</ele>
        <time>2020-07-11T09:26:13.596Z</time>
      </trkpt>
      <trkpt lat="44.16262" lon="5.30213">
        <ele>1624</ele>
        <time>2020-07-11T09:26:14.595Z</time>
      </trkpt>
      <trkpt lat="44.16264" lon="5.30216">
        <ele>1624</ele>
        <time>2020-07-11T09:26:15.596Z</time>
      </trkpt>
      <trkpt lat="44.16266" lon="5.30219">
        <ele>1624</ele>
        <time>2020-07-11T09:26:16.596Z</time>
      </trkpt>
      <trkpt lat="44.16267" lon="5.30222">
        <ele>1624</ele>
        <time>2020-07-11T09:26:17.595Z</time>
      </trkpt>
      <trkpt lat="44.16269" lon="5.30224">
        <ele>1624</ele>
        <time>2020-07-11T09:26:18.596Z</time>
      </trkpt>
      <trkpt lat="44.16271" lon="5.30228">
        <ele>1623</ele>
        <time>2020-07-11T09:26:19.596Z</time>
      </trkpt>
      <trkpt lat="44.16273" lon="5.30231">
        <ele>1624</ele>
        <time>2020-07-11T09:26:20.596Z</time>
      </trkpt>
      <trkpt lat="44.16275" lon="5.30234">
        <ele>1624</ele>
        <time>2020-07-11T09:26:21.596Z</time>
      </trkpt>
      <trkpt lat="44.16277" lon="5.30237">
        <ele>1625</ele>
        <time>2020-07-11T09:26:22.595Z</time>
      </trkpt>
      <trkpt lat="44.16279" lon="5.3024">
        <ele>1625</ele>
        <time>2020-07-11T09:26:23.596Z</time>
      </trkpt>
      <trkpt lat="44.16281" lon="5.30243">
        <ele>1626</ele>
        <time>2020-07-11T09:26:24.595Z</time>
      </trkpt>
      <trkpt lat="44.16283" lon="5.30246">
        <ele>1626</ele>
        <time>2020-07-11T09:26:25.595Z</time>
      </trkpt>
      <trkpt lat="44.16285" lon="5.30248">
        <ele>1626</ele>
        <time>2020-07-11T09:26:26.596Z</time>
      </trkpt>
      <trkpt lat="44.16288" lon="5.3025">
        <ele>1627</ele>
        <time>2020-07-11T09:26:27.595Z</time>
      </trkpt>
      <trkpt lat="44.1629" lon="5.30252">
        <ele>1627</ele>
        <time>2020-07-11T09:26:28.595Z</time>
      </trkpt>
      <trkpt lat="44.16293" lon="5.30255">
        <ele>1627</ele>
        <time>2020-07-11T09:26:29.596Z</time>
      </trkpt>
      <trkpt lat="44.16297" lon="5.30257">
        <ele>1627</ele>
        <time>2020-07-11T09:26:30.596Z</time>
      </trkpt>
      <trkpt lat="44.16299" lon="5.30258">
        <ele>1628</ele>
        <time>2020-07-11T09:26:31.596Z</time>
      </trkpt>
      <trkpt lat="44.16302" lon="5.30259">
        <ele>1629</ele>
        <time>2020-07-11T09:26:32.596Z</time>
      </trkpt>
      <trkpt lat="44.16306" lon="5.30259">
        <ele>1629</ele>
        <time>2020-07-11T09:26:33.595Z</time>
      </trkpt>
      <trkpt lat="44.16309" lon="5.30258">
        <ele>1629</ele>
        <time>2020-07-11T09:26:34.596Z</time>
      </trkpt>
      <trkpt lat="44.16313" lon="5.30258">
        <ele>1629</ele>
        <time>2020-07-11T09:26:35.595Z</time>
      </trkpt>
      <trkpt lat="44.16316" lon="5.30256">
        <ele>1629</ele>
        <time>2020-07-11T09:26:36.596Z</time>
      </trkpt>
      <trkpt lat="44.1632" lon="5.30254">
        <ele>1629</ele>
        <time>2020-07-11T09:26:37.596Z</time>
      </trkpt>
      <trkpt lat="44.16323" lon="5.30252">
        <ele>1628</ele>
        <time>2020-07-11T09:26:38.596Z</time>
      </trkpt>
      <trkpt lat="44.16326" lon="5.3025">
        <ele>1628</ele>
        <time>2020-07-11T09:26:39.596Z</time>
      </trkpt>
      <trkpt lat="44.1633" lon="5.30248">
        <ele>1628</ele>
        <time>2020-07-11T09:26:40.596Z</time>
      </trkpt>
      <trkpt lat="44.16333" lon="5.30245">
        <ele>1628</ele>
        <time>2020-07-11T09:26:41.596Z</time>
      </trkpt>
      <trkpt lat="44.16336" lon="5.30243">
        <ele>1628</ele>
        <time>2020-07-11T09:26:42.596Z</time>
      </trkpt>
      <trkpt lat="44.1634" lon="5.30241">
        <ele>1628</ele>
        <time>2020-07-11T09:26:43.596Z</time>
      </trkpt>
      <trkpt lat="44.16343" lon="5.30238">
        <ele>1628</ele>
        <time>2020-07-11T09:26:44.595Z</time>
      </trkpt>
      <trkpt lat="44.16346" lon="5.30236">
        <ele>1628</ele>
        <time>2020-07-11T09:26:45.595Z</time>
      </trkpt>
      <trkpt lat="44.1635" lon="5.30234">
        <ele>1629</ele>
        <time>2020-07-11T09:26:46.595Z</time>
      </trkpt>
      <trkpt lat="44.16352" lon="5.30232">
        <ele>1629</ele>
        <time>2020-07-11T09:26:47.596Z</time>
      </trkpt>
      <trkpt lat="44.16355" lon="5.3023">
        <ele>1630</ele>
        <time>2020-07-11T09:26:48.596Z</time>
      </trkpt>
      <trkpt lat="44.16358" lon="5.30228">
        <ele>1630</ele>
        <time>2020-07-11T09:26:49.596Z</time>
      </trkpt>
      <trkpt lat="44.16361" lon="5.30225">
        <ele>1631</ele>
        <time>2020-07-11T09:26:50.596Z</time>
      </trkpt>
      <trkpt lat="44.16365" lon="5.30223">
        <ele>1631</ele>
        <time>2020-07-11T09:26:51.596Z</time>
      </trkpt>
      <trkpt lat="44.16367" lon="5.30221">
        <ele>1631</ele>
        <time>2020-07-11T09:26:52.596Z</time>
      </trkpt>
      <trkpt lat="44.16371" lon="5.30218">
        <ele>1631</ele>
        <time>2020-07-11T09:26:53.595Z</time>
      </trkpt>
      <trkpt lat="44.16373" lon="5.30216">
        <ele>1632</ele>
        <time>2020-07-11T09:26:54.596Z</time>
      </trkpt>
      <trkpt lat="44.16375" lon="5.30214">
        <ele>1632</ele>
        <time>2020-07-11T09:26:55.595Z</time>
      </trkpt>
      <trkpt lat="44.16379" lon="5.30211">
        <ele>1632</ele>
        <time>2020-07-11T09:26:56.596Z</time>
      </trkpt>
      <trkpt lat="44.16381" lon="5.30208">
        <ele>1632</ele>
        <time>2020-07-11T09:26:57.596Z</time>
      </trkpt>
      <trkpt lat="44.16384" lon="5.30206">
        <ele>1632</ele>
        <time>2020-07-11T09:26:58.596Z</time>
      </trkpt>
      <trkpt lat="44.16386" lon="5.30204">
        <ele>1632</ele>
        <time>2020-07-11T09:26:59.596Z</time>
      </trkpt>
      <trkpt lat="44.16388" lon="5.30201">
        <ele>1633</ele>
        <time>2020-07-11T09:27:00.596Z</time>
      </trkpt>
      <trkpt lat="44.1639" lon="5.30197">
        <ele>1633</ele>
        <time>2020-07-11T09:27:01.596Z</time>
      </trkpt>
      <trkpt lat="44.16393" lon="5.30193">
        <ele>1633</ele>
        <time>2020-07-11T09:27:02.596Z</time>
      </trkpt>
      <trkpt lat="44.16395" lon="5.3019">
        <ele>1633</ele>
        <time>2020-07-11T09:27:03.596Z</time>
      </trkpt>
      <trkpt lat="44.16397" lon="5.30187">
        <ele>1634</ele>
        <time>2020-07-11T09:27:04.596Z</time>
      </trkpt>
      <trkpt lat="44.16399" lon="5.30182">
        <ele>1634</ele>
        <time>2020-07-11T09:27:05.596Z</time>
      </trkpt>
      <trkpt lat="44.164" lon="5.30178">
        <ele>1635</ele>
        <time>2020-07-11T09:27:06.596Z</time>
      </trkpt>
      <trkpt lat="44.16402" lon="5.30173">
        <ele>1635</ele>
        <time>2020-07-11T09:27:07.596Z</time>
      </trkpt>
      <trkpt lat="44.16403" lon="5.3017">
        <ele>1636</ele>
        <time>2020-07-11T09:27:08.596Z</time>
      </trkpt>
      <trkpt lat="44.16404" lon="5.30166">
        <ele>1636</ele>
        <time>2020-07-11T09:27:09.596Z</time>
      </trkpt>
      <trkpt lat="44.16406" lon="5.30162">
        <ele>1636</ele>
        <time>2020-07-11T09:27:10.595Z</time>
      </trkpt>
      <trkpt lat="44.16408" lon="5.30157">
        <ele>1637</ele>
        <time>2020-07-11T09:27:11.596Z</time>
      </trkpt>
      <trkpt lat="44.16409" lon="5.30153">
        <ele>1637</ele>
        <time>2020-07-11T09:27:12.596Z</time>
      </trkpt>
      <trkpt lat="44.1641" lon="5.30149">
        <ele>1637</ele>
        <time>2020-07-11T09:27:13.596Z</time>
      </trkpt>
      <trkpt lat="44.16412" lon="5.30144">
        <ele>1637</ele>
        <time>2020-07-11T09:27:14.596Z</time>
      </trkpt>
      <trkpt lat="44.16413" lon="5.30139">
        <ele>1637</ele>
        <time>2020-07-11T09:27:15.595Z</time>
      </trkpt>
      <trkpt lat="44.16415" lon="5.30134">
        <ele>1638</ele>
        <time>2020-07-11T09:27:16.596Z</time>
      </trkpt>
      <trkpt lat="44.16416" lon="5.30131">
        <ele>1638</ele>
        <time>2020-07-11T09:27:17.596Z</time>
      </trkpt>
      <trkpt lat="44.16417" lon="5.30127">
        <ele>1638</ele>
        <time>2020-07-11T09:27:18.596Z</time>
      </trkpt>
      <trkpt lat="44.16418" lon="5.30122">
        <ele>1638</ele>
        <time>2020-07-11T09:27:19.596Z</time>
      </trkpt>
      <trkpt lat="44.1642" lon="5.30117">
        <ele>1638</ele>
        <time>2020-07-11T09:27:20.596Z</time>
      </trkpt>
      <trkpt lat="44.16421" lon="5.30113">
        <ele>1638</ele>
        <time>2020-07-11T09:27:21.596Z</time>
      </trkpt>
      <trkpt lat="44.16422" lon="5.3011">
        <ele>1639</ele>
        <time>2020-07-11T09:27:22.595Z</time>
      </trkpt>
      <trkpt lat="44.16424" lon="5.30105">
        <ele>1639</ele>
        <time>2020-07-11T09:27:23.596Z</time>
      </trkpt>
      <trkpt lat="44.16425" lon="5.30101">
        <ele>1640</ele>
        <time>2020-07-11T09:27:24.596Z</time>
      </trkpt>
      <trkpt lat="44.16426" lon="5.30098">
        <ele>1640</ele>
        <time>2020-07-11T09:27:25.595Z</time>
      </trkpt>
      <trkpt lat="44.16427" lon="5.30093">
        <ele>1641</ele>
        <time>2020-07-11T09:27:26.595Z</time>
      </trkpt>
      <trkpt lat="44.16429" lon="5.30089">
        <ele>1641</ele>
        <time>2020-07-11T09:27:27.596Z</time>
      </trkpt>
      <trkpt lat="44.1643" lon="5.30085">
        <ele>1641</ele>
        <time>2020-07-11T09:27:28.596Z</time>
      </trkpt>
      <trkpt lat="44.16431" lon="5.30081">
        <ele>1641</ele>
        <time>2020-07-11T09:27:29.596Z</time>
      </trkpt>
      <trkpt lat="44.16433" lon="5.30076">
        <ele>1642</ele>
        <time>2020-07-11T09:27:30.596Z</time>
      </trkpt>
      <trkpt lat="44.16434" lon="5.30072">
        <ele>1642</ele>
        <time>2020-07-11T09:27:31.596Z</time>
      </trkpt>
      <trkpt lat="44.16435" lon="5.30068">
        <ele>1643</ele>
        <time>2020-07-11T09:27:32.595Z</time>
      </trkpt>
      <trkpt lat="44.16437" lon="5.30064">
        <ele>1643</ele>
        <time>2020-07-11T09:27:33.596Z</time>
      </trkpt>
      <trkpt lat="44.16438" lon="5.3006">
        <ele>1643</ele>
        <time>2020-07-11T09:27:34.596Z</time>
      </trkpt>
      <trkpt lat="44.1644" lon="5.30056">
        <ele>1644</ele>
        <time>2020-07-11T09:27:35.595Z</time>
      </trkpt>
      <trkpt lat="44.16441" lon="5.30052">
        <ele>1644</ele>
        <time>2020-07-11T09:27:36.596Z</time>
      </trkpt>
      <trkpt lat="44.16442" lon="5.30048">
        <ele>1644</ele>
        <time>2020-07-11T09:27:37.595Z</time>
      </trkpt>
      <trkpt lat="44.16443" lon="5.30044">
        <ele>1644</ele>
        <time>2020-07-11T09:27:38.596Z</time>
      </trkpt>
      <trkpt lat="44.16445" lon="5.3004">
        <ele>1644</ele>
        <time>2020-07-11T09:27:39.596Z</time>
      </trkpt>
      <trkpt lat="44.16446" lon="5.30036">
        <ele>1645</ele>
        <time>2020-07-11T09:27:40.596Z</time>
      </trkpt>
      <trkpt lat="44.16448" lon="5.30032">
        <ele>1645</ele>
        <time>2020-07-11T09:27:41.596Z</time>
      </trkpt>
      <trkpt lat="44.16449" lon="5.30028">
        <ele>1645</ele>
        <time>2020-07-11T09:27:42.596Z</time>
      </trkpt>
      <trkpt lat="44.16451" lon="5.30024">
        <ele>1645</ele>
        <time>2020-07-11T09:27:43.596Z</time>
      </trkpt>
      <trkpt lat="44.16452" lon="5.3002">
        <ele>1646</ele>
        <time>2020-07-11T09:27:44.595Z</time>
      </trkpt>
      <trkpt lat="44.16454" lon="5.30016">
        <ele>1646</ele>
        <time>2020-07-11T09:27:45.596Z</time>
      </trkpt>
      <trkpt lat="44.16455" lon="5.30013">
        <ele>1646</ele>
        <time>2020-07-11T09:27:46.596Z</time>
      </trkpt>
      <trkpt lat="44.16457" lon="5.30009">
        <ele>1647</ele>
        <time>2020-07-11T09:27:47.596Z</time>
      </trkpt>
      <trkpt lat="44.16458" lon="5.30004">
        <ele>1647</ele>
        <time>2020-07-11T09:27:48.596Z</time>
      </trkpt>
      <trkpt lat="44.16459" lon="5.30001">
        <ele>1647</ele>
        <time>2020-07-11T09:27:49.596Z</time>
      </trkpt>
      <trkpt lat="44.1646" lon="5.29997">
        <ele>1647</ele>
        <time>2020-07-11T09:27:50.595Z</time>
      </trkpt>
      <trkpt lat="44.16462" lon="5.29993">
        <ele>1648</ele>
        <time>2020-07-11T09:27:51.596Z</time>
      </trkpt>
      <trkpt lat="44.16464" lon="5.2999">
        <ele>1648</ele>
        <time>2020-07-11T09:27:52.596Z</time>
      </trkpt>
      <trkpt lat="44.16465" lon="5.29986">
        <ele>1648</ele>
        <time>2020-07-11T09:27:53.595Z</time>
      </trkpt>
      <trkpt lat="44.16467" lon="5.29983">
        <ele>1648</ele>
        <time>2020-07-11T09:27:54.596Z</time>
      </trkpt>
      <trkpt lat="44.16468" lon="5.29979">
        <ele>1649</ele>
        <time>2020-07-11T09:27:55.595Z</time>
      </trkpt>
      <trkpt lat="44.1647" lon="5.29976">
        <ele>1649</ele>
        <time>2020-07-11T09:27:56.596Z</time>
      </trkpt>
      <trkpt lat="44.16471" lon="5.29972">
        <ele>1649</ele>
        <time>2020-07-11T09:27:57.596Z</time>
      </trkpt>
      <trkpt lat="44.16473" lon="5.29969">
        <ele>1649</ele>
        <time>2020-07-11T09:27:58.596Z</time>
      </trkpt>
      <trkpt lat="44.16474" lon="5.29965">
        <ele>1649</ele>
        <time>2020-07-11T09:27:59.596Z</time>
      </trkpt>
      <trkpt lat="44.16476" lon="5.29961">
        <ele>1649</ele>
        <time>2020-07-11T09:28:00.596Z</time>
      </trkpt>
      <trkpt lat="44.16477" lon="5.29958">
        <ele>1649</ele>
        <time>2020-07-11T09:28:01.595Z</time>
      </trkpt>
      <trkpt lat="44.16479" lon="5.29955">
        <ele>1650</ele>
        <time>2020-07-11T09:28:02.596Z</time>
      </trkpt>
      <trkpt lat="44.1648" lon="5.29951">
        <ele>1650</ele>
        <time>2020-07-11T09:28:03.596Z</time>
      </trkpt>
      <trkpt lat="44.16482" lon="5.29947">
        <ele>1651</ele>
        <time>2020-07-11T09:28:04.596Z</time>
      </trkpt>
      <trkpt lat="44.16484" lon="5.29944">
        <ele>1651</ele>
        <time>2020-07-11T09:28:05.596Z</time>
      </trkpt>
      <trkpt lat="44.16486" lon="5.29941">
        <ele>1651</ele>
        <time>2020-07-11T09:28:06.595Z</time>
      </trkpt>
      <trkpt lat="44.16487" lon="5.29938">
        <ele>1651</ele>
        <time>2020-07-11T09:28:07.596Z</time>
      </trkpt>
      <trkpt lat="44.16489" lon="5.29935">
        <ele>1652</ele>
        <time>2020-07-11T09:28:08.596Z</time>
      </trkpt>
      <trkpt lat="44.1649" lon="5.29931">
        <ele>1652</ele>
        <time>2020-07-11T09:28:09.595Z</time>
      </trkpt>
      <trkpt lat="44.16492" lon="5.29928">
        <ele>1652</ele>
        <time>2020-07-11T09:28:10.595Z</time>
      </trkpt>
      <trkpt lat="44.16493" lon="5.29925">
        <ele>1652</ele>
        <time>2020-07-11T09:28:11.596Z</time>
      </trkpt>
      <trkpt lat="44.16495" lon="5.29921">
        <ele>1653</ele>
        <time>2020-07-11T09:28:12.595Z</time>
      </trkpt>
      <trkpt lat="44.16497" lon="5.29918">
        <ele>1653</ele>
        <time>2020-07-11T09:28:13.596Z</time>
      </trkpt>
      <trkpt lat="44.16498" lon="5.29914">
        <ele>1653</ele>
        <time>2020-07-11T09:28:14.595Z</time>
      </trkpt>
      <trkpt lat="44.16499" lon="5.29911">
        <ele>1653</ele>
        <time>2020-07-11T09:28:15.596Z</time>
      </trkpt>
      <trkpt lat="44.16501" lon="5.29908">
        <ele>1653</ele>
        <time>2020-07-11T09:28:16.596Z</time>
      </trkpt>
      <trkpt lat="44.16503" lon="5.29904">
        <ele>1654</ele>
        <time>2020-07-11T09:28:17.596Z</time>
      </trkpt>
      <trkpt lat="44.16504" lon="5.299">
        <ele>1654</ele>
        <time>2020-07-11T09:28:18.596Z</time>
      </trkpt>
      <trkpt lat="44.16506" lon="5.29897">
        <ele>1654</ele>
        <time>2020-07-11T09:28:19.596Z</time>
      </trkpt>
      <trkpt lat="44.16507" lon="5.29894">
        <ele>1655</ele>
        <time>2020-07-11T09:28:20.596Z</time>
      </trkpt>
      <trkpt lat="44.16509" lon="5.2989">
        <ele>1655</ele>
        <time>2020-07-11T09:28:21.596Z</time>
      </trkpt>
      <trkpt lat="44.1651" lon="5.29887">
        <ele>1655</ele>
        <time>2020-07-11T09:28:22.595Z</time>
      </trkpt>
      <trkpt lat="44.16511" lon="5.29883">
        <ele>1655</ele>
        <time>2020-07-11T09:28:23.595Z</time>
      </trkpt>
      <trkpt lat="44.16513" lon="5.29879">
        <ele>1655</ele>
        <time>2020-07-11T09:28:24.596Z</time>
      </trkpt>
      <trkpt lat="44.16514" lon="5.29875">
        <ele>1655</ele>
        <time>2020-07-11T09:28:25.596Z</time>
      </trkpt>
      <trkpt lat="44.16515" lon="5.29871">
        <ele>1656</ele>
        <time>2020-07-11T09:28:26.596Z</time>
      </trkpt>
      <trkpt lat="44.16516" lon="5.29867">
        <ele>1656</ele>
        <time>2020-07-11T09:28:27.595Z</time>
      </trkpt>
      <trkpt lat="44.16517" lon="5.29863">
        <ele>1656</ele>
        <time>2020-07-11T09:28:28.596Z</time>
      </trkpt>
      <trkpt lat="44.16518" lon="5.29859">
        <ele>1657</ele>
        <time>2020-07-11T09:28:29.596Z</time>
      </trkpt>
      <trkpt lat="44.16519" lon="5.29855">
        <ele>1657</ele>
        <time>2020-07-11T09:28:30.596Z</time>
      </trkpt>
      <trkpt lat="44.1652" lon="5.29851">
        <ele>1657</ele>
        <time>2020-07-11T09:28:31.596Z</time>
      </trkpt>
      <trkpt lat="44.1652" lon="5.29846">
        <ele>1658</ele>
        <time>2020-07-11T09:28:32.596Z</time>
      </trkpt>
      <trkpt lat="44.16521" lon="5.29842">
        <ele>1658</ele>
        <time>2020-07-11T09:28:33.595Z</time>
      </trkpt>
      <trkpt lat="44.16522" lon="5.29838">
        <ele>1658</ele>
        <time>2020-07-11T09:28:34.596Z</time>
      </trkpt>
      <trkpt lat="44.16522" lon="5.29834">
        <ele>1658</ele>
        <time>2020-07-11T09:28:35.596Z</time>
      </trkpt>
      <trkpt lat="44.16523" lon="5.29829">
        <ele>1659</ele>
        <time>2020-07-11T09:28:36.596Z</time>
      </trkpt>
      <trkpt lat="44.16524" lon="5.29825">
        <ele>1659</ele>
        <time>2020-07-11T09:28:37.596Z</time>
      </trkpt>
      <trkpt lat="44.16525" lon="5.29821">
        <ele>1659</ele>
        <time>2020-07-11T09:28:38.596Z</time>
      </trkpt>
      <trkpt lat="44.16526" lon="5.29817">
        <ele>1659</ele>
        <time>2020-07-11T09:28:39.596Z</time>
      </trkpt>
      <trkpt lat="44.16526" lon="5.29813">
        <ele>1659</ele>
        <time>2020-07-11T09:28:40.596Z</time>
      </trkpt>
      <trkpt lat="44.16527" lon="5.29809">
        <ele>1660</ele>
        <time>2020-07-11T09:28:41.596Z</time>
      </trkpt>
      <trkpt lat="44.16528" lon="5.29805">
        <ele>1660</ele>
        <time>2020-07-11T09:28:42.595Z</time>
      </trkpt>
      <trkpt lat="44.16529" lon="5.29801">
        <ele>1660</ele>
        <time>2020-07-11T09:28:43.596Z</time>
      </trkpt>
      <trkpt lat="44.1653" lon="5.29797">
        <ele>1660</ele>
        <time>2020-07-11T09:28:44.595Z</time>
      </trkpt>
      <trkpt lat="44.16531" lon="5.29793">
        <ele>1660</ele>
        <time>2020-07-11T09:28:45.595Z</time>
      </trkpt>
      <trkpt lat="44.16532" lon="5.29789">
        <ele>1660</ele>
        <time>2020-07-11T09:28:46.596Z</time>
      </trkpt>
      <trkpt lat="44.16532" lon="5.29785">
        <ele>1660</ele>
        <time>2020-07-11T09:28:47.596Z</time>
      </trkpt>
      <trkpt lat="44.16533" lon="5.29781">
        <ele>1661</ele>
        <time>2020-07-11T09:28:48.596Z</time>
      </trkpt>
      <trkpt lat="44.16534" lon="5.29777">
        <ele>1661</ele>
        <time>2020-07-11T09:28:49.595Z</time>
      </trkpt>
      <trkpt lat="44.16535" lon="5.29773">
        <ele>1661</ele>
        <time>2020-07-11T09:28:50.595Z</time>
      </trkpt>
      <trkpt lat="44.16536" lon="5.29769">
        <ele>1661</ele>
        <time>2020-07-11T09:28:51.596Z</time>
      </trkpt>
      <trkpt lat="44.16537" lon="5.29765">
        <ele>1661</ele>
        <time>2020-07-11T09:28:52.595Z</time>
      </trkpt>
      <trkpt lat="44.16538" lon="5.29761">
        <ele>1661</ele>
        <time>2020-07-11T09:28:53.596Z</time>
      </trkpt>
      <trkpt lat="44.16539" lon="5.29758">
        <ele>1661</ele>
        <time>2020-07-11T09:28:54.596Z</time>
      </trkpt>
      <trkpt lat="44.1654" lon="5.29753">
        <ele>1662</ele>
        <time>2020-07-11T09:28:55.596Z</time>
      </trkpt>
      <trkpt lat="44.1654" lon="5.29749">
        <ele>1662</ele>
        <time>2020-07-11T09:28:56.595Z</time>
      </trkpt>
      <trkpt lat="44.16542" lon="5.29745">
        <ele>1662</ele>
        <time>2020-07-11T09:28:57.596Z</time>
      </trkpt>
      <trkpt lat="44.16543" lon="5.29741">
        <ele>1662</ele>
        <time>2020-07-11T09:28:58.596Z</time>
      </trkpt>
      <trkpt lat="44.16544" lon="5.29737">
        <ele>1663</ele>
        <time>2020-07-11T09:28:59.596Z</time>
      </trkpt>
      <trkpt lat="44.16545" lon="5.29733">
        <ele>1663</ele>
        <time>2020-07-11T09:29:00.596Z</time>
      </trkpt>
      <trkpt lat="44.16547" lon="5.29729">
        <ele>1663</ele>
        <time>2020-07-11T09:29:01.596Z</time>
      </trkpt>
      <trkpt lat="44.16548" lon="5.29726">
        <ele>1664</ele>
        <time>2020-07-11T09:29:02.596Z</time>
      </trkpt>
      <trkpt lat="44.1655" lon="5.29722">
        <ele>1664</ele>
        <time>2020-07-11T09:29:03.596Z</time>
      </trkpt>
      <trkpt lat="44.16551" lon="5.29719">
        <ele>1664</ele>
        <time>2020-07-11T09:29:04.595Z</time>
      </trkpt>
      <trkpt lat="44.16553" lon="5.29716">
        <ele>1664</ele>
        <time>2020-07-11T09:29:05.595Z</time>
      </trkpt>
      <trkpt lat="44.16555" lon="5.29713">
        <ele>1664</ele>
        <time>2020-07-11T09:29:06.596Z</time>
      </trkpt>
      <trkpt lat="44.16557" lon="5.2971">
        <ele>1664</ele>
        <time>2020-07-11T09:29:07.595Z</time>
      </trkpt>
      <trkpt lat="44.16559" lon="5.29707">
        <ele>1664</ele>
        <time>2020-07-11T09:29:08.595Z</time>
      </trkpt>
      <trkpt lat="44.16561" lon="5.29704">
        <ele>1664</ele>
        <time>2020-07-11T09:29:09.596Z</time>
      </trkpt>
      <trkpt lat="44.16563" lon="5.29702">
        <ele>1665</ele>
        <time>2020-07-11T09:29:10.596Z</time>
      </trkpt>
      <trkpt lat="44.16565" lon="5.29699">
        <ele>1665</ele>
        <time>2020-07-11T09:29:11.595Z</time>
      </trkpt>
      <trkpt lat="44.16567" lon="5.29697">
        <ele>1665</ele>
        <time>2020-07-11T09:29:12.596Z</time>
      </trkpt>
      <trkpt lat="44.1657" lon="5.29695">
        <ele>1666</ele>
        <time>2020-07-11T09:29:13.596Z</time>
      </trkpt>
      <trkpt lat="44.16572" lon="5.29693">
        <ele>1667</ele>
        <time>2020-07-11T09:29:14.596Z</time>
      </trkpt>
      <trkpt lat="44.16574" lon="5.29691">
        <ele>1667</ele>
        <time>2020-07-11T09:29:15.596Z</time>
      </trkpt>
      <trkpt lat="44.16577" lon="5.29689">
        <ele>1667</ele>
        <time>2020-07-11T09:29:16.596Z</time>
      </trkpt>
      <trkpt lat="44.16579" lon="5.29687">
        <ele>1668</ele>
        <time>2020-07-11T09:29:17.596Z</time>
      </trkpt>
      <trkpt lat="44.16581" lon="5.29685">
        <ele>1669</ele>
        <time>2020-07-11T09:29:18.596Z</time>
      </trkpt>
      <trkpt lat="44.16584" lon="5.29684">
        <ele>1669</ele>
        <time>2020-07-11T09:29:19.596Z</time>
      </trkpt>
      <trkpt lat="44.16586" lon="5.29681">
        <ele>1670</ele>
        <time>2020-07-11T09:29:20.595Z</time>
      </trkpt>
      <trkpt lat="44.16588" lon="5.2968">
        <ele>1670</ele>
        <time>2020-07-11T09:29:21.596Z</time>
      </trkpt>
      <trkpt lat="44.1659" lon="5.29678">
        <ele>1670</ele>
        <time>2020-07-11T09:29:22.595Z</time>
      </trkpt>
      <trkpt lat="44.16593" lon="5.29676">
        <ele>1670</ele>
        <time>2020-07-11T09:29:23.596Z</time>
      </trkpt>
      <trkpt lat="44.16595" lon="5.29675">
        <ele>1670</ele>
        <time>2020-07-11T09:29:24.596Z</time>
      </trkpt>
      <trkpt lat="44.16598" lon="5.29673">
        <ele>1670</ele>
        <time>2020-07-11T09:29:25.596Z</time>
      </trkpt>
      <trkpt lat="44.166" lon="5.29672">
        <ele>1671</ele>
        <time>2020-07-11T09:29:26.596Z</time>
      </trkpt>
      <trkpt lat="44.16603" lon="5.29671">
        <ele>1671</ele>
        <time>2020-07-11T09:29:27.596Z</time>
      </trkpt>
      <trkpt lat="44.16605" lon="5.29669">
        <ele>1672</ele>
        <time>2020-07-11T09:29:28.596Z</time>
      </trkpt>
      <trkpt lat="44.16608" lon="5.29667">
        <ele>1672</ele>
        <time>2020-07-11T09:29:29.595Z</time>
      </trkpt>
      <trkpt lat="44.16611" lon="5.29666">
        <ele>1673</ele>
        <time>2020-07-11T09:29:30.595Z</time>
      </trkpt>
      <trkpt lat="44.16614" lon="5.29665">
        <ele>1673</ele>
        <time>2020-07-11T09:29:31.596Z</time>
      </trkpt>
      <trkpt lat="44.16616" lon="5.29663">
        <ele>1673</ele>
        <time>2020-07-11T09:29:32.595Z</time>
      </trkpt>
      <trkpt lat="44.16618" lon="5.29662">
        <ele>1674</ele>
        <time>2020-07-11T09:29:33.596Z</time>
      </trkpt>
      <trkpt lat="44.16621" lon="5.2966">
        <ele>1674</ele>
        <time>2020-07-11T09:29:34.596Z</time>
      </trkpt>
      <trkpt lat="44.16624" lon="5.29659">
        <ele>1674</ele>
        <time>2020-07-11T09:29:35.595Z</time>
      </trkpt>
      <trkpt lat="44.16626" lon="5.29658">
        <ele>1673</ele>
        <time>2020-07-11T09:29:36.596Z</time>
      </trkpt>
      <trkpt lat="44.16629" lon="5.29656">
        <ele>1673</ele>
        <time>2020-07-11T09:29:37.595Z</time>
      </trkpt>
      <trkpt lat="44.16631" lon="5.29654">
        <ele>1673</ele>
        <time>2020-07-11T09:29:38.596Z</time>
      </trkpt>
      <trkpt lat="44.16634" lon="5.29653">
        <ele>1674</ele>
        <time>2020-07-11T09:29:39.596Z</time>
      </trkpt>
      <trkpt lat="44.16636" lon="5.29651">
        <ele>1674</ele>
        <time>2020-07-11T09:29:40.596Z</time>
      </trkpt>
      <trkpt lat="44.16639" lon="5.2965">
        <ele>1674</ele>
        <time>2020-07-11T09:29:41.596Z</time>
      </trkpt>
      <trkpt lat="44.16641" lon="5.29649">
        <ele>1675</ele>
        <time>2020-07-11T09:29:42.596Z</time>
      </trkpt>
      <trkpt lat="44.16644" lon="5.29647">
        <ele>1675</ele>
        <time>2020-07-11T09:29:43.595Z</time>
      </trkpt>
      <trkpt lat="44.16647" lon="5.29646">
        <ele>1676</ele>
        <time>2020-07-11T09:29:44.596Z</time>
      </trkpt>
      <trkpt lat="44.1665" lon="5.29644">
        <ele>1676</ele>
        <time>2020-07-11T09:29:45.595Z</time>
      </trkpt>
      <trkpt lat="44.16652" lon="5.29643">
        <ele>1676</ele>
        <time>2020-07-11T09:29:46.596Z</time>
      </trkpt>
      <trkpt lat="44.16655" lon="5.29641">
        <ele>1677</ele>
        <time>2020-07-11T09:29:47.596Z</time>
      </trkpt>
      <trkpt lat="44.16657" lon="5.29639">
        <ele>1677</ele>
        <time>2020-07-11T09:29:48.596Z</time>
      </trkpt>
      <trkpt lat="44.1666" lon="5.29638">
        <ele>1677</ele>
        <time>2020-07-11T09:29:49.595Z</time>
      </trkpt>
      <trkpt lat="44.16662" lon="5.29636">
        <ele>1678</ele>
        <time>2020-07-11T09:29:50.595Z</time>
      </trkpt>
      <trkpt lat="44.16665" lon="5.29635">
        <ele>1679</ele>
        <time>2020-07-11T09:29:51.595Z</time>
      </trkpt>
      <trkpt lat="44.16667" lon="5.29633">
        <ele>1680</ele>
        <time>2020-07-11T09:29:52.596Z</time>
      </trkpt>
      <trkpt lat="44.1667" lon="5.29632">
        <ele>1680</ele>
        <time>2020-07-11T09:29:53.596Z</time>
      </trkpt>
      <trkpt lat="44.16672" lon="5.2963">
        <ele>1681</ele>
        <time>2020-07-11T09:29:54.596Z</time>
      </trkpt>
      <trkpt lat="44.16674" lon="5.29628">
        <ele>1681</ele>
        <time>2020-07-11T09:29:55.595Z</time>
      </trkpt>
      <trkpt lat="44.16677" lon="5.29626">
        <ele>1681</ele>
        <time>2020-07-11T09:29:56.596Z</time>
      </trkpt>
      <trkpt lat="44.16679" lon="5.29624">
        <ele>1682</ele>
        <time>2020-07-11T09:29:57.596Z</time>
      </trkpt>
      <trkpt lat="44.16682" lon="5.29623">
        <ele>1682</ele>
        <time>2020-07-11T09:29:58.596Z</time>
      </trkpt>
      <trkpt lat="44.16685" lon="5.29621">
        <ele>1682</ele>
        <time>2020-07-11T09:29:59.596Z</time>
      </trkpt>
      <trkpt lat="44.16688" lon="5.2962">
        <ele>1682</ele>
        <time>2020-07-11T09:30:00.595Z</time>
      </trkpt>
      <trkpt lat="44.1669" lon="5.29618">
        <ele>1682</ele>
        <time>2020-07-11T09:30:01.596Z</time>
      </trkpt>
      <trkpt lat="44.16693" lon="5.29617">
        <ele>1682</ele>
        <time>2020-07-11T09:30:02.596Z</time>
      </trkpt>
      <trkpt lat="44.16695" lon="5.29615">
        <ele>1682</ele>
        <time>2020-07-11T09:30:03.595Z</time>
      </trkpt>
      <trkpt lat="44.16698" lon="5.29614">
        <ele>1682</ele>
        <time>2020-07-11T09:30:04.596Z</time>
      </trkpt>
      <trkpt lat="44.167" lon="5.29612">
        <ele>1682</ele>
        <time>2020-07-11T09:30:05.596Z</time>
      </trkpt>
      <trkpt lat="44.16702" lon="5.2961">
        <ele>1682</ele>
        <time>2020-07-11T09:30:06.595Z</time>
      </trkpt>
      <trkpt lat="44.16704" lon="5.29608">
        <ele>1682</ele>
        <time>2020-07-11T09:30:07.595Z</time>
      </trkpt>
      <trkpt lat="44.16707" lon="5.29606">
        <ele>1683</ele>
        <time>2020-07-11T09:30:08.595Z</time>
      </trkpt>
      <trkpt lat="44.16709" lon="5.29604">
        <ele>1683</ele>
        <time>2020-07-11T09:30:09.596Z</time>
      </trkpt>
      <trkpt lat="44.16711" lon="5.29601">
        <ele>1683</ele>
        <time>2020-07-11T09:30:10.595Z</time>
      </trkpt>
      <trkpt lat="44.16713" lon="5.29599">
        <ele>1683</ele>
        <time>2020-07-11T09:30:11.596Z</time>
      </trkpt>
      <trkpt lat="44.16715" lon="5.29597">
        <ele>1684</ele>
        <time>2020-07-11T09:30:12.596Z</time>
      </trkpt>
      <trkpt lat="44.16717" lon="5.29594">
        <ele>1684</ele>
        <time>2020-07-11T09:30:13.596Z</time>
      </trkpt>
      <trkpt lat="44.1672" lon="5.29592">
        <ele>1685</ele>
        <time>2020-07-11T09:30:14.596Z</time>
      </trkpt>
      <trkpt lat="44.16722" lon="5.2959">
        <ele>1685</ele>
        <time>2020-07-11T09:30:15.596Z</time>
      </trkpt>
      <trkpt lat="44.16725" lon="5.29587">
        <ele>1685</ele>
        <time>2020-07-11T09:30:16.596Z</time>
      </trkpt>
      <trkpt lat="44.16727" lon="5.29584">
        <ele>1685</ele>
        <time>2020-07-11T09:30:17.595Z</time>
      </trkpt>
      <trkpt lat="44.16729" lon="5.29582">
        <ele>1685</ele>
        <time>2020-07-11T09:30:18.596Z</time>
      </trkpt>
      <trkpt lat="44.16731" lon="5.2958">
        <ele>1685</ele>
        <time>2020-07-11T09:30:19.596Z</time>
      </trkpt>
      <trkpt lat="44.16734" lon="5.29577">
        <ele>1686</ele>
        <time>2020-07-11T09:30:20.596Z</time>
      </trkpt>
      <trkpt lat="44.16736" lon="5.29575">
        <ele>1686</ele>
        <time>2020-07-11T09:30:21.595Z</time>
      </trkpt>
      <trkpt lat="44.16739" lon="5.29572">
        <ele>1686</ele>
        <time>2020-07-11T09:30:22.596Z</time>
      </trkpt>
      <trkpt lat="44.16741" lon="5.2957">
        <ele>1686</ele>
        <time>2020-07-11T09:30:23.596Z</time>
      </trkpt>
      <trkpt lat="44.16743" lon="5.29568">
        <ele>1686</ele>
        <time>2020-07-11T09:30:24.596Z</time>
      </trkpt>
      <trkpt lat="44.16746" lon="5.29565">
        <ele>1686</ele>
        <time>2020-07-11T09:30:25.596Z</time>
      </trkpt>
      <trkpt lat="44.16748" lon="5.29563">
        <ele>1687</ele>
        <time>2020-07-11T09:30:26.596Z</time>
      </trkpt>
      <trkpt lat="44.1675" lon="5.2956">
        <ele>1687</ele>
        <time>2020-07-11T09:30:27.596Z</time>
      </trkpt>
      <trkpt lat="44.16752" lon="5.29557">
        <ele>1688</ele>
        <time>2020-07-11T09:30:28.596Z</time>
      </trkpt>
      <trkpt lat="44.16754" lon="5.29554">
        <ele>1688</ele>
        <time>2020-07-11T09:30:29.596Z</time>
      </trkpt>
      <trkpt lat="44.16757" lon="5.29551">
        <ele>1688</ele>
        <time>2020-07-11T09:30:30.596Z</time>
      </trkpt>
      <trkpt lat="44.16759" lon="5.29548">
        <ele>1689</ele>
        <time>2020-07-11T09:30:31.596Z</time>
      </trkpt>
      <trkpt lat="44.1676" lon="5.29545">
        <ele>1689</ele>
        <time>2020-07-11T09:30:32.595Z</time>
      </trkpt>
      <trkpt lat="44.16762" lon="5.29541">
        <ele>1689</ele>
        <time>2020-07-11T09:30:33.595Z</time>
      </trkpt>
      <trkpt lat="44.16764" lon="5.29537">
        <ele>1690</ele>
        <time>2020-07-11T09:30:34.596Z</time>
      </trkpt>
      <trkpt lat="44.16765" lon="5.29534">
        <ele>1690</ele>
        <time>2020-07-11T09:30:35.596Z</time>
      </trkpt>
      <trkpt lat="44.16767" lon="5.2953">
        <ele>1690</ele>
        <time>2020-07-11T09:30:36.596Z</time>
      </trkpt>
      <trkpt lat="44.16768" lon="5.29526">
        <ele>1690</ele>
        <time>2020-07-11T09:30:37.596Z</time>
      </trkpt>
      <trkpt lat="44.16769" lon="5.29522">
        <ele>1690</ele>
        <time>2020-07-11T09:30:38.595Z</time>
      </trkpt>
      <trkpt lat="44.1677" lon="5.29518">
        <ele>1690</ele>
        <time>2020-07-11T09:30:39.595Z</time>
      </trkpt>
      <trkpt lat="44.16771" lon="5.29513">
        <ele>1690</ele>
        <time>2020-07-11T09:30:40.596Z</time>
      </trkpt>
      <trkpt lat="44.16771" lon="5.29508">
        <ele>1691</ele>
        <time>2020-07-11T09:30:41.596Z</time>
      </trkpt>
      <trkpt lat="44.16771" lon="5.29504">
        <ele>1691</ele>
        <time>2020-07-11T09:30:42.596Z</time>
      </trkpt>
      <trkpt lat="44.16771" lon="5.29499">
        <ele>1692</ele>
        <time>2020-07-11T09:30:43.596Z</time>
      </trkpt>
      <trkpt lat="44.16771" lon="5.29495">
        <ele>1692</ele>
        <time>2020-07-11T09:30:44.596Z</time>
      </trkpt>
      <trkpt lat="44.1677" lon="5.2949">
        <ele>1692</ele>
        <time>2020-07-11T09:30:45.595Z</time>
      </trkpt>
      <trkpt lat="44.16769" lon="5.29485">
        <ele>1693</ele>
        <time>2020-07-11T09:30:46.596Z</time>
      </trkpt>
      <trkpt lat="44.16768" lon="5.2948">
        <ele>1693</ele>
        <time>2020-07-11T09:30:47.596Z</time>
      </trkpt>
      <trkpt lat="44.16767" lon="5.29475">
        <ele>1693</ele>
        <time>2020-07-11T09:30:48.596Z</time>
      </trkpt>
      <trkpt lat="44.16765" lon="5.29471">
        <ele>1694</ele>
        <time>2020-07-11T09:30:49.595Z</time>
      </trkpt>
      <trkpt lat="44.16764" lon="5.29467">
        <ele>1694</ele>
        <time>2020-07-11T09:30:50.596Z</time>
      </trkpt>
      <trkpt lat="44.16762" lon="5.29463">
        <ele>1694</ele>
        <time>2020-07-11T09:30:51.596Z</time>
      </trkpt>
      <trkpt lat="44.16761" lon="5.29458">
        <ele>1695</ele>
        <time>2020-07-11T09:30:52.596Z</time>
      </trkpt>
      <trkpt lat="44.16759" lon="5.29454">
        <ele>1695</ele>
        <time>2020-07-11T09:30:53.596Z</time>
      </trkpt>
      <trkpt lat="44.16757" lon="5.2945">
        <ele>1696</ele>
        <time>2020-07-11T09:30:54.596Z</time>
      </trkpt>
      <trkpt lat="44.16755" lon="5.29446">
        <ele>1696</ele>
        <time>2020-07-11T09:30:55.596Z</time>
      </trkpt>
      <trkpt lat="44.16753" lon="5.29442">
        <ele>1696</ele>
        <time>2020-07-11T09:30:56.596Z</time>
      </trkpt>
      <trkpt lat="44.16751" lon="5.29438">
        <ele>1696</ele>
        <time>2020-07-11T09:30:57.596Z</time>
      </trkpt>
      <trkpt lat="44.16749" lon="5.29434">
        <ele>1696</ele>
        <time>2020-07-11T09:30:58.596Z</time>
      </trkpt>
      <trkpt lat="44.16747" lon="5.2943">
        <ele>1696</ele>
        <time>2020-07-11T09:30:59.595Z</time>
      </trkpt>
      <trkpt lat="44.16745" lon="5.29426">
        <ele>1696</ele>
        <time>2020-07-11T09:31:00.596Z</time>
      </trkpt>
      <trkpt lat="44.16743" lon="5.29422">
        <ele>1696</ele>
        <time>2020-07-11T09:31:01.596Z</time>
      </trkpt>
      <trkpt lat="44.16742" lon="5.29418">
        <ele>1696</ele>
        <time>2020-07-11T09:31:02.596Z</time>
      </trkpt>
      <trkpt lat="44.1674" lon="5.29415">
        <ele>1696</ele>
        <time>2020-07-11T09:31:03.596Z</time>
      </trkpt>
      <trkpt lat="44.16738" lon="5.29411">
        <ele>1696</ele>
        <time>2020-07-11T09:31:04.596Z</time>
      </trkpt>
      <trkpt lat="44.16736" lon="5.29407">
        <ele>1697</ele>
        <time>2020-07-11T09:31:05.596Z</time>
      </trkpt>
      <trkpt lat="44.16734" lon="5.29403">
        <ele>1697</ele>
        <time>2020-07-11T09:31:06.595Z</time>
      </trkpt>
      <trkpt lat="44.16732" lon="5.29399">
        <ele>1697</ele>
        <time>2020-07-11T09:31:07.596Z</time>
      </trkpt>
      <trkpt lat="44.16731" lon="5.29395">
        <ele>1698</ele>
        <time>2020-07-11T09:31:08.596Z</time>
      </trkpt>
      <trkpt lat="44.16729" lon="5.29392">
        <ele>1698</ele>
        <time>2020-07-11T09:31:09.596Z</time>
      </trkpt>
      <trkpt lat="44.16727" lon="5.29388">
        <ele>1698</ele>
        <time>2020-07-11T09:31:10.595Z</time>
      </trkpt>
      <trkpt lat="44.16726" lon="5.29384">
        <ele>1698</ele>
        <time>2020-07-11T09:31:11.596Z</time>
      </trkpt>
      <trkpt lat="44.16724" lon="5.29381">
        <ele>1697</ele>
        <time>2020-07-11T09:31:12.595Z</time>
      </trkpt>
      <trkpt lat="44.16723" lon="5.29377">
        <ele>1697</ele>
        <time>2020-07-11T09:31:13.596Z</time>
      </trkpt>
      <trkpt lat="44.16721" lon="5.29373">
        <ele>1698</ele>
        <time>2020-07-11T09:31:14.596Z</time>
      </trkpt>
      <trkpt lat="44.1672" lon="5.2937">
        <ele>1698</ele>
        <time>2020-07-11T09:31:15.596Z</time>
      </trkpt>
      <trkpt lat="44.16718" lon="5.29366">
        <ele>1698</ele>
        <time>2020-07-11T09:31:16.596Z</time>
      </trkpt>
      <trkpt lat="44.16717" lon="5.29362">
        <ele>1698</ele>
        <time>2020-07-11T09:31:17.596Z</time>
      </trkpt>
      <trkpt lat="44.16716" lon="5.29359">
        <ele>1698</ele>
        <time>2020-07-11T09:31:18.596Z</time>
      </trkpt>
      <trkpt lat="44.16714" lon="5.29355">
        <ele>1699</ele>
        <time>2020-07-11T09:31:19.596Z</time>
      </trkpt>
      <trkpt lat="44.16713" lon="5.29352">
        <ele>1699</ele>
        <time>2020-07-11T09:31:20.595Z</time>
      </trkpt>
      <trkpt lat="44.16712" lon="5.29347">
        <ele>1699</ele>
        <time>2020-07-11T09:31:21.596Z</time>
      </trkpt>
      <trkpt lat="44.16711" lon="5.29343">
        <ele>1699</ele>
        <time>2020-07-11T09:31:22.596Z</time>
      </trkpt>
      <trkpt lat="44.16711" lon="5.29339">
        <ele>1700</ele>
        <time>2020-07-11T09:31:23.596Z</time>
      </trkpt>
      <trkpt lat="44.1671" lon="5.29335">
        <ele>1700</ele>
        <time>2020-07-11T09:31:24.596Z</time>
      </trkpt>
      <trkpt lat="44.16709" lon="5.29331">
        <ele>1700</ele>
        <time>2020-07-11T09:31:25.596Z</time>
      </trkpt>
      <trkpt lat="44.16709" lon="5.29327">
        <ele>1701</ele>
        <time>2020-07-11T09:31:26.596Z</time>
      </trkpt>
      <trkpt lat="44.16708" lon="5.29323">
        <ele>1701</ele>
        <time>2020-07-11T09:31:27.596Z</time>
      </trkpt>
      <trkpt lat="44.16708" lon="5.29318">
        <ele>1701</ele>
        <time>2020-07-11T09:31:28.596Z</time>
      </trkpt>
      <trkpt lat="44.16708" lon="5.29314">
        <ele>1702</ele>
        <time>2020-07-11T09:31:29.596Z</time>
      </trkpt>
      <trkpt lat="44.16707" lon="5.2931">
        <ele>1703</ele>
        <time>2020-07-11T09:31:30.596Z</time>
      </trkpt>
      <trkpt lat="44.16707" lon="5.29306">
        <ele>1703</ele>
        <time>2020-07-11T09:31:31.595Z</time>
      </trkpt>
      <trkpt lat="44.16707" lon="5.29302">
        <ele>1704</ele>
        <time>2020-07-11T09:31:32.596Z</time>
      </trkpt>
      <trkpt lat="44.16707" lon="5.29298">
        <ele>1704</ele>
        <time>2020-07-11T09:31:33.596Z</time>
      </trkpt>
      <trkpt lat="44.16707" lon="5.29293">
        <ele>1704</ele>
        <time>2020-07-11T09:31:34.596Z</time>
      </trkpt>
      <trkpt lat="44.16707" lon="5.29289">
        <ele>1705</ele>
        <time>2020-07-11T09:31:35.595Z</time>
      </trkpt>
      <trkpt lat="44.16708" lon="5.29285">
        <ele>1705</ele>
        <time>2020-07-11T09:31:36.595Z</time>
      </trkpt>
      <trkpt lat="44.16708" lon="5.29281">
        <ele>1706</ele>
        <time>2020-07-11T09:31:37.596Z</time>
      </trkpt>
      <trkpt lat="44.16708" lon="5.29277">
        <ele>1706</ele>
        <time>2020-07-11T09:31:38.595Z</time>
      </trkpt>
      <trkpt lat="44.16709" lon="5.29273">
        <ele>1707</ele>
        <time>2020-07-11T09:31:39.596Z</time>
      </trkpt>
      <trkpt lat="44.1671" lon="5.29269">
        <ele>1707</ele>
        <time>2020-07-11T09:31:40.596Z</time>
      </trkpt>
      <trkpt lat="44.16711" lon="5.29266">
        <ele>1707</ele>
        <time>2020-07-11T09:31:41.596Z</time>
      </trkpt>
      <trkpt lat="44.16712" lon="5.29262">
        <ele>1707</ele>
        <time>2020-07-11T09:31:42.596Z</time>
      </trkpt>
      <trkpt lat="44.16714" lon="5.29258">
        <ele>1707</ele>
        <time>2020-07-11T09:31:43.596Z</time>
      </trkpt>
      <trkpt lat="44.16715" lon="5.29255">
        <ele>1708</ele>
        <time>2020-07-11T09:31:44.596Z</time>
      </trkpt>
      <trkpt lat="44.16716" lon="5.29252">
        <ele>1708</ele>
        <time>2020-07-11T09:31:45.596Z</time>
      </trkpt>
      <trkpt lat="44.16718" lon="5.29248">
        <ele>1708</ele>
        <time>2020-07-11T09:31:46.596Z</time>
      </trkpt>
      <trkpt lat="44.16719" lon="5.29245">
        <ele>1708</ele>
        <time>2020-07-11T09:31:47.596Z</time>
      </trkpt>
      <trkpt lat="44.16721" lon="5.29243">
        <ele>1707</ele>
        <time>2020-07-11T09:31:48.596Z</time>
      </trkpt>
      <trkpt lat="44.16722" lon="5.2924">
        <ele>1707</ele>
        <time>2020-07-11T09:31:49.596Z</time>
      </trkpt>
      <trkpt lat="44.16724" lon="5.29237">
        <ele>1707</ele>
        <time>2020-07-11T09:31:50.596Z</time>
      </trkpt>
      <trkpt lat="44.16726" lon="5.29234">
        <ele>1707</ele>
        <time>2020-07-11T09:31:51.596Z</time>
      </trkpt>
      <trkpt lat="44.16728" lon="5.29232">
        <ele>1707</ele>
        <time>2020-07-11T09:31:52.595Z</time>
      </trkpt>
      <trkpt lat="44.16729" lon="5.29229">
        <ele>1707</ele>
        <time>2020-07-11T09:31:53.595Z</time>
      </trkpt>
      <trkpt lat="44.16732" lon="5.29226">
        <ele>1707</ele>
        <time>2020-07-11T09:31:54.596Z</time>
      </trkpt>
      <trkpt lat="44.16733" lon="5.29223">
        <ele>1708</ele>
        <time>2020-07-11T09:31:55.596Z</time>
      </trkpt>
      <trkpt lat="44.16736" lon="5.29221">
        <ele>1708</ele>
        <time>2020-07-11T09:31:56.596Z</time>
      </trkpt>
      <trkpt lat="44.16737" lon="5.29218">
        <ele>1708</ele>
        <time>2020-07-11T09:31:57.596Z</time>
      </trkpt>
      <trkpt lat="44.1674" lon="5.29215">
        <ele>1708</ele>
        <time>2020-07-11T09:31:58.596Z</time>
      </trkpt>
      <trkpt lat="44.16742" lon="5.29212">
        <ele>1709</ele>
        <time>2020-07-11T09:31:59.596Z</time>
      </trkpt>
      <trkpt lat="44.16744" lon="5.2921">
        <ele>1709</ele>
        <time>2020-07-11T09:32:00.596Z</time>
      </trkpt>
      <trkpt lat="44.16747" lon="5.29207">
        <ele>1709</ele>
        <time>2020-07-11T09:32:01.596Z</time>
      </trkpt>
      <trkpt lat="44.16749" lon="5.29205">
        <ele>1709</ele>
        <time>2020-07-11T09:32:02.596Z</time>
      </trkpt>
      <trkpt lat="44.16751" lon="5.29202">
        <ele>1709</ele>
        <time>2020-07-11T09:32:03.596Z</time>
      </trkpt>
      <trkpt lat="44.16754" lon="5.292">
        <ele>1709</ele>
        <time>2020-07-11T09:32:04.596Z</time>
      </trkpt>
      <trkpt lat="44.16756" lon="5.29198">
        <ele>1709</ele>
        <time>2020-07-11T09:32:05.595Z</time>
      </trkpt>
      <trkpt lat="44.16758" lon="5.29196">
        <ele>1709</ele>
        <time>2020-07-11T09:32:06.596Z</time>
      </trkpt>
      <trkpt lat="44.16761" lon="5.29194">
        <ele>1709</ele>
        <time>2020-07-11T09:32:07.596Z</time>
      </trkpt>
      <trkpt lat="44.16763" lon="5.29193">
        <ele>1710</ele>
        <time>2020-07-11T09:32:08.596Z</time>
      </trkpt>
      <trkpt lat="44.16766" lon="5.29191">
        <ele>1710</ele>
        <time>2020-07-11T09:32:09.596Z</time>
      </trkpt>
      <trkpt lat="44.16769" lon="5.2919">
        <ele>1711</ele>
        <time>2020-07-11T09:32:10.596Z</time>
      </trkpt>
      <trkpt lat="44.16771" lon="5.29189">
        <ele>1712</ele>
        <time>2020-07-11T09:32:11.596Z</time>
      </trkpt>
      <trkpt lat="44.16774" lon="5.29188">
        <ele>1713</ele>
        <time>2020-07-11T09:32:12.596Z</time>
      </trkpt>
      <trkpt lat="44.16776" lon="5.29187">
        <ele>1713</ele>
        <time>2020-07-11T09:32:13.596Z</time>
      </trkpt>
      <trkpt lat="44.16779" lon="5.29185">
        <ele>1714</ele>
        <time>2020-07-11T09:32:14.596Z</time>
      </trkpt>
      <trkpt lat="44.16782" lon="5.29184">
        <ele>1714</ele>
        <time>2020-07-11T09:32:15.596Z</time>
      </trkpt>
      <trkpt lat="44.16784" lon="5.29183">
        <ele>1715</ele>
        <time>2020-07-11T09:32:16.595Z</time>
      </trkpt>
      <trkpt lat="44.16787" lon="5.29182">
        <ele>1716</ele>
        <time>2020-07-11T09:32:17.596Z</time>
      </trkpt>
      <trkpt lat="44.16789" lon="5.29181">
        <ele>1716</ele>
        <time>2020-07-11T09:32:18.596Z</time>
      </trkpt>
      <trkpt lat="44.16792" lon="5.2918">
        <ele>1717</ele>
        <time>2020-07-11T09:32:19.596Z</time>
      </trkpt>
      <trkpt lat="44.16794" lon="5.29178">
        <ele>1717</ele>
        <time>2020-07-11T09:32:20.596Z</time>
      </trkpt>
      <trkpt lat="44.16797" lon="5.29177">
        <ele>1717</ele>
        <time>2020-07-11T09:32:21.596Z</time>
      </trkpt>
      <trkpt lat="44.16799" lon="5.29176">
        <ele>1717</ele>
        <time>2020-07-11T09:32:22.596Z</time>
      </trkpt>
      <trkpt lat="44.16802" lon="5.29175">
        <ele>1717</ele>
        <time>2020-07-11T09:32:23.596Z</time>
      </trkpt>
      <trkpt lat="44.16804" lon="5.29174">
        <ele>1717</ele>
        <time>2020-07-11T09:32:24.595Z</time>
      </trkpt>
      <trkpt lat="44.16807" lon="5.29173">
        <ele>1717</ele>
        <time>2020-07-11T09:32:25.595Z</time>
      </trkpt>
      <trkpt lat="44.16809" lon="5.29172">
        <ele>1717</ele>
        <time>2020-07-11T09:32:26.595Z</time>
      </trkpt>
      <trkpt lat="44.16812" lon="5.29171">
        <ele>1718</ele>
        <time>2020-07-11T09:32:27.596Z</time>
      </trkpt>
      <trkpt lat="44.16815" lon="5.2917">
        <ele>1718</ele>
        <time>2020-07-11T09:32:28.596Z</time>
      </trkpt>
      <trkpt lat="44.16817" lon="5.29169">
        <ele>1718</ele>
        <time>2020-07-11T09:32:29.596Z</time>
      </trkpt>
      <trkpt lat="44.1682" lon="5.29168">
        <ele>1718</ele>
        <time>2020-07-11T09:32:30.596Z</time>
      </trkpt>
      <trkpt lat="44.16823" lon="5.29167">
        <ele>1719</ele>
        <time>2020-07-11T09:32:31.595Z</time>
      </trkpt>
      <trkpt lat="44.16825" lon="5.29165">
        <ele>1719</ele>
        <time>2020-07-11T09:32:32.596Z</time>
      </trkpt>
      <trkpt lat="44.16827" lon="5.29164">
        <ele>1719</ele>
        <time>2020-07-11T09:32:33.595Z</time>
      </trkpt>
      <trkpt lat="44.1683" lon="5.29163">
        <ele>1720</ele>
        <time>2020-07-11T09:32:34.596Z</time>
      </trkpt>
      <trkpt lat="44.16833" lon="5.29163">
        <ele>1720</ele>
        <time>2020-07-11T09:32:35.596Z</time>
      </trkpt>
      <trkpt lat="44.16835" lon="5.29162">
        <ele>1720</ele>
        <time>2020-07-11T09:32:36.596Z</time>
      </trkpt>
      <trkpt lat="44.16838" lon="5.29161">
        <ele>1720</ele>
        <time>2020-07-11T09:32:37.595Z</time>
      </trkpt>
      <trkpt lat="44.1684" lon="5.2916">
        <ele>1721</ele>
        <time>2020-07-11T09:32:38.596Z</time>
      </trkpt>
      <trkpt lat="44.16843" lon="5.29159">
        <ele>1721</ele>
        <time>2020-07-11T09:32:39.596Z</time>
      </trkpt>
      <trkpt lat="44.16845" lon="5.29158">
        <ele>1721</ele>
        <time>2020-07-11T09:32:40.596Z</time>
      </trkpt>
      <trkpt lat="44.16847" lon="5.29157">
        <ele>1721</ele>
        <time>2020-07-11T09:32:41.596Z</time>
      </trkpt>
      <trkpt lat="44.1685" lon="5.29156">
        <ele>1721</ele>
        <time>2020-07-11T09:32:42.596Z</time>
      </trkpt>
      <trkpt lat="44.16852" lon="5.29154">
        <ele>1721</ele>
        <time>2020-07-11T09:32:43.595Z</time>
      </trkpt>
      <trkpt lat="44.16855" lon="5.29153">
        <ele>1720</ele>
        <time>2020-07-11T09:32:44.595Z</time>
      </trkpt>
      <trkpt lat="44.16857" lon="5.29151">
        <ele>1720</ele>
        <time>2020-07-11T09:32:45.596Z</time>
      </trkpt>
      <trkpt lat="44.1686" lon="5.2915">
        <ele>1720</ele>
        <time>2020-07-11T09:32:46.596Z</time>
      </trkpt>
      <trkpt lat="44.16862" lon="5.29149">
        <ele>1720</ele>
        <time>2020-07-11T09:32:47.595Z</time>
      </trkpt>
      <trkpt lat="44.16865" lon="5.29148">
        <ele>1720</ele>
        <time>2020-07-11T09:32:48.596Z</time>
      </trkpt>
      <trkpt lat="44.16868" lon="5.29148">
        <ele>1720</ele>
        <time>2020-07-11T09:32:49.596Z</time>
      </trkpt>
      <trkpt lat="44.16871" lon="5.29148">
        <ele>1720</ele>
        <time>2020-07-11T09:32:50.596Z</time>
      </trkpt>
      <trkpt lat="44.16873" lon="5.29147">
        <ele>1720</ele>
        <time>2020-07-11T09:32:51.596Z</time>
      </trkpt>
      <trkpt lat="44.16876" lon="5.29146">
        <ele>1720</ele>
        <time>2020-07-11T09:32:52.596Z</time>
      </trkpt>
      <trkpt lat="44.16878" lon="5.29145">
        <ele>1721</ele>
        <time>2020-07-11T09:32:53.596Z</time>
      </trkpt>
      <trkpt lat="44.16881" lon="5.29144">
        <ele>1721</ele>
        <time>2020-07-11T09:32:54.596Z</time>
      </trkpt>
      <trkpt lat="44.16883" lon="5.29143">
        <ele>1722</ele>
        <time>2020-07-11T09:32:55.595Z</time>
      </trkpt>
      <trkpt lat="44.16885" lon="5.29142">
        <ele>1723</ele>
        <time>2020-07-11T09:32:56.596Z</time>
      </trkpt>
      <trkpt lat="44.16888" lon="5.29141">
        <ele>1723</ele>
        <time>2020-07-11T09:32:57.596Z</time>
      </trkpt>
      <trkpt lat="44.16891" lon="5.2914">
        <ele>1724</ele>
        <time>2020-07-11T09:32:58.596Z</time>
      </trkpt>
      <trkpt lat="44.16893" lon="5.29139">
        <ele>1724</ele>
        <time>2020-07-11T09:32:59.596Z</time>
      </trkpt>
      <trkpt lat="44.16896" lon="5.29139">
        <ele>1725</ele>
        <time>2020-07-11T09:33:00.596Z</time>
      </trkpt>
      <trkpt lat="44.16898" lon="5.29138">
        <ele>1726</ele>
        <time>2020-07-11T09:33:01.596Z</time>
      </trkpt>
      <trkpt lat="44.16901" lon="5.29137">
        <ele>1726</ele>
        <time>2020-07-11T09:33:02.596Z</time>
      </trkpt>
      <trkpt lat="44.16903" lon="5.29136">
        <ele>1727</ele>
        <time>2020-07-11T09:33:03.596Z</time>
      </trkpt>
      <trkpt lat="44.16906" lon="5.29136">
        <ele>1728</ele>
        <time>2020-07-11T09:33:04.596Z</time>
      </trkpt>
      <trkpt lat="44.16908" lon="5.29135">
        <ele>1728</ele>
        <time>2020-07-11T09:33:05.596Z</time>
      </trkpt>
      <trkpt lat="44.16911" lon="5.29134">
        <ele>1729</ele>
        <time>2020-07-11T09:33:06.595Z</time>
      </trkpt>
      <trkpt lat="44.16913" lon="5.29133">
        <ele>1729</ele>
        <time>2020-07-11T09:33:07.596Z</time>
      </trkpt>
      <trkpt lat="44.16916" lon="5.29132">
        <ele>1730</ele>
        <time>2020-07-11T09:33:08.595Z</time>
      </trkpt>
      <trkpt lat="44.16918" lon="5.29131">
        <ele>1730</ele>
        <time>2020-07-11T09:33:09.596Z</time>
      </trkpt>
      <trkpt lat="44.16921" lon="5.2913">
        <ele>1730</ele>
        <time>2020-07-11T09:33:10.596Z</time>
      </trkpt>
      <trkpt lat="44.16923" lon="5.29129">
        <ele>1730</ele>
        <time>2020-07-11T09:33:11.596Z</time>
      </trkpt>
      <trkpt lat="44.16925" lon="5.29128">
        <ele>1730</ele>
        <time>2020-07-11T09:33:12.595Z</time>
      </trkpt>
      <trkpt lat="44.16928" lon="5.29127">
        <ele>1730</ele>
        <time>2020-07-11T09:33:13.596Z</time>
      </trkpt>
      <trkpt lat="44.1693" lon="5.29126">
        <ele>1730</ele>
        <time>2020-07-11T09:33:14.596Z</time>
      </trkpt>
      <trkpt lat="44.16932" lon="5.29125">
        <ele>1730</ele>
        <time>2020-07-11T09:33:15.596Z</time>
      </trkpt>
      <trkpt lat="44.16935" lon="5.29124">
        <ele>1730</ele>
        <time>2020-07-11T09:33:16.596Z</time>
      </trkpt>
      <trkpt lat="44.16937" lon="5.29122">
        <ele>1730</ele>
        <time>2020-07-11T09:33:17.596Z</time>
      </trkpt>
      <trkpt lat="44.16939" lon="5.2912">
        <ele>1730</ele>
        <time>2020-07-11T09:33:18.596Z</time>
      </trkpt>
      <trkpt lat="44.16941" lon="5.29118">
        <ele>1731</ele>
        <time>2020-07-11T09:33:19.596Z</time>
      </trkpt>
      <trkpt lat="44.16943" lon="5.29116">
        <ele>1732</ele>
        <time>2020-07-11T09:33:20.596Z</time>
      </trkpt>
      <trkpt lat="44.16945" lon="5.29113">
        <ele>1732</ele>
        <time>2020-07-11T09:33:21.596Z</time>
      </trkpt>
      <trkpt lat="44.16947" lon="5.2911">
        <ele>1732</ele>
        <time>2020-07-11T09:33:22.596Z</time>
      </trkpt>
      <trkpt lat="44.16949" lon="5.29107">
        <ele>1732</ele>
        <time>2020-07-11T09:33:23.595Z</time>
      </trkpt>
      <trkpt lat="44.1695" lon="5.29104">
        <ele>1733</ele>
        <time>2020-07-11T09:33:24.596Z</time>
      </trkpt>
      <trkpt lat="44.16951" lon="5.291">
        <ele>1733</ele>
        <time>2020-07-11T09:33:25.595Z</time>
      </trkpt>
      <trkpt lat="44.16951" lon="5.29096">
        <ele>1733</ele>
        <time>2020-07-11T09:33:26.596Z</time>
      </trkpt>
      <trkpt lat="44.16951" lon="5.29092">
        <ele>1734</ele>
        <time>2020-07-11T09:33:27.596Z</time>
      </trkpt>
      <trkpt lat="44.16951" lon="5.29088">
        <ele>1734</ele>
        <time>2020-07-11T09:33:28.596Z</time>
      </trkpt>
      <trkpt lat="44.1695" lon="5.29084">
        <ele>1734</ele>
        <time>2020-07-11T09:33:29.596Z</time>
      </trkpt>
      <trkpt lat="44.16949" lon="5.2908">
        <ele>1735</ele>
        <time>2020-07-11T09:33:30.596Z</time>
      </trkpt>
      <trkpt lat="44.16948" lon="5.29076">
        <ele>1735</ele>
        <time>2020-07-11T09:33:31.596Z</time>
      </trkpt>
      <trkpt lat="44.16946" lon="5.29073">
        <ele>1735</ele>
        <time>2020-07-11T09:33:32.596Z</time>
      </trkpt>
      <trkpt lat="44.16944" lon="5.29069">
        <ele>1735</ele>
        <time>2020-07-11T09:33:33.595Z</time>
      </trkpt>
      <trkpt lat="44.16942" lon="5.29066">
        <ele>1735</ele>
        <time>2020-07-11T09:33:34.596Z</time>
      </trkpt>
      <trkpt lat="44.1694" lon="5.29063">
        <ele>1736</ele>
        <time>2020-07-11T09:33:35.595Z</time>
      </trkpt>
      <trkpt lat="44.16937" lon="5.2906">
        <ele>1736</ele>
        <time>2020-07-11T09:33:36.596Z</time>
      </trkpt>
      <trkpt lat="44.16935" lon="5.29057">
        <ele>1737</ele>
        <time>2020-07-11T09:33:37.595Z</time>
      </trkpt>
      <trkpt lat="44.16932" lon="5.29055">
        <ele>1737</ele>
        <time>2020-07-11T09:33:38.596Z</time>
      </trkpt>
      <trkpt lat="44.16929" lon="5.29051">
        <ele>1738</ele>
        <time>2020-07-11T09:33:39.595Z</time>
      </trkpt>
      <trkpt lat="44.16926" lon="5.29049">
        <ele>1738</ele>
        <time>2020-07-11T09:33:40.595Z</time>
      </trkpt>
      <trkpt lat="44.16923" lon="5.29046">
        <ele>1738</ele>
        <time>2020-07-11T09:33:41.596Z</time>
      </trkpt>
      <trkpt lat="44.1692" lon="5.29044">
        <ele>1739</ele>
        <time>2020-07-11T09:33:42.596Z</time>
      </trkpt>
      <trkpt lat="44.16918" lon="5.29041">
        <ele>1739</ele>
        <time>2020-07-11T09:33:43.596Z</time>
      </trkpt>
      <trkpt lat="44.16915" lon="5.29038">
        <ele>1740</ele>
        <time>2020-07-11T09:33:44.596Z</time>
      </trkpt>
      <trkpt lat="44.16913" lon="5.29035">
        <ele>1740</ele>
        <time>2020-07-11T09:33:45.595Z</time>
      </trkpt>
      <trkpt lat="44.1691" lon="5.29033">
        <ele>1740</ele>
        <time>2020-07-11T09:33:46.596Z</time>
      </trkpt>
      <trkpt lat="44.16908" lon="5.2903">
        <ele>1740</ele>
        <time>2020-07-11T09:33:47.596Z</time>
      </trkpt>
      <trkpt lat="44.16905" lon="5.29027">
        <ele>1740</ele>
        <time>2020-07-11T09:33:48.595Z</time>
      </trkpt>
      <trkpt lat="44.16902" lon="5.29024">
        <ele>1740</ele>
        <time>2020-07-11T09:33:49.595Z</time>
      </trkpt>
      <trkpt lat="44.169" lon="5.29022">
        <ele>1741</ele>
        <time>2020-07-11T09:33:50.596Z</time>
      </trkpt>
      <trkpt lat="44.16897" lon="5.29019">
        <ele>1741</ele>
        <time>2020-07-11T09:33:51.596Z</time>
      </trkpt>
      <trkpt lat="44.16894" lon="5.29016">
        <ele>1741</ele>
        <time>2020-07-11T09:33:52.596Z</time>
      </trkpt>
      <trkpt lat="44.16892" lon="5.29013">
        <ele>1741</ele>
        <time>2020-07-11T09:33:53.596Z</time>
      </trkpt>
      <trkpt lat="44.16889" lon="5.2901">
        <ele>1741</ele>
        <time>2020-07-11T09:33:54.596Z</time>
      </trkpt>
      <trkpt lat="44.16887" lon="5.29007">
        <ele>1742</ele>
        <time>2020-07-11T09:33:55.595Z</time>
      </trkpt>
      <trkpt lat="44.16884" lon="5.29003">
        <ele>1742</ele>
        <time>2020-07-11T09:33:56.596Z</time>
      </trkpt>
      <trkpt lat="44.16882" lon="5.29">
        <ele>1742</ele>
        <time>2020-07-11T09:33:57.596Z</time>
      </trkpt>
      <trkpt lat="44.16879" lon="5.28996">
        <ele>1742</ele>
        <time>2020-07-11T09:33:58.596Z</time>
      </trkpt>
      <trkpt lat="44.16878" lon="5.28993">
        <ele>1742</ele>
        <time>2020-07-11T09:33:59.596Z</time>
      </trkpt>
      <trkpt lat="44.16876" lon="5.28989">
        <ele>1742</ele>
        <time>2020-07-11T09:34:00.595Z</time>
      </trkpt>
      <trkpt lat="44.16874" lon="5.28985">
        <ele>1742</ele>
        <time>2020-07-11T09:34:01.596Z</time>
      </trkpt>
      <trkpt lat="44.16872" lon="5.28981">
        <ele>1742</ele>
        <time>2020-07-11T09:34:02.595Z</time>
      </trkpt>
      <trkpt lat="44.16871" lon="5.28977">
        <ele>1742</ele>
        <time>2020-07-11T09:34:03.595Z</time>
      </trkpt>
      <trkpt lat="44.16869" lon="5.28974">
        <ele>1743</ele>
        <time>2020-07-11T09:34:04.596Z</time>
      </trkpt>
      <trkpt lat="44.16868" lon="5.2897">
        <ele>1743</ele>
        <time>2020-07-11T09:34:05.595Z</time>
      </trkpt>
      <trkpt lat="44.16867" lon="5.28966">
        <ele>1744</ele>
        <time>2020-07-11T09:34:06.596Z</time>
      </trkpt>
      <trkpt lat="44.16866" lon="5.28962">
        <ele>1744</ele>
        <time>2020-07-11T09:34:07.596Z</time>
      </trkpt>
      <trkpt lat="44.16865" lon="5.28958">
        <ele>1745</ele>
        <time>2020-07-11T09:34:08.595Z</time>
      </trkpt>
      <trkpt lat="44.16865" lon="5.28954">
        <ele>1745</ele>
        <time>2020-07-11T09:34:09.595Z</time>
      </trkpt>
      <trkpt lat="44.16864" lon="5.2895">
        <ele>1745</ele>
        <time>2020-07-11T09:34:10.596Z</time>
      </trkpt>
      <trkpt lat="44.16863" lon="5.28946">
        <ele>1745</ele>
        <time>2020-07-11T09:34:11.596Z</time>
      </trkpt>
      <trkpt lat="44.16863" lon="5.28942">
        <ele>1746</ele>
        <time>2020-07-11T09:34:12.595Z</time>
      </trkpt>
      <trkpt lat="44.16862" lon="5.28938">
        <ele>1746</ele>
        <time>2020-07-11T09:34:13.595Z</time>
      </trkpt>
      <trkpt lat="44.16862" lon="5.28933">
        <ele>1747</ele>
        <time>2020-07-11T09:34:14.596Z</time>
      </trkpt>
      <trkpt lat="44.16862" lon="5.28929">
        <ele>1747</ele>
        <time>2020-07-11T09:34:15.595Z</time>
      </trkpt>
      <trkpt lat="44.16862" lon="5.28925">
        <ele>1748</ele>
        <time>2020-07-11T09:34:16.595Z</time>
      </trkpt>
      <trkpt lat="44.16862" lon="5.2892">
        <ele>1748</ele>
        <time>2020-07-11T09:34:17.595Z</time>
      </trkpt>
      <trkpt lat="44.16862" lon="5.28916">
        <ele>1748</ele>
        <time>2020-07-11T09:34:18.595Z</time>
      </trkpt>
      <trkpt lat="44.16862" lon="5.28912">
        <ele>1748</ele>
        <time>2020-07-11T09:34:19.595Z</time>
      </trkpt>
      <trkpt lat="44.16862" lon="5.28907">
        <ele>1748</ele>
        <time>2020-07-11T09:34:20.596Z</time>
      </trkpt>
      <trkpt lat="44.16862" lon="5.28903">
        <ele>1749</ele>
        <time>2020-07-11T09:34:21.596Z</time>
      </trkpt>
      <trkpt lat="44.16862" lon="5.289">
        <ele>1749</ele>
        <time>2020-07-11T09:34:22.596Z</time>
      </trkpt>
      <trkpt lat="44.16863" lon="5.28896">
        <ele>1750</ele>
        <time>2020-07-11T09:34:23.596Z</time>
      </trkpt>
      <trkpt lat="44.16863" lon="5.28892">
        <ele>1750</ele>
        <time>2020-07-11T09:34:24.596Z</time>
      </trkpt>
      <trkpt lat="44.16863" lon="5.28888">
        <ele>1750</ele>
        <time>2020-07-11T09:34:25.596Z</time>
      </trkpt>
      <trkpt lat="44.16864" lon="5.28883">
        <ele>1750</ele>
        <time>2020-07-11T09:34:26.596Z</time>
      </trkpt>
      <trkpt lat="44.16864" lon="5.28879">
        <ele>1751</ele>
        <time>2020-07-11T09:34:27.596Z</time>
      </trkpt>
      <trkpt lat="44.16865" lon="5.28875">
        <ele>1751</ele>
        <time>2020-07-11T09:34:28.596Z</time>
      </trkpt>
      <trkpt lat="44.16865" lon="5.28871">
        <ele>1752</ele>
        <time>2020-07-11T09:34:29.596Z</time>
      </trkpt>
      <trkpt lat="44.16866" lon="5.28867">
        <ele>1752</ele>
        <time>2020-07-11T09:34:30.596Z</time>
      </trkpt>
      <trkpt lat="44.16866" lon="5.28863">
        <ele>1752</ele>
        <time>2020-07-11T09:34:31.596Z</time>
      </trkpt>
      <trkpt lat="44.16867" lon="5.2886">
        <ele>1752</ele>
        <time>2020-07-11T09:34:32.595Z</time>
      </trkpt>
      <trkpt lat="44.16867" lon="5.28856">
        <ele>1753</ele>
        <time>2020-07-11T09:34:33.596Z</time>
      </trkpt>
      <trkpt lat="44.16868" lon="5.28852">
        <ele>1753</ele>
        <time>2020-07-11T09:34:34.596Z</time>
      </trkpt>
      <trkpt lat="44.16869" lon="5.28848">
        <ele>1753</ele>
        <time>2020-07-11T09:34:35.595Z</time>
      </trkpt>
      <trkpt lat="44.16869" lon="5.28844">
        <ele>1754</ele>
        <time>2020-07-11T09:34:36.596Z</time>
      </trkpt>
      <trkpt lat="44.1687" lon="5.2884">
        <ele>1754</ele>
        <time>2020-07-11T09:34:37.595Z</time>
      </trkpt>
      <trkpt lat="44.1687" lon="5.28835">
        <ele>1755</ele>
        <time>2020-07-11T09:34:38.596Z</time>
      </trkpt>
      <trkpt lat="44.16871" lon="5.28831">
        <ele>1755</ele>
        <time>2020-07-11T09:34:39.595Z</time>
      </trkpt>
      <trkpt lat="44.16872" lon="5.28827">
        <ele>1756</ele>
        <time>2020-07-11T09:34:40.596Z</time>
      </trkpt>
      <trkpt lat="44.16872" lon="5.28823">
        <ele>1756</ele>
        <time>2020-07-11T09:34:41.595Z</time>
      </trkpt>
      <trkpt lat="44.16873" lon="5.2882">
        <ele>1756</ele>
        <time>2020-07-11T09:34:42.596Z</time>
      </trkpt>
      <trkpt lat="44.16874" lon="5.28815">
        <ele>1757</ele>
        <time>2020-07-11T09:34:43.595Z</time>
      </trkpt>
      <trkpt lat="44.16875" lon="5.28811">
        <ele>1757</ele>
        <time>2020-07-11T09:34:44.595Z</time>
      </trkpt>
      <trkpt lat="44.16876" lon="5.28807">
        <ele>1757</ele>
        <time>2020-07-11T09:34:45.596Z</time>
      </trkpt>
      <trkpt lat="44.16876" lon="5.28803">
        <ele>1757</ele>
        <time>2020-07-11T09:34:46.596Z</time>
      </trkpt>
      <trkpt lat="44.16877" lon="5.28799">
        <ele>1758</ele>
        <time>2020-07-11T09:34:47.596Z</time>
      </trkpt>
      <trkpt lat="44.16878" lon="5.28795">
        <ele>1758</ele>
        <time>2020-07-11T09:34:48.596Z</time>
      </trkpt>
      <trkpt lat="44.16879" lon="5.28791">
        <ele>1758</ele>
        <time>2020-07-11T09:34:49.595Z</time>
      </trkpt>
      <trkpt lat="44.1688" lon="5.28787">
        <ele>1758</ele>
        <time>2020-07-11T09:34:50.596Z</time>
      </trkpt>
      <trkpt lat="44.16881" lon="5.28783">
        <ele>1758</ele>
        <time>2020-07-11T09:34:51.596Z</time>
      </trkpt>
      <trkpt lat="44.16882" lon="5.28779">
        <ele>1758</ele>
        <time>2020-07-11T09:34:52.595Z</time>
      </trkpt>
      <trkpt lat="44.16883" lon="5.28776">
        <ele>1758</ele>
        <time>2020-07-11T09:34:53.596Z</time>
      </trkpt>
      <trkpt lat="44.16884" lon="5.28772">
        <ele>1759</ele>
        <time>2020-07-11T09:34:54.595Z</time>
      </trkpt>
      <trkpt lat="44.16885" lon="5.28768">
        <ele>1759</ele>
        <time>2020-07-11T09:34:55.596Z</time>
      </trkpt>
      <trkpt lat="44.16887" lon="5.28765">
        <ele>1759</ele>
        <time>2020-07-11T09:34:56.596Z</time>
      </trkpt>
      <trkpt lat="44.16888" lon="5.28761">
        <ele>1759</ele>
        <time>2020-07-11T09:34:57.595Z</time>
      </trkpt>
      <trkpt lat="44.16889" lon="5.28757">
        <ele>1760</ele>
        <time>2020-07-11T09:34:58.596Z</time>
      </trkpt>
      <trkpt lat="44.1689" lon="5.28754">
        <ele>1760</ele>
        <time>2020-07-11T09:34:59.595Z</time>
      </trkpt>
      <trkpt lat="44.16891" lon="5.2875">
        <ele>1760</ele>
        <time>2020-07-11T09:35:00.595Z</time>
      </trkpt>
      <trkpt lat="44.16892" lon="5.28747">
        <ele>1760</ele>
        <time>2020-07-11T09:35:01.596Z</time>
      </trkpt>
      <trkpt lat="44.16894" lon="5.28744">
        <ele>1760</ele>
        <time>2020-07-11T09:35:02.595Z</time>
      </trkpt>
      <trkpt lat="44.16895" lon="5.2874">
        <ele>1760</ele>
        <time>2020-07-11T09:35:03.595Z</time>
      </trkpt>
      <trkpt lat="44.16896" lon="5.28737">
        <ele>1760</ele>
        <time>2020-07-11T09:35:04.595Z</time>
      </trkpt>
      <trkpt lat="44.16897" lon="5.28733">
        <ele>1761</ele>
        <time>2020-07-11T09:35:05.596Z</time>
      </trkpt>
      <trkpt lat="44.16898" lon="5.28729">
        <ele>1761</ele>
        <time>2020-07-11T09:35:06.595Z</time>
      </trkpt>
      <trkpt lat="44.16899" lon="5.28725">
        <ele>1762</ele>
        <time>2020-07-11T09:35:07.595Z</time>
      </trkpt>
      <trkpt lat="44.169" lon="5.28722">
        <ele>1762</ele>
        <time>2020-07-11T09:35:08.595Z</time>
      </trkpt>
      <trkpt lat="44.16902" lon="5.28718">
        <ele>1762</ele>
        <time>2020-07-11T09:35:09.595Z</time>
      </trkpt>
      <trkpt lat="44.16903" lon="5.28715">
        <ele>1763</ele>
        <time>2020-07-11T09:35:10.596Z</time>
      </trkpt>
      <trkpt lat="44.16904" lon="5.28711">
        <ele>1763</ele>
        <time>2020-07-11T09:35:11.596Z</time>
      </trkpt>
      <trkpt lat="44.16906" lon="5.28708">
        <ele>1763</ele>
        <time>2020-07-11T09:35:12.595Z</time>
      </trkpt>
      <trkpt lat="44.16907" lon="5.28704">
        <ele>1763</ele>
        <time>2020-07-11T09:35:13.595Z</time>
      </trkpt>
      <trkpt lat="44.16908" lon="5.287">
        <ele>1763</ele>
        <time>2020-07-11T09:35:14.595Z</time>
      </trkpt>
      <trkpt lat="44.1691" lon="5.28697">
        <ele>1763</ele>
        <time>2020-07-11T09:35:15.596Z</time>
      </trkpt>
      <trkpt lat="44.16911" lon="5.28693">
        <ele>1763</ele>
        <time>2020-07-11T09:35:16.596Z</time>
      </trkpt>
      <trkpt lat="44.16913" lon="5.2869">
        <ele>1764</ele>
        <time>2020-07-11T09:35:17.595Z</time>
      </trkpt>
      <trkpt lat="44.16914" lon="5.28687">
        <ele>1764</ele>
        <time>2020-07-11T09:35:18.595Z</time>
      </trkpt>
      <trkpt lat="44.16916" lon="5.28684">
        <ele>1764</ele>
        <time>2020-07-11T09:35:19.595Z</time>
      </trkpt>
      <trkpt lat="44.16917" lon="5.2868">
        <ele>1764</ele>
        <time>2020-07-11T09:35:20.596Z</time>
      </trkpt>
      <trkpt lat="44.16919" lon="5.28677">
        <ele>1764</ele>
        <time>2020-07-11T09:35:21.596Z</time>
      </trkpt>
      <trkpt lat="44.16921" lon="5.28674">
        <ele>1764</ele>
        <time>2020-07-11T09:35:22.596Z</time>
      </trkpt>
      <trkpt lat="44.16922" lon="5.2867">
        <ele>1764</ele>
        <time>2020-07-11T09:35:23.595Z</time>
      </trkpt>
      <trkpt lat="44.16924" lon="5.28667">
        <ele>1764</ele>
        <time>2020-07-11T09:35:24.595Z</time>
      </trkpt>
      <trkpt lat="44.16925" lon="5.28664">
        <ele>1764</ele>
        <time>2020-07-11T09:35:25.596Z</time>
      </trkpt>
      <trkpt lat="44.16927" lon="5.28661">
        <ele>1764</ele>
        <time>2020-07-11T09:35:26.596Z</time>
      </trkpt>
      <trkpt lat="44.16929" lon="5.28658">
        <ele>1764</ele>
        <time>2020-07-11T09:35:27.595Z</time>
      </trkpt>
      <trkpt lat="44.1693" lon="5.28655">
        <ele>1764</ele>
        <time>2020-07-11T09:35:28.595Z</time>
      </trkpt>
      <trkpt lat="44.16932" lon="5.28651">
        <ele>1764</ele>
        <time>2020-07-11T09:35:29.595Z</time>
      </trkpt>
      <trkpt lat="44.16934" lon="5.28649">
        <ele>1763</ele>
        <time>2020-07-11T09:35:30.595Z</time>
      </trkpt>
      <trkpt lat="44.16935" lon="5.28645">
        <ele>1763</ele>
        <time>2020-07-11T09:35:31.595Z</time>
      </trkpt>
      <trkpt lat="44.16937" lon="5.28642">
        <ele>1763</ele>
        <time>2020-07-11T09:35:32.595Z</time>
      </trkpt>
      <trkpt lat="44.16938" lon="5.2864">
        <ele>1764</ele>
        <time>2020-07-11T09:35:33.595Z</time>
      </trkpt>
      <trkpt lat="44.1694" lon="5.28637">
        <ele>1764</ele>
        <time>2020-07-11T09:35:34.595Z</time>
      </trkpt>
      <trkpt lat="44.16942" lon="5.28634">
        <ele>1765</ele>
        <time>2020-07-11T09:35:35.595Z</time>
      </trkpt>
      <trkpt lat="44.16944" lon="5.28632">
        <ele>1765</ele>
        <time>2020-07-11T09:35:36.595Z</time>
      </trkpt>
      <trkpt lat="44.16946" lon="5.2863">
        <ele>1765</ele>
        <time>2020-07-11T09:35:37.595Z</time>
      </trkpt>
      <trkpt lat="44.16948" lon="5.28627">
        <ele>1766</ele>
        <time>2020-07-11T09:35:38.596Z</time>
      </trkpt>
      <trkpt lat="44.1695" lon="5.28625">
        <ele>1766</ele>
        <time>2020-07-11T09:35:39.596Z</time>
      </trkpt>
      <trkpt lat="44.16952" lon="5.28623">
        <ele>1767</ele>
        <time>2020-07-11T09:35:40.596Z</time>
      </trkpt>
      <trkpt lat="44.16954" lon="5.2862">
        <ele>1767</ele>
        <time>2020-07-11T09:35:41.595Z</time>
      </trkpt>
      <trkpt lat="44.16956" lon="5.28618">
        <ele>1767</ele>
        <time>2020-07-11T09:35:42.595Z</time>
      </trkpt>
      <trkpt lat="44.16958" lon="5.28616">
        <ele>1767</ele>
        <time>2020-07-11T09:35:43.596Z</time>
      </trkpt>
      <trkpt lat="44.16959" lon="5.28614">
        <ele>1768</ele>
        <time>2020-07-11T09:35:44.595Z</time>
      </trkpt>
      <trkpt lat="44.16961" lon="5.28611">
        <ele>1768</ele>
        <time>2020-07-11T09:35:45.595Z</time>
      </trkpt>
      <trkpt lat="44.16963" lon="5.28609">
        <ele>1768</ele>
        <time>2020-07-11T09:35:46.595Z</time>
      </trkpt>
      <trkpt lat="44.16965" lon="5.28607">
        <ele>1768</ele>
        <time>2020-07-11T09:35:47.596Z</time>
      </trkpt>
      <trkpt lat="44.16967" lon="5.28605">
        <ele>1768</ele>
        <time>2020-07-11T09:35:48.595Z</time>
      </trkpt>
      <trkpt lat="44.16969" lon="5.28602">
        <ele>1769</ele>
        <time>2020-07-11T09:35:49.595Z</time>
      </trkpt>
      <trkpt lat="44.16971" lon="5.286">
        <ele>1769</ele>
        <time>2020-07-11T09:35:50.595Z</time>
      </trkpt>
      <trkpt lat="44.16973" lon="5.28598">
        <ele>1769</ele>
        <time>2020-07-11T09:35:51.595Z</time>
      </trkpt>
      <trkpt lat="44.16975" lon="5.28596">
        <ele>1770</ele>
        <time>2020-07-11T09:35:52.596Z</time>
      </trkpt>
      <trkpt lat="44.16977" lon="5.28594">
        <ele>1770</ele>
        <time>2020-07-11T09:35:53.595Z</time>
      </trkpt>
      <trkpt lat="44.16979" lon="5.28592">
        <ele>1770</ele>
        <time>2020-07-11T09:35:54.595Z</time>
      </trkpt>
      <trkpt lat="44.16981" lon="5.2859">
        <ele>1770</ele>
        <time>2020-07-11T09:35:55.596Z</time>
      </trkpt>
      <trkpt lat="44.16983" lon="5.28588">
        <ele>1770</ele>
        <time>2020-07-11T09:35:56.596Z</time>
      </trkpt>
      <trkpt lat="44.16985" lon="5.28586">
        <ele>1770</ele>
        <time>2020-07-11T09:35:57.595Z</time>
      </trkpt>
      <trkpt lat="44.16987" lon="5.28584">
        <ele>1770</ele>
        <time>2020-07-11T09:35:58.596Z</time>
      </trkpt>
      <trkpt lat="44.16989" lon="5.28582">
        <ele>1770</ele>
        <time>2020-07-11T09:35:59.596Z</time>
      </trkpt>
      <trkpt lat="44.16991" lon="5.2858">
        <ele>1771</ele>
        <time>2020-07-11T09:36:00.596Z</time>
      </trkpt>
      <trkpt lat="44.16993" lon="5.28578">
        <ele>1771</ele>
        <time>2020-07-11T09:36:01.596Z</time>
      </trkpt>
      <trkpt lat="44.16996" lon="5.28576">
        <ele>1771</ele>
        <time>2020-07-11T09:36:02.595Z</time>
      </trkpt>
      <trkpt lat="44.16998" lon="5.28574">
        <ele>1772</ele>
        <time>2020-07-11T09:36:03.596Z</time>
      </trkpt>
      <trkpt lat="44.17" lon="5.28572">
        <ele>1772</ele>
        <time>2020-07-11T09:36:04.596Z</time>
      </trkpt>
      <trkpt lat="44.17002" lon="5.2857">
        <ele>1772</ele>
        <time>2020-07-11T09:36:05.596Z</time>
      </trkpt>
      <trkpt lat="44.17004" lon="5.28568">
        <ele>1772</ele>
        <time>2020-07-11T09:36:06.596Z</time>
      </trkpt>
      <trkpt lat="44.17006" lon="5.28566">
        <ele>1772</ele>
        <time>2020-07-11T09:36:07.596Z</time>
      </trkpt>
      <trkpt lat="44.17008" lon="5.28565">
        <ele>1773</ele>
        <time>2020-07-11T09:36:08.596Z</time>
      </trkpt>
      <trkpt lat="44.17011" lon="5.28563">
        <ele>1773</ele>
        <time>2020-07-11T09:36:09.596Z</time>
      </trkpt>
      <trkpt lat="44.17013" lon="5.28561">
        <ele>1773</ele>
        <time>2020-07-11T09:36:10.596Z</time>
      </trkpt>
      <trkpt lat="44.17015" lon="5.28559">
        <ele>1773</ele>
        <time>2020-07-11T09:36:11.596Z</time>
      </trkpt>
      <trkpt lat="44.17017" lon="5.28557">
        <ele>1774</ele>
        <time>2020-07-11T09:36:12.595Z</time>
      </trkpt>
      <trkpt lat="44.17019" lon="5.28555">
        <ele>1775</ele>
        <time>2020-07-11T09:36:13.596Z</time>
      </trkpt>
      <trkpt lat="44.17021" lon="5.28554">
        <ele>1775</ele>
        <time>2020-07-11T09:36:14.596Z</time>
      </trkpt>
      <trkpt lat="44.17023" lon="5.28552">
        <ele>1776</ele>
        <time>2020-07-11T09:36:15.596Z</time>
      </trkpt>
      <trkpt lat="44.17025" lon="5.2855">
        <ele>1777</ele>
        <time>2020-07-11T09:36:16.595Z</time>
      </trkpt>
      <trkpt lat="44.17027" lon="5.28548">
        <ele>1777</ele>
        <time>2020-07-11T09:36:17.596Z</time>
      </trkpt>
      <trkpt lat="44.17029" lon="5.28547">
        <ele>1777</ele>
        <time>2020-07-11T09:36:18.596Z</time>
      </trkpt>
      <trkpt lat="44.17031" lon="5.28545">
        <ele>1777</ele>
        <time>2020-07-11T09:36:19.596Z</time>
      </trkpt>
      <trkpt lat="44.17033" lon="5.28543">
        <ele>1777</ele>
        <time>2020-07-11T09:36:20.596Z</time>
      </trkpt>
      <trkpt lat="44.17035" lon="5.28542">
        <ele>1777</ele>
        <time>2020-07-11T09:36:21.596Z</time>
      </trkpt>
      <trkpt lat="44.17037" lon="5.2854">
        <ele>1777</ele>
        <time>2020-07-11T09:36:22.595Z</time>
      </trkpt>
      <trkpt lat="44.1704" lon="5.28538">
        <ele>1776</ele>
        <time>2020-07-11T09:36:23.596Z</time>
      </trkpt>
      <trkpt lat="44.17042" lon="5.28536">
        <ele>1777</ele>
        <time>2020-07-11T09:36:24.596Z</time>
      </trkpt>
      <trkpt lat="44.17044" lon="5.28535">
        <ele>1777</ele>
        <time>2020-07-11T09:36:25.596Z</time>
      </trkpt>
      <trkpt lat="44.17046" lon="5.28533">
        <ele>1777</ele>
        <time>2020-07-11T09:36:26.596Z</time>
      </trkpt>
      <trkpt lat="44.17048" lon="5.28531">
        <ele>1777</ele>
        <time>2020-07-11T09:36:27.596Z</time>
      </trkpt>
      <trkpt lat="44.1705" lon="5.28529">
        <ele>1777</ele>
        <time>2020-07-11T09:36:28.596Z</time>
      </trkpt>
      <trkpt lat="44.17052" lon="5.28527">
        <ele>1777</ele>
        <time>2020-07-11T09:36:29.596Z</time>
      </trkpt>
      <trkpt lat="44.17054" lon="5.28526">
        <ele>1777</ele>
        <time>2020-07-11T09:36:30.596Z</time>
      </trkpt>
      <trkpt lat="44.17056" lon="5.28524">
        <ele>1777</ele>
        <time>2020-07-11T09:36:31.596Z</time>
      </trkpt>
      <trkpt lat="44.17058" lon="5.28522">
        <ele>1778</ele>
        <time>2020-07-11T09:36:32.595Z</time>
      </trkpt>
      <trkpt lat="44.1706" lon="5.2852">
        <ele>1778</ele>
        <time>2020-07-11T09:36:33.595Z</time>
      </trkpt>
      <trkpt lat="44.17062" lon="5.28518">
        <ele>1779</ele>
        <time>2020-07-11T09:36:34.596Z</time>
      </trkpt>
      <trkpt lat="44.17063" lon="5.28516">
        <ele>1779</ele>
        <time>2020-07-11T09:36:35.596Z</time>
      </trkpt>
      <trkpt lat="44.17065" lon="5.28514">
        <ele>1780</ele>
        <time>2020-07-11T09:36:36.596Z</time>
      </trkpt>
      <trkpt lat="44.17067" lon="5.28511">
        <ele>1780</ele>
        <time>2020-07-11T09:36:37.596Z</time>
      </trkpt>
      <trkpt lat="44.17069" lon="5.28508">
        <ele>1781</ele>
        <time>2020-07-11T09:36:38.596Z</time>
      </trkpt>
      <trkpt lat="44.1707" lon="5.28506">
        <ele>1782</ele>
        <time>2020-07-11T09:36:39.596Z</time>
      </trkpt>
      <trkpt lat="44.17072" lon="5.28503">
        <ele>1783</ele>
        <time>2020-07-11T09:36:40.596Z</time>
      </trkpt>
      <trkpt lat="44.17074" lon="5.28501">
        <ele>1784</ele>
        <time>2020-07-11T09:36:41.596Z</time>
      </trkpt>
      <trkpt lat="44.17076" lon="5.28499">
        <ele>1784</ele>
        <time>2020-07-11T09:36:42.596Z</time>
      </trkpt>
      <trkpt lat="44.17077" lon="5.28496">
        <ele>1785</ele>
        <time>2020-07-11T09:36:43.596Z</time>
      </trkpt>
      <trkpt lat="44.17079" lon="5.28493">
        <ele>1785</ele>
        <time>2020-07-11T09:36:44.595Z</time>
      </trkpt>
      <trkpt lat="44.1708" lon="5.28491">
        <ele>1786</ele>
        <time>2020-07-11T09:36:45.595Z</time>
      </trkpt>
      <trkpt lat="44.17082" lon="5.28488">
        <ele>1787</ele>
        <time>2020-07-11T09:36:46.595Z</time>
      </trkpt>
      <trkpt lat="44.17083" lon="5.28485">
        <ele>1787</ele>
        <time>2020-07-11T09:36:47.596Z</time>
      </trkpt>
      <trkpt lat="44.17085" lon="5.28483">
        <ele>1788</ele>
        <time>2020-07-11T09:36:48.596Z</time>
      </trkpt>
      <trkpt lat="44.17087" lon="5.2848">
        <ele>1788</ele>
        <time>2020-07-11T09:36:49.596Z</time>
      </trkpt>
      <trkpt lat="44.17089" lon="5.28478">
        <ele>1788</ele>
        <time>2020-07-11T09:36:50.596Z</time>
      </trkpt>
      <trkpt lat="44.17091" lon="5.28476">
        <ele>1788</ele>
        <time>2020-07-11T09:36:51.596Z</time>
      </trkpt>
      <trkpt lat="44.17092" lon="5.28473">
        <ele>1788</ele>
        <time>2020-07-11T09:36:52.596Z</time>
      </trkpt>
      <trkpt lat="44.17094" lon="5.28471">
        <ele>1788</ele>
        <time>2020-07-11T09:36:53.595Z</time>
      </trkpt>
      <trkpt lat="44.17096" lon="5.28468">
        <ele>1788</ele>
        <time>2020-07-11T09:36:54.596Z</time>
      </trkpt>
      <trkpt lat="44.17098" lon="5.28466">
        <ele>1788</ele>
        <time>2020-07-11T09:36:55.595Z</time>
      </trkpt>
      <trkpt lat="44.171" lon="5.28464">
        <ele>1788</ele>
        <time>2020-07-11T09:36:56.595Z</time>
      </trkpt>
      <trkpt lat="44.17102" lon="5.28462">
        <ele>1788</ele>
        <time>2020-07-11T09:36:57.595Z</time>
      </trkpt>
      <trkpt lat="44.17104" lon="5.28459">
        <ele>1788</ele>
        <time>2020-07-11T09:36:58.596Z</time>
      </trkpt>
      <trkpt lat="44.17106" lon="5.28458">
        <ele>1788</ele>
        <time>2020-07-11T09:36:59.596Z</time>
      </trkpt>
      <trkpt lat="44.17108" lon="5.28455">
        <ele>1788</ele>
        <time>2020-07-11T09:37:00.595Z</time>
      </trkpt>
      <trkpt lat="44.1711" lon="5.28454">
        <ele>1788</ele>
        <time>2020-07-11T09:37:01.596Z</time>
      </trkpt>
      <trkpt lat="44.17113" lon="5.28452">
        <ele>1788</ele>
        <time>2020-07-11T09:37:02.596Z</time>
      </trkpt>
      <trkpt lat="44.17115" lon="5.2845">
        <ele>1788</ele>
        <time>2020-07-11T09:37:03.596Z</time>
      </trkpt>
      <trkpt lat="44.17117" lon="5.28448">
        <ele>1788</ele>
        <time>2020-07-11T09:37:04.595Z</time>
      </trkpt>
      <trkpt lat="44.17119" lon="5.28446">
        <ele>1788</ele>
        <time>2020-07-11T09:37:05.596Z</time>
      </trkpt>
      <trkpt lat="44.17122" lon="5.28445">
        <ele>1788</ele>
        <time>2020-07-11T09:37:06.596Z</time>
      </trkpt>
      <trkpt lat="44.17124" lon="5.28444">
        <ele>1789</ele>
        <time>2020-07-11T09:37:07.595Z</time>
      </trkpt>
      <trkpt lat="44.17126" lon="5.28442">
        <ele>1789</ele>
        <time>2020-07-11T09:37:08.596Z</time>
      </trkpt>
      <trkpt lat="44.17129" lon="5.28441">
        <ele>1789</ele>
        <time>2020-07-11T09:37:09.595Z</time>
      </trkpt>
      <trkpt lat="44.17132" lon="5.2844">
        <ele>1789</ele>
        <time>2020-07-11T09:37:10.595Z</time>
      </trkpt>
      <trkpt lat="44.17134" lon="5.28438">
        <ele>1790</ele>
        <time>2020-07-11T09:37:11.596Z</time>
      </trkpt>
      <trkpt lat="44.17137" lon="5.28437">
        <ele>1791</ele>
        <time>2020-07-11T09:37:12.596Z</time>
      </trkpt>
      <trkpt lat="44.17139" lon="5.28436">
        <ele>1791</ele>
        <time>2020-07-11T09:37:13.595Z</time>
      </trkpt>
      <trkpt lat="44.17142" lon="5.28435">
        <ele>1792</ele>
        <time>2020-07-11T09:37:14.596Z</time>
      </trkpt>
      <trkpt lat="44.17144" lon="5.28434">
        <ele>1792</ele>
        <time>2020-07-11T09:37:15.596Z</time>
      </trkpt>
      <trkpt lat="44.17147" lon="5.28433">
        <ele>1792</ele>
        <time>2020-07-11T09:37:16.596Z</time>
      </trkpt>
      <trkpt lat="44.1715" lon="5.28432">
        <ele>1793</ele>
        <time>2020-07-11T09:37:17.596Z</time>
      </trkpt>
      <trkpt lat="44.17152" lon="5.28431">
        <ele>1794</ele>
        <time>2020-07-11T09:37:18.595Z</time>
      </trkpt>
      <trkpt lat="44.17155" lon="5.2843">
        <ele>1794</ele>
        <time>2020-07-11T09:37:19.595Z</time>
      </trkpt>
      <trkpt lat="44.17158" lon="5.28429">
        <ele>1794</ele>
        <time>2020-07-11T09:37:20.596Z</time>
      </trkpt>
      <trkpt lat="44.1716" lon="5.28428">
        <ele>1795</ele>
        <time>2020-07-11T09:37:21.595Z</time>
      </trkpt>
      <trkpt lat="44.17163" lon="5.28428">
        <ele>1795</ele>
        <time>2020-07-11T09:37:22.595Z</time>
      </trkpt>
      <trkpt lat="44.17166" lon="5.28427">
        <ele>1796</ele>
        <time>2020-07-11T09:37:23.596Z</time>
      </trkpt>
      <trkpt lat="44.17168" lon="5.28426">
        <ele>1796</ele>
        <time>2020-07-11T09:37:24.596Z</time>
      </trkpt>
      <trkpt lat="44.17171" lon="5.28426">
        <ele>1796</ele>
        <time>2020-07-11T09:37:25.596Z</time>
      </trkpt>
      <trkpt lat="44.17174" lon="5.28425">
        <ele>1797</ele>
        <time>2020-07-11T09:37:26.595Z</time>
      </trkpt>
      <trkpt lat="44.17176" lon="5.28425">
        <ele>1797</ele>
        <time>2020-07-11T09:37:27.596Z</time>
      </trkpt>
      <trkpt lat="44.17179" lon="5.28425">
        <ele>1798</ele>
        <time>2020-07-11T09:37:28.595Z</time>
      </trkpt>
      <trkpt lat="44.17182" lon="5.28425">
        <ele>1798</ele>
        <time>2020-07-11T09:37:29.596Z</time>
      </trkpt>
      <trkpt lat="44.17184" lon="5.28425">
        <ele>1798</ele>
        <time>2020-07-11T09:37:30.596Z</time>
      </trkpt>
      <trkpt lat="44.17187" lon="5.28425">
        <ele>1798</ele>
        <time>2020-07-11T09:37:31.596Z</time>
      </trkpt>
      <trkpt lat="44.17189" lon="5.28425">
        <ele>1798</ele>
        <time>2020-07-11T09:37:32.596Z</time>
      </trkpt>
      <trkpt lat="44.17192" lon="5.28424">
        <ele>1799</ele>
        <time>2020-07-11T09:37:33.596Z</time>
      </trkpt>
      <trkpt lat="44.17194" lon="5.28424">
        <ele>1798</ele>
        <time>2020-07-11T09:37:34.595Z</time>
      </trkpt>
      <trkpt lat="44.17197" lon="5.28424">
        <ele>1799</ele>
        <time>2020-07-11T09:37:35.595Z</time>
      </trkpt>
      <trkpt lat="44.172" lon="5.28424">
        <ele>1799</ele>
        <time>2020-07-11T09:37:36.596Z</time>
      </trkpt>
      <trkpt lat="44.17202" lon="5.28424">
        <ele>1799</ele>
        <time>2020-07-11T09:37:37.595Z</time>
      </trkpt>
      <trkpt lat="44.17205" lon="5.28423">
        <ele>1799</ele>
        <time>2020-07-11T09:37:38.595Z</time>
      </trkpt>
      <trkpt lat="44.17208" lon="5.28423">
        <ele>1799</ele>
        <time>2020-07-11T09:37:39.596Z</time>
      </trkpt>
      <trkpt lat="44.1721" lon="5.28423">
        <ele>1799</ele>
        <time>2020-07-11T09:37:40.596Z</time>
      </trkpt>
      <trkpt lat="44.17213" lon="5.28422">
        <ele>1800</ele>
        <time>2020-07-11T09:37:41.596Z</time>
      </trkpt>
      <trkpt lat="44.17215" lon="5.28422">
        <ele>1800</ele>
        <time>2020-07-11T09:37:42.596Z</time>
      </trkpt>
      <trkpt lat="44.17218" lon="5.28422">
        <ele>1800</ele>
        <time>2020-07-11T09:37:43.596Z</time>
      </trkpt>
      <trkpt lat="44.1722" lon="5.28421">
        <ele>1801</ele>
        <time>2020-07-11T09:37:44.596Z</time>
      </trkpt>
      <trkpt lat="44.17222" lon="5.28421">
        <ele>1801</ele>
        <time>2020-07-11T09:37:45.595Z</time>
      </trkpt>
      <trkpt lat="44.17225" lon="5.2842">
        <ele>1801</ele>
        <time>2020-07-11T09:37:46.596Z</time>
      </trkpt>
      <trkpt lat="44.17227" lon="5.2842">
        <ele>1802</ele>
        <time>2020-07-11T09:37:47.595Z</time>
      </trkpt>
      <trkpt lat="44.1723" lon="5.28419">
        <ele>1802</ele>
        <time>2020-07-11T09:37:48.596Z</time>
      </trkpt>
      <trkpt lat="44.17232" lon="5.28419">
        <ele>1802</ele>
        <time>2020-07-11T09:37:49.596Z</time>
      </trkpt>
      <trkpt lat="44.17234" lon="5.28419">
        <ele>1802</ele>
        <time>2020-07-11T09:37:50.595Z</time>
      </trkpt>
      <trkpt lat="44.17236" lon="5.28419">
        <ele>1802</ele>
        <time>2020-07-11T09:37:51.595Z</time>
      </trkpt>
      <trkpt lat="44.17238" lon="5.28419">
        <ele>1802</ele>
        <time>2020-07-11T09:37:52.596Z</time>
      </trkpt>
      <trkpt lat="44.17241" lon="5.28419">
        <ele>1802</ele>
        <time>2020-07-11T09:37:53.596Z</time>
      </trkpt>
      <trkpt lat="44.17243" lon="5.28419">
        <ele>1803</ele>
        <time>2020-07-11T09:37:54.596Z</time>
      </trkpt>
      <trkpt lat="44.17245" lon="5.28419">
        <ele>1803</ele>
        <time>2020-07-11T09:37:55.595Z</time>
      </trkpt>
      <trkpt lat="44.17248" lon="5.28419">
        <ele>1803</ele>
        <time>2020-07-11T09:37:56.595Z</time>
      </trkpt>
      <trkpt lat="44.1725" lon="5.28419">
        <ele>1804</ele>
        <time>2020-07-11T09:37:57.595Z</time>
      </trkpt>
      <trkpt lat="44.17252" lon="5.28418">
        <ele>1805</ele>
        <time>2020-07-11T09:37:58.596Z</time>
      </trkpt>
      <trkpt lat="44.17255" lon="5.28418">
        <ele>1805</ele>
        <time>2020-07-11T09:37:59.596Z</time>
      </trkpt>
      <trkpt lat="44.17257" lon="5.28418">
        <ele>1806</ele>
        <time>2020-07-11T09:38:00.595Z</time>
      </trkpt>
      <trkpt lat="44.17259" lon="5.28417">
        <ele>1807</ele>
        <time>2020-07-11T09:38:01.596Z</time>
      </trkpt>
      <trkpt lat="44.17261" lon="5.28417">
        <ele>1807</ele>
        <time>2020-07-11T09:38:02.596Z</time>
      </trkpt>
      <trkpt lat="44.17264" lon="5.28417">
        <ele>1808</ele>
        <time>2020-07-11T09:38:03.595Z</time>
      </trkpt>
      <trkpt lat="44.17266" lon="5.28416">
        <ele>1808</ele>
        <time>2020-07-11T09:38:04.595Z</time>
      </trkpt>
      <trkpt lat="44.17269" lon="5.28416">
        <ele>1808</ele>
        <time>2020-07-11T09:38:05.596Z</time>
      </trkpt>
      <trkpt lat="44.17271" lon="5.28416">
        <ele>1808</ele>
        <time>2020-07-11T09:38:06.595Z</time>
      </trkpt>
      <trkpt lat="44.17273" lon="5.28415">
        <ele>1807</ele>
        <time>2020-07-11T09:38:07.596Z</time>
      </trkpt>
      <trkpt lat="44.17275" lon="5.28415">
        <ele>1807</ele>
        <time>2020-07-11T09:38:08.596Z</time>
      </trkpt>
      <trkpt lat="44.17277" lon="5.28415">
        <ele>1807</ele>
        <time>2020-07-11T09:38:09.596Z</time>
      </trkpt>
      <trkpt lat="44.1728" lon="5.28415">
        <ele>1807</ele>
        <time>2020-07-11T09:38:10.596Z</time>
      </trkpt>
      <trkpt lat="44.17282" lon="5.28414">
        <ele>1808</ele>
        <time>2020-07-11T09:38:11.596Z</time>
      </trkpt>
      <trkpt lat="44.17284" lon="5.28414">
        <ele>1808</ele>
        <time>2020-07-11T09:38:12.596Z</time>
      </trkpt>
      <trkpt lat="44.17287" lon="5.28413">
        <ele>1808</ele>
        <time>2020-07-11T09:38:13.596Z</time>
      </trkpt>
      <trkpt lat="44.17289" lon="5.28413">
        <ele>1808</ele>
        <time>2020-07-11T09:38:14.596Z</time>
      </trkpt>
      <trkpt lat="44.17292" lon="5.28413">
        <ele>1809</ele>
        <time>2020-07-11T09:38:15.596Z</time>
      </trkpt>
      <trkpt lat="44.17294" lon="5.28412">
        <ele>1809</ele>
        <time>2020-07-11T09:38:16.596Z</time>
      </trkpt>
      <trkpt lat="44.17296" lon="5.28412">
        <ele>1809</ele>
        <time>2020-07-11T09:38:17.596Z</time>
      </trkpt>
      <trkpt lat="44.17298" lon="5.28411">
        <ele>1809</ele>
        <time>2020-07-11T09:38:18.596Z</time>
      </trkpt>
      <trkpt lat="44.17301" lon="5.28411">
        <ele>1809</ele>
        <time>2020-07-11T09:38:19.596Z</time>
      </trkpt>
      <trkpt lat="44.17303" lon="5.28411">
        <ele>1809</ele>
        <time>2020-07-11T09:38:20.596Z</time>
      </trkpt>
      <trkpt lat="44.17306" lon="5.2841">
        <ele>1809</ele>
        <time>2020-07-11T09:38:21.596Z</time>
      </trkpt>
      <trkpt lat="44.17308" lon="5.2841">
        <ele>1809</ele>
        <time>2020-07-11T09:38:22.596Z</time>
      </trkpt>
      <trkpt lat="44.1731" lon="5.28409">
        <ele>1809</ele>
        <time>2020-07-11T09:38:23.596Z</time>
      </trkpt>
      <trkpt lat="44.17313" lon="5.28409">
        <ele>1810</ele>
        <time>2020-07-11T09:38:24.596Z</time>
      </trkpt>
      <trkpt lat="44.17315" lon="5.28408">
        <ele>1810</ele>
        <time>2020-07-11T09:38:25.595Z</time>
      </trkpt>
      <trkpt lat="44.17318" lon="5.28408">
        <ele>1810</ele>
        <time>2020-07-11T09:38:26.595Z</time>
      </trkpt>
      <trkpt lat="44.1732" lon="5.28407">
        <ele>1811</ele>
        <time>2020-07-11T09:38:27.596Z</time>
      </trkpt>
      <trkpt lat="44.17323" lon="5.28407">
        <ele>1811</ele>
        <time>2020-07-11T09:38:28.596Z</time>
      </trkpt>
      <trkpt lat="44.17325" lon="5.28406">
        <ele>1812</ele>
        <time>2020-07-11T09:38:29.596Z</time>
      </trkpt>
      <trkpt lat="44.17327" lon="5.28406">
        <ele>1813</ele>
        <time>2020-07-11T09:38:30.596Z</time>
      </trkpt>
      <trkpt lat="44.1733" lon="5.28406">
        <ele>1813</ele>
        <time>2020-07-11T09:38:31.596Z</time>
      </trkpt>
      <trkpt lat="44.17333" lon="5.28406">
        <ele>1813</ele>
        <time>2020-07-11T09:38:32.596Z</time>
      </trkpt>
      <trkpt lat="44.17336" lon="5.28405">
        <ele>1814</ele>
        <time>2020-07-11T09:38:33.596Z</time>
      </trkpt>
      <trkpt lat="44.17338" lon="5.28405">
        <ele>1814</ele>
        <time>2020-07-11T09:38:34.596Z</time>
      </trkpt>
      <trkpt lat="44.1734" lon="5.28404">
        <ele>1814</ele>
        <time>2020-07-11T09:38:35.596Z</time>
      </trkpt>
      <trkpt lat="44.17343" lon="5.28403">
        <ele>1815</ele>
        <time>2020-07-11T09:38:36.596Z</time>
      </trkpt>
      <trkpt lat="44.17345" lon="5.28403">
        <ele>1815</ele>
        <time>2020-07-11T09:38:37.596Z</time>
      </trkpt>
      <trkpt lat="44.17348" lon="5.28402">
        <ele>1815</ele>
        <time>2020-07-11T09:38:38.596Z</time>
      </trkpt>
      <trkpt lat="44.1735" lon="5.28402">
        <ele>1815</ele>
        <time>2020-07-11T09:38:39.595Z</time>
      </trkpt>
      <trkpt lat="44.17353" lon="5.28401">
        <ele>1816</ele>
        <time>2020-07-11T09:38:40.595Z</time>
      </trkpt>
      <trkpt lat="44.17355" lon="5.284">
        <ele>1817</ele>
        <time>2020-07-11T09:38:41.595Z</time>
      </trkpt>
      <trkpt lat="44.17358" lon="5.284">
        <ele>1817</ele>
        <time>2020-07-11T09:38:42.596Z</time>
      </trkpt>
      <trkpt lat="44.1736" lon="5.284">
        <ele>1817</ele>
        <time>2020-07-11T09:38:43.596Z</time>
      </trkpt>
      <trkpt lat="44.17363" lon="5.28399">
        <ele>1818</ele>
        <time>2020-07-11T09:38:44.596Z</time>
      </trkpt>
      <trkpt lat="44.17365" lon="5.28398">
        <ele>1818</ele>
        <time>2020-07-11T09:38:45.595Z</time>
      </trkpt>
      <trkpt lat="44.17368" lon="5.28398">
        <ele>1818</ele>
        <time>2020-07-11T09:38:46.596Z</time>
      </trkpt>
      <trkpt lat="44.17371" lon="5.28397">
        <ele>1819</ele>
        <time>2020-07-11T09:38:47.595Z</time>
      </trkpt>
      <trkpt lat="44.17373" lon="5.28397">
        <ele>1819</ele>
        <time>2020-07-11T09:38:48.596Z</time>
      </trkpt>
      <trkpt lat="44.17376" lon="5.28396">
        <ele>1820</ele>
        <time>2020-07-11T09:38:49.595Z</time>
      </trkpt>
      <trkpt lat="44.17379" lon="5.28396">
        <ele>1820</ele>
        <time>2020-07-11T09:38:50.596Z</time>
      </trkpt>
      <trkpt lat="44.17381" lon="5.28395">
        <ele>1820</ele>
        <time>2020-07-11T09:38:51.596Z</time>
      </trkpt>
      <trkpt lat="44.17384" lon="5.28394">
        <ele>1820</ele>
        <time>2020-07-11T09:38:52.596Z</time>
      </trkpt>
      <trkpt lat="44.17386" lon="5.28394">
        <ele>1820</ele>
        <time>2020-07-11T09:38:53.596Z</time>
      </trkpt>
      <trkpt lat="44.17389" lon="5.28393">
        <ele>1821</ele>
        <time>2020-07-11T09:38:54.595Z</time>
      </trkpt>
      <trkpt lat="44.17391" lon="5.28392">
        <ele>1821</ele>
        <time>2020-07-11T09:38:55.596Z</time>
      </trkpt>
      <trkpt lat="44.17394" lon="5.28391">
        <ele>1822</ele>
        <time>2020-07-11T09:38:56.596Z</time>
      </trkpt>
      <trkpt lat="44.17396" lon="5.2839">
        <ele>1823</ele>
        <time>2020-07-11T09:38:57.596Z</time>
      </trkpt>
      <trkpt lat="44.17399" lon="5.2839">
        <ele>1824</ele>
        <time>2020-07-11T09:38:58.596Z</time>
      </trkpt>
      <trkpt lat="44.17402" lon="5.28389">
        <ele>1824</ele>
        <time>2020-07-11T09:38:59.596Z</time>
      </trkpt>
      <trkpt lat="44.17404" lon="5.28388">
        <ele>1825</ele>
        <time>2020-07-11T09:39:00.596Z</time>
      </trkpt>
      <trkpt lat="44.17406" lon="5.28387">
        <ele>1825</ele>
        <time>2020-07-11T09:39:01.596Z</time>
      </trkpt>
      <trkpt lat="44.17409" lon="5.28385">
        <ele>1825</ele>
        <time>2020-07-11T09:39:02.596Z</time>
      </trkpt>
      <trkpt lat="44.17411" lon="5.28384">
        <ele>1826</ele>
        <time>2020-07-11T09:39:03.596Z</time>
      </trkpt>
      <trkpt lat="44.17413" lon="5.28382">
        <ele>1826</ele>
        <time>2020-07-11T09:39:04.596Z</time>
      </trkpt>
      <trkpt lat="44.17415" lon="5.2838">
        <ele>1826</ele>
        <time>2020-07-11T09:39:05.596Z</time>
      </trkpt>
      <trkpt lat="44.17417" lon="5.28378">
        <ele>1826</ele>
        <time>2020-07-11T09:39:06.596Z</time>
      </trkpt>
      <trkpt lat="44.17419" lon="5.28375">
        <ele>1826</ele>
        <time>2020-07-11T09:39:07.596Z</time>
      </trkpt>
      <trkpt lat="44.17421" lon="5.28372">
        <ele>1826</ele>
        <time>2020-07-11T09:39:08.595Z</time>
      </trkpt>
      <trkpt lat="44.17422" lon="5.28369">
        <ele>1827</ele>
        <time>2020-07-11T09:39:09.596Z</time>
      </trkpt>
      <trkpt lat="44.17423" lon="5.28366">
        <ele>1827</ele>
        <time>2020-07-11T09:39:10.596Z</time>
      </trkpt>
      <trkpt lat="44.17424" lon="5.28363">
        <ele>1827</ele>
        <time>2020-07-11T09:39:11.596Z</time>
      </trkpt>
      <trkpt lat="44.17425" lon="5.2836">
        <ele>1827</ele>
        <time>2020-07-11T09:39:12.596Z</time>
      </trkpt>
      <trkpt lat="44.17426" lon="5.28357">
        <ele>1828</ele>
        <time>2020-07-11T09:39:13.596Z</time>
      </trkpt>
      <trkpt lat="44.17427" lon="5.28354">
        <ele>1828</ele>
        <time>2020-07-11T09:39:14.595Z</time>
      </trkpt>
      <trkpt lat="44.17428" lon="5.28351">
        <ele>1828</ele>
        <time>2020-07-11T09:39:15.596Z</time>
      </trkpt>
      <trkpt lat="44.17428" lon="5.28348">
        <ele>1828</ele>
        <time>2020-07-11T09:39:16.595Z</time>
      </trkpt>
      <trkpt lat="44.17428" lon="5.28345">
        <ele>1829</ele>
        <time>2020-07-11T09:39:17.596Z</time>
      </trkpt>
      <trkpt lat="44.17428" lon="5.28341">
        <ele>1829</ele>
        <time>2020-07-11T09:39:18.596Z</time>
      </trkpt>
      <trkpt lat="44.17428" lon="5.28338">
        <ele>1829</ele>
        <time>2020-07-11T09:39:19.596Z</time>
      </trkpt>
      <trkpt lat="44.17427" lon="5.28334">
        <ele>1830</ele>
        <time>2020-07-11T09:39:20.595Z</time>
      </trkpt>
      <trkpt lat="44.17427" lon="5.28331">
        <ele>1830</ele>
        <time>2020-07-11T09:39:21.596Z</time>
      </trkpt>
      <trkpt lat="44.17427" lon="5.28327">
        <ele>1831</ele>
        <time>2020-07-11T09:39:22.596Z</time>
      </trkpt>
      <trkpt lat="44.17426" lon="5.28324">
        <ele>1831</ele>
        <time>2020-07-11T09:39:23.596Z</time>
      </trkpt>
      <trkpt lat="44.17426" lon="5.2832">
        <ele>1831</ele>
        <time>2020-07-11T09:39:24.596Z</time>
      </trkpt>
      <trkpt lat="44.17427" lon="5.28317">
        <ele>1831</ele>
        <time>2020-07-11T09:39:25.596Z</time>
      </trkpt>
      <trkpt lat="44.17427" lon="5.28313">
        <ele>1831</ele>
        <time>2020-07-11T09:39:26.596Z</time>
      </trkpt>
      <trkpt lat="44.17427" lon="5.2831">
        <ele>1831</ele>
        <time>2020-07-11T09:39:27.596Z</time>
      </trkpt>
      <trkpt lat="44.17426" lon="5.28306">
        <ele>1831</ele>
        <time>2020-07-11T09:39:28.596Z</time>
      </trkpt>
      <trkpt lat="44.17426" lon="5.28303">
        <ele>1831</ele>
        <time>2020-07-11T09:39:29.595Z</time>
      </trkpt>
      <trkpt lat="44.17425" lon="5.28299">
        <ele>1831</ele>
        <time>2020-07-11T09:39:30.596Z</time>
      </trkpt>
      <trkpt lat="44.17424" lon="5.28296">
        <ele>1831</ele>
        <time>2020-07-11T09:39:31.596Z</time>
      </trkpt>
      <trkpt lat="44.17424" lon="5.28292">
        <ele>1831</ele>
        <time>2020-07-11T09:39:32.596Z</time>
      </trkpt>
      <trkpt lat="44.17423" lon="5.28289">
        <ele>1832</ele>
        <time>2020-07-11T09:39:33.595Z</time>
      </trkpt>
      <trkpt lat="44.17423" lon="5.28286">
        <ele>1831</ele>
        <time>2020-07-11T09:39:34.596Z</time>
      </trkpt>
      <trkpt lat="44.17422" lon="5.28282">
        <ele>1832</ele>
        <time>2020-07-11T09:39:35.596Z</time>
      </trkpt>
      <trkpt lat="44.17422" lon="5.28279">
        <ele>1832</ele>
        <time>2020-07-11T09:39:36.596Z</time>
      </trkpt>
      <trkpt lat="44.17421" lon="5.28275">
        <ele>1832</ele>
        <time>2020-07-11T09:39:37.596Z</time>
      </trkpt>
      <trkpt lat="44.1742" lon="5.28272">
        <ele>1833</ele>
        <time>2020-07-11T09:39:38.596Z</time>
      </trkpt>
      <trkpt lat="44.17419" lon="5.28268">
        <ele>1833</ele>
        <time>2020-07-11T09:39:39.596Z</time>
      </trkpt>
      <trkpt lat="44.17418" lon="5.28265">
        <ele>1834</ele>
        <time>2020-07-11T09:39:40.596Z</time>
      </trkpt>
      <trkpt lat="44.17417" lon="5.28262">
        <ele>1834</ele>
        <time>2020-07-11T09:39:41.596Z</time>
      </trkpt>
      <trkpt lat="44.17417" lon="5.28258">
        <ele>1835</ele>
        <time>2020-07-11T09:39:42.596Z</time>
      </trkpt>
      <trkpt lat="44.17416" lon="5.28255">
        <ele>1835</ele>
        <time>2020-07-11T09:39:43.595Z</time>
      </trkpt>
      <trkpt lat="44.17415" lon="5.28252">
        <ele>1835</ele>
        <time>2020-07-11T09:39:44.596Z</time>
      </trkpt>
      <trkpt lat="44.17415" lon="5.28249">
        <ele>1835</ele>
        <time>2020-07-11T09:39:45.596Z</time>
      </trkpt>
      <trkpt lat="44.17414" lon="5.28246">
        <ele>1836</ele>
        <time>2020-07-11T09:39:46.596Z</time>
      </trkpt>
      <trkpt lat="44.17413" lon="5.28243">
        <ele>1836</ele>
        <time>2020-07-11T09:39:47.596Z</time>
      </trkpt>
      <trkpt lat="44.17413" lon="5.28239">
        <ele>1836</ele>
        <time>2020-07-11T09:39:48.596Z</time>
      </trkpt>
      <trkpt lat="44.17412" lon="5.28236">
        <ele>1837</ele>
        <time>2020-07-11T09:39:49.596Z</time>
      </trkpt>
      <trkpt lat="44.17412" lon="5.28233">
        <ele>1837</ele>
        <time>2020-07-11T09:39:50.596Z</time>
      </trkpt>
      <trkpt lat="44.17412" lon="5.2823">
        <ele>1838</ele>
        <time>2020-07-11T09:39:51.595Z</time>
      </trkpt>
      <trkpt lat="44.17411" lon="5.28227">
        <ele>1838</ele>
        <time>2020-07-11T09:39:52.596Z</time>
      </trkpt>
      <trkpt lat="44.1741" lon="5.28224">
        <ele>1838</ele>
        <time>2020-07-11T09:39:53.595Z</time>
      </trkpt>
      <trkpt lat="44.1741" lon="5.28221">
        <ele>1839</ele>
        <time>2020-07-11T09:39:54.596Z</time>
      </trkpt>
      <trkpt lat="44.17409" lon="5.28217">
        <ele>1839</ele>
        <time>2020-07-11T09:39:55.596Z</time>
      </trkpt>
      <trkpt lat="44.17408" lon="5.28214">
        <ele>1840</ele>
        <time>2020-07-11T09:39:56.596Z</time>
      </trkpt>
      <trkpt lat="44.17408" lon="5.28211">
        <ele>1841</ele>
        <time>2020-07-11T09:39:57.595Z</time>
      </trkpt>
      <trkpt lat="44.17407" lon="5.28208">
        <ele>1841</ele>
        <time>2020-07-11T09:39:58.596Z</time>
      </trkpt>
      <trkpt lat="44.17406" lon="5.28204">
        <ele>1842</ele>
        <time>2020-07-11T09:39:59.596Z</time>
      </trkpt>
      <trkpt lat="44.17405" lon="5.28201">
        <ele>1843</ele>
        <time>2020-07-11T09:40:00.596Z</time>
      </trkpt>
      <trkpt lat="44.17405" lon="5.28198">
        <ele>1843</ele>
        <time>2020-07-11T09:40:01.596Z</time>
      </trkpt>
      <trkpt lat="44.17404" lon="5.28194">
        <ele>1843</ele>
        <time>2020-07-11T09:40:02.596Z</time>
      </trkpt>
      <trkpt lat="44.17403" lon="5.28191">
        <ele>1844</ele>
        <time>2020-07-11T09:40:03.596Z</time>
      </trkpt>
      <trkpt lat="44.17403" lon="5.28188">
        <ele>1844</ele>
        <time>2020-07-11T09:40:04.596Z</time>
      </trkpt>
      <trkpt lat="44.17402" lon="5.28185">
        <ele>1844</ele>
        <time>2020-07-11T09:40:05.596Z</time>
      </trkpt>
      <trkpt lat="44.17402" lon="5.28182">
        <ele>1844</ele>
        <time>2020-07-11T09:40:06.596Z</time>
      </trkpt>
      <trkpt lat="44.17401" lon="5.28178">
        <ele>1845</ele>
        <time>2020-07-11T09:40:07.595Z</time>
      </trkpt>
      <trkpt lat="44.174" lon="5.28175">
        <ele>1845</ele>
        <time>2020-07-11T09:40:08.596Z</time>
      </trkpt>
      <trkpt lat="44.174" lon="5.28172">
        <ele>1845</ele>
        <time>2020-07-11T09:40:09.596Z</time>
      </trkpt>
      <trkpt lat="44.17399" lon="5.28168">
        <ele>1845</ele>
        <time>2020-07-11T09:40:10.595Z</time>
      </trkpt>
      <trkpt lat="44.17398" lon="5.28165">
        <ele>1845</ele>
        <time>2020-07-11T09:40:11.596Z</time>
      </trkpt>
      <trkpt lat="44.17397" lon="5.28162">
        <ele>1845</ele>
        <time>2020-07-11T09:40:12.596Z</time>
      </trkpt>
      <trkpt lat="44.17397" lon="5.28158">
        <ele>1846</ele>
        <time>2020-07-11T09:40:13.596Z</time>
      </trkpt>
      <trkpt lat="44.17396" lon="5.28155">
        <ele>1846</ele>
        <time>2020-07-11T09:40:14.596Z</time>
      </trkpt>
      <trkpt lat="44.17395" lon="5.28151">
        <ele>1846</ele>
        <time>2020-07-11T09:40:15.595Z</time>
      </trkpt>
      <trkpt lat="44.17395" lon="5.28148">
        <ele>1847</ele>
        <time>2020-07-11T09:40:16.596Z</time>
      </trkpt>
      <trkpt lat="44.17394" lon="5.28144">
        <ele>1847</ele>
        <time>2020-07-11T09:40:17.596Z</time>
      </trkpt>
      <trkpt lat="44.17393" lon="5.28141">
        <ele>1848</ele>
        <time>2020-07-11T09:40:18.596Z</time>
      </trkpt>
      <trkpt lat="44.17392" lon="5.28137">
        <ele>1848</ele>
        <time>2020-07-11T09:40:19.596Z</time>
      </trkpt>
      <trkpt lat="44.17392" lon="5.28134">
        <ele>1848</ele>
        <time>2020-07-11T09:40:20.596Z</time>
      </trkpt>
      <trkpt lat="44.17391" lon="5.28131">
        <ele>1848</ele>
        <time>2020-07-11T09:40:21.596Z</time>
      </trkpt>
      <trkpt lat="44.1739" lon="5.28127">
        <ele>1848</ele>
        <time>2020-07-11T09:40:22.595Z</time>
      </trkpt>
      <trkpt lat="44.17389" lon="5.28124">
        <ele>1848</ele>
        <time>2020-07-11T09:40:23.596Z</time>
      </trkpt>
      <trkpt lat="44.17388" lon="5.2812">
        <ele>1848</ele>
        <time>2020-07-11T09:40:24.596Z</time>
      </trkpt>
      <trkpt lat="44.17388" lon="5.28117">
        <ele>1848</ele>
        <time>2020-07-11T09:40:25.596Z</time>
      </trkpt>
      <trkpt lat="44.17387" lon="5.28114">
        <ele>1848</ele>
        <time>2020-07-11T09:40:26.596Z</time>
      </trkpt>
      <trkpt lat="44.17387" lon="5.2811">
        <ele>1848</ele>
        <time>2020-07-11T09:40:27.596Z</time>
      </trkpt>
      <trkpt lat="44.17386" lon="5.28107">
        <ele>1848</ele>
        <time>2020-07-11T09:40:28.596Z</time>
      </trkpt>
      <trkpt lat="44.17385" lon="5.28104">
        <ele>1848</ele>
        <time>2020-07-11T09:40:29.596Z</time>
      </trkpt>
      <trkpt lat="44.17385" lon="5.281">
        <ele>1848</ele>
        <time>2020-07-11T09:40:30.596Z</time>
      </trkpt>
      <trkpt lat="44.17384" lon="5.28097">
        <ele>1848</ele>
        <time>2020-07-11T09:40:31.596Z</time>
      </trkpt>
      <trkpt lat="44.17383" lon="5.28094">
        <ele>1848</ele>
        <time>2020-07-11T09:40:32.596Z</time>
      </trkpt>
      <trkpt lat="44.17383" lon="5.2809">
        <ele>1849</ele>
        <time>2020-07-11T09:40:33.596Z</time>
      </trkpt>
      <trkpt lat="44.17382" lon="5.28087">
        <ele>1849</ele>
        <time>2020-07-11T09:40:34.596Z</time>
      </trkpt>
      <trkpt lat="44.17381" lon="5.28084">
        <ele>1849</ele>
        <time>2020-07-11T09:40:35.596Z</time>
      </trkpt>
      <trkpt lat="44.1738" lon="5.28081">
        <ele>1850</ele>
        <time>2020-07-11T09:40:36.595Z</time>
      </trkpt>
      <trkpt lat="44.17379" lon="5.28077">
        <ele>1850</ele>
        <time>2020-07-11T09:40:37.596Z</time>
      </trkpt>
      <trkpt lat="44.17378" lon="5.28073">
        <ele>1850</ele>
        <time>2020-07-11T09:40:38.596Z</time>
      </trkpt>
      <trkpt lat="44.17377" lon="5.2807">
        <ele>1851</ele>
        <time>2020-07-11T09:40:39.596Z</time>
      </trkpt>
      <trkpt lat="44.17376" lon="5.28067">
        <ele>1851</ele>
        <time>2020-07-11T09:40:40.595Z</time>
      </trkpt>
      <trkpt lat="44.17375" lon="5.28063">
        <ele>1851</ele>
        <time>2020-07-11T09:40:41.596Z</time>
      </trkpt>
      <trkpt lat="44.17374" lon="5.2806">
        <ele>1851</ele>
        <time>2020-07-11T09:40:42.596Z</time>
      </trkpt>
      <trkpt lat="44.17373" lon="5.28057">
        <ele>1852</ele>
        <time>2020-07-11T09:40:43.596Z</time>
      </trkpt>
      <trkpt lat="44.17372" lon="5.28054">
        <ele>1852</ele>
        <time>2020-07-11T09:40:44.596Z</time>
      </trkpt>
      <trkpt lat="44.17371" lon="5.28051">
        <ele>1852</ele>
        <time>2020-07-11T09:40:45.595Z</time>
      </trkpt>
      <trkpt lat="44.17369" lon="5.28048">
        <ele>1853</ele>
        <time>2020-07-11T09:40:46.596Z</time>
      </trkpt>
      <trkpt lat="44.17368" lon="5.28045">
        <ele>1853</ele>
        <time>2020-07-11T09:40:47.596Z</time>
      </trkpt>
      <trkpt lat="44.17366" lon="5.28042">
        <ele>1853</ele>
        <time>2020-07-11T09:40:48.596Z</time>
      </trkpt>
      <trkpt lat="44.17365" lon="5.28039">
        <ele>1853</ele>
        <time>2020-07-11T09:40:49.595Z</time>
      </trkpt>
      <trkpt lat="44.17363" lon="5.28036">
        <ele>1854</ele>
        <time>2020-07-11T09:40:50.596Z</time>
      </trkpt>
      <trkpt lat="44.17362" lon="5.28033">
        <ele>1853</ele>
        <time>2020-07-11T09:40:51.596Z</time>
      </trkpt>
      <trkpt lat="44.1736" lon="5.2803">
        <ele>1853</ele>
        <time>2020-07-11T09:40:52.596Z</time>
      </trkpt>
      <trkpt lat="44.17359" lon="5.28027">
        <ele>1854</ele>
        <time>2020-07-11T09:40:53.596Z</time>
      </trkpt>
      <trkpt lat="44.17357" lon="5.28024">
        <ele>1854</ele>
        <time>2020-07-11T09:40:54.595Z</time>
      </trkpt>
      <trkpt lat="44.17356" lon="5.28022">
        <ele>1855</ele>
        <time>2020-07-11T09:40:55.596Z</time>
      </trkpt>
      <trkpt lat="44.17354" lon="5.28019">
        <ele>1856</ele>
        <time>2020-07-11T09:40:56.596Z</time>
      </trkpt>
      <trkpt lat="44.17353" lon="5.28016">
        <ele>1856</ele>
        <time>2020-07-11T09:40:57.596Z</time>
      </trkpt>
      <trkpt lat="44.17352" lon="5.28013">
        <ele>1857</ele>
        <time>2020-07-11T09:40:58.595Z</time>
      </trkpt>
      <trkpt lat="44.1735" lon="5.28011">
        <ele>1857</ele>
        <time>2020-07-11T09:40:59.596Z</time>
      </trkpt>
      <trkpt lat="44.17349" lon="5.28008">
        <ele>1858</ele>
        <time>2020-07-11T09:41:00.596Z</time>
      </trkpt>
      <trkpt lat="44.17347" lon="5.28005">
        <ele>1858</ele>
        <time>2020-07-11T09:41:01.595Z</time>
      </trkpt>
      <trkpt lat="44.17346" lon="5.28002">
        <ele>1858</ele>
        <time>2020-07-11T09:41:02.596Z</time>
      </trkpt>
      <trkpt lat="44.17344" lon="5.27999">
        <ele>1858</ele>
        <time>2020-07-11T09:41:03.596Z</time>
      </trkpt>
      <trkpt lat="44.17343" lon="5.27996">
        <ele>1858</ele>
        <time>2020-07-11T09:41:04.596Z</time>
      </trkpt>
      <trkpt lat="44.17341" lon="5.27993">
        <ele>1858</ele>
        <time>2020-07-11T09:41:05.596Z</time>
      </trkpt>
      <trkpt lat="44.1734" lon="5.2799">
        <ele>1858</ele>
        <time>2020-07-11T09:41:06.596Z</time>
      </trkpt>
      <trkpt lat="44.17338" lon="5.27987">
        <ele>1859</ele>
        <time>2020-07-11T09:41:07.596Z</time>
      </trkpt>
      <trkpt lat="44.17337" lon="5.27984">
        <ele>1859</ele>
        <time>2020-07-11T09:41:08.595Z</time>
      </trkpt>
      <trkpt lat="44.17335" lon="5.27981">
        <ele>1860</ele>
        <time>2020-07-11T09:41:09.595Z</time>
      </trkpt>
      <trkpt lat="44.17334" lon="5.27978">
        <ele>1860</ele>
        <time>2020-07-11T09:41:10.596Z</time>
      </trkpt>
      <trkpt lat="44.17332" lon="5.27975">
        <ele>1860</ele>
        <time>2020-07-11T09:41:11.596Z</time>
      </trkpt>
      <trkpt lat="44.17331" lon="5.27972">
        <ele>1861</ele>
        <time>2020-07-11T09:41:12.596Z</time>
      </trkpt>
      <trkpt lat="44.17329" lon="5.27969">
        <ele>1861</ele>
        <time>2020-07-11T09:41:13.595Z</time>
      </trkpt>
      <trkpt lat="44.17328" lon="5.27967">
        <ele>1862</ele>
        <time>2020-07-11T09:41:14.596Z</time>
      </trkpt>
      <trkpt lat="44.17326" lon="5.27964">
        <ele>1863</ele>
        <time>2020-07-11T09:41:15.595Z</time>
      </trkpt>
      <trkpt lat="44.17324" lon="5.27961">
        <ele>1863</ele>
        <time>2020-07-11T09:41:16.596Z</time>
      </trkpt>
      <trkpt lat="44.17323" lon="5.27958">
        <ele>1863</ele>
        <time>2020-07-11T09:41:17.596Z</time>
      </trkpt>
      <trkpt lat="44.17321" lon="5.27955">
        <ele>1863</ele>
        <time>2020-07-11T09:41:18.596Z</time>
      </trkpt>
      <trkpt lat="44.1732" lon="5.27952">
        <ele>1863</ele>
        <time>2020-07-11T09:41:19.595Z</time>
      </trkpt>
      <trkpt lat="44.17318" lon="5.27949">
        <ele>1863</ele>
        <time>2020-07-11T09:41:20.595Z</time>
      </trkpt>
      <trkpt lat="44.17317" lon="5.27946">
        <ele>1863</ele>
        <time>2020-07-11T09:41:21.596Z</time>
      </trkpt>
      <trkpt lat="44.17316" lon="5.27943">
        <ele>1863</ele>
        <time>2020-07-11T09:41:22.596Z</time>
      </trkpt>
      <trkpt lat="44.17315" lon="5.2794">
        <ele>1863</ele>
        <time>2020-07-11T09:41:23.596Z</time>
      </trkpt>
      <trkpt lat="44.17314" lon="5.27936">
        <ele>1863</ele>
        <time>2020-07-11T09:41:24.596Z</time>
      </trkpt>
      <trkpt lat="44.17312" lon="5.27933">
        <ele>1863</ele>
        <time>2020-07-11T09:41:25.596Z</time>
      </trkpt>
      <trkpt lat="44.17311" lon="5.2793">
        <ele>1864</ele>
        <time>2020-07-11T09:41:26.595Z</time>
      </trkpt>
      <trkpt lat="44.1731" lon="5.27927">
        <ele>1864</ele>
        <time>2020-07-11T09:41:27.596Z</time>
      </trkpt>
      <trkpt lat="44.17308" lon="5.27924">
        <ele>1864</ele>
        <time>2020-07-11T09:41:28.596Z</time>
      </trkpt>
      <trkpt lat="44.17307" lon="5.27921">
        <ele>1865</ele>
        <time>2020-07-11T09:41:29.596Z</time>
      </trkpt>
      <trkpt lat="44.17306" lon="5.27918">
        <ele>1865</ele>
        <time>2020-07-11T09:41:30.596Z</time>
      </trkpt>
      <trkpt lat="44.17305" lon="5.27914">
        <ele>1865</ele>
        <time>2020-07-11T09:41:31.595Z</time>
      </trkpt>
      <trkpt lat="44.17304" lon="5.27911">
        <ele>1865</ele>
        <time>2020-07-11T09:41:32.596Z</time>
      </trkpt>
      <trkpt lat="44.17303" lon="5.27908">
        <ele>1865</ele>
        <time>2020-07-11T09:41:33.595Z</time>
      </trkpt>
      <trkpt lat="44.17302" lon="5.27905">
        <ele>1866</ele>
        <time>2020-07-11T09:41:34.596Z</time>
      </trkpt>
      <trkpt lat="44.17301" lon="5.27901">
        <ele>1866</ele>
        <time>2020-07-11T09:41:35.596Z</time>
      </trkpt>
      <trkpt lat="44.173" lon="5.27898">
        <ele>1866</ele>
        <time>2020-07-11T09:41:36.596Z</time>
      </trkpt>
      <trkpt lat="44.173" lon="5.27895">
        <ele>1866</ele>
        <time>2020-07-11T09:41:37.595Z</time>
      </trkpt>
      <trkpt lat="44.17299" lon="5.27892">
        <ele>1866</ele>
        <time>2020-07-11T09:41:38.596Z</time>
      </trkpt>
      <trkpt lat="44.17299" lon="5.27889">
        <ele>1866</ele>
        <time>2020-07-11T09:41:39.596Z</time>
      </trkpt>
      <trkpt lat="44.17299" lon="5.27885">
        <ele>1867</ele>
        <time>2020-07-11T09:41:40.595Z</time>
      </trkpt>
      <trkpt lat="44.17299" lon="5.27882">
        <ele>1867</ele>
        <time>2020-07-11T09:41:41.596Z</time>
      </trkpt>
      <trkpt lat="44.17298" lon="5.27879">
        <ele>1868</ele>
        <time>2020-07-11T09:41:42.596Z</time>
      </trkpt>
      <trkpt lat="44.17298" lon="5.27876">
        <ele>1868</ele>
        <time>2020-07-11T09:41:43.596Z</time>
      </trkpt>
      <trkpt lat="44.17299" lon="5.27873">
        <ele>1868</ele>
        <time>2020-07-11T09:41:44.596Z</time>
      </trkpt>
      <trkpt lat="44.17299" lon="5.27869">
        <ele>1868</ele>
        <time>2020-07-11T09:41:45.595Z</time>
      </trkpt>
      <trkpt lat="44.17299" lon="5.27866">
        <ele>1868</ele>
        <time>2020-07-11T09:41:46.596Z</time>
      </trkpt>
      <trkpt lat="44.17299" lon="5.27863">
        <ele>1868</ele>
        <time>2020-07-11T09:41:47.596Z</time>
      </trkpt>
      <trkpt lat="44.17299" lon="5.27859">
        <ele>1868</ele>
        <time>2020-07-11T09:41:48.596Z</time>
      </trkpt>
      <trkpt lat="44.17299" lon="5.27856">
        <ele>1869</ele>
        <time>2020-07-11T09:41:49.596Z</time>
      </trkpt>
      <trkpt lat="44.17299" lon="5.27852">
        <ele>1870</ele>
        <time>2020-07-11T09:41:50.595Z</time>
      </trkpt>
      <trkpt lat="44.17299" lon="5.27849">
        <ele>1871</ele>
        <time>2020-07-11T09:41:51.595Z</time>
      </trkpt>
      <trkpt lat="44.17299" lon="5.27845">
        <ele>1871</ele>
        <time>2020-07-11T09:41:52.596Z</time>
      </trkpt>
      <trkpt lat="44.17299" lon="5.27841">
        <ele>1871</ele>
        <time>2020-07-11T09:41:53.596Z</time>
      </trkpt>
      <trkpt lat="44.17299" lon="5.27837">
        <ele>1872</ele>
        <time>2020-07-11T09:41:54.596Z</time>
      </trkpt>
      <trkpt lat="44.17299" lon="5.27834">
        <ele>1872</ele>
        <time>2020-07-11T09:41:55.595Z</time>
      </trkpt>
      <trkpt lat="44.17299" lon="5.2783">
        <ele>1872</ele>
        <time>2020-07-11T09:41:56.596Z</time>
      </trkpt>
      <trkpt lat="44.17299" lon="5.27826">
        <ele>1873</ele>
        <time>2020-07-11T09:41:57.596Z</time>
      </trkpt>
      <trkpt lat="44.17299" lon="5.27822">
        <ele>1873</ele>
        <time>2020-07-11T09:41:58.596Z</time>
      </trkpt>
      <trkpt lat="44.17298" lon="5.27818">
        <ele>1874</ele>
        <time>2020-07-11T09:41:59.596Z</time>
      </trkpt>
      <trkpt lat="44.17299" lon="5.27814">
        <ele>1874</ele>
        <time>2020-07-11T09:42:00.595Z</time>
      </trkpt>
      <trkpt lat="44.17299" lon="5.27811">
        <ele>1875</ele>
        <time>2020-07-11T09:42:01.595Z</time>
      </trkpt>
      <trkpt lat="44.173" lon="5.27807">
        <ele>1875</ele>
        <time>2020-07-11T09:42:02.596Z</time>
      </trkpt>
      <trkpt lat="44.173" lon="5.27804">
        <ele>1876</ele>
        <time>2020-07-11T09:42:03.595Z</time>
      </trkpt>
      <trkpt lat="44.17301" lon="5.278">
        <ele>1876</ele>
        <time>2020-07-11T09:42:04.595Z</time>
      </trkpt>
      <trkpt lat="44.17302" lon="5.27797">
        <ele>1876</ele>
        <time>2020-07-11T09:42:05.596Z</time>
      </trkpt>
      <trkpt lat="44.17303" lon="5.27794">
        <ele>1876</ele>
        <time>2020-07-11T09:42:06.596Z</time>
      </trkpt>
      <trkpt lat="44.17304" lon="5.2779">
        <ele>1877</ele>
        <time>2020-07-11T09:42:07.596Z</time>
      </trkpt>
      <trkpt lat="44.17305" lon="5.27787">
        <ele>1877</ele>
        <time>2020-07-11T09:42:08.596Z</time>
      </trkpt>
      <trkpt lat="44.17307" lon="5.27783">
        <ele>1877</ele>
        <time>2020-07-11T09:42:09.595Z</time>
      </trkpt>
      <trkpt lat="44.17308" lon="5.2778">
        <ele>1877</ele>
        <time>2020-07-11T09:42:10.595Z</time>
      </trkpt>
      <trkpt lat="44.17309" lon="5.27777">
        <ele>1877</ele>
        <time>2020-07-11T09:42:11.596Z</time>
      </trkpt>
      <trkpt lat="44.17311" lon="5.27774">
        <ele>1877</ele>
        <time>2020-07-11T09:42:12.596Z</time>
      </trkpt>
      <trkpt lat="44.17312" lon="5.27771">
        <ele>1877</ele>
        <time>2020-07-11T09:42:13.595Z</time>
      </trkpt>
      <trkpt lat="44.17314" lon="5.27768">
        <ele>1877</ele>
        <time>2020-07-11T09:42:14.595Z</time>
      </trkpt>
      <trkpt lat="44.17315" lon="5.27765">
        <ele>1878</ele>
        <time>2020-07-11T09:42:15.595Z</time>
      </trkpt>
      <trkpt lat="44.17316" lon="5.27762">
        <ele>1879</ele>
        <time>2020-07-11T09:42:16.596Z</time>
      </trkpt>
      <trkpt lat="44.17317" lon="5.27758">
        <ele>1879</ele>
        <time>2020-07-11T09:42:17.596Z</time>
      </trkpt>
      <trkpt lat="44.17318" lon="5.27755">
        <ele>1879</ele>
        <time>2020-07-11T09:42:18.596Z</time>
      </trkpt>
      <trkpt lat="44.1732" lon="5.27752">
        <ele>1880</ele>
        <time>2020-07-11T09:42:19.596Z</time>
      </trkpt>
      <trkpt lat="44.17321" lon="5.27748">
        <ele>1880</ele>
        <time>2020-07-11T09:42:20.596Z</time>
      </trkpt>
      <trkpt lat="44.17322" lon="5.27745">
        <ele>1880</ele>
        <time>2020-07-11T09:42:21.596Z</time>
      </trkpt>
      <trkpt lat="44.17324" lon="5.27742">
        <ele>1880</ele>
        <time>2020-07-11T09:42:22.596Z</time>
      </trkpt>
      <trkpt lat="44.17325" lon="5.2774">
        <ele>1880</ele>
        <time>2020-07-11T09:42:23.596Z</time>
      </trkpt>
      <trkpt lat="44.17326" lon="5.27736">
        <ele>1881</ele>
        <time>2020-07-11T09:42:24.596Z</time>
      </trkpt>
      <trkpt lat="44.17327" lon="5.27733">
        <ele>1882</ele>
        <time>2020-07-11T09:42:25.596Z</time>
      </trkpt>
      <trkpt lat="44.17328" lon="5.27729">
        <ele>1882</ele>
        <time>2020-07-11T09:42:26.595Z</time>
      </trkpt>
      <trkpt lat="44.17329" lon="5.27726">
        <ele>1883</ele>
        <time>2020-07-11T09:42:27.595Z</time>
      </trkpt>
      <trkpt lat="44.1733" lon="5.27723">
        <ele>1883</ele>
        <time>2020-07-11T09:42:28.595Z</time>
      </trkpt>
      <trkpt lat="44.17331" lon="5.2772">
        <ele>1883</ele>
        <time>2020-07-11T09:42:29.595Z</time>
      </trkpt>
      <trkpt lat="44.17332" lon="5.27717">
        <ele>1884</ele>
        <time>2020-07-11T09:42:30.596Z</time>
      </trkpt>
      <trkpt lat="44.17332" lon="5.27713">
        <ele>1884</ele>
        <time>2020-07-11T09:42:31.596Z</time>
      </trkpt>
      <trkpt lat="44.17333" lon="5.27709">
        <ele>1884</ele>
        <time>2020-07-11T09:42:32.596Z</time>
      </trkpt>
      <trkpt lat="44.17334" lon="5.27706">
        <ele>1884</ele>
        <time>2020-07-11T09:42:33.596Z</time>
      </trkpt>
      <trkpt lat="44.17335" lon="5.27703">
        <ele>1884</ele>
        <time>2020-07-11T09:42:34.596Z</time>
      </trkpt>
      <trkpt lat="44.17337" lon="5.277">
        <ele>1885</ele>
        <time>2020-07-11T09:42:35.596Z</time>
      </trkpt>
      <trkpt lat="44.17339" lon="5.27698">
        <ele>1885</ele>
        <time>2020-07-11T09:42:36.595Z</time>
      </trkpt>
      <trkpt lat="44.17342" lon="5.27697">
        <ele>1885</ele>
        <time>2020-07-11T09:42:37.595Z</time>
      </trkpt>
      <trkpt lat="44.17344" lon="5.27696">
        <ele>1885</ele>
        <time>2020-07-11T09:42:38.596Z</time>
      </trkpt>
      <trkpt lat="44.17347" lon="5.27696">
        <ele>1885</ele>
        <time>2020-07-11T09:42:39.596Z</time>
      </trkpt>
      <trkpt lat="44.17349" lon="5.27697">
        <ele>1884</ele>
        <time>2020-07-11T09:42:40.595Z</time>
      </trkpt>
      <trkpt lat="44.17351" lon="5.27699">
        <ele>1884</ele>
        <time>2020-07-11T09:42:41.596Z</time>
      </trkpt>
      <trkpt lat="44.17353" lon="5.27701">
        <ele>1884</ele>
        <time>2020-07-11T09:42:42.596Z</time>
      </trkpt>
      <trkpt lat="44.17354" lon="5.27704">
        <ele>1884</ele>
        <time>2020-07-11T09:42:43.595Z</time>
      </trkpt>
      <trkpt lat="44.17355" lon="5.27708">
        <ele>1884</ele>
        <time>2020-07-11T09:42:44.596Z</time>
      </trkpt>
      <trkpt lat="44.17356" lon="5.27712">
        <ele>1884</ele>
        <time>2020-07-11T09:42:45.596Z</time>
      </trkpt>
      <trkpt lat="44.17356" lon="5.27715">
        <ele>1884</ele>
        <time>2020-07-11T09:42:46.596Z</time>
      </trkpt>
      <trkpt lat="44.17356" lon="5.27718">
        <ele>1884</ele>
        <time>2020-07-11T09:42:47.595Z</time>
      </trkpt>
      <trkpt lat="44.17355" lon="5.27723">
        <ele>1884</ele>
        <time>2020-07-11T09:42:48.596Z</time>
      </trkpt>
      <trkpt lat="44.17355" lon="5.27726">
        <ele>1885</ele>
        <time>2020-07-11T09:42:49.596Z</time>
      </trkpt>
      <trkpt lat="44.17355" lon="5.2773">
        <ele>1885</ele>
        <time>2020-07-11T09:42:50.596Z</time>
      </trkpt>
      <trkpt lat="44.17355" lon="5.27734">
        <ele>1885</ele>
        <time>2020-07-11T09:42:51.595Z</time>
      </trkpt>
      <trkpt lat="44.17355" lon="5.27738">
        <ele>1886</ele>
        <time>2020-07-11T09:42:52.595Z</time>
      </trkpt>
      <trkpt lat="44.17356" lon="5.27741">
        <ele>1886</ele>
        <time>2020-07-11T09:42:53.596Z</time>
      </trkpt>
      <trkpt lat="44.17355" lon="5.27745">
        <ele>1887</ele>
        <time>2020-07-11T09:42:54.595Z</time>
      </trkpt>
      <trkpt lat="44.17355" lon="5.27749">
        <ele>1887</ele>
        <time>2020-07-11T09:42:55.596Z</time>
      </trkpt>
      <trkpt lat="44.17355" lon="5.27753">
        <ele>1887</ele>
        <time>2020-07-11T09:42:56.595Z</time>
      </trkpt>
      <trkpt lat="44.17354" lon="5.27756">
        <ele>1887</ele>
        <time>2020-07-11T09:42:57.596Z</time>
      </trkpt>
      <trkpt lat="44.17354" lon="5.2776">
        <ele>1887</ele>
        <time>2020-07-11T09:42:58.596Z</time>
      </trkpt>
      <trkpt lat="44.17354" lon="5.27764">
        <ele>1887</ele>
        <time>2020-07-11T09:42:59.596Z</time>
      </trkpt>
      <trkpt lat="44.17355" lon="5.27768">
        <ele>1887</ele>
        <time>2020-07-11T09:43:00.596Z</time>
      </trkpt>
      <trkpt lat="44.17355" lon="5.27771">
        <ele>1887</ele>
        <time>2020-07-11T09:43:01.596Z</time>
      </trkpt>
      <trkpt lat="44.17354" lon="5.27774">
        <ele>1888</ele>
        <time>2020-07-11T09:43:02.596Z</time>
      </trkpt>
      <trkpt lat="44.17355" lon="5.27778">
        <ele>1888</ele>
        <time>2020-07-11T09:43:03.596Z</time>
      </trkpt>
      <trkpt lat="44.17354" lon="5.27781">
        <ele>1889</ele>
        <time>2020-07-11T09:43:04.596Z</time>
      </trkpt>
      <trkpt lat="44.17354" lon="5.27784">
        <ele>1889</ele>
        <time>2020-07-11T09:43:05.596Z</time>
      </trkpt>
      <trkpt lat="44.17354" lon="5.27788">
        <ele>1890</ele>
        <time>2020-07-11T09:43:06.595Z</time>
      </trkpt>
      <trkpt lat="44.17354" lon="5.27791">
        <ele>1891</ele>
        <time>2020-07-11T09:43:07.596Z</time>
      </trkpt>
      <trkpt lat="44.17354" lon="5.27794">
        <ele>1891</ele>
        <time>2020-07-11T09:43:08.596Z</time>
      </trkpt>
      <trkpt lat="44.17354" lon="5.27797">
        <ele>1892</ele>
        <time>2020-07-11T09:43:09.596Z</time>
      </trkpt>
      <trkpt lat="44.17354" lon="5.278">
        <ele>1892</ele>
        <time>2020-07-11T09:43:10.596Z</time>
      </trkpt>
      <trkpt lat="44.17354" lon="5.27804">
        <ele>1893</ele>
        <time>2020-07-11T09:43:11.596Z</time>
      </trkpt>
      <trkpt lat="44.17354" lon="5.27808">
        <ele>1893</ele>
        <time>2020-07-11T09:43:12.596Z</time>
      </trkpt>
      <trkpt lat="44.17354" lon="5.27811">
        <ele>1894</ele>
        <time>2020-07-11T09:43:13.596Z</time>
      </trkpt>
      <trkpt lat="44.17354" lon="5.27814">
        <ele>1894</ele>
        <time>2020-07-11T09:43:14.595Z</time>
      </trkpt>
      <trkpt lat="44.17354" lon="5.27817">
        <ele>1894</ele>
        <time>2020-07-11T09:43:15.595Z</time>
      </trkpt>
      <trkpt lat="44.17354" lon="5.2782">
        <ele>1894</ele>
        <time>2020-07-11T09:43:16.595Z</time>
      </trkpt>
      <trkpt lat="44.17355" lon="5.27823">
        <ele>1894</ele>
        <time>2020-07-11T09:43:17.595Z</time>
      </trkpt>
      <trkpt lat="44.17356" lon="5.27824">
        <ele>1894</ele>
        <time>2020-07-11T09:43:18.596Z</time>
      </trkpt>
      <trkpt lat="44.17356" lon="5.27825">
        <ele>1894</ele>
        <time>2020-07-11T09:43:19.596Z</time>
      </trkpt>
      <trkpt lat="44.17357" lon="5.27825">
        <ele>1894</ele>
        <time>2020-07-11T09:43:20.595Z</time>
      </trkpt>
      <trkpt lat="44.17357" lon="5.27823">
        <ele>1895</ele>
        <time>2020-07-11T09:43:21.596Z</time>
      </trkpt>
      <trkpt lat="44.17357" lon="5.27822">
        <ele>1895</ele>
        <time>2020-07-11T09:43:22.595Z</time>
      </trkpt>
      <trkpt lat="44.17356" lon="5.27821">
        <ele>1895</ele>
        <time>2020-07-11T09:43:23.595Z</time>
      </trkpt>
      <trkpt lat="44.17356" lon="5.2782">
        <ele>1896</ele>
        <time>2020-07-11T09:43:24.595Z</time>
      </trkpt>
      <trkpt lat="44.17352" lon="5.27854">
        <ele>1894</ele>
        <time>2020-07-11T09:43:25.595Z</time>
      </trkpt>
      <trkpt lat="44.17352" lon="5.27854">
        <ele>1894</ele>
        <time>2020-07-11T09:43:26.596Z</time>
      </trkpt>
      <trkpt lat="44.17352" lon="5.27854">
        <ele>1894</ele>
        <time>2020-07-11T09:43:27.595Z</time>
      </trkpt>
      <trkpt lat="44.17352" lon="5.27854">
        <ele>1894</ele>
        <time>2020-07-11T09:43:28.596Z</time>
      </trkpt>
      <trkpt lat="44.17352" lon="5.27854">
        <ele>1894</ele>
        <time>2020-07-11T09:43:29.595Z</time>
      </trkpt>
      <trkpt lat="44.17352" lon="5.27854">
        <ele>1894</ele>
        <time>2020-07-11T09:43:30.596Z</time>
      </trkpt>
      <trkpt lat="44.17352" lon="5.27854">
        <ele>1894</ele>
        <time>2020-07-11T09:43:31.596Z</time>
      </trkpt>
      <trkpt lat="44.17352" lon="5.27854">
        <ele>1894</ele>
        <time>2020-07-11T09:43:32.596Z</time>
      </trkpt>
      <trkpt lat="44.17352" lon="5.27854">
        <ele>1894</ele>
        <time>2020-07-11T09:43:33.596Z</time>
      </trkpt>
      <trkpt lat="44.17352" lon="5.27854">
        <ele>1894</ele>
        <time>2020-07-11T09:43:34.596Z</time>
      </trkpt>
      <trkpt lat="44.17353" lon="5.27854">
        <ele>1894</ele>
        <time>2020-07-11T09:43:35.595Z</time>
      </trkpt>
      <trkpt lat="44.17353" lon="5.27854">
        <ele>1894</ele>
        <time>2020-07-11T09:43:36.596Z</time>
      </trkpt>
      <trkpt lat="44.17353" lon="5.27854">
        <ele>1894</ele>
        <time>2020-07-11T09:43:37.596Z</time>
      </trkpt>
      <trkpt lat="44.17353" lon="5.27854">
        <ele>1894</ele>
        <time>2020-07-11T09:43:38.596Z</time>
      </trkpt>
      <trkpt lat="44.17354" lon="5.27854">
        <ele>1894</ele>
        <time>2020-07-11T09:43:39.595Z</time>
      </trkpt>
      <trkpt lat="44.17354" lon="5.27854">
        <ele>1894</ele>
        <time>2020-07-11T09:43:40.596Z</time>
      </trkpt>
      <trkpt lat="44.17354" lon="5.27854">
        <ele>1894</ele>
        <time>2020-07-11T09:43:41.596Z</time>
      </trkpt>
      <trkpt lat="44.17354" lon="5.27855">
        <ele>1894</ele>
        <time>2020-07-11T09:43:42.596Z</time>
      </trkpt>
      <trkpt lat="44.17354" lon="5.27855">
        <ele>1894</ele>
        <time>2020-07-11T09:43:43.596Z</time>
      </trkpt>
      <trkpt lat="44.17354" lon="5.27855">
        <ele>1894</ele>
        <time>2020-07-11T09:43:44.595Z</time>
      </trkpt>
      <trkpt lat="44.17354" lon="5.27855">
        <ele>1894</ele>
        <time>2020-07-11T09:43:45.596Z</time>
      </trkpt>
      <trkpt lat="44.17354" lon="5.27855">
        <ele>1894</ele>
        <time>2020-07-11T09:43:46.596Z</time>
      </trkpt>
      <trkpt lat="44.17354" lon="5.27855">
        <ele>1894</ele>
        <time>2020-07-11T09:43:47.596Z</time>
      </trkpt>
      <trkpt lat="44.17354" lon="5.27855">
        <ele>1894</ele>
        <time>2020-07-11T09:43:48.596Z</time>
      </trkpt>
      <trkpt lat="44.17354" lon="5.27855">
        <ele>1894</ele>
        <time>2020-07-11T09:43:49.596Z</time>
      </trkpt>
      <trkpt lat="44.17354" lon="5.27855">
        <ele>1894</ele>
        <time>2020-07-11T09:43:50.596Z</time>
      </trkpt>
      <trkpt lat="44.17354" lon="5.27855">
        <ele>1894</ele>
        <time>2020-07-11T09:43:51.595Z</time>
      </trkpt>
      <trkpt lat="44.17354" lon="5.27855">
        <ele>1894</ele>
        <time>2020-07-11T09:43:52.596Z</time>
      </trkpt>
      <trkpt lat="44.17354" lon="5.27855">
        <ele>1894</ele>
        <time>2020-07-11T09:43:53.595Z</time>
      </trkpt>
      <trkpt lat="44.17354" lon="5.27855">
        <ele>1894</ele>
        <time>2020-07-11T09:43:54.596Z</time>
      </trkpt>
      <trkpt lat="44.17354" lon="5.27856">
        <ele>1894</ele>
        <time>2020-07-11T09:43:55.596Z</time>
      </trkpt>
      <trkpt lat="44.17355" lon="5.27858">
        <ele>1895</ele>
        <time>2020-07-11T09:43:56.596Z</time>
      </trkpt>
      <trkpt lat="44.17355" lon="5.27861">
        <ele>1895</ele>
        <time>2020-07-11T09:43:57.596Z</time>
      </trkpt>
      <trkpt lat="44.17356" lon="5.27864">
        <ele>1895</ele>
        <time>2020-07-11T09:43:58.595Z</time>
      </trkpt>
      <trkpt lat="44.17356" lon="5.27868">
        <ele>1895</ele>
        <time>2020-07-11T09:43:59.596Z</time>
      </trkpt>
      <trkpt lat="44.17358" lon="5.27871">
        <ele>1896</ele>
        <time>2020-07-11T09:44:00.596Z</time>
      </trkpt>
      <trkpt lat="44.17359" lon="5.27875">
        <ele>1896</ele>
        <time>2020-07-11T09:44:01.596Z</time>
      </trkpt>
      <trkpt lat="44.1736" lon="5.27879">
        <ele>1896</ele>
        <time>2020-07-11T09:44:02.596Z</time>
      </trkpt>
      <trkpt lat="44.17362" lon="5.27883">
        <ele>1897</ele>
        <time>2020-07-11T09:44:03.596Z</time>
      </trkpt>
      <trkpt lat="44.17364" lon="5.27888">
        <ele>1897</ele>
        <time>2020-07-11T09:44:04.595Z</time>
      </trkpt>
      <trkpt lat="44.17366" lon="5.2789">
        <ele>1897</ele>
        <time>2020-07-11T09:44:05.596Z</time>
      </trkpt>
      <trkpt lat="44.17368" lon="5.27894">
        <ele>1898</ele>
        <time>2020-07-11T09:44:06.596Z</time>
      </trkpt>
      <trkpt lat="44.17371" lon="5.27898">
        <ele>1898</ele>
        <time>2020-07-11T09:44:07.596Z</time>
      </trkpt>
      <trkpt lat="44.17375" lon="5.27904">
        <ele>1897</ele>
        <time>2020-07-11T09:44:08.596Z</time>
      </trkpt>
      <trkpt lat="44.17379" lon="5.27909">
        <ele>1897</ele>
        <time>2020-07-11T09:44:09.595Z</time>
      </trkpt>
      <trkpt lat="44.17383" lon="5.27914">
        <ele>1897</ele>
        <time>2020-07-11T09:44:10.596Z</time>
      </trkpt>
      <trkpt lat="44.17386" lon="5.27917">
        <ele>1897</ele>
        <time>2020-07-11T09:44:11.595Z</time>
      </trkpt>
      <trkpt lat="44.1739" lon="5.27922">
        <ele>1897</ele>
        <time>2020-07-11T09:44:12.596Z</time>
      </trkpt>
      <trkpt lat="44.17395" lon="5.27927">
        <ele>1897</ele>
        <time>2020-07-11T09:44:13.596Z</time>
      </trkpt>
      <trkpt lat="44.17399" lon="5.27932">
        <ele>1897</ele>
        <time>2020-07-11T09:44:14.596Z</time>
      </trkpt>
      <trkpt lat="44.17405" lon="5.27937">
        <ele>1897</ele>
        <time>2020-07-11T09:44:15.596Z</time>
      </trkpt>
      <trkpt lat="44.17409" lon="5.27941">
        <ele>1897</ele>
        <time>2020-07-11T09:44:16.596Z</time>
      </trkpt>
      <trkpt lat="44.17413" lon="5.27945">
        <ele>1897</ele>
        <time>2020-07-11T09:44:17.596Z</time>
      </trkpt>
      <trkpt lat="44.17417" lon="5.2795">
        <ele>1896</ele>
        <time>2020-07-11T09:44:18.596Z</time>
      </trkpt>
      <trkpt lat="44.17423" lon="5.27954">
        <ele>1896</ele>
        <time>2020-07-11T09:44:19.595Z</time>
      </trkpt>
      <trkpt lat="44.17429" lon="5.27959">
        <ele>1896</ele>
        <time>2020-07-11T09:44:20.596Z</time>
      </trkpt>
      <trkpt lat="44.17435" lon="5.27965">
        <ele>1896</ele>
        <time>2020-07-11T09:44:21.595Z</time>
      </trkpt>
      <trkpt lat="44.1744" lon="5.27971">
        <ele>1895</ele>
        <time>2020-07-11T09:44:22.596Z</time>
      </trkpt>
      <trkpt lat="44.17445" lon="5.27978">
        <ele>1895</ele>
        <time>2020-07-11T09:44:23.596Z</time>
      </trkpt>
      <trkpt lat="44.1745" lon="5.27986">
        <ele>1895</ele>
        <time>2020-07-11T09:44:24.596Z</time>
      </trkpt>
      <trkpt lat="44.17455" lon="5.27995">
        <ele>1894</ele>
        <time>2020-07-11T09:44:25.595Z</time>
      </trkpt>
      <trkpt lat="44.17458" lon="5.28002">
        <ele>1893</ele>
        <time>2020-07-11T09:44:26.596Z</time>
      </trkpt>
      <trkpt lat="44.17462" lon="5.28011">
        <ele>1893</ele>
        <time>2020-07-11T09:44:27.596Z</time>
      </trkpt>
      <trkpt lat="44.17466" lon="5.2802">
        <ele>1892</ele>
        <time>2020-07-11T09:44:28.595Z</time>
      </trkpt>
      <trkpt lat="44.17471" lon="5.28028">
        <ele>1892</ele>
        <time>2020-07-11T09:44:29.596Z</time>
      </trkpt>
      <trkpt lat="44.17474" lon="5.28036">
        <ele>1891</ele>
        <time>2020-07-11T09:44:30.595Z</time>
      </trkpt>
      <trkpt lat="44.17478" lon="5.28042">
        <ele>1890</ele>
        <time>2020-07-11T09:44:31.596Z</time>
      </trkpt>
      <trkpt lat="44.17481" lon="5.28047">
        <ele>1890</ele>
        <time>2020-07-11T09:44:32.596Z</time>
      </trkpt>
      <trkpt lat="44.17485" lon="5.28051">
        <ele>1890</ele>
        <time>2020-07-11T09:44:33.596Z</time>
      </trkpt>
      <trkpt lat="44.17488" lon="5.28054">
        <ele>1889</ele>
        <time>2020-07-11T09:44:34.596Z</time>
      </trkpt>
      <trkpt lat="44.17491" lon="5.28055">
        <ele>1889</ele>
        <time>2020-07-11T09:44:35.596Z</time>
      </trkpt>
      <trkpt lat="44.17494" lon="5.28055">
        <ele>1889</ele>
        <time>2020-07-11T09:44:36.596Z</time>
      </trkpt>
      <trkpt lat="44.17497" lon="5.28056">
        <ele>1888</ele>
        <time>2020-07-11T09:44:37.596Z</time>
      </trkpt>
      <trkpt lat="44.175" lon="5.28055">
        <ele>1888</ele>
        <time>2020-07-11T09:44:38.596Z</time>
      </trkpt>
      <trkpt lat="44.17502" lon="5.28055">
        <ele>1888</ele>
        <time>2020-07-11T09:44:39.595Z</time>
      </trkpt>
      <trkpt lat="44.17504" lon="5.28054">
        <ele>1887</ele>
        <time>2020-07-11T09:44:40.596Z</time>
      </trkpt>
      <trkpt lat="44.17506" lon="5.28054">
        <ele>1887</ele>
        <time>2020-07-11T09:44:41.595Z</time>
      </trkpt>
      <trkpt lat="44.17507" lon="5.28055">
        <ele>1886</ele>
        <time>2020-07-11T09:44:42.595Z</time>
      </trkpt>
      <trkpt lat="44.17507" lon="5.28055">
        <ele>1885</ele>
        <time>2020-07-11T09:44:43.596Z</time>
      </trkpt>
      <trkpt lat="44.17507" lon="5.28055">
        <ele>1885</ele>
        <time>2020-07-11T09:44:44.596Z</time>
      </trkpt>
      <trkpt lat="44.17507" lon="5.28055">
        <ele>1884</ele>
        <time>2020-07-11T09:44:45.596Z</time>
      </trkpt>
      <trkpt lat="44.17505" lon="5.2805">
        <ele>1885</ele>
        <time>2020-07-11T09:44:46.596Z</time>
      </trkpt>
      <trkpt lat="44.17505" lon="5.28051">
        <ele>1885</ele>
        <time>2020-07-11T09:44:47.596Z</time>
      </trkpt>
      <trkpt lat="44.17505" lon="5.2805">
        <ele>1885</ele>
        <time>2020-07-11T09:44:48.596Z</time>
      </trkpt>
      <trkpt lat="44.17504" lon="5.28048">
        <ele>1885</ele>
        <time>2020-07-11T09:44:49.595Z</time>
      </trkpt>
      <trkpt lat="44.17504" lon="5.28052">
        <ele>1885</ele>
        <time>2020-07-11T09:44:50.597Z</time>
      </trkpt>
      <trkpt lat="44.17504" lon="5.28052">
        <ele>1885</ele>
        <time>2020-07-11T09:44:51.597Z</time>
      </trkpt>
      <trkpt lat="44.17504" lon="5.28052">
        <ele>1885</ele>
        <time>2020-07-11T09:44:52.597Z</time>
      </trkpt>
      <trkpt lat="44.17504" lon="5.28052">
        <ele>1885</ele>
        <time>2020-07-11T09:44:53.597Z</time>
      </trkpt>
      <trkpt lat="44.17504" lon="5.28052">
        <ele>1885</ele>
        <time>2020-07-11T09:44:54.597Z</time>
      </trkpt>
      <trkpt lat="44.17504" lon="5.28052">
        <ele>1885</ele>
        <time>2020-07-11T09:44:55.596Z</time>
      </trkpt>
      <trkpt lat="44.17504" lon="5.28052">
        <ele>1885</ele>
        <time>2020-07-11T09:44:56.597Z</time>
      </trkpt>
      <trkpt lat="44.17504" lon="5.28052">
        <ele>1885</ele>
        <time>2020-07-11T09:44:57.597Z</time>
      </trkpt>
      <trkpt lat="44.17504" lon="5.28052">
        <ele>1885</ele>
        <time>2020-07-11T09:44:58.596Z</time>
      </trkpt>
      <trkpt lat="44.17504" lon="5.28051">
        <ele>1885</ele>
        <time>2020-07-11T09:44:59.597Z</time>
      </trkpt>
      <trkpt lat="44.17504" lon="5.28051">
        <ele>1885</ele>
        <time>2020-07-11T09:45:00.596Z</time>
      </trkpt>
      <trkpt lat="44.17504" lon="5.2805">
        <ele>1885</ele>
        <time>2020-07-11T09:45:01.597Z</time>
      </trkpt>
      <trkpt lat="44.17504" lon="5.2805">
        <ele>1885</ele>
        <time>2020-07-11T09:45:02.596Z</time>
      </trkpt>
      <trkpt lat="44.17504" lon="5.28045">
        <ele>1885</ele>
        <time>2020-07-11T09:45:03.597Z</time>
      </trkpt>
      <trkpt lat="44.17505" lon="5.2804">
        <ele>1885</ele>
        <time>2020-07-11T09:45:04.597Z</time>
      </trkpt>
      <trkpt lat="44.17506" lon="5.28036">
        <ele>1885</ele>
        <time>2020-07-11T09:45:05.597Z</time>
      </trkpt>
      <trkpt lat="44.17507" lon="5.2803">
        <ele>1885</ele>
        <time>2020-07-11T09:45:06.597Z</time>
      </trkpt>
      <trkpt lat="44.17508" lon="5.28023">
        <ele>1885</ele>
        <time>2020-07-11T09:45:07.597Z</time>
      </trkpt>
      <trkpt lat="44.1751" lon="5.28015">
        <ele>1885</ele>
        <time>2020-07-11T09:45:08.597Z</time>
      </trkpt>
      <trkpt lat="44.17511" lon="5.28006">
        <ele>1885</ele>
        <time>2020-07-11T09:45:09.596Z</time>
      </trkpt>
      <trkpt lat="44.17513" lon="5.27997">
        <ele>1885</ele>
        <time>2020-07-11T09:45:10.597Z</time>
      </trkpt>
      <trkpt lat="44.17515" lon="5.27988">
        <ele>1885</ele>
        <time>2020-07-11T09:45:11.597Z</time>
      </trkpt>
      <trkpt lat="44.17517" lon="5.27978">
        <ele>1884</ele>
        <time>2020-07-11T09:45:12.597Z</time>
      </trkpt>
      <trkpt lat="44.17519" lon="5.27969">
        <ele>1884</ele>
        <time>2020-07-11T09:45:13.597Z</time>
      </trkpt>
      <trkpt lat="44.1752" lon="5.27959">
        <ele>1883</ele>
        <time>2020-07-11T09:45:14.597Z</time>
      </trkpt>
      <trkpt lat="44.17522" lon="5.27946">
        <ele>1882</ele>
        <time>2020-07-11T09:45:15.597Z</time>
      </trkpt>
      <trkpt lat="44.17524" lon="5.27934">
        <ele>1881</ele>
        <time>2020-07-11T09:45:16.597Z</time>
      </trkpt>
      <trkpt lat="44.17524" lon="5.27925">
        <ele>1880</ele>
        <time>2020-07-11T09:45:17.596Z</time>
      </trkpt>
      <trkpt lat="44.17525" lon="5.27914">
        <ele>1879</ele>
        <time>2020-07-11T09:45:18.597Z</time>
      </trkpt>
      <trkpt lat="44.17526" lon="5.27902">
        <ele>1878</ele>
        <time>2020-07-11T09:45:19.597Z</time>
      </trkpt>
      <trkpt lat="44.17525" lon="5.27888">
        <ele>1877</ele>
        <time>2020-07-11T09:45:20.596Z</time>
      </trkpt>
      <trkpt lat="44.17524" lon="5.27877">
        <ele>1876</ele>
        <time>2020-07-11T09:45:21.597Z</time>
      </trkpt>
      <trkpt lat="44.17524" lon="5.27869">
        <ele>1876</ele>
        <time>2020-07-11T09:45:22.597Z</time>
      </trkpt>
      <trkpt lat="44.17523" lon="5.27858">
        <ele>1876</ele>
        <time>2020-07-11T09:45:23.597Z</time>
      </trkpt>
      <trkpt lat="44.17521" lon="5.27847">
        <ele>1875</ele>
        <time>2020-07-11T09:45:24.597Z</time>
      </trkpt>
      <trkpt lat="44.1752" lon="5.27837">
        <ele>1875</ele>
        <time>2020-07-11T09:45:25.597Z</time>
      </trkpt>
      <trkpt lat="44.17517" lon="5.27826">
        <ele>1875</ele>
        <time>2020-07-11T09:45:26.597Z</time>
      </trkpt>
      <trkpt lat="44.17515" lon="5.27814">
        <ele>1875</ele>
        <time>2020-07-11T09:45:27.596Z</time>
      </trkpt>
      <trkpt lat="44.17511" lon="5.27802">
        <ele>1875</ele>
        <time>2020-07-11T09:45:28.596Z</time>
      </trkpt>
      <trkpt lat="44.17506" lon="5.27789">
        <ele>1875</ele>
        <time>2020-07-11T09:45:29.597Z</time>
      </trkpt>
      <trkpt lat="44.17501" lon="5.27777">
        <ele>1874</ele>
        <time>2020-07-11T09:45:30.596Z</time>
      </trkpt>
      <trkpt lat="44.17495" lon="5.27765">
        <ele>1874</ele>
        <time>2020-07-11T09:45:31.596Z</time>
      </trkpt>
      <trkpt lat="44.17488" lon="5.27753">
        <ele>1874</ele>
        <time>2020-07-11T09:45:32.596Z</time>
      </trkpt>
      <trkpt lat="44.1748" lon="5.27743">
        <ele>1874</ele>
        <time>2020-07-11T09:45:33.597Z</time>
      </trkpt>
      <trkpt lat="44.17472" lon="5.27733">
        <ele>1873</ele>
        <time>2020-07-11T09:45:34.597Z</time>
      </trkpt>
      <trkpt lat="44.17464" lon="5.27724">
        <ele>1873</ele>
        <time>2020-07-11T09:45:35.597Z</time>
      </trkpt>
      <trkpt lat="44.17455" lon="5.27715">
        <ele>1872</ele>
        <time>2020-07-11T09:45:36.597Z</time>
      </trkpt>
      <trkpt lat="44.17447" lon="5.27707">
        <ele>1871</ele>
        <time>2020-07-11T09:45:37.597Z</time>
      </trkpt>
      <trkpt lat="44.17439" lon="5.27698">
        <ele>1871</ele>
        <time>2020-07-11T09:45:38.597Z</time>
      </trkpt>
      <trkpt lat="44.17429" lon="5.27689">
        <ele>1870</ele>
        <time>2020-07-11T09:45:39.597Z</time>
      </trkpt>
      <trkpt lat="44.1742" lon="5.27678">
        <ele>1869</ele>
        <time>2020-07-11T09:45:40.596Z</time>
      </trkpt>
      <trkpt lat="44.17412" lon="5.27667">
        <ele>1868</ele>
        <time>2020-07-11T09:45:41.597Z</time>
      </trkpt>
      <trkpt lat="44.17405" lon="5.27654">
        <ele>1867</ele>
        <time>2020-07-11T09:45:42.597Z</time>
      </trkpt>
      <trkpt lat="44.17397" lon="5.27641">
        <ele>1866</ele>
        <time>2020-07-11T09:45:43.596Z</time>
      </trkpt>
      <trkpt lat="44.17391" lon="5.27627">
        <ele>1865</ele>
        <time>2020-07-11T09:45:44.597Z</time>
      </trkpt>
      <trkpt lat="44.17385" lon="5.27612">
        <ele>1864</ele>
        <time>2020-07-11T09:45:45.597Z</time>
      </trkpt>
      <trkpt lat="44.17378" lon="5.27598">
        <ele>1864</ele>
        <time>2020-07-11T09:45:46.596Z</time>
      </trkpt>
      <trkpt lat="44.17373" lon="5.27584">
        <ele>1863</ele>
        <time>2020-07-11T09:45:47.597Z</time>
      </trkpt>
      <trkpt lat="44.17367" lon="5.27569">
        <ele>1862</ele>
        <time>2020-07-11T09:45:48.597Z</time>
      </trkpt>
      <trkpt lat="44.17361" lon="5.27555">
        <ele>1862</ele>
        <time>2020-07-11T09:45:49.597Z</time>
      </trkpt>
      <trkpt lat="44.17356" lon="5.2754">
        <ele>1861</ele>
        <time>2020-07-11T09:45:50.597Z</time>
      </trkpt>
      <trkpt lat="44.17352" lon="5.27525">
        <ele>1860</ele>
        <time>2020-07-11T09:45:51.597Z</time>
      </trkpt>
      <trkpt lat="44.17348" lon="5.2751">
        <ele>1858</ele>
        <time>2020-07-11T09:45:52.597Z</time>
      </trkpt>
      <trkpt lat="44.17346" lon="5.27494">
        <ele>1857</ele>
        <time>2020-07-11T09:45:53.596Z</time>
      </trkpt>
      <trkpt lat="44.17346" lon="5.27474">
        <ele>1855</ele>
        <time>2020-07-11T09:45:54.596Z</time>
      </trkpt>
      <trkpt lat="44.17347" lon="5.27457">
        <ele>1854</ele>
        <time>2020-07-11T09:45:55.597Z</time>
      </trkpt>
      <trkpt lat="44.17348" lon="5.2744">
        <ele>1852</ele>
        <time>2020-07-11T09:45:56.597Z</time>
      </trkpt>
      <trkpt lat="44.17349" lon="5.27427">
        <ele>1851</ele>
        <time>2020-07-11T09:45:57.597Z</time>
      </trkpt>
      <trkpt lat="44.17349" lon="5.2741">
        <ele>1849</ele>
        <time>2020-07-11T09:45:58.597Z</time>
      </trkpt>
      <trkpt lat="44.1735" lon="5.27393">
        <ele>1848</ele>
        <time>2020-07-11T09:45:59.596Z</time>
      </trkpt>
      <trkpt lat="44.1735" lon="5.27376">
        <ele>1847</ele>
        <time>2020-07-11T09:46:00.597Z</time>
      </trkpt>
      <trkpt lat="44.17349" lon="5.27358">
        <ele>1846</ele>
        <time>2020-07-11T09:46:01.596Z</time>
      </trkpt>
      <trkpt lat="44.17348" lon="5.27341">
        <ele>1844</ele>
        <time>2020-07-11T09:46:02.597Z</time>
      </trkpt>
      <trkpt lat="44.17348" lon="5.27327">
        <ele>1843</ele>
        <time>2020-07-11T09:46:03.597Z</time>
      </trkpt>
      <trkpt lat="44.17348" lon="5.27313">
        <ele>1842</ele>
        <time>2020-07-11T09:46:04.596Z</time>
      </trkpt>
      <trkpt lat="44.17347" lon="5.273">
        <ele>1840</ele>
        <time>2020-07-11T09:46:05.597Z</time>
      </trkpt>
      <trkpt lat="44.17346" lon="5.27289">
        <ele>1839</ele>
        <time>2020-07-11T09:46:06.597Z</time>
      </trkpt>
      <trkpt lat="44.17345" lon="5.27278">
        <ele>1837</ele>
        <time>2020-07-11T09:46:07.597Z</time>
      </trkpt>
      <trkpt lat="44.17345" lon="5.27268">
        <ele>1836</ele>
        <time>2020-07-11T09:46:08.597Z</time>
      </trkpt>
      <trkpt lat="44.17344" lon="5.27259">
        <ele>1835</ele>
        <time>2020-07-11T09:46:09.596Z</time>
      </trkpt>
      <trkpt lat="44.17343" lon="5.27251">
        <ele>1834</ele>
        <time>2020-07-11T09:46:10.596Z</time>
      </trkpt>
      <trkpt lat="44.17344" lon="5.27245">
        <ele>1833</ele>
        <time>2020-07-11T09:46:11.597Z</time>
      </trkpt>
      <trkpt lat="44.17344" lon="5.27239">
        <ele>1832</ele>
        <time>2020-07-11T09:46:12.596Z</time>
      </trkpt>
      <trkpt lat="44.17345" lon="5.27235">
        <ele>1832</ele>
        <time>2020-07-11T09:46:13.597Z</time>
      </trkpt>
      <trkpt lat="44.17346" lon="5.27233">
        <ele>1830</ele>
        <time>2020-07-11T09:46:14.597Z</time>
      </trkpt>
      <trkpt lat="44.17347" lon="5.27231">
        <ele>1830</ele>
        <time>2020-07-11T09:46:15.597Z</time>
      </trkpt>
      <trkpt lat="44.17348" lon="5.27231">
        <ele>1829</ele>
        <time>2020-07-11T09:46:16.596Z</time>
      </trkpt>
      <trkpt lat="44.17348" lon="5.27232">
        <ele>1828</ele>
        <time>2020-07-11T09:46:17.596Z</time>
      </trkpt>
      <trkpt lat="44.17349" lon="5.27234">
        <ele>1828</ele>
        <time>2020-07-11T09:46:18.597Z</time>
      </trkpt>
      <trkpt lat="44.17349" lon="5.27234">
        <ele>1828</ele>
        <time>2020-07-11T09:46:19.596Z</time>
      </trkpt>
      <trkpt lat="44.17356" lon="5.27239">
        <ele>1834</ele>
        <time>2020-07-11T09:46:20.597Z</time>
      </trkpt>
      <trkpt lat="44.1736" lon="5.27239">
        <ele>1834</ele>
        <time>2020-07-11T09:46:21.596Z</time>
      </trkpt>
      <trkpt lat="44.17365" lon="5.2724">
        <ele>1833</ele>
        <time>2020-07-11T09:46:22.596Z</time>
      </trkpt>
      <trkpt lat="44.17371" lon="5.27241">
        <ele>1833</ele>
        <time>2020-07-11T09:46:23.597Z</time>
      </trkpt>
      <trkpt lat="44.17377" lon="5.27245">
        <ele>1833</ele>
        <time>2020-07-11T09:46:24.596Z</time>
      </trkpt>
      <trkpt lat="44.17381" lon="5.27251">
        <ele>1832</ele>
        <time>2020-07-11T09:46:25.596Z</time>
      </trkpt>
      <trkpt lat="44.17384" lon="5.27257">
        <ele>1831</ele>
        <time>2020-07-11T09:46:26.597Z</time>
      </trkpt>
      <trkpt lat="44.17387" lon="5.27266">
        <ele>1830</ele>
        <time>2020-07-11T09:46:27.596Z</time>
      </trkpt>
      <trkpt lat="44.17388" lon="5.27275">
        <ele>1829</ele>
        <time>2020-07-11T09:46:28.596Z</time>
      </trkpt>
      <trkpt lat="44.17387" lon="5.27284">
        <ele>1829</ele>
        <time>2020-07-11T09:46:29.597Z</time>
      </trkpt>
      <trkpt lat="44.17387" lon="5.27293">
        <ele>1828</ele>
        <time>2020-07-11T09:46:30.597Z</time>
      </trkpt>
      <trkpt lat="44.17385" lon="5.27304">
        <ele>1828</ele>
        <time>2020-07-11T09:46:31.597Z</time>
      </trkpt>
      <trkpt lat="44.17385" lon="5.27315">
        <ele>1827</ele>
        <time>2020-07-11T09:46:32.596Z</time>
      </trkpt>
      <trkpt lat="44.17384" lon="5.27326">
        <ele>1826</ele>
        <time>2020-07-11T09:46:33.597Z</time>
      </trkpt>
      <trkpt lat="44.17384" lon="5.27337">
        <ele>1825</ele>
        <time>2020-07-11T09:46:34.597Z</time>
      </trkpt>
      <trkpt lat="44.17383" lon="5.27348">
        <ele>1825</ele>
        <time>2020-07-11T09:46:35.597Z</time>
      </trkpt>
      <trkpt lat="44.17383" lon="5.2736">
        <ele>1824</ele>
        <time>2020-07-11T09:46:36.596Z</time>
      </trkpt>
      <trkpt lat="44.17383" lon="5.27372">
        <ele>1824</ele>
        <time>2020-07-11T09:46:37.597Z</time>
      </trkpt>
      <trkpt lat="44.17382" lon="5.27384">
        <ele>1823</ele>
        <time>2020-07-11T09:46:38.597Z</time>
      </trkpt>
      <trkpt lat="44.17382" lon="5.27396">
        <ele>1822</ele>
        <time>2020-07-11T09:46:39.597Z</time>
      </trkpt>
      <trkpt lat="44.17382" lon="5.27408">
        <ele>1822</ele>
        <time>2020-07-11T09:46:40.597Z</time>
      </trkpt>
      <trkpt lat="44.17382" lon="5.2742">
        <ele>1822</ele>
        <time>2020-07-11T09:46:41.596Z</time>
      </trkpt>
      <trkpt lat="44.17382" lon="5.27433">
        <ele>1822</ele>
        <time>2020-07-11T09:46:42.597Z</time>
      </trkpt>
      <trkpt lat="44.17383" lon="5.27446">
        <ele>1821</ele>
        <time>2020-07-11T09:46:43.597Z</time>
      </trkpt>
      <trkpt lat="44.17384" lon="5.27459">
        <ele>1821</ele>
        <time>2020-07-11T09:46:44.597Z</time>
      </trkpt>
      <trkpt lat="44.17386" lon="5.27473">
        <ele>1820</ele>
        <time>2020-07-11T09:46:45.597Z</time>
      </trkpt>
      <trkpt lat="44.17389" lon="5.27487">
        <ele>1820</ele>
        <time>2020-07-11T09:46:46.597Z</time>
      </trkpt>
      <trkpt lat="44.17395" lon="5.27503">
        <ele>1819</ele>
        <time>2020-07-11T09:46:47.597Z</time>
      </trkpt>
      <trkpt lat="44.17401" lon="5.27514">
        <ele>1818</ele>
        <time>2020-07-11T09:46:48.597Z</time>
      </trkpt>
      <trkpt lat="44.17408" lon="5.27526">
        <ele>1817</ele>
        <time>2020-07-11T09:46:49.596Z</time>
      </trkpt>
      <trkpt lat="44.17417" lon="5.27538">
        <ele>1816</ele>
        <time>2020-07-11T09:46:50.597Z</time>
      </trkpt>
      <trkpt lat="44.17425" lon="5.2755">
        <ele>1816</ele>
        <time>2020-07-11T09:46:51.597Z</time>
      </trkpt>
      <trkpt lat="44.17435" lon="5.27562">
        <ele>1815</ele>
        <time>2020-07-11T09:46:52.597Z</time>
      </trkpt>
      <trkpt lat="44.17443" lon="5.27574">
        <ele>1814</ele>
        <time>2020-07-11T09:46:53.597Z</time>
      </trkpt>
      <trkpt lat="44.17452" lon="5.27585">
        <ele>1813</ele>
        <time>2020-07-11T09:46:54.596Z</time>
      </trkpt>
      <trkpt lat="44.17461" lon="5.27595">
        <ele>1812</ele>
        <time>2020-07-11T09:46:55.597Z</time>
      </trkpt>
      <trkpt lat="44.1747" lon="5.27604">
        <ele>1812</ele>
        <time>2020-07-11T09:46:56.597Z</time>
      </trkpt>
      <trkpt lat="44.1748" lon="5.27611">
        <ele>1811</ele>
        <time>2020-07-11T09:46:57.597Z</time>
      </trkpt>
      <trkpt lat="44.17491" lon="5.27617">
        <ele>1810</ele>
        <time>2020-07-11T09:46:58.597Z</time>
      </trkpt>
      <trkpt lat="44.17502" lon="5.27621">
        <ele>1810</ele>
        <time>2020-07-11T09:46:59.597Z</time>
      </trkpt>
      <trkpt lat="44.17514" lon="5.27624">
        <ele>1809</ele>
        <time>2020-07-11T09:47:00.597Z</time>
      </trkpt>
      <trkpt lat="44.17526" lon="5.27626">
        <ele>1808</ele>
        <time>2020-07-11T09:47:01.597Z</time>
      </trkpt>
      <trkpt lat="44.17538" lon="5.27628">
        <ele>1807</ele>
        <time>2020-07-11T09:47:02.596Z</time>
      </trkpt>
      <trkpt lat="44.1755" lon="5.27632">
        <ele>1806</ele>
        <time>2020-07-11T09:47:03.597Z</time>
      </trkpt>
      <trkpt lat="44.17563" lon="5.27636">
        <ele>1805</ele>
        <time>2020-07-11T09:47:04.597Z</time>
      </trkpt>
      <trkpt lat="44.17575" lon="5.2764">
        <ele>1804</ele>
        <time>2020-07-11T09:47:05.596Z</time>
      </trkpt>
      <trkpt lat="44.17587" lon="5.27646">
        <ele>1802</ele>
        <time>2020-07-11T09:47:06.596Z</time>
      </trkpt>
      <trkpt lat="44.17598" lon="5.27652">
        <ele>1801</ele>
        <time>2020-07-11T09:47:07.596Z</time>
      </trkpt>
      <trkpt lat="44.1761" lon="5.27659">
        <ele>1799</ele>
        <time>2020-07-11T09:47:08.596Z</time>
      </trkpt>
      <trkpt lat="44.17621" lon="5.27666">
        <ele>1798</ele>
        <time>2020-07-11T09:47:09.597Z</time>
      </trkpt>
      <trkpt lat="44.17631" lon="5.27673">
        <ele>1796</ele>
        <time>2020-07-11T09:47:10.597Z</time>
      </trkpt>
      <trkpt lat="44.17641" lon="5.27681">
        <ele>1795</ele>
        <time>2020-07-11T09:47:11.597Z</time>
      </trkpt>
      <trkpt lat="44.17653" lon="5.27693">
        <ele>1793</ele>
        <time>2020-07-11T09:47:12.597Z</time>
      </trkpt>
      <trkpt lat="44.17661" lon="5.27702">
        <ele>1792</ele>
        <time>2020-07-11T09:47:13.597Z</time>
      </trkpt>
      <trkpt lat="44.17668" lon="5.27714">
        <ele>1791</ele>
        <time>2020-07-11T09:47:14.597Z</time>
      </trkpt>
      <trkpt lat="44.17675" lon="5.27726">
        <ele>1790</ele>
        <time>2020-07-11T09:47:15.597Z</time>
      </trkpt>
      <trkpt lat="44.17682" lon="5.27739">
        <ele>1788</ele>
        <time>2020-07-11T09:47:16.596Z</time>
      </trkpt>
      <trkpt lat="44.17687" lon="5.27753">
        <ele>1786</ele>
        <time>2020-07-11T09:47:17.597Z</time>
      </trkpt>
      <trkpt lat="44.17692" lon="5.27766">
        <ele>1785</ele>
        <time>2020-07-11T09:47:18.597Z</time>
      </trkpt>
      <trkpt lat="44.17698" lon="5.2778">
        <ele>1783</ele>
        <time>2020-07-11T09:47:19.596Z</time>
      </trkpt>
      <trkpt lat="44.17703" lon="5.27794">
        <ele>1783</ele>
        <time>2020-07-11T09:47:20.597Z</time>
      </trkpt>
      <trkpt lat="44.1771" lon="5.27811">
        <ele>1782</ele>
        <time>2020-07-11T09:47:21.597Z</time>
      </trkpt>
      <trkpt lat="44.17714" lon="5.27822">
        <ele>1781</ele>
        <time>2020-07-11T09:47:22.597Z</time>
      </trkpt>
      <trkpt lat="44.17719" lon="5.27837">
        <ele>1780</ele>
        <time>2020-07-11T09:47:23.597Z</time>
      </trkpt>
      <trkpt lat="44.17725" lon="5.27852">
        <ele>1779</ele>
        <time>2020-07-11T09:47:24.596Z</time>
      </trkpt>
      <trkpt lat="44.17729" lon="5.27867">
        <ele>1778</ele>
        <time>2020-07-11T09:47:25.596Z</time>
      </trkpt>
      <trkpt lat="44.17733" lon="5.27883">
        <ele>1776</ele>
        <time>2020-07-11T09:47:26.597Z</time>
      </trkpt>
      <trkpt lat="44.17736" lon="5.27898">
        <ele>1775</ele>
        <time>2020-07-11T09:47:27.597Z</time>
      </trkpt>
      <trkpt lat="44.1774" lon="5.27915">
        <ele>1774</ele>
        <time>2020-07-11T09:47:28.596Z</time>
      </trkpt>
      <trkpt lat="44.17742" lon="5.27931">
        <ele>1773</ele>
        <time>2020-07-11T09:47:29.597Z</time>
      </trkpt>
      <trkpt lat="44.17745" lon="5.27947">
        <ele>1772</ele>
        <time>2020-07-11T09:47:30.597Z</time>
      </trkpt>
      <trkpt lat="44.17746" lon="5.27963">
        <ele>1771</ele>
        <time>2020-07-11T09:47:31.597Z</time>
      </trkpt>
      <trkpt lat="44.17748" lon="5.27977">
        <ele>1770</ele>
        <time>2020-07-11T09:47:32.597Z</time>
      </trkpt>
      <trkpt lat="44.17747" lon="5.27991">
        <ele>1769</ele>
        <time>2020-07-11T09:47:33.597Z</time>
      </trkpt>
      <trkpt lat="44.17746" lon="5.28004">
        <ele>1768</ele>
        <time>2020-07-11T09:47:34.597Z</time>
      </trkpt>
      <trkpt lat="44.17744" lon="5.28016">
        <ele>1767</ele>
        <time>2020-07-11T09:47:35.597Z</time>
      </trkpt>
      <trkpt lat="44.17743" lon="5.28028">
        <ele>1767</ele>
        <time>2020-07-11T09:47:36.597Z</time>
      </trkpt>
      <trkpt lat="44.17743" lon="5.28038">
        <ele>1766</ele>
        <time>2020-07-11T09:47:37.597Z</time>
      </trkpt>
      <trkpt lat="44.17745" lon="5.28047">
        <ele>1765</ele>
        <time>2020-07-11T09:47:38.597Z</time>
      </trkpt>
      <trkpt lat="44.17749" lon="5.28053">
        <ele>1764</ele>
        <time>2020-07-11T09:47:39.597Z</time>
      </trkpt>
      <trkpt lat="44.17754" lon="5.28056">
        <ele>1763</ele>
        <time>2020-07-11T09:47:40.596Z</time>
      </trkpt>
      <trkpt lat="44.17758" lon="5.28054">
        <ele>1762</ele>
        <time>2020-07-11T09:47:41.597Z</time>
      </trkpt>
      <trkpt lat="44.17761" lon="5.28046">
        <ele>1761</ele>
        <time>2020-07-11T09:47:42.597Z</time>
      </trkpt>
      <trkpt lat="44.17763" lon="5.28037">
        <ele>1759</ele>
        <time>2020-07-11T09:47:43.596Z</time>
      </trkpt>
      <trkpt lat="44.17764" lon="5.28026">
        <ele>1758</ele>
        <time>2020-07-11T09:47:44.597Z</time>
      </trkpt>
      <trkpt lat="44.17764" lon="5.28014">
        <ele>1757</ele>
        <time>2020-07-11T09:47:45.596Z</time>
      </trkpt>
      <trkpt lat="44.17766" lon="5.28">
        <ele>1756</ele>
        <time>2020-07-11T09:47:46.597Z</time>
      </trkpt>
      <trkpt lat="44.17767" lon="5.27986">
        <ele>1755</ele>
        <time>2020-07-11T09:47:47.596Z</time>
      </trkpt>
      <trkpt lat="44.17768" lon="5.2797">
        <ele>1753</ele>
        <time>2020-07-11T09:47:48.597Z</time>
      </trkpt>
      <trkpt lat="44.17769" lon="5.27954">
        <ele>1752</ele>
        <time>2020-07-11T09:47:49.597Z</time>
      </trkpt>
      <trkpt lat="44.1777" lon="5.27936">
        <ele>1751</ele>
        <time>2020-07-11T09:47:50.596Z</time>
      </trkpt>
      <trkpt lat="44.17771" lon="5.27919">
        <ele>1750</ele>
        <time>2020-07-11T09:47:51.597Z</time>
      </trkpt>
      <trkpt lat="44.17772" lon="5.279">
        <ele>1748</ele>
        <time>2020-07-11T09:47:52.597Z</time>
      </trkpt>
      <trkpt lat="44.17773" lon="5.2788">
        <ele>1747</ele>
        <time>2020-07-11T09:47:53.597Z</time>
      </trkpt>
      <trkpt lat="44.17774" lon="5.2786">
        <ele>1746</ele>
        <time>2020-07-11T09:47:54.596Z</time>
      </trkpt>
      <trkpt lat="44.17774" lon="5.27838">
        <ele>1745</ele>
        <time>2020-07-11T09:47:55.596Z</time>
      </trkpt>
      <trkpt lat="44.17775" lon="5.2782">
        <ele>1744</ele>
        <time>2020-07-11T09:47:56.597Z</time>
      </trkpt>
      <trkpt lat="44.17776" lon="5.27802">
        <ele>1743</ele>
        <time>2020-07-11T09:47:57.597Z</time>
      </trkpt>
      <trkpt lat="44.17777" lon="5.27783">
        <ele>1743</ele>
        <time>2020-07-11T09:47:58.597Z</time>
      </trkpt>
      <trkpt lat="44.17777" lon="5.27765">
        <ele>1742</ele>
        <time>2020-07-11T09:47:59.597Z</time>
      </trkpt>
      <trkpt lat="44.17778" lon="5.27747">
        <ele>1740</ele>
        <time>2020-07-11T09:48:00.597Z</time>
      </trkpt>
      <trkpt lat="44.17777" lon="5.27728">
        <ele>1739</ele>
        <time>2020-07-11T09:48:01.596Z</time>
      </trkpt>
      <trkpt lat="44.17777" lon="5.27709">
        <ele>1738</ele>
        <time>2020-07-11T09:48:02.597Z</time>
      </trkpt>
      <trkpt lat="44.17776" lon="5.2769">
        <ele>1737</ele>
        <time>2020-07-11T09:48:03.597Z</time>
      </trkpt>
      <trkpt lat="44.17773" lon="5.27671">
        <ele>1735</ele>
        <time>2020-07-11T09:48:04.597Z</time>
      </trkpt>
      <trkpt lat="44.17771" lon="5.27654">
        <ele>1734</ele>
        <time>2020-07-11T09:48:05.597Z</time>
      </trkpt>
      <trkpt lat="44.17768" lon="5.27637">
        <ele>1733</ele>
        <time>2020-07-11T09:48:06.597Z</time>
      </trkpt>
      <trkpt lat="44.17764" lon="5.2762">
        <ele>1732</ele>
        <time>2020-07-11T09:48:07.597Z</time>
      </trkpt>
      <trkpt lat="44.17759" lon="5.27605">
        <ele>1731</ele>
        <time>2020-07-11T09:48:08.597Z</time>
      </trkpt>
      <trkpt lat="44.17755" lon="5.27589">
        <ele>1730</ele>
        <time>2020-07-11T09:48:09.596Z</time>
      </trkpt>
      <trkpt lat="44.17749" lon="5.27575">
        <ele>1729</ele>
        <time>2020-07-11T09:48:10.597Z</time>
      </trkpt>
      <trkpt lat="44.17743" lon="5.27561">
        <ele>1729</ele>
        <time>2020-07-11T09:48:11.597Z</time>
      </trkpt>
      <trkpt lat="44.17738" lon="5.27546">
        <ele>1728</ele>
        <time>2020-07-11T09:48:12.597Z</time>
      </trkpt>
      <trkpt lat="44.17732" lon="5.27532">
        <ele>1728</ele>
        <time>2020-07-11T09:48:13.597Z</time>
      </trkpt>
      <trkpt lat="44.17725" lon="5.27518">
        <ele>1727</ele>
        <time>2020-07-11T09:48:14.597Z</time>
      </trkpt>
      <trkpt lat="44.17716" lon="5.27505">
        <ele>1726</ele>
        <time>2020-07-11T09:48:15.597Z</time>
      </trkpt>
      <trkpt lat="44.17707" lon="5.27492">
        <ele>1725</ele>
        <time>2020-07-11T09:48:16.597Z</time>
      </trkpt>
      <trkpt lat="44.17699" lon="5.2748">
        <ele>1724</ele>
        <time>2020-07-11T09:48:17.596Z</time>
      </trkpt>
      <trkpt lat="44.1769" lon="5.27469">
        <ele>1723</ele>
        <time>2020-07-11T09:48:18.596Z</time>
      </trkpt>
      <trkpt lat="44.17681" lon="5.27459">
        <ele>1722</ele>
        <time>2020-07-11T09:48:19.597Z</time>
      </trkpt>
      <trkpt lat="44.17672" lon="5.27452">
        <ele>1721</ele>
        <time>2020-07-11T09:48:20.597Z</time>
      </trkpt>
      <trkpt lat="44.1766" lon="5.27445">
        <ele>1720</ele>
        <time>2020-07-11T09:48:21.597Z</time>
      </trkpt>
      <trkpt lat="44.17651" lon="5.27441">
        <ele>1719</ele>
        <time>2020-07-11T09:48:22.597Z</time>
      </trkpt>
      <trkpt lat="44.17639" lon="5.27437">
        <ele>1719</ele>
        <time>2020-07-11T09:48:23.597Z</time>
      </trkpt>
      <trkpt lat="44.17631" lon="5.27435">
        <ele>1718</ele>
        <time>2020-07-11T09:48:24.597Z</time>
      </trkpt>
      <trkpt lat="44.17622" lon="5.2743">
        <ele>1717</ele>
        <time>2020-07-11T09:48:25.597Z</time>
      </trkpt>
      <trkpt lat="44.17614" lon="5.27425">
        <ele>1716</ele>
        <time>2020-07-11T09:48:26.597Z</time>
      </trkpt>
      <trkpt lat="44.17608" lon="5.27415">
        <ele>1714</ele>
        <time>2020-07-11T09:48:27.597Z</time>
      </trkpt>
      <trkpt lat="44.17606" lon="5.27405">
        <ele>1713</ele>
        <time>2020-07-11T09:48:28.597Z</time>
      </trkpt>
      <trkpt lat="44.17607" lon="5.27396">
        <ele>1712</ele>
        <time>2020-07-11T09:48:29.596Z</time>
      </trkpt>
      <trkpt lat="44.17611" lon="5.27385">
        <ele>1710</ele>
        <time>2020-07-11T09:48:30.597Z</time>
      </trkpt>
      <trkpt lat="44.17617" lon="5.27375">
        <ele>1709</ele>
        <time>2020-07-11T09:48:31.597Z</time>
      </trkpt>
      <trkpt lat="44.17623" lon="5.27363">
        <ele>1707</ele>
        <time>2020-07-11T09:48:32.596Z</time>
      </trkpt>
      <trkpt lat="44.17629" lon="5.27351">
        <ele>1706</ele>
        <time>2020-07-11T09:48:33.597Z</time>
      </trkpt>
      <trkpt lat="44.17635" lon="5.27338">
        <ele>1705</ele>
        <time>2020-07-11T09:48:34.597Z</time>
      </trkpt>
      <trkpt lat="44.17644" lon="5.27326">
        <ele>1703</ele>
        <time>2020-07-11T09:48:35.597Z</time>
      </trkpt>
      <trkpt lat="44.17652" lon="5.27314">
        <ele>1701</ele>
        <time>2020-07-11T09:48:36.597Z</time>
      </trkpt>
      <trkpt lat="44.17661" lon="5.27301">
        <ele>1699</ele>
        <time>2020-07-11T09:48:37.597Z</time>
      </trkpt>
      <trkpt lat="44.17671" lon="5.2729">
        <ele>1698</ele>
        <time>2020-07-11T09:48:38.596Z</time>
      </trkpt>
      <trkpt lat="44.1768" lon="5.27279">
        <ele>1696</ele>
        <time>2020-07-11T09:48:39.596Z</time>
      </trkpt>
      <trkpt lat="44.17691" lon="5.2727">
        <ele>1696</ele>
        <time>2020-07-11T09:48:40.597Z</time>
      </trkpt>
      <trkpt lat="44.17701" lon="5.27262">
        <ele>1695</ele>
        <time>2020-07-11T09:48:41.596Z</time>
      </trkpt>
      <trkpt lat="44.17711" lon="5.27254">
        <ele>1694</ele>
        <time>2020-07-11T09:48:42.597Z</time>
      </trkpt>
      <trkpt lat="44.17719" lon="5.27244">
        <ele>1693</ele>
        <time>2020-07-11T09:48:43.597Z</time>
      </trkpt>
      <trkpt lat="44.17725" lon="5.27233">
        <ele>1692</ele>
        <time>2020-07-11T09:48:44.597Z</time>
      </trkpt>
      <trkpt lat="44.17729" lon="5.27219">
        <ele>1691</ele>
        <time>2020-07-11T09:48:45.597Z</time>
      </trkpt>
      <trkpt lat="44.17732" lon="5.27205">
        <ele>1689</ele>
        <time>2020-07-11T09:48:46.596Z</time>
      </trkpt>
      <trkpt lat="44.17735" lon="5.27189">
        <ele>1688</ele>
        <time>2020-07-11T09:48:47.597Z</time>
      </trkpt>
      <trkpt lat="44.17737" lon="5.27173">
        <ele>1687</ele>
        <time>2020-07-11T09:48:48.597Z</time>
      </trkpt>
      <trkpt lat="44.17738" lon="5.27157">
        <ele>1686</ele>
        <time>2020-07-11T09:48:49.596Z</time>
      </trkpt>
      <trkpt lat="44.1774" lon="5.27141">
        <ele>1684</ele>
        <time>2020-07-11T09:48:50.597Z</time>
      </trkpt>
      <trkpt lat="44.17743" lon="5.27125">
        <ele>1683</ele>
        <time>2020-07-11T09:48:51.597Z</time>
      </trkpt>
      <trkpt lat="44.17745" lon="5.27108">
        <ele>1682</ele>
        <time>2020-07-11T09:48:52.597Z</time>
      </trkpt>
      <trkpt lat="44.17748" lon="5.27091">
        <ele>1681</ele>
        <time>2020-07-11T09:48:53.597Z</time>
      </trkpt>
      <trkpt lat="44.17752" lon="5.27075">
        <ele>1680</ele>
        <time>2020-07-11T09:48:54.596Z</time>
      </trkpt>
      <trkpt lat="44.17755" lon="5.27058">
        <ele>1679</ele>
        <time>2020-07-11T09:48:55.596Z</time>
      </trkpt>
      <trkpt lat="44.17758" lon="5.27039">
        <ele>1678</ele>
        <time>2020-07-11T09:48:56.596Z</time>
      </trkpt>
      <trkpt lat="44.17759" lon="5.2702">
        <ele>1678</ele>
        <time>2020-07-11T09:48:57.597Z</time>
      </trkpt>
      <trkpt lat="44.17761" lon="5.27002">
        <ele>1677</ele>
        <time>2020-07-11T09:48:58.597Z</time>
      </trkpt>
      <trkpt lat="44.17763" lon="5.26984">
        <ele>1676</ele>
        <time>2020-07-11T09:48:59.597Z</time>
      </trkpt>
      <trkpt lat="44.17764" lon="5.26966">
        <ele>1675</ele>
        <time>2020-07-11T09:49:00.597Z</time>
      </trkpt>
      <trkpt lat="44.17766" lon="5.26947">
        <ele>1674</ele>
        <time>2020-07-11T09:49:01.596Z</time>
      </trkpt>
      <trkpt lat="44.17768" lon="5.26928">
        <ele>1673</ele>
        <time>2020-07-11T09:49:02.596Z</time>
      </trkpt>
      <trkpt lat="44.17769" lon="5.2691">
        <ele>1672</ele>
        <time>2020-07-11T09:49:03.597Z</time>
      </trkpt>
      <trkpt lat="44.1777" lon="5.26891">
        <ele>1671</ele>
        <time>2020-07-11T09:49:04.596Z</time>
      </trkpt>
      <trkpt lat="44.17772" lon="5.26872">
        <ele>1670</ele>
        <time>2020-07-11T09:49:05.597Z</time>
      </trkpt>
      <trkpt lat="44.17772" lon="5.26854">
        <ele>1668</ele>
        <time>2020-07-11T09:49:06.597Z</time>
      </trkpt>
      <trkpt lat="44.17773" lon="5.26835">
        <ele>1667</ele>
        <time>2020-07-11T09:49:07.597Z</time>
      </trkpt>
      <trkpt lat="44.17773" lon="5.26816">
        <ele>1665</ele>
        <time>2020-07-11T09:49:08.597Z</time>
      </trkpt>
      <trkpt lat="44.17772" lon="5.26798">
        <ele>1663</ele>
        <time>2020-07-11T09:49:09.597Z</time>
      </trkpt>
      <trkpt lat="44.17772" lon="5.26779">
        <ele>1662</ele>
        <time>2020-07-11T09:49:10.597Z</time>
      </trkpt>
      <trkpt lat="44.17771" lon="5.26761">
        <ele>1660</ele>
        <time>2020-07-11T09:49:11.597Z</time>
      </trkpt>
      <trkpt lat="44.17771" lon="5.26743">
        <ele>1659</ele>
        <time>2020-07-11T09:49:12.597Z</time>
      </trkpt>
      <trkpt lat="44.1777" lon="5.26724">
        <ele>1657</ele>
        <time>2020-07-11T09:49:13.596Z</time>
      </trkpt>
      <trkpt lat="44.1777" lon="5.26706">
        <ele>1656</ele>
        <time>2020-07-11T09:49:14.597Z</time>
      </trkpt>
      <trkpt lat="44.17769" lon="5.26688">
        <ele>1654</ele>
        <time>2020-07-11T09:49:15.597Z</time>
      </trkpt>
      <trkpt lat="44.17768" lon="5.26672">
        <ele>1652</ele>
        <time>2020-07-11T09:49:16.597Z</time>
      </trkpt>
      <trkpt lat="44.17768" lon="5.26654">
        <ele>1651</ele>
        <time>2020-07-11T09:49:17.597Z</time>
      </trkpt>
      <trkpt lat="44.17765" lon="5.26634">
        <ele>1650</ele>
        <time>2020-07-11T09:49:18.596Z</time>
      </trkpt>
      <trkpt lat="44.17763" lon="5.26616">
        <ele>1648</ele>
        <time>2020-07-11T09:49:19.597Z</time>
      </trkpt>
      <trkpt lat="44.17761" lon="5.26599">
        <ele>1647</ele>
        <time>2020-07-11T09:49:20.597Z</time>
      </trkpt>
      <trkpt lat="44.17762" lon="5.26583">
        <ele>1646</ele>
        <time>2020-07-11T09:49:21.597Z</time>
      </trkpt>
      <trkpt lat="44.17765" lon="5.26567">
        <ele>1644</ele>
        <time>2020-07-11T09:49:22.596Z</time>
      </trkpt>
      <trkpt lat="44.17769" lon="5.26551">
        <ele>1643</ele>
        <time>2020-07-11T09:49:23.596Z</time>
      </trkpt>
      <trkpt lat="44.17773" lon="5.26535">
        <ele>1642</ele>
        <time>2020-07-11T09:49:24.597Z</time>
      </trkpt>
      <trkpt lat="44.17776" lon="5.26519">
        <ele>1641</ele>
        <time>2020-07-11T09:49:25.597Z</time>
      </trkpt>
      <trkpt lat="44.17779" lon="5.26503">
        <ele>1640</ele>
        <time>2020-07-11T09:49:26.596Z</time>
      </trkpt>
      <trkpt lat="44.17782" lon="5.26486">
        <ele>1639</ele>
        <time>2020-07-11T09:49:27.597Z</time>
      </trkpt>
      <trkpt lat="44.17784" lon="5.26469">
        <ele>1638</ele>
        <time>2020-07-11T09:49:28.597Z</time>
      </trkpt>
      <trkpt lat="44.17786" lon="5.26451">
        <ele>1637</ele>
        <time>2020-07-11T09:49:29.596Z</time>
      </trkpt>
      <trkpt lat="44.17787" lon="5.26434">
        <ele>1636</ele>
        <time>2020-07-11T09:49:30.596Z</time>
      </trkpt>
      <trkpt lat="44.17787" lon="5.26415">
        <ele>1636</ele>
        <time>2020-07-11T09:49:31.597Z</time>
      </trkpt>
      <trkpt lat="44.17787" lon="5.26396">
        <ele>1635</ele>
        <time>2020-07-11T09:49:32.597Z</time>
      </trkpt>
      <trkpt lat="44.17787" lon="5.26378">
        <ele>1634</ele>
        <time>2020-07-11T09:49:33.597Z</time>
      </trkpt>
      <trkpt lat="44.17788" lon="5.26359">
        <ele>1634</ele>
        <time>2020-07-11T09:49:34.597Z</time>
      </trkpt>
      <trkpt lat="44.17788" lon="5.26341">
        <ele>1633</ele>
        <time>2020-07-11T09:49:35.597Z</time>
      </trkpt>
      <trkpt lat="44.17787" lon="5.26322">
        <ele>1632</ele>
        <time>2020-07-11T09:49:36.597Z</time>
      </trkpt>
      <trkpt lat="44.17786" lon="5.26303">
        <ele>1632</ele>
        <time>2020-07-11T09:49:37.597Z</time>
      </trkpt>
      <trkpt lat="44.17786" lon="5.26284">
        <ele>1631</ele>
        <time>2020-07-11T09:49:38.596Z</time>
      </trkpt>
      <trkpt lat="44.17785" lon="5.26264">
        <ele>1630</ele>
        <time>2020-07-11T09:49:39.596Z</time>
      </trkpt>
      <trkpt lat="44.17784" lon="5.26244">
        <ele>1629</ele>
        <time>2020-07-11T09:49:40.597Z</time>
      </trkpt>
      <trkpt lat="44.17784" lon="5.26225">
        <ele>1628</ele>
        <time>2020-07-11T09:49:41.597Z</time>
      </trkpt>
      <trkpt lat="44.17784" lon="5.26206">
        <ele>1627</ele>
        <time>2020-07-11T09:49:42.596Z</time>
      </trkpt>
      <trkpt lat="44.17784" lon="5.26187">
        <ele>1626</ele>
        <time>2020-07-11T09:49:43.597Z</time>
      </trkpt>
      <trkpt lat="44.17785" lon="5.26167">
        <ele>1625</ele>
        <time>2020-07-11T09:49:44.597Z</time>
      </trkpt>
      <trkpt lat="44.17786" lon="5.26146">
        <ele>1624</ele>
        <time>2020-07-11T09:49:45.597Z</time>
      </trkpt>
      <trkpt lat="44.17786" lon="5.26127">
        <ele>1622</ele>
        <time>2020-07-11T09:49:46.597Z</time>
      </trkpt>
      <trkpt lat="44.17787" lon="5.26108">
        <ele>1620</ele>
        <time>2020-07-11T09:49:47.596Z</time>
      </trkpt>
      <trkpt lat="44.17788" lon="5.26089">
        <ele>1619</ele>
        <time>2020-07-11T09:49:48.596Z</time>
      </trkpt>
      <trkpt lat="44.17789" lon="5.2607">
        <ele>1617</ele>
        <time>2020-07-11T09:49:49.597Z</time>
      </trkpt>
      <trkpt lat="44.1779" lon="5.26051">
        <ele>1616</ele>
        <time>2020-07-11T09:49:50.597Z</time>
      </trkpt>
      <trkpt lat="44.1779" lon="5.26032">
        <ele>1615</ele>
        <time>2020-07-11T09:49:51.597Z</time>
      </trkpt>
      <trkpt lat="44.1779" lon="5.26014">
        <ele>1614</ele>
        <time>2020-07-11T09:49:52.597Z</time>
      </trkpt>
      <trkpt lat="44.1779" lon="5.25995">
        <ele>1612</ele>
        <time>2020-07-11T09:49:53.596Z</time>
      </trkpt>
      <trkpt lat="44.17789" lon="5.25976">
        <ele>1611</ele>
        <time>2020-07-11T09:49:54.596Z</time>
      </trkpt>
      <trkpt lat="44.17787" lon="5.25957">
        <ele>1609</ele>
        <time>2020-07-11T09:49:55.597Z</time>
      </trkpt>
      <trkpt lat="44.17784" lon="5.2594">
        <ele>1608</ele>
        <time>2020-07-11T09:49:56.597Z</time>
      </trkpt>
      <trkpt lat="44.17781" lon="5.25926">
        <ele>1607</ele>
        <time>2020-07-11T09:49:57.597Z</time>
      </trkpt>
      <trkpt lat="44.17777" lon="5.25911">
        <ele>1606</ele>
        <time>2020-07-11T09:49:58.597Z</time>
      </trkpt>
      <trkpt lat="44.17774" lon="5.25895">
        <ele>1605</ele>
        <time>2020-07-11T09:49:59.596Z</time>
      </trkpt>
      <trkpt lat="44.17774" lon="5.25879">
        <ele>1604</ele>
        <time>2020-07-11T09:50:00.597Z</time>
      </trkpt>
      <trkpt lat="44.17778" lon="5.25865">
        <ele>1602</ele>
        <time>2020-07-11T09:50:01.597Z</time>
      </trkpt>
      <trkpt lat="44.17783" lon="5.2585">
        <ele>1601</ele>
        <time>2020-07-11T09:50:02.596Z</time>
      </trkpt>
      <trkpt lat="44.17788" lon="5.25835">
        <ele>1600</ele>
        <time>2020-07-11T09:50:03.597Z</time>
      </trkpt>
      <trkpt lat="44.17793" lon="5.25818">
        <ele>1598</ele>
        <time>2020-07-11T09:50:04.597Z</time>
      </trkpt>
      <trkpt lat="44.17796" lon="5.25802">
        <ele>1597</ele>
        <time>2020-07-11T09:50:05.597Z</time>
      </trkpt>
      <trkpt lat="44.17798" lon="5.25785">
        <ele>1595</ele>
        <time>2020-07-11T09:50:06.597Z</time>
      </trkpt>
      <trkpt lat="44.178" lon="5.25768">
        <ele>1594</ele>
        <time>2020-07-11T09:50:07.597Z</time>
      </trkpt>
      <trkpt lat="44.178" lon="5.25751">
        <ele>1593</ele>
        <time>2020-07-11T09:50:08.597Z</time>
      </trkpt>
      <trkpt lat="44.17801" lon="5.25734">
        <ele>1592</ele>
        <time>2020-07-11T09:50:09.596Z</time>
      </trkpt>
      <trkpt lat="44.17801" lon="5.25716">
        <ele>1591</ele>
        <time>2020-07-11T09:50:10.597Z</time>
      </trkpt>
      <trkpt lat="44.178" lon="5.25699">
        <ele>1590</ele>
        <time>2020-07-11T09:50:11.597Z</time>
      </trkpt>
      <trkpt lat="44.178" lon="5.25682">
        <ele>1588</ele>
        <time>2020-07-11T09:50:12.597Z</time>
      </trkpt>
      <trkpt lat="44.17799" lon="5.25665">
        <ele>1587</ele>
        <time>2020-07-11T09:50:13.596Z</time>
      </trkpt>
      <trkpt lat="44.17798" lon="5.25647">
        <ele>1586</ele>
        <time>2020-07-11T09:50:14.597Z</time>
      </trkpt>
      <trkpt lat="44.17796" lon="5.2563">
        <ele>1585</ele>
        <time>2020-07-11T09:50:15.597Z</time>
      </trkpt>
      <trkpt lat="44.17792" lon="5.25613">
        <ele>1584</ele>
        <time>2020-07-11T09:50:16.596Z</time>
      </trkpt>
      <trkpt lat="44.17788" lon="5.25596">
        <ele>1584</ele>
        <time>2020-07-11T09:50:17.597Z</time>
      </trkpt>
      <trkpt lat="44.17783" lon="5.2558">
        <ele>1583</ele>
        <time>2020-07-11T09:50:18.597Z</time>
      </trkpt>
      <trkpt lat="44.17777" lon="5.25564">
        <ele>1583</ele>
        <time>2020-07-11T09:50:19.597Z</time>
      </trkpt>
      <trkpt lat="44.17772" lon="5.25548">
        <ele>1582</ele>
        <time>2020-07-11T09:50:20.597Z</time>
      </trkpt>
      <trkpt lat="44.17769" lon="5.25532">
        <ele>1582</ele>
        <time>2020-07-11T09:50:21.597Z</time>
      </trkpt>
      <trkpt lat="44.17768" lon="5.25513">
        <ele>1582</ele>
        <time>2020-07-11T09:50:22.597Z</time>
      </trkpt>
      <trkpt lat="44.1777" lon="5.25499">
        <ele>1581</ele>
        <time>2020-07-11T09:50:23.596Z</time>
      </trkpt>
      <trkpt lat="44.17773" lon="5.25483">
        <ele>1579</ele>
        <time>2020-07-11T09:50:24.597Z</time>
      </trkpt>
      <trkpt lat="44.17776" lon="5.25463">
        <ele>1578</ele>
        <time>2020-07-11T09:50:25.596Z</time>
      </trkpt>
      <trkpt lat="44.17778" lon="5.2545">
        <ele>1577</ele>
        <time>2020-07-11T09:50:26.597Z</time>
      </trkpt>
      <trkpt lat="44.17779" lon="5.25434">
        <ele>1576</ele>
        <time>2020-07-11T09:50:27.597Z</time>
      </trkpt>
      <trkpt lat="44.17779" lon="5.25417">
        <ele>1575</ele>
        <time>2020-07-11T09:50:28.597Z</time>
      </trkpt>
      <trkpt lat="44.17778" lon="5.254">
        <ele>1574</ele>
        <time>2020-07-11T09:50:29.596Z</time>
      </trkpt>
      <trkpt lat="44.17777" lon="5.25383">
        <ele>1573</ele>
        <time>2020-07-11T09:50:30.597Z</time>
      </trkpt>
      <trkpt lat="44.17776" lon="5.25367">
        <ele>1572</ele>
        <time>2020-07-11T09:50:31.597Z</time>
      </trkpt>
      <trkpt lat="44.17775" lon="5.25351">
        <ele>1572</ele>
        <time>2020-07-11T09:50:32.597Z</time>
      </trkpt>
      <trkpt lat="44.17773" lon="5.25335">
        <ele>1571</ele>
        <time>2020-07-11T09:50:33.597Z</time>
      </trkpt>
      <trkpt lat="44.17772" lon="5.25319">
        <ele>1571</ele>
        <time>2020-07-11T09:50:34.597Z</time>
      </trkpt>
      <trkpt lat="44.1777" lon="5.25303">
        <ele>1570</ele>
        <time>2020-07-11T09:50:35.597Z</time>
      </trkpt>
      <trkpt lat="44.17769" lon="5.25286">
        <ele>1570</ele>
        <time>2020-07-11T09:50:36.596Z</time>
      </trkpt>
      <trkpt lat="44.17767" lon="5.25267">
        <ele>1569</ele>
        <time>2020-07-11T09:50:37.596Z</time>
      </trkpt>
      <trkpt lat="44.17766" lon="5.2525">
        <ele>1568</ele>
        <time>2020-07-11T09:50:38.597Z</time>
      </trkpt>
      <trkpt lat="44.17764" lon="5.25234">
        <ele>1567</ele>
        <time>2020-07-11T09:50:39.597Z</time>
      </trkpt>
      <trkpt lat="44.17763" lon="5.25217">
        <ele>1566</ele>
        <time>2020-07-11T09:50:40.596Z</time>
      </trkpt>
      <trkpt lat="44.17762" lon="5.252">
        <ele>1565</ele>
        <time>2020-07-11T09:50:41.597Z</time>
      </trkpt>
      <trkpt lat="44.17761" lon="5.25183">
        <ele>1564</ele>
        <time>2020-07-11T09:50:42.597Z</time>
      </trkpt>
      <trkpt lat="44.17761" lon="5.25166">
        <ele>1564</ele>
        <time>2020-07-11T09:50:43.597Z</time>
      </trkpt>
      <trkpt lat="44.1776" lon="5.25148">
        <ele>1563</ele>
        <time>2020-07-11T09:50:44.597Z</time>
      </trkpt>
      <trkpt lat="44.17759" lon="5.25131">
        <ele>1561</ele>
        <time>2020-07-11T09:50:45.596Z</time>
      </trkpt>
      <trkpt lat="44.17758" lon="5.25114">
        <ele>1560</ele>
        <time>2020-07-11T09:50:46.597Z</time>
      </trkpt>
      <trkpt lat="44.17757" lon="5.25096">
        <ele>1559</ele>
        <time>2020-07-11T09:50:47.597Z</time>
      </trkpt>
      <trkpt lat="44.17755" lon="5.25079">
        <ele>1559</ele>
        <time>2020-07-11T09:50:48.597Z</time>
      </trkpt>
      <trkpt lat="44.17755" lon="5.25062">
        <ele>1558</ele>
        <time>2020-07-11T09:50:49.597Z</time>
      </trkpt>
      <trkpt lat="44.17752" lon="5.25045">
        <ele>1557</ele>
        <time>2020-07-11T09:50:50.597Z</time>
      </trkpt>
      <trkpt lat="44.1775" lon="5.25028">
        <ele>1557</ele>
        <time>2020-07-11T09:50:51.597Z</time>
      </trkpt>
      <trkpt lat="44.17748" lon="5.2501">
        <ele>1556</ele>
        <time>2020-07-11T09:50:52.597Z</time>
      </trkpt>
      <trkpt lat="44.17746" lon="5.24991">
        <ele>1556</ele>
        <time>2020-07-11T09:50:53.597Z</time>
      </trkpt>
      <trkpt lat="44.17743" lon="5.24973">
        <ele>1556</ele>
        <time>2020-07-11T09:50:54.597Z</time>
      </trkpt>
      <trkpt lat="44.17738" lon="5.24954">
        <ele>1556</ele>
        <time>2020-07-11T09:50:55.597Z</time>
      </trkpt>
      <trkpt lat="44.17734" lon="5.24935">
        <ele>1556</ele>
        <time>2020-07-11T09:50:56.597Z</time>
      </trkpt>
      <trkpt lat="44.17731" lon="5.24918">
        <ele>1555</ele>
        <time>2020-07-11T09:50:57.597Z</time>
      </trkpt>
      <trkpt lat="44.17728" lon="5.24901">
        <ele>1555</ele>
        <time>2020-07-11T09:50:58.596Z</time>
      </trkpt>
      <trkpt lat="44.17724" lon="5.24885">
        <ele>1554</ele>
        <time>2020-07-11T09:50:59.597Z</time>
      </trkpt>
      <trkpt lat="44.1772" lon="5.2487">
        <ele>1554</ele>
        <time>2020-07-11T09:51:00.596Z</time>
      </trkpt>
      <trkpt lat="44.17716" lon="5.24854">
        <ele>1553</ele>
        <time>2020-07-11T09:51:01.597Z</time>
      </trkpt>
      <trkpt lat="44.17712" lon="5.24839">
        <ele>1552</ele>
        <time>2020-07-11T09:51:02.597Z</time>
      </trkpt>
      <trkpt lat="44.17708" lon="5.24822">
        <ele>1551</ele>
        <time>2020-07-11T09:51:03.596Z</time>
      </trkpt>
      <trkpt lat="44.17703" lon="5.24805">
        <ele>1550</ele>
        <time>2020-07-11T09:51:04.597Z</time>
      </trkpt>
      <trkpt lat="44.17699" lon="5.2479">
        <ele>1549</ele>
        <time>2020-07-11T09:51:05.597Z</time>
      </trkpt>
      <trkpt lat="44.17695" lon="5.24774">
        <ele>1548</ele>
        <time>2020-07-11T09:51:06.596Z</time>
      </trkpt>
      <trkpt lat="44.1769" lon="5.24758">
        <ele>1547</ele>
        <time>2020-07-11T09:51:07.597Z</time>
      </trkpt>
      <trkpt lat="44.17686" lon="5.24743">
        <ele>1547</ele>
        <time>2020-07-11T09:51:08.597Z</time>
      </trkpt>
      <trkpt lat="44.17681" lon="5.24728">
        <ele>1546</ele>
        <time>2020-07-11T09:51:09.597Z</time>
      </trkpt>
      <trkpt lat="44.17677" lon="5.24715">
        <ele>1546</ele>
        <time>2020-07-11T09:51:10.597Z</time>
      </trkpt>
      <trkpt lat="44.17672" lon="5.24703">
        <ele>1546</ele>
        <time>2020-07-11T09:51:11.597Z</time>
      </trkpt>
      <trkpt lat="44.17667" lon="5.24693">
        <ele>1545</ele>
        <time>2020-07-11T09:51:12.597Z</time>
      </trkpt>
      <trkpt lat="44.17661" lon="5.24684">
        <ele>1544</ele>
        <time>2020-07-11T09:51:13.597Z</time>
      </trkpt>
      <trkpt lat="44.17657" lon="5.24675">
        <ele>1544</ele>
        <time>2020-07-11T09:51:14.597Z</time>
      </trkpt>
      <trkpt lat="44.17655" lon="5.24667">
        <ele>1543</ele>
        <time>2020-07-11T09:51:15.597Z</time>
      </trkpt>
      <trkpt lat="44.17656" lon="5.2466">
        <ele>1542</ele>
        <time>2020-07-11T09:51:16.596Z</time>
      </trkpt>
      <trkpt lat="44.17659" lon="5.24656">
        <ele>1541</ele>
        <time>2020-07-11T09:51:17.597Z</time>
      </trkpt>
      <trkpt lat="44.17666" lon="5.24662">
        <ele>1540</ele>
        <time>2020-07-11T09:51:18.597Z</time>
      </trkpt>
      <trkpt lat="44.1767" lon="5.24667">
        <ele>1540</ele>
        <time>2020-07-11T09:51:19.597Z</time>
      </trkpt>
      <trkpt lat="44.17674" lon="5.24675">
        <ele>1539</ele>
        <time>2020-07-11T09:51:20.596Z</time>
      </trkpt>
      <trkpt lat="44.17678" lon="5.24685">
        <ele>1539</ele>
        <time>2020-07-11T09:51:21.596Z</time>
      </trkpt>
      <trkpt lat="44.17682" lon="5.24695">
        <ele>1538</ele>
        <time>2020-07-11T09:51:22.596Z</time>
      </trkpt>
      <trkpt lat="44.17687" lon="5.24705">
        <ele>1537</ele>
        <time>2020-07-11T09:51:23.597Z</time>
      </trkpt>
      <trkpt lat="44.17693" lon="5.24716">
        <ele>1536</ele>
        <time>2020-07-11T09:51:24.597Z</time>
      </trkpt>
      <trkpt lat="44.17699" lon="5.24727">
        <ele>1535</ele>
        <time>2020-07-11T09:51:25.596Z</time>
      </trkpt>
      <trkpt lat="44.17707" lon="5.24738">
        <ele>1534</ele>
        <time>2020-07-11T09:51:26.596Z</time>
      </trkpt>
      <trkpt lat="44.17715" lon="5.2475">
        <ele>1533</ele>
        <time>2020-07-11T09:51:27.596Z</time>
      </trkpt>
      <trkpt lat="44.17723" lon="5.24762">
        <ele>1532</ele>
        <time>2020-07-11T09:51:28.597Z</time>
      </trkpt>
      <trkpt lat="44.17732" lon="5.24776">
        <ele>1531</ele>
        <time>2020-07-11T09:51:29.596Z</time>
      </trkpt>
      <trkpt lat="44.17741" lon="5.24789">
        <ele>1530</ele>
        <time>2020-07-11T09:51:30.597Z</time>
      </trkpt>
      <trkpt lat="44.1775" lon="5.24804">
        <ele>1529</ele>
        <time>2020-07-11T09:51:31.597Z</time>
      </trkpt>
      <trkpt lat="44.17759" lon="5.24818">
        <ele>1528</ele>
        <time>2020-07-11T09:51:32.597Z</time>
      </trkpt>
      <trkpt lat="44.17768" lon="5.24833">
        <ele>1527</ele>
        <time>2020-07-11T09:51:33.597Z</time>
      </trkpt>
      <trkpt lat="44.17778" lon="5.24847">
        <ele>1526</ele>
        <time>2020-07-11T09:51:34.597Z</time>
      </trkpt>
      <trkpt lat="44.17787" lon="5.24862">
        <ele>1525</ele>
        <time>2020-07-11T09:51:35.597Z</time>
      </trkpt>
      <trkpt lat="44.17797" lon="5.24877">
        <ele>1524</ele>
        <time>2020-07-11T09:51:36.597Z</time>
      </trkpt>
      <trkpt lat="44.17807" lon="5.24892">
        <ele>1524</ele>
        <time>2020-07-11T09:51:37.597Z</time>
      </trkpt>
      <trkpt lat="44.17818" lon="5.24907">
        <ele>1523</ele>
        <time>2020-07-11T09:51:38.597Z</time>
      </trkpt>
      <trkpt lat="44.17828" lon="5.24922">
        <ele>1522</ele>
        <time>2020-07-11T09:51:39.597Z</time>
      </trkpt>
      <trkpt lat="44.17837" lon="5.24938">
        <ele>1521</ele>
        <time>2020-07-11T09:51:40.597Z</time>
      </trkpt>
      <trkpt lat="44.17845" lon="5.24952">
        <ele>1520</ele>
        <time>2020-07-11T09:51:41.597Z</time>
      </trkpt>
      <trkpt lat="44.17851" lon="5.24967">
        <ele>1519</ele>
        <time>2020-07-11T09:51:42.596Z</time>
      </trkpt>
      <trkpt lat="44.17857" lon="5.24981">
        <ele>1518</ele>
        <time>2020-07-11T09:51:43.596Z</time>
      </trkpt>
      <trkpt lat="44.17864" lon="5.24996">
        <ele>1517</ele>
        <time>2020-07-11T09:51:44.596Z</time>
      </trkpt>
      <trkpt lat="44.1787" lon="5.25013">
        <ele>1515</ele>
        <time>2020-07-11T09:51:45.596Z</time>
      </trkpt>
      <trkpt lat="44.17877" lon="5.25029">
        <ele>1513</ele>
        <time>2020-07-11T09:51:46.597Z</time>
      </trkpt>
      <trkpt lat="44.17883" lon="5.25043">
        <ele>1511</ele>
        <time>2020-07-11T09:51:47.596Z</time>
      </trkpt>
      <trkpt lat="44.17889" lon="5.25057">
        <ele>1509</ele>
        <time>2020-07-11T09:51:48.597Z</time>
      </trkpt>
      <trkpt lat="44.17894" lon="5.25071">
        <ele>1508</ele>
        <time>2020-07-11T09:51:49.597Z</time>
      </trkpt>
      <trkpt lat="44.17899" lon="5.25086">
        <ele>1506</ele>
        <time>2020-07-11T09:51:50.597Z</time>
      </trkpt>
      <trkpt lat="44.17903" lon="5.25101">
        <ele>1504</ele>
        <time>2020-07-11T09:51:51.597Z</time>
      </trkpt>
      <trkpt lat="44.17904" lon="5.25117">
        <ele>1502</ele>
        <time>2020-07-11T09:51:52.597Z</time>
      </trkpt>
      <trkpt lat="44.17904" lon="5.25133">
        <ele>1501</ele>
        <time>2020-07-11T09:51:53.597Z</time>
      </trkpt>
      <trkpt lat="44.17903" lon="5.25148">
        <ele>1500</ele>
        <time>2020-07-11T09:51:54.597Z</time>
      </trkpt>
      <trkpt lat="44.17899" lon="5.25164">
        <ele>1499</ele>
        <time>2020-07-11T09:51:55.597Z</time>
      </trkpt>
      <trkpt lat="44.17895" lon="5.2518">
        <ele>1497</ele>
        <time>2020-07-11T09:51:56.596Z</time>
      </trkpt>
      <trkpt lat="44.17894" lon="5.25195">
        <ele>1496</ele>
        <time>2020-07-11T09:51:57.596Z</time>
      </trkpt>
      <trkpt lat="44.17894" lon="5.2521">
        <ele>1495</ele>
        <time>2020-07-11T09:51:58.596Z</time>
      </trkpt>
      <trkpt lat="44.17897" lon="5.25224">
        <ele>1493</ele>
        <time>2020-07-11T09:51:59.597Z</time>
      </trkpt>
      <trkpt lat="44.17901" lon="5.25239">
        <ele>1492</ele>
        <time>2020-07-11T09:52:00.597Z</time>
      </trkpt>
      <trkpt lat="44.17906" lon="5.25254">
        <ele>1491</ele>
        <time>2020-07-11T09:52:01.597Z</time>
      </trkpt>
      <trkpt lat="44.1791" lon="5.2527">
        <ele>1489</ele>
        <time>2020-07-11T09:52:02.596Z</time>
      </trkpt>
      <trkpt lat="44.17915" lon="5.25287">
        <ele>1487</ele>
        <time>2020-07-11T09:52:03.597Z</time>
      </trkpt>
      <trkpt lat="44.17919" lon="5.25304">
        <ele>1486</ele>
        <time>2020-07-11T09:52:04.596Z</time>
      </trkpt>
      <trkpt lat="44.17923" lon="5.25322">
        <ele>1484</ele>
        <time>2020-07-11T09:52:05.597Z</time>
      </trkpt>
      <trkpt lat="44.17926" lon="5.25339">
        <ele>1482</ele>
        <time>2020-07-11T09:52:06.597Z</time>
      </trkpt>
      <trkpt lat="44.17931" lon="5.25357">
        <ele>1481</ele>
        <time>2020-07-11T09:52:07.597Z</time>
      </trkpt>
      <trkpt lat="44.17936" lon="5.25375">
        <ele>1480</ele>
        <time>2020-07-11T09:52:08.596Z</time>
      </trkpt>
      <trkpt lat="44.17942" lon="5.25393">
        <ele>1479</ele>
        <time>2020-07-11T09:52:09.597Z</time>
      </trkpt>
      <trkpt lat="44.17948" lon="5.2541">
        <ele>1477</ele>
        <time>2020-07-11T09:52:10.597Z</time>
      </trkpt>
      <trkpt lat="44.17954" lon="5.25428">
        <ele>1476</ele>
        <time>2020-07-11T09:52:11.596Z</time>
      </trkpt>
      <trkpt lat="44.17959" lon="5.25445">
        <ele>1475</ele>
        <time>2020-07-11T09:52:12.597Z</time>
      </trkpt>
      <trkpt lat="44.17962" lon="5.25463">
        <ele>1473</ele>
        <time>2020-07-11T09:52:13.596Z</time>
      </trkpt>
      <trkpt lat="44.17967" lon="5.2548">
        <ele>1472</ele>
        <time>2020-07-11T09:52:14.597Z</time>
      </trkpt>
      <trkpt lat="44.17973" lon="5.25495">
        <ele>1470</ele>
        <time>2020-07-11T09:52:15.597Z</time>
      </trkpt>
      <trkpt lat="44.17981" lon="5.25509">
        <ele>1469</ele>
        <time>2020-07-11T09:52:16.597Z</time>
      </trkpt>
      <trkpt lat="44.17992" lon="5.25521">
        <ele>1467</ele>
        <time>2020-07-11T09:52:17.596Z</time>
      </trkpt>
      <trkpt lat="44.18002" lon="5.25531">
        <ele>1466</ele>
        <time>2020-07-11T09:52:18.596Z</time>
      </trkpt>
      <trkpt lat="44.18014" lon="5.25538">
        <ele>1465</ele>
        <time>2020-07-11T09:52:19.597Z</time>
      </trkpt>
      <trkpt lat="44.18026" lon="5.25546">
        <ele>1464</ele>
        <time>2020-07-11T09:52:20.596Z</time>
      </trkpt>
      <trkpt lat="44.18038" lon="5.25555">
        <ele>1463</ele>
        <time>2020-07-11T09:52:21.596Z</time>
      </trkpt>
      <trkpt lat="44.18049" lon="5.25564">
        <ele>1461</ele>
        <time>2020-07-11T09:52:22.596Z</time>
      </trkpt>
      <trkpt lat="44.1806" lon="5.25573">
        <ele>1460</ele>
        <time>2020-07-11T09:52:23.597Z</time>
      </trkpt>
      <trkpt lat="44.1807" lon="5.25584">
        <ele>1458</ele>
        <time>2020-07-11T09:52:24.597Z</time>
      </trkpt>
      <trkpt lat="44.18078" lon="5.25596">
        <ele>1457</ele>
        <time>2020-07-11T09:52:25.597Z</time>
      </trkpt>
      <trkpt lat="44.18085" lon="5.2561">
        <ele>1455</ele>
        <time>2020-07-11T09:52:26.597Z</time>
      </trkpt>
      <trkpt lat="44.18089" lon="5.25625">
        <ele>1453</ele>
        <time>2020-07-11T09:52:27.597Z</time>
      </trkpt>
      <trkpt lat="44.18092" lon="5.25641">
        <ele>1452</ele>
        <time>2020-07-11T09:52:28.597Z</time>
      </trkpt>
      <trkpt lat="44.18094" lon="5.25656">
        <ele>1450</ele>
        <time>2020-07-11T09:52:29.597Z</time>
      </trkpt>
      <trkpt lat="44.18094" lon="5.2567">
        <ele>1449</ele>
        <time>2020-07-11T09:52:30.597Z</time>
      </trkpt>
      <trkpt lat="44.18094" lon="5.25684">
        <ele>1448</ele>
        <time>2020-07-11T09:52:31.597Z</time>
      </trkpt>
      <trkpt lat="44.18094" lon="5.25697">
        <ele>1447</ele>
        <time>2020-07-11T09:52:32.597Z</time>
      </trkpt>
      <trkpt lat="44.18094" lon="5.2571">
        <ele>1446</ele>
        <time>2020-07-11T09:52:33.597Z</time>
      </trkpt>
      <trkpt lat="44.18094" lon="5.25721">
        <ele>1445</ele>
        <time>2020-07-11T09:52:34.597Z</time>
      </trkpt>
      <trkpt lat="44.18094" lon="5.25732">
        <ele>1445</ele>
        <time>2020-07-11T09:52:35.597Z</time>
      </trkpt>
      <trkpt lat="44.18093" lon="5.25743">
        <ele>1444</ele>
        <time>2020-07-11T09:52:36.597Z</time>
      </trkpt>
      <trkpt lat="44.18093" lon="5.25753">
        <ele>1444</ele>
        <time>2020-07-11T09:52:37.596Z</time>
      </trkpt>
      <trkpt lat="44.18093" lon="5.25763">
        <ele>1444</ele>
        <time>2020-07-11T09:52:38.597Z</time>
      </trkpt>
      <trkpt lat="44.18093" lon="5.25774">
        <ele>1444</ele>
        <time>2020-07-11T09:52:39.597Z</time>
      </trkpt>
      <trkpt lat="44.18093" lon="5.25784">
        <ele>1444</ele>
        <time>2020-07-11T09:52:40.596Z</time>
      </trkpt>
      <trkpt lat="44.18094" lon="5.25794">
        <ele>1444</ele>
        <time>2020-07-11T09:52:41.597Z</time>
      </trkpt>
      <trkpt lat="44.18093" lon="5.25803">
        <ele>1443</ele>
        <time>2020-07-11T09:52:42.596Z</time>
      </trkpt>
      <trkpt lat="44.18093" lon="5.25813">
        <ele>1443</ele>
        <time>2020-07-11T09:52:43.596Z</time>
      </trkpt>
      <trkpt lat="44.18093" lon="5.25821">
        <ele>1443</ele>
        <time>2020-07-11T09:52:44.596Z</time>
      </trkpt>
      <trkpt lat="44.18094" lon="5.25828">
        <ele>1443</ele>
        <time>2020-07-11T09:52:45.597Z</time>
      </trkpt>
      <trkpt lat="44.18095" lon="5.25836">
        <ele>1442</ele>
        <time>2020-07-11T09:52:46.596Z</time>
      </trkpt>
      <trkpt lat="44.18096" lon="5.25842">
        <ele>1442</ele>
        <time>2020-07-11T09:52:47.597Z</time>
      </trkpt>
      <trkpt lat="44.18098" lon="5.25847">
        <ele>1441</ele>
        <time>2020-07-11T09:52:48.596Z</time>
      </trkpt>
      <trkpt lat="44.18099" lon="5.25851">
        <ele>1441</ele>
        <time>2020-07-11T09:52:49.597Z</time>
      </trkpt>
      <trkpt lat="44.181" lon="5.25854">
        <ele>1441</ele>
        <time>2020-07-11T09:52:50.597Z</time>
      </trkpt>
      <trkpt lat="44.18103" lon="5.25856">
        <ele>1441</ele>
        <time>2020-07-11T09:52:51.597Z</time>
      </trkpt>
      <trkpt lat="44.18105" lon="5.25856">
        <ele>1441</ele>
        <time>2020-07-11T09:52:52.597Z</time>
      </trkpt>
      <trkpt lat="44.18109" lon="5.25855">
        <ele>1440</ele>
        <time>2020-07-11T09:52:53.597Z</time>
      </trkpt>
      <trkpt lat="44.18112" lon="5.25851">
        <ele>1440</ele>
        <time>2020-07-11T09:52:54.596Z</time>
      </trkpt>
      <trkpt lat="44.18114" lon="5.25846">
        <ele>1440</ele>
        <time>2020-07-11T09:52:55.596Z</time>
      </trkpt>
      <trkpt lat="44.18116" lon="5.2584">
        <ele>1439</ele>
        <time>2020-07-11T09:52:56.597Z</time>
      </trkpt>
      <trkpt lat="44.18117" lon="5.25832">
        <ele>1439</ele>
        <time>2020-07-11T09:52:57.597Z</time>
      </trkpt>
      <trkpt lat="44.18118" lon="5.25823">
        <ele>1439</ele>
        <time>2020-07-11T09:52:58.597Z</time>
      </trkpt>
      <trkpt lat="44.18119" lon="5.25814">
        <ele>1439</ele>
        <time>2020-07-11T09:52:59.596Z</time>
      </trkpt>
      <trkpt lat="44.18119" lon="5.25805">
        <ele>1439</ele>
        <time>2020-07-11T09:53:00.597Z</time>
      </trkpt>
      <trkpt lat="44.18119" lon="5.25797">
        <ele>1439</ele>
        <time>2020-07-11T09:53:01.597Z</time>
      </trkpt>
      <trkpt lat="44.1812" lon="5.25789">
        <ele>1438</ele>
        <time>2020-07-11T09:53:02.597Z</time>
      </trkpt>
      <trkpt lat="44.18121" lon="5.25783">
        <ele>1438</ele>
        <time>2020-07-11T09:53:03.597Z</time>
      </trkpt>
      <trkpt lat="44.18121" lon="5.25778">
        <ele>1437</ele>
        <time>2020-07-11T09:53:04.597Z</time>
      </trkpt>
      <trkpt lat="44.18122" lon="5.25772">
        <ele>1437</ele>
        <time>2020-07-11T09:53:05.596Z</time>
      </trkpt>
      <trkpt lat="44.18123" lon="5.25767">
        <ele>1436</ele>
        <time>2020-07-11T09:53:06.597Z</time>
      </trkpt>
      <trkpt lat="44.18123" lon="5.25764">
        <ele>1436</ele>
        <time>2020-07-11T09:53:07.597Z</time>
      </trkpt>
      <trkpt lat="44.18122" lon="5.25763">
        <ele>1435</ele>
        <time>2020-07-11T09:53:08.597Z</time>
      </trkpt>
      <trkpt lat="44.18122" lon="5.25762">
        <ele>1435</ele>
        <time>2020-07-11T09:53:09.596Z</time>
      </trkpt>
      <trkpt lat="44.18122" lon="5.25763">
        <ele>1434</ele>
        <time>2020-07-11T09:53:10.597Z</time>
      </trkpt>
      <trkpt lat="44.18122" lon="5.25763">
        <ele>1434</ele>
        <time>2020-07-11T09:53:11.597Z</time>
      </trkpt>
      <trkpt lat="44.18118" lon="5.25749">
        <ele>1439</ele>
        <time>2020-07-11T09:53:12.596Z</time>
      </trkpt>
      <trkpt lat="44.18118" lon="5.25744">
        <ele>1438</ele>
        <time>2020-07-11T09:53:13.597Z</time>
      </trkpt>
      <trkpt lat="44.18118" lon="5.25739">
        <ele>1438</ele>
        <time>2020-07-11T09:53:14.596Z</time>
      </trkpt>
      <trkpt lat="44.18118" lon="5.25733">
        <ele>1438</ele>
        <time>2020-07-11T09:53:15.597Z</time>
      </trkpt>
      <trkpt lat="44.18117" lon="5.25724">
        <ele>1437</ele>
        <time>2020-07-11T09:53:16.597Z</time>
      </trkpt>
      <trkpt lat="44.18116" lon="5.25716">
        <ele>1437</ele>
        <time>2020-07-11T09:53:17.596Z</time>
      </trkpt>
      <trkpt lat="44.18115" lon="5.25708">
        <ele>1436</ele>
        <time>2020-07-11T09:53:18.597Z</time>
      </trkpt>
      <trkpt lat="44.18114" lon="5.257">
        <ele>1436</ele>
        <time>2020-07-11T09:53:19.597Z</time>
      </trkpt>
      <trkpt lat="44.18114" lon="5.25689">
        <ele>1435</ele>
        <time>2020-07-11T09:53:20.597Z</time>
      </trkpt>
      <trkpt lat="44.18114" lon="5.25679">
        <ele>1435</ele>
        <time>2020-07-11T09:53:21.597Z</time>
      </trkpt>
      <trkpt lat="44.18114" lon="5.25669">
        <ele>1435</ele>
        <time>2020-07-11T09:53:22.597Z</time>
      </trkpt>
      <trkpt lat="44.18113" lon="5.25659">
        <ele>1435</ele>
        <time>2020-07-11T09:53:23.597Z</time>
      </trkpt>
      <trkpt lat="44.18113" lon="5.25648">
        <ele>1434</ele>
        <time>2020-07-11T09:53:24.597Z</time>
      </trkpt>
      <trkpt lat="44.18112" lon="5.25637">
        <ele>1433</ele>
        <time>2020-07-11T09:53:25.597Z</time>
      </trkpt>
      <trkpt lat="44.18112" lon="5.25625">
        <ele>1433</ele>
        <time>2020-07-11T09:53:26.597Z</time>
      </trkpt>
      <trkpt lat="44.18112" lon="5.25614">
        <ele>1432</ele>
        <time>2020-07-11T09:53:27.597Z</time>
      </trkpt>
      <trkpt lat="44.18111" lon="5.25601">
        <ele>1431</ele>
        <time>2020-07-11T09:53:28.597Z</time>
      </trkpt>
      <trkpt lat="44.1811" lon="5.25589">
        <ele>1430</ele>
        <time>2020-07-11T09:53:29.597Z</time>
      </trkpt>
      <trkpt lat="44.1811" lon="5.25577">
        <ele>1429</ele>
        <time>2020-07-11T09:53:30.597Z</time>
      </trkpt>
      <trkpt lat="44.18109" lon="5.25567">
        <ele>1428</ele>
        <time>2020-07-11T09:53:31.597Z</time>
      </trkpt>
      <trkpt lat="44.18107" lon="5.25554">
        <ele>1428</ele>
        <time>2020-07-11T09:53:32.596Z</time>
      </trkpt>
      <trkpt lat="44.18106" lon="5.25544">
        <ele>1428</ele>
        <time>2020-07-11T09:53:33.597Z</time>
      </trkpt>
      <trkpt lat="44.18106" lon="5.25535">
        <ele>1428</ele>
        <time>2020-07-11T09:53:34.597Z</time>
      </trkpt>
      <trkpt lat="44.18105" lon="5.25526">
        <ele>1427</ele>
        <time>2020-07-11T09:53:35.597Z</time>
      </trkpt>
      <trkpt lat="44.18103" lon="5.25518">
        <ele>1427</ele>
        <time>2020-07-11T09:53:36.597Z</time>
      </trkpt>
      <trkpt lat="44.18101" lon="5.25509">
        <ele>1427</ele>
        <time>2020-07-11T09:53:37.597Z</time>
      </trkpt>
      <trkpt lat="44.18097" lon="5.255">
        <ele>1426</ele>
        <time>2020-07-11T09:53:38.597Z</time>
      </trkpt>
      <trkpt lat="44.18092" lon="5.25493">
        <ele>1426</ele>
        <time>2020-07-11T09:53:39.597Z</time>
      </trkpt>
      <trkpt lat="44.18087" lon="5.25488">
        <ele>1426</ele>
        <time>2020-07-11T09:53:40.597Z</time>
      </trkpt>
      <trkpt lat="44.18081" lon="5.25484">
        <ele>1425</ele>
        <time>2020-07-11T09:53:41.597Z</time>
      </trkpt>
      <trkpt lat="44.18075" lon="5.25481">
        <ele>1425</ele>
        <time>2020-07-11T09:53:42.597Z</time>
      </trkpt>
      <trkpt lat="44.18066" lon="5.25479">
        <ele>1424</ele>
        <time>2020-07-11T09:53:43.597Z</time>
      </trkpt>
      <trkpt lat="44.1806" lon="5.25477">
        <ele>1424</ele>
        <time>2020-07-11T09:53:44.596Z</time>
      </trkpt>
      <trkpt lat="44.18052" lon="5.25474">
        <ele>1424</ele>
        <time>2020-07-11T09:53:45.596Z</time>
      </trkpt>
      <trkpt lat="44.18045" lon="5.25472">
        <ele>1424</ele>
        <time>2020-07-11T09:53:46.597Z</time>
      </trkpt>
      <trkpt lat="44.18037" lon="5.25467">
        <ele>1424</ele>
        <time>2020-07-11T09:53:47.596Z</time>
      </trkpt>
      <trkpt lat="44.1803" lon="5.25463">
        <ele>1425</ele>
        <time>2020-07-11T09:53:48.597Z</time>
      </trkpt>
      <trkpt lat="44.18024" lon="5.25457">
        <ele>1425</ele>
        <time>2020-07-11T09:53:49.596Z</time>
      </trkpt>
      <trkpt lat="44.18018" lon="5.25449">
        <ele>1425</ele>
        <time>2020-07-11T09:53:50.597Z</time>
      </trkpt>
      <trkpt lat="44.18014" lon="5.25441">
        <ele>1425</ele>
        <time>2020-07-11T09:53:51.597Z</time>
      </trkpt>
      <trkpt lat="44.18009" lon="5.25432">
        <ele>1425</ele>
        <time>2020-07-11T09:53:52.597Z</time>
      </trkpt>
      <trkpt lat="44.18006" lon="5.25423">
        <ele>1425</ele>
        <time>2020-07-11T09:53:53.597Z</time>
      </trkpt>
      <trkpt lat="44.18003" lon="5.25414">
        <ele>1426</ele>
        <time>2020-07-11T09:53:54.597Z</time>
      </trkpt>
      <trkpt lat="44.18" lon="5.25404">
        <ele>1426</ele>
        <time>2020-07-11T09:53:55.597Z</time>
      </trkpt>
      <trkpt lat="44.17998" lon="5.25395">
        <ele>1427</ele>
        <time>2020-07-11T09:53:56.597Z</time>
      </trkpt>
      <trkpt lat="44.17996" lon="5.25386">
        <ele>1427</ele>
        <time>2020-07-11T09:53:57.597Z</time>
      </trkpt>
      <trkpt lat="44.17993" lon="5.25376">
        <ele>1428</ele>
        <time>2020-07-11T09:53:58.597Z</time>
      </trkpt>
      <trkpt lat="44.1799" lon="5.25365">
        <ele>1428</ele>
        <time>2020-07-11T09:53:59.597Z</time>
      </trkpt>
      <trkpt lat="44.17987" lon="5.25355">
        <ele>1428</ele>
        <time>2020-07-11T09:54:00.597Z</time>
      </trkpt>
      <trkpt lat="44.17984" lon="5.25346">
        <ele>1428</ele>
        <time>2020-07-11T09:54:01.597Z</time>
      </trkpt>
      <trkpt lat="44.17982" lon="5.25337">
        <ele>1428</ele>
        <time>2020-07-11T09:54:02.597Z</time>
      </trkpt>
      <trkpt lat="44.1798" lon="5.25329">
        <ele>1428</ele>
        <time>2020-07-11T09:54:03.597Z</time>
      </trkpt>
      <trkpt lat="44.17979" lon="5.25319">
        <ele>1428</ele>
        <time>2020-07-11T09:54:04.597Z</time>
      </trkpt>
      <trkpt lat="44.17978" lon="5.25309">
        <ele>1427</ele>
        <time>2020-07-11T09:54:05.597Z</time>
      </trkpt>
      <trkpt lat="44.17978" lon="5.25299">
        <ele>1427</ele>
        <time>2020-07-11T09:54:06.597Z</time>
      </trkpt>
      <trkpt lat="44.17978" lon="5.25289">
        <ele>1426</ele>
        <time>2020-07-11T09:54:07.597Z</time>
      </trkpt>
      <trkpt lat="44.17978" lon="5.25279">
        <ele>1426</ele>
        <time>2020-07-11T09:54:08.597Z</time>
      </trkpt>
      <trkpt lat="44.17979" lon="5.25268">
        <ele>1425</ele>
        <time>2020-07-11T09:54:09.597Z</time>
      </trkpt>
      <trkpt lat="44.1798" lon="5.25258">
        <ele>1425</ele>
        <time>2020-07-11T09:54:10.597Z</time>
      </trkpt>
      <trkpt lat="44.17981" lon="5.2525">
        <ele>1425</ele>
        <time>2020-07-11T09:54:11.597Z</time>
      </trkpt>
      <trkpt lat="44.17981" lon="5.25237">
        <ele>1424</ele>
        <time>2020-07-11T09:54:12.597Z</time>
      </trkpt>
      <trkpt lat="44.17982" lon="5.25226">
        <ele>1424</ele>
        <time>2020-07-11T09:54:13.597Z</time>
      </trkpt>
      <trkpt lat="44.17985" lon="5.25215">
        <ele>1424</ele>
        <time>2020-07-11T09:54:14.597Z</time>
      </trkpt>
      <trkpt lat="44.17988" lon="5.25204">
        <ele>1423</ele>
        <time>2020-07-11T09:54:15.597Z</time>
      </trkpt>
      <trkpt lat="44.17993" lon="5.25194">
        <ele>1423</ele>
        <time>2020-07-11T09:54:16.597Z</time>
      </trkpt>
      <trkpt lat="44.17998" lon="5.25188">
        <ele>1423</ele>
        <time>2020-07-11T09:54:17.597Z</time>
      </trkpt>
      <trkpt lat="44.18006" lon="5.25179">
        <ele>1423</ele>
        <time>2020-07-11T09:54:18.597Z</time>
      </trkpt>
      <trkpt lat="44.18013" lon="5.25172">
        <ele>1423</ele>
        <time>2020-07-11T09:54:19.597Z</time>
      </trkpt>
      <trkpt lat="44.1802" lon="5.25165">
        <ele>1423</ele>
        <time>2020-07-11T09:54:20.596Z</time>
      </trkpt>
      <trkpt lat="44.18026" lon="5.25157">
        <ele>1423</ele>
        <time>2020-07-11T09:54:21.596Z</time>
      </trkpt>
      <trkpt lat="44.18031" lon="5.25148">
        <ele>1423</ele>
        <time>2020-07-11T09:54:22.597Z</time>
      </trkpt>
      <trkpt lat="44.18036" lon="5.25137">
        <ele>1423</ele>
        <time>2020-07-11T09:54:23.597Z</time>
      </trkpt>
      <trkpt lat="44.18039" lon="5.25126">
        <ele>1423</ele>
        <time>2020-07-11T09:54:24.597Z</time>
      </trkpt>
      <trkpt lat="44.18041" lon="5.25113">
        <ele>1423</ele>
        <time>2020-07-11T09:54:25.597Z</time>
      </trkpt>
      <trkpt lat="44.18042" lon="5.25101">
        <ele>1422</ele>
        <time>2020-07-11T09:54:26.596Z</time>
      </trkpt>
      <trkpt lat="44.18043" lon="5.25088">
        <ele>1422</ele>
        <time>2020-07-11T09:54:27.596Z</time>
      </trkpt>
      <trkpt lat="44.18043" lon="5.25074">
        <ele>1421</ele>
        <time>2020-07-11T09:54:28.597Z</time>
      </trkpt>
      <trkpt lat="44.18044" lon="5.25062">
        <ele>1421</ele>
        <time>2020-07-11T09:54:29.597Z</time>
      </trkpt>
      <trkpt lat="44.18045" lon="5.2505">
        <ele>1420</ele>
        <time>2020-07-11T09:54:30.597Z</time>
      </trkpt>
      <trkpt lat="44.18045" lon="5.2504">
        <ele>1419</ele>
        <time>2020-07-11T09:54:31.597Z</time>
      </trkpt>
      <trkpt lat="44.18046" lon="5.25024">
        <ele>1418</ele>
        <time>2020-07-11T09:54:32.597Z</time>
      </trkpt>
      <trkpt lat="44.18048" lon="5.25011">
        <ele>1418</ele>
        <time>2020-07-11T09:54:33.597Z</time>
      </trkpt>
      <trkpt lat="44.1805" lon="5.24998">
        <ele>1418</ele>
        <time>2020-07-11T09:54:34.597Z</time>
      </trkpt>
      <trkpt lat="44.18052" lon="5.24986">
        <ele>1417</ele>
        <time>2020-07-11T09:54:35.597Z</time>
      </trkpt>
      <trkpt lat="44.18054" lon="5.24974">
        <ele>1417</ele>
        <time>2020-07-11T09:54:36.597Z</time>
      </trkpt>
      <trkpt lat="44.18055" lon="5.24961">
        <ele>1416</ele>
        <time>2020-07-11T09:54:37.597Z</time>
      </trkpt>
      <trkpt lat="44.18055" lon="5.24948">
        <ele>1416</ele>
        <time>2020-07-11T09:54:38.596Z</time>
      </trkpt>
      <trkpt lat="44.18054" lon="5.24935">
        <ele>1416</ele>
        <time>2020-07-11T09:54:39.596Z</time>
      </trkpt>
      <trkpt lat="44.18054" lon="5.24921">
        <ele>1415</ele>
        <time>2020-07-11T09:54:40.597Z</time>
      </trkpt>
      <trkpt lat="44.18053" lon="5.24911">
        <ele>1415</ele>
        <time>2020-07-11T09:54:41.597Z</time>
      </trkpt>
      <trkpt lat="44.1805" lon="5.24895">
        <ele>1414</ele>
        <time>2020-07-11T09:54:42.597Z</time>
      </trkpt>
      <trkpt lat="44.18049" lon="5.24882">
        <ele>1413</ele>
        <time>2020-07-11T09:54:43.597Z</time>
      </trkpt>
      <trkpt lat="44.18046" lon="5.24869">
        <ele>1413</ele>
        <time>2020-07-11T09:54:44.596Z</time>
      </trkpt>
      <trkpt lat="44.18044" lon="5.24856">
        <ele>1413</ele>
        <time>2020-07-11T09:54:45.596Z</time>
      </trkpt>
      <trkpt lat="44.1804" lon="5.24843">
        <ele>1413</ele>
        <time>2020-07-11T09:54:46.597Z</time>
      </trkpt>
      <trkpt lat="44.18037" lon="5.24829">
        <ele>1413</ele>
        <time>2020-07-11T09:54:47.597Z</time>
      </trkpt>
      <trkpt lat="44.18033" lon="5.24816">
        <ele>1412</ele>
        <time>2020-07-11T09:54:48.597Z</time>
      </trkpt>
      <trkpt lat="44.18029" lon="5.24803">
        <ele>1411</ele>
        <time>2020-07-11T09:54:49.597Z</time>
      </trkpt>
      <trkpt lat="44.18024" lon="5.24791">
        <ele>1410</ele>
        <time>2020-07-11T09:54:50.597Z</time>
      </trkpt>
      <trkpt lat="44.18019" lon="5.24778">
        <ele>1409</ele>
        <time>2020-07-11T09:54:51.597Z</time>
      </trkpt>
      <trkpt lat="44.18014" lon="5.24765">
        <ele>1409</ele>
        <time>2020-07-11T09:54:52.597Z</time>
      </trkpt>
      <trkpt lat="44.18009" lon="5.24753">
        <ele>1408</ele>
        <time>2020-07-11T09:54:53.597Z</time>
      </trkpt>
      <trkpt lat="44.18003" lon="5.24741">
        <ele>1408</ele>
        <time>2020-07-11T09:54:54.597Z</time>
      </trkpt>
      <trkpt lat="44.17996" lon="5.24729">
        <ele>1408</ele>
        <time>2020-07-11T09:54:55.597Z</time>
      </trkpt>
      <trkpt lat="44.1799" lon="5.24717">
        <ele>1408</ele>
        <time>2020-07-11T09:54:56.597Z</time>
      </trkpt>
      <trkpt lat="44.17983" lon="5.24705">
        <ele>1406</ele>
        <time>2020-07-11T09:54:57.597Z</time>
      </trkpt>
      <trkpt lat="44.17975" lon="5.24693">
        <ele>1405</ele>
        <time>2020-07-11T09:54:58.597Z</time>
      </trkpt>
      <trkpt lat="44.17968" lon="5.2468">
        <ele>1405</ele>
        <time>2020-07-11T09:54:59.596Z</time>
      </trkpt>
      <trkpt lat="44.1796" lon="5.24668">
        <ele>1404</ele>
        <time>2020-07-11T09:55:00.596Z</time>
      </trkpt>
      <trkpt lat="44.17951" lon="5.24655">
        <ele>1404</ele>
        <time>2020-07-11T09:55:01.597Z</time>
      </trkpt>
      <trkpt lat="44.17942" lon="5.24642">
        <ele>1404</ele>
        <time>2020-07-11T09:55:02.596Z</time>
      </trkpt>
      <trkpt lat="44.17932" lon="5.2463">
        <ele>1403</ele>
        <time>2020-07-11T09:55:03.597Z</time>
      </trkpt>
      <trkpt lat="44.17923" lon="5.24618">
        <ele>1402</ele>
        <time>2020-07-11T09:55:04.596Z</time>
      </trkpt>
      <trkpt lat="44.17912" lon="5.24607">
        <ele>1401</ele>
        <time>2020-07-11T09:55:05.597Z</time>
      </trkpt>
      <trkpt lat="44.17901" lon="5.24595">
        <ele>1400</ele>
        <time>2020-07-11T09:55:06.597Z</time>
      </trkpt>
      <trkpt lat="44.1789" lon="5.24585">
        <ele>1399</ele>
        <time>2020-07-11T09:55:07.597Z</time>
      </trkpt>
      <trkpt lat="44.17878" lon="5.24575">
        <ele>1398</ele>
        <time>2020-07-11T09:55:08.597Z</time>
      </trkpt>
      <trkpt lat="44.17868" lon="5.24565">
        <ele>1397</ele>
        <time>2020-07-11T09:55:09.597Z</time>
      </trkpt>
      <trkpt lat="44.17858" lon="5.24553">
        <ele>1396</ele>
        <time>2020-07-11T09:55:10.596Z</time>
      </trkpt>
      <trkpt lat="44.17851" lon="5.24541">
        <ele>1395</ele>
        <time>2020-07-11T09:55:11.597Z</time>
      </trkpt>
      <trkpt lat="44.17846" lon="5.24528">
        <ele>1394</ele>
        <time>2020-07-11T09:55:12.597Z</time>
      </trkpt>
      <trkpt lat="44.17843" lon="5.24514">
        <ele>1393</ele>
        <time>2020-07-11T09:55:13.596Z</time>
      </trkpt>
      <trkpt lat="44.17841" lon="5.24498">
        <ele>1392</ele>
        <time>2020-07-11T09:55:14.597Z</time>
      </trkpt>
      <trkpt lat="44.1784" lon="5.24483">
        <ele>1391</ele>
        <time>2020-07-11T09:55:15.597Z</time>
      </trkpt>
      <trkpt lat="44.1784" lon="5.24466">
        <ele>1391</ele>
        <time>2020-07-11T09:55:16.597Z</time>
      </trkpt>
      <trkpt lat="44.1784" lon="5.2445">
        <ele>1391</ele>
        <time>2020-07-11T09:55:17.597Z</time>
      </trkpt>
      <trkpt lat="44.17838" lon="5.24434">
        <ele>1391</ele>
        <time>2020-07-11T09:55:18.596Z</time>
      </trkpt>
      <trkpt lat="44.17837" lon="5.24418">
        <ele>1391</ele>
        <time>2020-07-11T09:55:19.596Z</time>
      </trkpt>
      <trkpt lat="44.17835" lon="5.24402">
        <ele>1391</ele>
        <time>2020-07-11T09:55:20.597Z</time>
      </trkpt>
      <trkpt lat="44.17833" lon="5.24386">
        <ele>1390</ele>
        <time>2020-07-11T09:55:21.596Z</time>
      </trkpt>
      <trkpt lat="44.1783" lon="5.24371">
        <ele>1390</ele>
        <time>2020-07-11T09:55:22.597Z</time>
      </trkpt>
      <trkpt lat="44.17826" lon="5.24355">
        <ele>1390</ele>
        <time>2020-07-11T09:55:23.597Z</time>
      </trkpt>
      <trkpt lat="44.17822" lon="5.2434">
        <ele>1389</ele>
        <time>2020-07-11T09:55:24.597Z</time>
      </trkpt>
      <trkpt lat="44.17817" lon="5.24324">
        <ele>1388</ele>
        <time>2020-07-11T09:55:25.597Z</time>
      </trkpt>
      <trkpt lat="44.17811" lon="5.24309">
        <ele>1387</ele>
        <time>2020-07-11T09:55:26.597Z</time>
      </trkpt>
      <trkpt lat="44.17806" lon="5.24295">
        <ele>1386</ele>
        <time>2020-07-11T09:55:27.596Z</time>
      </trkpt>
      <trkpt lat="44.178" lon="5.24281">
        <ele>1386</ele>
        <time>2020-07-11T09:55:28.597Z</time>
      </trkpt>
      <trkpt lat="44.17794" lon="5.24266">
        <ele>1385</ele>
        <time>2020-07-11T09:55:29.597Z</time>
      </trkpt>
      <trkpt lat="44.17788" lon="5.24251">
        <ele>1384</ele>
        <time>2020-07-11T09:55:30.597Z</time>
      </trkpt>
      <trkpt lat="44.17782" lon="5.24235">
        <ele>1384</ele>
        <time>2020-07-11T09:55:31.597Z</time>
      </trkpt>
      <trkpt lat="44.17774" lon="5.24218">
        <ele>1383</ele>
        <time>2020-07-11T09:55:32.597Z</time>
      </trkpt>
      <trkpt lat="44.17766" lon="5.24205">
        <ele>1382</ele>
        <time>2020-07-11T09:55:33.597Z</time>
      </trkpt>
      <trkpt lat="44.17757" lon="5.24192">
        <ele>1382</ele>
        <time>2020-07-11T09:55:34.596Z</time>
      </trkpt>
      <trkpt lat="44.17749" lon="5.24178">
        <ele>1381</ele>
        <time>2020-07-11T09:55:35.596Z</time>
      </trkpt>
      <trkpt lat="44.1774" lon="5.24166">
        <ele>1381</ele>
        <time>2020-07-11T09:55:36.597Z</time>
      </trkpt>
      <trkpt lat="44.17731" lon="5.24154">
        <ele>1379</ele>
        <time>2020-07-11T09:55:37.597Z</time>
      </trkpt>
      <trkpt lat="44.17721" lon="5.24143">
        <ele>1378</ele>
        <time>2020-07-11T09:55:38.597Z</time>
      </trkpt>
      <trkpt lat="44.17711" lon="5.24133">
        <ele>1376</ele>
        <time>2020-07-11T09:55:39.597Z</time>
      </trkpt>
      <trkpt lat="44.177" lon="5.24124">
        <ele>1374</ele>
        <time>2020-07-11T09:55:40.597Z</time>
      </trkpt>
      <trkpt lat="44.17691" lon="5.24115">
        <ele>1373</ele>
        <time>2020-07-11T09:55:41.597Z</time>
      </trkpt>
      <trkpt lat="44.17681" lon="5.24107">
        <ele>1372</ele>
        <time>2020-07-11T09:55:42.596Z</time>
      </trkpt>
      <trkpt lat="44.17672" lon="5.24099">
        <ele>1371</ele>
        <time>2020-07-11T09:55:43.597Z</time>
      </trkpt>
      <trkpt lat="44.17663" lon="5.24091">
        <ele>1370</ele>
        <time>2020-07-11T09:55:44.597Z</time>
      </trkpt>
      <trkpt lat="44.17654" lon="5.24082">
        <ele>1369</ele>
        <time>2020-07-11T09:55:45.597Z</time>
      </trkpt>
      <trkpt lat="44.17647" lon="5.24072">
        <ele>1369</ele>
        <time>2020-07-11T09:55:46.597Z</time>
      </trkpt>
      <trkpt lat="44.17642" lon="5.24059">
        <ele>1368</ele>
        <time>2020-07-11T09:55:47.597Z</time>
      </trkpt>
      <trkpt lat="44.17639" lon="5.24046">
        <ele>1368</ele>
        <time>2020-07-11T09:55:48.597Z</time>
      </trkpt>
      <trkpt lat="44.17639" lon="5.24031">
        <ele>1367</ele>
        <time>2020-07-11T09:55:49.597Z</time>
      </trkpt>
      <trkpt lat="44.1764" lon="5.24016">
        <ele>1367</ele>
        <time>2020-07-11T09:55:50.597Z</time>
      </trkpt>
      <trkpt lat="44.17642" lon="5.24001">
        <ele>1367</ele>
        <time>2020-07-11T09:55:51.597Z</time>
      </trkpt>
      <trkpt lat="44.17646" lon="5.23985">
        <ele>1367</ele>
        <time>2020-07-11T09:55:52.596Z</time>
      </trkpt>
      <trkpt lat="44.17651" lon="5.2397">
        <ele>1366</ele>
        <time>2020-07-11T09:55:53.597Z</time>
      </trkpt>
      <trkpt lat="44.17657" lon="5.23955">
        <ele>1365</ele>
        <time>2020-07-11T09:55:54.597Z</time>
      </trkpt>
      <trkpt lat="44.17666" lon="5.23941">
        <ele>1365</ele>
        <time>2020-07-11T09:55:55.597Z</time>
      </trkpt>
      <trkpt lat="44.17672" lon="5.23926">
        <ele>1364</ele>
        <time>2020-07-11T09:55:56.597Z</time>
      </trkpt>
      <trkpt lat="44.17679" lon="5.23913">
        <ele>1363</ele>
        <time>2020-07-11T09:55:57.597Z</time>
      </trkpt>
      <trkpt lat="44.17684" lon="5.23899">
        <ele>1362</ele>
        <time>2020-07-11T09:55:58.596Z</time>
      </trkpt>
      <trkpt lat="44.17688" lon="5.23886">
        <ele>1360</ele>
        <time>2020-07-11T09:55:59.597Z</time>
      </trkpt>
      <trkpt lat="44.17691" lon="5.23872">
        <ele>1359</ele>
        <time>2020-07-11T09:56:00.596Z</time>
      </trkpt>
      <trkpt lat="44.17692" lon="5.23857">
        <ele>1359</ele>
        <time>2020-07-11T09:56:01.596Z</time>
      </trkpt>
      <trkpt lat="44.17691" lon="5.23842">
        <ele>1358</ele>
        <time>2020-07-11T09:56:02.596Z</time>
      </trkpt>
      <trkpt lat="44.17687" lon="5.23827">
        <ele>1358</ele>
        <time>2020-07-11T09:56:03.596Z</time>
      </trkpt>
      <trkpt lat="44.17682" lon="5.23811">
        <ele>1358</ele>
        <time>2020-07-11T09:56:04.596Z</time>
      </trkpt>
      <trkpt lat="44.17676" lon="5.23796">
        <ele>1358</ele>
        <time>2020-07-11T09:56:05.597Z</time>
      </trkpt>
      <trkpt lat="44.17668" lon="5.23781">
        <ele>1358</ele>
        <time>2020-07-11T09:56:06.597Z</time>
      </trkpt>
      <trkpt lat="44.17661" lon="5.23765">
        <ele>1359</ele>
        <time>2020-07-11T09:56:07.597Z</time>
      </trkpt>
      <trkpt lat="44.17654" lon="5.2375">
        <ele>1359</ele>
        <time>2020-07-11T09:56:08.597Z</time>
      </trkpt>
      <trkpt lat="44.17647" lon="5.23735">
        <ele>1359</ele>
        <time>2020-07-11T09:56:09.597Z</time>
      </trkpt>
      <trkpt lat="44.17638" lon="5.23719">
        <ele>1358</ele>
        <time>2020-07-11T09:56:10.597Z</time>
      </trkpt>
      <trkpt lat="44.1763" lon="5.23704">
        <ele>1358</ele>
        <time>2020-07-11T09:56:11.596Z</time>
      </trkpt>
      <trkpt lat="44.17621" lon="5.23689">
        <ele>1357</ele>
        <time>2020-07-11T09:56:12.597Z</time>
      </trkpt>
      <trkpt lat="44.17612" lon="5.23676">
        <ele>1356</ele>
        <time>2020-07-11T09:56:13.597Z</time>
      </trkpt>
      <trkpt lat="44.17603" lon="5.23663">
        <ele>1355</ele>
        <time>2020-07-11T09:56:14.596Z</time>
      </trkpt>
      <trkpt lat="44.17594" lon="5.23651">
        <ele>1353</ele>
        <time>2020-07-11T09:56:15.597Z</time>
      </trkpt>
      <trkpt lat="44.17585" lon="5.23639">
        <ele>1352</ele>
        <time>2020-07-11T09:56:16.597Z</time>
      </trkpt>
      <trkpt lat="44.17575" lon="5.23627">
        <ele>1351</ele>
        <time>2020-07-11T09:56:17.597Z</time>
      </trkpt>
      <trkpt lat="44.17567" lon="5.23613">
        <ele>1349</ele>
        <time>2020-07-11T09:56:18.597Z</time>
      </trkpt>
      <trkpt lat="44.17559" lon="5.23599">
        <ele>1348</ele>
        <time>2020-07-11T09:56:19.597Z</time>
      </trkpt>
      <trkpt lat="44.17551" lon="5.23585">
        <ele>1346</ele>
        <time>2020-07-11T09:56:20.596Z</time>
      </trkpt>
      <trkpt lat="44.17546" lon="5.23571">
        <ele>1344</ele>
        <time>2020-07-11T09:56:21.597Z</time>
      </trkpt>
      <trkpt lat="44.17542" lon="5.23555">
        <ele>1343</ele>
        <time>2020-07-11T09:56:22.597Z</time>
      </trkpt>
      <trkpt lat="44.17542" lon="5.23538">
        <ele>1341</ele>
        <time>2020-07-11T09:56:23.597Z</time>
      </trkpt>
      <trkpt lat="44.17544" lon="5.23521">
        <ele>1339</ele>
        <time>2020-07-11T09:56:24.596Z</time>
      </trkpt>
      <trkpt lat="44.17548" lon="5.23504">
        <ele>1337</ele>
        <time>2020-07-11T09:56:25.597Z</time>
      </trkpt>
      <trkpt lat="44.17553" lon="5.23487">
        <ele>1335</ele>
        <time>2020-07-11T09:56:26.597Z</time>
      </trkpt>
      <trkpt lat="44.17559" lon="5.23469">
        <ele>1333</ele>
        <time>2020-07-11T09:56:27.597Z</time>
      </trkpt>
      <trkpt lat="44.17563" lon="5.23451">
        <ele>1332</ele>
        <time>2020-07-11T09:56:28.596Z</time>
      </trkpt>
      <trkpt lat="44.17565" lon="5.23432">
        <ele>1330</ele>
        <time>2020-07-11T09:56:29.597Z</time>
      </trkpt>
      <trkpt lat="44.17566" lon="5.23411">
        <ele>1329</ele>
        <time>2020-07-11T09:56:30.596Z</time>
      </trkpt>
      <trkpt lat="44.17566" lon="5.23392">
        <ele>1328</ele>
        <time>2020-07-11T09:56:31.597Z</time>
      </trkpt>
      <trkpt lat="44.17566" lon="5.23371">
        <ele>1326</ele>
        <time>2020-07-11T09:56:32.597Z</time>
      </trkpt>
      <trkpt lat="44.17565" lon="5.2335">
        <ele>1325</ele>
        <time>2020-07-11T09:56:33.597Z</time>
      </trkpt>
      <trkpt lat="44.17565" lon="5.23329">
        <ele>1324</ele>
        <time>2020-07-11T09:56:34.597Z</time>
      </trkpt>
      <trkpt lat="44.17563" lon="5.23309">
        <ele>1323</ele>
        <time>2020-07-11T09:56:35.596Z</time>
      </trkpt>
      <trkpt lat="44.17561" lon="5.2329">
        <ele>1321</ele>
        <time>2020-07-11T09:56:36.597Z</time>
      </trkpt>
      <trkpt lat="44.17558" lon="5.23272">
        <ele>1320</ele>
        <time>2020-07-11T09:56:37.597Z</time>
      </trkpt>
      <trkpt lat="44.17555" lon="5.23253">
        <ele>1318</ele>
        <time>2020-07-11T09:56:38.597Z</time>
      </trkpt>
      <trkpt lat="44.17551" lon="5.23235">
        <ele>1317</ele>
        <time>2020-07-11T09:56:39.596Z</time>
      </trkpt>
      <trkpt lat="44.17547" lon="5.23216">
        <ele>1315</ele>
        <time>2020-07-11T09:56:40.597Z</time>
      </trkpt>
      <trkpt lat="44.17543" lon="5.23199">
        <ele>1312</ele>
        <time>2020-07-11T09:56:41.597Z</time>
      </trkpt>
      <trkpt lat="44.17539" lon="5.23182">
        <ele>1310</ele>
        <time>2020-07-11T09:56:42.597Z</time>
      </trkpt>
      <trkpt lat="44.17535" lon="5.23165">
        <ele>1307</ele>
        <time>2020-07-11T09:56:43.596Z</time>
      </trkpt>
      <trkpt lat="44.17529" lon="5.23148">
        <ele>1305</ele>
        <time>2020-07-11T09:56:44.597Z</time>
      </trkpt>
      <trkpt lat="44.17522" lon="5.23132">
        <ele>1302</ele>
        <time>2020-07-11T09:56:45.597Z</time>
      </trkpt>
      <trkpt lat="44.17516" lon="5.23115">
        <ele>1300</ele>
        <time>2020-07-11T09:56:46.597Z</time>
      </trkpt>
      <trkpt lat="44.17511" lon="5.23099">
        <ele>1297</ele>
        <time>2020-07-11T09:56:47.597Z</time>
      </trkpt>
      <trkpt lat="44.17505" lon="5.23083">
        <ele>1295</ele>
        <time>2020-07-11T09:56:48.597Z</time>
      </trkpt>
      <trkpt lat="44.17498" lon="5.23066">
        <ele>1293</ele>
        <time>2020-07-11T09:56:49.597Z</time>
      </trkpt>
      <trkpt lat="44.1749" lon="5.23051">
        <ele>1292</ele>
        <time>2020-07-11T09:56:50.597Z</time>
      </trkpt>
      <trkpt lat="44.17482" lon="5.23036">
        <ele>1290</ele>
        <time>2020-07-11T09:56:51.597Z</time>
      </trkpt>
      <trkpt lat="44.17473" lon="5.23021">
        <ele>1288</ele>
        <time>2020-07-11T09:56:52.596Z</time>
      </trkpt>
      <trkpt lat="44.17465" lon="5.23005">
        <ele>1286</ele>
        <time>2020-07-11T09:56:53.596Z</time>
      </trkpt>
      <trkpt lat="44.17457" lon="5.22991">
        <ele>1284</ele>
        <time>2020-07-11T09:56:54.596Z</time>
      </trkpt>
      <trkpt lat="44.17449" lon="5.22976">
        <ele>1282</ele>
        <time>2020-07-11T09:56:55.596Z</time>
      </trkpt>
      <trkpt lat="44.17441" lon="5.22961">
        <ele>1281</ele>
        <time>2020-07-11T09:56:56.596Z</time>
      </trkpt>
      <trkpt lat="44.17433" lon="5.22946">
        <ele>1279</ele>
        <time>2020-07-11T09:56:57.596Z</time>
      </trkpt>
      <trkpt lat="44.17425" lon="5.22931">
        <ele>1278</ele>
        <time>2020-07-11T09:56:58.596Z</time>
      </trkpt>
      <trkpt lat="44.17418" lon="5.22916">
        <ele>1276</ele>
        <time>2020-07-11T09:56:59.596Z</time>
      </trkpt>
      <trkpt lat="44.1741" lon="5.22899">
        <ele>1274</ele>
        <time>2020-07-11T09:57:00.596Z</time>
      </trkpt>
      <trkpt lat="44.17403" lon="5.22883">
        <ele>1272</ele>
        <time>2020-07-11T09:57:01.597Z</time>
      </trkpt>
      <trkpt lat="44.17396" lon="5.22868">
        <ele>1271</ele>
        <time>2020-07-11T09:57:02.597Z</time>
      </trkpt>
      <trkpt lat="44.17388" lon="5.22852">
        <ele>1269</ele>
        <time>2020-07-11T09:57:03.597Z</time>
      </trkpt>
      <trkpt lat="44.17381" lon="5.22835">
        <ele>1268</ele>
        <time>2020-07-11T09:57:04.597Z</time>
      </trkpt>
      <trkpt lat="44.17375" lon="5.22819">
        <ele>1266</ele>
        <time>2020-07-11T09:57:05.597Z</time>
      </trkpt>
      <trkpt lat="44.17369" lon="5.22803">
        <ele>1265</ele>
        <time>2020-07-11T09:57:06.596Z</time>
      </trkpt>
      <trkpt lat="44.17363" lon="5.22786">
        <ele>1264</ele>
        <time>2020-07-11T09:57:07.597Z</time>
      </trkpt>
      <trkpt lat="44.17358" lon="5.2277">
        <ele>1263</ele>
        <time>2020-07-11T09:57:08.597Z</time>
      </trkpt>
      <trkpt lat="44.17352" lon="5.22754">
        <ele>1261</ele>
        <time>2020-07-11T09:57:09.597Z</time>
      </trkpt>
      <trkpt lat="44.17347" lon="5.22737">
        <ele>1260</ele>
        <time>2020-07-11T09:57:10.597Z</time>
      </trkpt>
      <trkpt lat="44.17342" lon="5.22719">
        <ele>1258</ele>
        <time>2020-07-11T09:57:11.597Z</time>
      </trkpt>
      <trkpt lat="44.17338" lon="5.22701">
        <ele>1257</ele>
        <time>2020-07-11T09:57:12.596Z</time>
      </trkpt>
      <trkpt lat="44.17334" lon="5.22684">
        <ele>1256</ele>
        <time>2020-07-11T09:57:13.597Z</time>
      </trkpt>
      <trkpt lat="44.1733" lon="5.22667">
        <ele>1254</ele>
        <time>2020-07-11T09:57:14.597Z</time>
      </trkpt>
      <trkpt lat="44.17326" lon="5.22648">
        <ele>1252</ele>
        <time>2020-07-11T09:57:15.597Z</time>
      </trkpt>
      <trkpt lat="44.17322" lon="5.2263">
        <ele>1250</ele>
        <time>2020-07-11T09:57:16.597Z</time>
      </trkpt>
      <trkpt lat="44.17319" lon="5.22615">
        <ele>1248</ele>
        <time>2020-07-11T09:57:17.597Z</time>
      </trkpt>
      <trkpt lat="44.17313" lon="5.22592">
        <ele>1246</ele>
        <time>2020-07-11T09:57:18.597Z</time>
      </trkpt>
      <trkpt lat="44.17309" lon="5.22574">
        <ele>1244</ele>
        <time>2020-07-11T09:57:19.597Z</time>
      </trkpt>
      <trkpt lat="44.17304" lon="5.22554">
        <ele>1241</ele>
        <time>2020-07-11T09:57:20.597Z</time>
      </trkpt>
      <trkpt lat="44.173" lon="5.22535">
        <ele>1239</ele>
        <time>2020-07-11T09:57:21.597Z</time>
      </trkpt>
      <trkpt lat="44.17295" lon="5.22516">
        <ele>1237</ele>
        <time>2020-07-11T09:57:22.597Z</time>
      </trkpt>
      <trkpt lat="44.1729" lon="5.22497">
        <ele>1236</ele>
        <time>2020-07-11T09:57:23.597Z</time>
      </trkpt>
      <trkpt lat="44.17284" lon="5.22478">
        <ele>1234</ele>
        <time>2020-07-11T09:57:24.597Z</time>
      </trkpt>
      <trkpt lat="44.17278" lon="5.2246">
        <ele>1233</ele>
        <time>2020-07-11T09:57:25.597Z</time>
      </trkpt>
      <trkpt lat="44.17271" lon="5.22443">
        <ele>1232</ele>
        <time>2020-07-11T09:57:26.597Z</time>
      </trkpt>
      <trkpt lat="44.17263" lon="5.22426">
        <ele>1231</ele>
        <time>2020-07-11T09:57:27.597Z</time>
      </trkpt>
      <trkpt lat="44.17255" lon="5.22409">
        <ele>1230</ele>
        <time>2020-07-11T09:57:28.596Z</time>
      </trkpt>
      <trkpt lat="44.17247" lon="5.22392">
        <ele>1228</ele>
        <time>2020-07-11T09:57:29.596Z</time>
      </trkpt>
      <trkpt lat="44.1724" lon="5.22374">
        <ele>1227</ele>
        <time>2020-07-11T09:57:30.597Z</time>
      </trkpt>
      <trkpt lat="44.17232" lon="5.22357">
        <ele>1226</ele>
        <time>2020-07-11T09:57:31.597Z</time>
      </trkpt>
      <trkpt lat="44.17226" lon="5.2234">
        <ele>1225</ele>
        <time>2020-07-11T09:57:32.597Z</time>
      </trkpt>
      <trkpt lat="44.1722" lon="5.22322">
        <ele>1223</ele>
        <time>2020-07-11T09:57:33.596Z</time>
      </trkpt>
      <trkpt lat="44.17214" lon="5.22304">
        <ele>1222</ele>
        <time>2020-07-11T09:57:34.597Z</time>
      </trkpt>
      <trkpt lat="44.17208" lon="5.22285">
        <ele>1221</ele>
        <time>2020-07-11T09:57:35.597Z</time>
      </trkpt>
      <trkpt lat="44.17202" lon="5.22267">
        <ele>1221</ele>
        <time>2020-07-11T09:57:36.597Z</time>
      </trkpt>
      <trkpt lat="44.17195" lon="5.22249">
        <ele>1220</ele>
        <time>2020-07-11T09:57:37.597Z</time>
      </trkpt>
      <trkpt lat="44.17188" lon="5.22231">
        <ele>1219</ele>
        <time>2020-07-11T09:57:38.597Z</time>
      </trkpt>
      <trkpt lat="44.17181" lon="5.22213">
        <ele>1217</ele>
        <time>2020-07-11T09:57:39.596Z</time>
      </trkpt>
      <trkpt lat="44.17173" lon="5.22195">
        <ele>1216</ele>
        <time>2020-07-11T09:57:40.597Z</time>
      </trkpt>
      <trkpt lat="44.17166" lon="5.22177">
        <ele>1214</ele>
        <time>2020-07-11T09:57:41.597Z</time>
      </trkpt>
      <trkpt lat="44.17158" lon="5.2216">
        <ele>1212</ele>
        <time>2020-07-11T09:57:42.597Z</time>
      </trkpt>
      <trkpt lat="44.17152" lon="5.22144">
        <ele>1210</ele>
        <time>2020-07-11T09:57:43.597Z</time>
      </trkpt>
      <trkpt lat="44.17146" lon="5.22128">
        <ele>1208</ele>
        <time>2020-07-11T09:57:44.597Z</time>
      </trkpt>
      <trkpt lat="44.1714" lon="5.22113">
        <ele>1206</ele>
        <time>2020-07-11T09:57:45.597Z</time>
      </trkpt>
      <trkpt lat="44.17134" lon="5.221">
        <ele>1205</ele>
        <time>2020-07-11T09:57:46.597Z</time>
      </trkpt>
      <trkpt lat="44.17129" lon="5.22089">
        <ele>1203</ele>
        <time>2020-07-11T09:57:47.597Z</time>
      </trkpt>
      <trkpt lat="44.17125" lon="5.22079">
        <ele>1201</ele>
        <time>2020-07-11T09:57:48.597Z</time>
      </trkpt>
      <trkpt lat="44.17121" lon="5.22073">
        <ele>1199</ele>
        <time>2020-07-11T09:57:49.596Z</time>
      </trkpt>
      <trkpt lat="44.1712" lon="5.22065">
        <ele>1197</ele>
        <time>2020-07-11T09:57:50.597Z</time>
      </trkpt>
      <trkpt lat="44.17122" lon="5.22056">
        <ele>1195</ele>
        <time>2020-07-11T09:57:51.597Z</time>
      </trkpt>
      <trkpt lat="44.17126" lon="5.2205">
        <ele>1194</ele>
        <time>2020-07-11T09:57:52.597Z</time>
      </trkpt>
      <trkpt lat="44.17135" lon="5.22051">
        <ele>1193</ele>
        <time>2020-07-11T09:57:53.597Z</time>
      </trkpt>
      <trkpt lat="44.17142" lon="5.22056">
        <ele>1191</ele>
        <time>2020-07-11T09:57:54.596Z</time>
      </trkpt>
      <trkpt lat="44.17148" lon="5.22065">
        <ele>1190</ele>
        <time>2020-07-11T09:57:55.597Z</time>
      </trkpt>
      <trkpt lat="44.17153" lon="5.22074">
        <ele>1189</ele>
        <time>2020-07-11T09:57:56.596Z</time>
      </trkpt>
      <trkpt lat="44.17159" lon="5.22084">
        <ele>1188</ele>
        <time>2020-07-11T09:57:57.597Z</time>
      </trkpt>
      <trkpt lat="44.17164" lon="5.2209">
        <ele>1188</ele>
        <time>2020-07-11T09:57:58.597Z</time>
      </trkpt>
      <trkpt lat="44.17172" lon="5.221">
        <ele>1187</ele>
        <time>2020-07-11T09:57:59.597Z</time>
      </trkpt>
      <trkpt lat="44.17179" lon="5.22106">
        <ele>1186</ele>
        <time>2020-07-11T09:58:00.597Z</time>
      </trkpt>
      <trkpt lat="44.1719" lon="5.22116">
        <ele>1186</ele>
        <time>2020-07-11T09:58:01.596Z</time>
      </trkpt>
      <trkpt lat="44.172" lon="5.22125">
        <ele>1186</ele>
        <time>2020-07-11T09:58:02.596Z</time>
      </trkpt>
      <trkpt lat="44.17207" lon="5.22131">
        <ele>1185</ele>
        <time>2020-07-11T09:58:03.596Z</time>
      </trkpt>
      <trkpt lat="44.17218" lon="5.22141">
        <ele>1184</ele>
        <time>2020-07-11T09:58:04.596Z</time>
      </trkpt>
      <trkpt lat="44.17227" lon="5.22149">
        <ele>1183</ele>
        <time>2020-07-11T09:58:05.597Z</time>
      </trkpt>
      <trkpt lat="44.17237" lon="5.22155">
        <ele>1182</ele>
        <time>2020-07-11T09:58:06.596Z</time>
      </trkpt>
      <trkpt lat="44.17247" lon="5.2216">
        <ele>1181</ele>
        <time>2020-07-11T09:58:07.597Z</time>
      </trkpt>
      <trkpt lat="44.17258" lon="5.22164">
        <ele>1180</ele>
        <time>2020-07-11T09:58:08.596Z</time>
      </trkpt>
      <trkpt lat="44.17271" lon="5.22167">
        <ele>1179</ele>
        <time>2020-07-11T09:58:09.596Z</time>
      </trkpt>
      <trkpt lat="44.17283" lon="5.22168">
        <ele>1178</ele>
        <time>2020-07-11T09:58:10.596Z</time>
      </trkpt>
      <trkpt lat="44.17295" lon="5.22169">
        <ele>1178</ele>
        <time>2020-07-11T09:58:11.597Z</time>
      </trkpt>
      <trkpt lat="44.17306" lon="5.22169">
        <ele>1178</ele>
        <time>2020-07-11T09:58:12.597Z</time>
      </trkpt>
      <trkpt lat="44.17317" lon="5.22169">
        <ele>1177</ele>
        <time>2020-07-11T09:58:13.597Z</time>
      </trkpt>
      <trkpt lat="44.17327" lon="5.22167">
        <ele>1177</ele>
        <time>2020-07-11T09:58:14.597Z</time>
      </trkpt>
      <trkpt lat="44.17335" lon="5.22162">
        <ele>1176</ele>
        <time>2020-07-11T09:58:15.597Z</time>
      </trkpt>
      <trkpt lat="44.17342" lon="5.22155">
        <ele>1175</ele>
        <time>2020-07-11T09:58:16.596Z</time>
      </trkpt>
      <trkpt lat="44.17346" lon="5.22145">
        <ele>1174</ele>
        <time>2020-07-11T09:58:17.597Z</time>
      </trkpt>
      <trkpt lat="44.1735" lon="5.22133">
        <ele>1173</ele>
        <time>2020-07-11T09:58:18.597Z</time>
      </trkpt>
      <trkpt lat="44.17353" lon="5.22118">
        <ele>1172</ele>
        <time>2020-07-11T09:58:19.596Z</time>
      </trkpt>
      <trkpt lat="44.17353" lon="5.22103">
        <ele>1171</ele>
        <time>2020-07-11T09:58:20.597Z</time>
      </trkpt>
      <trkpt lat="44.1735" lon="5.22089">
        <ele>1171</ele>
        <time>2020-07-11T09:58:21.596Z</time>
      </trkpt>
      <trkpt lat="44.17344" lon="5.22075">
        <ele>1170</ele>
        <time>2020-07-11T09:58:22.597Z</time>
      </trkpt>
      <trkpt lat="44.17337" lon="5.22064">
        <ele>1169</ele>
        <time>2020-07-11T09:58:23.597Z</time>
      </trkpt>
      <trkpt lat="44.17328" lon="5.22049">
        <ele>1167</ele>
        <time>2020-07-11T09:58:24.597Z</time>
      </trkpt>
      <trkpt lat="44.1732" lon="5.22034">
        <ele>1166</ele>
        <time>2020-07-11T09:58:25.596Z</time>
      </trkpt>
      <trkpt lat="44.17315" lon="5.22019">
        <ele>1165</ele>
        <time>2020-07-11T09:58:26.596Z</time>
      </trkpt>
      <trkpt lat="44.17312" lon="5.22003">
        <ele>1164</ele>
        <time>2020-07-11T09:58:27.597Z</time>
      </trkpt>
      <trkpt lat="44.17311" lon="5.21986">
        <ele>1162</ele>
        <time>2020-07-11T09:58:28.597Z</time>
      </trkpt>
      <trkpt lat="44.17311" lon="5.21972">
        <ele>1161</ele>
        <time>2020-07-11T09:58:29.597Z</time>
      </trkpt>
      <trkpt lat="44.17311" lon="5.21951">
        <ele>1160</ele>
        <time>2020-07-11T09:58:30.597Z</time>
      </trkpt>
      <trkpt lat="44.17312" lon="5.21932">
        <ele>1159</ele>
        <time>2020-07-11T09:58:31.596Z</time>
      </trkpt>
      <trkpt lat="44.17313" lon="5.21912">
        <ele>1158</ele>
        <time>2020-07-11T09:58:32.597Z</time>
      </trkpt>
      <trkpt lat="44.17316" lon="5.2189">
        <ele>1157</ele>
        <time>2020-07-11T09:58:33.596Z</time>
      </trkpt>
      <trkpt lat="44.17319" lon="5.21869">
        <ele>1155</ele>
        <time>2020-07-11T09:58:34.597Z</time>
      </trkpt>
      <trkpt lat="44.17323" lon="5.21848">
        <ele>1154</ele>
        <time>2020-07-11T09:58:35.597Z</time>
      </trkpt>
      <trkpt lat="44.17327" lon="5.21828">
        <ele>1153</ele>
        <time>2020-07-11T09:58:36.597Z</time>
      </trkpt>
      <trkpt lat="44.17334" lon="5.21809">
        <ele>1151</ele>
        <time>2020-07-11T09:58:37.597Z</time>
      </trkpt>
      <trkpt lat="44.17342" lon="5.21791">
        <ele>1150</ele>
        <time>2020-07-11T09:58:38.597Z</time>
      </trkpt>
      <trkpt lat="44.17351" lon="5.21774">
        <ele>1148</ele>
        <time>2020-07-11T09:58:39.596Z</time>
      </trkpt>
      <trkpt lat="44.17361" lon="5.21759">
        <ele>1146</ele>
        <time>2020-07-11T09:58:40.596Z</time>
      </trkpt>
      <trkpt lat="44.17371" lon="5.21743">
        <ele>1144</ele>
        <time>2020-07-11T09:58:41.597Z</time>
      </trkpt>
      <trkpt lat="44.17379" lon="5.21729">
        <ele>1143</ele>
        <time>2020-07-11T09:58:42.597Z</time>
      </trkpt>
      <trkpt lat="44.17386" lon="5.21714">
        <ele>1141</ele>
        <time>2020-07-11T09:58:43.597Z</time>
      </trkpt>
      <trkpt lat="44.1739" lon="5.21698">
        <ele>1140</ele>
        <time>2020-07-11T09:58:44.596Z</time>
      </trkpt>
      <trkpt lat="44.17393" lon="5.21681">
        <ele>1138</ele>
        <time>2020-07-11T09:58:45.597Z</time>
      </trkpt>
      <trkpt lat="44.17392" lon="5.21663">
        <ele>1136</ele>
        <time>2020-07-11T09:58:46.597Z</time>
      </trkpt>
      <trkpt lat="44.17387" lon="5.21646">
        <ele>1135</ele>
        <time>2020-07-11T09:58:47.597Z</time>
      </trkpt>
      <trkpt lat="44.17381" lon="5.21629">
        <ele>1133</ele>
        <time>2020-07-11T09:58:48.597Z</time>
      </trkpt>
      <trkpt lat="44.17375" lon="5.21611">
        <ele>1131</ele>
        <time>2020-07-11T09:58:49.597Z</time>
      </trkpt>
      <trkpt lat="44.1737" lon="5.21594">
        <ele>1130</ele>
        <time>2020-07-11T09:58:50.597Z</time>
      </trkpt>
      <trkpt lat="44.17365" lon="5.21577">
        <ele>1128</ele>
        <time>2020-07-11T09:58:51.597Z</time>
      </trkpt>
      <trkpt lat="44.17359" lon="5.21559">
        <ele>1127</ele>
        <time>2020-07-11T09:58:52.597Z</time>
      </trkpt>
      <trkpt lat="44.17353" lon="5.21541">
        <ele>1125</ele>
        <time>2020-07-11T09:58:53.596Z</time>
      </trkpt>
      <trkpt lat="44.17346" lon="5.21523">
        <ele>1124</ele>
        <time>2020-07-11T09:58:54.597Z</time>
      </trkpt>
      <trkpt lat="44.1734" lon="5.21505">
        <ele>1123</ele>
        <time>2020-07-11T09:58:55.597Z</time>
      </trkpt>
      <trkpt lat="44.17333" lon="5.21487">
        <ele>1122</ele>
        <time>2020-07-11T09:58:56.597Z</time>
      </trkpt>
      <trkpt lat="44.17327" lon="5.21468">
        <ele>1121</ele>
        <time>2020-07-11T09:58:57.597Z</time>
      </trkpt>
      <trkpt lat="44.17321" lon="5.21448">
        <ele>1120</ele>
        <time>2020-07-11T09:58:58.597Z</time>
      </trkpt>
      <trkpt lat="44.17315" lon="5.2143">
        <ele>1118</ele>
        <time>2020-07-11T09:58:59.597Z</time>
      </trkpt>
      <trkpt lat="44.17308" lon="5.2141">
        <ele>1117</ele>
        <time>2020-07-11T09:59:00.597Z</time>
      </trkpt>
      <trkpt lat="44.173" lon="5.21393">
        <ele>1116</ele>
        <time>2020-07-11T09:59:01.596Z</time>
      </trkpt>
      <trkpt lat="44.17295" lon="5.21373">
        <ele>1115</ele>
        <time>2020-07-11T09:59:02.597Z</time>
      </trkpt>
      <trkpt lat="44.17289" lon="5.21353">
        <ele>1115</ele>
        <time>2020-07-11T09:59:03.597Z</time>
      </trkpt>
      <trkpt lat="44.17284" lon="5.21333">
        <ele>1114</ele>
        <time>2020-07-11T09:59:04.596Z</time>
      </trkpt>
      <trkpt lat="44.17279" lon="5.21313">
        <ele>1113</ele>
        <time>2020-07-11T09:59:05.597Z</time>
      </trkpt>
      <trkpt lat="44.17274" lon="5.21293">
        <ele>1111</ele>
        <time>2020-07-11T09:59:06.597Z</time>
      </trkpt>
      <trkpt lat="44.17269" lon="5.21274">
        <ele>1110</ele>
        <time>2020-07-11T09:59:07.597Z</time>
      </trkpt>
      <trkpt lat="44.17264" lon="5.21255">
        <ele>1109</ele>
        <time>2020-07-11T09:59:08.596Z</time>
      </trkpt>
      <trkpt lat="44.17259" lon="5.21236">
        <ele>1107</ele>
        <time>2020-07-11T09:59:09.597Z</time>
      </trkpt>
      <trkpt lat="44.17256" lon="5.21216">
        <ele>1105</ele>
        <time>2020-07-11T09:59:10.597Z</time>
      </trkpt>
      <trkpt lat="44.17254" lon="5.21197">
        <ele>1104</ele>
        <time>2020-07-11T09:59:11.597Z</time>
      </trkpt>
      <trkpt lat="44.17252" lon="5.21177">
        <ele>1102</ele>
        <time>2020-07-11T09:59:12.597Z</time>
      </trkpt>
      <trkpt lat="44.17251" lon="5.21156">
        <ele>1100</ele>
        <time>2020-07-11T09:59:13.597Z</time>
      </trkpt>
      <trkpt lat="44.1725" lon="5.21136">
        <ele>1098</ele>
        <time>2020-07-11T09:59:14.597Z</time>
      </trkpt>
      <trkpt lat="44.1725" lon="5.21117">
        <ele>1097</ele>
        <time>2020-07-11T09:59:15.597Z</time>
      </trkpt>
      <trkpt lat="44.17249" lon="5.21099">
        <ele>1095</ele>
        <time>2020-07-11T09:59:16.597Z</time>
      </trkpt>
      <trkpt lat="44.17246" lon="5.21076">
        <ele>1093</ele>
        <time>2020-07-11T09:59:17.597Z</time>
      </trkpt>
      <trkpt lat="44.17242" lon="5.21058">
        <ele>1091</ele>
        <time>2020-07-11T09:59:18.596Z</time>
      </trkpt>
      <trkpt lat="44.17239" lon="5.21044">
        <ele>1090</ele>
        <time>2020-07-11T09:59:19.596Z</time>
      </trkpt>
      <trkpt lat="44.17236" lon="5.21026">
        <ele>1088</ele>
        <time>2020-07-11T09:59:20.597Z</time>
      </trkpt>
      <trkpt lat="44.17232" lon="5.21008">
        <ele>1087</ele>
        <time>2020-07-11T09:59:21.597Z</time>
      </trkpt>
      <trkpt lat="44.17228" lon="5.2099">
        <ele>1085</ele>
        <time>2020-07-11T09:59:22.597Z</time>
      </trkpt>
      <trkpt lat="44.17224" lon="5.20972">
        <ele>1083</ele>
        <time>2020-07-11T09:59:23.596Z</time>
      </trkpt>
      <trkpt lat="44.17221" lon="5.20953">
        <ele>1082</ele>
        <time>2020-07-11T09:59:24.597Z</time>
      </trkpt>
      <trkpt lat="44.17218" lon="5.20934">
        <ele>1080</ele>
        <time>2020-07-11T09:59:25.597Z</time>
      </trkpt>
      <trkpt lat="44.17216" lon="5.20915">
        <ele>1078</ele>
        <time>2020-07-11T09:59:26.596Z</time>
      </trkpt>
      <trkpt lat="44.17213" lon="5.20894">
        <ele>1076</ele>
        <time>2020-07-11T09:59:27.597Z</time>
      </trkpt>
      <trkpt lat="44.1721" lon="5.20874">
        <ele>1073</ele>
        <time>2020-07-11T09:59:28.597Z</time>
      </trkpt>
      <trkpt lat="44.17205" lon="5.20855">
        <ele>1070</ele>
        <time>2020-07-11T09:59:29.597Z</time>
      </trkpt>
      <trkpt lat="44.172" lon="5.20834">
        <ele>1068</ele>
        <time>2020-07-11T09:59:30.596Z</time>
      </trkpt>
      <trkpt lat="44.17196" lon="5.20815">
        <ele>1065</ele>
        <time>2020-07-11T09:59:31.597Z</time>
      </trkpt>
      <trkpt lat="44.17191" lon="5.20795">
        <ele>1063</ele>
        <time>2020-07-11T09:59:32.596Z</time>
      </trkpt>
      <trkpt lat="44.17185" lon="5.20775">
        <ele>1060</ele>
        <time>2020-07-11T09:59:33.597Z</time>
      </trkpt>
      <trkpt lat="44.17179" lon="5.20755">
        <ele>1058</ele>
        <time>2020-07-11T09:59:34.597Z</time>
      </trkpt>
      <trkpt lat="44.17174" lon="5.20734">
        <ele>1055</ele>
        <time>2020-07-11T09:59:35.596Z</time>
      </trkpt>
      <trkpt lat="44.17168" lon="5.20713">
        <ele>1053</ele>
        <time>2020-07-11T09:59:36.597Z</time>
      </trkpt>
      <trkpt lat="44.17163" lon="5.20692">
        <ele>1051</ele>
        <time>2020-07-11T09:59:37.596Z</time>
      </trkpt>
      <trkpt lat="44.17157" lon="5.20672">
        <ele>1048</ele>
        <time>2020-07-11T09:59:38.597Z</time>
      </trkpt>
      <trkpt lat="44.17151" lon="5.20653">
        <ele>1046</ele>
        <time>2020-07-11T09:59:39.596Z</time>
      </trkpt>
      <trkpt lat="44.17145" lon="5.20632">
        <ele>1044</ele>
        <time>2020-07-11T09:59:40.597Z</time>
      </trkpt>
      <trkpt lat="44.17139" lon="5.20614">
        <ele>1042</ele>
        <time>2020-07-11T09:59:41.597Z</time>
      </trkpt>
      <trkpt lat="44.17133" lon="5.20597">
        <ele>1039</ele>
        <time>2020-07-11T09:59:42.597Z</time>
      </trkpt>
      <trkpt lat="44.17127" lon="5.2058">
        <ele>1037</ele>
        <time>2020-07-11T09:59:43.597Z</time>
      </trkpt>
      <trkpt lat="44.1712" lon="5.20563">
        <ele>1034</ele>
        <time>2020-07-11T09:59:44.596Z</time>
      </trkpt>
      <trkpt lat="44.17113" lon="5.20547">
        <ele>1032</ele>
        <time>2020-07-11T09:59:45.597Z</time>
      </trkpt>
      <trkpt lat="44.17106" lon="5.20531">
        <ele>1030</ele>
        <time>2020-07-11T09:59:46.597Z</time>
      </trkpt>
      <trkpt lat="44.17098" lon="5.20516">
        <ele>1028</ele>
        <time>2020-07-11T09:59:47.597Z</time>
      </trkpt>
      <trkpt lat="44.1709" lon="5.20502">
        <ele>1026</ele>
        <time>2020-07-11T09:59:48.597Z</time>
      </trkpt>
      <trkpt lat="44.17083" lon="5.20489">
        <ele>1024</ele>
        <time>2020-07-11T09:59:49.597Z</time>
      </trkpt>
      <trkpt lat="44.17076" lon="5.20476">
        <ele>1022</ele>
        <time>2020-07-11T09:59:50.597Z</time>
      </trkpt>
      <trkpt lat="44.1707" lon="5.20461">
        <ele>1021</ele>
        <time>2020-07-11T09:59:51.597Z</time>
      </trkpt>
      <trkpt lat="44.17065" lon="5.20445">
        <ele>1019</ele>
        <time>2020-07-11T09:59:52.597Z</time>
      </trkpt>
      <trkpt lat="44.17061" lon="5.20429">
        <ele>1017</ele>
        <time>2020-07-11T09:59:53.597Z</time>
      </trkpt>
      <trkpt lat="44.17059" lon="5.20412">
        <ele>1016</ele>
        <time>2020-07-11T09:59:54.597Z</time>
      </trkpt>
      <trkpt lat="44.17059" lon="5.20394">
        <ele>1014</ele>
        <time>2020-07-11T09:59:55.597Z</time>
      </trkpt>
      <trkpt lat="44.17061" lon="5.20376">
        <ele>1012</ele>
        <time>2020-07-11T09:59:56.596Z</time>
      </trkpt>
      <trkpt lat="44.17064" lon="5.20357">
        <ele>1010</ele>
        <time>2020-07-11T09:59:57.597Z</time>
      </trkpt>
      <trkpt lat="44.17069" lon="5.20339">
        <ele>1008</ele>
        <time>2020-07-11T09:59:58.596Z</time>
      </trkpt>
      <trkpt lat="44.17074" lon="5.20321">
        <ele>1006</ele>
        <time>2020-07-11T09:59:59.597Z</time>
      </trkpt>
      <trkpt lat="44.1708" lon="5.20304">
        <ele>1004</ele>
        <time>2020-07-11T10:00:00.597Z</time>
      </trkpt>
      <trkpt lat="44.17086" lon="5.20286">
        <ele>1002</ele>
        <time>2020-07-11T10:00:01.597Z</time>
      </trkpt>
      <trkpt lat="44.1709" lon="5.20268">
        <ele>1000</ele>
        <time>2020-07-11T10:00:02.596Z</time>
      </trkpt>
      <trkpt lat="44.17093" lon="5.2025">
        <ele>998</ele>
        <time>2020-07-11T10:00:03.596Z</time>
      </trkpt>
      <trkpt lat="44.17094" lon="5.20233">
        <ele>996</ele>
        <time>2020-07-11T10:00:04.597Z</time>
      </trkpt>
      <trkpt lat="44.17094" lon="5.20215">
        <ele>995</ele>
        <time>2020-07-11T10:00:05.596Z</time>
      </trkpt>
      <trkpt lat="44.17092" lon="5.20197">
        <ele>993</ele>
        <time>2020-07-11T10:00:06.596Z</time>
      </trkpt>
      <trkpt lat="44.17087" lon="5.2018">
        <ele>991</ele>
        <time>2020-07-11T10:00:07.596Z</time>
      </trkpt>
      <trkpt lat="44.1708" lon="5.20166">
        <ele>990</ele>
        <time>2020-07-11T10:00:08.596Z</time>
      </trkpt>
      <trkpt lat="44.17072" lon="5.20153">
        <ele>988</ele>
        <time>2020-07-11T10:00:09.597Z</time>
      </trkpt>
      <trkpt lat="44.17062" lon="5.20141">
        <ele>987</ele>
        <time>2020-07-11T10:00:10.596Z</time>
      </trkpt>
      <trkpt lat="44.17052" lon="5.20132">
        <ele>985</ele>
        <time>2020-07-11T10:00:11.596Z</time>
      </trkpt>
      <trkpt lat="44.17041" lon="5.20123">
        <ele>985</ele>
        <time>2020-07-11T10:00:12.597Z</time>
      </trkpt>
      <trkpt lat="44.1703" lon="5.20117">
        <ele>984</ele>
        <time>2020-07-11T10:00:13.596Z</time>
      </trkpt>
      <trkpt lat="44.17019" lon="5.20111">
        <ele>983</ele>
        <time>2020-07-11T10:00:14.597Z</time>
      </trkpt>
      <trkpt lat="44.17007" lon="5.20107">
        <ele>982</ele>
        <time>2020-07-11T10:00:15.597Z</time>
      </trkpt>
      <trkpt lat="44.16995" lon="5.20103">
        <ele>981</ele>
        <time>2020-07-11T10:00:16.596Z</time>
      </trkpt>
      <trkpt lat="44.16984" lon="5.20099">
        <ele>980</ele>
        <time>2020-07-11T10:00:17.596Z</time>
      </trkpt>
      <trkpt lat="44.16972" lon="5.20094">
        <ele>979</ele>
        <time>2020-07-11T10:00:18.596Z</time>
      </trkpt>
      <trkpt lat="44.16964" lon="5.20089">
        <ele>978</ele>
        <time>2020-07-11T10:00:19.596Z</time>
      </trkpt>
      <trkpt lat="44.1695" lon="5.20082">
        <ele>977</ele>
        <time>2020-07-11T10:00:20.597Z</time>
      </trkpt>
      <trkpt lat="44.16939" lon="5.20074">
        <ele>976</ele>
        <time>2020-07-11T10:00:21.597Z</time>
      </trkpt>
      <trkpt lat="44.16928" lon="5.20065">
        <ele>976</ele>
        <time>2020-07-11T10:00:22.596Z</time>
      </trkpt>
      <trkpt lat="44.16918" lon="5.20054">
        <ele>975</ele>
        <time>2020-07-11T10:00:23.596Z</time>
      </trkpt>
      <trkpt lat="44.16907" lon="5.20042">
        <ele>975</ele>
        <time>2020-07-11T10:00:24.597Z</time>
      </trkpt>
      <trkpt lat="44.16897" lon="5.20028">
        <ele>975</ele>
        <time>2020-07-11T10:00:25.597Z</time>
      </trkpt>
      <trkpt lat="44.16888" lon="5.20015">
        <ele>975</ele>
        <time>2020-07-11T10:00:26.597Z</time>
      </trkpt>
      <trkpt lat="44.1688" lon="5.20001">
        <ele>975</ele>
        <time>2020-07-11T10:00:27.597Z</time>
      </trkpt>
      <trkpt lat="44.16873" lon="5.19985">
        <ele>974</ele>
        <time>2020-07-11T10:00:28.596Z</time>
      </trkpt>
      <trkpt lat="44.16867" lon="5.19968">
        <ele>973</ele>
        <time>2020-07-11T10:00:29.596Z</time>
      </trkpt>
      <trkpt lat="44.16861" lon="5.1995">
        <ele>971</ele>
        <time>2020-07-11T10:00:30.597Z</time>
      </trkpt>
      <trkpt lat="44.16857" lon="5.19931">
        <ele>970</ele>
        <time>2020-07-11T10:00:31.596Z</time>
      </trkpt>
      <trkpt lat="44.16855" lon="5.19911">
        <ele>969</ele>
        <time>2020-07-11T10:00:32.597Z</time>
      </trkpt>
      <trkpt lat="44.16855" lon="5.19891">
        <ele>967</ele>
        <time>2020-07-11T10:00:33.597Z</time>
      </trkpt>
      <trkpt lat="44.16857" lon="5.19872">
        <ele>966</ele>
        <time>2020-07-11T10:00:34.596Z</time>
      </trkpt>
      <trkpt lat="44.16862" lon="5.19853">
        <ele>964</ele>
        <time>2020-07-11T10:00:35.597Z</time>
      </trkpt>
      <trkpt lat="44.1687" lon="5.19836">
        <ele>962</ele>
        <time>2020-07-11T10:00:36.597Z</time>
      </trkpt>
      <trkpt lat="44.16879" lon="5.1982">
        <ele>961</ele>
        <time>2020-07-11T10:00:37.597Z</time>
      </trkpt>
      <trkpt lat="44.16889" lon="5.19805">
        <ele>959</ele>
        <time>2020-07-11T10:00:38.597Z</time>
      </trkpt>
      <trkpt lat="44.16899" lon="5.1979">
        <ele>958</ele>
        <time>2020-07-11T10:00:39.596Z</time>
      </trkpt>
      <trkpt lat="44.16909" lon="5.19775">
        <ele>957</ele>
        <time>2020-07-11T10:00:40.597Z</time>
      </trkpt>
      <trkpt lat="44.1692" lon="5.19759">
        <ele>956</ele>
        <time>2020-07-11T10:00:41.597Z</time>
      </trkpt>
      <trkpt lat="44.1693" lon="5.19743">
        <ele>955</ele>
        <time>2020-07-11T10:00:42.597Z</time>
      </trkpt>
      <trkpt lat="44.1694" lon="5.19727">
        <ele>953</ele>
        <time>2020-07-11T10:00:43.597Z</time>
      </trkpt>
      <trkpt lat="44.1695" lon="5.19712">
        <ele>952</ele>
        <time>2020-07-11T10:00:44.597Z</time>
      </trkpt>
      <trkpt lat="44.1696" lon="5.19697">
        <ele>952</ele>
        <time>2020-07-11T10:00:45.596Z</time>
      </trkpt>
      <trkpt lat="44.16969" lon="5.19684">
        <ele>951</ele>
        <time>2020-07-11T10:00:46.596Z</time>
      </trkpt>
      <trkpt lat="44.16975" lon="5.19669">
        <ele>950</ele>
        <time>2020-07-11T10:00:47.597Z</time>
      </trkpt>
      <trkpt lat="44.16979" lon="5.19654">
        <ele>949</ele>
        <time>2020-07-11T10:00:48.597Z</time>
      </trkpt>
      <trkpt lat="44.1698" lon="5.19639">
        <ele>948</ele>
        <time>2020-07-11T10:00:49.597Z</time>
      </trkpt>
      <trkpt lat="44.16977" lon="5.19625">
        <ele>947</ele>
        <time>2020-07-11T10:00:50.596Z</time>
      </trkpt>
      <trkpt lat="44.16972" lon="5.1961">
        <ele>946</ele>
        <time>2020-07-11T10:00:51.596Z</time>
      </trkpt>
      <trkpt lat="44.16964" lon="5.19598">
        <ele>944</ele>
        <time>2020-07-11T10:00:52.596Z</time>
      </trkpt>
      <trkpt lat="44.16955" lon="5.19587">
        <ele>942</ele>
        <time>2020-07-11T10:00:53.597Z</time>
      </trkpt>
      <trkpt lat="44.16945" lon="5.19578">
        <ele>940</ele>
        <time>2020-07-11T10:00:54.597Z</time>
      </trkpt>
      <trkpt lat="44.16933" lon="5.1957">
        <ele>939</ele>
        <time>2020-07-11T10:00:55.596Z</time>
      </trkpt>
      <trkpt lat="44.16922" lon="5.19563">
        <ele>938</ele>
        <time>2020-07-11T10:00:56.596Z</time>
      </trkpt>
      <trkpt lat="44.1691" lon="5.19556">
        <ele>937</ele>
        <time>2020-07-11T10:00:57.597Z</time>
      </trkpt>
      <trkpt lat="44.16898" lon="5.1955">
        <ele>936</ele>
        <time>2020-07-11T10:00:58.596Z</time>
      </trkpt>
      <trkpt lat="44.16885" lon="5.19544">
        <ele>935</ele>
        <time>2020-07-11T10:00:59.597Z</time>
      </trkpt>
      <trkpt lat="44.16873" lon="5.19539">
        <ele>934</ele>
        <time>2020-07-11T10:01:00.597Z</time>
      </trkpt>
      <trkpt lat="44.16861" lon="5.19535">
        <ele>933</ele>
        <time>2020-07-11T10:01:01.597Z</time>
      </trkpt>
      <trkpt lat="44.16849" lon="5.19531">
        <ele>932</ele>
        <time>2020-07-11T10:01:02.597Z</time>
      </trkpt>
      <trkpt lat="44.16837" lon="5.19527">
        <ele>931</ele>
        <time>2020-07-11T10:01:03.596Z</time>
      </trkpt>
      <trkpt lat="44.16824" lon="5.19523">
        <ele>930</ele>
        <time>2020-07-11T10:01:04.597Z</time>
      </trkpt>
      <trkpt lat="44.16812" lon="5.1952">
        <ele>929</ele>
        <time>2020-07-11T10:01:05.597Z</time>
      </trkpt>
      <trkpt lat="44.16801" lon="5.19515">
        <ele>929</ele>
        <time>2020-07-11T10:01:06.596Z</time>
      </trkpt>
      <trkpt lat="44.16791" lon="5.19511">
        <ele>928</ele>
        <time>2020-07-11T10:01:07.596Z</time>
      </trkpt>
      <trkpt lat="44.1678" lon="5.19506">
        <ele>927</ele>
        <time>2020-07-11T10:01:08.597Z</time>
      </trkpt>
      <trkpt lat="44.16769" lon="5.19502">
        <ele>927</ele>
        <time>2020-07-11T10:01:09.597Z</time>
      </trkpt>
      <trkpt lat="44.16759" lon="5.19498">
        <ele>926</ele>
        <time>2020-07-11T10:01:10.597Z</time>
      </trkpt>
      <trkpt lat="44.16748" lon="5.19494">
        <ele>926</ele>
        <time>2020-07-11T10:01:11.596Z</time>
      </trkpt>
      <trkpt lat="44.16737" lon="5.1949">
        <ele>926</ele>
        <time>2020-07-11T10:01:12.597Z</time>
      </trkpt>
      <trkpt lat="44.16727" lon="5.19485">
        <ele>926</ele>
        <time>2020-07-11T10:01:13.596Z</time>
      </trkpt>
      <trkpt lat="44.16717" lon="5.1948">
        <ele>925</ele>
        <time>2020-07-11T10:01:14.597Z</time>
      </trkpt>
      <trkpt lat="44.16706" lon="5.19475">
        <ele>925</ele>
        <time>2020-07-11T10:01:15.597Z</time>
      </trkpt>
      <trkpt lat="44.16695" lon="5.19471">
        <ele>925</ele>
        <time>2020-07-11T10:01:16.596Z</time>
      </trkpt>
      <trkpt lat="44.16685" lon="5.19465">
        <ele>925</ele>
        <time>2020-07-11T10:01:17.596Z</time>
      </trkpt>
      <trkpt lat="44.16675" lon="5.19459">
        <ele>925</ele>
        <time>2020-07-11T10:01:18.596Z</time>
      </trkpt>
      <trkpt lat="44.16665" lon="5.19453">
        <ele>925</ele>
        <time>2020-07-11T10:01:19.596Z</time>
      </trkpt>
      <trkpt lat="44.16656" lon="5.19445">
        <ele>924</ele>
        <time>2020-07-11T10:01:20.596Z</time>
      </trkpt>
      <trkpt lat="44.16649" lon="5.19435">
        <ele>923</ele>
        <time>2020-07-11T10:01:21.596Z</time>
      </trkpt>
      <trkpt lat="44.16643" lon="5.19423">
        <ele>922</ele>
        <time>2020-07-11T10:01:22.596Z</time>
      </trkpt>
      <trkpt lat="44.1664" lon="5.19409">
        <ele>921</ele>
        <time>2020-07-11T10:01:23.596Z</time>
      </trkpt>
      <trkpt lat="44.1664" lon="5.19394">
        <ele>921</ele>
        <time>2020-07-11T10:01:24.597Z</time>
      </trkpt>
      <trkpt lat="44.16642" lon="5.19379">
        <ele>920</ele>
        <time>2020-07-11T10:01:25.596Z</time>
      </trkpt>
      <trkpt lat="44.16648" lon="5.19363">
        <ele>919</ele>
        <time>2020-07-11T10:01:26.596Z</time>
      </trkpt>
      <trkpt lat="44.16653" lon="5.19348">
        <ele>918</ele>
        <time>2020-07-11T10:01:27.596Z</time>
      </trkpt>
      <trkpt lat="44.16659" lon="5.19333">
        <ele>917</ele>
        <time>2020-07-11T10:01:28.596Z</time>
      </trkpt>
      <trkpt lat="44.16666" lon="5.19319">
        <ele>916</ele>
        <time>2020-07-11T10:01:29.597Z</time>
      </trkpt>
      <trkpt lat="44.16672" lon="5.19304">
        <ele>916</ele>
        <time>2020-07-11T10:01:30.597Z</time>
      </trkpt>
      <trkpt lat="44.16677" lon="5.19289">
        <ele>915</ele>
        <time>2020-07-11T10:01:31.596Z</time>
      </trkpt>
      <trkpt lat="44.16683" lon="5.19275">
        <ele>914</ele>
        <time>2020-07-11T10:01:32.596Z</time>
      </trkpt>
      <trkpt lat="44.16689" lon="5.19261">
        <ele>913</ele>
        <time>2020-07-11T10:01:33.596Z</time>
      </trkpt>
      <trkpt lat="44.16695" lon="5.19248">
        <ele>912</ele>
        <time>2020-07-11T10:01:34.597Z</time>
      </trkpt>
      <trkpt lat="44.16701" lon="5.19235">
        <ele>911</ele>
        <time>2020-07-11T10:01:35.597Z</time>
      </trkpt>
      <trkpt lat="44.16708" lon="5.19223">
        <ele>911</ele>
        <time>2020-07-11T10:01:36.596Z</time>
      </trkpt>
      <trkpt lat="44.16715" lon="5.19212">
        <ele>910</ele>
        <time>2020-07-11T10:01:37.596Z</time>
      </trkpt>
      <trkpt lat="44.16724" lon="5.19202">
        <ele>909</ele>
        <time>2020-07-11T10:01:38.596Z</time>
      </trkpt>
      <trkpt lat="44.16734" lon="5.19195">
        <ele>908</ele>
        <time>2020-07-11T10:01:39.596Z</time>
      </trkpt>
      <trkpt lat="44.16744" lon="5.19189">
        <ele>906</ele>
        <time>2020-07-11T10:01:40.596Z</time>
      </trkpt>
      <trkpt lat="44.16755" lon="5.19185">
        <ele>905</ele>
        <time>2020-07-11T10:01:41.596Z</time>
      </trkpt>
      <trkpt lat="44.16766" lon="5.19183">
        <ele>904</ele>
        <time>2020-07-11T10:01:42.596Z</time>
      </trkpt>
      <trkpt lat="44.16777" lon="5.1918">
        <ele>903</ele>
        <time>2020-07-11T10:01:43.596Z</time>
      </trkpt>
      <trkpt lat="44.16788" lon="5.19177">
        <ele>901</ele>
        <time>2020-07-11T10:01:44.596Z</time>
      </trkpt>
      <trkpt lat="44.168" lon="5.19175">
        <ele>901</ele>
        <time>2020-07-11T10:01:45.596Z</time>
      </trkpt>
      <trkpt lat="44.16811" lon="5.19173">
        <ele>900</ele>
        <time>2020-07-11T10:01:46.597Z</time>
      </trkpt>
      <trkpt lat="44.16822" lon="5.1917">
        <ele>900</ele>
        <time>2020-07-11T10:01:47.596Z</time>
      </trkpt>
      <trkpt lat="44.16833" lon="5.19167">
        <ele>899</ele>
        <time>2020-07-11T10:01:48.596Z</time>
      </trkpt>
      <trkpt lat="44.16844" lon="5.19165">
        <ele>899</ele>
        <time>2020-07-11T10:01:49.597Z</time>
      </trkpt>
      <trkpt lat="44.16854" lon="5.19161">
        <ele>899</ele>
        <time>2020-07-11T10:01:50.597Z</time>
      </trkpt>
      <trkpt lat="44.16864" lon="5.19157">
        <ele>899</ele>
        <time>2020-07-11T10:01:51.596Z</time>
      </trkpt>
      <trkpt lat="44.16874" lon="5.19153">
        <ele>899</ele>
        <time>2020-07-11T10:01:52.597Z</time>
      </trkpt>
      <trkpt lat="44.16884" lon="5.19148">
        <ele>899</ele>
        <time>2020-07-11T10:01:53.597Z</time>
      </trkpt>
      <trkpt lat="44.16894" lon="5.19142">
        <ele>899</ele>
        <time>2020-07-11T10:01:54.597Z</time>
      </trkpt>
      <trkpt lat="44.16903" lon="5.19137">
        <ele>899</ele>
        <time>2020-07-11T10:01:55.597Z</time>
      </trkpt>
      <trkpt lat="44.1691" lon="5.19133">
        <ele>898</ele>
        <time>2020-07-11T10:01:56.597Z</time>
      </trkpt>
      <trkpt lat="44.16921" lon="5.19126">
        <ele>897</ele>
        <time>2020-07-11T10:01:57.597Z</time>
      </trkpt>
      <trkpt lat="44.16928" lon="5.1912">
        <ele>896</ele>
        <time>2020-07-11T10:01:58.597Z</time>
      </trkpt>
      <trkpt lat="44.16935" lon="5.19112">
        <ele>896</ele>
        <time>2020-07-11T10:01:59.597Z</time>
      </trkpt>
      <trkpt lat="44.1694" lon="5.19102">
        <ele>895</ele>
        <time>2020-07-11T10:02:00.597Z</time>
      </trkpt>
      <trkpt lat="44.16944" lon="5.19091">
        <ele>894</ele>
        <time>2020-07-11T10:02:01.597Z</time>
      </trkpt>
      <trkpt lat="44.16946" lon="5.1908">
        <ele>894</ele>
        <time>2020-07-11T10:02:02.597Z</time>
      </trkpt>
      <trkpt lat="44.16944" lon="5.19069">
        <ele>893</ele>
        <time>2020-07-11T10:02:03.596Z</time>
      </trkpt>
      <trkpt lat="44.16941" lon="5.19059">
        <ele>893</ele>
        <time>2020-07-11T10:02:04.597Z</time>
      </trkpt>
      <trkpt lat="44.16935" lon="5.1905">
        <ele>892</ele>
        <time>2020-07-11T10:02:05.597Z</time>
      </trkpt>
      <trkpt lat="44.16928" lon="5.1904">
        <ele>892</ele>
        <time>2020-07-11T10:02:06.597Z</time>
      </trkpt>
      <trkpt lat="44.1692" lon="5.19031">
        <ele>891</ele>
        <time>2020-07-11T10:02:07.597Z</time>
      </trkpt>
      <trkpt lat="44.16912" lon="5.19023">
        <ele>891</ele>
        <time>2020-07-11T10:02:08.597Z</time>
      </trkpt>
      <trkpt lat="44.16904" lon="5.19014">
        <ele>890</ele>
        <time>2020-07-11T10:02:09.597Z</time>
      </trkpt>
      <trkpt lat="44.16895" lon="5.19005">
        <ele>890</ele>
        <time>2020-07-11T10:02:10.596Z</time>
      </trkpt>
      <trkpt lat="44.16887" lon="5.18997">
        <ele>890</ele>
        <time>2020-07-11T10:02:11.597Z</time>
      </trkpt>
      <trkpt lat="44.16879" lon="5.18989">
        <ele>889</ele>
        <time>2020-07-11T10:02:12.597Z</time>
      </trkpt>
      <trkpt lat="44.1687" lon="5.1898">
        <ele>889</ele>
        <time>2020-07-11T10:02:13.597Z</time>
      </trkpt>
      <trkpt lat="44.16862" lon="5.18972">
        <ele>889</ele>
        <time>2020-07-11T10:02:14.596Z</time>
      </trkpt>
      <trkpt lat="44.16853" lon="5.18963">
        <ele>889</ele>
        <time>2020-07-11T10:02:15.597Z</time>
      </trkpt>
      <trkpt lat="44.16845" lon="5.18954">
        <ele>888</ele>
        <time>2020-07-11T10:02:16.597Z</time>
      </trkpt>
      <trkpt lat="44.16837" lon="5.18945">
        <ele>887</ele>
        <time>2020-07-11T10:02:17.596Z</time>
      </trkpt>
      <trkpt lat="44.1683" lon="5.18935">
        <ele>886</ele>
        <time>2020-07-11T10:02:18.597Z</time>
      </trkpt>
      <trkpt lat="44.16823" lon="5.18925">
        <ele>886</ele>
        <time>2020-07-11T10:02:19.597Z</time>
      </trkpt>
      <trkpt lat="44.16819" lon="5.18912">
        <ele>885</ele>
        <time>2020-07-11T10:02:20.597Z</time>
      </trkpt>
      <trkpt lat="44.16816" lon="5.18899">
        <ele>884</ele>
        <time>2020-07-11T10:02:21.597Z</time>
      </trkpt>
      <trkpt lat="44.16816" lon="5.18885">
        <ele>883</ele>
        <time>2020-07-11T10:02:22.597Z</time>
      </trkpt>
      <trkpt lat="44.16818" lon="5.18872">
        <ele>883</ele>
        <time>2020-07-11T10:02:23.597Z</time>
      </trkpt>
      <trkpt lat="44.16822" lon="5.1886">
        <ele>883</ele>
        <time>2020-07-11T10:02:24.597Z</time>
      </trkpt>
      <trkpt lat="44.16828" lon="5.18847">
        <ele>883</ele>
        <time>2020-07-11T10:02:25.597Z</time>
      </trkpt>
      <trkpt lat="44.16835" lon="5.18832">
        <ele>883</ele>
        <time>2020-07-11T10:02:26.597Z</time>
      </trkpt>
      <trkpt lat="44.16841" lon="5.18819">
        <ele>883</ele>
        <time>2020-07-11T10:02:27.597Z</time>
      </trkpt>
      <trkpt lat="44.16848" lon="5.18805">
        <ele>883</ele>
        <time>2020-07-11T10:02:28.597Z</time>
      </trkpt>
      <trkpt lat="44.16854" lon="5.18793">
        <ele>882</ele>
        <time>2020-07-11T10:02:29.597Z</time>
      </trkpt>
      <trkpt lat="44.16861" lon="5.1878">
        <ele>882</ele>
        <time>2020-07-11T10:02:30.597Z</time>
      </trkpt>
      <trkpt lat="44.16868" lon="5.18768">
        <ele>881</ele>
        <time>2020-07-11T10:02:31.597Z</time>
      </trkpt>
      <trkpt lat="44.16874" lon="5.18755">
        <ele>880</ele>
        <time>2020-07-11T10:02:32.597Z</time>
      </trkpt>
      <trkpt lat="44.1688" lon="5.18743">
        <ele>879</ele>
        <time>2020-07-11T10:02:33.597Z</time>
      </trkpt>
      <trkpt lat="44.16886" lon="5.1873">
        <ele>878</ele>
        <time>2020-07-11T10:02:34.597Z</time>
      </trkpt>
      <trkpt lat="44.16891" lon="5.18717">
        <ele>877</ele>
        <time>2020-07-11T10:02:35.597Z</time>
      </trkpt>
      <trkpt lat="44.16895" lon="5.18703">
        <ele>876</ele>
        <time>2020-07-11T10:02:36.597Z</time>
      </trkpt>
      <trkpt lat="44.16898" lon="5.1869">
        <ele>876</ele>
        <time>2020-07-11T10:02:37.597Z</time>
      </trkpt>
      <trkpt lat="44.169" lon="5.18676">
        <ele>875</ele>
        <time>2020-07-11T10:02:38.597Z</time>
      </trkpt>
      <trkpt lat="44.16898" lon="5.18662">
        <ele>873</ele>
        <time>2020-07-11T10:02:39.597Z</time>
      </trkpt>
      <trkpt lat="44.16895" lon="5.18649">
        <ele>872</ele>
        <time>2020-07-11T10:02:40.597Z</time>
      </trkpt>
      <trkpt lat="44.16891" lon="5.18637">
        <ele>872</ele>
        <time>2020-07-11T10:02:41.597Z</time>
      </trkpt>
      <trkpt lat="44.16886" lon="5.18626">
        <ele>871</ele>
        <time>2020-07-11T10:02:42.597Z</time>
      </trkpt>
      <trkpt lat="44.16879" lon="5.18615">
        <ele>870</ele>
        <time>2020-07-11T10:02:43.597Z</time>
      </trkpt>
      <trkpt lat="44.16872" lon="5.18604">
        <ele>869</ele>
        <time>2020-07-11T10:02:44.597Z</time>
      </trkpt>
      <trkpt lat="44.16864" lon="5.18594">
        <ele>868</ele>
        <time>2020-07-11T10:02:45.597Z</time>
      </trkpt>
      <trkpt lat="44.16856" lon="5.18583">
        <ele>867</ele>
        <time>2020-07-11T10:02:46.597Z</time>
      </trkpt>
      <trkpt lat="44.16848" lon="5.18572">
        <ele>866</ele>
        <time>2020-07-11T10:02:47.597Z</time>
      </trkpt>
      <trkpt lat="44.16841" lon="5.1856">
        <ele>866</ele>
        <time>2020-07-11T10:02:48.597Z</time>
      </trkpt>
      <trkpt lat="44.16834" lon="5.18547">
        <ele>865</ele>
        <time>2020-07-11T10:02:49.596Z</time>
      </trkpt>
      <trkpt lat="44.16828" lon="5.18534">
        <ele>864</ele>
        <time>2020-07-11T10:02:50.597Z</time>
      </trkpt>
      <trkpt lat="44.16823" lon="5.1852">
        <ele>863</ele>
        <time>2020-07-11T10:02:51.597Z</time>
      </trkpt>
      <trkpt lat="44.16819" lon="5.18506">
        <ele>862</ele>
        <time>2020-07-11T10:02:52.597Z</time>
      </trkpt>
      <trkpt lat="44.16815" lon="5.18491">
        <ele>861</ele>
        <time>2020-07-11T10:02:53.597Z</time>
      </trkpt>
      <trkpt lat="44.16812" lon="5.18476">
        <ele>860</ele>
        <time>2020-07-11T10:02:54.597Z</time>
      </trkpt>
      <trkpt lat="44.16808" lon="5.18461">
        <ele>859</ele>
        <time>2020-07-11T10:02:55.597Z</time>
      </trkpt>
      <trkpt lat="44.16805" lon="5.18445">
        <ele>859</ele>
        <time>2020-07-11T10:02:56.597Z</time>
      </trkpt>
      <trkpt lat="44.16803" lon="5.1843">
        <ele>858</ele>
        <time>2020-07-11T10:02:57.596Z</time>
      </trkpt>
      <trkpt lat="44.168" lon="5.18414">
        <ele>858</ele>
        <time>2020-07-11T10:02:58.597Z</time>
      </trkpt>
      <trkpt lat="44.16798" lon="5.18397">
        <ele>857</ele>
        <time>2020-07-11T10:02:59.597Z</time>
      </trkpt>
      <trkpt lat="44.16796" lon="5.18381">
        <ele>856</ele>
        <time>2020-07-11T10:03:00.597Z</time>
      </trkpt>
      <trkpt lat="44.16794" lon="5.18368">
        <ele>855</ele>
        <time>2020-07-11T10:03:01.597Z</time>
      </trkpt>
      <trkpt lat="44.16791" lon="5.18348">
        <ele>854</ele>
        <time>2020-07-11T10:03:02.597Z</time>
      </trkpt>
      <trkpt lat="44.16787" lon="5.18332">
        <ele>854</ele>
        <time>2020-07-11T10:03:03.596Z</time>
      </trkpt>
      <trkpt lat="44.16784" lon="5.18316">
        <ele>853</ele>
        <time>2020-07-11T10:03:04.597Z</time>
      </trkpt>
      <trkpt lat="44.1678" lon="5.183">
        <ele>852</ele>
        <time>2020-07-11T10:03:05.596Z</time>
      </trkpt>
      <trkpt lat="44.16776" lon="5.18285">
        <ele>852</ele>
        <time>2020-07-11T10:03:06.597Z</time>
      </trkpt>
      <trkpt lat="44.16772" lon="5.18269">
        <ele>851</ele>
        <time>2020-07-11T10:03:07.597Z</time>
      </trkpt>
      <trkpt lat="44.16767" lon="5.18253">
        <ele>850</ele>
        <time>2020-07-11T10:03:08.597Z</time>
      </trkpt>
      <trkpt lat="44.16762" lon="5.18238">
        <ele>850</ele>
        <time>2020-07-11T10:03:09.597Z</time>
      </trkpt>
      <trkpt lat="44.16756" lon="5.18222">
        <ele>849</ele>
        <time>2020-07-11T10:03:10.596Z</time>
      </trkpt>
      <trkpt lat="44.1675" lon="5.18207">
        <ele>848</ele>
        <time>2020-07-11T10:03:11.597Z</time>
      </trkpt>
      <trkpt lat="44.16743" lon="5.18192">
        <ele>848</ele>
        <time>2020-07-11T10:03:12.597Z</time>
      </trkpt>
      <trkpt lat="44.16737" lon="5.18178">
        <ele>847</ele>
        <time>2020-07-11T10:03:13.596Z</time>
      </trkpt>
      <trkpt lat="44.16731" lon="5.18164">
        <ele>846</ele>
        <time>2020-07-11T10:03:14.597Z</time>
      </trkpt>
      <trkpt lat="44.16725" lon="5.18149">
        <ele>846</ele>
        <time>2020-07-11T10:03:15.597Z</time>
      </trkpt>
      <trkpt lat="44.16718" lon="5.18135">
        <ele>845</ele>
        <time>2020-07-11T10:03:16.597Z</time>
      </trkpt>
      <trkpt lat="44.16712" lon="5.18121">
        <ele>844</ele>
        <time>2020-07-11T10:03:17.597Z</time>
      </trkpt>
      <trkpt lat="44.16707" lon="5.18107">
        <ele>843</ele>
        <time>2020-07-11T10:03:18.597Z</time>
      </trkpt>
      <trkpt lat="44.16701" lon="5.18094">
        <ele>842</ele>
        <time>2020-07-11T10:03:19.597Z</time>
      </trkpt>
      <trkpt lat="44.16695" lon="5.1808">
        <ele>841</ele>
        <time>2020-07-11T10:03:20.597Z</time>
      </trkpt>
      <trkpt lat="44.16689" lon="5.18067">
        <ele>840</ele>
        <time>2020-07-11T10:03:21.597Z</time>
      </trkpt>
      <trkpt lat="44.16684" lon="5.18053">
        <ele>840</ele>
        <time>2020-07-11T10:03:22.597Z</time>
      </trkpt>
      <trkpt lat="44.16679" lon="5.18039">
        <ele>839</ele>
        <time>2020-07-11T10:03:23.597Z</time>
      </trkpt>
      <trkpt lat="44.16675" lon="5.18024">
        <ele>838</ele>
        <time>2020-07-11T10:03:24.597Z</time>
      </trkpt>
      <trkpt lat="44.16674" lon="5.18007">
        <ele>838</ele>
        <time>2020-07-11T10:03:25.597Z</time>
      </trkpt>
      <trkpt lat="44.16676" lon="5.17989">
        <ele>837</ele>
        <time>2020-07-11T10:03:26.597Z</time>
      </trkpt>
      <trkpt lat="44.16678" lon="5.17972">
        <ele>837</ele>
        <time>2020-07-11T10:03:27.597Z</time>
      </trkpt>
      <trkpt lat="44.16681" lon="5.17955">
        <ele>836</ele>
        <time>2020-07-11T10:03:28.597Z</time>
      </trkpt>
      <trkpt lat="44.16684" lon="5.17938">
        <ele>834</ele>
        <time>2020-07-11T10:03:29.597Z</time>
      </trkpt>
      <trkpt lat="44.16687" lon="5.17921">
        <ele>833</ele>
        <time>2020-07-11T10:03:30.596Z</time>
      </trkpt>
      <trkpt lat="44.1669" lon="5.17903">
        <ele>832</ele>
        <time>2020-07-11T10:03:31.597Z</time>
      </trkpt>
      <trkpt lat="44.16693" lon="5.17886">
        <ele>831</ele>
        <time>2020-07-11T10:03:32.597Z</time>
      </trkpt>
      <trkpt lat="44.16697" lon="5.17869">
        <ele>830</ele>
        <time>2020-07-11T10:03:33.597Z</time>
      </trkpt>
      <trkpt lat="44.16701" lon="5.17852">
        <ele>829</ele>
        <time>2020-07-11T10:03:34.597Z</time>
      </trkpt>
      <trkpt lat="44.16705" lon="5.17835">
        <ele>828</ele>
        <time>2020-07-11T10:03:35.597Z</time>
      </trkpt>
      <trkpt lat="44.1671" lon="5.17818">
        <ele>827</ele>
        <time>2020-07-11T10:03:36.596Z</time>
      </trkpt>
      <trkpt lat="44.16716" lon="5.17802">
        <ele>825</ele>
        <time>2020-07-11T10:03:37.596Z</time>
      </trkpt>
      <trkpt lat="44.16723" lon="5.17787">
        <ele>824</ele>
        <time>2020-07-11T10:03:38.597Z</time>
      </trkpt>
      <trkpt lat="44.16731" lon="5.17772">
        <ele>823</ele>
        <time>2020-07-11T10:03:39.597Z</time>
      </trkpt>
      <trkpt lat="44.16738" lon="5.17756">
        <ele>822</ele>
        <time>2020-07-11T10:03:40.597Z</time>
      </trkpt>
      <trkpt lat="44.16744" lon="5.17739">
        <ele>820</ele>
        <time>2020-07-11T10:03:41.596Z</time>
      </trkpt>
      <trkpt lat="44.16749" lon="5.17722">
        <ele>819</ele>
        <time>2020-07-11T10:03:42.597Z</time>
      </trkpt>
      <trkpt lat="44.16753" lon="5.17704">
        <ele>818</ele>
        <time>2020-07-11T10:03:43.597Z</time>
      </trkpt>
      <trkpt lat="44.16755" lon="5.17686">
        <ele>817</ele>
        <time>2020-07-11T10:03:44.597Z</time>
      </trkpt>
      <trkpt lat="44.16755" lon="5.17665">
        <ele>816</ele>
        <time>2020-07-11T10:03:45.596Z</time>
      </trkpt>
      <trkpt lat="44.16754" lon="5.17651">
        <ele>815</ele>
        <time>2020-07-11T10:03:46.597Z</time>
      </trkpt>
      <trkpt lat="44.16753" lon="5.17632">
        <ele>814</ele>
        <time>2020-07-11T10:03:47.597Z</time>
      </trkpt>
      <trkpt lat="44.16749" lon="5.17611">
        <ele>813</ele>
        <time>2020-07-11T10:03:48.596Z</time>
      </trkpt>
      <trkpt lat="44.16744" lon="5.17594">
        <ele>812</ele>
        <time>2020-07-11T10:03:49.597Z</time>
      </trkpt>
      <trkpt lat="44.16739" lon="5.17578">
        <ele>811</ele>
        <time>2020-07-11T10:03:50.597Z</time>
      </trkpt>
      <trkpt lat="44.16733" lon="5.17562">
        <ele>811</ele>
        <time>2020-07-11T10:03:51.597Z</time>
      </trkpt>
      <trkpt lat="44.16728" lon="5.17545">
        <ele>810</ele>
        <time>2020-07-11T10:03:52.596Z</time>
      </trkpt>
      <trkpt lat="44.16724" lon="5.17527">
        <ele>809</ele>
        <time>2020-07-11T10:03:53.597Z</time>
      </trkpt>
      <trkpt lat="44.16721" lon="5.1751">
        <ele>809</ele>
        <time>2020-07-11T10:03:54.597Z</time>
      </trkpt>
      <trkpt lat="44.16719" lon="5.17492">
        <ele>808</ele>
        <time>2020-07-11T10:03:55.597Z</time>
      </trkpt>
      <trkpt lat="44.16718" lon="5.17473">
        <ele>807</ele>
        <time>2020-07-11T10:03:56.597Z</time>
      </trkpt>
      <trkpt lat="44.16717" lon="5.17458">
        <ele>806</ele>
        <time>2020-07-11T10:03:57.597Z</time>
      </trkpt>
      <trkpt lat="44.16716" lon="5.17437">
        <ele>805</ele>
        <time>2020-07-11T10:03:58.597Z</time>
      </trkpt>
      <trkpt lat="44.16716" lon="5.17419">
        <ele>803</ele>
        <time>2020-07-11T10:03:59.596Z</time>
      </trkpt>
      <trkpt lat="44.16715" lon="5.17401">
        <ele>802</ele>
        <time>2020-07-11T10:04:00.597Z</time>
      </trkpt>
      <trkpt lat="44.16715" lon="5.17383">
        <ele>801</ele>
        <time>2020-07-11T10:04:01.597Z</time>
      </trkpt>
      <trkpt lat="44.16715" lon="5.17366">
        <ele>800</ele>
        <time>2020-07-11T10:04:02.597Z</time>
      </trkpt>
      <trkpt lat="44.16715" lon="5.17348">
        <ele>799</ele>
        <time>2020-07-11T10:04:03.596Z</time>
      </trkpt>
      <trkpt lat="44.16716" lon="5.17331">
        <ele>798</ele>
        <time>2020-07-11T10:04:04.597Z</time>
      </trkpt>
      <trkpt lat="44.16716" lon="5.17312">
        <ele>796</ele>
        <time>2020-07-11T10:04:05.597Z</time>
      </trkpt>
      <trkpt lat="44.16715" lon="5.17294">
        <ele>795</ele>
        <time>2020-07-11T10:04:06.597Z</time>
      </trkpt>
      <trkpt lat="44.16715" lon="5.17274">
        <ele>793</ele>
        <time>2020-07-11T10:04:07.596Z</time>
      </trkpt>
      <trkpt lat="44.16715" lon="5.17256">
        <ele>792</ele>
        <time>2020-07-11T10:04:08.597Z</time>
      </trkpt>
      <trkpt lat="44.16716" lon="5.17237">
        <ele>790</ele>
        <time>2020-07-11T10:04:09.597Z</time>
      </trkpt>
      <trkpt lat="44.16716" lon="5.17217">
        <ele>789</ele>
        <time>2020-07-11T10:04:10.597Z</time>
      </trkpt>
      <trkpt lat="44.16717" lon="5.17198">
        <ele>787</ele>
        <time>2020-07-11T10:04:11.597Z</time>
      </trkpt>
      <trkpt lat="44.16717" lon="5.17178">
        <ele>786</ele>
        <time>2020-07-11T10:04:12.596Z</time>
      </trkpt>
      <trkpt lat="44.16717" lon="5.17159">
        <ele>785</ele>
        <time>2020-07-11T10:04:13.597Z</time>
      </trkpt>
      <trkpt lat="44.16717" lon="5.1714">
        <ele>784</ele>
        <time>2020-07-11T10:04:14.597Z</time>
      </trkpt>
      <trkpt lat="44.16718" lon="5.1712">
        <ele>783</ele>
        <time>2020-07-11T10:04:15.597Z</time>
      </trkpt>
      <trkpt lat="44.1672" lon="5.171">
        <ele>782</ele>
        <time>2020-07-11T10:04:16.597Z</time>
      </trkpt>
      <trkpt lat="44.16721" lon="5.1708">
        <ele>781</ele>
        <time>2020-07-11T10:04:17.597Z</time>
      </trkpt>
      <trkpt lat="44.16723" lon="5.1706">
        <ele>780</ele>
        <time>2020-07-11T10:04:18.597Z</time>
      </trkpt>
      <trkpt lat="44.16724" lon="5.17041">
        <ele>778</ele>
        <time>2020-07-11T10:04:19.597Z</time>
      </trkpt>
      <trkpt lat="44.16726" lon="5.17022">
        <ele>777</ele>
        <time>2020-07-11T10:04:20.597Z</time>
      </trkpt>
      <trkpt lat="44.16727" lon="5.17004">
        <ele>775</ele>
        <time>2020-07-11T10:04:21.597Z</time>
      </trkpt>
      <trkpt lat="44.16728" lon="5.16985">
        <ele>773</ele>
        <time>2020-07-11T10:04:22.597Z</time>
      </trkpt>
      <trkpt lat="44.16728" lon="5.16965">
        <ele>772</ele>
        <time>2020-07-11T10:04:23.597Z</time>
      </trkpt>
      <trkpt lat="44.16727" lon="5.16946">
        <ele>771</ele>
        <time>2020-07-11T10:04:24.597Z</time>
      </trkpt>
      <trkpt lat="44.16724" lon="5.16928">
        <ele>770</ele>
        <time>2020-07-11T10:04:25.597Z</time>
      </trkpt>
      <trkpt lat="44.1672" lon="5.1691">
        <ele>769</ele>
        <time>2020-07-11T10:04:26.597Z</time>
      </trkpt>
      <trkpt lat="44.16715" lon="5.16894">
        <ele>768</ele>
        <time>2020-07-11T10:04:27.597Z</time>
      </trkpt>
      <trkpt lat="44.1671" lon="5.16877">
        <ele>767</ele>
        <time>2020-07-11T10:04:28.597Z</time>
      </trkpt>
      <trkpt lat="44.16704" lon="5.1686">
        <ele>767</ele>
        <time>2020-07-11T10:04:29.597Z</time>
      </trkpt>
      <trkpt lat="44.16697" lon="5.1684">
        <ele>766</ele>
        <time>2020-07-11T10:04:30.597Z</time>
      </trkpt>
      <trkpt lat="44.16692" lon="5.16827">
        <ele>765</ele>
        <time>2020-07-11T10:04:31.597Z</time>
      </trkpt>
      <trkpt lat="44.16685" lon="5.1681">
        <ele>765</ele>
        <time>2020-07-11T10:04:32.597Z</time>
      </trkpt>
      <trkpt lat="44.16677" lon="5.16795">
        <ele>764</ele>
        <time>2020-07-11T10:04:33.597Z</time>
      </trkpt>
      <trkpt lat="44.16668" lon="5.16781">
        <ele>763</ele>
        <time>2020-07-11T10:04:34.597Z</time>
      </trkpt>
      <trkpt lat="44.16661" lon="5.16766">
        <ele>762</ele>
        <time>2020-07-11T10:04:35.597Z</time>
      </trkpt>
      <trkpt lat="44.16653" lon="5.16751">
        <ele>761</ele>
        <time>2020-07-11T10:04:36.597Z</time>
      </trkpt>
      <trkpt lat="44.16645" lon="5.16737">
        <ele>761</ele>
        <time>2020-07-11T10:04:37.597Z</time>
      </trkpt>
      <trkpt lat="44.16637" lon="5.16721">
        <ele>760</ele>
        <time>2020-07-11T10:04:38.597Z</time>
      </trkpt>
      <trkpt lat="44.1663" lon="5.16704">
        <ele>759</ele>
        <time>2020-07-11T10:04:39.597Z</time>
      </trkpt>
      <trkpt lat="44.16624" lon="5.16688">
        <ele>758</ele>
        <time>2020-07-11T10:04:40.597Z</time>
      </trkpt>
      <trkpt lat="44.16619" lon="5.16672">
        <ele>758</ele>
        <time>2020-07-11T10:04:41.596Z</time>
      </trkpt>
      <trkpt lat="44.16615" lon="5.16654">
        <ele>758</ele>
        <time>2020-07-11T10:04:42.597Z</time>
      </trkpt>
      <trkpt lat="44.16611" lon="5.16637">
        <ele>758</ele>
        <time>2020-07-11T10:04:43.597Z</time>
      </trkpt>
      <trkpt lat="44.16607" lon="5.1662">
        <ele>757</ele>
        <time>2020-07-11T10:04:44.597Z</time>
      </trkpt>
      <trkpt lat="44.16604" lon="5.16603">
        <ele>757</ele>
        <time>2020-07-11T10:04:45.597Z</time>
      </trkpt>
      <trkpt lat="44.16601" lon="5.16586">
        <ele>756</ele>
        <time>2020-07-11T10:04:46.597Z</time>
      </trkpt>
      <trkpt lat="44.166" lon="5.16568">
        <ele>755</ele>
        <time>2020-07-11T10:04:47.597Z</time>
      </trkpt>
      <trkpt lat="44.16598" lon="5.1655">
        <ele>755</ele>
        <time>2020-07-11T10:04:48.596Z</time>
      </trkpt>
      <trkpt lat="44.16596" lon="5.16531">
        <ele>754</ele>
        <time>2020-07-11T10:04:49.597Z</time>
      </trkpt>
      <trkpt lat="44.16598" lon="5.16511">
        <ele>753</ele>
        <time>2020-07-11T10:04:50.597Z</time>
      </trkpt>
      <trkpt lat="44.16597" lon="5.16494">
        <ele>752</ele>
        <time>2020-07-11T10:04:51.597Z</time>
      </trkpt>
      <trkpt lat="44.16595" lon="5.16476">
        <ele>752</ele>
        <time>2020-07-11T10:04:52.597Z</time>
      </trkpt>
      <trkpt lat="44.16593" lon="5.16458">
        <ele>751</ele>
        <time>2020-07-11T10:04:53.597Z</time>
      </trkpt>
      <trkpt lat="44.16591" lon="5.1644">
        <ele>750</ele>
        <time>2020-07-11T10:04:54.596Z</time>
      </trkpt>
      <trkpt lat="44.16588" lon="5.16423">
        <ele>749</ele>
        <time>2020-07-11T10:04:55.597Z</time>
      </trkpt>
      <trkpt lat="44.16585" lon="5.16404">
        <ele>748</ele>
        <time>2020-07-11T10:04:56.597Z</time>
      </trkpt>
      <trkpt lat="44.16581" lon="5.16385">
        <ele>748</ele>
        <time>2020-07-11T10:04:57.597Z</time>
      </trkpt>
      <trkpt lat="44.16579" lon="5.16365">
        <ele>747</ele>
        <time>2020-07-11T10:04:58.597Z</time>
      </trkpt>
      <trkpt lat="44.16574" lon="5.16346">
        <ele>746</ele>
        <time>2020-07-11T10:04:59.597Z</time>
      </trkpt>
      <trkpt lat="44.16569" lon="5.16328">
        <ele>746</ele>
        <time>2020-07-11T10:05:00.596Z</time>
      </trkpt>
      <trkpt lat="44.16562" lon="5.16313">
        <ele>745</ele>
        <time>2020-07-11T10:05:01.597Z</time>
      </trkpt>
      <trkpt lat="44.16555" lon="5.16297">
        <ele>744</ele>
        <time>2020-07-11T10:05:02.596Z</time>
      </trkpt>
      <trkpt lat="44.16547" lon="5.16282">
        <ele>743</ele>
        <time>2020-07-11T10:05:03.596Z</time>
      </trkpt>
      <trkpt lat="44.16539" lon="5.16268">
        <ele>742</ele>
        <time>2020-07-11T10:05:04.597Z</time>
      </trkpt>
      <trkpt lat="44.16528" lon="5.16254">
        <ele>741</ele>
        <time>2020-07-11T10:05:05.597Z</time>
      </trkpt>
      <trkpt lat="44.1652" lon="5.16243">
        <ele>740</ele>
        <time>2020-07-11T10:05:06.597Z</time>
      </trkpt>
      <trkpt lat="44.16511" lon="5.1623">
        <ele>739</ele>
        <time>2020-07-11T10:05:07.597Z</time>
      </trkpt>
      <trkpt lat="44.16503" lon="5.16217">
        <ele>738</ele>
        <time>2020-07-11T10:05:08.597Z</time>
      </trkpt>
      <trkpt lat="44.16496" lon="5.16203">
        <ele>737</ele>
        <time>2020-07-11T10:05:09.597Z</time>
      </trkpt>
      <trkpt lat="44.1649" lon="5.16188">
        <ele>736</ele>
        <time>2020-07-11T10:05:10.597Z</time>
      </trkpt>
      <trkpt lat="44.16487" lon="5.1617">
        <ele>735</ele>
        <time>2020-07-11T10:05:11.597Z</time>
      </trkpt>
      <trkpt lat="44.16483" lon="5.16152">
        <ele>735</ele>
        <time>2020-07-11T10:05:12.597Z</time>
      </trkpt>
      <trkpt lat="44.16479" lon="5.16133">
        <ele>734</ele>
        <time>2020-07-11T10:05:13.597Z</time>
      </trkpt>
      <trkpt lat="44.16477" lon="5.16113">
        <ele>733</ele>
        <time>2020-07-11T10:05:14.597Z</time>
      </trkpt>
      <trkpt lat="44.16475" lon="5.16093">
        <ele>731</ele>
        <time>2020-07-11T10:05:15.597Z</time>
      </trkpt>
      <trkpt lat="44.16472" lon="5.16073">
        <ele>730</ele>
        <time>2020-07-11T10:05:16.597Z</time>
      </trkpt>
      <trkpt lat="44.16468" lon="5.16055">
        <ele>729</ele>
        <time>2020-07-11T10:05:17.597Z</time>
      </trkpt>
      <trkpt lat="44.16463" lon="5.16037">
        <ele>729</ele>
        <time>2020-07-11T10:05:18.597Z</time>
      </trkpt>
      <trkpt lat="44.16457" lon="5.1602">
        <ele>728</ele>
        <time>2020-07-11T10:05:19.597Z</time>
      </trkpt>
      <trkpt lat="44.1645" lon="5.16003">
        <ele>727</ele>
        <time>2020-07-11T10:05:20.597Z</time>
      </trkpt>
      <trkpt lat="44.16443" lon="5.15988">
        <ele>726</ele>
        <time>2020-07-11T10:05:21.596Z</time>
      </trkpt>
      <trkpt lat="44.16434" lon="5.15974">
        <ele>725</ele>
        <time>2020-07-11T10:05:22.596Z</time>
      </trkpt>
      <trkpt lat="44.16426" lon="5.1596">
        <ele>723</ele>
        <time>2020-07-11T10:05:23.597Z</time>
      </trkpt>
      <trkpt lat="44.16416" lon="5.15948">
        <ele>722</ele>
        <time>2020-07-11T10:05:24.597Z</time>
      </trkpt>
      <trkpt lat="44.16406" lon="5.15938">
        <ele>721</ele>
        <time>2020-07-11T10:05:25.597Z</time>
      </trkpt>
      <trkpt lat="44.16394" lon="5.15931">
        <ele>720</ele>
        <time>2020-07-11T10:05:26.597Z</time>
      </trkpt>
      <trkpt lat="44.16381" lon="5.15926">
        <ele>719</ele>
        <time>2020-07-11T10:05:27.597Z</time>
      </trkpt>
      <trkpt lat="44.16368" lon="5.15923">
        <ele>718</ele>
        <time>2020-07-11T10:05:28.597Z</time>
      </trkpt>
      <trkpt lat="44.16356" lon="5.1592">
        <ele>717</ele>
        <time>2020-07-11T10:05:29.597Z</time>
      </trkpt>
      <trkpt lat="44.16345" lon="5.15919">
        <ele>716</ele>
        <time>2020-07-11T10:05:30.597Z</time>
      </trkpt>
      <trkpt lat="44.16333" lon="5.15917">
        <ele>715</ele>
        <time>2020-07-11T10:05:31.597Z</time>
      </trkpt>
      <trkpt lat="44.16322" lon="5.15914">
        <ele>713</ele>
        <time>2020-07-11T10:05:32.597Z</time>
      </trkpt>
      <trkpt lat="44.16311" lon="5.15909">
        <ele>712</ele>
        <time>2020-07-11T10:05:33.596Z</time>
      </trkpt>
      <trkpt lat="44.163" lon="5.15903">
        <ele>712</ele>
        <time>2020-07-11T10:05:34.596Z</time>
      </trkpt>
      <trkpt lat="44.16291" lon="5.15896">
        <ele>711</ele>
        <time>2020-07-11T10:05:35.597Z</time>
      </trkpt>
      <trkpt lat="44.16281" lon="5.15888">
        <ele>710</ele>
        <time>2020-07-11T10:05:36.597Z</time>
      </trkpt>
      <trkpt lat="44.16275" lon="5.15883">
        <ele>709</ele>
        <time>2020-07-11T10:05:37.597Z</time>
      </trkpt>
      <trkpt lat="44.16264" lon="5.15875">
        <ele>707</ele>
        <time>2020-07-11T10:05:38.596Z</time>
      </trkpt>
      <trkpt lat="44.16256" lon="5.15867">
        <ele>706</ele>
        <time>2020-07-11T10:05:39.597Z</time>
      </trkpt>
      <trkpt lat="44.16249" lon="5.15857">
        <ele>705</ele>
        <time>2020-07-11T10:05:40.597Z</time>
      </trkpt>
      <trkpt lat="44.16245" lon="5.15845">
        <ele>705</ele>
        <time>2020-07-11T10:05:41.597Z</time>
      </trkpt>
      <trkpt lat="44.16242" lon="5.15831">
        <ele>705</ele>
        <time>2020-07-11T10:05:42.597Z</time>
      </trkpt>
      <trkpt lat="44.1624" lon="5.15817">
        <ele>704</ele>
        <time>2020-07-11T10:05:43.596Z</time>
      </trkpt>
      <trkpt lat="44.16238" lon="5.15802">
        <ele>704</ele>
        <time>2020-07-11T10:05:44.597Z</time>
      </trkpt>
      <trkpt lat="44.16237" lon="5.15788">
        <ele>704</ele>
        <time>2020-07-11T10:05:45.596Z</time>
      </trkpt>
      <trkpt lat="44.16236" lon="5.15772">
        <ele>703</ele>
        <time>2020-07-11T10:05:46.596Z</time>
      </trkpt>
      <trkpt lat="44.16236" lon="5.15756">
        <ele>703</ele>
        <time>2020-07-11T10:05:47.596Z</time>
      </trkpt>
      <trkpt lat="44.16235" lon="5.15738">
        <ele>703</ele>
        <time>2020-07-11T10:05:48.597Z</time>
      </trkpt>
      <trkpt lat="44.16234" lon="5.15723">
        <ele>702</ele>
        <time>2020-07-11T10:05:49.597Z</time>
      </trkpt>
      <trkpt lat="44.16232" lon="5.15709">
        <ele>702</ele>
        <time>2020-07-11T10:05:50.597Z</time>
      </trkpt>
      <trkpt lat="44.16231" lon="5.15695">
        <ele>701</ele>
        <time>2020-07-11T10:05:51.596Z</time>
      </trkpt>
      <trkpt lat="44.1623" lon="5.15681">
        <ele>701</ele>
        <time>2020-07-11T10:05:52.596Z</time>
      </trkpt>
      <trkpt lat="44.16228" lon="5.15667">
        <ele>700</ele>
        <time>2020-07-11T10:05:53.597Z</time>
      </trkpt>
      <trkpt lat="44.16226" lon="5.15652">
        <ele>699</ele>
        <time>2020-07-11T10:05:54.597Z</time>
      </trkpt>
      <trkpt lat="44.16224" lon="5.15639">
        <ele>699</ele>
        <time>2020-07-11T10:05:55.596Z</time>
      </trkpt>
      <trkpt lat="44.16219" lon="5.15626">
        <ele>699</ele>
        <time>2020-07-11T10:05:56.597Z</time>
      </trkpt>
      <trkpt lat="44.16214" lon="5.15612">
        <ele>698</ele>
        <time>2020-07-11T10:05:57.597Z</time>
      </trkpt>
      <trkpt lat="44.1621" lon="5.156">
        <ele>698</ele>
        <time>2020-07-11T10:05:58.596Z</time>
      </trkpt>
      <trkpt lat="44.16205" lon="5.15586">
        <ele>697</ele>
        <time>2020-07-11T10:05:59.597Z</time>
      </trkpt>
      <trkpt lat="44.162" lon="5.15572">
        <ele>697</ele>
        <time>2020-07-11T10:06:00.597Z</time>
      </trkpt>
      <trkpt lat="44.16195" lon="5.15558">
        <ele>697</ele>
        <time>2020-07-11T10:06:01.597Z</time>
      </trkpt>
      <trkpt lat="44.1619" lon="5.15547">
        <ele>697</ele>
        <time>2020-07-11T10:06:02.596Z</time>
      </trkpt>
      <trkpt lat="44.16182" lon="5.15533">
        <ele>697</ele>
        <time>2020-07-11T10:06:03.597Z</time>
      </trkpt>
      <trkpt lat="44.16174" lon="5.15521">
        <ele>696</ele>
        <time>2020-07-11T10:06:04.597Z</time>
      </trkpt>
      <trkpt lat="44.16166" lon="5.1551">
        <ele>695</ele>
        <time>2020-07-11T10:06:05.597Z</time>
      </trkpt>
      <trkpt lat="44.16156" lon="5.15499">
        <ele>695</ele>
        <time>2020-07-11T10:06:06.597Z</time>
      </trkpt>
      <trkpt lat="44.16146" lon="5.1549">
        <ele>695</ele>
        <time>2020-07-11T10:06:07.596Z</time>
      </trkpt>
      <trkpt lat="44.16136" lon="5.15482">
        <ele>695</ele>
        <time>2020-07-11T10:06:08.597Z</time>
      </trkpt>
      <trkpt lat="44.16126" lon="5.15473">
        <ele>695</ele>
        <time>2020-07-11T10:06:09.597Z</time>
      </trkpt>
      <trkpt lat="44.16115" lon="5.15465">
        <ele>695</ele>
        <time>2020-07-11T10:06:10.597Z</time>
      </trkpt>
      <trkpt lat="44.16104" lon="5.15457">
        <ele>695</ele>
        <time>2020-07-11T10:06:11.596Z</time>
      </trkpt>
      <trkpt lat="44.16094" lon="5.1545">
        <ele>694</ele>
        <time>2020-07-11T10:06:12.596Z</time>
      </trkpt>
      <trkpt lat="44.16083" lon="5.15441">
        <ele>694</ele>
        <time>2020-07-11T10:06:13.596Z</time>
      </trkpt>
      <trkpt lat="44.16073" lon="5.15433">
        <ele>694</ele>
        <time>2020-07-11T10:06:14.596Z</time>
      </trkpt>
      <trkpt lat="44.16062" lon="5.15424">
        <ele>694</ele>
        <time>2020-07-11T10:06:15.597Z</time>
      </trkpt>
      <trkpt lat="44.16051" lon="5.15416">
        <ele>693</ele>
        <time>2020-07-11T10:06:16.597Z</time>
      </trkpt>
      <trkpt lat="44.16041" lon="5.15408">
        <ele>693</ele>
        <time>2020-07-11T10:06:17.597Z</time>
      </trkpt>
      <trkpt lat="44.1603" lon="5.15401">
        <ele>692</ele>
        <time>2020-07-11T10:06:18.597Z</time>
      </trkpt>
      <trkpt lat="44.16018" lon="5.15398">
        <ele>691</ele>
        <time>2020-07-11T10:06:19.596Z</time>
      </trkpt>
      <trkpt lat="44.16005" lon="5.15396">
        <ele>690</ele>
        <time>2020-07-11T10:06:20.597Z</time>
      </trkpt>
      <trkpt lat="44.15992" lon="5.15395">
        <ele>689</ele>
        <time>2020-07-11T10:06:21.597Z</time>
      </trkpt>
      <trkpt lat="44.1598" lon="5.15393">
        <ele>688</ele>
        <time>2020-07-11T10:06:22.597Z</time>
      </trkpt>
      <trkpt lat="44.15967" lon="5.15391">
        <ele>688</ele>
        <time>2020-07-11T10:06:23.596Z</time>
      </trkpt>
      <trkpt lat="44.15955" lon="5.1539">
        <ele>687</ele>
        <time>2020-07-11T10:06:24.597Z</time>
      </trkpt>
      <trkpt lat="44.15942" lon="5.15389">
        <ele>686</ele>
        <time>2020-07-11T10:06:25.597Z</time>
      </trkpt>
      <trkpt lat="44.15929" lon="5.1539">
        <ele>685</ele>
        <time>2020-07-11T10:06:26.597Z</time>
      </trkpt>
      <trkpt lat="44.15916" lon="5.15392">
        <ele>684</ele>
        <time>2020-07-11T10:06:27.596Z</time>
      </trkpt>
      <trkpt lat="44.15903" lon="5.15395">
        <ele>682</ele>
        <time>2020-07-11T10:06:28.597Z</time>
      </trkpt>
      <trkpt lat="44.15891" lon="5.15397">
        <ele>680</ele>
        <time>2020-07-11T10:06:29.597Z</time>
      </trkpt>
      <trkpt lat="44.1588" lon="5.15397">
        <ele>679</ele>
        <time>2020-07-11T10:06:30.596Z</time>
      </trkpt>
      <trkpt lat="44.15869" lon="5.15392">
        <ele>678</ele>
        <time>2020-07-11T10:06:31.597Z</time>
      </trkpt>
      <trkpt lat="44.15862" lon="5.15386">
        <ele>677</ele>
        <time>2020-07-11T10:06:32.597Z</time>
      </trkpt>
      <trkpt lat="44.15855" lon="5.15376">
        <ele>676</ele>
        <time>2020-07-11T10:06:33.597Z</time>
      </trkpt>
      <trkpt lat="44.15846" lon="5.1536">
        <ele>674</ele>
        <time>2020-07-11T10:06:34.597Z</time>
      </trkpt>
      <trkpt lat="44.1584" lon="5.15344">
        <ele>673</ele>
        <time>2020-07-11T10:06:35.596Z</time>
      </trkpt>
      <trkpt lat="44.15833" lon="5.15329">
        <ele>671</ele>
        <time>2020-07-11T10:06:36.597Z</time>
      </trkpt>
      <trkpt lat="44.15824" lon="5.15311">
        <ele>670</ele>
        <time>2020-07-11T10:06:37.597Z</time>
      </trkpt>
      <trkpt lat="44.15814" lon="5.15297">
        <ele>670</ele>
        <time>2020-07-11T10:06:38.596Z</time>
      </trkpt>
      <trkpt lat="44.15805" lon="5.15286">
        <ele>669</ele>
        <time>2020-07-11T10:06:39.596Z</time>
      </trkpt>
      <trkpt lat="44.15793" lon="5.15271">
        <ele>668</ele>
        <time>2020-07-11T10:06:40.597Z</time>
      </trkpt>
      <trkpt lat="44.15782" lon="5.15258">
        <ele>667</ele>
        <time>2020-07-11T10:06:41.597Z</time>
      </trkpt>
      <trkpt lat="44.15773" lon="5.15243">
        <ele>666</ele>
        <time>2020-07-11T10:06:42.596Z</time>
      </trkpt>
      <trkpt lat="44.15764" lon="5.15228">
        <ele>664</ele>
        <time>2020-07-11T10:06:43.596Z</time>
      </trkpt>
      <trkpt lat="44.15756" lon="5.15211">
        <ele>663</ele>
        <time>2020-07-11T10:06:44.596Z</time>
      </trkpt>
      <trkpt lat="44.15749" lon="5.15193">
        <ele>661</ele>
        <time>2020-07-11T10:06:45.596Z</time>
      </trkpt>
      <trkpt lat="44.15743" lon="5.15175">
        <ele>660</ele>
        <time>2020-07-11T10:06:46.596Z</time>
      </trkpt>
      <trkpt lat="44.15737" lon="5.15156">
        <ele>659</ele>
        <time>2020-07-11T10:06:47.596Z</time>
      </trkpt>
      <trkpt lat="44.15731" lon="5.15137">
        <ele>658</ele>
        <time>2020-07-11T10:06:48.597Z</time>
      </trkpt>
      <trkpt lat="44.15726" lon="5.15119">
        <ele>657</ele>
        <time>2020-07-11T10:06:49.597Z</time>
      </trkpt>
      <trkpt lat="44.15721" lon="5.151">
        <ele>656</ele>
        <time>2020-07-11T10:06:50.596Z</time>
      </trkpt>
      <trkpt lat="44.15719" lon="5.1508">
        <ele>655</ele>
        <time>2020-07-11T10:06:51.596Z</time>
      </trkpt>
      <trkpt lat="44.15718" lon="5.15061">
        <ele>654</ele>
        <time>2020-07-11T10:06:52.597Z</time>
      </trkpt>
      <trkpt lat="44.15719" lon="5.15041">
        <ele>652</ele>
        <time>2020-07-11T10:06:53.596Z</time>
      </trkpt>
      <trkpt lat="44.1572" lon="5.15022">
        <ele>651</ele>
        <time>2020-07-11T10:06:54.596Z</time>
      </trkpt>
      <trkpt lat="44.15723" lon="5.14999">
        <ele>650</ele>
        <time>2020-07-11T10:06:55.597Z</time>
      </trkpt>
      <trkpt lat="44.15724" lon="5.14978">
        <ele>648</ele>
        <time>2020-07-11T10:06:56.596Z</time>
      </trkpt>
      <trkpt lat="44.15723" lon="5.14958">
        <ele>647</ele>
        <time>2020-07-11T10:06:57.596Z</time>
      </trkpt>
      <trkpt lat="44.1572" lon="5.14938">
        <ele>645</ele>
        <time>2020-07-11T10:06:58.597Z</time>
      </trkpt>
      <trkpt lat="44.15716" lon="5.14919">
        <ele>644</ele>
        <time>2020-07-11T10:06:59.597Z</time>
      </trkpt>
      <trkpt lat="44.15708" lon="5.14899">
        <ele>642</ele>
        <time>2020-07-11T10:07:00.597Z</time>
      </trkpt>
      <trkpt lat="44.157" lon="5.14881">
        <ele>640</ele>
        <time>2020-07-11T10:07:01.597Z</time>
      </trkpt>
      <trkpt lat="44.15691" lon="5.14865">
        <ele>639</ele>
        <time>2020-07-11T10:07:02.597Z</time>
      </trkpt>
      <trkpt lat="44.15681" lon="5.1485">
        <ele>638</ele>
        <time>2020-07-11T10:07:03.596Z</time>
      </trkpt>
      <trkpt lat="44.15671" lon="5.14837">
        <ele>637</ele>
        <time>2020-07-11T10:07:04.596Z</time>
      </trkpt>
      <trkpt lat="44.1566" lon="5.14826">
        <ele>636</ele>
        <time>2020-07-11T10:07:05.596Z</time>
      </trkpt>
      <trkpt lat="44.1565" lon="5.14814">
        <ele>635</ele>
        <time>2020-07-11T10:07:06.597Z</time>
      </trkpt>
      <trkpt lat="44.15639" lon="5.14804">
        <ele>633</ele>
        <time>2020-07-11T10:07:07.597Z</time>
      </trkpt>
      <trkpt lat="44.15629" lon="5.14795">
        <ele>632</ele>
        <time>2020-07-11T10:07:08.597Z</time>
      </trkpt>
      <trkpt lat="44.15618" lon="5.14786">
        <ele>631</ele>
        <time>2020-07-11T10:07:09.597Z</time>
      </trkpt>
      <trkpt lat="44.15608" lon="5.14778">
        <ele>629</ele>
        <time>2020-07-11T10:07:10.597Z</time>
      </trkpt>
      <trkpt lat="44.15599" lon="5.1477">
        <ele>628</ele>
        <time>2020-07-11T10:07:11.597Z</time>
      </trkpt>
      <trkpt lat="44.15593" lon="5.14761">
        <ele>627</ele>
        <time>2020-07-11T10:07:12.596Z</time>
      </trkpt>
      <trkpt lat="44.15589" lon="5.14752">
        <ele>626</ele>
        <time>2020-07-11T10:07:13.597Z</time>
      </trkpt>
      <trkpt lat="44.1559" lon="5.14745">
        <ele>625</ele>
        <time>2020-07-11T10:07:14.597Z</time>
      </trkpt>
      <trkpt lat="44.15594" lon="5.14739">
        <ele>623</ele>
        <time>2020-07-11T10:07:15.596Z</time>
      </trkpt>
      <trkpt lat="44.15601" lon="5.14734">
        <ele>622</ele>
        <time>2020-07-11T10:07:16.596Z</time>
      </trkpt>
      <trkpt lat="44.15608" lon="5.14732">
        <ele>620</ele>
        <time>2020-07-11T10:07:17.596Z</time>
      </trkpt>
      <trkpt lat="44.15618" lon="5.14728">
        <ele>619</ele>
        <time>2020-07-11T10:07:18.597Z</time>
      </trkpt>
      <trkpt lat="44.15628" lon="5.14724">
        <ele>619</ele>
        <time>2020-07-11T10:07:19.597Z</time>
      </trkpt>
      <trkpt lat="44.15637" lon="5.1472">
        <ele>618</ele>
        <time>2020-07-11T10:07:20.597Z</time>
      </trkpt>
      <trkpt lat="44.15647" lon="5.14716">
        <ele>618</ele>
        <time>2020-07-11T10:07:21.597Z</time>
      </trkpt>
      <trkpt lat="44.15657" lon="5.14713">
        <ele>617</ele>
        <time>2020-07-11T10:07:22.596Z</time>
      </trkpt>
      <trkpt lat="44.15667" lon="5.14709">
        <ele>616</ele>
        <time>2020-07-11T10:07:23.597Z</time>
      </trkpt>
      <trkpt lat="44.15679" lon="5.14707">
        <ele>615</ele>
        <time>2020-07-11T10:07:24.597Z</time>
      </trkpt>
      <trkpt lat="44.1569" lon="5.14705">
        <ele>614</ele>
        <time>2020-07-11T10:07:25.597Z</time>
      </trkpt>
      <trkpt lat="44.15702" lon="5.14705">
        <ele>614</ele>
        <time>2020-07-11T10:07:26.597Z</time>
      </trkpt>
      <trkpt lat="44.15713" lon="5.14707">
        <ele>613</ele>
        <time>2020-07-11T10:07:27.597Z</time>
      </trkpt>
      <trkpt lat="44.15724" lon="5.1471">
        <ele>613</ele>
        <time>2020-07-11T10:07:28.596Z</time>
      </trkpt>
      <trkpt lat="44.15736" lon="5.14713">
        <ele>612</ele>
        <time>2020-07-11T10:07:29.597Z</time>
      </trkpt>
      <trkpt lat="44.15747" lon="5.14718">
        <ele>612</ele>
        <time>2020-07-11T10:07:30.597Z</time>
      </trkpt>
      <trkpt lat="44.15758" lon="5.14723">
        <ele>612</ele>
        <time>2020-07-11T10:07:31.596Z</time>
      </trkpt>
      <trkpt lat="44.15768" lon="5.14729">
        <ele>611</ele>
        <time>2020-07-11T10:07:32.596Z</time>
      </trkpt>
      <trkpt lat="44.15779" lon="5.14734">
        <ele>610</ele>
        <time>2020-07-11T10:07:33.596Z</time>
      </trkpt>
      <trkpt lat="44.15788" lon="5.14738">
        <ele>610</ele>
        <time>2020-07-11T10:07:34.597Z</time>
      </trkpt>
      <trkpt lat="44.15798" lon="5.14742">
        <ele>609</ele>
        <time>2020-07-11T10:07:35.597Z</time>
      </trkpt>
      <trkpt lat="44.15808" lon="5.14746">
        <ele>607</ele>
        <time>2020-07-11T10:07:36.597Z</time>
      </trkpt>
      <trkpt lat="44.15819" lon="5.14749">
        <ele>606</ele>
        <time>2020-07-11T10:07:37.597Z</time>
      </trkpt>
      <trkpt lat="44.15831" lon="5.14752">
        <ele>605</ele>
        <time>2020-07-11T10:07:38.597Z</time>
      </trkpt>
      <trkpt lat="44.15843" lon="5.14754">
        <ele>604</ele>
        <time>2020-07-11T10:07:39.596Z</time>
      </trkpt>
      <trkpt lat="44.15855" lon="5.14758">
        <ele>603</ele>
        <time>2020-07-11T10:07:40.597Z</time>
      </trkpt>
      <trkpt lat="44.15867" lon="5.14763">
        <ele>602</ele>
        <time>2020-07-11T10:07:41.597Z</time>
      </trkpt>
      <trkpt lat="44.15878" lon="5.1477">
        <ele>600</ele>
        <time>2020-07-11T10:07:42.597Z</time>
      </trkpt>
      <trkpt lat="44.15888" lon="5.14779">
        <ele>599</ele>
        <time>2020-07-11T10:07:43.596Z</time>
      </trkpt>
      <trkpt lat="44.15897" lon="5.1479">
        <ele>599</ele>
        <time>2020-07-11T10:07:44.597Z</time>
      </trkpt>
      <trkpt lat="44.15905" lon="5.14804">
        <ele>598</ele>
        <time>2020-07-11T10:07:45.597Z</time>
      </trkpt>
      <trkpt lat="44.15912" lon="5.14819">
        <ele>597</ele>
        <time>2020-07-11T10:07:46.597Z</time>
      </trkpt>
      <trkpt lat="44.15918" lon="5.14835">
        <ele>597</ele>
        <time>2020-07-11T10:07:47.597Z</time>
      </trkpt>
      <trkpt lat="44.15924" lon="5.14851">
        <ele>596</ele>
        <time>2020-07-11T10:07:48.597Z</time>
      </trkpt>
      <trkpt lat="44.15931" lon="5.14867">
        <ele>595</ele>
        <time>2020-07-11T10:07:49.597Z</time>
      </trkpt>
      <trkpt lat="44.15939" lon="5.1488">
        <ele>594</ele>
        <time>2020-07-11T10:07:50.597Z</time>
      </trkpt>
      <trkpt lat="44.15947" lon="5.14892">
        <ele>593</ele>
        <time>2020-07-11T10:07:51.597Z</time>
      </trkpt>
      <trkpt lat="44.15956" lon="5.14902">
        <ele>592</ele>
        <time>2020-07-11T10:07:52.597Z</time>
      </trkpt>
      <trkpt lat="44.15966" lon="5.14912">
        <ele>591</ele>
        <time>2020-07-11T10:07:53.597Z</time>
      </trkpt>
      <trkpt lat="44.15976" lon="5.14919">
        <ele>590</ele>
        <time>2020-07-11T10:07:54.597Z</time>
      </trkpt>
      <trkpt lat="44.15986" lon="5.14924">
        <ele>589</ele>
        <time>2020-07-11T10:07:55.597Z</time>
      </trkpt>
      <trkpt lat="44.15994" lon="5.14924">
        <ele>588</ele>
        <time>2020-07-11T10:07:56.596Z</time>
      </trkpt>
      <trkpt lat="44.16001" lon="5.14921">
        <ele>587</ele>
        <time>2020-07-11T10:07:57.597Z</time>
      </trkpt>
      <trkpt lat="44.16008" lon="5.14912">
        <ele>586</ele>
        <time>2020-07-11T10:07:58.596Z</time>
      </trkpt>
      <trkpt lat="44.16011" lon="5.14899">
        <ele>584</ele>
        <time>2020-07-11T10:07:59.597Z</time>
      </trkpt>
      <trkpt lat="44.16013" lon="5.14884">
        <ele>584</ele>
        <time>2020-07-11T10:08:00.597Z</time>
      </trkpt>
      <trkpt lat="44.16014" lon="5.14868">
        <ele>583</ele>
        <time>2020-07-11T10:08:01.597Z</time>
      </trkpt>
      <trkpt lat="44.16015" lon="5.14851">
        <ele>582</ele>
        <time>2020-07-11T10:08:02.596Z</time>
      </trkpt>
      <trkpt lat="44.16016" lon="5.14835">
        <ele>581</ele>
        <time>2020-07-11T10:08:03.596Z</time>
      </trkpt>
      <trkpt lat="44.16019" lon="5.14818">
        <ele>579</ele>
        <time>2020-07-11T10:08:04.597Z</time>
      </trkpt>
      <trkpt lat="44.16023" lon="5.14803">
        <ele>578</ele>
        <time>2020-07-11T10:08:05.597Z</time>
      </trkpt>
      <trkpt lat="44.1603" lon="5.1479">
        <ele>577</ele>
        <time>2020-07-11T10:08:06.596Z</time>
      </trkpt>
      <trkpt lat="44.16038" lon="5.14778">
        <ele>576</ele>
        <time>2020-07-11T10:08:07.596Z</time>
      </trkpt>
      <trkpt lat="44.16046" lon="5.14765">
        <ele>575</ele>
        <time>2020-07-11T10:08:08.596Z</time>
      </trkpt>
      <trkpt lat="44.16052" lon="5.14751">
        <ele>574</ele>
        <time>2020-07-11T10:08:09.597Z</time>
      </trkpt>
      <trkpt lat="44.16058" lon="5.14736">
        <ele>572</ele>
        <time>2020-07-11T10:08:10.596Z</time>
      </trkpt>
      <trkpt lat="44.16062" lon="5.14721">
        <ele>570</ele>
        <time>2020-07-11T10:08:11.597Z</time>
      </trkpt>
      <trkpt lat="44.16067" lon="5.14707">
        <ele>568</ele>
        <time>2020-07-11T10:08:12.596Z</time>
      </trkpt>
      <trkpt lat="44.16073" lon="5.14697">
        <ele>566</ele>
        <time>2020-07-11T10:08:13.597Z</time>
      </trkpt>
      <trkpt lat="44.16079" lon="5.1469">
        <ele>564</ele>
        <time>2020-07-11T10:08:14.597Z</time>
      </trkpt>
      <trkpt lat="44.16086" lon="5.14687">
        <ele>563</ele>
        <time>2020-07-11T10:08:15.597Z</time>
      </trkpt>
      <trkpt lat="44.16094" lon="5.14688">
        <ele>561</ele>
        <time>2020-07-11T10:08:16.596Z</time>
      </trkpt>
      <trkpt lat="44.16104" lon="5.14693">
        <ele>560</ele>
        <time>2020-07-11T10:08:17.597Z</time>
      </trkpt>
      <trkpt lat="44.16113" lon="5.14699">
        <ele>558</ele>
        <time>2020-07-11T10:08:18.596Z</time>
      </trkpt>
      <trkpt lat="44.16123" lon="5.14704">
        <ele>557</ele>
        <time>2020-07-11T10:08:19.597Z</time>
      </trkpt>
      <trkpt lat="44.16132" lon="5.14707">
        <ele>556</ele>
        <time>2020-07-11T10:08:20.597Z</time>
      </trkpt>
      <trkpt lat="44.1614" lon="5.14705">
        <ele>554</ele>
        <time>2020-07-11T10:08:21.597Z</time>
      </trkpt>
      <trkpt lat="44.16147" lon="5.14699">
        <ele>553</ele>
        <time>2020-07-11T10:08:22.597Z</time>
      </trkpt>
      <trkpt lat="44.16151" lon="5.14689">
        <ele>551</ele>
        <time>2020-07-11T10:08:23.596Z</time>
      </trkpt>
      <trkpt lat="44.16154" lon="5.14678">
        <ele>549</ele>
        <time>2020-07-11T10:08:24.597Z</time>
      </trkpt>
      <trkpt lat="44.16155" lon="5.14666">
        <ele>547</ele>
        <time>2020-07-11T10:08:25.597Z</time>
      </trkpt>
      <trkpt lat="44.16154" lon="5.14653">
        <ele>546</ele>
        <time>2020-07-11T10:08:26.597Z</time>
      </trkpt>
      <trkpt lat="44.16152" lon="5.14636">
        <ele>545</ele>
        <time>2020-07-11T10:08:27.596Z</time>
      </trkpt>
      <trkpt lat="44.1615" lon="5.1462">
        <ele>544</ele>
        <time>2020-07-11T10:08:28.596Z</time>
      </trkpt>
      <trkpt lat="44.16147" lon="5.14605">
        <ele>543</ele>
        <time>2020-07-11T10:08:29.597Z</time>
      </trkpt>
      <trkpt lat="44.16142" lon="5.1459">
        <ele>542</ele>
        <time>2020-07-11T10:08:30.597Z</time>
      </trkpt>
      <trkpt lat="44.16136" lon="5.14576">
        <ele>542</ele>
        <time>2020-07-11T10:08:31.597Z</time>
      </trkpt>
      <trkpt lat="44.16131" lon="5.14562">
        <ele>540</ele>
        <time>2020-07-11T10:08:32.597Z</time>
      </trkpt>
      <trkpt lat="44.16128" lon="5.14547">
        <ele>539</ele>
        <time>2020-07-11T10:08:33.596Z</time>
      </trkpt>
      <trkpt lat="44.16127" lon="5.14531">
        <ele>538</ele>
        <time>2020-07-11T10:08:34.596Z</time>
      </trkpt>
      <trkpt lat="44.16127" lon="5.14516">
        <ele>536</ele>
        <time>2020-07-11T10:08:35.597Z</time>
      </trkpt>
      <trkpt lat="44.16125" lon="5.145">
        <ele>535</ele>
        <time>2020-07-11T10:08:36.597Z</time>
      </trkpt>
      <trkpt lat="44.16122" lon="5.14484">
        <ele>534</ele>
        <time>2020-07-11T10:08:37.596Z</time>
      </trkpt>
      <trkpt lat="44.16117" lon="5.1447">
        <ele>533</ele>
        <time>2020-07-11T10:08:38.597Z</time>
      </trkpt>
      <trkpt lat="44.16108" lon="5.14454">
        <ele>533</ele>
        <time>2020-07-11T10:08:39.597Z</time>
      </trkpt>
      <trkpt lat="44.161" lon="5.14444">
        <ele>532</ele>
        <time>2020-07-11T10:08:40.597Z</time>
      </trkpt>
      <trkpt lat="44.1609" lon="5.14431">
        <ele>532</ele>
        <time>2020-07-11T10:08:41.597Z</time>
      </trkpt>
      <trkpt lat="44.1608" lon="5.14419">
        <ele>531</ele>
        <time>2020-07-11T10:08:42.597Z</time>
      </trkpt>
      <trkpt lat="44.1607" lon="5.14407">
        <ele>531</ele>
        <time>2020-07-11T10:08:43.597Z</time>
      </trkpt>
      <trkpt lat="44.1606" lon="5.14396">
        <ele>530</ele>
        <time>2020-07-11T10:08:44.596Z</time>
      </trkpt>
      <trkpt lat="44.16049" lon="5.14385">
        <ele>529</ele>
        <time>2020-07-11T10:08:45.597Z</time>
      </trkpt>
      <trkpt lat="44.16038" lon="5.14373">
        <ele>529</ele>
        <time>2020-07-11T10:08:46.597Z</time>
      </trkpt>
      <trkpt lat="44.16027" lon="5.14362">
        <ele>528</ele>
        <time>2020-07-11T10:08:47.597Z</time>
      </trkpt>
      <trkpt lat="44.16015" lon="5.1435">
        <ele>528</ele>
        <time>2020-07-11T10:08:48.596Z</time>
      </trkpt>
      <trkpt lat="44.16003" lon="5.14339">
        <ele>527</ele>
        <time>2020-07-11T10:08:49.597Z</time>
      </trkpt>
      <trkpt lat="44.15993" lon="5.14327">
        <ele>526</ele>
        <time>2020-07-11T10:08:50.597Z</time>
      </trkpt>
      <trkpt lat="44.15984" lon="5.14314">
        <ele>525</ele>
        <time>2020-07-11T10:08:51.597Z</time>
      </trkpt>
      <trkpt lat="44.15978" lon="5.14301">
        <ele>524</ele>
        <time>2020-07-11T10:08:52.597Z</time>
      </trkpt>
      <trkpt lat="44.15973" lon="5.14286">
        <ele>524</ele>
        <time>2020-07-11T10:08:53.597Z</time>
      </trkpt>
      <trkpt lat="44.1597" lon="5.1427">
        <ele>522</ele>
        <time>2020-07-11T10:08:54.597Z</time>
      </trkpt>
      <trkpt lat="44.15971" lon="5.14255">
        <ele>520</ele>
        <time>2020-07-11T10:08:55.597Z</time>
      </trkpt>
      <trkpt lat="44.15974" lon="5.1424">
        <ele>519</ele>
        <time>2020-07-11T10:08:56.597Z</time>
      </trkpt>
      <trkpt lat="44.15978" lon="5.14225">
        <ele>518</ele>
        <time>2020-07-11T10:08:57.597Z</time>
      </trkpt>
      <trkpt lat="44.15985" lon="5.1421">
        <ele>516</ele>
        <time>2020-07-11T10:08:58.597Z</time>
      </trkpt>
      <trkpt lat="44.15993" lon="5.14196">
        <ele>515</ele>
        <time>2020-07-11T10:08:59.597Z</time>
      </trkpt>
      <trkpt lat="44.16003" lon="5.14183">
        <ele>513</ele>
        <time>2020-07-11T10:09:00.597Z</time>
      </trkpt>
      <trkpt lat="44.16014" lon="5.14172">
        <ele>512</ele>
        <time>2020-07-11T10:09:01.597Z</time>
      </trkpt>
      <trkpt lat="44.16025" lon="5.14162">
        <ele>510</ele>
        <time>2020-07-11T10:09:02.597Z</time>
      </trkpt>
      <trkpt lat="44.16038" lon="5.14154">
        <ele>509</ele>
        <time>2020-07-11T10:09:03.597Z</time>
      </trkpt>
      <trkpt lat="44.1605" lon="5.14147">
        <ele>507</ele>
        <time>2020-07-11T10:09:04.597Z</time>
      </trkpt>
      <trkpt lat="44.16064" lon="5.1414">
        <ele>506</ele>
        <time>2020-07-11T10:09:05.596Z</time>
      </trkpt>
      <trkpt lat="44.16077" lon="5.14133">
        <ele>504</ele>
        <time>2020-07-11T10:09:06.597Z</time>
      </trkpt>
      <trkpt lat="44.16092" lon="5.14129">
        <ele>502</ele>
        <time>2020-07-11T10:09:07.597Z</time>
      </trkpt>
      <trkpt lat="44.16106" lon="5.14127">
        <ele>501</ele>
        <time>2020-07-11T10:09:08.597Z</time>
      </trkpt>
      <trkpt lat="44.16123" lon="5.14126">
        <ele>500</ele>
        <time>2020-07-11T10:09:09.597Z</time>
      </trkpt>
      <trkpt lat="44.16134" lon="5.14126">
        <ele>499</ele>
        <time>2020-07-11T10:09:10.597Z</time>
      </trkpt>
      <trkpt lat="44.16148" lon="5.14127">
        <ele>498</ele>
        <time>2020-07-11T10:09:11.597Z</time>
      </trkpt>
      <trkpt lat="44.16161" lon="5.14127">
        <ele>497</ele>
        <time>2020-07-11T10:09:12.597Z</time>
      </trkpt>
      <trkpt lat="44.16174" lon="5.14127">
        <ele>496</ele>
        <time>2020-07-11T10:09:13.597Z</time>
      </trkpt>
      <trkpt lat="44.1619" lon="5.14126">
        <ele>495</ele>
        <time>2020-07-11T10:09:14.597Z</time>
      </trkpt>
      <trkpt lat="44.162" lon="5.14125">
        <ele>493</ele>
        <time>2020-07-11T10:09:15.597Z</time>
      </trkpt>
      <trkpt lat="44.16213" lon="5.14122">
        <ele>492</ele>
        <time>2020-07-11T10:09:16.597Z</time>
      </trkpt>
      <trkpt lat="44.16225" lon="5.14118">
        <ele>490</ele>
        <time>2020-07-11T10:09:17.596Z</time>
      </trkpt>
      <trkpt lat="44.16237" lon="5.14114">
        <ele>489</ele>
        <time>2020-07-11T10:09:18.597Z</time>
      </trkpt>
      <trkpt lat="44.1625" lon="5.14112">
        <ele>488</ele>
        <time>2020-07-11T10:09:19.597Z</time>
      </trkpt>
      <trkpt lat="44.16263" lon="5.14111">
        <ele>487</ele>
        <time>2020-07-11T10:09:20.597Z</time>
      </trkpt>
      <trkpt lat="44.16275" lon="5.14111">
        <ele>486</ele>
        <time>2020-07-11T10:09:21.597Z</time>
      </trkpt>
      <trkpt lat="44.16288" lon="5.14111">
        <ele>485</ele>
        <time>2020-07-11T10:09:22.596Z</time>
      </trkpt>
      <trkpt lat="44.16299" lon="5.14112">
        <ele>484</ele>
        <time>2020-07-11T10:09:23.596Z</time>
      </trkpt>
      <trkpt lat="44.16311" lon="5.14113">
        <ele>483</ele>
        <time>2020-07-11T10:09:24.597Z</time>
      </trkpt>
      <trkpt lat="44.16322" lon="5.14113">
        <ele>482</ele>
        <time>2020-07-11T10:09:25.597Z</time>
      </trkpt>
      <trkpt lat="44.16334" lon="5.14113">
        <ele>481</ele>
        <time>2020-07-11T10:09:26.597Z</time>
      </trkpt>
      <trkpt lat="44.16346" lon="5.14115">
        <ele>480</ele>
        <time>2020-07-11T10:09:27.597Z</time>
      </trkpt>
      <trkpt lat="44.16357" lon="5.14119">
        <ele>479</ele>
        <time>2020-07-11T10:09:28.596Z</time>
      </trkpt>
      <trkpt lat="44.16369" lon="5.14126">
        <ele>478</ele>
        <time>2020-07-11T10:09:29.597Z</time>
      </trkpt>
      <trkpt lat="44.16377" lon="5.14135">
        <ele>477</ele>
        <time>2020-07-11T10:09:30.596Z</time>
      </trkpt>
      <trkpt lat="44.16386" lon="5.14146">
        <ele>476</ele>
        <time>2020-07-11T10:09:31.597Z</time>
      </trkpt>
      <trkpt lat="44.16394" lon="5.14157">
        <ele>475</ele>
        <time>2020-07-11T10:09:32.596Z</time>
      </trkpt>
      <trkpt lat="44.16401" lon="5.1417">
        <ele>474</ele>
        <time>2020-07-11T10:09:33.597Z</time>
      </trkpt>
      <trkpt lat="44.16408" lon="5.14182">
        <ele>473</ele>
        <time>2020-07-11T10:09:34.596Z</time>
      </trkpt>
      <trkpt lat="44.16415" lon="5.14196">
        <ele>471</ele>
        <time>2020-07-11T10:09:35.596Z</time>
      </trkpt>
      <trkpt lat="44.16423" lon="5.14208">
        <ele>470</ele>
        <time>2020-07-11T10:09:36.597Z</time>
      </trkpt>
      <trkpt lat="44.16431" lon="5.14219">
        <ele>469</ele>
        <time>2020-07-11T10:09:37.597Z</time>
      </trkpt>
      <trkpt lat="44.16439" lon="5.14229">
        <ele>468</ele>
        <time>2020-07-11T10:09:38.597Z</time>
      </trkpt>
      <trkpt lat="44.16447" lon="5.14239">
        <ele>467</ele>
        <time>2020-07-11T10:09:39.597Z</time>
      </trkpt>
      <trkpt lat="44.16455" lon="5.14249">
        <ele>465</ele>
        <time>2020-07-11T10:09:40.596Z</time>
      </trkpt>
      <trkpt lat="44.16464" lon="5.14259">
        <ele>464</ele>
        <time>2020-07-11T10:09:41.597Z</time>
      </trkpt>
      <trkpt lat="44.16474" lon="5.14272">
        <ele>463</ele>
        <time>2020-07-11T10:09:42.597Z</time>
      </trkpt>
      <trkpt lat="44.1648" lon="5.14285">
        <ele>462</ele>
        <time>2020-07-11T10:09:43.596Z</time>
      </trkpt>
      <trkpt lat="44.16485" lon="5.14296">
        <ele>461</ele>
        <time>2020-07-11T10:09:44.597Z</time>
      </trkpt>
      <trkpt lat="44.16491" lon="5.14313">
        <ele>460</ele>
        <time>2020-07-11T10:09:45.597Z</time>
      </trkpt>
      <trkpt lat="44.16497" lon="5.14328">
        <ele>459</ele>
        <time>2020-07-11T10:09:46.597Z</time>
      </trkpt>
      <trkpt lat="44.16503" lon="5.14343">
        <ele>458</ele>
        <time>2020-07-11T10:09:47.597Z</time>
      </trkpt>
      <trkpt lat="44.16508" lon="5.14358">
        <ele>457</ele>
        <time>2020-07-11T10:09:48.597Z</time>
      </trkpt>
      <trkpt lat="44.16513" lon="5.14375">
        <ele>456</ele>
        <time>2020-07-11T10:09:49.597Z</time>
      </trkpt>
      <trkpt lat="44.16515" lon="5.14392">
        <ele>455</ele>
        <time>2020-07-11T10:09:50.597Z</time>
      </trkpt>
      <trkpt lat="44.16515" lon="5.14409">
        <ele>454</ele>
        <time>2020-07-11T10:09:51.597Z</time>
      </trkpt>
      <trkpt lat="44.16513" lon="5.14426">
        <ele>454</ele>
        <time>2020-07-11T10:09:52.597Z</time>
      </trkpt>
      <trkpt lat="44.16511" lon="5.14444">
        <ele>453</ele>
        <time>2020-07-11T10:09:53.597Z</time>
      </trkpt>
      <trkpt lat="44.16509" lon="5.14458">
        <ele>452</ele>
        <time>2020-07-11T10:09:54.596Z</time>
      </trkpt>
      <trkpt lat="44.16508" lon="5.14479">
        <ele>452</ele>
        <time>2020-07-11T10:09:55.597Z</time>
      </trkpt>
      <trkpt lat="44.16511" lon="5.14496">
        <ele>451</ele>
        <time>2020-07-11T10:09:56.597Z</time>
      </trkpt>
      <trkpt lat="44.16518" lon="5.1451">
        <ele>450</ele>
        <time>2020-07-11T10:09:57.597Z</time>
      </trkpt>
      <trkpt lat="44.16525" lon="5.14521">
        <ele>450</ele>
        <time>2020-07-11T10:09:58.597Z</time>
      </trkpt>
      <trkpt lat="44.16533" lon="5.14533">
        <ele>449</ele>
        <time>2020-07-11T10:09:59.596Z</time>
      </trkpt>
      <trkpt lat="44.16541" lon="5.14544">
        <ele>448</ele>
        <time>2020-07-11T10:10:00.597Z</time>
      </trkpt>
      <trkpt lat="44.16548" lon="5.14556">
        <ele>448</ele>
        <time>2020-07-11T10:10:01.597Z</time>
      </trkpt>
      <trkpt lat="44.16553" lon="5.14569">
        <ele>447</ele>
        <time>2020-07-11T10:10:02.597Z</time>
      </trkpt>
      <trkpt lat="44.16555" lon="5.14582">
        <ele>446</ele>
        <time>2020-07-11T10:10:03.596Z</time>
      </trkpt>
      <trkpt lat="44.16555" lon="5.14596">
        <ele>444</ele>
        <time>2020-07-11T10:10:04.596Z</time>
      </trkpt>
      <trkpt lat="44.16553" lon="5.1461">
        <ele>443</ele>
        <time>2020-07-11T10:10:05.597Z</time>
      </trkpt>
      <trkpt lat="44.16551" lon="5.14625">
        <ele>442</ele>
        <time>2020-07-11T10:10:06.597Z</time>
      </trkpt>
      <trkpt lat="44.16549" lon="5.14642">
        <ele>441</ele>
        <time>2020-07-11T10:10:07.597Z</time>
      </trkpt>
      <trkpt lat="44.1655" lon="5.14659">
        <ele>439</ele>
        <time>2020-07-11T10:10:08.597Z</time>
      </trkpt>
      <trkpt lat="44.16551" lon="5.14675">
        <ele>439</ele>
        <time>2020-07-11T10:10:09.596Z</time>
      </trkpt>
      <trkpt lat="44.16553" lon="5.14692">
        <ele>437</ele>
        <time>2020-07-11T10:10:10.596Z</time>
      </trkpt>
      <trkpt lat="44.16555" lon="5.14708">
        <ele>436</ele>
        <time>2020-07-11T10:10:11.596Z</time>
      </trkpt>
      <trkpt lat="44.16557" lon="5.14722">
        <ele>435</ele>
        <time>2020-07-11T10:10:12.596Z</time>
      </trkpt>
      <trkpt lat="44.16561" lon="5.14733">
        <ele>434</ele>
        <time>2020-07-11T10:10:13.596Z</time>
      </trkpt>
      <trkpt lat="44.16566" lon="5.14741">
        <ele>434</ele>
        <time>2020-07-11T10:10:14.596Z</time>
      </trkpt>
      <trkpt lat="44.16574" lon="5.14747">
        <ele>433</ele>
        <time>2020-07-11T10:10:15.597Z</time>
      </trkpt>
      <trkpt lat="44.16584" lon="5.1475">
        <ele>432</ele>
        <time>2020-07-11T10:10:16.597Z</time>
      </trkpt>
      <trkpt lat="44.16595" lon="5.14754">
        <ele>432</ele>
        <time>2020-07-11T10:10:17.596Z</time>
      </trkpt>
      <trkpt lat="44.16606" lon="5.14759">
        <ele>431</ele>
        <time>2020-07-11T10:10:18.597Z</time>
      </trkpt>
      <trkpt lat="44.16613" lon="5.14765">
        <ele>430</ele>
        <time>2020-07-11T10:10:19.596Z</time>
      </trkpt>
      <trkpt lat="44.16622" lon="5.14777">
        <ele>429</ele>
        <time>2020-07-11T10:10:20.597Z</time>
      </trkpt>
      <trkpt lat="44.16629" lon="5.1479">
        <ele>429</ele>
        <time>2020-07-11T10:10:21.596Z</time>
      </trkpt>
      <trkpt lat="44.16634" lon="5.14802">
        <ele>428</ele>
        <time>2020-07-11T10:10:22.596Z</time>
      </trkpt>
      <trkpt lat="44.16638" lon="5.14815">
        <ele>427</ele>
        <time>2020-07-11T10:10:23.596Z</time>
      </trkpt>
      <trkpt lat="44.16642" lon="5.14829">
        <ele>427</ele>
        <time>2020-07-11T10:10:24.597Z</time>
      </trkpt>
      <trkpt lat="44.16646" lon="5.14842">
        <ele>426</ele>
        <time>2020-07-11T10:10:25.596Z</time>
      </trkpt>
      <trkpt lat="44.16651" lon="5.14852">
        <ele>425</ele>
        <time>2020-07-11T10:10:26.596Z</time>
      </trkpt>
      <trkpt lat="44.16658" lon="5.14861">
        <ele>424</ele>
        <time>2020-07-11T10:10:27.597Z</time>
      </trkpt>
      <trkpt lat="44.16665" lon="5.14868">
        <ele>423</ele>
        <time>2020-07-11T10:10:28.597Z</time>
      </trkpt>
      <trkpt lat="44.16673" lon="5.14873">
        <ele>422</ele>
        <time>2020-07-11T10:10:29.597Z</time>
      </trkpt>
      <trkpt lat="44.16679" lon="5.14876">
        <ele>422</ele>
        <time>2020-07-11T10:10:30.597Z</time>
      </trkpt>
      <trkpt lat="44.16686" lon="5.14877">
        <ele>421</ele>
        <time>2020-07-11T10:10:31.597Z</time>
      </trkpt>
      <trkpt lat="44.16692" lon="5.14876">
        <ele>420</ele>
        <time>2020-07-11T10:10:32.596Z</time>
      </trkpt>
      <trkpt lat="44.16698" lon="5.14877">
        <ele>419</ele>
        <time>2020-07-11T10:10:33.597Z</time>
      </trkpt>
      <trkpt lat="44.16705" lon="5.14875">
        <ele>418</ele>
        <time>2020-07-11T10:10:34.596Z</time>
      </trkpt>
      <trkpt lat="44.1671" lon="5.14872">
        <ele>417</ele>
        <time>2020-07-11T10:10:35.597Z</time>
      </trkpt>
      <trkpt lat="44.16716" lon="5.14868">
        <ele>415</ele>
        <time>2020-07-11T10:10:36.597Z</time>
      </trkpt>
      <trkpt lat="44.16721" lon="5.14862">
        <ele>414</ele>
        <time>2020-07-11T10:10:37.597Z</time>
      </trkpt>
      <trkpt lat="44.16726" lon="5.14855">
        <ele>412</ele>
        <time>2020-07-11T10:10:38.597Z</time>
      </trkpt>
      <trkpt lat="44.16731" lon="5.14848">
        <ele>411</ele>
        <time>2020-07-11T10:10:39.597Z</time>
      </trkpt>
      <trkpt lat="44.16735" lon="5.14841">
        <ele>410</ele>
        <time>2020-07-11T10:10:40.597Z</time>
      </trkpt>
      <trkpt lat="44.1674" lon="5.14834">
        <ele>410</ele>
        <time>2020-07-11T10:10:41.597Z</time>
      </trkpt>
      <trkpt lat="44.16744" lon="5.14826">
        <ele>409</ele>
        <time>2020-07-11T10:10:42.597Z</time>
      </trkpt>
      <trkpt lat="44.16747" lon="5.14818">
        <ele>409</ele>
        <time>2020-07-11T10:10:43.597Z</time>
      </trkpt>
      <trkpt lat="44.1675" lon="5.1481">
        <ele>408</ele>
        <time>2020-07-11T10:10:44.597Z</time>
      </trkpt>
      <trkpt lat="44.16753" lon="5.14801">
        <ele>407</ele>
        <time>2020-07-11T10:10:45.597Z</time>
      </trkpt>
      <trkpt lat="44.16756" lon="5.14794">
        <ele>407</ele>
        <time>2020-07-11T10:10:46.597Z</time>
      </trkpt>
      <trkpt lat="44.16758" lon="5.14786">
        <ele>406</ele>
        <time>2020-07-11T10:10:47.597Z</time>
      </trkpt>
      <trkpt lat="44.16761" lon="5.14777">
        <ele>405</ele>
        <time>2020-07-11T10:10:48.597Z</time>
      </trkpt>
      <trkpt lat="44.16764" lon="5.14768">
        <ele>405</ele>
        <time>2020-07-11T10:10:49.597Z</time>
      </trkpt>
      <trkpt lat="44.16767" lon="5.14758">
        <ele>404</ele>
        <time>2020-07-11T10:10:50.596Z</time>
      </trkpt>
      <trkpt lat="44.16769" lon="5.14749">
        <ele>404</ele>
        <time>2020-07-11T10:10:51.597Z</time>
      </trkpt>
      <trkpt lat="44.16772" lon="5.14739">
        <ele>403</ele>
        <time>2020-07-11T10:10:52.597Z</time>
      </trkpt>
      <trkpt lat="44.16775" lon="5.14729">
        <ele>403</ele>
        <time>2020-07-11T10:10:53.597Z</time>
      </trkpt>
      <trkpt lat="44.16777" lon="5.14721">
        <ele>403</ele>
        <time>2020-07-11T10:10:54.597Z</time>
      </trkpt>
      <trkpt lat="44.1678" lon="5.1471">
        <ele>403</ele>
        <time>2020-07-11T10:10:55.597Z</time>
      </trkpt>
      <trkpt lat="44.16783" lon="5.147">
        <ele>403</ele>
        <time>2020-07-11T10:10:56.597Z</time>
      </trkpt>
      <trkpt lat="44.16786" lon="5.14691">
        <ele>402</ele>
        <time>2020-07-11T10:10:57.597Z</time>
      </trkpt>
      <trkpt lat="44.16788" lon="5.14682">
        <ele>402</ele>
        <time>2020-07-11T10:10:58.597Z</time>
      </trkpt>
      <trkpt lat="44.16791" lon="5.14672">
        <ele>402</ele>
        <time>2020-07-11T10:10:59.597Z</time>
      </trkpt>
      <trkpt lat="44.16794" lon="5.14663">
        <ele>401</ele>
        <time>2020-07-11T10:11:00.597Z</time>
      </trkpt>
      <trkpt lat="44.16796" lon="5.14654">
        <ele>401</ele>
        <time>2020-07-11T10:11:01.597Z</time>
      </trkpt>
      <trkpt lat="44.16799" lon="5.14644">
        <ele>401</ele>
        <time>2020-07-11T10:11:02.597Z</time>
      </trkpt>
      <trkpt lat="44.16801" lon="5.14636">
        <ele>401</ele>
        <time>2020-07-11T10:11:03.597Z</time>
      </trkpt>
      <trkpt lat="44.16804" lon="5.14625">
        <ele>401</ele>
        <time>2020-07-11T10:11:04.597Z</time>
      </trkpt>
      <trkpt lat="44.16806" lon="5.14615">
        <ele>401</ele>
        <time>2020-07-11T10:11:05.597Z</time>
      </trkpt>
      <trkpt lat="44.1681" lon="5.14607">
        <ele>401</ele>
        <time>2020-07-11T10:11:06.597Z</time>
      </trkpt>
      <trkpt lat="44.16812" lon="5.14597">
        <ele>401</ele>
        <time>2020-07-11T10:11:07.597Z</time>
      </trkpt>
      <trkpt lat="44.16815" lon="5.14588">
        <ele>400</ele>
        <time>2020-07-11T10:11:08.597Z</time>
      </trkpt>
      <trkpt lat="44.16818" lon="5.14578">
        <ele>400</ele>
        <time>2020-07-11T10:11:09.597Z</time>
      </trkpt>
      <trkpt lat="44.1682" lon="5.14569">
        <ele>400</ele>
        <time>2020-07-11T10:11:10.597Z</time>
      </trkpt>
      <trkpt lat="44.16822" lon="5.1456">
        <ele>399</ele>
        <time>2020-07-11T10:11:11.597Z</time>
      </trkpt>
      <trkpt lat="44.16825" lon="5.14551">
        <ele>398</ele>
        <time>2020-07-11T10:11:12.597Z</time>
      </trkpt>
      <trkpt lat="44.16827" lon="5.14542">
        <ele>398</ele>
        <time>2020-07-11T10:11:13.597Z</time>
      </trkpt>
      <trkpt lat="44.16829" lon="5.14535">
        <ele>397</ele>
        <time>2020-07-11T10:11:14.596Z</time>
      </trkpt>
      <trkpt lat="44.16832" lon="5.14523">
        <ele>397</ele>
        <time>2020-07-11T10:11:15.597Z</time>
      </trkpt>
      <trkpt lat="44.16834" lon="5.14514">
        <ele>397</ele>
        <time>2020-07-11T10:11:16.597Z</time>
      </trkpt>
      <trkpt lat="44.16836" lon="5.14507">
        <ele>397</ele>
        <time>2020-07-11T10:11:17.597Z</time>
      </trkpt>
      <trkpt lat="44.16839" lon="5.14497">
        <ele>397</ele>
        <time>2020-07-11T10:11:18.597Z</time>
      </trkpt>
      <trkpt lat="44.16841" lon="5.14488">
        <ele>397</ele>
        <time>2020-07-11T10:11:19.596Z</time>
      </trkpt>
      <trkpt lat="44.16842" lon="5.14478">
        <ele>397</ele>
        <time>2020-07-11T10:11:20.597Z</time>
      </trkpt>
      <trkpt lat="44.16844" lon="5.14468">
        <ele>397</ele>
        <time>2020-07-11T10:11:21.596Z</time>
      </trkpt>
      <trkpt lat="44.16846" lon="5.14458">
        <ele>397</ele>
        <time>2020-07-11T10:11:22.597Z</time>
      </trkpt>
      <trkpt lat="44.16847" lon="5.14449">
        <ele>397</ele>
        <time>2020-07-11T10:11:23.597Z</time>
      </trkpt>
      <trkpt lat="44.16849" lon="5.14436">
        <ele>397</ele>
        <time>2020-07-11T10:11:24.597Z</time>
      </trkpt>
      <trkpt lat="44.16851" lon="5.14426">
        <ele>396</ele>
        <time>2020-07-11T10:11:25.597Z</time>
      </trkpt>
      <trkpt lat="44.16852" lon="5.14415">
        <ele>396</ele>
        <time>2020-07-11T10:11:26.597Z</time>
      </trkpt>
      <trkpt lat="44.16854" lon="5.14404">
        <ele>395</ele>
        <time>2020-07-11T10:11:27.597Z</time>
      </trkpt>
      <trkpt lat="44.16856" lon="5.14395">
        <ele>394</ele>
        <time>2020-07-11T10:11:28.597Z</time>
      </trkpt>
      <trkpt lat="44.16859" lon="5.14381">
        <ele>393</ele>
        <time>2020-07-11T10:11:29.597Z</time>
      </trkpt>
      <trkpt lat="44.16862" lon="5.1437">
        <ele>392</ele>
        <time>2020-07-11T10:11:30.596Z</time>
      </trkpt>
      <trkpt lat="44.16865" lon="5.14358">
        <ele>391</ele>
        <time>2020-07-11T10:11:31.597Z</time>
      </trkpt>
      <trkpt lat="44.16869" lon="5.14347">
        <ele>391</ele>
        <time>2020-07-11T10:11:32.597Z</time>
      </trkpt>
      <trkpt lat="44.16873" lon="5.14337">
        <ele>390</ele>
        <time>2020-07-11T10:11:33.597Z</time>
      </trkpt>
      <trkpt lat="44.16878" lon="5.14326">
        <ele>389</ele>
        <time>2020-07-11T10:11:34.597Z</time>
      </trkpt>
      <trkpt lat="44.16883" lon="5.14316">
        <ele>389</ele>
        <time>2020-07-11T10:11:35.597Z</time>
      </trkpt>
      <trkpt lat="44.16888" lon="5.14306">
        <ele>389</ele>
        <time>2020-07-11T10:11:36.597Z</time>
      </trkpt>
      <trkpt lat="44.16893" lon="5.14296">
        <ele>389</ele>
        <time>2020-07-11T10:11:37.596Z</time>
      </trkpt>
      <trkpt lat="44.16899" lon="5.14286">
        <ele>389</ele>
        <time>2020-07-11T10:11:38.597Z</time>
      </trkpt>
      <trkpt lat="44.16904" lon="5.14277">
        <ele>389</ele>
        <time>2020-07-11T10:11:39.596Z</time>
      </trkpt>
      <trkpt lat="44.16909" lon="5.14268">
        <ele>388</ele>
        <time>2020-07-11T10:11:40.596Z</time>
      </trkpt>
      <trkpt lat="44.16914" lon="5.14258">
        <ele>388</ele>
        <time>2020-07-11T10:11:41.597Z</time>
      </trkpt>
      <trkpt lat="44.16919" lon="5.14249">
        <ele>388</ele>
        <time>2020-07-11T10:11:42.597Z</time>
      </trkpt>
      <trkpt lat="44.16924" lon="5.14241">
        <ele>387</ele>
        <time>2020-07-11T10:11:43.596Z</time>
      </trkpt>
      <trkpt lat="44.16927" lon="5.14235">
        <ele>387</ele>
        <time>2020-07-11T10:11:44.597Z</time>
      </trkpt>
      <trkpt lat="44.16932" lon="5.14227">
        <ele>387</ele>
        <time>2020-07-11T10:11:45.596Z</time>
      </trkpt>
      <trkpt lat="44.16937" lon="5.14217">
        <ele>387</ele>
        <time>2020-07-11T10:11:46.597Z</time>
      </trkpt>
      <trkpt lat="44.16941" lon="5.14209">
        <ele>386</ele>
        <time>2020-07-11T10:11:47.596Z</time>
      </trkpt>
      <trkpt lat="44.16946" lon="5.14202">
        <ele>386</ele>
        <time>2020-07-11T10:11:48.596Z</time>
      </trkpt>
      <trkpt lat="44.16951" lon="5.14195">
        <ele>385</ele>
        <time>2020-07-11T10:11:49.597Z</time>
      </trkpt>
      <trkpt lat="44.16957" lon="5.14189">
        <ele>384</ele>
        <time>2020-07-11T10:11:50.597Z</time>
      </trkpt>
      <trkpt lat="44.16963" lon="5.14183">
        <ele>384</ele>
        <time>2020-07-11T10:11:51.597Z</time>
      </trkpt>
      <trkpt lat="44.16969" lon="5.14176">
        <ele>383</ele>
        <time>2020-07-11T10:11:52.597Z</time>
      </trkpt>
      <trkpt lat="44.16975" lon="5.1417">
        <ele>383</ele>
        <time>2020-07-11T10:11:53.596Z</time>
      </trkpt>
      <trkpt lat="44.16981" lon="5.14163">
        <ele>382</ele>
        <time>2020-07-11T10:11:54.596Z</time>
      </trkpt>
      <trkpt lat="44.16987" lon="5.14155">
        <ele>382</ele>
        <time>2020-07-11T10:11:55.597Z</time>
      </trkpt>
      <trkpt lat="44.16993" lon="5.14146">
        <ele>382</ele>
        <time>2020-07-11T10:11:56.597Z</time>
      </trkpt>
      <trkpt lat="44.16998" lon="5.14136">
        <ele>381</ele>
        <time>2020-07-11T10:11:57.597Z</time>
      </trkpt>
      <trkpt lat="44.17002" lon="5.14126">
        <ele>381</ele>
        <time>2020-07-11T10:11:58.596Z</time>
      </trkpt>
      <trkpt lat="44.17006" lon="5.14117">
        <ele>381</ele>
        <time>2020-07-11T10:11:59.597Z</time>
      </trkpt>
      <trkpt lat="44.1701" lon="5.14107">
        <ele>380</ele>
        <time>2020-07-11T10:12:00.597Z</time>
      </trkpt>
      <trkpt lat="44.17015" lon="5.14099">
        <ele>380</ele>
        <time>2020-07-11T10:12:01.597Z</time>
      </trkpt>
      <trkpt lat="44.17021" lon="5.14091">
        <ele>380</ele>
        <time>2020-07-11T10:12:02.597Z</time>
      </trkpt>
      <trkpt lat="44.17027" lon="5.14083">
        <ele>379</ele>
        <time>2020-07-11T10:12:03.597Z</time>
      </trkpt>
      <trkpt lat="44.17034" lon="5.14074">
        <ele>378</ele>
        <time>2020-07-11T10:12:04.597Z</time>
      </trkpt>
      <trkpt lat="44.1704" lon="5.14067">
        <ele>378</ele>
        <time>2020-07-11T10:12:05.597Z</time>
      </trkpt>
      <trkpt lat="44.17046" lon="5.1406">
        <ele>378</ele>
        <time>2020-07-11T10:12:06.596Z</time>
      </trkpt>
      <trkpt lat="44.17053" lon="5.14052">
        <ele>377</ele>
        <time>2020-07-11T10:12:07.597Z</time>
      </trkpt>
      <trkpt lat="44.17059" lon="5.14044">
        <ele>377</ele>
        <time>2020-07-11T10:12:08.596Z</time>
      </trkpt>
      <trkpt lat="44.17064" lon="5.14036">
        <ele>376</ele>
        <time>2020-07-11T10:12:09.597Z</time>
      </trkpt>
      <trkpt lat="44.17069" lon="5.14027">
        <ele>375</ele>
        <time>2020-07-11T10:12:10.597Z</time>
      </trkpt>
      <trkpt lat="44.17073" lon="5.14018">
        <ele>375</ele>
        <time>2020-07-11T10:12:11.597Z</time>
      </trkpt>
      <trkpt lat="44.17076" lon="5.14008">
        <ele>374</ele>
        <time>2020-07-11T10:12:12.597Z</time>
      </trkpt>
      <trkpt lat="44.17079" lon="5.13999">
        <ele>372</ele>
        <time>2020-07-11T10:12:13.597Z</time>
      </trkpt>
      <trkpt lat="44.17081" lon="5.13989">
        <ele>371</ele>
        <time>2020-07-11T10:12:14.596Z</time>
      </trkpt>
      <trkpt lat="44.17084" lon="5.13979">
        <ele>370</ele>
        <time>2020-07-11T10:12:15.597Z</time>
      </trkpt>
      <trkpt lat="44.17088" lon="5.13969">
        <ele>369</ele>
        <time>2020-07-11T10:12:16.596Z</time>
      </trkpt>
      <trkpt lat="44.17093" lon="5.1396">
        <ele>369</ele>
        <time>2020-07-11T10:12:17.597Z</time>
      </trkpt>
      <trkpt lat="44.17098" lon="5.13952">
        <ele>368</ele>
        <time>2020-07-11T10:12:18.597Z</time>
      </trkpt>
      <trkpt lat="44.17104" lon="5.13944">
        <ele>368</ele>
        <time>2020-07-11T10:12:19.597Z</time>
      </trkpt>
      <trkpt lat="44.1711" lon="5.13937">
        <ele>367</ele>
        <time>2020-07-11T10:12:20.596Z</time>
      </trkpt>
      <trkpt lat="44.17116" lon="5.1393">
        <ele>367</ele>
        <time>2020-07-11T10:12:21.596Z</time>
      </trkpt>
      <trkpt lat="44.17122" lon="5.13922">
        <ele>366</ele>
        <time>2020-07-11T10:12:22.597Z</time>
      </trkpt>
      <trkpt lat="44.17129" lon="5.13915">
        <ele>365</ele>
        <time>2020-07-11T10:12:23.597Z</time>
      </trkpt>
      <trkpt lat="44.17134" lon="5.13907">
        <ele>365</ele>
        <time>2020-07-11T10:12:24.597Z</time>
      </trkpt>
      <trkpt lat="44.17139" lon="5.13899">
        <ele>364</ele>
        <time>2020-07-11T10:12:25.597Z</time>
      </trkpt>
      <trkpt lat="44.17143" lon="5.1389">
        <ele>364</ele>
        <time>2020-07-11T10:12:26.596Z</time>
      </trkpt>
      <trkpt lat="44.17147" lon="5.13881">
        <ele>363</ele>
        <time>2020-07-11T10:12:27.597Z</time>
      </trkpt>
      <trkpt lat="44.17151" lon="5.13871">
        <ele>362</ele>
        <time>2020-07-11T10:12:28.596Z</time>
      </trkpt>
      <trkpt lat="44.17154" lon="5.13862">
        <ele>362</ele>
        <time>2020-07-11T10:12:29.596Z</time>
      </trkpt>
      <trkpt lat="44.17158" lon="5.13852">
        <ele>361</ele>
        <time>2020-07-11T10:12:30.597Z</time>
      </trkpt>
      <trkpt lat="44.17162" lon="5.13841">
        <ele>361</ele>
        <time>2020-07-11T10:12:31.597Z</time>
      </trkpt>
      <trkpt lat="44.17166" lon="5.13831">
        <ele>361</ele>
        <time>2020-07-11T10:12:32.597Z</time>
      </trkpt>
      <trkpt lat="44.17171" lon="5.1382">
        <ele>360</ele>
        <time>2020-07-11T10:12:33.597Z</time>
      </trkpt>
      <trkpt lat="44.17176" lon="5.13811">
        <ele>360</ele>
        <time>2020-07-11T10:12:34.597Z</time>
      </trkpt>
      <trkpt lat="44.17182" lon="5.13802">
        <ele>359</ele>
        <time>2020-07-11T10:12:35.597Z</time>
      </trkpt>
      <trkpt lat="44.17189" lon="5.13793">
        <ele>358</ele>
        <time>2020-07-11T10:12:36.597Z</time>
      </trkpt>
      <trkpt lat="44.17196" lon="5.13785">
        <ele>358</ele>
        <time>2020-07-11T10:12:37.596Z</time>
      </trkpt>
      <trkpt lat="44.17203" lon="5.13777">
        <ele>358</ele>
        <time>2020-07-11T10:12:38.597Z</time>
      </trkpt>
      <trkpt lat="44.17211" lon="5.1377">
        <ele>358</ele>
        <time>2020-07-11T10:12:39.596Z</time>
      </trkpt>
      <trkpt lat="44.17219" lon="5.13763">
        <ele>358</ele>
        <time>2020-07-11T10:12:40.597Z</time>
      </trkpt>
      <trkpt lat="44.17226" lon="5.13756">
        <ele>358</ele>
        <time>2020-07-11T10:12:41.596Z</time>
      </trkpt>
      <trkpt lat="44.17235" lon="5.13748">
        <ele>358</ele>
        <time>2020-07-11T10:12:42.596Z</time>
      </trkpt>
      <trkpt lat="44.17243" lon="5.1374">
        <ele>358</ele>
        <time>2020-07-11T10:12:43.597Z</time>
      </trkpt>
      <trkpt lat="44.1725" lon="5.13733">
        <ele>358</ele>
        <time>2020-07-11T10:12:44.597Z</time>
      </trkpt>
      <trkpt lat="44.17258" lon="5.13725">
        <ele>358</ele>
        <time>2020-07-11T10:12:45.596Z</time>
      </trkpt>
      <trkpt lat="44.17265" lon="5.13718">
        <ele>357</ele>
        <time>2020-07-11T10:12:46.597Z</time>
      </trkpt>
      <trkpt lat="44.17273" lon="5.1371">
        <ele>357</ele>
        <time>2020-07-11T10:12:47.597Z</time>
      </trkpt>
      <trkpt lat="44.1728" lon="5.13702">
        <ele>357</ele>
        <time>2020-07-11T10:12:48.597Z</time>
      </trkpt>
      <trkpt lat="44.17285" lon="5.13693">
        <ele>356</ele>
        <time>2020-07-11T10:12:49.597Z</time>
      </trkpt>
      <trkpt lat="44.1729" lon="5.13682">
        <ele>356</ele>
        <time>2020-07-11T10:12:50.597Z</time>
      </trkpt>
      <trkpt lat="44.17294" lon="5.13671">
        <ele>356</ele>
        <time>2020-07-11T10:12:51.597Z</time>
      </trkpt>
      <trkpt lat="44.17297" lon="5.13659">
        <ele>355</ele>
        <time>2020-07-11T10:12:52.597Z</time>
      </trkpt>
      <trkpt lat="44.173" lon="5.13648">
        <ele>355</ele>
        <time>2020-07-11T10:12:53.597Z</time>
      </trkpt>
      <trkpt lat="44.17303" lon="5.13636">
        <ele>354</ele>
        <time>2020-07-11T10:12:54.597Z</time>
      </trkpt>
      <trkpt lat="44.17306" lon="5.13623">
        <ele>353</ele>
        <time>2020-07-11T10:12:55.597Z</time>
      </trkpt>
      <trkpt lat="44.17309" lon="5.13609">
        <ele>353</ele>
        <time>2020-07-11T10:12:56.597Z</time>
      </trkpt>
      <trkpt lat="44.17312" lon="5.13597">
        <ele>352</ele>
        <time>2020-07-11T10:12:57.597Z</time>
      </trkpt>
      <trkpt lat="44.17314" lon="5.13583">
        <ele>352</ele>
        <time>2020-07-11T10:12:58.597Z</time>
      </trkpt>
      <trkpt lat="44.17315" lon="5.13569">
        <ele>352</ele>
        <time>2020-07-11T10:12:59.597Z</time>
      </trkpt>
      <trkpt lat="44.17317" lon="5.13556">
        <ele>351</ele>
        <time>2020-07-11T10:13:00.597Z</time>
      </trkpt>
      <trkpt lat="44.17318" lon="5.13546">
        <ele>350</ele>
        <time>2020-07-11T10:13:01.597Z</time>
      </trkpt>
      <trkpt lat="44.17318" lon="5.13535">
        <ele>350</ele>
        <time>2020-07-11T10:13:02.597Z</time>
      </trkpt>
      <trkpt lat="44.17318" lon="5.13525">
        <ele>349</ele>
        <time>2020-07-11T10:13:03.596Z</time>
      </trkpt>
      <trkpt lat="44.17317" lon="5.13514">
        <ele>348</ele>
        <time>2020-07-11T10:13:04.597Z</time>
      </trkpt>
      <trkpt lat="44.17316" lon="5.13504">
        <ele>347</ele>
        <time>2020-07-11T10:13:05.597Z</time>
      </trkpt>
      <trkpt lat="44.17315" lon="5.13493">
        <ele>346</ele>
        <time>2020-07-11T10:13:06.597Z</time>
      </trkpt>
      <trkpt lat="44.17315" lon="5.13483">
        <ele>345</ele>
        <time>2020-07-11T10:13:07.597Z</time>
      </trkpt>
      <trkpt lat="44.17314" lon="5.13471">
        <ele>345</ele>
        <time>2020-07-11T10:13:08.597Z</time>
      </trkpt>
      <trkpt lat="44.17315" lon="5.1346">
        <ele>344</ele>
        <time>2020-07-11T10:13:09.596Z</time>
      </trkpt>
      <trkpt lat="44.17316" lon="5.13449">
        <ele>343</ele>
        <time>2020-07-11T10:13:10.597Z</time>
      </trkpt>
      <trkpt lat="44.17317" lon="5.13437">
        <ele>343</ele>
        <time>2020-07-11T10:13:11.596Z</time>
      </trkpt>
      <trkpt lat="44.17318" lon="5.13426">
        <ele>342</ele>
        <time>2020-07-11T10:13:12.597Z</time>
      </trkpt>
      <trkpt lat="44.17319" lon="5.13416">
        <ele>342</ele>
        <time>2020-07-11T10:13:13.596Z</time>
      </trkpt>
      <trkpt lat="44.17319" lon="5.13406">
        <ele>342</ele>
        <time>2020-07-11T10:13:14.597Z</time>
      </trkpt>
      <trkpt lat="44.1732" lon="5.13398">
        <ele>341</ele>
        <time>2020-07-11T10:13:15.597Z</time>
      </trkpt>
      <trkpt lat="44.1732" lon="5.13391">
        <ele>341</ele>
        <time>2020-07-11T10:13:16.597Z</time>
      </trkpt>
      <trkpt lat="44.17321" lon="5.13385">
        <ele>340</ele>
        <time>2020-07-11T10:13:17.597Z</time>
      </trkpt>
      <trkpt lat="44.17322" lon="5.1338">
        <ele>339</ele>
        <time>2020-07-11T10:13:18.596Z</time>
      </trkpt>
      <trkpt lat="44.17323" lon="5.13376">
        <ele>339</ele>
        <time>2020-07-11T10:13:19.597Z</time>
      </trkpt>
      <trkpt lat="44.17324" lon="5.13373">
        <ele>338</ele>
        <time>2020-07-11T10:13:20.596Z</time>
      </trkpt>
      <trkpt lat="44.17325" lon="5.13372">
        <ele>337</ele>
        <time>2020-07-11T10:13:21.596Z</time>
      </trkpt>
      <trkpt lat="44.17327" lon="5.13371">
        <ele>336</ele>
        <time>2020-07-11T10:13:22.596Z</time>
      </trkpt>
      <trkpt lat="44.17327" lon="5.1337">
        <ele>335</ele>
        <time>2020-07-11T10:13:23.597Z</time>
      </trkpt>
      <trkpt lat="44.17327" lon="5.1337">
        <ele>334</ele>
        <time>2020-07-11T10:13:24.596Z</time>
      </trkpt>
      <trkpt lat="44.17327" lon="5.13369">
        <ele>334</ele>
        <time>2020-07-11T10:13:25.596Z</time>
      </trkpt>
      <trkpt lat="44.17327" lon="5.13369">
        <ele>333</ele>
        <time>2020-07-11T10:13:26.597Z</time>
      </trkpt>
      <trkpt lat="44.17327" lon="5.13372">
        <ele>333</ele>
        <time>2020-07-11T10:13:27.597Z</time>
      </trkpt>
      <trkpt lat="44.17326" lon="5.13372">
        <ele>333</ele>
        <time>2020-07-11T10:13:28.597Z</time>
      </trkpt>
      <trkpt lat="44.17324" lon="5.13378">
        <ele>329</ele>
        <time>2020-07-11T10:13:29.599Z</time>
      </trkpt>
      <trkpt lat="44.17332" lon="5.13375">
        <ele>328</ele>
        <time>2020-07-11T10:13:30.598Z</time>
      </trkpt>
      <trkpt lat="44.17336" lon="5.13374">
        <ele>328</ele>
        <time>2020-07-11T10:13:31.598Z</time>
      </trkpt>
      <trkpt lat="44.1734" lon="5.13372">
        <ele>328</ele>
        <time>2020-07-11T10:13:32.598Z</time>
      </trkpt>
      <trkpt lat="44.17344" lon="5.1337">
        <ele>328</ele>
        <time>2020-07-11T10:13:33.599Z</time>
      </trkpt>
      <trkpt lat="44.17347" lon="5.13367">
        <ele>328</ele>
        <time>2020-07-11T10:13:34.598Z</time>
      </trkpt>
      <trkpt lat="44.17351" lon="5.13363">
        <ele>328</ele>
        <time>2020-07-11T10:13:35.599Z</time>
      </trkpt>
      <trkpt lat="44.17354" lon="5.13359">
        <ele>328</ele>
        <time>2020-07-11T10:13:36.599Z</time>
      </trkpt>
      <trkpt lat="44.17358" lon="5.13356">
        <ele>328</ele>
        <time>2020-07-11T10:13:37.599Z</time>
      </trkpt>
      <trkpt lat="44.17361" lon="5.13354">
        <ele>328</ele>
        <time>2020-07-11T10:13:38.599Z</time>
      </trkpt>
      <trkpt lat="44.17363" lon="5.13352">
        <ele>328</ele>
        <time>2020-07-11T10:13:39.599Z</time>
      </trkpt>
      <trkpt lat="44.17366" lon="5.13349">
        <ele>328</ele>
        <time>2020-07-11T10:13:40.599Z</time>
      </trkpt>
      <trkpt lat="44.17368" lon="5.13349">
        <ele>327</ele>
        <time>2020-07-11T10:13:41.599Z</time>
      </trkpt>
      <trkpt lat="44.17369" lon="5.13349">
        <ele>327</ele>
        <time>2020-07-11T10:13:42.599Z</time>
      </trkpt>
      <trkpt lat="44.17371" lon="5.1335">
        <ele>327</ele>
        <time>2020-07-11T10:13:43.598Z</time>
      </trkpt>
      <trkpt lat="44.17373" lon="5.13352">
        <ele>327</ele>
        <time>2020-07-11T10:13:44.599Z</time>
      </trkpt>
      <trkpt lat="44.17375" lon="5.13354">
        <ele>327</ele>
        <time>2020-07-11T10:13:45.598Z</time>
      </trkpt>
      <trkpt lat="44.17377" lon="5.13354">
        <ele>327</ele>
        <time>2020-07-11T10:13:46.599Z</time>
      </trkpt>
      <trkpt lat="44.17379" lon="5.13354">
        <ele>327</ele>
        <time>2020-07-11T10:13:47.598Z</time>
      </trkpt>
      <trkpt lat="44.1738" lon="5.13353">
        <ele>328</ele>
        <time>2020-07-11T10:13:48.599Z</time>
      </trkpt>
      <trkpt lat="44.17382" lon="5.13352">
        <ele>328</ele>
        <time>2020-07-11T10:13:49.599Z</time>
      </trkpt>
      <trkpt lat="44.17384" lon="5.13351">
        <ele>328</ele>
        <time>2020-07-11T10:13:50.599Z</time>
      </trkpt>
      <trkpt lat="44.17386" lon="5.1335">
        <ele>328</ele>
        <time>2020-07-11T10:13:51.598Z</time>
      </trkpt>
      <trkpt lat="44.17387" lon="5.13348">
        <ele>329</ele>
        <time>2020-07-11T10:13:52.599Z</time>
      </trkpt>
      <trkpt lat="44.17389" lon="5.13346">
        <ele>329</ele>
        <time>2020-07-11T10:13:53.599Z</time>
      </trkpt>
      <trkpt lat="44.17391" lon="5.13345">
        <ele>329</ele>
        <time>2020-07-11T10:13:54.599Z</time>
      </trkpt>
      <trkpt lat="44.17392" lon="5.13343">
        <ele>330</ele>
        <time>2020-07-11T10:13:55.599Z</time>
      </trkpt>
      <trkpt lat="44.17394" lon="5.13341">
        <ele>330</ele>
        <time>2020-07-11T10:13:56.599Z</time>
      </trkpt>
      <trkpt lat="44.17396" lon="5.13339">
        <ele>331</ele>
        <time>2020-07-11T10:13:57.599Z</time>
      </trkpt>
      <trkpt lat="44.17398" lon="5.13337">
        <ele>331</ele>
        <time>2020-07-11T10:13:58.599Z</time>
      </trkpt>
      <trkpt lat="44.174" lon="5.13335">
        <ele>331</ele>
        <time>2020-07-11T10:13:59.599Z</time>
      </trkpt>
      <trkpt lat="44.17401" lon="5.13334">
        <ele>331</ele>
        <time>2020-07-11T10:14:00.599Z</time>
      </trkpt>
      <trkpt lat="44.17403" lon="5.13333">
        <ele>331</ele>
        <time>2020-07-11T10:14:01.599Z</time>
      </trkpt>
      <trkpt lat="44.17403" lon="5.13332">
        <ele>331</ele>
        <time>2020-07-11T10:14:02.599Z</time>
      </trkpt>
      <trkpt lat="44.17403" lon="5.13331">
        <ele>331</ele>
        <time>2020-07-11T10:14:03.599Z</time>
      </trkpt>
      <trkpt lat="44.17403" lon="5.13329">
        <ele>331</ele>
        <time>2020-07-11T10:14:04.599Z</time>
      </trkpt>
      <trkpt lat="44.17403" lon="5.13329">
        <ele>331</ele>
        <time>2020-07-11T10:14:05.599Z</time>
      </trkpt>
      <trkpt lat="44.17403" lon="5.1333">
        <ele>331</ele>
        <time>2020-07-11T10:14:06.599Z</time>
      </trkpt>
      <trkpt lat="44.17405" lon="5.13327">
        <ele>331</ele>
        <time>2020-07-11T10:14:07.598Z</time>
      </trkpt>
      <trkpt lat="44.17407" lon="5.13326">
        <ele>331</ele>
        <time>2020-07-11T10:14:08.598Z</time>
      </trkpt>
      <trkpt lat="44.17409" lon="5.13323">
        <ele>331</ele>
        <time>2020-07-11T10:14:09.598Z</time>
      </trkpt>
      <trkpt lat="44.17411" lon="5.13321">
        <ele>331</ele>
        <time>2020-07-11T10:14:10.599Z</time>
      </trkpt>
      <trkpt lat="44.17413" lon="5.1332">
        <ele>331</ele>
        <time>2020-07-11T10:14:11.599Z</time>
      </trkpt>
      <trkpt lat="44.17415" lon="5.13317">
        <ele>331</ele>
        <time>2020-07-11T10:14:12.598Z</time>
      </trkpt>
      <trkpt lat="44.17417" lon="5.13316">
        <ele>331</ele>
        <time>2020-07-11T10:14:13.599Z</time>
      </trkpt>
      <trkpt lat="44.17419" lon="5.13314">
        <ele>331</ele>
        <time>2020-07-11T10:14:14.599Z</time>
      </trkpt>
      <trkpt lat="44.1742" lon="5.13312">
        <ele>331</ele>
        <time>2020-07-11T10:14:15.599Z</time>
      </trkpt>
      <trkpt lat="44.17422" lon="5.13309">
        <ele>332</ele>
        <time>2020-07-11T10:14:16.599Z</time>
      </trkpt>
      <trkpt lat="44.17423" lon="5.13307">
        <ele>332</ele>
        <time>2020-07-11T10:14:17.598Z</time>
      </trkpt>
      <trkpt lat="44.17423" lon="5.13305">
        <ele>331</ele>
        <time>2020-07-11T10:14:18.598Z</time>
      </trkpt>
      <trkpt lat="44.17423" lon="5.13302">
        <ele>331</ele>
        <time>2020-07-11T10:14:19.598Z</time>
      </trkpt>
      <trkpt lat="44.17423" lon="5.13301">
        <ele>331</ele>
        <time>2020-07-11T10:14:20.598Z</time>
      </trkpt>
      <trkpt lat="44.17423" lon="5.13301">
        <ele>331</ele>
        <time>2020-07-11T10:14:21.599Z</time>
      </trkpt>
      <trkpt lat="44.17423" lon="5.13301">
        <ele>331</ele>
        <time>2020-07-11T10:14:22.599Z</time>
      </trkpt>
      <trkpt lat="44.17423" lon="5.13299">
        <ele>331</ele>
        <time>2020-07-11T10:14:23.600Z</time>
      </trkpt>
      <trkpt lat="44.17423" lon="5.13299">
        <ele>331</ele>
        <time>2020-07-11T10:14:24.600Z</time>
      </trkpt>
      <trkpt lat="44.17423" lon="5.13298">
        <ele>331</ele>
        <time>2020-07-11T10:14:25.600Z</time>
      </trkpt>
      <trkpt lat="44.17422" lon="5.13298">
        <ele>331</ele>
        <time>2020-07-11T10:14:26.599Z</time>
      </trkpt>
      <trkpt lat="44.17415" lon="5.13305">
        <ele>331</ele>
        <time>2020-07-11T10:14:27.602Z</time>
      </trkpt>
      <trkpt lat="44.17414" lon="5.13304">
        <ele>331</ele>
        <time>2020-07-11T10:14:28.602Z</time>
      </trkpt>
      <trkpt lat="44.17413" lon="5.13303">
        <ele>331</ele>
        <time>2020-07-11T10:14:29.601Z</time>
      </trkpt>
      <trkpt lat="44.1741" lon="5.13303">
        <ele>331</ele>
        <time>2020-07-11T10:14:30.602Z</time>
      </trkpt>
      <trkpt lat="44.17408" lon="5.13303">
        <ele>331</ele>
        <time>2020-07-11T10:14:31.602Z</time>
      </trkpt>
      <trkpt lat="44.17406" lon="5.13305">
        <ele>332</ele>
        <time>2020-07-11T10:14:32.602Z</time>
      </trkpt>
      <trkpt lat="44.17404" lon="5.13307">
        <ele>332</ele>
        <time>2020-07-11T10:14:33.602Z</time>
      </trkpt>
      <trkpt lat="44.17402" lon="5.1331">
        <ele>332</ele>
        <time>2020-07-11T10:14:34.602Z</time>
      </trkpt>
      <trkpt lat="44.17399" lon="5.13312">
        <ele>332</ele>
        <time>2020-07-11T10:14:35.602Z</time>
      </trkpt>
      <trkpt lat="44.17396" lon="5.13316">
        <ele>332</ele>
        <time>2020-07-11T10:14:36.602Z</time>
      </trkpt>
      <trkpt lat="44.17393" lon="5.13319">
        <ele>331</ele>
        <time>2020-07-11T10:14:37.601Z</time>
      </trkpt>
      <trkpt lat="44.17391" lon="5.13321">
        <ele>331</ele>
        <time>2020-07-11T10:14:38.601Z</time>
      </trkpt>
      <trkpt lat="44.17389" lon="5.13323">
        <ele>331</ele>
        <time>2020-07-11T10:14:39.602Z</time>
      </trkpt>
      <trkpt lat="44.17388" lon="5.13324">
        <ele>330</ele>
        <time>2020-07-11T10:14:40.602Z</time>
      </trkpt>
      <trkpt lat="44.17386" lon="5.13326">
        <ele>330</ele>
        <time>2020-07-11T10:14:41.602Z</time>
      </trkpt>
      <trkpt lat="44.17385" lon="5.13327">
        <ele>329</ele>
        <time>2020-07-11T10:14:42.602Z</time>
      </trkpt>
      <trkpt lat="44.17385" lon="5.13327">
        <ele>329</ele>
        <time>2020-07-11T10:14:43.602Z</time>
      </trkpt>
      <trkpt lat="44.17384" lon="5.13327">
        <ele>328</ele>
        <time>2020-07-11T10:14:44.602Z</time>
      </trkpt>
      <trkpt lat="44.17385" lon="5.13326">
        <ele>328</ele>
        <time>2020-07-11T10:14:45.602Z</time>
      </trkpt>
      <trkpt lat="44.17384" lon="5.13326">
        <ele>328</ele>
        <time>2020-07-11T10:14:46.602Z</time>
      </trkpt>
      <trkpt lat="44.1738" lon="5.13326">
        <ele>324</ele>
        <time>2020-07-11T10:14:47.604Z</time>
      </trkpt>
      <trkpt lat="44.17378" lon="5.13328">
        <ele>324</ele>
        <time>2020-07-11T10:14:48.604Z</time>
      </trkpt>
      <trkpt lat="44.17377" lon="5.13329">
        <ele>324</ele>
        <time>2020-07-11T10:14:49.604Z</time>
      </trkpt>
      <trkpt lat="44.1738" lon="5.13333">
        <ele>330</ele>
        <time>2020-07-11T10:14:50.604Z</time>
      </trkpt>
      <trkpt lat="44.17384" lon="5.1333">
        <ele>330</ele>
        <time>2020-07-11T10:14:51.604Z</time>
      </trkpt>
      <trkpt lat="44.17387" lon="5.13327">
        <ele>330</ele>
        <time>2020-07-11T10:14:52.604Z</time>
      </trkpt>
      <trkpt lat="44.17391" lon="5.13324">
        <ele>330</ele>
        <time>2020-07-11T10:14:53.604Z</time>
      </trkpt>
      <trkpt lat="44.17395" lon="5.1332">
        <ele>330</ele>
        <time>2020-07-11T10:14:54.604Z</time>
      </trkpt>
      <trkpt lat="44.17399" lon="5.13317">
        <ele>330</ele>
        <time>2020-07-11T10:14:55.604Z</time>
      </trkpt>
      <trkpt lat="44.17403" lon="5.13313">
        <ele>330</ele>
        <time>2020-07-11T10:14:56.603Z</time>
      </trkpt>
      <trkpt lat="44.17407" lon="5.13309">
        <ele>330</ele>
        <time>2020-07-11T10:14:57.604Z</time>
      </trkpt>
      <trkpt lat="44.1741" lon="5.13306">
        <ele>330</ele>
        <time>2020-07-11T10:14:58.604Z</time>
      </trkpt>
      <trkpt lat="44.17413" lon="5.13302">
        <ele>330</ele>
        <time>2020-07-11T10:14:59.604Z</time>
      </trkpt>
      <trkpt lat="44.17416" lon="5.13299">
        <ele>330</ele>
        <time>2020-07-11T10:15:00.604Z</time>
      </trkpt>
      <trkpt lat="44.17419" lon="5.13295">
        <ele>330</ele>
        <time>2020-07-11T10:15:01.604Z</time>
      </trkpt>
      <trkpt lat="44.17422" lon="5.13292">
        <ele>330</ele>
        <time>2020-07-11T10:15:02.604Z</time>
      </trkpt>
      <trkpt lat="44.17426" lon="5.13289">
        <ele>330</ele>
        <time>2020-07-11T10:15:03.604Z</time>
      </trkpt>
      <trkpt lat="44.1743" lon="5.13285">
        <ele>330</ele>
        <time>2020-07-11T10:15:04.604Z</time>
      </trkpt>
      <trkpt lat="44.17433" lon="5.13282">
        <ele>330</ele>
        <time>2020-07-11T10:15:05.604Z</time>
      </trkpt>
      <trkpt lat="44.17437" lon="5.13279">
        <ele>329</ele>
        <time>2020-07-11T10:15:06.604Z</time>
      </trkpt>
      <trkpt lat="44.1744" lon="5.13275">
        <ele>329</ele>
        <time>2020-07-11T10:15:07.604Z</time>
      </trkpt>
      <trkpt lat="44.17443" lon="5.13272">
        <ele>329</ele>
        <time>2020-07-11T10:15:08.604Z</time>
      </trkpt>
      <trkpt lat="44.17446" lon="5.13269">
        <ele>329</ele>
        <time>2020-07-11T10:15:09.604Z</time>
      </trkpt>
      <trkpt lat="44.17448" lon="5.13267">
        <ele>328</ele>
        <time>2020-07-11T10:15:10.604Z</time>
      </trkpt>
      <trkpt lat="44.17451" lon="5.13265">
        <ele>328</ele>
        <time>2020-07-11T10:15:11.604Z</time>
      </trkpt>
      <trkpt lat="44.17453" lon="5.13262">
        <ele>328</ele>
        <time>2020-07-11T10:15:12.603Z</time>
      </trkpt>
      <trkpt lat="44.17456" lon="5.1326">
        <ele>327</ele>
        <time>2020-07-11T10:15:13.604Z</time>
      </trkpt>
      <trkpt lat="44.17459" lon="5.13257">
        <ele>327</ele>
        <time>2020-07-11T10:15:14.604Z</time>
      </trkpt>
      <trkpt lat="44.17462" lon="5.13254">
        <ele>327</ele>
        <time>2020-07-11T10:15:15.604Z</time>
      </trkpt>
      <trkpt lat="44.17465" lon="5.1325">
        <ele>327</ele>
        <time>2020-07-11T10:15:16.603Z</time>
      </trkpt>
      <trkpt lat="44.17468" lon="5.13246">
        <ele>327</ele>
        <time>2020-07-11T10:15:17.604Z</time>
      </trkpt>
      <trkpt lat="44.17471" lon="5.13242">
        <ele>327</ele>
        <time>2020-07-11T10:15:18.603Z</time>
      </trkpt>
      <trkpt lat="44.17475" lon="5.13239">
        <ele>327</ele>
        <time>2020-07-11T10:15:19.603Z</time>
      </trkpt>
      <trkpt lat="44.17478" lon="5.13236">
        <ele>327</ele>
        <time>2020-07-11T10:15:20.604Z</time>
      </trkpt>
      <trkpt lat="44.17482" lon="5.13232">
        <ele>327</ele>
        <time>2020-07-11T10:15:21.604Z</time>
      </trkpt>
      <trkpt lat="44.17486" lon="5.13228">
        <ele>328</ele>
        <time>2020-07-11T10:15:22.604Z</time>
      </trkpt>
      <trkpt lat="44.17489" lon="5.13224">
        <ele>328</ele>
        <time>2020-07-11T10:15:23.603Z</time>
      </trkpt>
      <trkpt lat="44.17493" lon="5.1322">
        <ele>327</ele>
        <time>2020-07-11T10:15:24.603Z</time>
      </trkpt>
      <trkpt lat="44.17498" lon="5.13216">
        <ele>327</ele>
        <time>2020-07-11T10:15:25.603Z</time>
      </trkpt>
      <trkpt lat="44.17503" lon="5.13211">
        <ele>327</ele>
        <time>2020-07-11T10:15:26.604Z</time>
      </trkpt>
      <trkpt lat="44.17507" lon="5.13207">
        <ele>326</ele>
        <time>2020-07-11T10:15:27.604Z</time>
      </trkpt>
      <trkpt lat="44.17512" lon="5.13202">
        <ele>326</ele>
        <time>2020-07-11T10:15:28.604Z</time>
      </trkpt>
      <trkpt lat="44.17518" lon="5.13196">
        <ele>326</ele>
        <time>2020-07-11T10:15:29.604Z</time>
      </trkpt>
      <trkpt lat="44.17523" lon="5.13191">
        <ele>326</ele>
        <time>2020-07-11T10:15:30.604Z</time>
      </trkpt>
      <trkpt lat="44.17529" lon="5.13185">
        <ele>325</ele>
        <time>2020-07-11T10:15:31.604Z</time>
      </trkpt>
      <trkpt lat="44.17534" lon="5.1318">
        <ele>325</ele>
        <time>2020-07-11T10:15:32.603Z</time>
      </trkpt>
      <trkpt lat="44.1754" lon="5.13174">
        <ele>325</ele>
        <time>2020-07-11T10:15:33.604Z</time>
      </trkpt>
      <trkpt lat="44.17545" lon="5.13169">
        <ele>325</ele>
        <time>2020-07-11T10:15:34.603Z</time>
      </trkpt>
      <trkpt lat="44.1755" lon="5.13163">
        <ele>325</ele>
        <time>2020-07-11T10:15:35.603Z</time>
      </trkpt>
      <trkpt lat="44.17555" lon="5.13157">
        <ele>325</ele>
        <time>2020-07-11T10:15:36.604Z</time>
      </trkpt>
      <trkpt lat="44.17558" lon="5.13149">
        <ele>325</ele>
        <time>2020-07-11T10:15:37.603Z</time>
      </trkpt>
      <trkpt lat="44.17561" lon="5.13142">
        <ele>325</ele>
        <time>2020-07-11T10:15:38.604Z</time>
      </trkpt>
      <trkpt lat="44.17564" lon="5.13133">
        <ele>325</ele>
        <time>2020-07-11T10:15:39.604Z</time>
      </trkpt>
      <trkpt lat="44.17566" lon="5.13125">
        <ele>325</ele>
        <time>2020-07-11T10:15:40.604Z</time>
      </trkpt>
      <trkpt lat="44.17567" lon="5.13115">
        <ele>325</ele>
        <time>2020-07-11T10:15:41.604Z</time>
      </trkpt>
      <trkpt lat="44.17569" lon="5.13105">
        <ele>324</ele>
        <time>2020-07-11T10:15:42.604Z</time>
      </trkpt>
      <trkpt lat="44.17569" lon="5.13095">
        <ele>324</ele>
        <time>2020-07-11T10:15:43.604Z</time>
      </trkpt>
      <trkpt lat="44.17571" lon="5.13085">
        <ele>324</ele>
        <time>2020-07-11T10:15:44.603Z</time>
      </trkpt>
      <trkpt lat="44.17572" lon="5.13076">
        <ele>324</ele>
        <time>2020-07-11T10:15:45.604Z</time>
      </trkpt>
      <trkpt lat="44.17572" lon="5.13066">
        <ele>324</ele>
        <time>2020-07-11T10:15:46.604Z</time>
      </trkpt>
      <trkpt lat="44.17571" lon="5.13057">
        <ele>324</ele>
        <time>2020-07-11T10:15:47.603Z</time>
      </trkpt>
      <trkpt lat="44.1757" lon="5.13048">
        <ele>324</ele>
        <time>2020-07-11T10:15:48.604Z</time>
      </trkpt>
      <trkpt lat="44.17569" lon="5.13039">
        <ele>324</ele>
        <time>2020-07-11T10:15:49.603Z</time>
      </trkpt>
      <trkpt lat="44.17568" lon="5.1303">
        <ele>323</ele>
        <time>2020-07-11T10:15:50.604Z</time>
      </trkpt>
      <trkpt lat="44.17566" lon="5.13021">
        <ele>323</ele>
        <time>2020-07-11T10:15:51.603Z</time>
      </trkpt>
      <trkpt lat="44.17564" lon="5.13013">
        <ele>323</ele>
        <time>2020-07-11T10:15:52.604Z</time>
      </trkpt>
      <trkpt lat="44.17562" lon="5.13004">
        <ele>323</ele>
        <time>2020-07-11T10:15:53.604Z</time>
      </trkpt>
      <trkpt lat="44.1756" lon="5.12996">
        <ele>323</ele>
        <time>2020-07-11T10:15:54.604Z</time>
      </trkpt>
      <trkpt lat="44.17558" lon="5.1299">
        <ele>323</ele>
        <time>2020-07-11T10:15:55.603Z</time>
      </trkpt>
      <trkpt lat="44.17557" lon="5.12985">
        <ele>323</ele>
        <time>2020-07-11T10:15:56.604Z</time>
      </trkpt>
      <trkpt lat="44.17556" lon="5.12981">
        <ele>323</ele>
        <time>2020-07-11T10:15:57.604Z</time>
      </trkpt>
      <trkpt lat="44.17555" lon="5.12978">
        <ele>324</ele>
        <time>2020-07-11T10:15:58.603Z</time>
      </trkpt>
      <trkpt lat="44.17555" lon="5.12975">
        <ele>324</ele>
        <time>2020-07-11T10:15:59.604Z</time>
      </trkpt>
      <trkpt lat="44.17555" lon="5.12973">
        <ele>323</ele>
        <time>2020-07-11T10:16:00.603Z</time>
      </trkpt>
      <trkpt lat="44.17555" lon="5.12972">
        <ele>323</ele>
        <time>2020-07-11T10:16:01.604Z</time>
      </trkpt>
      <trkpt lat="44.17555" lon="5.12971">
        <ele>323</ele>
        <time>2020-07-11T10:16:02.603Z</time>
      </trkpt>
      <trkpt lat="44.17555" lon="5.1297">
        <ele>323</ele>
        <time>2020-07-11T10:16:03.603Z</time>
      </trkpt>
      <trkpt lat="44.17555" lon="5.1297">
        <ele>323</ele>
        <time>2020-07-11T10:16:04.604Z</time>
      </trkpt>
      <trkpt lat="44.17555" lon="5.1297">
        <ele>323</ele>
        <time>2020-07-11T10:16:05.603Z</time>
      </trkpt>
      <trkpt lat="44.17555" lon="5.12967">
        <ele>324</ele>
        <time>2020-07-11T10:16:06.605Z</time>
      </trkpt>
      <trkpt lat="44.17555" lon="5.12965">
        <ele>324</ele>
        <time>2020-07-11T10:16:07.605Z</time>
      </trkpt>
      <trkpt lat="44.17555" lon="5.12962">
        <ele>324</ele>
        <time>2020-07-11T10:16:08.604Z</time>
      </trkpt>
      <trkpt lat="44.17554" lon="5.12959">
        <ele>325</ele>
        <time>2020-07-11T10:16:09.605Z</time>
      </trkpt>
      <trkpt lat="44.17555" lon="5.12955">
        <ele>325</ele>
        <time>2020-07-11T10:16:10.605Z</time>
      </trkpt>
      <trkpt lat="44.17556" lon="5.1295">
        <ele>325</ele>
        <time>2020-07-11T10:16:11.605Z</time>
      </trkpt>
      <trkpt lat="44.17558" lon="5.12946">
        <ele>325</ele>
        <time>2020-07-11T10:16:12.605Z</time>
      </trkpt>
      <trkpt lat="44.17561" lon="5.12941">
        <ele>325</ele>
        <time>2020-07-11T10:16:13.605Z</time>
      </trkpt>
      <trkpt lat="44.17566" lon="5.12937">
        <ele>325</ele>
        <time>2020-07-11T10:16:14.605Z</time>
      </trkpt>
      <trkpt lat="44.17571" lon="5.12934">
        <ele>325</ele>
        <time>2020-07-11T10:16:15.605Z</time>
      </trkpt>
      <trkpt lat="44.17577" lon="5.12931">
        <ele>325</ele>
        <time>2020-07-11T10:16:16.604Z</time>
      </trkpt>
      <trkpt lat="44.17583" lon="5.12929">
        <ele>325</ele>
        <time>2020-07-11T10:16:17.605Z</time>
      </trkpt>
      <trkpt lat="44.1759" lon="5.12927">
        <ele>324</ele>
        <time>2020-07-11T10:16:18.605Z</time>
      </trkpt>
      <trkpt lat="44.17596" lon="5.12925">
        <ele>324</ele>
        <time>2020-07-11T10:16:19.605Z</time>
      </trkpt>
      <trkpt lat="44.17604" lon="5.12922">
        <ele>324</ele>
        <time>2020-07-11T10:16:20.605Z</time>
      </trkpt>
      <trkpt lat="44.17611" lon="5.1292">
        <ele>323</ele>
        <time>2020-07-11T10:16:21.604Z</time>
      </trkpt>
      <trkpt lat="44.17618" lon="5.12917">
        <ele>323</ele>
        <time>2020-07-11T10:16:22.605Z</time>
      </trkpt>
      <trkpt lat="44.17625" lon="5.12914">
        <ele>322</ele>
        <time>2020-07-11T10:16:23.605Z</time>
      </trkpt>
      <trkpt lat="44.17632" lon="5.12911">
        <ele>321</ele>
        <time>2020-07-11T10:16:24.604Z</time>
      </trkpt>
      <trkpt lat="44.1764" lon="5.12908">
        <ele>320</ele>
        <time>2020-07-11T10:16:25.605Z</time>
      </trkpt>
      <trkpt lat="44.17648" lon="5.12905">
        <ele>320</ele>
        <time>2020-07-11T10:16:26.605Z</time>
      </trkpt>
      <trkpt lat="44.17656" lon="5.12902">
        <ele>319</ele>
        <time>2020-07-11T10:16:27.605Z</time>
      </trkpt>
      <trkpt lat="44.17664" lon="5.12899">
        <ele>319</ele>
        <time>2020-07-11T10:16:28.605Z</time>
      </trkpt>
      <trkpt lat="44.17673" lon="5.12896">
        <ele>318</ele>
        <time>2020-07-11T10:16:29.605Z</time>
      </trkpt>
      <trkpt lat="44.17681" lon="5.12892">
        <ele>318</ele>
        <time>2020-07-11T10:16:30.605Z</time>
      </trkpt>
      <trkpt lat="44.17688" lon="5.12889">
        <ele>317</ele>
        <time>2020-07-11T10:16:31.605Z</time>
      </trkpt>
      <trkpt lat="44.17696" lon="5.12886">
        <ele>317</ele>
        <time>2020-07-11T10:16:32.605Z</time>
      </trkpt>
      <trkpt lat="44.17704" lon="5.12882">
        <ele>317</ele>
        <time>2020-07-11T10:16:33.605Z</time>
      </trkpt>
      <trkpt lat="44.17712" lon="5.12878">
        <ele>317</ele>
        <time>2020-07-11T10:16:34.605Z</time>
      </trkpt>
      <trkpt lat="44.1772" lon="5.12875">
        <ele>317</ele>
        <time>2020-07-11T10:16:35.605Z</time>
      </trkpt>
      <trkpt lat="44.17728" lon="5.12871">
        <ele>317</ele>
        <time>2020-07-11T10:16:36.605Z</time>
      </trkpt>
      <trkpt lat="44.17736" lon="5.12868">
        <ele>316</ele>
        <time>2020-07-11T10:16:37.605Z</time>
      </trkpt>
      <trkpt lat="44.17744" lon="5.12864">
        <ele>316</ele>
        <time>2020-07-11T10:16:38.605Z</time>
      </trkpt>
      <trkpt lat="44.17753" lon="5.12861">
        <ele>315</ele>
        <time>2020-07-11T10:16:39.605Z</time>
      </trkpt>
      <trkpt lat="44.17761" lon="5.12857">
        <ele>315</ele>
        <time>2020-07-11T10:16:40.605Z</time>
      </trkpt>
      <trkpt lat="44.17769" lon="5.12853">
        <ele>315</ele>
        <time>2020-07-11T10:16:41.604Z</time>
      </trkpt>
      <trkpt lat="44.17777" lon="5.12849">
        <ele>314</ele>
        <time>2020-07-11T10:16:42.604Z</time>
      </trkpt>
      <trkpt lat="44.17785" lon="5.12846">
        <ele>314</ele>
        <time>2020-07-11T10:16:43.605Z</time>
      </trkpt>
      <trkpt lat="44.17793" lon="5.12842">
        <ele>314</ele>
        <time>2020-07-11T10:16:44.605Z</time>
      </trkpt>
      <trkpt lat="44.17801" lon="5.12838">
        <ele>315</ele>
        <time>2020-07-11T10:16:45.604Z</time>
      </trkpt>
      <trkpt lat="44.17809" lon="5.12835">
        <ele>315</ele>
        <time>2020-07-11T10:16:46.605Z</time>
      </trkpt>
      <trkpt lat="44.17817" lon="5.12831">
        <ele>315</ele>
        <time>2020-07-11T10:16:47.604Z</time>
      </trkpt>
      <trkpt lat="44.17825" lon="5.12828">
        <ele>315</ele>
        <time>2020-07-11T10:16:48.604Z</time>
      </trkpt>
      <trkpt lat="44.17833" lon="5.12824">
        <ele>315</ele>
        <time>2020-07-11T10:16:49.604Z</time>
      </trkpt>
      <trkpt lat="44.17841" lon="5.12821">
        <ele>315</ele>
        <time>2020-07-11T10:16:50.605Z</time>
      </trkpt>
      <trkpt lat="44.17849" lon="5.12817">
        <ele>314</ele>
        <time>2020-07-11T10:16:51.605Z</time>
      </trkpt>
      <trkpt lat="44.17857" lon="5.12814">
        <ele>314</ele>
        <time>2020-07-11T10:16:52.605Z</time>
      </trkpt>
      <trkpt lat="44.17865" lon="5.1281">
        <ele>314</ele>
        <time>2020-07-11T10:16:53.605Z</time>
      </trkpt>
      <trkpt lat="44.17873" lon="5.12807">
        <ele>313</ele>
        <time>2020-07-11T10:16:54.604Z</time>
      </trkpt>
      <trkpt lat="44.17881" lon="5.12803">
        <ele>313</ele>
        <time>2020-07-11T10:16:55.604Z</time>
      </trkpt>
      <trkpt lat="44.1789" lon="5.128">
        <ele>313</ele>
        <time>2020-07-11T10:16:56.605Z</time>
      </trkpt>
      <trkpt lat="44.17898" lon="5.12796">
        <ele>313</ele>
        <time>2020-07-11T10:16:57.605Z</time>
      </trkpt>
      <trkpt lat="44.17906" lon="5.12792">
        <ele>313</ele>
        <time>2020-07-11T10:16:58.605Z</time>
      </trkpt>
      <trkpt lat="44.17914" lon="5.12789">
        <ele>313</ele>
        <time>2020-07-11T10:16:59.605Z</time>
      </trkpt>
      <trkpt lat="44.17923" lon="5.12785">
        <ele>312</ele>
        <time>2020-07-11T10:17:00.605Z</time>
      </trkpt>
      <trkpt lat="44.17931" lon="5.12781">
        <ele>312</ele>
        <time>2020-07-11T10:17:01.605Z</time>
      </trkpt>
      <trkpt lat="44.17939" lon="5.12778">
        <ele>312</ele>
        <time>2020-07-11T10:17:02.605Z</time>
      </trkpt>
      <trkpt lat="44.17948" lon="5.12774">
        <ele>312</ele>
        <time>2020-07-11T10:17:03.604Z</time>
      </trkpt>
      <trkpt lat="44.17956" lon="5.12771">
        <ele>311</ele>
        <time>2020-07-11T10:17:04.605Z</time>
      </trkpt>
      <trkpt lat="44.17965" lon="5.12767">
        <ele>311</ele>
        <time>2020-07-11T10:17:05.605Z</time>
      </trkpt>
      <trkpt lat="44.17974" lon="5.12763">
        <ele>311</ele>
        <time>2020-07-11T10:17:06.605Z</time>
      </trkpt>
      <trkpt lat="44.17983" lon="5.1276">
        <ele>311</ele>
        <time>2020-07-11T10:17:07.604Z</time>
      </trkpt>
      <trkpt lat="44.17991" lon="5.12756">
        <ele>310</ele>
        <time>2020-07-11T10:17:08.605Z</time>
      </trkpt>
      <trkpt lat="44.18" lon="5.12752">
        <ele>310</ele>
        <time>2020-07-11T10:17:09.604Z</time>
      </trkpt>
      <trkpt lat="44.18009" lon="5.12749">
        <ele>309</ele>
        <time>2020-07-11T10:17:10.605Z</time>
      </trkpt>
      <trkpt lat="44.18017" lon="5.12745">
        <ele>309</ele>
        <time>2020-07-11T10:17:11.605Z</time>
      </trkpt>
      <trkpt lat="44.18026" lon="5.12741">
        <ele>308</ele>
        <time>2020-07-11T10:17:12.604Z</time>
      </trkpt>
      <trkpt lat="44.18035" lon="5.12737">
        <ele>308</ele>
        <time>2020-07-11T10:17:13.604Z</time>
      </trkpt>
      <trkpt lat="44.18044" lon="5.12733">
        <ele>307</ele>
        <time>2020-07-11T10:17:14.605Z</time>
      </trkpt>
      <trkpt lat="44.18053" lon="5.12729">
        <ele>307</ele>
        <time>2020-07-11T10:17:15.605Z</time>
      </trkpt>
      <trkpt lat="44.18062" lon="5.12725">
        <ele>307</ele>
        <time>2020-07-11T10:17:16.604Z</time>
      </trkpt>
      <trkpt lat="44.18071" lon="5.12721">
        <ele>307</ele>
        <time>2020-07-11T10:17:17.605Z</time>
      </trkpt>
      <trkpt lat="44.1808" lon="5.12717">
        <ele>307</ele>
        <time>2020-07-11T10:17:18.605Z</time>
      </trkpt>
      <trkpt lat="44.18089" lon="5.12713">
        <ele>307</ele>
        <time>2020-07-11T10:17:19.605Z</time>
      </trkpt>
      <trkpt lat="44.18098" lon="5.12709">
        <ele>307</ele>
        <time>2020-07-11T10:17:20.605Z</time>
      </trkpt>
      <trkpt lat="44.18107" lon="5.12705">
        <ele>307</ele>
        <time>2020-07-11T10:17:21.605Z</time>
      </trkpt>
      <trkpt lat="44.18116" lon="5.12701">
        <ele>307</ele>
        <time>2020-07-11T10:17:22.605Z</time>
      </trkpt>
      <trkpt lat="44.18125" lon="5.12697">
        <ele>307</ele>
        <time>2020-07-11T10:17:23.605Z</time>
      </trkpt>
      <trkpt lat="44.18133" lon="5.12693">
        <ele>307</ele>
        <time>2020-07-11T10:17:24.605Z</time>
      </trkpt>
      <trkpt lat="44.18142" lon="5.1269">
        <ele>307</ele>
        <time>2020-07-11T10:17:25.605Z</time>
      </trkpt>
      <trkpt lat="44.1815" lon="5.12686">
        <ele>306</ele>
        <time>2020-07-11T10:17:26.605Z</time>
      </trkpt>
      <trkpt lat="44.18158" lon="5.12683">
        <ele>306</ele>
        <time>2020-07-11T10:17:27.605Z</time>
      </trkpt>
      <trkpt lat="44.18166" lon="5.12679">
        <ele>306</ele>
        <time>2020-07-11T10:17:28.605Z</time>
      </trkpt>
      <trkpt lat="44.18174" lon="5.12676">
        <ele>306</ele>
        <time>2020-07-11T10:17:29.605Z</time>
      </trkpt>
      <trkpt lat="44.18182" lon="5.12672">
        <ele>306</ele>
        <time>2020-07-11T10:17:30.605Z</time>
      </trkpt>
      <trkpt lat="44.1819" lon="5.12669">
        <ele>305</ele>
        <time>2020-07-11T10:17:31.605Z</time>
      </trkpt>
      <trkpt lat="44.18197" lon="5.12666">
        <ele>305</ele>
        <time>2020-07-11T10:17:32.605Z</time>
      </trkpt>
      <trkpt lat="44.18204" lon="5.12662">
        <ele>305</ele>
        <time>2020-07-11T10:17:33.605Z</time>
      </trkpt>
      <trkpt lat="44.18212" lon="5.12659">
        <ele>305</ele>
        <time>2020-07-11T10:17:34.605Z</time>
      </trkpt>
      <trkpt lat="44.18218" lon="5.12654">
        <ele>304</ele>
        <time>2020-07-11T10:17:35.604Z</time>
      </trkpt>
      <trkpt lat="44.18225" lon="5.12648">
        <ele>304</ele>
        <time>2020-07-11T10:17:36.605Z</time>
      </trkpt>
      <trkpt lat="44.18232" lon="5.12642">
        <ele>304</ele>
        <time>2020-07-11T10:17:37.604Z</time>
      </trkpt>
      <trkpt lat="44.18239" lon="5.12634">
        <ele>304</ele>
        <time>2020-07-11T10:17:38.605Z</time>
      </trkpt>
      <trkpt lat="44.18245" lon="5.12627">
        <ele>304</ele>
        <time>2020-07-11T10:17:39.604Z</time>
      </trkpt>
      <trkpt lat="44.18252" lon="5.12619">
        <ele>304</ele>
        <time>2020-07-11T10:17:40.605Z</time>
      </trkpt>
      <trkpt lat="44.18258" lon="5.12611">
        <ele>304</ele>
        <time>2020-07-11T10:17:41.605Z</time>
      </trkpt>
      <trkpt lat="44.18264" lon="5.12603">
        <ele>304</ele>
        <time>2020-07-11T10:17:42.605Z</time>
      </trkpt>
      <trkpt lat="44.18271" lon="5.12595">
        <ele>304</ele>
        <time>2020-07-11T10:17:43.604Z</time>
      </trkpt>
      <trkpt lat="44.18277" lon="5.12587">
        <ele>304</ele>
        <time>2020-07-11T10:17:44.604Z</time>
      </trkpt>
      <trkpt lat="44.18284" lon="5.1258">
        <ele>304</ele>
        <time>2020-07-11T10:17:45.604Z</time>
      </trkpt>
      <trkpt lat="44.1829" lon="5.12571">
        <ele>303</ele>
        <time>2020-07-11T10:17:46.604Z</time>
      </trkpt>
      <trkpt lat="44.18297" lon="5.12563">
        <ele>303</ele>
        <time>2020-07-11T10:17:47.604Z</time>
      </trkpt>
      <trkpt lat="44.18303" lon="5.12555">
        <ele>303</ele>
        <time>2020-07-11T10:17:48.605Z</time>
      </trkpt>
      <trkpt lat="44.1831" lon="5.12546">
        <ele>303</ele>
        <time>2020-07-11T10:17:49.605Z</time>
      </trkpt>
      <trkpt lat="44.18316" lon="5.12538">
        <ele>303</ele>
        <time>2020-07-11T10:17:50.605Z</time>
      </trkpt>
      <trkpt lat="44.18323" lon="5.12529">
        <ele>302</ele>
        <time>2020-07-11T10:17:51.605Z</time>
      </trkpt>
      <trkpt lat="44.1833" lon="5.12521">
        <ele>302</ele>
        <time>2020-07-11T10:17:52.605Z</time>
      </trkpt>
      <trkpt lat="44.18337" lon="5.12512">
        <ele>302</ele>
        <time>2020-07-11T10:17:53.605Z</time>
      </trkpt>
      <trkpt lat="44.18343" lon="5.12504">
        <ele>302</ele>
        <time>2020-07-11T10:17:54.605Z</time>
      </trkpt>
      <trkpt lat="44.1835" lon="5.12495">
        <ele>302</ele>
        <time>2020-07-11T10:17:55.605Z</time>
      </trkpt>
      <trkpt lat="44.18357" lon="5.12487">
        <ele>302</ele>
        <time>2020-07-11T10:17:56.605Z</time>
      </trkpt>
      <trkpt lat="44.18363" lon="5.12478">
        <ele>302</ele>
        <time>2020-07-11T10:17:57.605Z</time>
      </trkpt>
      <trkpt lat="44.1837" lon="5.1247">
        <ele>302</ele>
        <time>2020-07-11T10:17:58.604Z</time>
      </trkpt>
      <trkpt lat="44.18377" lon="5.12461">
        <ele>302</ele>
        <time>2020-07-11T10:17:59.605Z</time>
      </trkpt>
      <trkpt lat="44.18383" lon="5.12453">
        <ele>301</ele>
        <time>2020-07-11T10:18:00.605Z</time>
      </trkpt>
      <trkpt lat="44.1839" lon="5.12444">
        <ele>302</ele>
        <time>2020-07-11T10:18:01.604Z</time>
      </trkpt>
      <trkpt lat="44.18397" lon="5.12436">
        <ele>302</ele>
        <time>2020-07-11T10:18:02.605Z</time>
      </trkpt>
      <trkpt lat="44.18403" lon="5.12428">
        <ele>302</ele>
        <time>2020-07-11T10:18:03.605Z</time>
      </trkpt>
      <trkpt lat="44.1841" lon="5.1242">
        <ele>302</ele>
        <time>2020-07-11T10:18:04.604Z</time>
      </trkpt>
      <trkpt lat="44.18416" lon="5.12412">
        <ele>301</ele>
        <time>2020-07-11T10:18:05.604Z</time>
      </trkpt>
      <trkpt lat="44.18423" lon="5.12404">
        <ele>301</ele>
        <time>2020-07-11T10:18:06.605Z</time>
      </trkpt>
      <trkpt lat="44.18429" lon="5.12396">
        <ele>301</ele>
        <time>2020-07-11T10:18:07.604Z</time>
      </trkpt>
      <trkpt lat="44.18436" lon="5.12387">
        <ele>300</ele>
        <time>2020-07-11T10:18:08.605Z</time>
      </trkpt>
      <trkpt lat="44.18443" lon="5.12379">
        <ele>300</ele>
        <time>2020-07-11T10:18:09.605Z</time>
      </trkpt>
      <trkpt lat="44.1845" lon="5.1237">
        <ele>299</ele>
        <time>2020-07-11T10:18:10.605Z</time>
      </trkpt>
      <trkpt lat="44.18457" lon="5.12362">
        <ele>299</ele>
        <time>2020-07-11T10:18:11.605Z</time>
      </trkpt>
      <trkpt lat="44.18464" lon="5.12353">
        <ele>299</ele>
        <time>2020-07-11T10:18:12.605Z</time>
      </trkpt>
      <trkpt lat="44.18471" lon="5.12345">
        <ele>299</ele>
        <time>2020-07-11T10:18:13.605Z</time>
      </trkpt>
      <trkpt lat="44.18478" lon="5.12337">
        <ele>299</ele>
        <time>2020-07-11T10:18:14.605Z</time>
      </trkpt>
      <trkpt lat="44.18485" lon="5.1233">
        <ele>299</ele>
        <time>2020-07-11T10:18:15.604Z</time>
      </trkpt>
      <trkpt lat="44.18493" lon="5.12323">
        <ele>299</ele>
        <time>2020-07-11T10:18:16.605Z</time>
      </trkpt>
      <trkpt lat="44.185" lon="5.12316">
        <ele>298</ele>
        <time>2020-07-11T10:18:17.605Z</time>
      </trkpt>
      <trkpt lat="44.18507" lon="5.1231">
        <ele>298</ele>
        <time>2020-07-11T10:18:18.605Z</time>
      </trkpt>
      <trkpt lat="44.18514" lon="5.12305">
        <ele>298</ele>
        <time>2020-07-11T10:18:19.604Z</time>
      </trkpt>
      <trkpt lat="44.18522" lon="5.12299">
        <ele>298</ele>
        <time>2020-07-11T10:18:20.605Z</time>
      </trkpt>
      <trkpt lat="44.18529" lon="5.12294">
        <ele>297</ele>
        <time>2020-07-11T10:18:21.605Z</time>
      </trkpt>
      <trkpt lat="44.18537" lon="5.12289">
        <ele>297</ele>
        <time>2020-07-11T10:18:22.605Z</time>
      </trkpt>
      <trkpt lat="44.18544" lon="5.12283">
        <ele>297</ele>
        <time>2020-07-11T10:18:23.605Z</time>
      </trkpt>
      <trkpt lat="44.18552" lon="5.12278">
        <ele>297</ele>
        <time>2020-07-11T10:18:24.605Z</time>
      </trkpt>
      <trkpt lat="44.18559" lon="5.12272">
        <ele>297</ele>
        <time>2020-07-11T10:18:25.605Z</time>
      </trkpt>
      <trkpt lat="44.18567" lon="5.12267">
        <ele>296</ele>
        <time>2020-07-11T10:18:26.605Z</time>
      </trkpt>
      <trkpt lat="44.18574" lon="5.12261">
        <ele>296</ele>
        <time>2020-07-11T10:18:27.604Z</time>
      </trkpt>
      <trkpt lat="44.18582" lon="5.12256">
        <ele>295</ele>
        <time>2020-07-11T10:18:28.605Z</time>
      </trkpt>
      <trkpt lat="44.18589" lon="5.12251">
        <ele>295</ele>
        <time>2020-07-11T10:18:29.605Z</time>
      </trkpt>
      <trkpt lat="44.18597" lon="5.12246">
        <ele>294</ele>
        <time>2020-07-11T10:18:30.605Z</time>
      </trkpt>
      <trkpt lat="44.18604" lon="5.1224">
        <ele>294</ele>
        <time>2020-07-11T10:18:31.605Z</time>
      </trkpt>
      <trkpt lat="44.18612" lon="5.12235">
        <ele>294</ele>
        <time>2020-07-11T10:18:32.605Z</time>
      </trkpt>
      <trkpt lat="44.18619" lon="5.12229">
        <ele>294</ele>
        <time>2020-07-11T10:18:33.605Z</time>
      </trkpt>
      <trkpt lat="44.18627" lon="5.12224">
        <ele>295</ele>
        <time>2020-07-11T10:18:34.604Z</time>
      </trkpt>
      <trkpt lat="44.18634" lon="5.12218">
        <ele>295</ele>
        <time>2020-07-11T10:18:35.605Z</time>
      </trkpt>
      <trkpt lat="44.18641" lon="5.12213">
        <ele>296</ele>
        <time>2020-07-11T10:18:36.605Z</time>
      </trkpt>
      <trkpt lat="44.18649" lon="5.12207">
        <ele>296</ele>
        <time>2020-07-11T10:18:37.604Z</time>
      </trkpt>
      <trkpt lat="44.18656" lon="5.12202">
        <ele>296</ele>
        <time>2020-07-11T10:18:38.605Z</time>
      </trkpt>
      <trkpt lat="44.18664" lon="5.12196">
        <ele>296</ele>
        <time>2020-07-11T10:18:39.605Z</time>
      </trkpt>
      <trkpt lat="44.18671" lon="5.12191">
        <ele>296</ele>
        <time>2020-07-11T10:18:40.604Z</time>
      </trkpt>
      <trkpt lat="44.18679" lon="5.12185">
        <ele>296</ele>
        <time>2020-07-11T10:18:41.604Z</time>
      </trkpt>
      <trkpt lat="44.18686" lon="5.1218">
        <ele>295</ele>
        <time>2020-07-11T10:18:42.605Z</time>
      </trkpt>
      <trkpt lat="44.18694" lon="5.12174">
        <ele>294</ele>
        <time>2020-07-11T10:18:43.605Z</time>
      </trkpt>
      <trkpt lat="44.18701" lon="5.12169">
        <ele>294</ele>
        <time>2020-07-11T10:18:44.605Z</time>
      </trkpt>
      <trkpt lat="44.18709" lon="5.12163">
        <ele>294</ele>
        <time>2020-07-11T10:18:45.605Z</time>
      </trkpt>
      <trkpt lat="44.18716" lon="5.12158">
        <ele>293</ele>
        <time>2020-07-11T10:18:46.605Z</time>
      </trkpt>
      <trkpt lat="44.18724" lon="5.12152">
        <ele>293</ele>
        <time>2020-07-11T10:18:47.605Z</time>
      </trkpt>
      <trkpt lat="44.18732" lon="5.12147">
        <ele>292</ele>
        <time>2020-07-11T10:18:48.604Z</time>
      </trkpt>
      <trkpt lat="44.18739" lon="5.12141">
        <ele>292</ele>
        <time>2020-07-11T10:18:49.605Z</time>
      </trkpt>
      <trkpt lat="44.18747" lon="5.12136">
        <ele>292</ele>
        <time>2020-07-11T10:18:50.605Z</time>
      </trkpt>
      <trkpt lat="44.18754" lon="5.1213">
        <ele>292</ele>
        <time>2020-07-11T10:18:51.605Z</time>
      </trkpt>
      <trkpt lat="44.18761" lon="5.12125">
        <ele>292</ele>
        <time>2020-07-11T10:18:52.605Z</time>
      </trkpt>
      <trkpt lat="44.18769" lon="5.12119">
        <ele>291</ele>
        <time>2020-07-11T10:18:53.605Z</time>
      </trkpt>
      <trkpt lat="44.18776" lon="5.12114">
        <ele>291</ele>
        <time>2020-07-11T10:18:54.605Z</time>
      </trkpt>
      <trkpt lat="44.18784" lon="5.12109">
        <ele>291</ele>
        <time>2020-07-11T10:18:55.605Z</time>
      </trkpt>
      <trkpt lat="44.18791" lon="5.12104">
        <ele>291</ele>
        <time>2020-07-11T10:18:56.605Z</time>
      </trkpt>
      <trkpt lat="44.18799" lon="5.121">
        <ele>291</ele>
        <time>2020-07-11T10:18:57.604Z</time>
      </trkpt>
      <trkpt lat="44.18806" lon="5.12096">
        <ele>291</ele>
        <time>2020-07-11T10:18:58.604Z</time>
      </trkpt>
      <trkpt lat="44.18814" lon="5.12092">
        <ele>291</ele>
        <time>2020-07-11T10:18:59.605Z</time>
      </trkpt>
      <trkpt lat="44.18821" lon="5.12089">
        <ele>291</ele>
        <time>2020-07-11T10:19:00.605Z</time>
      </trkpt>
      <trkpt lat="44.18829" lon="5.12086">
        <ele>290</ele>
        <time>2020-07-11T10:19:01.605Z</time>
      </trkpt>
      <trkpt lat="44.18837" lon="5.12084">
        <ele>290</ele>
        <time>2020-07-11T10:19:02.605Z</time>
      </trkpt>
      <trkpt lat="44.18845" lon="5.12081">
        <ele>290</ele>
        <time>2020-07-11T10:19:03.604Z</time>
      </trkpt>
      <trkpt lat="44.18853" lon="5.12079">
        <ele>289</ele>
        <time>2020-07-11T10:19:04.605Z</time>
      </trkpt>
      <trkpt lat="44.18861" lon="5.12077">
        <ele>288</ele>
        <time>2020-07-11T10:19:05.605Z</time>
      </trkpt>
      <trkpt lat="44.18869" lon="5.12074">
        <ele>288</ele>
        <time>2020-07-11T10:19:06.605Z</time>
      </trkpt>
      <trkpt lat="44.18877" lon="5.12072">
        <ele>288</ele>
        <time>2020-07-11T10:19:07.605Z</time>
      </trkpt>
      <trkpt lat="44.18884" lon="5.1207">
        <ele>288</ele>
        <time>2020-07-11T10:19:08.605Z</time>
      </trkpt>
      <trkpt lat="44.18893" lon="5.12068">
        <ele>288</ele>
        <time>2020-07-11T10:19:09.605Z</time>
      </trkpt>
      <trkpt lat="44.189" lon="5.12065">
        <ele>288</ele>
        <time>2020-07-11T10:19:10.604Z</time>
      </trkpt>
      <trkpt lat="44.18908" lon="5.12063">
        <ele>288</ele>
        <time>2020-07-11T10:19:11.605Z</time>
      </trkpt>
      <trkpt lat="44.18916" lon="5.1206">
        <ele>288</ele>
        <time>2020-07-11T10:19:12.605Z</time>
      </trkpt>
      <trkpt lat="44.18924" lon="5.12058">
        <ele>287</ele>
        <time>2020-07-11T10:19:13.605Z</time>
      </trkpt>
      <trkpt lat="44.18932" lon="5.12056">
        <ele>287</ele>
        <time>2020-07-11T10:19:14.604Z</time>
      </trkpt>
      <trkpt lat="44.18939" lon="5.12053">
        <ele>287</ele>
        <time>2020-07-11T10:19:15.605Z</time>
      </trkpt>
      <trkpt lat="44.18946" lon="5.12051">
        <ele>286</ele>
        <time>2020-07-11T10:19:16.605Z</time>
      </trkpt>
      <trkpt lat="44.18954" lon="5.12049">
        <ele>286</ele>
        <time>2020-07-11T10:19:17.605Z</time>
      </trkpt>
      <trkpt lat="44.18961" lon="5.12046">
        <ele>286</ele>
        <time>2020-07-11T10:19:18.605Z</time>
      </trkpt>
      <trkpt lat="44.18969" lon="5.12044">
        <ele>286</ele>
        <time>2020-07-11T10:19:19.605Z</time>
      </trkpt>
      <trkpt lat="44.18976" lon="5.12041">
        <ele>286</ele>
        <time>2020-07-11T10:19:20.605Z</time>
      </trkpt>
      <trkpt lat="44.18984" lon="5.12039">
        <ele>285</ele>
        <time>2020-07-11T10:19:21.605Z</time>
      </trkpt>
      <trkpt lat="44.18992" lon="5.12036">
        <ele>285</ele>
        <time>2020-07-11T10:19:22.604Z</time>
      </trkpt>
      <trkpt lat="44.19" lon="5.12034">
        <ele>285</ele>
        <time>2020-07-11T10:19:23.604Z</time>
      </trkpt>
      <trkpt lat="44.19008" lon="5.12031">
        <ele>284</ele>
        <time>2020-07-11T10:19:24.605Z</time>
      </trkpt>
      <trkpt lat="44.19016" lon="5.12029">
        <ele>284</ele>
        <time>2020-07-11T10:19:25.604Z</time>
      </trkpt>
      <trkpt lat="44.19024" lon="5.12026">
        <ele>284</ele>
        <time>2020-07-11T10:19:26.604Z</time>
      </trkpt>
      <trkpt lat="44.19032" lon="5.12024">
        <ele>283</ele>
        <time>2020-07-11T10:19:27.604Z</time>
      </trkpt>
      <trkpt lat="44.19041" lon="5.12021">
        <ele>283</ele>
        <time>2020-07-11T10:19:28.605Z</time>
      </trkpt>
      <trkpt lat="44.19048" lon="5.12019">
        <ele>283</ele>
        <time>2020-07-11T10:19:29.604Z</time>
      </trkpt>
      <trkpt lat="44.19056" lon="5.12017">
        <ele>282</ele>
        <time>2020-07-11T10:19:30.605Z</time>
      </trkpt>
      <trkpt lat="44.19063" lon="5.12014">
        <ele>282</ele>
        <time>2020-07-11T10:19:31.604Z</time>
      </trkpt>
      <trkpt lat="44.19071" lon="5.12012">
        <ele>282</ele>
        <time>2020-07-11T10:19:32.605Z</time>
      </trkpt>
      <trkpt lat="44.19079" lon="5.1201">
        <ele>281</ele>
        <time>2020-07-11T10:19:33.605Z</time>
      </trkpt>
      <trkpt lat="44.19087" lon="5.12007">
        <ele>281</ele>
        <time>2020-07-11T10:19:34.605Z</time>
      </trkpt>
      <trkpt lat="44.19096" lon="5.12005">
        <ele>281</ele>
        <time>2020-07-11T10:19:35.604Z</time>
      </trkpt>
      <trkpt lat="44.19104" lon="5.12003">
        <ele>281</ele>
        <time>2020-07-11T10:19:36.605Z</time>
      </trkpt>
      <trkpt lat="44.19112" lon="5.12001">
        <ele>281</ele>
        <time>2020-07-11T10:19:37.604Z</time>
      </trkpt>
      <trkpt lat="44.1912" lon="5.11998">
        <ele>281</ele>
        <time>2020-07-11T10:19:38.605Z</time>
      </trkpt>
      <trkpt lat="44.19128" lon="5.11996">
        <ele>281</ele>
        <time>2020-07-11T10:19:39.604Z</time>
      </trkpt>
      <trkpt lat="44.19136" lon="5.11993">
        <ele>282</ele>
        <time>2020-07-11T10:19:40.604Z</time>
      </trkpt>
      <trkpt lat="44.19144" lon="5.11991">
        <ele>282</ele>
        <time>2020-07-11T10:19:41.604Z</time>
      </trkpt>
      <trkpt lat="44.19152" lon="5.11988">
        <ele>281</ele>
        <time>2020-07-11T10:19:42.605Z</time>
      </trkpt>
      <trkpt lat="44.1916" lon="5.11985">
        <ele>281</ele>
        <time>2020-07-11T10:19:43.605Z</time>
      </trkpt>
      <trkpt lat="44.19168" lon="5.11983">
        <ele>281</ele>
        <time>2020-07-11T10:19:44.605Z</time>
      </trkpt>
      <trkpt lat="44.19176" lon="5.1198">
        <ele>281</ele>
        <time>2020-07-11T10:19:45.605Z</time>
      </trkpt>
      <trkpt lat="44.19184" lon="5.11977">
        <ele>280</ele>
        <time>2020-07-11T10:19:46.604Z</time>
      </trkpt>
      <trkpt lat="44.19192" lon="5.11974">
        <ele>280</ele>
        <time>2020-07-11T10:19:47.605Z</time>
      </trkpt>
      <trkpt lat="44.192" lon="5.11971">
        <ele>281</ele>
        <time>2020-07-11T10:19:48.605Z</time>
      </trkpt>
      <trkpt lat="44.19207" lon="5.11969">
        <ele>281</ele>
        <time>2020-07-11T10:19:49.605Z</time>
      </trkpt>
      <trkpt lat="44.19215" lon="5.11966">
        <ele>281</ele>
        <time>2020-07-11T10:19:50.605Z</time>
      </trkpt>
      <trkpt lat="44.19223" lon="5.11963">
        <ele>282</ele>
        <time>2020-07-11T10:19:51.605Z</time>
      </trkpt>
      <trkpt lat="44.19231" lon="5.1196">
        <ele>282</ele>
        <time>2020-07-11T10:19:52.605Z</time>
      </trkpt>
      <trkpt lat="44.19238" lon="5.11957">
        <ele>282</ele>
        <time>2020-07-11T10:19:53.605Z</time>
      </trkpt>
      <trkpt lat="44.19246" lon="5.11955">
        <ele>282</ele>
        <time>2020-07-11T10:19:54.605Z</time>
      </trkpt>
      <trkpt lat="44.19253" lon="5.11952">
        <ele>282</ele>
        <time>2020-07-11T10:19:55.605Z</time>
      </trkpt>
      <trkpt lat="44.1926" lon="5.11949">
        <ele>282</ele>
        <time>2020-07-11T10:19:56.604Z</time>
      </trkpt>
      <trkpt lat="44.19267" lon="5.11946">
        <ele>282</ele>
        <time>2020-07-11T10:19:57.605Z</time>
      </trkpt>
      <trkpt lat="44.19273" lon="5.11943">
        <ele>282</ele>
        <time>2020-07-11T10:19:58.605Z</time>
      </trkpt>
      <trkpt lat="44.1928" lon="5.1194">
        <ele>282</ele>
        <time>2020-07-11T10:19:59.605Z</time>
      </trkpt>
      <trkpt lat="44.19288" lon="5.11937">
        <ele>282</ele>
        <time>2020-07-11T10:20:00.605Z</time>
      </trkpt>
      <trkpt lat="44.19295" lon="5.11933">
        <ele>282</ele>
        <time>2020-07-11T10:20:01.605Z</time>
      </trkpt>
      <trkpt lat="44.19302" lon="5.1193">
        <ele>282</ele>
        <time>2020-07-11T10:20:02.605Z</time>
      </trkpt>
      <trkpt lat="44.1931" lon="5.11926">
        <ele>281</ele>
        <time>2020-07-11T10:20:03.605Z</time>
      </trkpt>
      <trkpt lat="44.19317" lon="5.11922">
        <ele>281</ele>
        <time>2020-07-11T10:20:04.605Z</time>
      </trkpt>
      <trkpt lat="44.19325" lon="5.11918">
        <ele>281</ele>
        <time>2020-07-11T10:20:05.604Z</time>
      </trkpt>
      <trkpt lat="44.19334" lon="5.11914">
        <ele>280</ele>
        <time>2020-07-11T10:20:06.605Z</time>
      </trkpt>
      <trkpt lat="44.19342" lon="5.1191">
        <ele>280</ele>
        <time>2020-07-11T10:20:07.604Z</time>
      </trkpt>
      <trkpt lat="44.1935" lon="5.11905">
        <ele>280</ele>
        <time>2020-07-11T10:20:08.605Z</time>
      </trkpt>
      <trkpt lat="44.19359" lon="5.11901">
        <ele>279</ele>
        <time>2020-07-11T10:20:09.604Z</time>
      </trkpt>
      <trkpt lat="44.19367" lon="5.11896">
        <ele>279</ele>
        <time>2020-07-11T10:20:10.605Z</time>
      </trkpt>
      <trkpt lat="44.19376" lon="5.11892">
        <ele>279</ele>
        <time>2020-07-11T10:20:11.605Z</time>
      </trkpt>
      <trkpt lat="44.19384" lon="5.11886">
        <ele>279</ele>
        <time>2020-07-11T10:20:12.605Z</time>
      </trkpt>
      <trkpt lat="44.19393" lon="5.11881">
        <ele>278</ele>
        <time>2020-07-11T10:20:13.605Z</time>
      </trkpt>
      <trkpt lat="44.19401" lon="5.11876">
        <ele>278</ele>
        <time>2020-07-11T10:20:14.605Z</time>
      </trkpt>
      <trkpt lat="44.1941" lon="5.11871">
        <ele>278</ele>
        <time>2020-07-11T10:20:15.605Z</time>
      </trkpt>
      <trkpt lat="44.19418" lon="5.11865">
        <ele>278</ele>
        <time>2020-07-11T10:20:16.605Z</time>
      </trkpt>
      <trkpt lat="44.19427" lon="5.11859">
        <ele>277</ele>
        <time>2020-07-11T10:20:17.605Z</time>
      </trkpt>
      <trkpt lat="44.19435" lon="5.11853">
        <ele>277</ele>
        <time>2020-07-11T10:20:18.604Z</time>
      </trkpt>
      <trkpt lat="44.19444" lon="5.11847">
        <ele>276</ele>
        <time>2020-07-11T10:20:19.604Z</time>
      </trkpt>
      <trkpt lat="44.19453" lon="5.11841">
        <ele>276</ele>
        <time>2020-07-11T10:20:20.605Z</time>
      </trkpt>
      <trkpt lat="44.19462" lon="5.11835">
        <ele>276</ele>
        <time>2020-07-11T10:20:21.605Z</time>
      </trkpt>
      <trkpt lat="44.19472" lon="5.11829">
        <ele>275</ele>
        <time>2020-07-11T10:20:22.605Z</time>
      </trkpt>
      <trkpt lat="44.19481" lon="5.11824">
        <ele>275</ele>
        <time>2020-07-11T10:20:23.604Z</time>
      </trkpt>
      <trkpt lat="44.19491" lon="5.11819">
        <ele>275</ele>
        <time>2020-07-11T10:20:24.605Z</time>
      </trkpt>
      <trkpt lat="44.19502" lon="5.11815">
        <ele>275</ele>
        <time>2020-07-11T10:20:25.605Z</time>
      </trkpt>
      <trkpt lat="44.19512" lon="5.11812">
        <ele>275</ele>
        <time>2020-07-11T10:20:26.605Z</time>
      </trkpt>
      <trkpt lat="44.19522" lon="5.11809">
        <ele>275</ele>
        <time>2020-07-11T10:20:27.604Z</time>
      </trkpt>
      <trkpt lat="44.19533" lon="5.11807">
        <ele>275</ele>
        <time>2020-07-11T10:20:28.604Z</time>
      </trkpt>
      <trkpt lat="44.19543" lon="5.11806">
        <ele>274</ele>
        <time>2020-07-11T10:20:29.605Z</time>
      </trkpt>
      <trkpt lat="44.19554" lon="5.11804">
        <ele>274</ele>
        <time>2020-07-11T10:20:30.604Z</time>
      </trkpt>
      <trkpt lat="44.19564" lon="5.11803">
        <ele>274</ele>
        <time>2020-07-11T10:20:31.605Z</time>
      </trkpt>
      <trkpt lat="44.19575" lon="5.11801">
        <ele>273</ele>
        <time>2020-07-11T10:20:32.604Z</time>
      </trkpt>
      <trkpt lat="44.19585" lon="5.11799">
        <ele>272</ele>
        <time>2020-07-11T10:20:33.605Z</time>
      </trkpt>
      <trkpt lat="44.19595" lon="5.11795">
        <ele>271</ele>
        <time>2020-07-11T10:20:34.605Z</time>
      </trkpt>
      <trkpt lat="44.19605" lon="5.1179">
        <ele>271</ele>
        <time>2020-07-11T10:20:35.604Z</time>
      </trkpt>
      <trkpt lat="44.19615" lon="5.11784">
        <ele>270</ele>
        <time>2020-07-11T10:20:36.605Z</time>
      </trkpt>
      <trkpt lat="44.19624" lon="5.11778">
        <ele>270</ele>
        <time>2020-07-11T10:20:37.605Z</time>
      </trkpt>
      <trkpt lat="44.19633" lon="5.11771">
        <ele>269</ele>
        <time>2020-07-11T10:20:38.604Z</time>
      </trkpt>
      <trkpt lat="44.19641" lon="5.11764">
        <ele>269</ele>
        <time>2020-07-11T10:20:39.605Z</time>
      </trkpt>
      <trkpt lat="44.19649" lon="5.11756">
        <ele>268</ele>
        <time>2020-07-11T10:20:40.604Z</time>
      </trkpt>
      <trkpt lat="44.19658" lon="5.11748">
        <ele>268</ele>
        <time>2020-07-11T10:20:41.605Z</time>
      </trkpt>
      <trkpt lat="44.19666" lon="5.11741">
        <ele>267</ele>
        <time>2020-07-11T10:20:42.605Z</time>
      </trkpt>
      <trkpt lat="44.19673" lon="5.11733">
        <ele>267</ele>
        <time>2020-07-11T10:20:43.605Z</time>
      </trkpt>
      <trkpt lat="44.19681" lon="5.11726">
        <ele>267</ele>
        <time>2020-07-11T10:20:44.605Z</time>
      </trkpt>
      <trkpt lat="44.19689" lon="5.11719">
        <ele>267</ele>
        <time>2020-07-11T10:20:45.605Z</time>
      </trkpt>
      <trkpt lat="44.19697" lon="5.11712">
        <ele>268</ele>
        <time>2020-07-11T10:20:46.605Z</time>
      </trkpt>
      <trkpt lat="44.19705" lon="5.11705">
        <ele>267</ele>
        <time>2020-07-11T10:20:47.605Z</time>
      </trkpt>
      <trkpt lat="44.19713" lon="5.11698">
        <ele>267</ele>
        <time>2020-07-11T10:20:48.605Z</time>
      </trkpt>
      <trkpt lat="44.19721" lon="5.11692">
        <ele>267</ele>
        <time>2020-07-11T10:20:49.605Z</time>
      </trkpt>
      <trkpt lat="44.19729" lon="5.11685">
        <ele>266</ele>
        <time>2020-07-11T10:20:50.605Z</time>
      </trkpt>
      <trkpt lat="44.19736" lon="5.11678">
        <ele>266</ele>
        <time>2020-07-11T10:20:51.605Z</time>
      </trkpt>
      <trkpt lat="44.19743" lon="5.11671">
        <ele>266</ele>
        <time>2020-07-11T10:20:52.605Z</time>
      </trkpt>
      <trkpt lat="44.19751" lon="5.11664">
        <ele>266</ele>
        <time>2020-07-11T10:20:53.605Z</time>
      </trkpt>
      <trkpt lat="44.19759" lon="5.11657">
        <ele>265</ele>
        <time>2020-07-11T10:20:54.605Z</time>
      </trkpt>
      <trkpt lat="44.19767" lon="5.1165">
        <ele>265</ele>
        <time>2020-07-11T10:20:55.605Z</time>
      </trkpt>
      <trkpt lat="44.19774" lon="5.11643">
        <ele>264</ele>
        <time>2020-07-11T10:20:56.605Z</time>
      </trkpt>
      <trkpt lat="44.19782" lon="5.11636">
        <ele>264</ele>
        <time>2020-07-11T10:20:57.605Z</time>
      </trkpt>
      <trkpt lat="44.19789" lon="5.11629">
        <ele>264</ele>
        <time>2020-07-11T10:20:58.605Z</time>
      </trkpt>
      <trkpt lat="44.19796" lon="5.11623">
        <ele>264</ele>
        <time>2020-07-11T10:20:59.605Z</time>
      </trkpt>
      <trkpt lat="44.19803" lon="5.11615">
        <ele>263</ele>
        <time>2020-07-11T10:21:00.605Z</time>
      </trkpt>
      <trkpt lat="44.19809" lon="5.11608">
        <ele>263</ele>
        <time>2020-07-11T10:21:01.605Z</time>
      </trkpt>
      <trkpt lat="44.19815" lon="5.116">
        <ele>264</ele>
        <time>2020-07-11T10:21:02.605Z</time>
      </trkpt>
      <trkpt lat="44.19822" lon="5.11592">
        <ele>264</ele>
        <time>2020-07-11T10:21:03.605Z</time>
      </trkpt>
      <trkpt lat="44.19828" lon="5.11584">
        <ele>264</ele>
        <time>2020-07-11T10:21:04.605Z</time>
      </trkpt>
      <trkpt lat="44.19834" lon="5.11576">
        <ele>264</ele>
        <time>2020-07-11T10:21:05.605Z</time>
      </trkpt>
      <trkpt lat="44.1984" lon="5.11567">
        <ele>264</ele>
        <time>2020-07-11T10:21:06.605Z</time>
      </trkpt>
      <trkpt lat="44.19846" lon="5.11558">
        <ele>264</ele>
        <time>2020-07-11T10:21:07.605Z</time>
      </trkpt>
      <trkpt lat="44.19852" lon="5.11549">
        <ele>264</ele>
        <time>2020-07-11T10:21:08.605Z</time>
      </trkpt>
      <trkpt lat="44.19858" lon="5.11539">
        <ele>264</ele>
        <time>2020-07-11T10:21:09.605Z</time>
      </trkpt>
      <trkpt lat="44.19864" lon="5.11529">
        <ele>264</ele>
        <time>2020-07-11T10:21:10.605Z</time>
      </trkpt>
      <trkpt lat="44.1987" lon="5.1152">
        <ele>264</ele>
        <time>2020-07-11T10:21:11.605Z</time>
      </trkpt>
      <trkpt lat="44.19877" lon="5.1151">
        <ele>265</ele>
        <time>2020-07-11T10:21:12.605Z</time>
      </trkpt>
      <trkpt lat="44.19883" lon="5.11499">
        <ele>265</ele>
        <time>2020-07-11T10:21:13.605Z</time>
      </trkpt>
      <trkpt lat="44.19889" lon="5.11489">
        <ele>265</ele>
        <time>2020-07-11T10:21:14.605Z</time>
      </trkpt>
      <trkpt lat="44.19894" lon="5.11478">
        <ele>265</ele>
        <time>2020-07-11T10:21:15.605Z</time>
      </trkpt>
      <trkpt lat="44.199" lon="5.11468">
        <ele>266</ele>
        <time>2020-07-11T10:21:16.605Z</time>
      </trkpt>
      <trkpt lat="44.19906" lon="5.11457">
        <ele>266</ele>
        <time>2020-07-11T10:21:17.605Z</time>
      </trkpt>
      <trkpt lat="44.19911" lon="5.11447">
        <ele>266</ele>
        <time>2020-07-11T10:21:18.604Z</time>
      </trkpt>
      <trkpt lat="44.19917" lon="5.11436">
        <ele>266</ele>
        <time>2020-07-11T10:21:19.605Z</time>
      </trkpt>
      <trkpt lat="44.19922" lon="5.11426">
        <ele>266</ele>
        <time>2020-07-11T10:21:20.605Z</time>
      </trkpt>
      <trkpt lat="44.19928" lon="5.11416">
        <ele>266</ele>
        <time>2020-07-11T10:21:21.604Z</time>
      </trkpt>
      <trkpt lat="44.19933" lon="5.11406">
        <ele>265</ele>
        <time>2020-07-11T10:21:22.605Z</time>
      </trkpt>
      <trkpt lat="44.19938" lon="5.11396">
        <ele>265</ele>
        <time>2020-07-11T10:21:23.604Z</time>
      </trkpt>
      <trkpt lat="44.19943" lon="5.11386">
        <ele>265</ele>
        <time>2020-07-11T10:21:24.605Z</time>
      </trkpt>
      <trkpt lat="44.19949" lon="5.11377">
        <ele>264</ele>
        <time>2020-07-11T10:21:25.605Z</time>
      </trkpt>
      <trkpt lat="44.19955" lon="5.11367">
        <ele>264</ele>
        <time>2020-07-11T10:21:26.605Z</time>
      </trkpt>
      <trkpt lat="44.1996" lon="5.11358">
        <ele>263</ele>
        <time>2020-07-11T10:21:27.605Z</time>
      </trkpt>
      <trkpt lat="44.19966" lon="5.11349">
        <ele>263</ele>
        <time>2020-07-11T10:21:28.605Z</time>
      </trkpt>
      <trkpt lat="44.19973" lon="5.1134">
        <ele>262</ele>
        <time>2020-07-11T10:21:29.605Z</time>
      </trkpt>
      <trkpt lat="44.19978" lon="5.11331">
        <ele>262</ele>
        <time>2020-07-11T10:21:30.605Z</time>
      </trkpt>
      <trkpt lat="44.19985" lon="5.11323">
        <ele>262</ele>
        <time>2020-07-11T10:21:31.605Z</time>
      </trkpt>
      <trkpt lat="44.19991" lon="5.11314">
        <ele>263</ele>
        <time>2020-07-11T10:21:32.605Z</time>
      </trkpt>
      <trkpt lat="44.19997" lon="5.11307">
        <ele>263</ele>
        <time>2020-07-11T10:21:33.605Z</time>
      </trkpt>
      <trkpt lat="44.20004" lon="5.11299">
        <ele>263</ele>
        <time>2020-07-11T10:21:34.604Z</time>
      </trkpt>
      <trkpt lat="44.2001" lon="5.11292">
        <ele>262</ele>
        <time>2020-07-11T10:21:35.605Z</time>
      </trkpt>
      <trkpt lat="44.20017" lon="5.11284">
        <ele>262</ele>
        <time>2020-07-11T10:21:36.605Z</time>
      </trkpt>
      <trkpt lat="44.20023" lon="5.11278">
        <ele>261</ele>
        <time>2020-07-11T10:21:37.604Z</time>
      </trkpt>
      <trkpt lat="44.2003" lon="5.11271">
        <ele>261</ele>
        <time>2020-07-11T10:21:38.605Z</time>
      </trkpt>
      <trkpt lat="44.20036" lon="5.11264">
        <ele>261</ele>
        <time>2020-07-11T10:21:39.605Z</time>
      </trkpt>
      <trkpt lat="44.20042" lon="5.11257">
        <ele>261</ele>
        <time>2020-07-11T10:21:40.604Z</time>
      </trkpt>
      <trkpt lat="44.20049" lon="5.1125">
        <ele>261</ele>
        <time>2020-07-11T10:21:41.605Z</time>
      </trkpt>
      <trkpt lat="44.20055" lon="5.11243">
        <ele>261</ele>
        <time>2020-07-11T10:21:42.605Z</time>
      </trkpt>
      <trkpt lat="44.20061" lon="5.11236">
        <ele>261</ele>
        <time>2020-07-11T10:21:43.605Z</time>
      </trkpt>
      <trkpt lat="44.20068" lon="5.11229">
        <ele>261</ele>
        <time>2020-07-11T10:21:44.604Z</time>
      </trkpt>
      <trkpt lat="44.20074" lon="5.11222">
        <ele>261</ele>
        <time>2020-07-11T10:21:45.605Z</time>
      </trkpt>
      <trkpt lat="44.20081" lon="5.11215">
        <ele>261</ele>
        <time>2020-07-11T10:21:46.604Z</time>
      </trkpt>
      <trkpt lat="44.20087" lon="5.11208">
        <ele>261</ele>
        <time>2020-07-11T10:21:47.605Z</time>
      </trkpt>
      <trkpt lat="44.20092" lon="5.112">
        <ele>261</ele>
        <time>2020-07-11T10:21:48.605Z</time>
      </trkpt>
      <trkpt lat="44.20098" lon="5.11193">
        <ele>261</ele>
        <time>2020-07-11T10:21:49.605Z</time>
      </trkpt>
      <trkpt lat="44.20104" lon="5.11185">
        <ele>260</ele>
        <time>2020-07-11T10:21:50.605Z</time>
      </trkpt>
      <trkpt lat="44.2011" lon="5.11178">
        <ele>260</ele>
        <time>2020-07-11T10:21:51.605Z</time>
      </trkpt>
      <trkpt lat="44.20115" lon="5.1117">
        <ele>260</ele>
        <time>2020-07-11T10:21:52.605Z</time>
      </trkpt>
      <trkpt lat="44.20121" lon="5.11162">
        <ele>259</ele>
        <time>2020-07-11T10:21:53.605Z</time>
      </trkpt>
      <trkpt lat="44.20126" lon="5.11154">
        <ele>259</ele>
        <time>2020-07-11T10:21:54.605Z</time>
      </trkpt>
      <trkpt lat="44.20132" lon="5.11146">
        <ele>258</ele>
        <time>2020-07-11T10:21:55.604Z</time>
      </trkpt>
      <trkpt lat="44.20138" lon="5.11139">
        <ele>258</ele>
        <time>2020-07-11T10:21:56.605Z</time>
      </trkpt>
      <trkpt lat="44.20143" lon="5.11131">
        <ele>258</ele>
        <time>2020-07-11T10:21:57.605Z</time>
      </trkpt>
      <trkpt lat="44.20149" lon="5.11123">
        <ele>258</ele>
        <time>2020-07-11T10:21:58.605Z</time>
      </trkpt>
      <trkpt lat="44.20154" lon="5.11116">
        <ele>257</ele>
        <time>2020-07-11T10:21:59.605Z</time>
      </trkpt>
      <trkpt lat="44.2016" lon="5.11108">
        <ele>257</ele>
        <time>2020-07-11T10:22:00.605Z</time>
      </trkpt>
      <trkpt lat="44.20165" lon="5.111">
        <ele>257</ele>
        <time>2020-07-11T10:22:01.605Z</time>
      </trkpt>
      <trkpt lat="44.2017" lon="5.11093">
        <ele>257</ele>
        <time>2020-07-11T10:22:02.605Z</time>
      </trkpt>
      <trkpt lat="44.20176" lon="5.11085">
        <ele>258</ele>
        <time>2020-07-11T10:22:03.605Z</time>
      </trkpt>
      <trkpt lat="44.20181" lon="5.11077">
        <ele>258</ele>
        <time>2020-07-11T10:22:04.605Z</time>
      </trkpt>
      <trkpt lat="44.20187" lon="5.1107">
        <ele>258</ele>
        <time>2020-07-11T10:22:05.605Z</time>
      </trkpt>
      <trkpt lat="44.20192" lon="5.11063">
        <ele>258</ele>
        <time>2020-07-11T10:22:06.605Z</time>
      </trkpt>
      <trkpt lat="44.20197" lon="5.11055">
        <ele>258</ele>
        <time>2020-07-11T10:22:07.605Z</time>
      </trkpt>
      <trkpt lat="44.20203" lon="5.11048">
        <ele>258</ele>
        <time>2020-07-11T10:22:08.605Z</time>
      </trkpt>
      <trkpt lat="44.20208" lon="5.1104">
        <ele>258</ele>
        <time>2020-07-11T10:22:09.605Z</time>
      </trkpt>
      <trkpt lat="44.20213" lon="5.11033">
        <ele>258</ele>
        <time>2020-07-11T10:22:10.605Z</time>
      </trkpt>
      <trkpt lat="44.20219" lon="5.11025">
        <ele>257</ele>
        <time>2020-07-11T10:22:11.605Z</time>
      </trkpt>
      <trkpt lat="44.20224" lon="5.11018">
        <ele>257</ele>
        <time>2020-07-11T10:22:12.605Z</time>
      </trkpt>
      <trkpt lat="44.2023" lon="5.1101">
        <ele>257</ele>
        <time>2020-07-11T10:22:13.605Z</time>
      </trkpt>
      <trkpt lat="44.20236" lon="5.11002">
        <ele>257</ele>
        <time>2020-07-11T10:22:14.605Z</time>
      </trkpt>
      <trkpt lat="44.20241" lon="5.10994">
        <ele>257</ele>
        <time>2020-07-11T10:22:15.604Z</time>
      </trkpt>
      <trkpt lat="44.20247" lon="5.10986">
        <ele>256</ele>
        <time>2020-07-11T10:22:16.605Z</time>
      </trkpt>
      <trkpt lat="44.20253" lon="5.10979">
        <ele>256</ele>
        <time>2020-07-11T10:22:17.605Z</time>
      </trkpt>
      <trkpt lat="44.20258" lon="5.10971">
        <ele>256</ele>
        <time>2020-07-11T10:22:18.605Z</time>
      </trkpt>
      <trkpt lat="44.20264" lon="5.10963">
        <ele>255</ele>
        <time>2020-07-11T10:22:19.605Z</time>
      </trkpt>
      <trkpt lat="44.2027" lon="5.10955">
        <ele>255</ele>
        <time>2020-07-11T10:22:20.604Z</time>
      </trkpt>
      <trkpt lat="44.20276" lon="5.10947">
        <ele>254</ele>
        <time>2020-07-11T10:22:21.605Z</time>
      </trkpt>
      <trkpt lat="44.20282" lon="5.10939">
        <ele>254</ele>
        <time>2020-07-11T10:22:22.605Z</time>
      </trkpt>
      <trkpt lat="44.20287" lon="5.10931">
        <ele>254</ele>
        <time>2020-07-11T10:22:23.604Z</time>
      </trkpt>
      <trkpt lat="44.20293" lon="5.10922">
        <ele>254</ele>
        <time>2020-07-11T10:22:24.605Z</time>
      </trkpt>
      <trkpt lat="44.20299" lon="5.10914">
        <ele>254</ele>
        <time>2020-07-11T10:22:25.605Z</time>
      </trkpt>
      <trkpt lat="44.20305" lon="5.10906">
        <ele>254</ele>
        <time>2020-07-11T10:22:26.605Z</time>
      </trkpt>
      <trkpt lat="44.20311" lon="5.10897">
        <ele>254</ele>
        <time>2020-07-11T10:22:27.605Z</time>
      </trkpt>
      <trkpt lat="44.20317" lon="5.10888">
        <ele>253</ele>
        <time>2020-07-11T10:22:28.605Z</time>
      </trkpt>
      <trkpt lat="44.20323" lon="5.1088">
        <ele>253</ele>
        <time>2020-07-11T10:22:29.604Z</time>
      </trkpt>
      <trkpt lat="44.20329" lon="5.10871">
        <ele>253</ele>
        <time>2020-07-11T10:22:30.605Z</time>
      </trkpt>
      <trkpt lat="44.20335" lon="5.10863">
        <ele>253</ele>
        <time>2020-07-11T10:22:31.605Z</time>
      </trkpt>
      <trkpt lat="44.20341" lon="5.10854">
        <ele>253</ele>
        <time>2020-07-11T10:22:32.605Z</time>
      </trkpt>
      <trkpt lat="44.20347" lon="5.10846">
        <ele>253</ele>
        <time>2020-07-11T10:22:33.605Z</time>
      </trkpt>
      <trkpt lat="44.20352" lon="5.10837">
        <ele>252</ele>
        <time>2020-07-11T10:22:34.605Z</time>
      </trkpt>
      <trkpt lat="44.20358" lon="5.10829">
        <ele>252</ele>
        <time>2020-07-11T10:22:35.605Z</time>
      </trkpt>
      <trkpt lat="44.20363" lon="5.1082">
        <ele>253</ele>
        <time>2020-07-11T10:22:36.605Z</time>
      </trkpt>
      <trkpt lat="44.20369" lon="5.10812">
        <ele>253</ele>
        <time>2020-07-11T10:22:37.605Z</time>
      </trkpt>
      <trkpt lat="44.20374" lon="5.10803">
        <ele>253</ele>
        <time>2020-07-11T10:22:38.605Z</time>
      </trkpt>
      <trkpt lat="44.2038" lon="5.10795">
        <ele>253</ele>
        <time>2020-07-11T10:22:39.605Z</time>
      </trkpt>
      <trkpt lat="44.20385" lon="5.10787">
        <ele>254</ele>
        <time>2020-07-11T10:22:40.604Z</time>
      </trkpt>
      <trkpt lat="44.2039" lon="5.10779">
        <ele>254</ele>
        <time>2020-07-11T10:22:41.604Z</time>
      </trkpt>
      <trkpt lat="44.20396" lon="5.10771">
        <ele>254</ele>
        <time>2020-07-11T10:22:42.605Z</time>
      </trkpt>
      <trkpt lat="44.20401" lon="5.10762">
        <ele>254</ele>
        <time>2020-07-11T10:22:43.605Z</time>
      </trkpt>
      <trkpt lat="44.20406" lon="5.10754">
        <ele>253</ele>
        <time>2020-07-11T10:22:44.605Z</time>
      </trkpt>
      <trkpt lat="44.20411" lon="5.10746">
        <ele>253</ele>
        <time>2020-07-11T10:22:45.605Z</time>
      </trkpt>
      <trkpt lat="44.20416" lon="5.10738">
        <ele>253</ele>
        <time>2020-07-11T10:22:46.605Z</time>
      </trkpt>
      <trkpt lat="44.20421" lon="5.1073">
        <ele>253</ele>
        <time>2020-07-11T10:22:47.605Z</time>
      </trkpt>
      <trkpt lat="44.20426" lon="5.10721">
        <ele>253</ele>
        <time>2020-07-11T10:22:48.604Z</time>
      </trkpt>
      <trkpt lat="44.20432" lon="5.10713">
        <ele>253</ele>
        <time>2020-07-11T10:22:49.605Z</time>
      </trkpt>
      <trkpt lat="44.20437" lon="5.10705">
        <ele>253</ele>
        <time>2020-07-11T10:22:50.605Z</time>
      </trkpt>
      <trkpt lat="44.20443" lon="5.10697">
        <ele>253</ele>
        <time>2020-07-11T10:22:51.604Z</time>
      </trkpt>
      <trkpt lat="44.20449" lon="5.10689">
        <ele>253</ele>
        <time>2020-07-11T10:22:52.604Z</time>
      </trkpt>
      <trkpt lat="44.20455" lon="5.10682">
        <ele>253</ele>
        <time>2020-07-11T10:22:53.605Z</time>
      </trkpt>
      <trkpt lat="44.20461" lon="5.10675">
        <ele>253</ele>
        <time>2020-07-11T10:22:54.605Z</time>
      </trkpt>
      <trkpt lat="44.20467" lon="5.10669">
        <ele>254</ele>
        <time>2020-07-11T10:22:55.605Z</time>
      </trkpt>
      <trkpt lat="44.20474" lon="5.10664">
        <ele>254</ele>
        <time>2020-07-11T10:22:56.605Z</time>
      </trkpt>
      <trkpt lat="44.20481" lon="5.10659">
        <ele>254</ele>
        <time>2020-07-11T10:22:57.604Z</time>
      </trkpt>
      <trkpt lat="44.20488" lon="5.10655">
        <ele>254</ele>
        <time>2020-07-11T10:22:58.604Z</time>
      </trkpt>
      <trkpt lat="44.20495" lon="5.1065">
        <ele>255</ele>
        <time>2020-07-11T10:22:59.605Z</time>
      </trkpt>
      <trkpt lat="44.20502" lon="5.10647">
        <ele>255</ele>
        <time>2020-07-11T10:23:00.605Z</time>
      </trkpt>
      <trkpt lat="44.20509" lon="5.10643">
        <ele>256</ele>
        <time>2020-07-11T10:23:01.605Z</time>
      </trkpt>
      <trkpt lat="44.20516" lon="5.10639">
        <ele>256</ele>
        <time>2020-07-11T10:23:02.605Z</time>
      </trkpt>
      <trkpt lat="44.20523" lon="5.10635">
        <ele>256</ele>
        <time>2020-07-11T10:23:03.605Z</time>
      </trkpt>
      <trkpt lat="44.2053" lon="5.10631">
        <ele>256</ele>
        <time>2020-07-11T10:23:04.605Z</time>
      </trkpt>
      <trkpt lat="44.20538" lon="5.10627">
        <ele>255</ele>
        <time>2020-07-11T10:23:05.604Z</time>
      </trkpt>
      <trkpt lat="44.20546" lon="5.10623">
        <ele>255</ele>
        <time>2020-07-11T10:23:06.605Z</time>
      </trkpt>
      <trkpt lat="44.20554" lon="5.10619">
        <ele>255</ele>
        <time>2020-07-11T10:23:07.605Z</time>
      </trkpt>
      <trkpt lat="44.20562" lon="5.10614">
        <ele>254</ele>
        <time>2020-07-11T10:23:08.605Z</time>
      </trkpt>
      <trkpt lat="44.20568" lon="5.1061">
        <ele>254</ele>
        <time>2020-07-11T10:23:09.605Z</time>
      </trkpt>
      <trkpt lat="44.20577" lon="5.10605">
        <ele>254</ele>
        <time>2020-07-11T10:23:10.605Z</time>
      </trkpt>
      <trkpt lat="44.20586" lon="5.106">
        <ele>254</ele>
        <time>2020-07-11T10:23:11.605Z</time>
      </trkpt>
      <trkpt lat="44.20594" lon="5.10595">
        <ele>254</ele>
        <time>2020-07-11T10:23:12.605Z</time>
      </trkpt>
      <trkpt lat="44.20602" lon="5.1059">
        <ele>254</ele>
        <time>2020-07-11T10:23:13.605Z</time>
      </trkpt>
      <trkpt lat="44.20611" lon="5.10586">
        <ele>255</ele>
        <time>2020-07-11T10:23:14.604Z</time>
      </trkpt>
      <trkpt lat="44.20619" lon="5.10581">
        <ele>254</ele>
        <time>2020-07-11T10:23:15.605Z</time>
      </trkpt>
      <trkpt lat="44.20628" lon="5.10575">
        <ele>254</ele>
        <time>2020-07-11T10:23:16.604Z</time>
      </trkpt>
      <trkpt lat="44.20636" lon="5.1057">
        <ele>254</ele>
        <time>2020-07-11T10:23:17.605Z</time>
      </trkpt>
      <trkpt lat="44.20645" lon="5.10565">
        <ele>254</ele>
        <time>2020-07-11T10:23:18.604Z</time>
      </trkpt>
      <trkpt lat="44.20653" lon="5.1056">
        <ele>254</ele>
        <time>2020-07-11T10:23:19.605Z</time>
      </trkpt>
      <trkpt lat="44.20661" lon="5.10555">
        <ele>254</ele>
        <time>2020-07-11T10:23:20.604Z</time>
      </trkpt>
      <trkpt lat="44.20669" lon="5.1055">
        <ele>254</ele>
        <time>2020-07-11T10:23:21.605Z</time>
      </trkpt>
      <trkpt lat="44.20677" lon="5.10545">
        <ele>254</ele>
        <time>2020-07-11T10:23:22.605Z</time>
      </trkpt>
      <trkpt lat="44.20685" lon="5.1054">
        <ele>254</ele>
        <time>2020-07-11T10:23:23.605Z</time>
      </trkpt>
      <trkpt lat="44.20693" lon="5.10535">
        <ele>254</ele>
        <time>2020-07-11T10:23:24.605Z</time>
      </trkpt>
      <trkpt lat="44.20702" lon="5.1053">
        <ele>254</ele>
        <time>2020-07-11T10:23:25.605Z</time>
      </trkpt>
      <trkpt lat="44.2071" lon="5.10525">
        <ele>253</ele>
        <time>2020-07-11T10:23:26.605Z</time>
      </trkpt>
      <trkpt lat="44.20718" lon="5.1052">
        <ele>253</ele>
        <time>2020-07-11T10:23:27.605Z</time>
      </trkpt>
      <trkpt lat="44.20725" lon="5.10515">
        <ele>253</ele>
        <time>2020-07-11T10:23:28.604Z</time>
      </trkpt>
      <trkpt lat="44.20731" lon="5.10511">
        <ele>253</ele>
        <time>2020-07-11T10:23:29.605Z</time>
      </trkpt>
      <trkpt lat="44.20741" lon="5.10505">
        <ele>252</ele>
        <time>2020-07-11T10:23:30.605Z</time>
      </trkpt>
      <trkpt lat="44.20748" lon="5.105">
        <ele>252</ele>
        <time>2020-07-11T10:23:31.605Z</time>
      </trkpt>
      <trkpt lat="44.20756" lon="5.10495">
        <ele>251</ele>
        <time>2020-07-11T10:23:32.605Z</time>
      </trkpt>
      <trkpt lat="44.20763" lon="5.1049">
        <ele>251</ele>
        <time>2020-07-11T10:23:33.605Z</time>
      </trkpt>
      <trkpt lat="44.20771" lon="5.10486">
        <ele>251</ele>
        <time>2020-07-11T10:23:34.605Z</time>
      </trkpt>
      <trkpt lat="44.20779" lon="5.10481">
        <ele>250</ele>
        <time>2020-07-11T10:23:35.605Z</time>
      </trkpt>
      <trkpt lat="44.20786" lon="5.10476">
        <ele>250</ele>
        <time>2020-07-11T10:23:36.605Z</time>
      </trkpt>
      <trkpt lat="44.20794" lon="5.10472">
        <ele>250</ele>
        <time>2020-07-11T10:23:37.604Z</time>
      </trkpt>
      <trkpt lat="44.208" lon="5.10468">
        <ele>250</ele>
        <time>2020-07-11T10:23:38.605Z</time>
      </trkpt>
      <trkpt lat="44.20809" lon="5.10462">
        <ele>250</ele>
        <time>2020-07-11T10:23:39.604Z</time>
      </trkpt>
      <trkpt lat="44.20817" lon="5.10458">
        <ele>249</ele>
        <time>2020-07-11T10:23:40.605Z</time>
      </trkpt>
      <trkpt lat="44.20824" lon="5.10453">
        <ele>249</ele>
        <time>2020-07-11T10:23:41.604Z</time>
      </trkpt>
      <trkpt lat="44.20831" lon="5.10448">
        <ele>249</ele>
        <time>2020-07-11T10:23:42.604Z</time>
      </trkpt>
      <trkpt lat="44.20838" lon="5.10443">
        <ele>248</ele>
        <time>2020-07-11T10:23:43.605Z</time>
      </trkpt>
      <trkpt lat="44.20845" lon="5.10437">
        <ele>248</ele>
        <time>2020-07-11T10:23:44.605Z</time>
      </trkpt>
      <trkpt lat="44.20852" lon="5.10431">
        <ele>248</ele>
        <time>2020-07-11T10:23:45.605Z</time>
      </trkpt>
      <trkpt lat="44.20859" lon="5.10424">
        <ele>248</ele>
        <time>2020-07-11T10:23:46.605Z</time>
      </trkpt>
      <trkpt lat="44.20865" lon="5.10418">
        <ele>249</ele>
        <time>2020-07-11T10:23:47.605Z</time>
      </trkpt>
      <trkpt lat="44.20871" lon="5.10411">
        <ele>248</ele>
        <time>2020-07-11T10:23:48.605Z</time>
      </trkpt>
      <trkpt lat="44.20877" lon="5.10403">
        <ele>248</ele>
        <time>2020-07-11T10:23:49.605Z</time>
      </trkpt>
      <trkpt lat="44.20883" lon="5.10396">
        <ele>248</ele>
        <time>2020-07-11T10:23:50.604Z</time>
      </trkpt>
      <trkpt lat="44.20889" lon="5.10388">
        <ele>248</ele>
        <time>2020-07-11T10:23:51.605Z</time>
      </trkpt>
      <trkpt lat="44.20895" lon="5.10381">
        <ele>249</ele>
        <time>2020-07-11T10:23:52.605Z</time>
      </trkpt>
      <trkpt lat="44.20902" lon="5.10373">
        <ele>249</ele>
        <time>2020-07-11T10:23:53.605Z</time>
      </trkpt>
      <trkpt lat="44.20908" lon="5.10365">
        <ele>249</ele>
        <time>2020-07-11T10:23:54.604Z</time>
      </trkpt>
      <trkpt lat="44.20914" lon="5.10357">
        <ele>249</ele>
        <time>2020-07-11T10:23:55.605Z</time>
      </trkpt>
      <trkpt lat="44.2092" lon="5.10349">
        <ele>249</ele>
        <time>2020-07-11T10:23:56.605Z</time>
      </trkpt>
      <trkpt lat="44.20926" lon="5.10342">
        <ele>249</ele>
        <time>2020-07-11T10:23:57.605Z</time>
      </trkpt>
      <trkpt lat="44.20932" lon="5.10334">
        <ele>249</ele>
        <time>2020-07-11T10:23:58.604Z</time>
      </trkpt>
      <trkpt lat="44.20938" lon="5.10326">
        <ele>249</ele>
        <time>2020-07-11T10:23:59.605Z</time>
      </trkpt>
      <trkpt lat="44.20945" lon="5.10319">
        <ele>250</ele>
        <time>2020-07-11T10:24:00.605Z</time>
      </trkpt>
      <trkpt lat="44.20952" lon="5.10312">
        <ele>250</ele>
        <time>2020-07-11T10:24:01.605Z</time>
      </trkpt>
      <trkpt lat="44.20959" lon="5.10304">
        <ele>250</ele>
        <time>2020-07-11T10:24:02.604Z</time>
      </trkpt>
      <trkpt lat="44.20966" lon="5.10297">
        <ele>250</ele>
        <time>2020-07-11T10:24:03.604Z</time>
      </trkpt>
      <trkpt lat="44.20973" lon="5.1029">
        <ele>250</ele>
        <time>2020-07-11T10:24:04.604Z</time>
      </trkpt>
      <trkpt lat="44.20981" lon="5.10282">
        <ele>250</ele>
        <time>2020-07-11T10:24:05.605Z</time>
      </trkpt>
      <trkpt lat="44.20988" lon="5.10275">
        <ele>249</ele>
        <time>2020-07-11T10:24:06.605Z</time>
      </trkpt>
      <trkpt lat="44.20996" lon="5.10267">
        <ele>249</ele>
        <time>2020-07-11T10:24:07.605Z</time>
      </trkpt>
      <trkpt lat="44.21004" lon="5.10258">
        <ele>249</ele>
        <time>2020-07-11T10:24:08.605Z</time>
      </trkpt>
      <trkpt lat="44.2101" lon="5.10251">
        <ele>249</ele>
        <time>2020-07-11T10:24:09.605Z</time>
      </trkpt>
      <trkpt lat="44.21019" lon="5.10241">
        <ele>249</ele>
        <time>2020-07-11T10:24:10.605Z</time>
      </trkpt>
      <trkpt lat="44.21026" lon="5.10232">
        <ele>249</ele>
        <time>2020-07-11T10:24:11.605Z</time>
      </trkpt>
      <trkpt lat="44.21034" lon="5.10223">
        <ele>248</ele>
        <time>2020-07-11T10:24:12.604Z</time>
      </trkpt>
      <trkpt lat="44.2104" lon="5.10213">
        <ele>248</ele>
        <time>2020-07-11T10:24:13.605Z</time>
      </trkpt>
      <trkpt lat="44.21047" lon="5.10204">
        <ele>248</ele>
        <time>2020-07-11T10:24:14.604Z</time>
      </trkpt>
      <trkpt lat="44.21053" lon="5.10195">
        <ele>247</ele>
        <time>2020-07-11T10:24:15.605Z</time>
      </trkpt>
      <trkpt lat="44.21059" lon="5.10186">
        <ele>247</ele>
        <time>2020-07-11T10:24:16.605Z</time>
      </trkpt>
      <trkpt lat="44.21065" lon="5.10177">
        <ele>246</ele>
        <time>2020-07-11T10:24:17.605Z</time>
      </trkpt>
      <trkpt lat="44.21071" lon="5.10169">
        <ele>246</ele>
        <time>2020-07-11T10:24:18.605Z</time>
      </trkpt>
      <trkpt lat="44.21077" lon="5.10161">
        <ele>245</ele>
        <time>2020-07-11T10:24:19.605Z</time>
      </trkpt>
      <trkpt lat="44.21084" lon="5.10154">
        <ele>245</ele>
        <time>2020-07-11T10:24:20.605Z</time>
      </trkpt>
      <trkpt lat="44.21091" lon="5.10147">
        <ele>244</ele>
        <time>2020-07-11T10:24:21.605Z</time>
      </trkpt>
      <trkpt lat="44.21098" lon="5.1014">
        <ele>244</ele>
        <time>2020-07-11T10:24:22.604Z</time>
      </trkpt>
      <trkpt lat="44.21104" lon="5.10132">
        <ele>244</ele>
        <time>2020-07-11T10:24:23.604Z</time>
      </trkpt>
      <trkpt lat="44.21111" lon="5.10125">
        <ele>243</ele>
        <time>2020-07-11T10:24:24.604Z</time>
      </trkpt>
      <trkpt lat="44.21118" lon="5.10119">
        <ele>243</ele>
        <time>2020-07-11T10:24:25.604Z</time>
      </trkpt>
      <trkpt lat="44.21125" lon="5.10113">
        <ele>242</ele>
        <time>2020-07-11T10:24:26.604Z</time>
      </trkpt>
      <trkpt lat="44.21131" lon="5.10106">
        <ele>242</ele>
        <time>2020-07-11T10:24:27.604Z</time>
      </trkpt>
      <trkpt lat="44.21138" lon="5.101">
        <ele>241</ele>
        <time>2020-07-11T10:24:28.604Z</time>
      </trkpt>
      <trkpt lat="44.21144" lon="5.10094">
        <ele>241</ele>
        <time>2020-07-11T10:24:29.605Z</time>
      </trkpt>
      <trkpt lat="44.21151" lon="5.10088">
        <ele>241</ele>
        <time>2020-07-11T10:24:30.605Z</time>
      </trkpt>
      <trkpt lat="44.21158" lon="5.10082">
        <ele>240</ele>
        <time>2020-07-11T10:24:31.604Z</time>
      </trkpt>
      <trkpt lat="44.21164" lon="5.10077">
        <ele>240</ele>
        <time>2020-07-11T10:24:32.604Z</time>
      </trkpt>
      <trkpt lat="44.21171" lon="5.10071">
        <ele>240</ele>
        <time>2020-07-11T10:24:33.604Z</time>
      </trkpt>
      <trkpt lat="44.21179" lon="5.10066">
        <ele>240</ele>
        <time>2020-07-11T10:24:34.605Z</time>
      </trkpt>
      <trkpt lat="44.21186" lon="5.10062">
        <ele>240</ele>
        <time>2020-07-11T10:24:35.604Z</time>
      </trkpt>
      <trkpt lat="44.21194" lon="5.10059">
        <ele>240</ele>
        <time>2020-07-11T10:24:36.604Z</time>
      </trkpt>
      <trkpt lat="44.21202" lon="5.10058">
        <ele>240</ele>
        <time>2020-07-11T10:24:37.605Z</time>
      </trkpt>
      <trkpt lat="44.21209" lon="5.10057">
        <ele>240</ele>
        <time>2020-07-11T10:24:38.605Z</time>
      </trkpt>
      <trkpt lat="44.21219" lon="5.10055">
        <ele>239</ele>
        <time>2020-07-11T10:24:39.605Z</time>
      </trkpt>
      <trkpt lat="44.21227" lon="5.10055">
        <ele>239</ele>
        <time>2020-07-11T10:24:40.604Z</time>
      </trkpt>
      <trkpt lat="44.21235" lon="5.10054">
        <ele>239</ele>
        <time>2020-07-11T10:24:41.605Z</time>
      </trkpt>
      <trkpt lat="44.21243" lon="5.10054">
        <ele>239</ele>
        <time>2020-07-11T10:24:42.605Z</time>
      </trkpt>
      <trkpt lat="44.2125" lon="5.10053">
        <ele>239</ele>
        <time>2020-07-11T10:24:43.605Z</time>
      </trkpt>
      <trkpt lat="44.21259" lon="5.10052">
        <ele>239</ele>
        <time>2020-07-11T10:24:44.605Z</time>
      </trkpt>
      <trkpt lat="44.21267" lon="5.10051">
        <ele>239</ele>
        <time>2020-07-11T10:24:45.605Z</time>
      </trkpt>
      <trkpt lat="44.21275" lon="5.1005">
        <ele>239</ele>
        <time>2020-07-11T10:24:46.605Z</time>
      </trkpt>
      <trkpt lat="44.21282" lon="5.1005">
        <ele>239</ele>
        <time>2020-07-11T10:24:47.605Z</time>
      </trkpt>
      <trkpt lat="44.2129" lon="5.10048">
        <ele>239</ele>
        <time>2020-07-11T10:24:48.605Z</time>
      </trkpt>
      <trkpt lat="44.213" lon="5.10046">
        <ele>239</ele>
        <time>2020-07-11T10:24:49.604Z</time>
      </trkpt>
      <trkpt lat="44.21308" lon="5.10044">
        <ele>239</ele>
        <time>2020-07-11T10:24:50.605Z</time>
      </trkpt>
      <trkpt lat="44.21317" lon="5.10042">
        <ele>239</ele>
        <time>2020-07-11T10:24:51.605Z</time>
      </trkpt>
      <trkpt lat="44.21325" lon="5.1004">
        <ele>239</ele>
        <time>2020-07-11T10:24:52.605Z</time>
      </trkpt>
      <trkpt lat="44.21333" lon="5.10038">
        <ele>239</ele>
        <time>2020-07-11T10:24:53.605Z</time>
      </trkpt>
      <trkpt lat="44.21341" lon="5.10036">
        <ele>238</ele>
        <time>2020-07-11T10:24:54.604Z</time>
      </trkpt>
      <trkpt lat="44.2135" lon="5.10034">
        <ele>238</ele>
        <time>2020-07-11T10:24:55.605Z</time>
      </trkpt>
      <trkpt lat="44.21359" lon="5.10032">
        <ele>237</ele>
        <time>2020-07-11T10:24:56.605Z</time>
      </trkpt>
      <trkpt lat="44.21367" lon="5.10029">
        <ele>237</ele>
        <time>2020-07-11T10:24:57.605Z</time>
      </trkpt>
      <trkpt lat="44.21376" lon="5.10027">
        <ele>237</ele>
        <time>2020-07-11T10:24:58.604Z</time>
      </trkpt>
      <trkpt lat="44.21383" lon="5.10025">
        <ele>237</ele>
        <time>2020-07-11T10:24:59.605Z</time>
      </trkpt>
      <trkpt lat="44.21393" lon="5.10021">
        <ele>237</ele>
        <time>2020-07-11T10:25:00.604Z</time>
      </trkpt>
      <trkpt lat="44.21402" lon="5.10019">
        <ele>236</ele>
        <time>2020-07-11T10:25:01.604Z</time>
      </trkpt>
      <trkpt lat="44.21411" lon="5.10016">
        <ele>236</ele>
        <time>2020-07-11T10:25:02.604Z</time>
      </trkpt>
      <trkpt lat="44.2142" lon="5.10014">
        <ele>236</ele>
        <time>2020-07-11T10:25:03.605Z</time>
      </trkpt>
      <trkpt lat="44.21429" lon="5.10011">
        <ele>235</ele>
        <time>2020-07-11T10:25:04.605Z</time>
      </trkpt>
      <trkpt lat="44.21437" lon="5.10008">
        <ele>235</ele>
        <time>2020-07-11T10:25:05.604Z</time>
      </trkpt>
      <trkpt lat="44.21446" lon="5.10006">
        <ele>235</ele>
        <time>2020-07-11T10:25:06.605Z</time>
      </trkpt>
      <trkpt lat="44.21454" lon="5.10003">
        <ele>234</ele>
        <time>2020-07-11T10:25:07.605Z</time>
      </trkpt>
      <trkpt lat="44.21463" lon="5.10001">
        <ele>234</ele>
        <time>2020-07-11T10:25:08.605Z</time>
      </trkpt>
      <trkpt lat="44.21471" lon="5.09998">
        <ele>234</ele>
        <time>2020-07-11T10:25:09.605Z</time>
      </trkpt>
      <trkpt lat="44.2148" lon="5.09995">
        <ele>234</ele>
        <time>2020-07-11T10:25:10.604Z</time>
      </trkpt>
      <trkpt lat="44.21488" lon="5.09992">
        <ele>234</ele>
        <time>2020-07-11T10:25:11.605Z</time>
      </trkpt>
      <trkpt lat="44.21497" lon="5.09989">
        <ele>234</ele>
        <time>2020-07-11T10:25:12.605Z</time>
      </trkpt>
      <trkpt lat="44.21505" lon="5.09986">
        <ele>234</ele>
        <time>2020-07-11T10:25:13.605Z</time>
      </trkpt>
      <trkpt lat="44.21513" lon="5.09983">
        <ele>233</ele>
        <time>2020-07-11T10:25:14.605Z</time>
      </trkpt>
      <trkpt lat="44.21522" lon="5.09979">
        <ele>233</ele>
        <time>2020-07-11T10:25:15.605Z</time>
      </trkpt>
      <trkpt lat="44.2153" lon="5.09975">
        <ele>233</ele>
        <time>2020-07-11T10:25:16.605Z</time>
      </trkpt>
      <trkpt lat="44.21538" lon="5.0997">
        <ele>233</ele>
        <time>2020-07-11T10:25:17.605Z</time>
      </trkpt>
      <trkpt lat="44.21545" lon="5.09966">
        <ele>233</ele>
        <time>2020-07-11T10:25:18.605Z</time>
      </trkpt>
      <trkpt lat="44.21553" lon="5.09961">
        <ele>233</ele>
        <time>2020-07-11T10:25:19.604Z</time>
      </trkpt>
      <trkpt lat="44.2156" lon="5.09955">
        <ele>233</ele>
        <time>2020-07-11T10:25:20.605Z</time>
      </trkpt>
      <trkpt lat="44.21568" lon="5.0995">
        <ele>233</ele>
        <time>2020-07-11T10:25:21.605Z</time>
      </trkpt>
      <trkpt lat="44.21575" lon="5.09944">
        <ele>233</ele>
        <time>2020-07-11T10:25:22.605Z</time>
      </trkpt>
      <trkpt lat="44.21582" lon="5.09938">
        <ele>233</ele>
        <time>2020-07-11T10:25:23.605Z</time>
      </trkpt>
      <trkpt lat="44.21589" lon="5.09932">
        <ele>234</ele>
        <time>2020-07-11T10:25:24.605Z</time>
      </trkpt>
      <trkpt lat="44.21596" lon="5.09926">
        <ele>234</ele>
        <time>2020-07-11T10:25:25.605Z</time>
      </trkpt>
      <trkpt lat="44.21603" lon="5.09919">
        <ele>234</ele>
        <time>2020-07-11T10:25:26.604Z</time>
      </trkpt>
      <trkpt lat="44.2161" lon="5.09913">
        <ele>234</ele>
        <time>2020-07-11T10:25:27.605Z</time>
      </trkpt>
      <trkpt lat="44.21617" lon="5.09907">
        <ele>233</ele>
        <time>2020-07-11T10:25:28.605Z</time>
      </trkpt>
      <trkpt lat="44.21623" lon="5.09901">
        <ele>233</ele>
        <time>2020-07-11T10:25:29.605Z</time>
      </trkpt>
      <trkpt lat="44.21632" lon="5.09894">
        <ele>233</ele>
        <time>2020-07-11T10:25:30.605Z</time>
      </trkpt>
      <trkpt lat="44.21639" lon="5.09888">
        <ele>232</ele>
        <time>2020-07-11T10:25:31.605Z</time>
      </trkpt>
      <trkpt lat="44.21646" lon="5.09882">
        <ele>232</ele>
        <time>2020-07-11T10:25:32.604Z</time>
      </trkpt>
      <trkpt lat="44.21653" lon="5.09877">
        <ele>232</ele>
        <time>2020-07-11T10:25:33.604Z</time>
      </trkpt>
      <trkpt lat="44.2166" lon="5.09872">
        <ele>232</ele>
        <time>2020-07-11T10:25:34.605Z</time>
      </trkpt>
      <trkpt lat="44.21667" lon="5.09867">
        <ele>231</ele>
        <time>2020-07-11T10:25:35.605Z</time>
      </trkpt>
      <trkpt lat="44.21674" lon="5.09862">
        <ele>230</ele>
        <time>2020-07-11T10:25:36.605Z</time>
      </trkpt>
      <trkpt lat="44.2168" lon="5.09858">
        <ele>230</ele>
        <time>2020-07-11T10:25:37.605Z</time>
      </trkpt>
      <trkpt lat="44.21687" lon="5.09853">
        <ele>229</ele>
        <time>2020-07-11T10:25:38.605Z</time>
      </trkpt>
      <trkpt lat="44.21693" lon="5.09848">
        <ele>229</ele>
        <time>2020-07-11T10:25:39.605Z</time>
      </trkpt>
      <trkpt lat="44.217" lon="5.09844">
        <ele>230</ele>
        <time>2020-07-11T10:25:40.605Z</time>
      </trkpt>
      <trkpt lat="44.21707" lon="5.09839">
        <ele>230</ele>
        <time>2020-07-11T10:25:41.605Z</time>
      </trkpt>
      <trkpt lat="44.21714" lon="5.09835">
        <ele>230</ele>
        <time>2020-07-11T10:25:42.605Z</time>
      </trkpt>
      <trkpt lat="44.21719" lon="5.09831">
        <ele>230</ele>
        <time>2020-07-11T10:25:43.604Z</time>
      </trkpt>
      <trkpt lat="44.21727" lon="5.09825">
        <ele>230</ele>
        <time>2020-07-11T10:25:44.605Z</time>
      </trkpt>
      <trkpt lat="44.21734" lon="5.0982">
        <ele>230</ele>
        <time>2020-07-11T10:25:45.605Z</time>
      </trkpt>
      <trkpt lat="44.2174" lon="5.09816">
        <ele>231</ele>
        <time>2020-07-11T10:25:46.604Z</time>
      </trkpt>
      <trkpt lat="44.21746" lon="5.09812">
        <ele>231</ele>
        <time>2020-07-11T10:25:47.605Z</time>
      </trkpt>
      <trkpt lat="44.21754" lon="5.09807">
        <ele>231</ele>
        <time>2020-07-11T10:25:48.604Z</time>
      </trkpt>
      <trkpt lat="44.2176" lon="5.09802">
        <ele>230</ele>
        <time>2020-07-11T10:25:49.605Z</time>
      </trkpt>
      <trkpt lat="44.21767" lon="5.09797">
        <ele>230</ele>
        <time>2020-07-11T10:25:50.605Z</time>
      </trkpt>
      <trkpt lat="44.21774" lon="5.09793">
        <ele>230</ele>
        <time>2020-07-11T10:25:51.604Z</time>
      </trkpt>
      <trkpt lat="44.21781" lon="5.09788">
        <ele>230</ele>
        <time>2020-07-11T10:25:52.605Z</time>
      </trkpt>
      <trkpt lat="44.21788" lon="5.09783">
        <ele>230</ele>
        <time>2020-07-11T10:25:53.605Z</time>
      </trkpt>
      <trkpt lat="44.21795" lon="5.09779">
        <ele>230</ele>
        <time>2020-07-11T10:25:54.605Z</time>
      </trkpt>
      <trkpt lat="44.21801" lon="5.09774">
        <ele>230</ele>
        <time>2020-07-11T10:25:55.605Z</time>
      </trkpt>
      <trkpt lat="44.21808" lon="5.0977">
        <ele>229</ele>
        <time>2020-07-11T10:25:56.605Z</time>
      </trkpt>
      <trkpt lat="44.21814" lon="5.09767">
        <ele>229</ele>
        <time>2020-07-11T10:25:57.605Z</time>
      </trkpt>
      <trkpt lat="44.2182" lon="5.09763">
        <ele>229</ele>
        <time>2020-07-11T10:25:58.604Z</time>
      </trkpt>
      <trkpt lat="44.21826" lon="5.09759">
        <ele>229</ele>
        <time>2020-07-11T10:25:59.605Z</time>
      </trkpt>
      <trkpt lat="44.21833" lon="5.09756">
        <ele>229</ele>
        <time>2020-07-11T10:26:00.605Z</time>
      </trkpt>
      <trkpt lat="44.21839" lon="5.09752">
        <ele>229</ele>
        <time>2020-07-11T10:26:01.605Z</time>
      </trkpt>
      <trkpt lat="44.21844" lon="5.09749">
        <ele>229</ele>
        <time>2020-07-11T10:26:02.605Z</time>
      </trkpt>
      <trkpt lat="44.21851" lon="5.09746">
        <ele>228</ele>
        <time>2020-07-11T10:26:03.605Z</time>
      </trkpt>
      <trkpt lat="44.21859" lon="5.09741">
        <ele>228</ele>
        <time>2020-07-11T10:26:04.605Z</time>
      </trkpt>
      <trkpt lat="44.21865" lon="5.09739">
        <ele>228</ele>
        <time>2020-07-11T10:26:05.604Z</time>
      </trkpt>
      <trkpt lat="44.21872" lon="5.09737">
        <ele>228</ele>
        <time>2020-07-11T10:26:06.605Z</time>
      </trkpt>
      <trkpt lat="44.21879" lon="5.09737">
        <ele>228</ele>
        <time>2020-07-11T10:26:07.605Z</time>
      </trkpt>
      <trkpt lat="44.21884" lon="5.09738">
        <ele>227</ele>
        <time>2020-07-11T10:26:08.605Z</time>
      </trkpt>
      <trkpt lat="44.21892" lon="5.09742">
        <ele>227</ele>
        <time>2020-07-11T10:26:09.605Z</time>
      </trkpt>
      <trkpt lat="44.21898" lon="5.09745">
        <ele>228</ele>
        <time>2020-07-11T10:26:10.605Z</time>
      </trkpt>
      <trkpt lat="44.21904" lon="5.09748">
        <ele>228</ele>
        <time>2020-07-11T10:26:11.605Z</time>
      </trkpt>
      <trkpt lat="44.21911" lon="5.09748">
        <ele>227</ele>
        <time>2020-07-11T10:26:12.605Z</time>
      </trkpt>
      <trkpt lat="44.21917" lon="5.09746">
        <ele>227</ele>
        <time>2020-07-11T10:26:13.605Z</time>
      </trkpt>
      <trkpt lat="44.21922" lon="5.09741">
        <ele>228</ele>
        <time>2020-07-11T10:26:14.605Z</time>
      </trkpt>
      <trkpt lat="44.21927" lon="5.09734">
        <ele>228</ele>
        <time>2020-07-11T10:26:15.604Z</time>
      </trkpt>
      <trkpt lat="44.21931" lon="5.09726">
        <ele>228</ele>
        <time>2020-07-11T10:26:16.604Z</time>
      </trkpt>
      <trkpt lat="44.21935" lon="5.09716">
        <ele>228</ele>
        <time>2020-07-11T10:26:17.605Z</time>
      </trkpt>
      <trkpt lat="44.2194" lon="5.09707">
        <ele>228</ele>
        <time>2020-07-11T10:26:18.605Z</time>
      </trkpt>
      <trkpt lat="44.21945" lon="5.09699">
        <ele>228</ele>
        <time>2020-07-11T10:26:19.605Z</time>
      </trkpt>
      <trkpt lat="44.21951" lon="5.09693">
        <ele>228</ele>
        <time>2020-07-11T10:26:20.604Z</time>
      </trkpt>
      <trkpt lat="44.21958" lon="5.09687">
        <ele>227</ele>
        <time>2020-07-11T10:26:21.605Z</time>
      </trkpt>
      <trkpt lat="44.21963" lon="5.09683">
        <ele>227</ele>
        <time>2020-07-11T10:26:22.605Z</time>
      </trkpt>
      <trkpt lat="44.2197" lon="5.09679">
        <ele>227</ele>
        <time>2020-07-11T10:26:23.604Z</time>
      </trkpt>
      <trkpt lat="44.21979" lon="5.09674">
        <ele>227</ele>
        <time>2020-07-11T10:26:24.605Z</time>
      </trkpt>
      <trkpt lat="44.21986" lon="5.09669">
        <ele>227</ele>
        <time>2020-07-11T10:26:25.605Z</time>
      </trkpt>
      <trkpt lat="44.21993" lon="5.09665">
        <ele>227</ele>
        <time>2020-07-11T10:26:26.605Z</time>
      </trkpt>
      <trkpt lat="44.21999" lon="5.0966">
        <ele>227</ele>
        <time>2020-07-11T10:26:27.605Z</time>
      </trkpt>
      <trkpt lat="44.22004" lon="5.09656">
        <ele>227</ele>
        <time>2020-07-11T10:26:28.605Z</time>
      </trkpt>
      <trkpt lat="44.22012" lon="5.09649">
        <ele>227</ele>
        <time>2020-07-11T10:26:29.604Z</time>
      </trkpt>
      <trkpt lat="44.22018" lon="5.09643">
        <ele>227</ele>
        <time>2020-07-11T10:26:30.604Z</time>
      </trkpt>
      <trkpt lat="44.22025" lon="5.09638">
        <ele>226</ele>
        <time>2020-07-11T10:26:31.605Z</time>
      </trkpt>
      <trkpt lat="44.22031" lon="5.09632">
        <ele>226</ele>
        <time>2020-07-11T10:26:32.605Z</time>
      </trkpt>
      <trkpt lat="44.22036" lon="5.09627">
        <ele>226</ele>
        <time>2020-07-11T10:26:33.605Z</time>
      </trkpt>
      <trkpt lat="44.22044" lon="5.0962">
        <ele>226</ele>
        <time>2020-07-11T10:26:34.605Z</time>
      </trkpt>
      <trkpt lat="44.22051" lon="5.09613">
        <ele>227</ele>
        <time>2020-07-11T10:26:35.604Z</time>
      </trkpt>
      <trkpt lat="44.22057" lon="5.09607">
        <ele>227</ele>
        <time>2020-07-11T10:26:36.605Z</time>
      </trkpt>
      <trkpt lat="44.22063" lon="5.09602">
        <ele>226</ele>
        <time>2020-07-11T10:26:37.605Z</time>
      </trkpt>
      <trkpt lat="44.22071" lon="5.09595">
        <ele>226</ele>
        <time>2020-07-11T10:26:38.605Z</time>
      </trkpt>
      <trkpt lat="44.22078" lon="5.09588">
        <ele>226</ele>
        <time>2020-07-11T10:26:39.605Z</time>
      </trkpt>
      <trkpt lat="44.22085" lon="5.09582">
        <ele>226</ele>
        <time>2020-07-11T10:26:40.604Z</time>
      </trkpt>
      <trkpt lat="44.2209" lon="5.09577">
        <ele>225</ele>
        <time>2020-07-11T10:26:41.604Z</time>
      </trkpt>
      <trkpt lat="44.22097" lon="5.09571">
        <ele>225</ele>
        <time>2020-07-11T10:26:42.605Z</time>
      </trkpt>
      <trkpt lat="44.22105" lon="5.09563">
        <ele>224</ele>
        <time>2020-07-11T10:26:43.605Z</time>
      </trkpt>
      <trkpt lat="44.22112" lon="5.09556">
        <ele>224</ele>
        <time>2020-07-11T10:26:44.605Z</time>
      </trkpt>
      <trkpt lat="44.22118" lon="5.0955">
        <ele>224</ele>
        <time>2020-07-11T10:26:45.605Z</time>
      </trkpt>
      <trkpt lat="44.22123" lon="5.09544">
        <ele>224</ele>
        <time>2020-07-11T10:26:46.605Z</time>
      </trkpt>
      <trkpt lat="44.22131" lon="5.09536">
        <ele>224</ele>
        <time>2020-07-11T10:26:47.605Z</time>
      </trkpt>
      <trkpt lat="44.22138" lon="5.0953">
        <ele>224</ele>
        <time>2020-07-11T10:26:48.604Z</time>
      </trkpt>
      <trkpt lat="44.22144" lon="5.09523">
        <ele>225</ele>
        <time>2020-07-11T10:26:49.604Z</time>
      </trkpt>
      <trkpt lat="44.2215" lon="5.09516">
        <ele>225</ele>
        <time>2020-07-11T10:26:50.605Z</time>
      </trkpt>
      <trkpt lat="44.22157" lon="5.0951">
        <ele>225</ele>
        <time>2020-07-11T10:26:51.605Z</time>
      </trkpt>
      <trkpt lat="44.22162" lon="5.09505">
        <ele>225</ele>
        <time>2020-07-11T10:26:52.604Z</time>
      </trkpt>
      <trkpt lat="44.22169" lon="5.09497">
        <ele>225</ele>
        <time>2020-07-11T10:26:53.604Z</time>
      </trkpt>
      <trkpt lat="44.22175" lon="5.09491">
        <ele>225</ele>
        <time>2020-07-11T10:26:54.605Z</time>
      </trkpt>
      <trkpt lat="44.22181" lon="5.09484">
        <ele>225</ele>
        <time>2020-07-11T10:26:55.605Z</time>
      </trkpt>
      <trkpt lat="44.22187" lon="5.09478">
        <ele>224</ele>
        <time>2020-07-11T10:26:56.605Z</time>
      </trkpt>
      <trkpt lat="44.22193" lon="5.09472">
        <ele>224</ele>
        <time>2020-07-11T10:26:57.605Z</time>
      </trkpt>
      <trkpt lat="44.22199" lon="5.09466">
        <ele>224</ele>
        <time>2020-07-11T10:26:58.605Z</time>
      </trkpt>
      <trkpt lat="44.22204" lon="5.0946">
        <ele>224</ele>
        <time>2020-07-11T10:26:59.604Z</time>
      </trkpt>
      <trkpt lat="44.2221" lon="5.09454">
        <ele>224</ele>
        <time>2020-07-11T10:27:00.604Z</time>
      </trkpt>
      <trkpt lat="44.22215" lon="5.09448">
        <ele>224</ele>
        <time>2020-07-11T10:27:01.605Z</time>
      </trkpt>
      <trkpt lat="44.22221" lon="5.09442">
        <ele>225</ele>
        <time>2020-07-11T10:27:02.604Z</time>
      </trkpt>
      <trkpt lat="44.22227" lon="5.09436">
        <ele>224</ele>
        <time>2020-07-11T10:27:03.605Z</time>
      </trkpt>
      <trkpt lat="44.22232" lon="5.0943">
        <ele>224</ele>
        <time>2020-07-11T10:27:04.605Z</time>
      </trkpt>
      <trkpt lat="44.22238" lon="5.09424">
        <ele>224</ele>
        <time>2020-07-11T10:27:05.605Z</time>
      </trkpt>
      <trkpt lat="44.22243" lon="5.09418">
        <ele>224</ele>
        <time>2020-07-11T10:27:06.605Z</time>
      </trkpt>
      <trkpt lat="44.22249" lon="5.09412">
        <ele>224</ele>
        <time>2020-07-11T10:27:07.605Z</time>
      </trkpt>
      <trkpt lat="44.22255" lon="5.09406">
        <ele>224</ele>
        <time>2020-07-11T10:27:08.605Z</time>
      </trkpt>
      <trkpt lat="44.2226" lon="5.094">
        <ele>224</ele>
        <time>2020-07-11T10:27:09.605Z</time>
      </trkpt>
      <trkpt lat="44.22266" lon="5.09393">
        <ele>224</ele>
        <time>2020-07-11T10:27:10.605Z</time>
      </trkpt>
      <trkpt lat="44.22272" lon="5.09387">
        <ele>223</ele>
        <time>2020-07-11T10:27:11.605Z</time>
      </trkpt>
      <trkpt lat="44.22277" lon="5.09381">
        <ele>223</ele>
        <time>2020-07-11T10:27:12.605Z</time>
      </trkpt>
      <trkpt lat="44.22283" lon="5.09375">
        <ele>223</ele>
        <time>2020-07-11T10:27:13.605Z</time>
      </trkpt>
      <trkpt lat="44.22288" lon="5.09369">
        <ele>223</ele>
        <time>2020-07-11T10:27:14.604Z</time>
      </trkpt>
      <trkpt lat="44.22293" lon="5.09363">
        <ele>223</ele>
        <time>2020-07-11T10:27:15.604Z</time>
      </trkpt>
      <trkpt lat="44.22299" lon="5.09356">
        <ele>223</ele>
        <time>2020-07-11T10:27:16.605Z</time>
      </trkpt>
      <trkpt lat="44.22304" lon="5.0935">
        <ele>223</ele>
        <time>2020-07-11T10:27:17.605Z</time>
      </trkpt>
      <trkpt lat="44.22309" lon="5.09344">
        <ele>223</ele>
        <time>2020-07-11T10:27:18.605Z</time>
      </trkpt>
      <trkpt lat="44.22314" lon="5.09337">
        <ele>223</ele>
        <time>2020-07-11T10:27:19.605Z</time>
      </trkpt>
      <trkpt lat="44.22319" lon="5.0933">
        <ele>223</ele>
        <time>2020-07-11T10:27:20.605Z</time>
      </trkpt>
      <trkpt lat="44.22324" lon="5.09323">
        <ele>224</ele>
        <time>2020-07-11T10:27:21.605Z</time>
      </trkpt>
      <trkpt lat="44.22328" lon="5.09315">
        <ele>224</ele>
        <time>2020-07-11T10:27:22.605Z</time>
      </trkpt>
      <trkpt lat="44.22332" lon="5.09307">
        <ele>224</ele>
        <time>2020-07-11T10:27:23.605Z</time>
      </trkpt>
      <trkpt lat="44.22335" lon="5.093">
        <ele>224</ele>
        <time>2020-07-11T10:27:24.605Z</time>
      </trkpt>
      <trkpt lat="44.22338" lon="5.09292">
        <ele>224</ele>
        <time>2020-07-11T10:27:25.605Z</time>
      </trkpt>
      <trkpt lat="44.22341" lon="5.09285">
        <ele>224</ele>
        <time>2020-07-11T10:27:26.604Z</time>
      </trkpt>
      <trkpt lat="44.22344" lon="5.09275">
        <ele>224</ele>
        <time>2020-07-11T10:27:27.605Z</time>
      </trkpt>
      <trkpt lat="44.22347" lon="5.09267">
        <ele>224</ele>
        <time>2020-07-11T10:27:28.605Z</time>
      </trkpt>
      <trkpt lat="44.2235" lon="5.09258">
        <ele>223</ele>
        <time>2020-07-11T10:27:29.605Z</time>
      </trkpt>
      <trkpt lat="44.22352" lon="5.0925">
        <ele>223</ele>
        <time>2020-07-11T10:27:30.605Z</time>
      </trkpt>
      <trkpt lat="44.22355" lon="5.09241">
        <ele>222</ele>
        <time>2020-07-11T10:27:31.605Z</time>
      </trkpt>
      <trkpt lat="44.22358" lon="5.09232">
        <ele>222</ele>
        <time>2020-07-11T10:27:32.605Z</time>
      </trkpt>
      <trkpt lat="44.22361" lon="5.09223">
        <ele>221</ele>
        <time>2020-07-11T10:27:33.605Z</time>
      </trkpt>
      <trkpt lat="44.22363" lon="5.09214">
        <ele>221</ele>
        <time>2020-07-11T10:27:34.605Z</time>
      </trkpt>
      <trkpt lat="44.22366" lon="5.09206">
        <ele>221</ele>
        <time>2020-07-11T10:27:35.605Z</time>
      </trkpt>
      <trkpt lat="44.22368" lon="5.09199">
        <ele>221</ele>
        <time>2020-07-11T10:27:36.604Z</time>
      </trkpt>
      <trkpt lat="44.2237" lon="5.09189">
        <ele>221</ele>
        <time>2020-07-11T10:27:37.605Z</time>
      </trkpt>
      <trkpt lat="44.22373" lon="5.0918">
        <ele>221</ele>
        <time>2020-07-11T10:27:38.605Z</time>
      </trkpt>
      <trkpt lat="44.22375" lon="5.0917">
        <ele>221</ele>
        <time>2020-07-11T10:27:39.604Z</time>
      </trkpt>
      <trkpt lat="44.22378" lon="5.09161">
        <ele>221</ele>
        <time>2020-07-11T10:27:40.605Z</time>
      </trkpt>
      <trkpt lat="44.22381" lon="5.09151">
        <ele>221</ele>
        <time>2020-07-11T10:27:41.605Z</time>
      </trkpt>
      <trkpt lat="44.22384" lon="5.09142">
        <ele>221</ele>
        <time>2020-07-11T10:27:42.605Z</time>
      </trkpt>
      <trkpt lat="44.22387" lon="5.09132">
        <ele>222</ele>
        <time>2020-07-11T10:27:43.604Z</time>
      </trkpt>
      <trkpt lat="44.2239" lon="5.09123">
        <ele>222</ele>
        <time>2020-07-11T10:27:44.604Z</time>
      </trkpt>
      <trkpt lat="44.22393" lon="5.09113">
        <ele>222</ele>
        <time>2020-07-11T10:27:45.604Z</time>
      </trkpt>
      <trkpt lat="44.22397" lon="5.09104">
        <ele>223</ele>
        <time>2020-07-11T10:27:46.605Z</time>
      </trkpt>
      <trkpt lat="44.22401" lon="5.09095">
        <ele>223</ele>
        <time>2020-07-11T10:27:47.605Z</time>
      </trkpt>
      <trkpt lat="44.22405" lon="5.09086">
        <ele>223</ele>
        <time>2020-07-11T10:27:48.604Z</time>
      </trkpt>
      <trkpt lat="44.22409" lon="5.09078">
        <ele>222</ele>
        <time>2020-07-11T10:27:49.604Z</time>
      </trkpt>
      <trkpt lat="44.22413" lon="5.09069">
        <ele>223</ele>
        <time>2020-07-11T10:27:50.604Z</time>
      </trkpt>
      <trkpt lat="44.22417" lon="5.09061">
        <ele>223</ele>
        <time>2020-07-11T10:27:51.605Z</time>
      </trkpt>
      <trkpt lat="44.22422" lon="5.09053">
        <ele>223</ele>
        <time>2020-07-11T10:27:52.605Z</time>
      </trkpt>
      <trkpt lat="44.22427" lon="5.09045">
        <ele>223</ele>
        <time>2020-07-11T10:27:53.605Z</time>
      </trkpt>
      <trkpt lat="44.22432" lon="5.09037">
        <ele>223</ele>
        <time>2020-07-11T10:27:54.605Z</time>
      </trkpt>
      <trkpt lat="44.22437" lon="5.09029">
        <ele>224</ele>
        <time>2020-07-11T10:27:55.605Z</time>
      </trkpt>
      <trkpt lat="44.22442" lon="5.09021">
        <ele>224</ele>
        <time>2020-07-11T10:27:56.604Z</time>
      </trkpt>
      <trkpt lat="44.22447" lon="5.09013">
        <ele>224</ele>
        <time>2020-07-11T10:27:57.605Z</time>
      </trkpt>
      <trkpt lat="44.22452" lon="5.09006">
        <ele>224</ele>
        <time>2020-07-11T10:27:58.604Z</time>
      </trkpt>
      <trkpt lat="44.22457" lon="5.08999">
        <ele>223</ele>
        <time>2020-07-11T10:27:59.604Z</time>
      </trkpt>
      <trkpt lat="44.22463" lon="5.0899">
        <ele>223</ele>
        <time>2020-07-11T10:28:00.604Z</time>
      </trkpt>
      <trkpt lat="44.22467" lon="5.08983">
        <ele>223</ele>
        <time>2020-07-11T10:28:01.605Z</time>
      </trkpt>
      <trkpt lat="44.22473" lon="5.08974">
        <ele>222</ele>
        <time>2020-07-11T10:28:02.605Z</time>
      </trkpt>
      <trkpt lat="44.22478" lon="5.08967">
        <ele>222</ele>
        <time>2020-07-11T10:28:03.605Z</time>
      </trkpt>
      <trkpt lat="44.22484" lon="5.08959">
        <ele>222</ele>
        <time>2020-07-11T10:28:04.605Z</time>
      </trkpt>
      <trkpt lat="44.22488" lon="5.08953">
        <ele>221</ele>
        <time>2020-07-11T10:28:05.605Z</time>
      </trkpt>
      <trkpt lat="44.22493" lon="5.08945">
        <ele>221</ele>
        <time>2020-07-11T10:28:06.605Z</time>
      </trkpt>
      <trkpt lat="44.225" lon="5.08935">
        <ele>220</ele>
        <time>2020-07-11T10:28:07.605Z</time>
      </trkpt>
      <trkpt lat="44.22506" lon="5.08927">
        <ele>220</ele>
        <time>2020-07-11T10:28:08.604Z</time>
      </trkpt>
      <trkpt lat="44.22512" lon="5.08919">
        <ele>220</ele>
        <time>2020-07-11T10:28:09.604Z</time>
      </trkpt>
      <trkpt lat="44.22518" lon="5.08912">
        <ele>219</ele>
        <time>2020-07-11T10:28:10.605Z</time>
      </trkpt>
      <trkpt lat="44.22525" lon="5.08904">
        <ele>219</ele>
        <time>2020-07-11T10:28:11.605Z</time>
      </trkpt>
      <trkpt lat="44.22532" lon="5.08897">
        <ele>219</ele>
        <time>2020-07-11T10:28:12.605Z</time>
      </trkpt>
      <trkpt lat="44.22539" lon="5.0889">
        <ele>219</ele>
        <time>2020-07-11T10:28:13.604Z</time>
      </trkpt>
      <trkpt lat="44.22546" lon="5.08883">
        <ele>219</ele>
        <time>2020-07-11T10:28:14.604Z</time>
      </trkpt>
      <trkpt lat="44.22554" lon="5.08877">
        <ele>219</ele>
        <time>2020-07-11T10:28:15.605Z</time>
      </trkpt>
      <trkpt lat="44.22562" lon="5.0887">
        <ele>219</ele>
        <time>2020-07-11T10:28:16.605Z</time>
      </trkpt>
      <trkpt lat="44.2257" lon="5.08864">
        <ele>220</ele>
        <time>2020-07-11T10:28:17.605Z</time>
      </trkpt>
      <trkpt lat="44.22578" lon="5.08859">
        <ele>220</ele>
        <time>2020-07-11T10:28:18.605Z</time>
      </trkpt>
      <trkpt lat="44.22586" lon="5.08853">
        <ele>220</ele>
        <time>2020-07-11T10:28:19.605Z</time>
      </trkpt>
      <trkpt lat="44.22593" lon="5.08848">
        <ele>220</ele>
        <time>2020-07-11T10:28:20.605Z</time>
      </trkpt>
      <trkpt lat="44.22603" lon="5.08842">
        <ele>220</ele>
        <time>2020-07-11T10:28:21.605Z</time>
      </trkpt>
      <trkpt lat="44.22612" lon="5.08838">
        <ele>219</ele>
        <time>2020-07-11T10:28:22.604Z</time>
      </trkpt>
      <trkpt lat="44.22621" lon="5.08835">
        <ele>219</ele>
        <time>2020-07-11T10:28:23.605Z</time>
      </trkpt>
      <trkpt lat="44.22631" lon="5.08832">
        <ele>219</ele>
        <time>2020-07-11T10:28:24.604Z</time>
      </trkpt>
      <trkpt lat="44.2264" lon="5.0883">
        <ele>219</ele>
        <time>2020-07-11T10:28:25.605Z</time>
      </trkpt>
      <trkpt lat="44.22648" lon="5.08828">
        <ele>219</ele>
        <time>2020-07-11T10:28:26.605Z</time>
      </trkpt>
      <trkpt lat="44.2266" lon="5.08826">
        <ele>219</ele>
        <time>2020-07-11T10:28:27.605Z</time>
      </trkpt>
      <trkpt lat="44.22669" lon="5.08825">
        <ele>219</ele>
        <time>2020-07-11T10:28:28.605Z</time>
      </trkpt>
      <trkpt lat="44.22679" lon="5.08824">
        <ele>219</ele>
        <time>2020-07-11T10:28:29.605Z</time>
      </trkpt>
      <trkpt lat="44.22689" lon="5.08824">
        <ele>219</ele>
        <time>2020-07-11T10:28:30.605Z</time>
      </trkpt>
      <trkpt lat="44.22699" lon="5.08824">
        <ele>219</ele>
        <time>2020-07-11T10:28:31.605Z</time>
      </trkpt>
      <trkpt lat="44.22708" lon="5.08824">
        <ele>218</ele>
        <time>2020-07-11T10:28:32.604Z</time>
      </trkpt>
      <trkpt lat="44.22718" lon="5.08824">
        <ele>218</ele>
        <time>2020-07-11T10:28:33.605Z</time>
      </trkpt>
      <trkpt lat="44.22728" lon="5.08824">
        <ele>218</ele>
        <time>2020-07-11T10:28:34.605Z</time>
      </trkpt>
      <trkpt lat="44.22738" lon="5.08824">
        <ele>218</ele>
        <time>2020-07-11T10:28:35.605Z</time>
      </trkpt>
      <trkpt lat="44.22749" lon="5.08824">
        <ele>217</ele>
        <time>2020-07-11T10:28:36.605Z</time>
      </trkpt>
      <trkpt lat="44.22759" lon="5.08824">
        <ele>217</ele>
        <time>2020-07-11T10:28:37.604Z</time>
      </trkpt>
      <trkpt lat="44.22769" lon="5.08824">
        <ele>217</ele>
        <time>2020-07-11T10:28:38.605Z</time>
      </trkpt>
      <trkpt lat="44.22779" lon="5.08824">
        <ele>217</ele>
        <time>2020-07-11T10:28:39.605Z</time>
      </trkpt>
      <trkpt lat="44.22789" lon="5.08825">
        <ele>216</ele>
        <time>2020-07-11T10:28:40.605Z</time>
      </trkpt>
      <trkpt lat="44.22799" lon="5.08825">
        <ele>216</ele>
        <time>2020-07-11T10:28:41.604Z</time>
      </trkpt>
      <trkpt lat="44.22809" lon="5.08825">
        <ele>216</ele>
        <time>2020-07-11T10:28:42.605Z</time>
      </trkpt>
      <trkpt lat="44.22818" lon="5.08825">
        <ele>215</ele>
        <time>2020-07-11T10:28:43.605Z</time>
      </trkpt>
      <trkpt lat="44.22828" lon="5.08826">
        <ele>215</ele>
        <time>2020-07-11T10:28:44.604Z</time>
      </trkpt>
      <trkpt lat="44.22837" lon="5.08826">
        <ele>214</ele>
        <time>2020-07-11T10:28:45.605Z</time>
      </trkpt>
      <trkpt lat="44.22846" lon="5.08826">
        <ele>214</ele>
        <time>2020-07-11T10:28:46.605Z</time>
      </trkpt>
      <trkpt lat="44.22854" lon="5.08827">
        <ele>214</ele>
        <time>2020-07-11T10:28:47.605Z</time>
      </trkpt>
      <trkpt lat="44.22863" lon="5.08828">
        <ele>214</ele>
        <time>2020-07-11T10:28:48.605Z</time>
      </trkpt>
      <trkpt lat="44.22871" lon="5.08829">
        <ele>214</ele>
        <time>2020-07-11T10:28:49.605Z</time>
      </trkpt>
      <trkpt lat="44.22879" lon="5.08832">
        <ele>214</ele>
        <time>2020-07-11T10:28:50.605Z</time>
      </trkpt>
      <trkpt lat="44.22888" lon="5.08835">
        <ele>214</ele>
        <time>2020-07-11T10:28:51.605Z</time>
      </trkpt>
      <trkpt lat="44.22896" lon="5.08838">
        <ele>214</ele>
        <time>2020-07-11T10:28:52.605Z</time>
      </trkpt>
      <trkpt lat="44.22903" lon="5.08842">
        <ele>214</ele>
        <time>2020-07-11T10:28:53.605Z</time>
      </trkpt>
      <trkpt lat="44.2291" lon="5.08846">
        <ele>215</ele>
        <time>2020-07-11T10:28:54.605Z</time>
      </trkpt>
      <trkpt lat="44.2292" lon="5.08852">
        <ele>215</ele>
        <time>2020-07-11T10:28:55.605Z</time>
      </trkpt>
      <trkpt lat="44.22928" lon="5.08857">
        <ele>215</ele>
        <time>2020-07-11T10:28:56.605Z</time>
      </trkpt>
      <trkpt lat="44.22936" lon="5.08862">
        <ele>215</ele>
        <time>2020-07-11T10:28:57.605Z</time>
      </trkpt>
      <trkpt lat="44.22945" lon="5.08867">
        <ele>215</ele>
        <time>2020-07-11T10:28:58.605Z</time>
      </trkpt>
      <trkpt lat="44.22953" lon="5.08873">
        <ele>214</ele>
        <time>2020-07-11T10:28:59.605Z</time>
      </trkpt>
      <trkpt lat="44.22961" lon="5.08878">
        <ele>214</ele>
        <time>2020-07-11T10:29:00.605Z</time>
      </trkpt>
      <trkpt lat="44.22969" lon="5.08883">
        <ele>213</ele>
        <time>2020-07-11T10:29:01.605Z</time>
      </trkpt>
      <trkpt lat="44.22978" lon="5.08888">
        <ele>213</ele>
        <time>2020-07-11T10:29:02.605Z</time>
      </trkpt>
      <trkpt lat="44.22986" lon="5.08893">
        <ele>212</ele>
        <time>2020-07-11T10:29:03.605Z</time>
      </trkpt>
      <trkpt lat="44.22993" lon="5.08897">
        <ele>212</ele>
        <time>2020-07-11T10:29:04.605Z</time>
      </trkpt>
      <trkpt lat="44.23003" lon="5.08902">
        <ele>212</ele>
        <time>2020-07-11T10:29:05.605Z</time>
      </trkpt>
      <trkpt lat="44.23011" lon="5.08907">
        <ele>212</ele>
        <time>2020-07-11T10:29:06.605Z</time>
      </trkpt>
      <trkpt lat="44.2302" lon="5.0891">
        <ele>212</ele>
        <time>2020-07-11T10:29:07.605Z</time>
      </trkpt>
      <trkpt lat="44.23028" lon="5.08914">
        <ele>211</ele>
        <time>2020-07-11T10:29:08.605Z</time>
      </trkpt>
      <trkpt lat="44.23037" lon="5.08918">
        <ele>211</ele>
        <time>2020-07-11T10:29:09.605Z</time>
      </trkpt>
      <trkpt lat="44.23046" lon="5.08922">
        <ele>211</ele>
        <time>2020-07-11T10:29:10.605Z</time>
      </trkpt>
      <trkpt lat="44.23055" lon="5.08925">
        <ele>211</ele>
        <time>2020-07-11T10:29:11.605Z</time>
      </trkpt>
      <trkpt lat="44.23063" lon="5.08928">
        <ele>210</ele>
        <time>2020-07-11T10:29:12.605Z</time>
      </trkpt>
      <trkpt lat="44.23072" lon="5.08931">
        <ele>210</ele>
        <time>2020-07-11T10:29:13.605Z</time>
      </trkpt>
      <trkpt lat="44.2308" lon="5.08934">
        <ele>210</ele>
        <time>2020-07-11T10:29:14.605Z</time>
      </trkpt>
      <trkpt lat="44.23089" lon="5.08937">
        <ele>210</ele>
        <time>2020-07-11T10:29:15.604Z</time>
      </trkpt>
      <trkpt lat="44.23097" lon="5.0894">
        <ele>210</ele>
        <time>2020-07-11T10:29:16.605Z</time>
      </trkpt>
      <trkpt lat="44.23106" lon="5.08942">
        <ele>210</ele>
        <time>2020-07-11T10:29:17.605Z</time>
      </trkpt>
      <trkpt lat="44.23115" lon="5.08945">
        <ele>209</ele>
        <time>2020-07-11T10:29:18.605Z</time>
      </trkpt>
      <trkpt lat="44.23123" lon="5.08948">
        <ele>209</ele>
        <time>2020-07-11T10:29:19.605Z</time>
      </trkpt>
      <trkpt lat="44.23131" lon="5.08951">
        <ele>209</ele>
        <time>2020-07-11T10:29:20.605Z</time>
      </trkpt>
      <trkpt lat="44.2314" lon="5.08954">
        <ele>209</ele>
        <time>2020-07-11T10:29:21.605Z</time>
      </trkpt>
      <trkpt lat="44.23148" lon="5.08956">
        <ele>208</ele>
        <time>2020-07-11T10:29:22.605Z</time>
      </trkpt>
      <trkpt lat="44.23157" lon="5.08959">
        <ele>208</ele>
        <time>2020-07-11T10:29:23.605Z</time>
      </trkpt>
      <trkpt lat="44.23165" lon="5.08961">
        <ele>209</ele>
        <time>2020-07-11T10:29:24.605Z</time>
      </trkpt>
      <trkpt lat="44.23173" lon="5.08963">
        <ele>209</ele>
        <time>2020-07-11T10:29:25.604Z</time>
      </trkpt>
      <trkpt lat="44.23182" lon="5.08966">
        <ele>209</ele>
        <time>2020-07-11T10:29:26.605Z</time>
      </trkpt>
      <trkpt lat="44.2319" lon="5.08968">
        <ele>209</ele>
        <time>2020-07-11T10:29:27.605Z</time>
      </trkpt>
      <trkpt lat="44.23199" lon="5.0897">
        <ele>209</ele>
        <time>2020-07-11T10:29:28.605Z</time>
      </trkpt>
      <trkpt lat="44.23208" lon="5.08971">
        <ele>209</ele>
        <time>2020-07-11T10:29:29.605Z</time>
      </trkpt>
      <trkpt lat="44.23216" lon="5.08972">
        <ele>209</ele>
        <time>2020-07-11T10:29:30.605Z</time>
      </trkpt>
      <trkpt lat="44.23225" lon="5.08973">
        <ele>210</ele>
        <time>2020-07-11T10:29:31.605Z</time>
      </trkpt>
      <trkpt lat="44.23234" lon="5.08972">
        <ele>210</ele>
        <time>2020-07-11T10:29:32.604Z</time>
      </trkpt>
      <trkpt lat="44.23243" lon="5.08971">
        <ele>211</ele>
        <time>2020-07-11T10:29:33.605Z</time>
      </trkpt>
      <trkpt lat="44.23252" lon="5.0897">
        <ele>211</ele>
        <time>2020-07-11T10:29:34.604Z</time>
      </trkpt>
      <trkpt lat="44.23261" lon="5.08968">
        <ele>211</ele>
        <time>2020-07-11T10:29:35.605Z</time>
      </trkpt>
      <trkpt lat="44.2327" lon="5.08966">
        <ele>211</ele>
        <time>2020-07-11T10:29:36.605Z</time>
      </trkpt>
      <trkpt lat="44.23278" lon="5.08964">
        <ele>211</ele>
        <time>2020-07-11T10:29:37.605Z</time>
      </trkpt>
      <trkpt lat="44.23287" lon="5.08961">
        <ele>210</ele>
        <time>2020-07-11T10:29:38.605Z</time>
      </trkpt>
      <trkpt lat="44.23295" lon="5.08957">
        <ele>210</ele>
        <time>2020-07-11T10:29:39.604Z</time>
      </trkpt>
      <trkpt lat="44.23303" lon="5.08954">
        <ele>209</ele>
        <time>2020-07-11T10:29:40.605Z</time>
      </trkpt>
      <trkpt lat="44.23311" lon="5.08949">
        <ele>209</ele>
        <time>2020-07-11T10:29:41.605Z</time>
      </trkpt>
      <trkpt lat="44.23319" lon="5.08945">
        <ele>209</ele>
        <time>2020-07-11T10:29:42.605Z</time>
      </trkpt>
      <trkpt lat="44.23327" lon="5.0894">
        <ele>209</ele>
        <time>2020-07-11T10:29:43.605Z</time>
      </trkpt>
      <trkpt lat="44.23335" lon="5.08935">
        <ele>210</ele>
        <time>2020-07-11T10:29:44.605Z</time>
      </trkpt>
      <trkpt lat="44.23342" lon="5.08929">
        <ele>210</ele>
        <time>2020-07-11T10:29:45.605Z</time>
      </trkpt>
      <trkpt lat="44.2335" lon="5.08924">
        <ele>210</ele>
        <time>2020-07-11T10:29:46.605Z</time>
      </trkpt>
      <trkpt lat="44.23357" lon="5.08918">
        <ele>210</ele>
        <time>2020-07-11T10:29:47.605Z</time>
      </trkpt>
      <trkpt lat="44.23364" lon="5.08911">
        <ele>211</ele>
        <time>2020-07-11T10:29:48.604Z</time>
      </trkpt>
      <trkpt lat="44.23371" lon="5.08905">
        <ele>211</ele>
        <time>2020-07-11T10:29:49.605Z</time>
      </trkpt>
      <trkpt lat="44.23378" lon="5.08898">
        <ele>211</ele>
        <time>2020-07-11T10:29:50.605Z</time>
      </trkpt>
      <trkpt lat="44.23384" lon="5.08892">
        <ele>211</ele>
        <time>2020-07-11T10:29:51.604Z</time>
      </trkpt>
      <trkpt lat="44.23391" lon="5.08884">
        <ele>211</ele>
        <time>2020-07-11T10:29:52.604Z</time>
      </trkpt>
      <trkpt lat="44.23397" lon="5.08877">
        <ele>211</ele>
        <time>2020-07-11T10:29:53.604Z</time>
      </trkpt>
      <trkpt lat="44.23403" lon="5.0887">
        <ele>210</ele>
        <time>2020-07-11T10:29:54.604Z</time>
      </trkpt>
      <trkpt lat="44.23409" lon="5.08863">
        <ele>210</ele>
        <time>2020-07-11T10:29:55.604Z</time>
      </trkpt>
      <trkpt lat="44.23415" lon="5.08855">
        <ele>209</ele>
        <time>2020-07-11T10:29:56.605Z</time>
      </trkpt>
      <trkpt lat="44.23421" lon="5.08848">
        <ele>209</ele>
        <time>2020-07-11T10:29:57.605Z</time>
      </trkpt>
      <trkpt lat="44.23427" lon="5.08841">
        <ele>209</ele>
        <time>2020-07-11T10:29:58.605Z</time>
      </trkpt>
      <trkpt lat="44.23432" lon="5.08833">
        <ele>209</ele>
        <time>2020-07-11T10:29:59.605Z</time>
      </trkpt>
      <trkpt lat="44.23438" lon="5.08826">
        <ele>209</ele>
        <time>2020-07-11T10:30:00.605Z</time>
      </trkpt>
      <trkpt lat="44.23444" lon="5.08818">
        <ele>209</ele>
        <time>2020-07-11T10:30:01.605Z</time>
      </trkpt>
      <trkpt lat="44.2345" lon="5.08811">
        <ele>209</ele>
        <time>2020-07-11T10:30:02.605Z</time>
      </trkpt>
      <trkpt lat="44.23456" lon="5.08805">
        <ele>209</ele>
        <time>2020-07-11T10:30:03.604Z</time>
      </trkpt>
      <trkpt lat="44.23462" lon="5.08798">
        <ele>209</ele>
        <time>2020-07-11T10:30:04.605Z</time>
      </trkpt>
      <trkpt lat="44.23468" lon="5.08791">
        <ele>209</ele>
        <time>2020-07-11T10:30:05.605Z</time>
      </trkpt>
      <trkpt lat="44.23474" lon="5.08785">
        <ele>209</ele>
        <time>2020-07-11T10:30:06.604Z</time>
      </trkpt>
      <trkpt lat="44.2348" lon="5.08778">
        <ele>209</ele>
        <time>2020-07-11T10:30:07.605Z</time>
      </trkpt>
      <trkpt lat="44.23485" lon="5.08772">
        <ele>209</ele>
        <time>2020-07-11T10:30:08.605Z</time>
      </trkpt>
      <trkpt lat="44.23491" lon="5.08765">
        <ele>209</ele>
        <time>2020-07-11T10:30:09.605Z</time>
      </trkpt>
      <trkpt lat="44.23497" lon="5.08759">
        <ele>209</ele>
        <time>2020-07-11T10:30:10.604Z</time>
      </trkpt>
      <trkpt lat="44.23503" lon="5.08753">
        <ele>209</ele>
        <time>2020-07-11T10:30:11.605Z</time>
      </trkpt>
      <trkpt lat="44.23509" lon="5.08746">
        <ele>208</ele>
        <time>2020-07-11T10:30:12.605Z</time>
      </trkpt>
      <trkpt lat="44.23515" lon="5.0874">
        <ele>208</ele>
        <time>2020-07-11T10:30:13.605Z</time>
      </trkpt>
      <trkpt lat="44.23521" lon="5.08733">
        <ele>208</ele>
        <time>2020-07-11T10:30:14.605Z</time>
      </trkpt>
      <trkpt lat="44.23527" lon="5.08727">
        <ele>208</ele>
        <time>2020-07-11T10:30:15.604Z</time>
      </trkpt>
      <trkpt lat="44.23533" lon="5.0872">
        <ele>208</ele>
        <time>2020-07-11T10:30:16.605Z</time>
      </trkpt>
      <trkpt lat="44.23539" lon="5.08714">
        <ele>208</ele>
        <time>2020-07-11T10:30:17.605Z</time>
      </trkpt>
      <trkpt lat="44.23545" lon="5.08708">
        <ele>208</ele>
        <time>2020-07-11T10:30:18.605Z</time>
      </trkpt>
      <trkpt lat="44.23551" lon="5.08702">
        <ele>208</ele>
        <time>2020-07-11T10:30:19.604Z</time>
      </trkpt>
      <trkpt lat="44.23557" lon="5.08696">
        <ele>207</ele>
        <time>2020-07-11T10:30:20.604Z</time>
      </trkpt>
      <trkpt lat="44.23563" lon="5.08691">
        <ele>207</ele>
        <time>2020-07-11T10:30:21.605Z</time>
      </trkpt>
      <trkpt lat="44.23569" lon="5.08686">
        <ele>207</ele>
        <time>2020-07-11T10:30:22.605Z</time>
      </trkpt>
      <trkpt lat="44.23575" lon="5.08681">
        <ele>206</ele>
        <time>2020-07-11T10:30:23.605Z</time>
      </trkpt>
      <trkpt lat="44.23582" lon="5.08677">
        <ele>206</ele>
        <time>2020-07-11T10:30:24.604Z</time>
      </trkpt>
      <trkpt lat="44.23588" lon="5.08672">
        <ele>207</ele>
        <time>2020-07-11T10:30:25.605Z</time>
      </trkpt>
      <trkpt lat="44.23595" lon="5.08668">
        <ele>207</ele>
        <time>2020-07-11T10:30:26.605Z</time>
      </trkpt>
      <trkpt lat="44.23601" lon="5.08665">
        <ele>207</ele>
        <time>2020-07-11T10:30:27.605Z</time>
      </trkpt>
      <trkpt lat="44.23608" lon="5.08662">
        <ele>207</ele>
        <time>2020-07-11T10:30:28.605Z</time>
      </trkpt>
      <trkpt lat="44.23615" lon="5.08659">
        <ele>207</ele>
        <time>2020-07-11T10:30:29.605Z</time>
      </trkpt>
      <trkpt lat="44.23622" lon="5.08657">
        <ele>207</ele>
        <time>2020-07-11T10:30:30.605Z</time>
      </trkpt>
      <trkpt lat="44.2363" lon="5.08655">
        <ele>207</ele>
        <time>2020-07-11T10:30:31.605Z</time>
      </trkpt>
      <trkpt lat="44.23637" lon="5.08654">
        <ele>207</ele>
        <time>2020-07-11T10:30:32.605Z</time>
      </trkpt>
      <trkpt lat="44.23644" lon="5.08652">
        <ele>207</ele>
        <time>2020-07-11T10:30:33.604Z</time>
      </trkpt>
      <trkpt lat="44.2365" lon="5.08652">
        <ele>206</ele>
        <time>2020-07-11T10:30:34.604Z</time>
      </trkpt>
      <trkpt lat="44.23659" lon="5.08651">
        <ele>207</ele>
        <time>2020-07-11T10:30:35.605Z</time>
      </trkpt>
      <trkpt lat="44.23667" lon="5.08651">
        <ele>207</ele>
        <time>2020-07-11T10:30:36.605Z</time>
      </trkpt>
      <trkpt lat="44.23674" lon="5.08651">
        <ele>207</ele>
        <time>2020-07-11T10:30:37.604Z</time>
      </trkpt>
      <trkpt lat="44.23681" lon="5.08651">
        <ele>207</ele>
        <time>2020-07-11T10:30:38.604Z</time>
      </trkpt>
      <trkpt lat="44.23688" lon="5.08652">
        <ele>208</ele>
        <time>2020-07-11T10:30:39.605Z</time>
      </trkpt>
      <trkpt lat="44.23695" lon="5.08652">
        <ele>208</ele>
        <time>2020-07-11T10:30:40.605Z</time>
      </trkpt>
      <trkpt lat="44.23703" lon="5.08653">
        <ele>208</ele>
        <time>2020-07-11T10:30:41.605Z</time>
      </trkpt>
      <trkpt lat="44.2371" lon="5.08654">
        <ele>208</ele>
        <time>2020-07-11T10:30:42.604Z</time>
      </trkpt>
      <trkpt lat="44.23717" lon="5.08654">
        <ele>208</ele>
        <time>2020-07-11T10:30:43.605Z</time>
      </trkpt>
      <trkpt lat="44.23724" lon="5.08655">
        <ele>208</ele>
        <time>2020-07-11T10:30:44.604Z</time>
      </trkpt>
      <trkpt lat="44.23731" lon="5.08656">
        <ele>208</ele>
        <time>2020-07-11T10:30:45.604Z</time>
      </trkpt>
      <trkpt lat="44.23738" lon="5.08656">
        <ele>208</ele>
        <time>2020-07-11T10:30:46.605Z</time>
      </trkpt>
      <trkpt lat="44.23745" lon="5.08657">
        <ele>208</ele>
        <time>2020-07-11T10:30:47.605Z</time>
      </trkpt>
      <trkpt lat="44.23752" lon="5.08658">
        <ele>207</ele>
        <time>2020-07-11T10:30:48.605Z</time>
      </trkpt>
      <trkpt lat="44.23759" lon="5.08658">
        <ele>208</ele>
        <time>2020-07-11T10:30:49.605Z</time>
      </trkpt>
      <trkpt lat="44.23765" lon="5.08659">
        <ele>208</ele>
        <time>2020-07-11T10:30:50.605Z</time>
      </trkpt>
      <trkpt lat="44.23772" lon="5.0866">
        <ele>208</ele>
        <time>2020-07-11T10:30:51.605Z</time>
      </trkpt>
      <trkpt lat="44.23779" lon="5.08661">
        <ele>208</ele>
        <time>2020-07-11T10:30:52.605Z</time>
      </trkpt>
      <trkpt lat="44.23784" lon="5.08661">
        <ele>208</ele>
        <time>2020-07-11T10:30:53.605Z</time>
      </trkpt>
      <trkpt lat="44.23792" lon="5.08662">
        <ele>208</ele>
        <time>2020-07-11T10:30:54.605Z</time>
      </trkpt>
      <trkpt lat="44.23799" lon="5.08662">
        <ele>208</ele>
        <time>2020-07-11T10:30:55.605Z</time>
      </trkpt>
      <trkpt lat="44.23806" lon="5.08663">
        <ele>208</ele>
        <time>2020-07-11T10:30:56.604Z</time>
      </trkpt>
      <trkpt lat="44.23812" lon="5.08664">
        <ele>208</ele>
        <time>2020-07-11T10:30:57.605Z</time>
      </trkpt>
      <trkpt lat="44.23819" lon="5.08665">
        <ele>208</ele>
        <time>2020-07-11T10:30:58.604Z</time>
      </trkpt>
      <trkpt lat="44.23826" lon="5.08665">
        <ele>208</ele>
        <time>2020-07-11T10:30:59.604Z</time>
      </trkpt>
      <trkpt lat="44.23832" lon="5.08666">
        <ele>208</ele>
        <time>2020-07-11T10:31:00.605Z</time>
      </trkpt>
      <trkpt lat="44.23839" lon="5.08666">
        <ele>208</ele>
        <time>2020-07-11T10:31:01.605Z</time>
      </trkpt>
      <trkpt lat="44.23846" lon="5.08667">
        <ele>208</ele>
        <time>2020-07-11T10:31:02.605Z</time>
      </trkpt>
      <trkpt lat="44.23852" lon="5.08668">
        <ele>208</ele>
        <time>2020-07-11T10:31:03.604Z</time>
      </trkpt>
      <trkpt lat="44.23859" lon="5.08668">
        <ele>209</ele>
        <time>2020-07-11T10:31:04.605Z</time>
      </trkpt>
      <trkpt lat="44.23865" lon="5.08669">
        <ele>209</ele>
        <time>2020-07-11T10:31:05.604Z</time>
      </trkpt>
      <trkpt lat="44.23872" lon="5.08669">
        <ele>210</ele>
        <time>2020-07-11T10:31:06.605Z</time>
      </trkpt>
      <trkpt lat="44.23879" lon="5.0867">
        <ele>210</ele>
        <time>2020-07-11T10:31:07.605Z</time>
      </trkpt>
      <trkpt lat="44.23886" lon="5.0867">
        <ele>210</ele>
        <time>2020-07-11T10:31:08.605Z</time>
      </trkpt>
      <trkpt lat="44.23892" lon="5.0867">
        <ele>210</ele>
        <time>2020-07-11T10:31:09.605Z</time>
      </trkpt>
      <trkpt lat="44.23899" lon="5.0867">
        <ele>210</ele>
        <time>2020-07-11T10:31:10.605Z</time>
      </trkpt>
      <trkpt lat="44.23905" lon="5.0867">
        <ele>210</ele>
        <time>2020-07-11T10:31:11.605Z</time>
      </trkpt>
      <trkpt lat="44.23912" lon="5.0867">
        <ele>210</ele>
        <time>2020-07-11T10:31:12.605Z</time>
      </trkpt>
      <trkpt lat="44.23918" lon="5.08669">
        <ele>210</ele>
        <time>2020-07-11T10:31:13.605Z</time>
      </trkpt>
      <trkpt lat="44.23924" lon="5.08668">
        <ele>210</ele>
        <time>2020-07-11T10:31:14.604Z</time>
      </trkpt>
      <trkpt lat="44.2393" lon="5.08667">
        <ele>210</ele>
        <time>2020-07-11T10:31:15.605Z</time>
      </trkpt>
      <trkpt lat="44.23936" lon="5.08666">
        <ele>210</ele>
        <time>2020-07-11T10:31:16.605Z</time>
      </trkpt>
      <trkpt lat="44.23941" lon="5.08665">
        <ele>210</ele>
        <time>2020-07-11T10:31:17.604Z</time>
      </trkpt>
      <trkpt lat="44.23946" lon="5.08665">
        <ele>210</ele>
        <time>2020-07-11T10:31:18.605Z</time>
      </trkpt>
      <trkpt lat="44.23951" lon="5.08667">
        <ele>211</ele>
        <time>2020-07-11T10:31:19.605Z</time>
      </trkpt>
      <trkpt lat="44.23955" lon="5.08669">
        <ele>211</ele>
        <time>2020-07-11T10:31:20.605Z</time>
      </trkpt>
      <trkpt lat="44.23959" lon="5.08674">
        <ele>211</ele>
        <time>2020-07-11T10:31:21.604Z</time>
      </trkpt>
      <trkpt lat="44.23962" lon="5.0868">
        <ele>212</ele>
        <time>2020-07-11T10:31:22.604Z</time>
      </trkpt>
      <trkpt lat="44.23964" lon="5.08687">
        <ele>212</ele>
        <time>2020-07-11T10:31:23.605Z</time>
      </trkpt>
      <trkpt lat="44.23965" lon="5.08694">
        <ele>212</ele>
        <time>2020-07-11T10:31:24.605Z</time>
      </trkpt>
      <trkpt lat="44.23966" lon="5.08702">
        <ele>212</ele>
        <time>2020-07-11T10:31:25.604Z</time>
      </trkpt>
      <trkpt lat="44.23967" lon="5.08708">
        <ele>212</ele>
        <time>2020-07-11T10:31:26.604Z</time>
      </trkpt>
      <trkpt lat="44.23968" lon="5.08718">
        <ele>213</ele>
        <time>2020-07-11T10:31:27.605Z</time>
      </trkpt>
      <trkpt lat="44.23968" lon="5.08726">
        <ele>212</ele>
        <time>2020-07-11T10:31:28.605Z</time>
      </trkpt>
      <trkpt lat="44.23968" lon="5.08734">
        <ele>213</ele>
        <time>2020-07-11T10:31:29.605Z</time>
      </trkpt>
      <trkpt lat="44.23969" lon="5.08742">
        <ele>212</ele>
        <time>2020-07-11T10:31:30.605Z</time>
      </trkpt>
      <trkpt lat="44.2397" lon="5.08751">
        <ele>212</ele>
        <time>2020-07-11T10:31:31.605Z</time>
      </trkpt>
      <trkpt lat="44.23971" lon="5.0876">
        <ele>212</ele>
        <time>2020-07-11T10:31:32.604Z</time>
      </trkpt>
      <trkpt lat="44.23972" lon="5.08769">
        <ele>211</ele>
        <time>2020-07-11T10:31:33.605Z</time>
      </trkpt>
      <trkpt lat="44.23973" lon="5.08779">
        <ele>211</ele>
        <time>2020-07-11T10:31:34.605Z</time>
      </trkpt>
      <trkpt lat="44.23973" lon="5.08789">
        <ele>210</ele>
        <time>2020-07-11T10:31:35.605Z</time>
      </trkpt>
      <trkpt lat="44.23975" lon="5.08799">
        <ele>209</ele>
        <time>2020-07-11T10:31:36.605Z</time>
      </trkpt>
      <trkpt lat="44.23976" lon="5.08809">
        <ele>209</ele>
        <time>2020-07-11T10:31:37.605Z</time>
      </trkpt>
      <trkpt lat="44.23978" lon="5.0882">
        <ele>209</ele>
        <time>2020-07-11T10:31:38.605Z</time>
      </trkpt>
      <trkpt lat="44.23979" lon="5.0883">
        <ele>208</ele>
        <time>2020-07-11T10:31:39.604Z</time>
      </trkpt>
      <trkpt lat="44.23981" lon="5.08841">
        <ele>208</ele>
        <time>2020-07-11T10:31:40.605Z</time>
      </trkpt>
      <trkpt lat="44.23982" lon="5.08851">
        <ele>207</ele>
        <time>2020-07-11T10:31:41.604Z</time>
      </trkpt>
      <trkpt lat="44.23984" lon="5.08861">
        <ele>207</ele>
        <time>2020-07-11T10:31:42.605Z</time>
      </trkpt>
      <trkpt lat="44.23986" lon="5.08872">
        <ele>208</ele>
        <time>2020-07-11T10:31:43.604Z</time>
      </trkpt>
      <trkpt lat="44.23989" lon="5.08882">
        <ele>208</ele>
        <time>2020-07-11T10:31:44.605Z</time>
      </trkpt>
      <trkpt lat="44.23993" lon="5.0889">
        <ele>209</ele>
        <time>2020-07-11T10:31:45.604Z</time>
      </trkpt>
      <trkpt lat="44.23998" lon="5.08897">
        <ele>210</ele>
        <time>2020-07-11T10:31:46.604Z</time>
      </trkpt>
      <trkpt lat="44.24004" lon="5.08902">
        <ele>210</ele>
        <time>2020-07-11T10:31:47.605Z</time>
      </trkpt>
      <trkpt lat="44.24011" lon="5.08904">
        <ele>210</ele>
        <time>2020-07-11T10:31:48.604Z</time>
      </trkpt>
      <trkpt lat="44.24018" lon="5.08906">
        <ele>210</ele>
        <time>2020-07-11T10:31:49.605Z</time>
      </trkpt>
      <trkpt lat="44.24025" lon="5.08907">
        <ele>210</ele>
        <time>2020-07-11T10:31:50.604Z</time>
      </trkpt>
      <trkpt lat="44.24032" lon="5.08908">
        <ele>211</ele>
        <time>2020-07-11T10:31:51.605Z</time>
      </trkpt>
      <trkpt lat="44.24039" lon="5.08908">
        <ele>211</ele>
        <time>2020-07-11T10:31:52.605Z</time>
      </trkpt>
      <trkpt lat="44.24045" lon="5.08907">
        <ele>211</ele>
        <time>2020-07-11T10:31:53.605Z</time>
      </trkpt>
      <trkpt lat="44.24052" lon="5.08907">
        <ele>210</ele>
        <time>2020-07-11T10:31:54.605Z</time>
      </trkpt>
      <trkpt lat="44.24059" lon="5.08907">
        <ele>210</ele>
        <time>2020-07-11T10:31:55.604Z</time>
      </trkpt>
      <trkpt lat="44.24066" lon="5.08906">
        <ele>210</ele>
        <time>2020-07-11T10:31:56.604Z</time>
      </trkpt>
      <trkpt lat="44.24072" lon="5.08905">
        <ele>211</ele>
        <time>2020-07-11T10:31:57.605Z</time>
      </trkpt>
      <trkpt lat="44.24079" lon="5.08904">
        <ele>211</ele>
        <time>2020-07-11T10:31:58.605Z</time>
      </trkpt>
      <trkpt lat="44.24085" lon="5.08903">
        <ele>211</ele>
        <time>2020-07-11T10:31:59.604Z</time>
      </trkpt>
      <trkpt lat="44.24091" lon="5.08902">
        <ele>212</ele>
        <time>2020-07-11T10:32:00.604Z</time>
      </trkpt>
      <trkpt lat="44.24097" lon="5.08901">
        <ele>212</ele>
        <time>2020-07-11T10:32:01.604Z</time>
      </trkpt>
      <trkpt lat="44.24104" lon="5.089">
        <ele>212</ele>
        <time>2020-07-11T10:32:02.605Z</time>
      </trkpt>
      <trkpt lat="44.2411" lon="5.08899">
        <ele>212</ele>
        <time>2020-07-11T10:32:03.605Z</time>
      </trkpt>
      <trkpt lat="44.24117" lon="5.08898">
        <ele>212</ele>
        <time>2020-07-11T10:32:04.605Z</time>
      </trkpt>
      <trkpt lat="44.24123" lon="5.08897">
        <ele>212</ele>
        <time>2020-07-11T10:32:05.604Z</time>
      </trkpt>
      <trkpt lat="44.24129" lon="5.08896">
        <ele>212</ele>
        <time>2020-07-11T10:32:06.604Z</time>
      </trkpt>
      <trkpt lat="44.24135" lon="5.08896">
        <ele>212</ele>
        <time>2020-07-11T10:32:07.605Z</time>
      </trkpt>
      <trkpt lat="44.24141" lon="5.08895">
        <ele>212</ele>
        <time>2020-07-11T10:32:08.605Z</time>
      </trkpt>
      <trkpt lat="44.24147" lon="5.08895">
        <ele>212</ele>
        <time>2020-07-11T10:32:09.605Z</time>
      </trkpt>
      <trkpt lat="44.24153" lon="5.08894">
        <ele>212</ele>
        <time>2020-07-11T10:32:10.605Z</time>
      </trkpt>
      <trkpt lat="44.24159" lon="5.08893">
        <ele>212</ele>
        <time>2020-07-11T10:32:11.605Z</time>
      </trkpt>
      <trkpt lat="44.24165" lon="5.08892">
        <ele>212</ele>
        <time>2020-07-11T10:32:12.605Z</time>
      </trkpt>
      <trkpt lat="44.24172" lon="5.08892">
        <ele>213</ele>
        <time>2020-07-11T10:32:13.604Z</time>
      </trkpt>
      <trkpt lat="44.24178" lon="5.08891">
        <ele>213</ele>
        <time>2020-07-11T10:32:14.605Z</time>
      </trkpt>
      <trkpt lat="44.24184" lon="5.0889">
        <ele>213</ele>
        <time>2020-07-11T10:32:15.605Z</time>
      </trkpt>
      <trkpt lat="44.2419" lon="5.0889">
        <ele>213</ele>
        <time>2020-07-11T10:32:16.605Z</time>
      </trkpt>
      <trkpt lat="44.24196" lon="5.08889">
        <ele>213</ele>
        <time>2020-07-11T10:32:17.605Z</time>
      </trkpt>
      <trkpt lat="44.24202" lon="5.0889">
        <ele>213</ele>
        <time>2020-07-11T10:32:18.605Z</time>
      </trkpt>
      <trkpt lat="44.24208" lon="5.08891">
        <ele>214</ele>
        <time>2020-07-11T10:32:19.605Z</time>
      </trkpt>
      <trkpt lat="44.24214" lon="5.08892">
        <ele>214</ele>
        <time>2020-07-11T10:32:20.605Z</time>
      </trkpt>
      <trkpt lat="44.24219" lon="5.08894">
        <ele>214</ele>
        <time>2020-07-11T10:32:21.604Z</time>
      </trkpt>
      <trkpt lat="44.24224" lon="5.08896">
        <ele>215</ele>
        <time>2020-07-11T10:32:22.605Z</time>
      </trkpt>
      <trkpt lat="44.2423" lon="5.08899">
        <ele>215</ele>
        <time>2020-07-11T10:32:23.605Z</time>
      </trkpt>
      <trkpt lat="44.24235" lon="5.08901">
        <ele>215</ele>
        <time>2020-07-11T10:32:24.605Z</time>
      </trkpt>
      <trkpt lat="44.24241" lon="5.08903">
        <ele>215</ele>
        <time>2020-07-11T10:32:25.605Z</time>
      </trkpt>
      <trkpt lat="44.24246" lon="5.08905">
        <ele>215</ele>
        <time>2020-07-11T10:32:26.605Z</time>
      </trkpt>
      <trkpt lat="44.24252" lon="5.08907">
        <ele>215</ele>
        <time>2020-07-11T10:32:27.605Z</time>
      </trkpt>
      <trkpt lat="44.24258" lon="5.08909">
        <ele>215</ele>
        <time>2020-07-11T10:32:28.605Z</time>
      </trkpt>
      <trkpt lat="44.24263" lon="5.0891">
        <ele>216</ele>
        <time>2020-07-11T10:32:29.605Z</time>
      </trkpt>
      <trkpt lat="44.24269" lon="5.08911">
        <ele>216</ele>
        <time>2020-07-11T10:32:30.605Z</time>
      </trkpt>
      <trkpt lat="44.24274" lon="5.08912">
        <ele>217</ele>
        <time>2020-07-11T10:32:31.605Z</time>
      </trkpt>
      <trkpt lat="44.2428" lon="5.08913">
        <ele>217</ele>
        <time>2020-07-11T10:32:32.605Z</time>
      </trkpt>
      <trkpt lat="44.24286" lon="5.08914">
        <ele>217</ele>
        <time>2020-07-11T10:32:33.605Z</time>
      </trkpt>
      <trkpt lat="44.24292" lon="5.08914">
        <ele>217</ele>
        <time>2020-07-11T10:32:34.604Z</time>
      </trkpt>
      <trkpt lat="44.24298" lon="5.08916">
        <ele>217</ele>
        <time>2020-07-11T10:32:35.605Z</time>
      </trkpt>
      <trkpt lat="44.24304" lon="5.08916">
        <ele>217</ele>
        <time>2020-07-11T10:32:36.605Z</time>
      </trkpt>
      <trkpt lat="44.24309" lon="5.08917">
        <ele>218</ele>
        <time>2020-07-11T10:32:37.605Z</time>
      </trkpt>
      <trkpt lat="44.24315" lon="5.08918">
        <ele>218</ele>
        <time>2020-07-11T10:32:38.605Z</time>
      </trkpt>
      <trkpt lat="44.24321" lon="5.08919">
        <ele>218</ele>
        <time>2020-07-11T10:32:39.605Z</time>
      </trkpt>
      <trkpt lat="44.24327" lon="5.0892">
        <ele>218</ele>
        <time>2020-07-11T10:32:40.605Z</time>
      </trkpt>
      <trkpt lat="44.24333" lon="5.08921">
        <ele>218</ele>
        <time>2020-07-11T10:32:41.605Z</time>
      </trkpt>
      <trkpt lat="44.24339" lon="5.08922">
        <ele>218</ele>
        <time>2020-07-11T10:32:42.605Z</time>
      </trkpt>
      <trkpt lat="44.24344" lon="5.08923">
        <ele>218</ele>
        <time>2020-07-11T10:32:43.604Z</time>
      </trkpt>
      <trkpt lat="44.2435" lon="5.08924">
        <ele>219</ele>
        <time>2020-07-11T10:32:44.604Z</time>
      </trkpt>
      <trkpt lat="44.24356" lon="5.08925">
        <ele>219</ele>
        <time>2020-07-11T10:32:45.604Z</time>
      </trkpt>
      <trkpt lat="44.24362" lon="5.08926">
        <ele>219</ele>
        <time>2020-07-11T10:32:46.604Z</time>
      </trkpt>
      <trkpt lat="44.24368" lon="5.08926">
        <ele>219</ele>
        <time>2020-07-11T10:32:47.604Z</time>
      </trkpt>
      <trkpt lat="44.24374" lon="5.08927">
        <ele>219</ele>
        <time>2020-07-11T10:32:48.605Z</time>
      </trkpt>
      <trkpt lat="44.2438" lon="5.08928">
        <ele>219</ele>
        <time>2020-07-11T10:32:49.605Z</time>
      </trkpt>
      <trkpt lat="44.24386" lon="5.08929">
        <ele>220</ele>
        <time>2020-07-11T10:32:50.605Z</time>
      </trkpt>
      <trkpt lat="44.24392" lon="5.08929">
        <ele>220</ele>
        <time>2020-07-11T10:32:51.605Z</time>
      </trkpt>
      <trkpt lat="44.24397" lon="5.0893">
        <ele>220</ele>
        <time>2020-07-11T10:32:52.605Z</time>
      </trkpt>
      <trkpt lat="44.24403" lon="5.08931">
        <ele>220</ele>
        <time>2020-07-11T10:32:53.605Z</time>
      </trkpt>
      <trkpt lat="44.24408" lon="5.08931">
        <ele>220</ele>
        <time>2020-07-11T10:32:54.605Z</time>
      </trkpt>
      <trkpt lat="44.24414" lon="5.08932">
        <ele>220</ele>
        <time>2020-07-11T10:32:55.605Z</time>
      </trkpt>
      <trkpt lat="44.24419" lon="5.08933">
        <ele>220</ele>
        <time>2020-07-11T10:32:56.604Z</time>
      </trkpt>
      <trkpt lat="44.24423" lon="5.08934">
        <ele>220</ele>
        <time>2020-07-11T10:32:57.605Z</time>
      </trkpt>
      <trkpt lat="44.24429" lon="5.08935">
        <ele>221</ele>
        <time>2020-07-11T10:32:58.605Z</time>
      </trkpt>
      <trkpt lat="44.24434" lon="5.08936">
        <ele>221</ele>
        <time>2020-07-11T10:32:59.605Z</time>
      </trkpt>
      <trkpt lat="44.24438" lon="5.08936">
        <ele>221</ele>
        <time>2020-07-11T10:33:00.604Z</time>
      </trkpt>
      <trkpt lat="44.24442" lon="5.08937">
        <ele>222</ele>
        <time>2020-07-11T10:33:01.604Z</time>
      </trkpt>
      <trkpt lat="44.24447" lon="5.08938">
        <ele>222</ele>
        <time>2020-07-11T10:33:02.605Z</time>
      </trkpt>
      <trkpt lat="44.24452" lon="5.08938">
        <ele>222</ele>
        <time>2020-07-11T10:33:03.605Z</time>
      </trkpt>
      <trkpt lat="44.24455" lon="5.08939">
        <ele>222</ele>
        <time>2020-07-11T10:33:04.605Z</time>
      </trkpt>
      <trkpt lat="44.24459" lon="5.08941">
        <ele>222</ele>
        <time>2020-07-11T10:33:05.604Z</time>
      </trkpt>
      <trkpt lat="44.24463" lon="5.08942">
        <ele>223</ele>
        <time>2020-07-11T10:33:06.604Z</time>
      </trkpt>
      <trkpt lat="44.24466" lon="5.08945">
        <ele>223</ele>
        <time>2020-07-11T10:33:07.604Z</time>
      </trkpt>
      <trkpt lat="44.24469" lon="5.0895">
        <ele>223</ele>
        <time>2020-07-11T10:33:08.605Z</time>
      </trkpt>
      <trkpt lat="44.24471" lon="5.08954">
        <ele>223</ele>
        <time>2020-07-11T10:33:09.604Z</time>
      </trkpt>
      <trkpt lat="44.24473" lon="5.0896">
        <ele>223</ele>
        <time>2020-07-11T10:33:10.605Z</time>
      </trkpt>
      <trkpt lat="44.24475" lon="5.08967">
        <ele>223</ele>
        <time>2020-07-11T10:33:11.604Z</time>
      </trkpt>
      <trkpt lat="44.24477" lon="5.08974">
        <ele>224</ele>
        <time>2020-07-11T10:33:12.605Z</time>
      </trkpt>
      <trkpt lat="44.24479" lon="5.08982">
        <ele>224</ele>
        <time>2020-07-11T10:33:13.605Z</time>
      </trkpt>
      <trkpt lat="44.24481" lon="5.08989">
        <ele>224</ele>
        <time>2020-07-11T10:33:14.605Z</time>
      </trkpt>
      <trkpt lat="44.24483" lon="5.08997">
        <ele>225</ele>
        <time>2020-07-11T10:33:15.605Z</time>
      </trkpt>
      <trkpt lat="44.24486" lon="5.09005">
        <ele>225</ele>
        <time>2020-07-11T10:33:16.605Z</time>
      </trkpt>
      <trkpt lat="44.24488" lon="5.09013">
        <ele>226</ele>
        <time>2020-07-11T10:33:17.604Z</time>
      </trkpt>
      <trkpt lat="44.2449" lon="5.09021">
        <ele>226</ele>
        <time>2020-07-11T10:33:18.605Z</time>
      </trkpt>
      <trkpt lat="44.24492" lon="5.09028">
        <ele>226</ele>
        <time>2020-07-11T10:33:19.605Z</time>
      </trkpt>
      <trkpt lat="44.24493" lon="5.09034">
        <ele>226</ele>
        <time>2020-07-11T10:33:20.605Z</time>
      </trkpt>
      <trkpt lat="44.24496" lon="5.09042">
        <ele>226</ele>
        <time>2020-07-11T10:33:21.605Z</time>
      </trkpt>
      <trkpt lat="44.24498" lon="5.09049">
        <ele>226</ele>
        <time>2020-07-11T10:33:22.605Z</time>
      </trkpt>
      <trkpt lat="44.24501" lon="5.09058">
        <ele>227</ele>
        <time>2020-07-11T10:33:23.605Z</time>
      </trkpt>
      <trkpt lat="44.24503" lon="5.09065">
        <ele>227</ele>
        <time>2020-07-11T10:33:24.605Z</time>
      </trkpt>
      <trkpt lat="44.24505" lon="5.0907">
        <ele>227</ele>
        <time>2020-07-11T10:33:25.604Z</time>
      </trkpt>
      <trkpt lat="44.24507" lon="5.09077">
        <ele>227</ele>
        <time>2020-07-11T10:33:26.605Z</time>
      </trkpt>
      <trkpt lat="44.24509" lon="5.09084">
        <ele>228</ele>
        <time>2020-07-11T10:33:27.604Z</time>
      </trkpt>
      <trkpt lat="44.24512" lon="5.0909">
        <ele>228</ele>
        <time>2020-07-11T10:33:28.605Z</time>
      </trkpt>
      <trkpt lat="44.24516" lon="5.09098">
        <ele>229</ele>
        <time>2020-07-11T10:33:29.605Z</time>
      </trkpt>
      <trkpt lat="44.24518" lon="5.09102">
        <ele>229</ele>
        <time>2020-07-11T10:33:30.604Z</time>
      </trkpt>
      <trkpt lat="44.24521" lon="5.09108">
        <ele>230</ele>
        <time>2020-07-11T10:33:31.605Z</time>
      </trkpt>
      <trkpt lat="44.24525" lon="5.09115">
        <ele>230</ele>
        <time>2020-07-11T10:33:32.605Z</time>
      </trkpt>
      <trkpt lat="44.24529" lon="5.0912">
        <ele>230</ele>
        <time>2020-07-11T10:33:33.605Z</time>
      </trkpt>
      <trkpt lat="44.24533" lon="5.09124">
        <ele>230</ele>
        <time>2020-07-11T10:33:34.604Z</time>
      </trkpt>
      <trkpt lat="44.24537" lon="5.09128">
        <ele>230</ele>
        <time>2020-07-11T10:33:35.604Z</time>
      </trkpt>
      <trkpt lat="44.24541" lon="5.09133">
        <ele>230</ele>
        <time>2020-07-11T10:33:36.604Z</time>
      </trkpt>
      <trkpt lat="44.24546" lon="5.09138">
        <ele>229</ele>
        <time>2020-07-11T10:33:37.605Z</time>
      </trkpt>
      <trkpt lat="44.24551" lon="5.09142">
        <ele>229</ele>
        <time>2020-07-11T10:33:38.605Z</time>
      </trkpt>
      <trkpt lat="44.24555" lon="5.09144">
        <ele>229</ele>
        <time>2020-07-11T10:33:39.605Z</time>
      </trkpt>
      <trkpt lat="44.24561" lon="5.09148">
        <ele>229</ele>
        <time>2020-07-11T10:33:40.604Z</time>
      </trkpt>
      <trkpt lat="44.24566" lon="5.09151">
        <ele>229</ele>
        <time>2020-07-11T10:33:41.605Z</time>
      </trkpt>
      <trkpt lat="44.24571" lon="5.09154">
        <ele>229</ele>
        <time>2020-07-11T10:33:42.605Z</time>
      </trkpt>
      <trkpt lat="44.24578" lon="5.09157">
        <ele>229</ele>
        <time>2020-07-11T10:33:43.605Z</time>
      </trkpt>
      <trkpt lat="44.24584" lon="5.0916">
        <ele>229</ele>
        <time>2020-07-11T10:33:44.605Z</time>
      </trkpt>
      <trkpt lat="44.24588" lon="5.09162">
        <ele>229</ele>
        <time>2020-07-11T10:33:45.605Z</time>
      </trkpt>
      <trkpt lat="44.24594" lon="5.09164">
        <ele>229</ele>
        <time>2020-07-11T10:33:46.605Z</time>
      </trkpt>
      <trkpt lat="44.24601" lon="5.09168">
        <ele>228</ele>
        <time>2020-07-11T10:33:47.605Z</time>
      </trkpt>
      <trkpt lat="44.24607" lon="5.0917">
        <ele>228</ele>
        <time>2020-07-11T10:33:48.605Z</time>
      </trkpt>
      <trkpt lat="44.24612" lon="5.09173">
        <ele>228</ele>
        <time>2020-07-11T10:33:49.605Z</time>
      </trkpt>
      <trkpt lat="44.24618" lon="5.09176">
        <ele>228</ele>
        <time>2020-07-11T10:33:50.605Z</time>
      </trkpt>
      <trkpt lat="44.24623" lon="5.09179">
        <ele>228</ele>
        <time>2020-07-11T10:33:51.605Z</time>
      </trkpt>
      <trkpt lat="44.24631" lon="5.09183">
        <ele>228</ele>
        <time>2020-07-11T10:33:52.605Z</time>
      </trkpt>
      <trkpt lat="44.24636" lon="5.09186">
        <ele>228</ele>
        <time>2020-07-11T10:33:53.604Z</time>
      </trkpt>
      <trkpt lat="44.24641" lon="5.09189">
        <ele>228</ele>
        <time>2020-07-11T10:33:54.605Z</time>
      </trkpt>
      <trkpt lat="44.24646" lon="5.09192">
        <ele>228</ele>
        <time>2020-07-11T10:33:55.605Z</time>
      </trkpt>
      <trkpt lat="44.24652" lon="5.09196">
        <ele>228</ele>
        <time>2020-07-11T10:33:56.604Z</time>
      </trkpt>
      <trkpt lat="44.24658" lon="5.092">
        <ele>228</ele>
        <time>2020-07-11T10:33:57.604Z</time>
      </trkpt>
      <trkpt lat="44.24663" lon="5.09203">
        <ele>227</ele>
        <time>2020-07-11T10:33:58.605Z</time>
      </trkpt>
      <trkpt lat="44.24667" lon="5.09205">
        <ele>227</ele>
        <time>2020-07-11T10:33:59.605Z</time>
      </trkpt>
      <trkpt lat="44.24673" lon="5.09209">
        <ele>227</ele>
        <time>2020-07-11T10:34:00.605Z</time>
      </trkpt>
      <trkpt lat="44.24678" lon="5.09212">
        <ele>227</ele>
        <time>2020-07-11T10:34:01.605Z</time>
      </trkpt>
      <trkpt lat="44.24684" lon="5.09216">
        <ele>227</ele>
        <time>2020-07-11T10:34:02.604Z</time>
      </trkpt>
      <trkpt lat="44.24689" lon="5.09219">
        <ele>227</ele>
        <time>2020-07-11T10:34:03.604Z</time>
      </trkpt>
      <trkpt lat="44.24694" lon="5.09222">
        <ele>227</ele>
        <time>2020-07-11T10:34:04.604Z</time>
      </trkpt>
      <trkpt lat="44.24699" lon="5.09225">
        <ele>228</ele>
        <time>2020-07-11T10:34:05.605Z</time>
      </trkpt>
      <trkpt lat="44.24704" lon="5.09229">
        <ele>228</ele>
        <time>2020-07-11T10:34:06.605Z</time>
      </trkpt>
      <trkpt lat="44.2471" lon="5.09232">
        <ele>228</ele>
        <time>2020-07-11T10:34:07.605Z</time>
      </trkpt>
      <trkpt lat="44.24714" lon="5.09235">
        <ele>229</ele>
        <time>2020-07-11T10:34:08.605Z</time>
      </trkpt>
      <trkpt lat="44.24718" lon="5.09238">
        <ele>229</ele>
        <time>2020-07-11T10:34:09.605Z</time>
      </trkpt>
      <trkpt lat="44.24724" lon="5.09241">
        <ele>230</ele>
        <time>2020-07-11T10:34:10.604Z</time>
      </trkpt>
      <trkpt lat="44.24728" lon="5.09245">
        <ele>230</ele>
        <time>2020-07-11T10:34:11.604Z</time>
      </trkpt>
      <trkpt lat="44.24732" lon="5.0925">
        <ele>230</ele>
        <time>2020-07-11T10:34:12.605Z</time>
      </trkpt>
      <trkpt lat="44.24735" lon="5.09256">
        <ele>230</ele>
        <time>2020-07-11T10:34:13.605Z</time>
      </trkpt>
      <trkpt lat="44.24738" lon="5.0926">
        <ele>230</ele>
        <time>2020-07-11T10:34:14.605Z</time>
      </trkpt>
      <trkpt lat="44.24742" lon="5.09265">
        <ele>230</ele>
        <time>2020-07-11T10:34:15.605Z</time>
      </trkpt>
      <trkpt lat="44.24747" lon="5.09269">
        <ele>230</ele>
        <time>2020-07-11T10:34:16.605Z</time>
      </trkpt>
      <trkpt lat="44.24752" lon="5.0927">
        <ele>230</ele>
        <time>2020-07-11T10:34:17.605Z</time>
      </trkpt>
      <trkpt lat="44.24757" lon="5.0927">
        <ele>230</ele>
        <time>2020-07-11T10:34:18.605Z</time>
      </trkpt>
      <trkpt lat="44.24763" lon="5.09268">
        <ele>230</ele>
        <time>2020-07-11T10:34:19.605Z</time>
      </trkpt>
      <trkpt lat="44.24769" lon="5.09266">
        <ele>230</ele>
        <time>2020-07-11T10:34:20.605Z</time>
      </trkpt>
      <trkpt lat="44.24775" lon="5.09264">
        <ele>231</ele>
        <time>2020-07-11T10:34:21.605Z</time>
      </trkpt>
      <trkpt lat="44.24781" lon="5.09264">
        <ele>231</ele>
        <time>2020-07-11T10:34:22.605Z</time>
      </trkpt>
      <trkpt lat="44.24787" lon="5.09265">
        <ele>231</ele>
        <time>2020-07-11T10:34:23.605Z</time>
      </trkpt>
      <trkpt lat="44.24794" lon="5.09267">
        <ele>231</ele>
        <time>2020-07-11T10:34:24.605Z</time>
      </trkpt>
      <trkpt lat="44.248" lon="5.09269">
        <ele>231</ele>
        <time>2020-07-11T10:34:25.604Z</time>
      </trkpt>
      <trkpt lat="44.24806" lon="5.09271">
        <ele>231</ele>
        <time>2020-07-11T10:34:26.605Z</time>
      </trkpt>
      <trkpt lat="44.24813" lon="5.09273">
        <ele>231</ele>
        <time>2020-07-11T10:34:27.605Z</time>
      </trkpt>
      <trkpt lat="44.24819" lon="5.09276">
        <ele>231</ele>
        <time>2020-07-11T10:34:28.605Z</time>
      </trkpt>
      <trkpt lat="44.24825" lon="5.09278">
        <ele>231</ele>
        <time>2020-07-11T10:34:29.605Z</time>
      </trkpt>
      <trkpt lat="44.24831" lon="5.09281">
        <ele>232</ele>
        <time>2020-07-11T10:34:30.604Z</time>
      </trkpt>
      <trkpt lat="44.24837" lon="5.09284">
        <ele>232</ele>
        <time>2020-07-11T10:34:31.604Z</time>
      </trkpt>
      <trkpt lat="44.24844" lon="5.09288">
        <ele>232</ele>
        <time>2020-07-11T10:34:32.605Z</time>
      </trkpt>
      <trkpt lat="44.2485" lon="5.09291">
        <ele>232</ele>
        <time>2020-07-11T10:34:33.604Z</time>
      </trkpt>
      <trkpt lat="44.24854" lon="5.09293">
        <ele>232</ele>
        <time>2020-07-11T10:34:34.604Z</time>
      </trkpt>
      <trkpt lat="44.2486" lon="5.09295">
        <ele>232</ele>
        <time>2020-07-11T10:34:35.604Z</time>
      </trkpt>
      <trkpt lat="44.24866" lon="5.09298">
        <ele>232</ele>
        <time>2020-07-11T10:34:36.605Z</time>
      </trkpt>
      <trkpt lat="44.24871" lon="5.09301">
        <ele>233</ele>
        <time>2020-07-11T10:34:37.604Z</time>
      </trkpt>
      <trkpt lat="44.24877" lon="5.09303">
        <ele>233</ele>
        <time>2020-07-11T10:34:38.605Z</time>
      </trkpt>
      <trkpt lat="44.24882" lon="5.09306">
        <ele>233</ele>
        <time>2020-07-11T10:34:39.605Z</time>
      </trkpt>
      <trkpt lat="44.24888" lon="5.09308">
        <ele>233</ele>
        <time>2020-07-11T10:34:40.605Z</time>
      </trkpt>
      <trkpt lat="44.24894" lon="5.0931">
        <ele>233</ele>
        <time>2020-07-11T10:34:41.605Z</time>
      </trkpt>
      <trkpt lat="44.249" lon="5.09313">
        <ele>234</ele>
        <time>2020-07-11T10:34:42.605Z</time>
      </trkpt>
      <trkpt lat="44.24905" lon="5.09315">
        <ele>234</ele>
        <time>2020-07-11T10:34:43.604Z</time>
      </trkpt>
      <trkpt lat="44.24911" lon="5.09317">
        <ele>234</ele>
        <time>2020-07-11T10:34:44.604Z</time>
      </trkpt>
      <trkpt lat="44.24917" lon="5.09319">
        <ele>234</ele>
        <time>2020-07-11T10:34:45.605Z</time>
      </trkpt>
      <trkpt lat="44.24923" lon="5.09321">
        <ele>234</ele>
        <time>2020-07-11T10:34:46.605Z</time>
      </trkpt>
      <trkpt lat="44.2493" lon="5.09323">
        <ele>234</ele>
        <time>2020-07-11T10:34:47.605Z</time>
      </trkpt>
      <trkpt lat="44.24936" lon="5.09326">
        <ele>234</ele>
        <time>2020-07-11T10:34:48.605Z</time>
      </trkpt>
      <trkpt lat="44.24942" lon="5.09327">
        <ele>234</ele>
        <time>2020-07-11T10:34:49.605Z</time>
      </trkpt>
      <trkpt lat="44.24948" lon="5.09329">
        <ele>234</ele>
        <time>2020-07-11T10:34:50.605Z</time>
      </trkpt>
      <trkpt lat="44.24954" lon="5.09331">
        <ele>235</ele>
        <time>2020-07-11T10:34:51.605Z</time>
      </trkpt>
      <trkpt lat="44.2496" lon="5.09333">
        <ele>235</ele>
        <time>2020-07-11T10:34:52.605Z</time>
      </trkpt>
      <trkpt lat="44.24966" lon="5.09335">
        <ele>236</ele>
        <time>2020-07-11T10:34:53.605Z</time>
      </trkpt>
      <trkpt lat="44.24972" lon="5.09337">
        <ele>236</ele>
        <time>2020-07-11T10:34:54.605Z</time>
      </trkpt>
      <trkpt lat="44.24978" lon="5.0934">
        <ele>235</ele>
        <time>2020-07-11T10:34:55.605Z</time>
      </trkpt>
      <trkpt lat="44.24984" lon="5.09342">
        <ele>235</ele>
        <time>2020-07-11T10:34:56.604Z</time>
      </trkpt>
      <trkpt lat="44.2499" lon="5.09344">
        <ele>235</ele>
        <time>2020-07-11T10:34:57.604Z</time>
      </trkpt>
      <trkpt lat="44.24996" lon="5.09347">
        <ele>235</ele>
        <time>2020-07-11T10:34:58.604Z</time>
      </trkpt>
      <trkpt lat="44.25002" lon="5.09349">
        <ele>235</ele>
        <time>2020-07-11T10:34:59.605Z</time>
      </trkpt>
      <trkpt lat="44.25008" lon="5.09351">
        <ele>236</ele>
        <time>2020-07-11T10:35:00.605Z</time>
      </trkpt>
      <trkpt lat="44.25014" lon="5.09354">
        <ele>237</ele>
        <time>2020-07-11T10:35:01.605Z</time>
      </trkpt>
      <trkpt lat="44.2502" lon="5.09356">
        <ele>237</ele>
        <time>2020-07-11T10:35:02.605Z</time>
      </trkpt>
      <trkpt lat="44.25026" lon="5.09358">
        <ele>238</ele>
        <time>2020-07-11T10:35:03.605Z</time>
      </trkpt>
      <trkpt lat="44.25033" lon="5.0936">
        <ele>238</ele>
        <time>2020-07-11T10:35:04.605Z</time>
      </trkpt>
      <trkpt lat="44.25039" lon="5.09362">
        <ele>238</ele>
        <time>2020-07-11T10:35:05.605Z</time>
      </trkpt>
      <trkpt lat="44.25045" lon="5.09364">
        <ele>239</ele>
        <time>2020-07-11T10:35:06.604Z</time>
      </trkpt>
      <trkpt lat="44.25051" lon="5.09367">
        <ele>239</ele>
        <time>2020-07-11T10:35:07.605Z</time>
      </trkpt>
      <trkpt lat="44.25057" lon="5.09369">
        <ele>239</ele>
        <time>2020-07-11T10:35:08.605Z</time>
      </trkpt>
      <trkpt lat="44.25063" lon="5.09372">
        <ele>239</ele>
        <time>2020-07-11T10:35:09.605Z</time>
      </trkpt>
      <trkpt lat="44.25069" lon="5.09374">
        <ele>239</ele>
        <time>2020-07-11T10:35:10.605Z</time>
      </trkpt>
      <trkpt lat="44.25075" lon="5.09377">
        <ele>239</ele>
        <time>2020-07-11T10:35:11.604Z</time>
      </trkpt>
      <trkpt lat="44.25082" lon="5.09379">
        <ele>239</ele>
        <time>2020-07-11T10:35:12.605Z</time>
      </trkpt>
      <trkpt lat="44.25088" lon="5.09382">
        <ele>238</ele>
        <time>2020-07-11T10:35:13.605Z</time>
      </trkpt>
      <trkpt lat="44.25095" lon="5.09384">
        <ele>238</ele>
        <time>2020-07-11T10:35:14.605Z</time>
      </trkpt>
      <trkpt lat="44.25101" lon="5.09387">
        <ele>238</ele>
        <time>2020-07-11T10:35:15.605Z</time>
      </trkpt>
      <trkpt lat="44.25108" lon="5.0939">
        <ele>237</ele>
        <time>2020-07-11T10:35:16.604Z</time>
      </trkpt>
      <trkpt lat="44.25114" lon="5.09392">
        <ele>237</ele>
        <time>2020-07-11T10:35:17.604Z</time>
      </trkpt>
      <trkpt lat="44.25121" lon="5.09395">
        <ele>237</ele>
        <time>2020-07-11T10:35:18.604Z</time>
      </trkpt>
      <trkpt lat="44.25128" lon="5.09397">
        <ele>237</ele>
        <time>2020-07-11T10:35:19.605Z</time>
      </trkpt>
      <trkpt lat="44.25134" lon="5.094">
        <ele>237</ele>
        <time>2020-07-11T10:35:20.605Z</time>
      </trkpt>
      <trkpt lat="44.25141" lon="5.09403">
        <ele>237</ele>
        <time>2020-07-11T10:35:21.605Z</time>
      </trkpt>
      <trkpt lat="44.25148" lon="5.09405">
        <ele>237</ele>
        <time>2020-07-11T10:35:22.604Z</time>
      </trkpt>
      <trkpt lat="44.25154" lon="5.09408">
        <ele>237</ele>
        <time>2020-07-11T10:35:23.605Z</time>
      </trkpt>
      <trkpt lat="44.25161" lon="5.0941">
        <ele>237</ele>
        <time>2020-07-11T10:35:24.605Z</time>
      </trkpt>
      <trkpt lat="44.25167" lon="5.09413">
        <ele>237</ele>
        <time>2020-07-11T10:35:25.605Z</time>
      </trkpt>
      <trkpt lat="44.25174" lon="5.09416">
        <ele>237</ele>
        <time>2020-07-11T10:35:26.605Z</time>
      </trkpt>
      <trkpt lat="44.25182" lon="5.09418">
        <ele>237</ele>
        <time>2020-07-11T10:35:27.605Z</time>
      </trkpt>
      <trkpt lat="44.25187" lon="5.09421">
        <ele>237</ele>
        <time>2020-07-11T10:35:28.605Z</time>
      </trkpt>
      <trkpt lat="44.25193" lon="5.09423">
        <ele>237</ele>
        <time>2020-07-11T10:35:29.605Z</time>
      </trkpt>
      <trkpt lat="44.252" lon="5.09425">
        <ele>237</ele>
        <time>2020-07-11T10:35:30.605Z</time>
      </trkpt>
      <trkpt lat="44.25206" lon="5.09428">
        <ele>238</ele>
        <time>2020-07-11T10:35:31.605Z</time>
      </trkpt>
      <trkpt lat="44.25212" lon="5.0943">
        <ele>238</ele>
        <time>2020-07-11T10:35:32.604Z</time>
      </trkpt>
      <trkpt lat="44.25219" lon="5.09433">
        <ele>238</ele>
        <time>2020-07-11T10:35:33.604Z</time>
      </trkpt>
      <trkpt lat="44.25225" lon="5.09436">
        <ele>239</ele>
        <time>2020-07-11T10:35:34.605Z</time>
      </trkpt>
      <trkpt lat="44.25231" lon="5.09438">
        <ele>239</ele>
        <time>2020-07-11T10:35:35.605Z</time>
      </trkpt>
      <trkpt lat="44.25239" lon="5.09441">
        <ele>240</ele>
        <time>2020-07-11T10:35:36.605Z</time>
      </trkpt>
      <trkpt lat="44.25245" lon="5.09444">
        <ele>240</ele>
        <time>2020-07-11T10:35:37.605Z</time>
      </trkpt>
      <trkpt lat="44.2525" lon="5.09446">
        <ele>240</ele>
        <time>2020-07-11T10:35:38.605Z</time>
      </trkpt>
      <trkpt lat="44.25256" lon="5.09448">
        <ele>240</ele>
        <time>2020-07-11T10:35:39.605Z</time>
      </trkpt>
      <trkpt lat="44.25263" lon="5.09451">
        <ele>240</ele>
        <time>2020-07-11T10:35:40.605Z</time>
      </trkpt>
      <trkpt lat="44.25269" lon="5.09454">
        <ele>240</ele>
        <time>2020-07-11T10:35:41.605Z</time>
      </trkpt>
      <trkpt lat="44.25275" lon="5.09457">
        <ele>240</ele>
        <time>2020-07-11T10:35:42.605Z</time>
      </trkpt>
      <trkpt lat="44.25282" lon="5.0946">
        <ele>241</ele>
        <time>2020-07-11T10:35:43.605Z</time>
      </trkpt>
      <trkpt lat="44.25288" lon="5.09463">
        <ele>241</ele>
        <time>2020-07-11T10:35:44.605Z</time>
      </trkpt>
      <trkpt lat="44.25295" lon="5.09466">
        <ele>241</ele>
        <time>2020-07-11T10:35:45.604Z</time>
      </trkpt>
      <trkpt lat="44.25301" lon="5.09469">
        <ele>241</ele>
        <time>2020-07-11T10:35:46.605Z</time>
      </trkpt>
      <trkpt lat="44.25307" lon="5.09473">
        <ele>241</ele>
        <time>2020-07-11T10:35:47.604Z</time>
      </trkpt>
      <trkpt lat="44.25313" lon="5.09476">
        <ele>241</ele>
        <time>2020-07-11T10:35:48.605Z</time>
      </trkpt>
      <trkpt lat="44.25319" lon="5.09479">
        <ele>242</ele>
        <time>2020-07-11T10:35:49.605Z</time>
      </trkpt>
      <trkpt lat="44.25325" lon="5.09483">
        <ele>242</ele>
        <time>2020-07-11T10:35:50.605Z</time>
      </trkpt>
      <trkpt lat="44.25332" lon="5.09486">
        <ele>242</ele>
        <time>2020-07-11T10:35:51.605Z</time>
      </trkpt>
      <trkpt lat="44.25338" lon="5.0949">
        <ele>242</ele>
        <time>2020-07-11T10:35:52.605Z</time>
      </trkpt>
      <trkpt lat="44.25344" lon="5.09493">
        <ele>242</ele>
        <time>2020-07-11T10:35:53.604Z</time>
      </trkpt>
      <trkpt lat="44.2535" lon="5.09496">
        <ele>242</ele>
        <time>2020-07-11T10:35:54.605Z</time>
      </trkpt>
      <trkpt lat="44.25356" lon="5.095">
        <ele>242</ele>
        <time>2020-07-11T10:35:55.604Z</time>
      </trkpt>
      <trkpt lat="44.25362" lon="5.09503">
        <ele>242</ele>
        <time>2020-07-11T10:35:56.605Z</time>
      </trkpt>
      <trkpt lat="44.25367" lon="5.09506">
        <ele>242</ele>
        <time>2020-07-11T10:35:57.605Z</time>
      </trkpt>
      <trkpt lat="44.25374" lon="5.09509">
        <ele>242</ele>
        <time>2020-07-11T10:35:58.605Z</time>
      </trkpt>
      <trkpt lat="44.2538" lon="5.09512">
        <ele>242</ele>
        <time>2020-07-11T10:35:59.604Z</time>
      </trkpt>
      <trkpt lat="44.25385" lon="5.09515">
        <ele>242</ele>
        <time>2020-07-11T10:36:00.604Z</time>
      </trkpt>
      <trkpt lat="44.25391" lon="5.09518">
        <ele>242</ele>
        <time>2020-07-11T10:36:01.605Z</time>
      </trkpt>
      <trkpt lat="44.25396" lon="5.09521">
        <ele>242</ele>
        <time>2020-07-11T10:36:02.604Z</time>
      </trkpt>
      <trkpt lat="44.25402" lon="5.09524">
        <ele>242</ele>
        <time>2020-07-11T10:36:03.605Z</time>
      </trkpt>
      <trkpt lat="44.25407" lon="5.09527">
        <ele>242</ele>
        <time>2020-07-11T10:36:04.604Z</time>
      </trkpt>
      <trkpt lat="44.25412" lon="5.09529">
        <ele>242</ele>
        <time>2020-07-11T10:36:05.605Z</time>
      </trkpt>
      <trkpt lat="44.25418" lon="5.09532">
        <ele>242</ele>
        <time>2020-07-11T10:36:06.605Z</time>
      </trkpt>
      <trkpt lat="44.25423" lon="5.09535">
        <ele>243</ele>
        <time>2020-07-11T10:36:07.605Z</time>
      </trkpt>
      <trkpt lat="44.25428" lon="5.09538">
        <ele>242</ele>
        <time>2020-07-11T10:36:08.605Z</time>
      </trkpt>
      <trkpt lat="44.25434" lon="5.09541">
        <ele>242</ele>
        <time>2020-07-11T10:36:09.604Z</time>
      </trkpt>
      <trkpt lat="44.25439" lon="5.09544">
        <ele>242</ele>
        <time>2020-07-11T10:36:10.605Z</time>
      </trkpt>
      <trkpt lat="44.25444" lon="5.09546">
        <ele>242</ele>
        <time>2020-07-11T10:36:11.605Z</time>
      </trkpt>
      <trkpt lat="44.25449" lon="5.09549">
        <ele>242</ele>
        <time>2020-07-11T10:36:12.605Z</time>
      </trkpt>
      <trkpt lat="44.25455" lon="5.09552">
        <ele>243</ele>
        <time>2020-07-11T10:36:13.605Z</time>
      </trkpt>
      <trkpt lat="44.25458" lon="5.09554">
        <ele>243</ele>
        <time>2020-07-11T10:36:14.605Z</time>
      </trkpt>
      <trkpt lat="44.25463" lon="5.09558">
        <ele>244</ele>
        <time>2020-07-11T10:36:15.605Z</time>
      </trkpt>
      <trkpt lat="44.25468" lon="5.09561">
        <ele>244</ele>
        <time>2020-07-11T10:36:16.604Z</time>
      </trkpt>
      <trkpt lat="44.25474" lon="5.09565">
        <ele>244</ele>
        <time>2020-07-11T10:36:17.605Z</time>
      </trkpt>
      <trkpt lat="44.25478" lon="5.09568">
        <ele>245</ele>
        <time>2020-07-11T10:36:18.605Z</time>
      </trkpt>
      <trkpt lat="44.25483" lon="5.09572">
        <ele>245</ele>
        <time>2020-07-11T10:36:19.605Z</time>
      </trkpt>
      <trkpt lat="44.25487" lon="5.09576">
        <ele>246</ele>
        <time>2020-07-11T10:36:20.605Z</time>
      </trkpt>
      <trkpt lat="44.25491" lon="5.09579">
        <ele>246</ele>
        <time>2020-07-11T10:36:21.605Z</time>
      </trkpt>
      <trkpt lat="44.25495" lon="5.09583">
        <ele>246</ele>
        <time>2020-07-11T10:36:22.605Z</time>
      </trkpt>
      <trkpt lat="44.25499" lon="5.09586">
        <ele>246</ele>
        <time>2020-07-11T10:36:23.605Z</time>
      </trkpt>
      <trkpt lat="44.25502" lon="5.0959">
        <ele>246</ele>
        <time>2020-07-11T10:36:24.604Z</time>
      </trkpt>
      <trkpt lat="44.25506" lon="5.09596">
        <ele>246</ele>
        <time>2020-07-11T10:36:25.605Z</time>
      </trkpt>
      <trkpt lat="44.25508" lon="5.096">
        <ele>247</ele>
        <time>2020-07-11T10:36:26.605Z</time>
      </trkpt>
      <trkpt lat="44.2551" lon="5.09606">
        <ele>247</ele>
        <time>2020-07-11T10:36:27.605Z</time>
      </trkpt>
      <trkpt lat="44.25512" lon="5.09612">
        <ele>247</ele>
        <time>2020-07-11T10:36:28.604Z</time>
      </trkpt>
      <trkpt lat="44.25515" lon="5.09618">
        <ele>248</ele>
        <time>2020-07-11T10:36:29.605Z</time>
      </trkpt>
      <trkpt lat="44.2552" lon="5.09623">
        <ele>248</ele>
        <time>2020-07-11T10:36:30.605Z</time>
      </trkpt>
      <trkpt lat="44.25525" lon="5.09626">
        <ele>249</ele>
        <time>2020-07-11T10:36:31.604Z</time>
      </trkpt>
      <trkpt lat="44.2553" lon="5.09627">
        <ele>249</ele>
        <time>2020-07-11T10:36:32.605Z</time>
      </trkpt>
      <trkpt lat="44.25535" lon="5.09627">
        <ele>250</ele>
        <time>2020-07-11T10:36:33.605Z</time>
      </trkpt>
      <trkpt lat="44.25541" lon="5.09625">
        <ele>250</ele>
        <time>2020-07-11T10:36:34.605Z</time>
      </trkpt>
      <trkpt lat="44.25546" lon="5.09623">
        <ele>250</ele>
        <time>2020-07-11T10:36:35.605Z</time>
      </trkpt>
      <trkpt lat="44.25551" lon="5.0962">
        <ele>250</ele>
        <time>2020-07-11T10:36:36.605Z</time>
      </trkpt>
      <trkpt lat="44.25557" lon="5.09619">
        <ele>251</ele>
        <time>2020-07-11T10:36:37.605Z</time>
      </trkpt>
      <trkpt lat="44.25562" lon="5.0962">
        <ele>251</ele>
        <time>2020-07-11T10:36:38.605Z</time>
      </trkpt>
      <trkpt lat="44.25568" lon="5.0962">
        <ele>252</ele>
        <time>2020-07-11T10:36:39.605Z</time>
      </trkpt>
      <trkpt lat="44.25573" lon="5.09621">
        <ele>252</ele>
        <time>2020-07-11T10:36:40.605Z</time>
      </trkpt>
      <trkpt lat="44.25578" lon="5.09622">
        <ele>252</ele>
        <time>2020-07-11T10:36:41.605Z</time>
      </trkpt>
      <trkpt lat="44.25582" lon="5.09624">
        <ele>252</ele>
        <time>2020-07-11T10:36:42.605Z</time>
      </trkpt>
      <trkpt lat="44.25587" lon="5.09625">
        <ele>252</ele>
        <time>2020-07-11T10:36:43.605Z</time>
      </trkpt>
      <trkpt lat="44.25592" lon="5.09627">
        <ele>253</ele>
        <time>2020-07-11T10:36:44.605Z</time>
      </trkpt>
      <trkpt lat="44.25597" lon="5.09628">
        <ele>253</ele>
        <time>2020-07-11T10:36:45.605Z</time>
      </trkpt>
      <trkpt lat="44.25602" lon="5.0963">
        <ele>253</ele>
        <time>2020-07-11T10:36:46.605Z</time>
      </trkpt>
      <trkpt lat="44.25607" lon="5.09632">
        <ele>253</ele>
        <time>2020-07-11T10:36:47.605Z</time>
      </trkpt>
      <trkpt lat="44.25611" lon="5.09634">
        <ele>253</ele>
        <time>2020-07-11T10:36:48.604Z</time>
      </trkpt>
      <trkpt lat="44.25616" lon="5.09636">
        <ele>253</ele>
        <time>2020-07-11T10:36:49.605Z</time>
      </trkpt>
      <trkpt lat="44.2562" lon="5.09638">
        <ele>254</ele>
        <time>2020-07-11T10:36:50.605Z</time>
      </trkpt>
      <trkpt lat="44.25625" lon="5.0964">
        <ele>254</ele>
        <time>2020-07-11T10:36:51.605Z</time>
      </trkpt>
      <trkpt lat="44.25629" lon="5.09642">
        <ele>254</ele>
        <time>2020-07-11T10:36:52.605Z</time>
      </trkpt>
      <trkpt lat="44.25634" lon="5.09644">
        <ele>254</ele>
        <time>2020-07-11T10:36:53.605Z</time>
      </trkpt>
      <trkpt lat="44.25638" lon="5.09646">
        <ele>254</ele>
        <time>2020-07-11T10:36:54.605Z</time>
      </trkpt>
      <trkpt lat="44.25643" lon="5.09648">
        <ele>254</ele>
        <time>2020-07-11T10:36:55.605Z</time>
      </trkpt>
      <trkpt lat="44.25647" lon="5.0965">
        <ele>254</ele>
        <time>2020-07-11T10:36:56.605Z</time>
      </trkpt>
      <trkpt lat="44.25651" lon="5.09652">
        <ele>254</ele>
        <time>2020-07-11T10:36:57.605Z</time>
      </trkpt>
      <trkpt lat="44.25656" lon="5.09654">
        <ele>254</ele>
        <time>2020-07-11T10:36:58.605Z</time>
      </trkpt>
      <trkpt lat="44.2566" lon="5.09656">
        <ele>253</ele>
        <time>2020-07-11T10:36:59.605Z</time>
      </trkpt>
      <trkpt lat="44.25664" lon="5.09658">
        <ele>253</ele>
        <time>2020-07-11T10:37:00.605Z</time>
      </trkpt>
      <trkpt lat="44.25669" lon="5.09659">
        <ele>253</ele>
        <time>2020-07-11T10:37:01.605Z</time>
      </trkpt>
      <trkpt lat="44.25673" lon="5.09661">
        <ele>253</ele>
        <time>2020-07-11T10:37:02.605Z</time>
      </trkpt>
      <trkpt lat="44.25678" lon="5.09663">
        <ele>254</ele>
        <time>2020-07-11T10:37:03.605Z</time>
      </trkpt>
      <trkpt lat="44.25682" lon="5.09665">
        <ele>254</ele>
        <time>2020-07-11T10:37:04.605Z</time>
      </trkpt>
      <trkpt lat="44.25687" lon="5.09667">
        <ele>255</ele>
        <time>2020-07-11T10:37:05.605Z</time>
      </trkpt>
      <trkpt lat="44.25691" lon="5.09669">
        <ele>255</ele>
        <time>2020-07-11T10:37:06.605Z</time>
      </trkpt>
      <trkpt lat="44.25695" lon="5.0967">
        <ele>255</ele>
        <time>2020-07-11T10:37:07.604Z</time>
      </trkpt>
      <trkpt lat="44.257" lon="5.09672">
        <ele>255</ele>
        <time>2020-07-11T10:37:08.605Z</time>
      </trkpt>
      <trkpt lat="44.25704" lon="5.09674">
        <ele>256</ele>
        <time>2020-07-11T10:37:09.605Z</time>
      </trkpt>
      <trkpt lat="44.25709" lon="5.09676">
        <ele>256</ele>
        <time>2020-07-11T10:37:10.605Z</time>
      </trkpt>
      <trkpt lat="44.25714" lon="5.09678">
        <ele>257</ele>
        <time>2020-07-11T10:37:11.605Z</time>
      </trkpt>
      <trkpt lat="44.25718" lon="5.0968">
        <ele>257</ele>
        <time>2020-07-11T10:37:12.605Z</time>
      </trkpt>
      <trkpt lat="44.25723" lon="5.09682">
        <ele>257</ele>
        <time>2020-07-11T10:37:13.605Z</time>
      </trkpt>
      <trkpt lat="44.25728" lon="5.09684">
        <ele>257</ele>
        <time>2020-07-11T10:37:14.605Z</time>
      </trkpt>
      <trkpt lat="44.25733" lon="5.09686">
        <ele>257</ele>
        <time>2020-07-11T10:37:15.605Z</time>
      </trkpt>
      <trkpt lat="44.25737" lon="5.09688">
        <ele>257</ele>
        <time>2020-07-11T10:37:16.605Z</time>
      </trkpt>
      <trkpt lat="44.25742" lon="5.0969">
        <ele>257</ele>
        <time>2020-07-11T10:37:17.604Z</time>
      </trkpt>
      <trkpt lat="44.25747" lon="5.09692">
        <ele>257</ele>
        <time>2020-07-11T10:37:18.605Z</time>
      </trkpt>
      <trkpt lat="44.25752" lon="5.09694">
        <ele>257</ele>
        <time>2020-07-11T10:37:19.605Z</time>
      </trkpt>
      <trkpt lat="44.25757" lon="5.09697">
        <ele>258</ele>
        <time>2020-07-11T10:37:20.604Z</time>
      </trkpt>
      <trkpt lat="44.25763" lon="5.09699">
        <ele>258</ele>
        <time>2020-07-11T10:37:21.605Z</time>
      </trkpt>
      <trkpt lat="44.25768" lon="5.09701">
        <ele>258</ele>
        <time>2020-07-11T10:37:22.605Z</time>
      </trkpt>
      <trkpt lat="44.25773" lon="5.09704">
        <ele>258</ele>
        <time>2020-07-11T10:37:23.604Z</time>
      </trkpt>
      <trkpt lat="44.25778" lon="5.09706">
        <ele>259</ele>
        <time>2020-07-11T10:37:24.605Z</time>
      </trkpt>
      <trkpt lat="44.25784" lon="5.09708">
        <ele>259</ele>
        <time>2020-07-11T10:37:25.605Z</time>
      </trkpt>
      <trkpt lat="44.25788" lon="5.0971">
        <ele>259</ele>
        <time>2020-07-11T10:37:26.605Z</time>
      </trkpt>
      <trkpt lat="44.25794" lon="5.09713">
        <ele>260</ele>
        <time>2020-07-11T10:37:27.605Z</time>
      </trkpt>
      <trkpt lat="44.258" lon="5.09715">
        <ele>260</ele>
        <time>2020-07-11T10:37:28.605Z</time>
      </trkpt>
      <trkpt lat="44.25805" lon="5.09718">
        <ele>261</ele>
        <time>2020-07-11T10:37:29.605Z</time>
      </trkpt>
      <trkpt lat="44.2581" lon="5.0972">
        <ele>261</ele>
        <time>2020-07-11T10:37:30.604Z</time>
      </trkpt>
      <trkpt lat="44.25816" lon="5.09722">
        <ele>261</ele>
        <time>2020-07-11T10:37:31.604Z</time>
      </trkpt>
      <trkpt lat="44.25821" lon="5.09725">
        <ele>261</ele>
        <time>2020-07-11T10:37:32.605Z</time>
      </trkpt>
      <trkpt lat="44.25826" lon="5.09727">
        <ele>261</ele>
        <time>2020-07-11T10:37:33.604Z</time>
      </trkpt>
      <trkpt lat="44.25832" lon="5.09729">
        <ele>262</ele>
        <time>2020-07-11T10:37:34.604Z</time>
      </trkpt>
      <trkpt lat="44.25837" lon="5.09732">
        <ele>262</ele>
        <time>2020-07-11T10:37:35.604Z</time>
      </trkpt>
      <trkpt lat="44.25842" lon="5.09734">
        <ele>262</ele>
        <time>2020-07-11T10:37:36.605Z</time>
      </trkpt>
      <trkpt lat="44.25846" lon="5.09737">
        <ele>263</ele>
        <time>2020-07-11T10:37:37.605Z</time>
      </trkpt>
      <trkpt lat="44.25852" lon="5.09739">
        <ele>263</ele>
        <time>2020-07-11T10:37:38.605Z</time>
      </trkpt>
      <trkpt lat="44.25858" lon="5.09742">
        <ele>263</ele>
        <time>2020-07-11T10:37:39.605Z</time>
      </trkpt>
      <trkpt lat="44.25863" lon="5.09745">
        <ele>264</ele>
        <time>2020-07-11T10:37:40.605Z</time>
      </trkpt>
      <trkpt lat="44.25868" lon="5.09748">
        <ele>264</ele>
        <time>2020-07-11T10:37:41.604Z</time>
      </trkpt>
      <trkpt lat="44.25874" lon="5.09751">
        <ele>265</ele>
        <time>2020-07-11T10:37:42.605Z</time>
      </trkpt>
      <trkpt lat="44.25879" lon="5.09754">
        <ele>265</ele>
        <time>2020-07-11T10:37:43.605Z</time>
      </trkpt>
      <trkpt lat="44.25884" lon="5.09758">
        <ele>264</ele>
        <time>2020-07-11T10:37:44.604Z</time>
      </trkpt>
      <trkpt lat="44.25889" lon="5.09762">
        <ele>265</ele>
        <time>2020-07-11T10:37:45.604Z</time>
      </trkpt>
      <trkpt lat="44.25895" lon="5.09766">
        <ele>264</ele>
        <time>2020-07-11T10:37:46.604Z</time>
      </trkpt>
      <trkpt lat="44.259" lon="5.09772">
        <ele>265</ele>
        <time>2020-07-11T10:37:47.605Z</time>
      </trkpt>
      <trkpt lat="44.25905" lon="5.09777">
        <ele>265</ele>
        <time>2020-07-11T10:37:48.604Z</time>
      </trkpt>
      <trkpt lat="44.25909" lon="5.09783">
        <ele>265</ele>
        <time>2020-07-11T10:37:49.604Z</time>
      </trkpt>
      <trkpt lat="44.25913" lon="5.09789">
        <ele>264</ele>
        <time>2020-07-11T10:37:50.605Z</time>
      </trkpt>
      <trkpt lat="44.25918" lon="5.09795">
        <ele>264</ele>
        <time>2020-07-11T10:37:51.605Z</time>
      </trkpt>
      <trkpt lat="44.25921" lon="5.09801">
        <ele>264</ele>
        <time>2020-07-11T10:37:52.605Z</time>
      </trkpt>
      <trkpt lat="44.25925" lon="5.09807">
        <ele>264</ele>
        <time>2020-07-11T10:37:53.605Z</time>
      </trkpt>
      <trkpt lat="44.25929" lon="5.09814">
        <ele>264</ele>
        <time>2020-07-11T10:37:54.605Z</time>
      </trkpt>
      <trkpt lat="44.25933" lon="5.0982">
        <ele>265</ele>
        <time>2020-07-11T10:37:55.605Z</time>
      </trkpt>
      <trkpt lat="44.25936" lon="5.09826">
        <ele>265</ele>
        <time>2020-07-11T10:37:56.605Z</time>
      </trkpt>
      <trkpt lat="44.25939" lon="5.09832">
        <ele>266</ele>
        <time>2020-07-11T10:37:57.605Z</time>
      </trkpt>
      <trkpt lat="44.25944" lon="5.09839">
        <ele>266</ele>
        <time>2020-07-11T10:37:58.605Z</time>
      </trkpt>
      <trkpt lat="44.25948" lon="5.09844">
        <ele>267</ele>
        <time>2020-07-11T10:37:59.605Z</time>
      </trkpt>
      <trkpt lat="44.25952" lon="5.09849">
        <ele>268</ele>
        <time>2020-07-11T10:38:00.605Z</time>
      </trkpt>
      <trkpt lat="44.25956" lon="5.09854">
        <ele>268</ele>
        <time>2020-07-11T10:38:01.605Z</time>
      </trkpt>
      <trkpt lat="44.25962" lon="5.0986">
        <ele>268</ele>
        <time>2020-07-11T10:38:02.605Z</time>
      </trkpt>
      <trkpt lat="44.25967" lon="5.09865">
        <ele>268</ele>
        <time>2020-07-11T10:38:03.605Z</time>
      </trkpt>
      <trkpt lat="44.25971" lon="5.09868">
        <ele>268</ele>
        <time>2020-07-11T10:38:04.605Z</time>
      </trkpt>
      <trkpt lat="44.25976" lon="5.09872">
        <ele>268</ele>
        <time>2020-07-11T10:38:05.605Z</time>
      </trkpt>
      <trkpt lat="44.25982" lon="5.09876">
        <ele>268</ele>
        <time>2020-07-11T10:38:06.605Z</time>
      </trkpt>
      <trkpt lat="44.25988" lon="5.0988">
        <ele>268</ele>
        <time>2020-07-11T10:38:07.605Z</time>
      </trkpt>
      <trkpt lat="44.25993" lon="5.09884">
        <ele>268</ele>
        <time>2020-07-11T10:38:08.605Z</time>
      </trkpt>
      <trkpt lat="44.25998" lon="5.09887">
        <ele>268</ele>
        <time>2020-07-11T10:38:09.605Z</time>
      </trkpt>
      <trkpt lat="44.26004" lon="5.09891">
        <ele>268</ele>
        <time>2020-07-11T10:38:10.604Z</time>
      </trkpt>
      <trkpt lat="44.26009" lon="5.09894">
        <ele>268</ele>
        <time>2020-07-11T10:38:11.605Z</time>
      </trkpt>
      <trkpt lat="44.26015" lon="5.09899">
        <ele>268</ele>
        <time>2020-07-11T10:38:12.605Z</time>
      </trkpt>
      <trkpt lat="44.26021" lon="5.09903">
        <ele>268</ele>
        <time>2020-07-11T10:38:13.604Z</time>
      </trkpt>
      <trkpt lat="44.26026" lon="5.09907">
        <ele>268</ele>
        <time>2020-07-11T10:38:14.605Z</time>
      </trkpt>
      <trkpt lat="44.26032" lon="5.09911">
        <ele>268</ele>
        <time>2020-07-11T10:38:15.605Z</time>
      </trkpt>
      <trkpt lat="44.26037" lon="5.09916">
        <ele>268</ele>
        <time>2020-07-11T10:38:16.605Z</time>
      </trkpt>
      <trkpt lat="44.26043" lon="5.0992">
        <ele>268</ele>
        <time>2020-07-11T10:38:17.605Z</time>
      </trkpt>
      <trkpt lat="44.26048" lon="5.09925">
        <ele>268</ele>
        <time>2020-07-11T10:38:18.605Z</time>
      </trkpt>
      <trkpt lat="44.26053" lon="5.0993">
        <ele>268</ele>
        <time>2020-07-11T10:38:19.605Z</time>
      </trkpt>
      <trkpt lat="44.26057" lon="5.09933">
        <ele>268</ele>
        <time>2020-07-11T10:38:20.605Z</time>
      </trkpt>
      <trkpt lat="44.26063" lon="5.09939">
        <ele>268</ele>
        <time>2020-07-11T10:38:21.604Z</time>
      </trkpt>
      <trkpt lat="44.26068" lon="5.09944">
        <ele>268</ele>
        <time>2020-07-11T10:38:22.605Z</time>
      </trkpt>
      <trkpt lat="44.26072" lon="5.09947">
        <ele>268</ele>
        <time>2020-07-11T10:38:23.605Z</time>
      </trkpt>
      <trkpt lat="44.26077" lon="5.09952">
        <ele>267</ele>
        <time>2020-07-11T10:38:24.605Z</time>
      </trkpt>
      <trkpt lat="44.26082" lon="5.09957">
        <ele>267</ele>
        <time>2020-07-11T10:38:25.605Z</time>
      </trkpt>
      <trkpt lat="44.26088" lon="5.09962">
        <ele>268</ele>
        <time>2020-07-11T10:38:26.605Z</time>
      </trkpt>
      <trkpt lat="44.26092" lon="5.09966">
        <ele>268</ele>
        <time>2020-07-11T10:38:27.605Z</time>
      </trkpt>
      <trkpt lat="44.26096" lon="5.0997">
        <ele>268</ele>
        <time>2020-07-11T10:38:28.604Z</time>
      </trkpt>
      <trkpt lat="44.26101" lon="5.09974">
        <ele>268</ele>
        <time>2020-07-11T10:38:29.605Z</time>
      </trkpt>
      <trkpt lat="44.26105" lon="5.09978">
        <ele>268</ele>
        <time>2020-07-11T10:38:30.604Z</time>
      </trkpt>
      <trkpt lat="44.2611" lon="5.09982">
        <ele>269</ele>
        <time>2020-07-11T10:38:31.605Z</time>
      </trkpt>
      <trkpt lat="44.26114" lon="5.09986">
        <ele>269</ele>
        <time>2020-07-11T10:38:32.605Z</time>
      </trkpt>
      <trkpt lat="44.26119" lon="5.0999">
        <ele>269</ele>
        <time>2020-07-11T10:38:33.605Z</time>
      </trkpt>
      <trkpt lat="44.26124" lon="5.09994">
        <ele>269</ele>
        <time>2020-07-11T10:38:34.605Z</time>
      </trkpt>
      <trkpt lat="44.26128" lon="5.09998">
        <ele>269</ele>
        <time>2020-07-11T10:38:35.605Z</time>
      </trkpt>
      <trkpt lat="44.26133" lon="5.10002">
        <ele>269</ele>
        <time>2020-07-11T10:38:36.605Z</time>
      </trkpt>
      <trkpt lat="44.26139" lon="5.10005">
        <ele>269</ele>
        <time>2020-07-11T10:38:37.604Z</time>
      </trkpt>
      <trkpt lat="44.26143" lon="5.10008">
        <ele>269</ele>
        <time>2020-07-11T10:38:38.605Z</time>
      </trkpt>
      <trkpt lat="44.26148" lon="5.1001">
        <ele>270</ele>
        <time>2020-07-11T10:38:39.605Z</time>
      </trkpt>
      <trkpt lat="44.26153" lon="5.10013">
        <ele>270</ele>
        <time>2020-07-11T10:38:40.605Z</time>
      </trkpt>
      <trkpt lat="44.26158" lon="5.10016">
        <ele>270</ele>
        <time>2020-07-11T10:38:41.605Z</time>
      </trkpt>
      <trkpt lat="44.26164" lon="5.10019">
        <ele>271</ele>
        <time>2020-07-11T10:38:42.605Z</time>
      </trkpt>
      <trkpt lat="44.26167" lon="5.1002">
        <ele>271</ele>
        <time>2020-07-11T10:38:43.605Z</time>
      </trkpt>
      <trkpt lat="44.26172" lon="5.10023">
        <ele>271</ele>
        <time>2020-07-11T10:38:44.605Z</time>
      </trkpt>
      <trkpt lat="44.26177" lon="5.10025">
        <ele>272</ele>
        <time>2020-07-11T10:38:45.605Z</time>
      </trkpt>
      <trkpt lat="44.26182" lon="5.10027">
        <ele>272</ele>
        <time>2020-07-11T10:38:46.605Z</time>
      </trkpt>
      <trkpt lat="44.26188" lon="5.1003">
        <ele>272</ele>
        <time>2020-07-11T10:38:47.605Z</time>
      </trkpt>
      <trkpt lat="44.26192" lon="5.10032">
        <ele>272</ele>
        <time>2020-07-11T10:38:48.605Z</time>
      </trkpt>
      <trkpt lat="44.26197" lon="5.10035">
        <ele>272</ele>
        <time>2020-07-11T10:38:49.605Z</time>
      </trkpt>
      <trkpt lat="44.26203" lon="5.10038">
        <ele>273</ele>
        <time>2020-07-11T10:38:50.605Z</time>
      </trkpt>
      <trkpt lat="44.26207" lon="5.1004">
        <ele>273</ele>
        <time>2020-07-11T10:38:51.605Z</time>
      </trkpt>
      <trkpt lat="44.26212" lon="5.10044">
        <ele>273</ele>
        <time>2020-07-11T10:38:52.604Z</time>
      </trkpt>
      <trkpt lat="44.26217" lon="5.10048">
        <ele>273</ele>
        <time>2020-07-11T10:38:53.605Z</time>
      </trkpt>
      <trkpt lat="44.26222" lon="5.10052">
        <ele>273</ele>
        <time>2020-07-11T10:38:54.605Z</time>
      </trkpt>
      <trkpt lat="44.26226" lon="5.10056">
        <ele>273</ele>
        <time>2020-07-11T10:38:55.604Z</time>
      </trkpt>
      <trkpt lat="44.26231" lon="5.10061">
        <ele>273</ele>
        <time>2020-07-11T10:38:56.605Z</time>
      </trkpt>
      <trkpt lat="44.26235" lon="5.10066">
        <ele>273</ele>
        <time>2020-07-11T10:38:57.605Z</time>
      </trkpt>
      <trkpt lat="44.26239" lon="5.10072">
        <ele>274</ele>
        <time>2020-07-11T10:38:58.604Z</time>
      </trkpt>
      <trkpt lat="44.26243" lon="5.10078">
        <ele>274</ele>
        <time>2020-07-11T10:38:59.605Z</time>
      </trkpt>
      <trkpt lat="44.26246" lon="5.10084">
        <ele>275</ele>
        <time>2020-07-11T10:39:00.605Z</time>
      </trkpt>
      <trkpt lat="44.2625" lon="5.10091">
        <ele>276</ele>
        <time>2020-07-11T10:39:01.605Z</time>
      </trkpt>
      <trkpt lat="44.26253" lon="5.10097">
        <ele>276</ele>
        <time>2020-07-11T10:39:02.605Z</time>
      </trkpt>
      <trkpt lat="44.26255" lon="5.10104">
        <ele>276</ele>
        <time>2020-07-11T10:39:03.605Z</time>
      </trkpt>
      <trkpt lat="44.26258" lon="5.10111">
        <ele>276</ele>
        <time>2020-07-11T10:39:04.605Z</time>
      </trkpt>
      <trkpt lat="44.26261" lon="5.1012">
        <ele>276</ele>
        <time>2020-07-11T10:39:05.605Z</time>
      </trkpt>
      <trkpt lat="44.26264" lon="5.10127">
        <ele>276</ele>
        <time>2020-07-11T10:39:06.604Z</time>
      </trkpt>
      <trkpt lat="44.26267" lon="5.10134">
        <ele>276</ele>
        <time>2020-07-11T10:39:07.605Z</time>
      </trkpt>
      <trkpt lat="44.26269" lon="5.1014">
        <ele>277</ele>
        <time>2020-07-11T10:39:08.605Z</time>
      </trkpt>
      <trkpt lat="44.26271" lon="5.10147">
        <ele>277</ele>
        <time>2020-07-11T10:39:09.605Z</time>
      </trkpt>
      <trkpt lat="44.26274" lon="5.10153">
        <ele>278</ele>
        <time>2020-07-11T10:39:10.605Z</time>
      </trkpt>
      <trkpt lat="44.26278" lon="5.1016">
        <ele>278</ele>
        <time>2020-07-11T10:39:11.604Z</time>
      </trkpt>
      <trkpt lat="44.26281" lon="5.10165">
        <ele>278</ele>
        <time>2020-07-11T10:39:12.605Z</time>
      </trkpt>
      <trkpt lat="44.26284" lon="5.10169">
        <ele>279</ele>
        <time>2020-07-11T10:39:13.605Z</time>
      </trkpt>
      <trkpt lat="44.26288" lon="5.10174">
        <ele>279</ele>
        <time>2020-07-11T10:39:14.604Z</time>
      </trkpt>
      <trkpt lat="44.26293" lon="5.10179">
        <ele>279</ele>
        <time>2020-07-11T10:39:15.605Z</time>
      </trkpt>
      <trkpt lat="44.26298" lon="5.10184">
        <ele>279</ele>
        <time>2020-07-11T10:39:16.604Z</time>
      </trkpt>
      <trkpt lat="44.26302" lon="5.10188">
        <ele>279</ele>
        <time>2020-07-11T10:39:17.604Z</time>
      </trkpt>
      <trkpt lat="44.26306" lon="5.10191">
        <ele>279</ele>
        <time>2020-07-11T10:39:18.605Z</time>
      </trkpt>
      <trkpt lat="44.26312" lon="5.10195">
        <ele>279</ele>
        <time>2020-07-11T10:39:19.605Z</time>
      </trkpt>
      <trkpt lat="44.26318" lon="5.10199">
        <ele>279</ele>
        <time>2020-07-11T10:39:20.605Z</time>
      </trkpt>
      <trkpt lat="44.26324" lon="5.10202">
        <ele>279</ele>
        <time>2020-07-11T10:39:21.605Z</time>
      </trkpt>
      <trkpt lat="44.2633" lon="5.10204">
        <ele>279</ele>
        <time>2020-07-11T10:39:22.605Z</time>
      </trkpt>
      <trkpt lat="44.26335" lon="5.10206">
        <ele>279</ele>
        <time>2020-07-11T10:39:23.604Z</time>
      </trkpt>
      <trkpt lat="44.26341" lon="5.10208">
        <ele>280</ele>
        <time>2020-07-11T10:39:24.604Z</time>
      </trkpt>
      <trkpt lat="44.26349" lon="5.10211">
        <ele>280</ele>
        <time>2020-07-11T10:39:25.605Z</time>
      </trkpt>
      <trkpt lat="44.26355" lon="5.10214">
        <ele>280</ele>
        <time>2020-07-11T10:39:26.605Z</time>
      </trkpt>
      <trkpt lat="44.26362" lon="5.10216">
        <ele>280</ele>
        <time>2020-07-11T10:39:27.604Z</time>
      </trkpt>
      <trkpt lat="44.26368" lon="5.10218">
        <ele>280</ele>
        <time>2020-07-11T10:39:28.605Z</time>
      </trkpt>
      <trkpt lat="44.26375" lon="5.10221">
        <ele>280</ele>
        <time>2020-07-11T10:39:29.605Z</time>
      </trkpt>
      <trkpt lat="44.26382" lon="5.10224">
        <ele>280</ele>
        <time>2020-07-11T10:39:30.604Z</time>
      </trkpt>
      <trkpt lat="44.2639" lon="5.10228">
        <ele>281</ele>
        <time>2020-07-11T10:39:31.605Z</time>
      </trkpt>
      <trkpt lat="44.26397" lon="5.10232">
        <ele>281</ele>
        <time>2020-07-11T10:39:32.604Z</time>
      </trkpt>
      <trkpt lat="44.26402" lon="5.10235">
        <ele>281</ele>
        <time>2020-07-11T10:39:33.605Z</time>
      </trkpt>
      <trkpt lat="44.26409" lon="5.1024">
        <ele>282</ele>
        <time>2020-07-11T10:39:34.604Z</time>
      </trkpt>
      <trkpt lat="44.26415" lon="5.10244">
        <ele>281</ele>
        <time>2020-07-11T10:39:35.604Z</time>
      </trkpt>
      <trkpt lat="44.26422" lon="5.1025">
        <ele>282</ele>
        <time>2020-07-11T10:39:36.605Z</time>
      </trkpt>
      <trkpt lat="44.26428" lon="5.10255">
        <ele>282</ele>
        <time>2020-07-11T10:39:37.605Z</time>
      </trkpt>
      <trkpt lat="44.26434" lon="5.10262">
        <ele>282</ele>
        <time>2020-07-11T10:39:38.605Z</time>
      </trkpt>
      <trkpt lat="44.2644" lon="5.10268">
        <ele>282</ele>
        <time>2020-07-11T10:39:39.604Z</time>
      </trkpt>
      <trkpt lat="44.26447" lon="5.10275">
        <ele>281</ele>
        <time>2020-07-11T10:39:40.604Z</time>
      </trkpt>
      <trkpt lat="44.26453" lon="5.10282">
        <ele>281</ele>
        <time>2020-07-11T10:39:41.605Z</time>
      </trkpt>
      <trkpt lat="44.26458" lon="5.10287">
        <ele>281</ele>
        <time>2020-07-11T10:39:42.605Z</time>
      </trkpt>
      <trkpt lat="44.26464" lon="5.10293">
        <ele>281</ele>
        <time>2020-07-11T10:39:43.605Z</time>
      </trkpt>
      <trkpt lat="44.2647" lon="5.103">
        <ele>281</ele>
        <time>2020-07-11T10:39:44.605Z</time>
      </trkpt>
      <trkpt lat="44.26477" lon="5.10307">
        <ele>281</ele>
        <time>2020-07-11T10:39:45.605Z</time>
      </trkpt>
      <trkpt lat="44.26483" lon="5.10313">
        <ele>281</ele>
        <time>2020-07-11T10:39:46.604Z</time>
      </trkpt>
      <trkpt lat="44.26487" lon="5.10318">
        <ele>280</ele>
        <time>2020-07-11T10:39:47.605Z</time>
      </trkpt>
      <trkpt lat="44.26494" lon="5.10325">
        <ele>280</ele>
        <time>2020-07-11T10:39:48.605Z</time>
      </trkpt>
      <trkpt lat="44.265" lon="5.1033">
        <ele>280</ele>
        <time>2020-07-11T10:39:49.605Z</time>
      </trkpt>
      <trkpt lat="44.26507" lon="5.10336">
        <ele>280</ele>
        <time>2020-07-11T10:39:50.604Z</time>
      </trkpt>
      <trkpt lat="44.26514" lon="5.1034">
        <ele>281</ele>
        <time>2020-07-11T10:39:51.604Z</time>
      </trkpt>
      <trkpt lat="44.26519" lon="5.10344">
        <ele>281</ele>
        <time>2020-07-11T10:39:52.605Z</time>
      </trkpt>
      <trkpt lat="44.26526" lon="5.10347">
        <ele>281</ele>
        <time>2020-07-11T10:39:53.605Z</time>
      </trkpt>
      <trkpt lat="44.26532" lon="5.1035">
        <ele>281</ele>
        <time>2020-07-11T10:39:54.605Z</time>
      </trkpt>
      <trkpt lat="44.2654" lon="5.10353">
        <ele>281</ele>
        <time>2020-07-11T10:39:55.605Z</time>
      </trkpt>
      <trkpt lat="44.26547" lon="5.10355">
        <ele>282</ele>
        <time>2020-07-11T10:39:56.604Z</time>
      </trkpt>
      <trkpt lat="44.26553" lon="5.10356">
        <ele>282</ele>
        <time>2020-07-11T10:39:57.605Z</time>
      </trkpt>
      <trkpt lat="44.2656" lon="5.10357">
        <ele>281</ele>
        <time>2020-07-11T10:39:58.605Z</time>
      </trkpt>
      <trkpt lat="44.26567" lon="5.10357">
        <ele>281</ele>
        <time>2020-07-11T10:39:59.605Z</time>
      </trkpt>
      <trkpt lat="44.26575" lon="5.10357">
        <ele>281</ele>
        <time>2020-07-11T10:40:00.605Z</time>
      </trkpt>
      <trkpt lat="44.26583" lon="5.10356">
        <ele>281</ele>
        <time>2020-07-11T10:40:01.604Z</time>
      </trkpt>
      <trkpt lat="44.2659" lon="5.10356">
        <ele>281</ele>
        <time>2020-07-11T10:40:02.605Z</time>
      </trkpt>
      <trkpt lat="44.26596" lon="5.10355">
        <ele>281</ele>
        <time>2020-07-11T10:40:03.605Z</time>
      </trkpt>
      <trkpt lat="44.26603" lon="5.10354">
        <ele>281</ele>
        <time>2020-07-11T10:40:04.605Z</time>
      </trkpt>
      <trkpt lat="44.26612" lon="5.10353">
        <ele>281</ele>
        <time>2020-07-11T10:40:05.605Z</time>
      </trkpt>
      <trkpt lat="44.26619" lon="5.10352">
        <ele>281</ele>
        <time>2020-07-11T10:40:06.604Z</time>
      </trkpt>
      <trkpt lat="44.26625" lon="5.10352">
        <ele>282</ele>
        <time>2020-07-11T10:40:07.605Z</time>
      </trkpt>
      <trkpt lat="44.26634" lon="5.10351">
        <ele>282</ele>
        <time>2020-07-11T10:40:08.605Z</time>
      </trkpt>
      <trkpt lat="44.26641" lon="5.1035">
        <ele>282</ele>
        <time>2020-07-11T10:40:09.605Z</time>
      </trkpt>
      <trkpt lat="44.26648" lon="5.10349">
        <ele>282</ele>
        <time>2020-07-11T10:40:10.604Z</time>
      </trkpt>
      <trkpt lat="44.26656" lon="5.10348">
        <ele>281</ele>
        <time>2020-07-11T10:40:11.605Z</time>
      </trkpt>
      <trkpt lat="44.26663" lon="5.10348">
        <ele>281</ele>
        <time>2020-07-11T10:40:12.605Z</time>
      </trkpt>
      <trkpt lat="44.2667" lon="5.10347">
        <ele>281</ele>
        <time>2020-07-11T10:40:13.604Z</time>
      </trkpt>
      <trkpt lat="44.26677" lon="5.10346">
        <ele>281</ele>
        <time>2020-07-11T10:40:14.604Z</time>
      </trkpt>
      <trkpt lat="44.26684" lon="5.10345">
        <ele>281</ele>
        <time>2020-07-11T10:40:15.605Z</time>
      </trkpt>
      <trkpt lat="44.26692" lon="5.10344">
        <ele>281</ele>
        <time>2020-07-11T10:40:16.605Z</time>
      </trkpt>
      <trkpt lat="44.26699" lon="5.10344">
        <ele>281</ele>
        <time>2020-07-11T10:40:17.605Z</time>
      </trkpt>
      <trkpt lat="44.26705" lon="5.10343">
        <ele>280</ele>
        <time>2020-07-11T10:40:18.605Z</time>
      </trkpt>
      <trkpt lat="44.26713" lon="5.10342">
        <ele>280</ele>
        <time>2020-07-11T10:40:19.604Z</time>
      </trkpt>
      <trkpt lat="44.26719" lon="5.10342">
        <ele>280</ele>
        <time>2020-07-11T10:40:20.605Z</time>
      </trkpt>
      <trkpt lat="44.26727" lon="5.10341">
        <ele>280</ele>
        <time>2020-07-11T10:40:21.605Z</time>
      </trkpt>
      <trkpt lat="44.26733" lon="5.1034">
        <ele>280</ele>
        <time>2020-07-11T10:40:22.605Z</time>
      </trkpt>
      <trkpt lat="44.2674" lon="5.10339">
        <ele>280</ele>
        <time>2020-07-11T10:40:23.604Z</time>
      </trkpt>
      <trkpt lat="44.26747" lon="5.10339">
        <ele>280</ele>
        <time>2020-07-11T10:40:24.604Z</time>
      </trkpt>
      <trkpt lat="44.26755" lon="5.10338">
        <ele>280</ele>
        <time>2020-07-11T10:40:25.605Z</time>
      </trkpt>
      <trkpt lat="44.26763" lon="5.10337">
        <ele>280</ele>
        <time>2020-07-11T10:40:26.605Z</time>
      </trkpt>
      <trkpt lat="44.26769" lon="5.10336">
        <ele>280</ele>
        <time>2020-07-11T10:40:27.605Z</time>
      </trkpt>
      <trkpt lat="44.26777" lon="5.10335">
        <ele>281</ele>
        <time>2020-07-11T10:40:28.605Z</time>
      </trkpt>
      <trkpt lat="44.26785" lon="5.10335">
        <ele>281</ele>
        <time>2020-07-11T10:40:29.605Z</time>
      </trkpt>
      <trkpt lat="44.26792" lon="5.10334">
        <ele>281</ele>
        <time>2020-07-11T10:40:30.604Z</time>
      </trkpt>
      <trkpt lat="44.26799" lon="5.10333">
        <ele>282</ele>
        <time>2020-07-11T10:40:31.605Z</time>
      </trkpt>
      <trkpt lat="44.26806" lon="5.10332">
        <ele>282</ele>
        <time>2020-07-11T10:40:32.605Z</time>
      </trkpt>
      <trkpt lat="44.26812" lon="5.10332">
        <ele>282</ele>
        <time>2020-07-11T10:40:33.605Z</time>
      </trkpt>
      <trkpt lat="44.26819" lon="5.10331">
        <ele>282</ele>
        <time>2020-07-11T10:40:34.605Z</time>
      </trkpt>
      <trkpt lat="44.26826" lon="5.1033">
        <ele>282</ele>
        <time>2020-07-11T10:40:35.605Z</time>
      </trkpt>
      <trkpt lat="44.26833" lon="5.10329">
        <ele>282</ele>
        <time>2020-07-11T10:40:36.605Z</time>
      </trkpt>
      <trkpt lat="44.2684" lon="5.10329">
        <ele>282</ele>
        <time>2020-07-11T10:40:37.605Z</time>
      </trkpt>
      <trkpt lat="44.26846" lon="5.10328">
        <ele>282</ele>
        <time>2020-07-11T10:40:38.604Z</time>
      </trkpt>
      <trkpt lat="44.26853" lon="5.10327">
        <ele>282</ele>
        <time>2020-07-11T10:40:39.605Z</time>
      </trkpt>
      <trkpt lat="44.2686" lon="5.10327">
        <ele>282</ele>
        <time>2020-07-11T10:40:40.604Z</time>
      </trkpt>
      <trkpt lat="44.26867" lon="5.10326">
        <ele>282</ele>
        <time>2020-07-11T10:40:41.604Z</time>
      </trkpt>
      <trkpt lat="44.26874" lon="5.10325">
        <ele>282</ele>
        <time>2020-07-11T10:40:42.605Z</time>
      </trkpt>
      <trkpt lat="44.2688" lon="5.10325">
        <ele>282</ele>
        <time>2020-07-11T10:40:43.605Z</time>
      </trkpt>
      <trkpt lat="44.26887" lon="5.10324">
        <ele>282</ele>
        <time>2020-07-11T10:40:44.604Z</time>
      </trkpt>
      <trkpt lat="44.26894" lon="5.10323">
        <ele>282</ele>
        <time>2020-07-11T10:40:45.604Z</time>
      </trkpt>
      <trkpt lat="44.269" lon="5.10323">
        <ele>283</ele>
        <time>2020-07-11T10:40:46.604Z</time>
      </trkpt>
      <trkpt lat="44.26907" lon="5.10322">
        <ele>283</ele>
        <time>2020-07-11T10:40:47.605Z</time>
      </trkpt>
      <trkpt lat="44.26914" lon="5.10322">
        <ele>283</ele>
        <time>2020-07-11T10:40:48.605Z</time>
      </trkpt>
      <trkpt lat="44.26921" lon="5.10321">
        <ele>283</ele>
        <time>2020-07-11T10:40:49.605Z</time>
      </trkpt>
      <trkpt lat="44.26927" lon="5.10321">
        <ele>283</ele>
        <time>2020-07-11T10:40:50.604Z</time>
      </trkpt>
      <trkpt lat="44.26934" lon="5.10321">
        <ele>283</ele>
        <time>2020-07-11T10:40:51.604Z</time>
      </trkpt>
      <trkpt lat="44.26941" lon="5.10321">
        <ele>283</ele>
        <time>2020-07-11T10:40:52.605Z</time>
      </trkpt>
      <trkpt lat="44.26947" lon="5.10321">
        <ele>283</ele>
        <time>2020-07-11T10:40:53.604Z</time>
      </trkpt>
      <trkpt lat="44.26953" lon="5.10321">
        <ele>283</ele>
        <time>2020-07-11T10:40:54.605Z</time>
      </trkpt>
      <trkpt lat="44.2696" lon="5.10322">
        <ele>284</ele>
        <time>2020-07-11T10:40:55.604Z</time>
      </trkpt>
      <trkpt lat="44.26966" lon="5.10323">
        <ele>284</ele>
        <time>2020-07-11T10:40:56.605Z</time>
      </trkpt>
      <trkpt lat="44.26972" lon="5.10325">
        <ele>284</ele>
        <time>2020-07-11T10:40:57.605Z</time>
      </trkpt>
      <trkpt lat="44.26978" lon="5.10326">
        <ele>284</ele>
        <time>2020-07-11T10:40:58.605Z</time>
      </trkpt>
      <trkpt lat="44.26984" lon="5.10328">
        <ele>284</ele>
        <time>2020-07-11T10:40:59.605Z</time>
      </trkpt>
      <trkpt lat="44.2699" lon="5.10329">
        <ele>285</ele>
        <time>2020-07-11T10:41:00.605Z</time>
      </trkpt>
      <trkpt lat="44.26996" lon="5.10332">
        <ele>284</ele>
        <time>2020-07-11T10:41:01.604Z</time>
      </trkpt>
      <trkpt lat="44.27002" lon="5.10334">
        <ele>284</ele>
        <time>2020-07-11T10:41:02.605Z</time>
      </trkpt>
      <trkpt lat="44.27008" lon="5.10336">
        <ele>284</ele>
        <time>2020-07-11T10:41:03.604Z</time>
      </trkpt>
      <trkpt lat="44.27014" lon="5.10338">
        <ele>283</ele>
        <time>2020-07-11T10:41:04.605Z</time>
      </trkpt>
      <trkpt lat="44.27019" lon="5.1034">
        <ele>283</ele>
        <time>2020-07-11T10:41:05.605Z</time>
      </trkpt>
      <trkpt lat="44.27024" lon="5.10342">
        <ele>283</ele>
        <time>2020-07-11T10:41:06.604Z</time>
      </trkpt>
      <trkpt lat="44.2703" lon="5.10345">
        <ele>283</ele>
        <time>2020-07-11T10:41:07.604Z</time>
      </trkpt>
      <trkpt lat="44.27036" lon="5.10347">
        <ele>283</ele>
        <time>2020-07-11T10:41:08.605Z</time>
      </trkpt>
      <trkpt lat="44.27043" lon="5.1035">
        <ele>283</ele>
        <time>2020-07-11T10:41:09.604Z</time>
      </trkpt>
      <trkpt lat="44.27048" lon="5.10352">
        <ele>284</ele>
        <time>2020-07-11T10:41:10.604Z</time>
      </trkpt>
      <trkpt lat="44.27054" lon="5.10354">
        <ele>284</ele>
        <time>2020-07-11T10:41:11.605Z</time>
      </trkpt>
      <trkpt lat="44.2706" lon="5.10356">
        <ele>284</ele>
        <time>2020-07-11T10:41:12.604Z</time>
      </trkpt>
      <trkpt lat="44.27067" lon="5.10359">
        <ele>284</ele>
        <time>2020-07-11T10:41:13.605Z</time>
      </trkpt>
      <trkpt lat="44.27073" lon="5.10362">
        <ele>284</ele>
        <time>2020-07-11T10:41:14.604Z</time>
      </trkpt>
      <trkpt lat="44.27078" lon="5.10364">
        <ele>284</ele>
        <time>2020-07-11T10:41:15.605Z</time>
      </trkpt>
      <trkpt lat="44.27084" lon="5.10366">
        <ele>284</ele>
        <time>2020-07-11T10:41:16.605Z</time>
      </trkpt>
      <trkpt lat="44.27089" lon="5.10368">
        <ele>284</ele>
        <time>2020-07-11T10:41:17.605Z</time>
      </trkpt>
      <trkpt lat="44.27096" lon="5.10371">
        <ele>284</ele>
        <time>2020-07-11T10:41:18.605Z</time>
      </trkpt>
      <trkpt lat="44.27102" lon="5.10373">
        <ele>285</ele>
        <time>2020-07-11T10:41:19.605Z</time>
      </trkpt>
      <trkpt lat="44.27108" lon="5.10375">
        <ele>285</ele>
        <time>2020-07-11T10:41:20.605Z</time>
      </trkpt>
      <trkpt lat="44.27113" lon="5.10378">
        <ele>285</ele>
        <time>2020-07-11T10:41:21.605Z</time>
      </trkpt>
      <trkpt lat="44.27119" lon="5.1038">
        <ele>286</ele>
        <time>2020-07-11T10:41:22.605Z</time>
      </trkpt>
      <trkpt lat="44.27124" lon="5.10382">
        <ele>286</ele>
        <time>2020-07-11T10:41:23.604Z</time>
      </trkpt>
      <trkpt lat="44.2713" lon="5.10384">
        <ele>286</ele>
        <time>2020-07-11T10:41:24.604Z</time>
      </trkpt>
      <trkpt lat="44.27136" lon="5.10387">
        <ele>287</ele>
        <time>2020-07-11T10:41:25.605Z</time>
      </trkpt>
      <trkpt lat="44.27141" lon="5.10389">
        <ele>287</ele>
        <time>2020-07-11T10:41:26.605Z</time>
      </trkpt>
      <trkpt lat="44.27147" lon="5.10391">
        <ele>286</ele>
        <time>2020-07-11T10:41:27.605Z</time>
      </trkpt>
      <trkpt lat="44.27152" lon="5.10393">
        <ele>287</ele>
        <time>2020-07-11T10:41:28.605Z</time>
      </trkpt>
      <trkpt lat="44.27158" lon="5.10395">
        <ele>287</ele>
        <time>2020-07-11T10:41:29.604Z</time>
      </trkpt>
      <trkpt lat="44.27163" lon="5.10397">
        <ele>287</ele>
        <time>2020-07-11T10:41:30.604Z</time>
      </trkpt>
      <trkpt lat="44.27169" lon="5.10399">
        <ele>288</ele>
        <time>2020-07-11T10:41:31.604Z</time>
      </trkpt>
      <trkpt lat="44.27175" lon="5.10401">
        <ele>288</ele>
        <time>2020-07-11T10:41:32.605Z</time>
      </trkpt>
      <trkpt lat="44.2718" lon="5.10403">
        <ele>288</ele>
        <time>2020-07-11T10:41:33.605Z</time>
      </trkpt>
      <trkpt lat="44.27185" lon="5.10405">
        <ele>288</ele>
        <time>2020-07-11T10:41:34.605Z</time>
      </trkpt>
      <trkpt lat="44.27191" lon="5.10408">
        <ele>288</ele>
        <time>2020-07-11T10:41:35.604Z</time>
      </trkpt>
      <trkpt lat="44.27197" lon="5.1041">
        <ele>288</ele>
        <time>2020-07-11T10:41:36.604Z</time>
      </trkpt>
      <trkpt lat="44.27202" lon="5.10413">
        <ele>288</ele>
        <time>2020-07-11T10:41:37.605Z</time>
      </trkpt>
      <trkpt lat="44.27208" lon="5.10415">
        <ele>288</ele>
        <time>2020-07-11T10:41:38.605Z</time>
      </trkpt>
      <trkpt lat="44.27213" lon="5.10418">
        <ele>289</ele>
        <time>2020-07-11T10:41:39.605Z</time>
      </trkpt>
      <trkpt lat="44.27219" lon="5.10421">
        <ele>289</ele>
        <time>2020-07-11T10:41:40.605Z</time>
      </trkpt>
      <trkpt lat="44.27224" lon="5.10424">
        <ele>289</ele>
        <time>2020-07-11T10:41:41.605Z</time>
      </trkpt>
      <trkpt lat="44.2723" lon="5.10428">
        <ele>289</ele>
        <time>2020-07-11T10:41:42.605Z</time>
      </trkpt>
      <trkpt lat="44.27236" lon="5.10431">
        <ele>289</ele>
        <time>2020-07-11T10:41:43.605Z</time>
      </trkpt>
      <trkpt lat="44.27241" lon="5.10435">
        <ele>290</ele>
        <time>2020-07-11T10:41:44.604Z</time>
      </trkpt>
      <trkpt lat="44.27246" lon="5.10438">
        <ele>290</ele>
        <time>2020-07-11T10:41:45.604Z</time>
      </trkpt>
      <trkpt lat="44.27251" lon="5.10442">
        <ele>290</ele>
        <time>2020-07-11T10:41:46.605Z</time>
      </trkpt>
      <trkpt lat="44.27257" lon="5.10446">
        <ele>290</ele>
        <time>2020-07-11T10:41:47.605Z</time>
      </trkpt>
      <trkpt lat="44.27262" lon="5.1045">
        <ele>290</ele>
        <time>2020-07-11T10:41:48.605Z</time>
      </trkpt>
      <trkpt lat="44.27268" lon="5.10455">
        <ele>290</ele>
        <time>2020-07-11T10:41:49.604Z</time>
      </trkpt>
      <trkpt lat="44.27273" lon="5.10459">
        <ele>290</ele>
        <time>2020-07-11T10:41:50.604Z</time>
      </trkpt>
      <trkpt lat="44.27278" lon="5.10464">
        <ele>290</ele>
        <time>2020-07-11T10:41:51.605Z</time>
      </trkpt>
      <trkpt lat="44.27284" lon="5.10469">
        <ele>291</ele>
        <time>2020-07-11T10:41:52.605Z</time>
      </trkpt>
      <trkpt lat="44.27289" lon="5.10474">
        <ele>292</ele>
        <time>2020-07-11T10:41:53.605Z</time>
      </trkpt>
      <trkpt lat="44.27294" lon="5.1048">
        <ele>292</ele>
        <time>2020-07-11T10:41:54.605Z</time>
      </trkpt>
      <trkpt lat="44.27299" lon="5.10486">
        <ele>292</ele>
        <time>2020-07-11T10:41:55.604Z</time>
      </trkpt>
      <trkpt lat="44.27304" lon="5.10492">
        <ele>292</ele>
        <time>2020-07-11T10:41:56.605Z</time>
      </trkpt>
      <trkpt lat="44.27309" lon="5.10498">
        <ele>292</ele>
        <time>2020-07-11T10:41:57.605Z</time>
      </trkpt>
      <trkpt lat="44.27314" lon="5.10505">
        <ele>292</ele>
        <time>2020-07-11T10:41:58.604Z</time>
      </trkpt>
      <trkpt lat="44.2732" lon="5.10512">
        <ele>292</ele>
        <time>2020-07-11T10:41:59.604Z</time>
      </trkpt>
      <trkpt lat="44.27325" lon="5.10519">
        <ele>292</ele>
        <time>2020-07-11T10:42:00.604Z</time>
      </trkpt>
      <trkpt lat="44.2733" lon="5.10527">
        <ele>292</ele>
        <time>2020-07-11T10:42:01.605Z</time>
      </trkpt>
      <trkpt lat="44.27336" lon="5.10536">
        <ele>291</ele>
        <time>2020-07-11T10:42:02.605Z</time>
      </trkpt>
      <trkpt lat="44.27342" lon="5.10544">
        <ele>291</ele>
        <time>2020-07-11T10:42:03.604Z</time>
      </trkpt>
      <trkpt lat="44.27349" lon="5.10555">
        <ele>290</ele>
        <time>2020-07-11T10:42:04.605Z</time>
      </trkpt>
      <trkpt lat="44.27356" lon="5.10564">
        <ele>290</ele>
        <time>2020-07-11T10:42:05.604Z</time>
      </trkpt>
      <trkpt lat="44.27361" lon="5.10572">
        <ele>289</ele>
        <time>2020-07-11T10:42:06.604Z</time>
      </trkpt>
      <trkpt lat="44.27369" lon="5.10583">
        <ele>289</ele>
        <time>2020-07-11T10:42:07.605Z</time>
      </trkpt>
      <trkpt lat="44.27376" lon="5.10593">
        <ele>288</ele>
        <time>2020-07-11T10:42:08.605Z</time>
      </trkpt>
      <trkpt lat="44.27381" lon="5.10601">
        <ele>288</ele>
        <time>2020-07-11T10:42:09.604Z</time>
      </trkpt>
      <trkpt lat="44.27388" lon="5.10612">
        <ele>287</ele>
        <time>2020-07-11T10:42:10.604Z</time>
      </trkpt>
      <trkpt lat="44.27396" lon="5.10622">
        <ele>286</ele>
        <time>2020-07-11T10:42:11.604Z</time>
      </trkpt>
      <trkpt lat="44.27405" lon="5.10635">
        <ele>286</ele>
        <time>2020-07-11T10:42:12.605Z</time>
      </trkpt>
      <trkpt lat="44.27411" lon="5.10643">
        <ele>286</ele>
        <time>2020-07-11T10:42:13.605Z</time>
      </trkpt>
      <trkpt lat="44.27418" lon="5.10654">
        <ele>286</ele>
        <time>2020-07-11T10:42:14.604Z</time>
      </trkpt>
      <trkpt lat="44.27425" lon="5.10664">
        <ele>286</ele>
        <time>2020-07-11T10:42:15.604Z</time>
      </trkpt>
      <trkpt lat="44.27433" lon="5.10676">
        <ele>286</ele>
        <time>2020-07-11T10:42:16.605Z</time>
      </trkpt>
      <trkpt lat="44.2744" lon="5.10686">
        <ele>286</ele>
        <time>2020-07-11T10:42:17.605Z</time>
      </trkpt>
      <trkpt lat="44.27447" lon="5.10694">
        <ele>287</ele>
        <time>2020-07-11T10:42:18.604Z</time>
      </trkpt>
      <trkpt lat="44.27454" lon="5.10703">
        <ele>287</ele>
        <time>2020-07-11T10:42:19.604Z</time>
      </trkpt>
      <trkpt lat="44.27461" lon="5.1071">
        <ele>287</ele>
        <time>2020-07-11T10:42:20.605Z</time>
      </trkpt>
      <trkpt lat="44.27468" lon="5.10717">
        <ele>287</ele>
        <time>2020-07-11T10:42:21.605Z</time>
      </trkpt>
      <trkpt lat="44.27475" lon="5.10723">
        <ele>287</ele>
        <time>2020-07-11T10:42:22.605Z</time>
      </trkpt>
      <trkpt lat="44.27482" lon="5.10728">
        <ele>287</ele>
        <time>2020-07-11T10:42:23.604Z</time>
      </trkpt>
      <trkpt lat="44.27489" lon="5.10732">
        <ele>287</ele>
        <time>2020-07-11T10:42:24.604Z</time>
      </trkpt>
      <trkpt lat="44.27497" lon="5.10735">
        <ele>287</ele>
        <time>2020-07-11T10:42:25.605Z</time>
      </trkpt>
      <trkpt lat="44.27504" lon="5.10739">
        <ele>287</ele>
        <time>2020-07-11T10:42:26.604Z</time>
      </trkpt>
      <trkpt lat="44.27512" lon="5.10741">
        <ele>287</ele>
        <time>2020-07-11T10:42:27.604Z</time>
      </trkpt>
      <trkpt lat="44.27519" lon="5.10744">
        <ele>287</ele>
        <time>2020-07-11T10:42:28.605Z</time>
      </trkpt>
      <trkpt lat="44.27526" lon="5.10746">
        <ele>287</ele>
        <time>2020-07-11T10:42:29.604Z</time>
      </trkpt>
      <trkpt lat="44.27534" lon="5.10749">
        <ele>287</ele>
        <time>2020-07-11T10:42:30.605Z</time>
      </trkpt>
      <trkpt lat="44.27541" lon="5.10751">
        <ele>287</ele>
        <time>2020-07-11T10:42:31.605Z</time>
      </trkpt>
      <trkpt lat="44.27548" lon="5.10754">
        <ele>287</ele>
        <time>2020-07-11T10:42:32.604Z</time>
      </trkpt>
      <trkpt lat="44.27555" lon="5.10756">
        <ele>287</ele>
        <time>2020-07-11T10:42:33.605Z</time>
      </trkpt>
      <trkpt lat="44.27561" lon="5.10758">
        <ele>287</ele>
        <time>2020-07-11T10:42:34.605Z</time>
      </trkpt>
      <trkpt lat="44.27569" lon="5.10761">
        <ele>287</ele>
        <time>2020-07-11T10:42:35.604Z</time>
      </trkpt>
      <trkpt lat="44.27575" lon="5.10764">
        <ele>287</ele>
        <time>2020-07-11T10:42:36.605Z</time>
      </trkpt>
      <trkpt lat="44.27582" lon="5.10766">
        <ele>287</ele>
        <time>2020-07-11T10:42:37.604Z</time>
      </trkpt>
      <trkpt lat="44.27588" lon="5.1077">
        <ele>287</ele>
        <time>2020-07-11T10:42:38.605Z</time>
      </trkpt>
      <trkpt lat="44.27594" lon="5.10773">
        <ele>287</ele>
        <time>2020-07-11T10:42:39.605Z</time>
      </trkpt>
      <trkpt lat="44.276" lon="5.10778">
        <ele>287</ele>
        <time>2020-07-11T10:42:40.605Z</time>
      </trkpt>
      <trkpt lat="44.27605" lon="5.10784">
        <ele>287</ele>
        <time>2020-07-11T10:42:41.605Z</time>
      </trkpt>
      <trkpt lat="44.27611" lon="5.1079">
        <ele>287</ele>
        <time>2020-07-11T10:42:42.605Z</time>
      </trkpt>
      <trkpt lat="44.27617" lon="5.10794">
        <ele>287</ele>
        <time>2020-07-11T10:42:43.605Z</time>
      </trkpt>
      <trkpt lat="44.27623" lon="5.10797">
        <ele>287</ele>
        <time>2020-07-11T10:42:44.604Z</time>
      </trkpt>
      <trkpt lat="44.27629" lon="5.10797">
        <ele>287</ele>
        <time>2020-07-11T10:42:45.605Z</time>
      </trkpt>
      <trkpt lat="44.27634" lon="5.10794">
        <ele>287</ele>
        <time>2020-07-11T10:42:46.605Z</time>
      </trkpt>
      <trkpt lat="44.27639" lon="5.10789">
        <ele>288</ele>
        <time>2020-07-11T10:42:47.605Z</time>
      </trkpt>
      <trkpt lat="44.27643" lon="5.10784">
        <ele>289</ele>
        <time>2020-07-11T10:42:48.605Z</time>
      </trkpt>
      <trkpt lat="44.27648" lon="5.10779">
        <ele>289</ele>
        <time>2020-07-11T10:42:49.605Z</time>
      </trkpt>
      <trkpt lat="44.27653" lon="5.10774">
        <ele>290</ele>
        <time>2020-07-11T10:42:50.605Z</time>
      </trkpt>
      <trkpt lat="44.27659" lon="5.1077">
        <ele>290</ele>
        <time>2020-07-11T10:42:51.605Z</time>
      </trkpt>
      <trkpt lat="44.27665" lon="5.10767">
        <ele>291</ele>
        <time>2020-07-11T10:42:52.605Z</time>
      </trkpt>
      <trkpt lat="44.27672" lon="5.10763">
        <ele>291</ele>
        <time>2020-07-11T10:42:53.604Z</time>
      </trkpt>
      <trkpt lat="44.27677" lon="5.1076">
        <ele>291</ele>
        <time>2020-07-11T10:42:54.605Z</time>
      </trkpt>
      <trkpt lat="44.27683" lon="5.10757">
        <ele>291</ele>
        <time>2020-07-11T10:42:55.604Z</time>
      </trkpt>
      <trkpt lat="44.27689" lon="5.10754">
        <ele>291</ele>
        <time>2020-07-11T10:42:56.605Z</time>
      </trkpt>
      <trkpt lat="44.27695" lon="5.10752">
        <ele>290</ele>
        <time>2020-07-11T10:42:57.605Z</time>
      </trkpt>
      <trkpt lat="44.27701" lon="5.10749">
        <ele>290</ele>
        <time>2020-07-11T10:42:58.605Z</time>
      </trkpt>
      <trkpt lat="44.27707" lon="5.10747">
        <ele>289</ele>
        <time>2020-07-11T10:42:59.605Z</time>
      </trkpt>
      <trkpt lat="44.27713" lon="5.10744">
        <ele>289</ele>
        <time>2020-07-11T10:43:00.605Z</time>
      </trkpt>
      <trkpt lat="44.27719" lon="5.10742">
        <ele>289</ele>
        <time>2020-07-11T10:43:01.604Z</time>
      </trkpt>
      <trkpt lat="44.27725" lon="5.10739">
        <ele>288</ele>
        <time>2020-07-11T10:43:02.605Z</time>
      </trkpt>
      <trkpt lat="44.27731" lon="5.10736">
        <ele>289</ele>
        <time>2020-07-11T10:43:03.605Z</time>
      </trkpt>
      <trkpt lat="44.27737" lon="5.10734">
        <ele>289</ele>
        <time>2020-07-11T10:43:04.604Z</time>
      </trkpt>
      <trkpt lat="44.27743" lon="5.10731">
        <ele>289</ele>
        <time>2020-07-11T10:43:05.605Z</time>
      </trkpt>
      <trkpt lat="44.27749" lon="5.10729">
        <ele>289</ele>
        <time>2020-07-11T10:43:06.605Z</time>
      </trkpt>
      <trkpt lat="44.27755" lon="5.10726">
        <ele>288</ele>
        <time>2020-07-11T10:43:07.604Z</time>
      </trkpt>
      <trkpt lat="44.27761" lon="5.10723">
        <ele>288</ele>
        <time>2020-07-11T10:43:08.605Z</time>
      </trkpt>
      <trkpt lat="44.27767" lon="5.1072">
        <ele>288</ele>
        <time>2020-07-11T10:43:09.605Z</time>
      </trkpt>
      <trkpt lat="44.27773" lon="5.10717">
        <ele>288</ele>
        <time>2020-07-11T10:43:10.605Z</time>
      </trkpt>
      <trkpt lat="44.27779" lon="5.10715">
        <ele>288</ele>
        <time>2020-07-11T10:43:11.605Z</time>
      </trkpt>
      <trkpt lat="44.27785" lon="5.10712">
        <ele>288</ele>
        <time>2020-07-11T10:43:12.605Z</time>
      </trkpt>
      <trkpt lat="44.27791" lon="5.10709">
        <ele>289</ele>
        <time>2020-07-11T10:43:13.605Z</time>
      </trkpt>
      <trkpt lat="44.27796" lon="5.10707">
        <ele>289</ele>
        <time>2020-07-11T10:43:14.605Z</time>
      </trkpt>
      <trkpt lat="44.27802" lon="5.10704">
        <ele>289</ele>
        <time>2020-07-11T10:43:15.605Z</time>
      </trkpt>
      <trkpt lat="44.27808" lon="5.10701">
        <ele>289</ele>
        <time>2020-07-11T10:43:16.605Z</time>
      </trkpt>
      <trkpt lat="44.27813" lon="5.10699">
        <ele>289</ele>
        <time>2020-07-11T10:43:17.605Z</time>
      </trkpt>
      <trkpt lat="44.27819" lon="5.10696">
        <ele>289</ele>
        <time>2020-07-11T10:43:18.605Z</time>
      </trkpt>
      <trkpt lat="44.27825" lon="5.10693">
        <ele>289</ele>
        <time>2020-07-11T10:43:19.604Z</time>
      </trkpt>
      <trkpt lat="44.27832" lon="5.1069">
        <ele>289</ele>
        <time>2020-07-11T10:43:20.605Z</time>
      </trkpt>
      <trkpt lat="44.27836" lon="5.10688">
        <ele>289</ele>
        <time>2020-07-11T10:43:21.605Z</time>
      </trkpt>
      <trkpt lat="44.27842" lon="5.10685">
        <ele>289</ele>
        <time>2020-07-11T10:43:22.604Z</time>
      </trkpt>
      <trkpt lat="44.27847" lon="5.10682">
        <ele>289</ele>
        <time>2020-07-11T10:43:23.605Z</time>
      </trkpt>
      <trkpt lat="44.27853" lon="5.10679">
        <ele>289</ele>
        <time>2020-07-11T10:43:24.605Z</time>
      </trkpt>
      <trkpt lat="44.27858" lon="5.10676">
        <ele>290</ele>
        <time>2020-07-11T10:43:25.605Z</time>
      </trkpt>
      <trkpt lat="44.27864" lon="5.10673">
        <ele>290</ele>
        <time>2020-07-11T10:43:26.605Z</time>
      </trkpt>
      <trkpt lat="44.27869" lon="5.10669">
        <ele>290</ele>
        <time>2020-07-11T10:43:27.605Z</time>
      </trkpt>
      <trkpt lat="44.27874" lon="5.10666">
        <ele>291</ele>
        <time>2020-07-11T10:43:28.605Z</time>
      </trkpt>
      <trkpt lat="44.2788" lon="5.10662">
        <ele>291</ele>
        <time>2020-07-11T10:43:29.605Z</time>
      </trkpt>
      <trkpt lat="44.27885" lon="5.10658">
        <ele>291</ele>
        <time>2020-07-11T10:43:30.604Z</time>
      </trkpt>
      <trkpt lat="44.2789" lon="5.10654">
        <ele>291</ele>
        <time>2020-07-11T10:43:31.605Z</time>
      </trkpt>
      <trkpt lat="44.27895" lon="5.1065">
        <ele>292</ele>
        <time>2020-07-11T10:43:32.605Z</time>
      </trkpt>
      <trkpt lat="44.279" lon="5.10647">
        <ele>292</ele>
        <time>2020-07-11T10:43:33.605Z</time>
      </trkpt>
      <trkpt lat="44.27906" lon="5.10643">
        <ele>292</ele>
        <time>2020-07-11T10:43:34.605Z</time>
      </trkpt>
      <trkpt lat="44.27911" lon="5.10639">
        <ele>292</ele>
        <time>2020-07-11T10:43:35.605Z</time>
      </trkpt>
      <trkpt lat="44.27916" lon="5.10635">
        <ele>292</ele>
        <time>2020-07-11T10:43:36.605Z</time>
      </trkpt>
      <trkpt lat="44.27921" lon="5.10632">
        <ele>292</ele>
        <time>2020-07-11T10:43:37.605Z</time>
      </trkpt>
      <trkpt lat="44.27926" lon="5.10628">
        <ele>292</ele>
        <time>2020-07-11T10:43:38.605Z</time>
      </trkpt>
      <trkpt lat="44.27931" lon="5.10625">
        <ele>291</ele>
        <time>2020-07-11T10:43:39.605Z</time>
      </trkpt>
      <trkpt lat="44.27936" lon="5.1062">
        <ele>291</ele>
        <time>2020-07-11T10:43:40.605Z</time>
      </trkpt>
      <trkpt lat="44.2794" lon="5.10618">
        <ele>291</ele>
        <time>2020-07-11T10:43:41.605Z</time>
      </trkpt>
      <trkpt lat="44.27945" lon="5.10614">
        <ele>291</ele>
        <time>2020-07-11T10:43:42.605Z</time>
      </trkpt>
      <trkpt lat="44.2795" lon="5.1061">
        <ele>292</ele>
        <time>2020-07-11T10:43:43.605Z</time>
      </trkpt>
      <trkpt lat="44.27954" lon="5.10607">
        <ele>292</ele>
        <time>2020-07-11T10:43:44.605Z</time>
      </trkpt>
      <trkpt lat="44.27959" lon="5.10603">
        <ele>293</ele>
        <time>2020-07-11T10:43:45.605Z</time>
      </trkpt>
      <trkpt lat="44.27964" lon="5.106">
        <ele>293</ele>
        <time>2020-07-11T10:43:46.605Z</time>
      </trkpt>
      <trkpt lat="44.27968" lon="5.10596">
        <ele>293</ele>
        <time>2020-07-11T10:43:47.605Z</time>
      </trkpt>
      <trkpt lat="44.27973" lon="5.10593">
        <ele>293</ele>
        <time>2020-07-11T10:43:48.604Z</time>
      </trkpt>
      <trkpt lat="44.27977" lon="5.10589">
        <ele>294</ele>
        <time>2020-07-11T10:43:49.605Z</time>
      </trkpt>
      <trkpt lat="44.27982" lon="5.10586">
        <ele>294</ele>
        <time>2020-07-11T10:43:50.605Z</time>
      </trkpt>
      <trkpt lat="44.27987" lon="5.10583">
        <ele>295</ele>
        <time>2020-07-11T10:43:51.605Z</time>
      </trkpt>
      <trkpt lat="44.27991" lon="5.10579">
        <ele>295</ele>
        <time>2020-07-11T10:43:52.605Z</time>
      </trkpt>
      <trkpt lat="44.27996" lon="5.10576">
        <ele>296</ele>
        <time>2020-07-11T10:43:53.605Z</time>
      </trkpt>
      <trkpt lat="44.28001" lon="5.10572">
        <ele>296</ele>
        <time>2020-07-11T10:43:54.605Z</time>
      </trkpt>
      <trkpt lat="44.28006" lon="5.10569">
        <ele>296</ele>
        <time>2020-07-11T10:43:55.605Z</time>
      </trkpt>
      <trkpt lat="44.28011" lon="5.10566">
        <ele>296</ele>
        <time>2020-07-11T10:43:56.605Z</time>
      </trkpt>
      <trkpt lat="44.28016" lon="5.10563">
        <ele>296</ele>
        <time>2020-07-11T10:43:57.605Z</time>
      </trkpt>
      <trkpt lat="44.28021" lon="5.1056">
        <ele>296</ele>
        <time>2020-07-11T10:43:58.605Z</time>
      </trkpt>
      <trkpt lat="44.28026" lon="5.10558">
        <ele>296</ele>
        <time>2020-07-11T10:43:59.605Z</time>
      </trkpt>
      <trkpt lat="44.28031" lon="5.10556">
        <ele>297</ele>
        <time>2020-07-11T10:44:00.605Z</time>
      </trkpt>
      <trkpt lat="44.28036" lon="5.10554">
        <ele>297</ele>
        <time>2020-07-11T10:44:01.605Z</time>
      </trkpt>
      <trkpt lat="44.28041" lon="5.10552">
        <ele>297</ele>
        <time>2020-07-11T10:44:02.605Z</time>
      </trkpt>
      <trkpt lat="44.28047" lon="5.1055">
        <ele>297</ele>
        <time>2020-07-11T10:44:03.605Z</time>
      </trkpt>
      <trkpt lat="44.28052" lon="5.10549">
        <ele>297</ele>
        <time>2020-07-11T10:44:04.605Z</time>
      </trkpt>
      <trkpt lat="44.28058" lon="5.10549">
        <ele>298</ele>
        <time>2020-07-11T10:44:05.605Z</time>
      </trkpt>
      <trkpt lat="44.28064" lon="5.10548">
        <ele>298</ele>
        <time>2020-07-11T10:44:06.605Z</time>
      </trkpt>
      <trkpt lat="44.28069" lon="5.10548">
        <ele>298</ele>
        <time>2020-07-11T10:44:07.605Z</time>
      </trkpt>
      <trkpt lat="44.28076" lon="5.10548">
        <ele>298</ele>
        <time>2020-07-11T10:44:08.605Z</time>
      </trkpt>
      <trkpt lat="44.28082" lon="5.10548">
        <ele>298</ele>
        <time>2020-07-11T10:44:09.605Z</time>
      </trkpt>
      <trkpt lat="44.28088" lon="5.10549">
        <ele>298</ele>
        <time>2020-07-11T10:44:10.604Z</time>
      </trkpt>
      <trkpt lat="44.28092" lon="5.1055">
        <ele>298</ele>
        <time>2020-07-11T10:44:11.604Z</time>
      </trkpt>
      <trkpt lat="44.28099" lon="5.10552">
        <ele>298</ele>
        <time>2020-07-11T10:44:12.605Z</time>
      </trkpt>
      <trkpt lat="44.28105" lon="5.10554">
        <ele>297</ele>
        <time>2020-07-11T10:44:13.605Z</time>
      </trkpt>
      <trkpt lat="44.2811" lon="5.10555">
        <ele>297</ele>
        <time>2020-07-11T10:44:14.604Z</time>
      </trkpt>
      <trkpt lat="44.28116" lon="5.10557">
        <ele>298</ele>
        <time>2020-07-11T10:44:15.605Z</time>
      </trkpt>
      <trkpt lat="44.28122" lon="5.10559">
        <ele>298</ele>
        <time>2020-07-11T10:44:16.604Z</time>
      </trkpt>
      <trkpt lat="44.28128" lon="5.10562">
        <ele>298</ele>
        <time>2020-07-11T10:44:17.605Z</time>
      </trkpt>
      <trkpt lat="44.28134" lon="5.10564">
        <ele>298</ele>
        <time>2020-07-11T10:44:18.605Z</time>
      </trkpt>
      <trkpt lat="44.2814" lon="5.10566">
        <ele>299</ele>
        <time>2020-07-11T10:44:19.605Z</time>
      </trkpt>
      <trkpt lat="44.28145" lon="5.10569">
        <ele>299</ele>
        <time>2020-07-11T10:44:20.604Z</time>
      </trkpt>
      <trkpt lat="44.28151" lon="5.10571">
        <ele>299</ele>
        <time>2020-07-11T10:44:21.604Z</time>
      </trkpt>
      <trkpt lat="44.28157" lon="5.10573">
        <ele>299</ele>
        <time>2020-07-11T10:44:22.604Z</time>
      </trkpt>
      <trkpt lat="44.28163" lon="5.10576">
        <ele>299</ele>
        <time>2020-07-11T10:44:23.605Z</time>
      </trkpt>
      <trkpt lat="44.28168" lon="5.10578">
        <ele>299</ele>
        <time>2020-07-11T10:44:24.605Z</time>
      </trkpt>
      <trkpt lat="44.28174" lon="5.10581">
        <ele>298</ele>
        <time>2020-07-11T10:44:25.605Z</time>
      </trkpt>
      <trkpt lat="44.28181" lon="5.10583">
        <ele>298</ele>
        <time>2020-07-11T10:44:26.604Z</time>
      </trkpt>
      <trkpt lat="44.28187" lon="5.10586">
        <ele>298</ele>
        <time>2020-07-11T10:44:27.605Z</time>
      </trkpt>
      <trkpt lat="44.28193" lon="5.10588">
        <ele>297</ele>
        <time>2020-07-11T10:44:28.605Z</time>
      </trkpt>
      <trkpt lat="44.28199" lon="5.10591">
        <ele>297</ele>
        <time>2020-07-11T10:44:29.605Z</time>
      </trkpt>
      <trkpt lat="44.28206" lon="5.10594">
        <ele>297</ele>
        <time>2020-07-11T10:44:30.605Z</time>
      </trkpt>
      <trkpt lat="44.28212" lon="5.10596">
        <ele>297</ele>
        <time>2020-07-11T10:44:31.604Z</time>
      </trkpt>
      <trkpt lat="44.28218" lon="5.10599">
        <ele>297</ele>
        <time>2020-07-11T10:44:32.605Z</time>
      </trkpt>
      <trkpt lat="44.28225" lon="5.10601">
        <ele>297</ele>
        <time>2020-07-11T10:44:33.605Z</time>
      </trkpt>
      <trkpt lat="44.28233" lon="5.10604">
        <ele>297</ele>
        <time>2020-07-11T10:44:34.605Z</time>
      </trkpt>
      <trkpt lat="44.28239" lon="5.10607">
        <ele>297</ele>
        <time>2020-07-11T10:44:35.605Z</time>
      </trkpt>
      <trkpt lat="44.28246" lon="5.1061">
        <ele>297</ele>
        <time>2020-07-11T10:44:36.604Z</time>
      </trkpt>
      <trkpt lat="44.28252" lon="5.10612">
        <ele>297</ele>
        <time>2020-07-11T10:44:37.605Z</time>
      </trkpt>
      <trkpt lat="44.28258" lon="5.10615">
        <ele>297</ele>
        <time>2020-07-11T10:44:38.605Z</time>
      </trkpt>
      <trkpt lat="44.28265" lon="5.10617">
        <ele>298</ele>
        <time>2020-07-11T10:44:39.605Z</time>
      </trkpt>
      <trkpt lat="44.28271" lon="5.10619">
        <ele>298</ele>
        <time>2020-07-11T10:44:40.605Z</time>
      </trkpt>
      <trkpt lat="44.28279" lon="5.10622">
        <ele>298</ele>
        <time>2020-07-11T10:44:41.605Z</time>
      </trkpt>
      <trkpt lat="44.28285" lon="5.10623">
        <ele>297</ele>
        <time>2020-07-11T10:44:42.605Z</time>
      </trkpt>
      <trkpt lat="44.2829" lon="5.10625">
        <ele>298</ele>
        <time>2020-07-11T10:44:43.605Z</time>
      </trkpt>
      <trkpt lat="44.28296" lon="5.10626">
        <ele>298</ele>
        <time>2020-07-11T10:44:44.605Z</time>
      </trkpt>
      <trkpt lat="44.28303" lon="5.10627">
        <ele>299</ele>
        <time>2020-07-11T10:44:45.604Z</time>
      </trkpt>
      <trkpt lat="44.28309" lon="5.10629">
        <ele>299</ele>
        <time>2020-07-11T10:44:46.605Z</time>
      </trkpt>
      <trkpt lat="44.28317" lon="5.1063">
        <ele>299</ele>
        <time>2020-07-11T10:44:47.604Z</time>
      </trkpt>
      <trkpt lat="44.28322" lon="5.10631">
        <ele>299</ele>
        <time>2020-07-11T10:44:48.605Z</time>
      </trkpt>
      <trkpt lat="44.28328" lon="5.10631">
        <ele>300</ele>
        <time>2020-07-11T10:44:49.604Z</time>
      </trkpt>
      <trkpt lat="44.28334" lon="5.10631">
        <ele>300</ele>
        <time>2020-07-11T10:44:50.605Z</time>
      </trkpt>
      <trkpt lat="44.28341" lon="5.10632">
        <ele>301</ele>
        <time>2020-07-11T10:44:51.604Z</time>
      </trkpt>
      <trkpt lat="44.28347" lon="5.10632">
        <ele>301</ele>
        <time>2020-07-11T10:44:52.605Z</time>
      </trkpt>
      <trkpt lat="44.28353" lon="5.10633">
        <ele>301</ele>
        <time>2020-07-11T10:44:53.605Z</time>
      </trkpt>
      <trkpt lat="44.28359" lon="5.10633">
        <ele>302</ele>
        <time>2020-07-11T10:44:54.605Z</time>
      </trkpt>
      <trkpt lat="44.28365" lon="5.10632">
        <ele>302</ele>
        <time>2020-07-11T10:44:55.605Z</time>
      </trkpt>
      <trkpt lat="44.28371" lon="5.10632">
        <ele>302</ele>
        <time>2020-07-11T10:44:56.605Z</time>
      </trkpt>
      <trkpt lat="44.28377" lon="5.10631">
        <ele>302</ele>
        <time>2020-07-11T10:44:57.605Z</time>
      </trkpt>
      <trkpt lat="44.28382" lon="5.1063">
        <ele>302</ele>
        <time>2020-07-11T10:44:58.605Z</time>
      </trkpt>
      <trkpt lat="44.28388" lon="5.10629">
        <ele>302</ele>
        <time>2020-07-11T10:44:59.605Z</time>
      </trkpt>
      <trkpt lat="44.28394" lon="5.10627">
        <ele>301</ele>
        <time>2020-07-11T10:45:00.605Z</time>
      </trkpt>
      <trkpt lat="44.284" lon="5.10626">
        <ele>302</ele>
        <time>2020-07-11T10:45:01.604Z</time>
      </trkpt>
      <trkpt lat="44.28404" lon="5.10624">
        <ele>302</ele>
        <time>2020-07-11T10:45:02.605Z</time>
      </trkpt>
      <trkpt lat="44.2841" lon="5.10622">
        <ele>302</ele>
        <time>2020-07-11T10:45:03.605Z</time>
      </trkpt>
      <trkpt lat="44.28417" lon="5.1062">
        <ele>301</ele>
        <time>2020-07-11T10:45:04.605Z</time>
      </trkpt>
      <trkpt lat="44.28422" lon="5.10617">
        <ele>301</ele>
        <time>2020-07-11T10:45:05.605Z</time>
      </trkpt>
      <trkpt lat="44.28428" lon="5.10615">
        <ele>301</ele>
        <time>2020-07-11T10:45:06.605Z</time>
      </trkpt>
      <trkpt lat="44.28432" lon="5.10613">
        <ele>301</ele>
        <time>2020-07-11T10:45:07.605Z</time>
      </trkpt>
      <trkpt lat="44.28438" lon="5.10611">
        <ele>301</ele>
        <time>2020-07-11T10:45:08.604Z</time>
      </trkpt>
      <trkpt lat="44.28445" lon="5.10608">
        <ele>301</ele>
        <time>2020-07-11T10:45:09.605Z</time>
      </trkpt>
      <trkpt lat="44.28451" lon="5.10605">
        <ele>301</ele>
        <time>2020-07-11T10:45:10.605Z</time>
      </trkpt>
      <trkpt lat="44.28456" lon="5.10603">
        <ele>301</ele>
        <time>2020-07-11T10:45:11.604Z</time>
      </trkpt>
      <trkpt lat="44.28462" lon="5.10601">
        <ele>301</ele>
        <time>2020-07-11T10:45:12.605Z</time>
      </trkpt>
      <trkpt lat="44.28468" lon="5.10598">
        <ele>302</ele>
        <time>2020-07-11T10:45:13.604Z</time>
      </trkpt>
      <trkpt lat="44.28475" lon="5.10595">
        <ele>302</ele>
        <time>2020-07-11T10:45:14.605Z</time>
      </trkpt>
      <trkpt lat="44.28482" lon="5.10593">
        <ele>302</ele>
        <time>2020-07-11T10:45:15.605Z</time>
      </trkpt>
      <trkpt lat="44.28488" lon="5.1059">
        <ele>302</ele>
        <time>2020-07-11T10:45:16.605Z</time>
      </trkpt>
      <trkpt lat="44.28494" lon="5.10587">
        <ele>303</ele>
        <time>2020-07-11T10:45:17.605Z</time>
      </trkpt>
      <trkpt lat="44.28499" lon="5.10584">
        <ele>303</ele>
        <time>2020-07-11T10:45:18.605Z</time>
      </trkpt>
      <trkpt lat="44.28507" lon="5.10582">
        <ele>303</ele>
        <time>2020-07-11T10:45:19.605Z</time>
      </trkpt>
      <trkpt lat="44.28513" lon="5.10579">
        <ele>303</ele>
        <time>2020-07-11T10:45:20.605Z</time>
      </trkpt>
      <trkpt lat="44.2852" lon="5.10577">
        <ele>303</ele>
        <time>2020-07-11T10:45:21.605Z</time>
      </trkpt>
      <trkpt lat="44.28525" lon="5.10574">
        <ele>304</ele>
        <time>2020-07-11T10:45:22.604Z</time>
      </trkpt>
      <trkpt lat="44.28533" lon="5.10571">
        <ele>304</ele>
        <time>2020-07-11T10:45:23.605Z</time>
      </trkpt>
      <trkpt lat="44.2854" lon="5.10569">
        <ele>303</ele>
        <time>2020-07-11T10:45:24.605Z</time>
      </trkpt>
      <trkpt lat="44.28547" lon="5.10566">
        <ele>303</ele>
        <time>2020-07-11T10:45:25.605Z</time>
      </trkpt>
      <trkpt lat="44.28553" lon="5.10564">
        <ele>303</ele>
        <time>2020-07-11T10:45:26.605Z</time>
      </trkpt>
      <trkpt lat="44.2856" lon="5.10561">
        <ele>302</ele>
        <time>2020-07-11T10:45:27.605Z</time>
      </trkpt>
      <trkpt lat="44.28567" lon="5.10558">
        <ele>302</ele>
        <time>2020-07-11T10:45:28.605Z</time>
      </trkpt>
      <trkpt lat="44.28574" lon="5.10555">
        <ele>303</ele>
        <time>2020-07-11T10:45:29.605Z</time>
      </trkpt>
      <trkpt lat="44.28581" lon="5.10553">
        <ele>302</ele>
        <time>2020-07-11T10:45:30.605Z</time>
      </trkpt>
      <trkpt lat="44.28589" lon="5.1055">
        <ele>302</ele>
        <time>2020-07-11T10:45:31.605Z</time>
      </trkpt>
      <trkpt lat="44.28596" lon="5.10547">
        <ele>302</ele>
        <time>2020-07-11T10:45:32.605Z</time>
      </trkpt>
      <trkpt lat="44.28603" lon="5.10544">
        <ele>302</ele>
        <time>2020-07-11T10:45:33.605Z</time>
      </trkpt>
      <trkpt lat="44.28611" lon="5.10541">
        <ele>302</ele>
        <time>2020-07-11T10:45:34.605Z</time>
      </trkpt>
      <trkpt lat="44.28618" lon="5.10538">
        <ele>302</ele>
        <time>2020-07-11T10:45:35.605Z</time>
      </trkpt>
      <trkpt lat="44.28626" lon="5.10534">
        <ele>302</ele>
        <time>2020-07-11T10:45:36.605Z</time>
      </trkpt>
      <trkpt lat="44.28634" lon="5.10531">
        <ele>301</ele>
        <time>2020-07-11T10:45:37.605Z</time>
      </trkpt>
      <trkpt lat="44.28642" lon="5.10528">
        <ele>301</ele>
        <time>2020-07-11T10:45:38.605Z</time>
      </trkpt>
      <trkpt lat="44.2865" lon="5.10525">
        <ele>301</ele>
        <time>2020-07-11T10:45:39.605Z</time>
      </trkpt>
      <trkpt lat="44.28659" lon="5.10521">
        <ele>301</ele>
        <time>2020-07-11T10:45:40.605Z</time>
      </trkpt>
      <trkpt lat="44.28665" lon="5.10518">
        <ele>301</ele>
        <time>2020-07-11T10:45:41.604Z</time>
      </trkpt>
      <trkpt lat="44.28673" lon="5.10515">
        <ele>300</ele>
        <time>2020-07-11T10:45:42.605Z</time>
      </trkpt>
      <trkpt lat="44.28681" lon="5.10512">
        <ele>300</ele>
        <time>2020-07-11T10:45:43.605Z</time>
      </trkpt>
      <trkpt lat="44.28689" lon="5.10509">
        <ele>299</ele>
        <time>2020-07-11T10:45:44.605Z</time>
      </trkpt>
      <trkpt lat="44.28697" lon="5.10506">
        <ele>299</ele>
        <time>2020-07-11T10:45:45.605Z</time>
      </trkpt>
      <trkpt lat="44.28705" lon="5.10503">
        <ele>298</ele>
        <time>2020-07-11T10:45:46.605Z</time>
      </trkpt>
      <trkpt lat="44.28714" lon="5.10499">
        <ele>298</ele>
        <time>2020-07-11T10:45:47.605Z</time>
      </trkpt>
      <trkpt lat="44.28722" lon="5.10496">
        <ele>297</ele>
        <time>2020-07-11T10:45:48.605Z</time>
      </trkpt>
      <trkpt lat="44.2873" lon="5.10493">
        <ele>297</ele>
        <time>2020-07-11T10:45:49.605Z</time>
      </trkpt>
      <trkpt lat="44.28738" lon="5.1049">
        <ele>297</ele>
        <time>2020-07-11T10:45:50.605Z</time>
      </trkpt>
      <trkpt lat="44.28746" lon="5.10486">
        <ele>296</ele>
        <time>2020-07-11T10:45:51.604Z</time>
      </trkpt>
      <trkpt lat="44.28755" lon="5.10483">
        <ele>296</ele>
        <time>2020-07-11T10:45:52.605Z</time>
      </trkpt>
      <trkpt lat="44.28763" lon="5.10479">
        <ele>295</ele>
        <time>2020-07-11T10:45:53.604Z</time>
      </trkpt>
      <trkpt lat="44.28772" lon="5.10476">
        <ele>295</ele>
        <time>2020-07-11T10:45:54.605Z</time>
      </trkpt>
      <trkpt lat="44.28781" lon="5.10473">
        <ele>294</ele>
        <time>2020-07-11T10:45:55.605Z</time>
      </trkpt>
      <trkpt lat="44.2879" lon="5.10469">
        <ele>294</ele>
        <time>2020-07-11T10:45:56.605Z</time>
      </trkpt>
      <trkpt lat="44.28798" lon="5.10466">
        <ele>294</ele>
        <time>2020-07-11T10:45:57.605Z</time>
      </trkpt>
      <trkpt lat="44.28807" lon="5.10462">
        <ele>294</ele>
        <time>2020-07-11T10:45:58.605Z</time>
      </trkpt>
      <trkpt lat="44.28815" lon="5.10458">
        <ele>294</ele>
        <time>2020-07-11T10:45:59.605Z</time>
      </trkpt>
      <trkpt lat="44.28824" lon="5.10455">
        <ele>294</ele>
        <time>2020-07-11T10:46:00.604Z</time>
      </trkpt>
      <trkpt lat="44.28833" lon="5.10452">
        <ele>294</ele>
        <time>2020-07-11T10:46:01.605Z</time>
      </trkpt>
      <trkpt lat="44.28841" lon="5.10448">
        <ele>293</ele>
        <time>2020-07-11T10:46:02.605Z</time>
      </trkpt>
      <trkpt lat="44.28849" lon="5.10444">
        <ele>293</ele>
        <time>2020-07-11T10:46:03.605Z</time>
      </trkpt>
      <trkpt lat="44.28858" lon="5.1044">
        <ele>293</ele>
        <time>2020-07-11T10:46:04.604Z</time>
      </trkpt>
      <trkpt lat="44.28866" lon="5.10437">
        <ele>292</ele>
        <time>2020-07-11T10:46:05.604Z</time>
      </trkpt>
      <trkpt lat="44.28874" lon="5.10432">
        <ele>292</ele>
        <time>2020-07-11T10:46:06.605Z</time>
      </trkpt>
      <trkpt lat="44.28882" lon="5.10428">
        <ele>292</ele>
        <time>2020-07-11T10:46:07.604Z</time>
      </trkpt>
      <trkpt lat="44.28889" lon="5.10424">
        <ele>292</ele>
        <time>2020-07-11T10:46:08.604Z</time>
      </trkpt>
      <trkpt lat="44.28897" lon="5.1042">
        <ele>293</ele>
        <time>2020-07-11T10:46:09.605Z</time>
      </trkpt>
      <trkpt lat="44.28904" lon="5.10416">
        <ele>293</ele>
        <time>2020-07-11T10:46:10.604Z</time>
      </trkpt>
      <trkpt lat="44.28912" lon="5.10412">
        <ele>293</ele>
        <time>2020-07-11T10:46:11.605Z</time>
      </trkpt>
      <trkpt lat="44.28919" lon="5.10408">
        <ele>292</ele>
        <time>2020-07-11T10:46:12.605Z</time>
      </trkpt>
      <trkpt lat="44.28927" lon="5.10403">
        <ele>292</ele>
        <time>2020-07-11T10:46:13.604Z</time>
      </trkpt>
      <trkpt lat="44.28934" lon="5.10399">
        <ele>292</ele>
        <time>2020-07-11T10:46:14.604Z</time>
      </trkpt>
      <trkpt lat="44.28941" lon="5.10395">
        <ele>292</ele>
        <time>2020-07-11T10:46:15.604Z</time>
      </trkpt>
      <trkpt lat="44.28949" lon="5.10391">
        <ele>292</ele>
        <time>2020-07-11T10:46:16.604Z</time>
      </trkpt>
      <trkpt lat="44.28957" lon="5.10386">
        <ele>292</ele>
        <time>2020-07-11T10:46:17.604Z</time>
      </trkpt>
      <trkpt lat="44.28964" lon="5.10382">
        <ele>292</ele>
        <time>2020-07-11T10:46:18.605Z</time>
      </trkpt>
      <trkpt lat="44.28972" lon="5.10377">
        <ele>291</ele>
        <time>2020-07-11T10:46:19.605Z</time>
      </trkpt>
      <trkpt lat="44.28979" lon="5.10373">
        <ele>291</ele>
        <time>2020-07-11T10:46:20.605Z</time>
      </trkpt>
      <trkpt lat="44.28987" lon="5.10369">
        <ele>291</ele>
        <time>2020-07-11T10:46:21.605Z</time>
      </trkpt>
      <trkpt lat="44.28995" lon="5.10364">
        <ele>291</ele>
        <time>2020-07-11T10:46:22.604Z</time>
      </trkpt>
      <trkpt lat="44.29002" lon="5.1036">
        <ele>290</ele>
        <time>2020-07-11T10:46:23.605Z</time>
      </trkpt>
      <trkpt lat="44.2901" lon="5.10356">
        <ele>290</ele>
        <time>2020-07-11T10:46:24.605Z</time>
      </trkpt>
      <trkpt lat="44.29018" lon="5.10351">
        <ele>290</ele>
        <time>2020-07-11T10:46:25.605Z</time>
      </trkpt>
      <trkpt lat="44.29026" lon="5.10347">
        <ele>289</ele>
        <time>2020-07-11T10:46:26.605Z</time>
      </trkpt>
      <trkpt lat="44.29033" lon="5.10343">
        <ele>289</ele>
        <time>2020-07-11T10:46:27.605Z</time>
      </trkpt>
      <trkpt lat="44.29041" lon="5.10338">
        <ele>288</ele>
        <time>2020-07-11T10:46:28.605Z</time>
      </trkpt>
      <trkpt lat="44.29048" lon="5.10334">
        <ele>288</ele>
        <time>2020-07-11T10:46:29.605Z</time>
      </trkpt>
      <trkpt lat="44.29056" lon="5.1033">
        <ele>288</ele>
        <time>2020-07-11T10:46:30.605Z</time>
      </trkpt>
      <trkpt lat="44.29063" lon="5.10326">
        <ele>287</ele>
        <time>2020-07-11T10:46:31.605Z</time>
      </trkpt>
      <trkpt lat="44.29071" lon="5.10321">
        <ele>287</ele>
        <time>2020-07-11T10:46:32.605Z</time>
      </trkpt>
      <trkpt lat="44.29078" lon="5.10317">
        <ele>287</ele>
        <time>2020-07-11T10:46:33.605Z</time>
      </trkpt>
      <trkpt lat="44.29086" lon="5.10314">
        <ele>287</ele>
        <time>2020-07-11T10:46:34.604Z</time>
      </trkpt>
      <trkpt lat="44.29093" lon="5.1031">
        <ele>287</ele>
        <time>2020-07-11T10:46:35.605Z</time>
      </trkpt>
      <trkpt lat="44.29099" lon="5.10306">
        <ele>287</ele>
        <time>2020-07-11T10:46:36.605Z</time>
      </trkpt>
      <trkpt lat="44.29106" lon="5.10302">
        <ele>287</ele>
        <time>2020-07-11T10:46:37.605Z</time>
      </trkpt>
      <trkpt lat="44.29113" lon="5.10298">
        <ele>287</ele>
        <time>2020-07-11T10:46:38.605Z</time>
      </trkpt>
      <trkpt lat="44.2912" lon="5.10294">
        <ele>287</ele>
        <time>2020-07-11T10:46:39.604Z</time>
      </trkpt>
      <trkpt lat="44.29128" lon="5.1029">
        <ele>287</ele>
        <time>2020-07-11T10:46:40.605Z</time>
      </trkpt>
      <trkpt lat="44.29135" lon="5.10286">
        <ele>287</ele>
        <time>2020-07-11T10:46:41.604Z</time>
      </trkpt>
      <trkpt lat="44.29142" lon="5.10281">
        <ele>287</ele>
        <time>2020-07-11T10:46:42.604Z</time>
      </trkpt>
      <trkpt lat="44.2915" lon="5.10277">
        <ele>287</ele>
        <time>2020-07-11T10:46:43.605Z</time>
      </trkpt>
      <trkpt lat="44.29158" lon="5.10272">
        <ele>287</ele>
        <time>2020-07-11T10:46:44.605Z</time>
      </trkpt>
      <trkpt lat="44.29166" lon="5.10268">
        <ele>287</ele>
        <time>2020-07-11T10:46:45.605Z</time>
      </trkpt>
      <trkpt lat="44.29174" lon="5.10264">
        <ele>286</ele>
        <time>2020-07-11T10:46:46.605Z</time>
      </trkpt>
      <trkpt lat="44.29182" lon="5.1026">
        <ele>286</ele>
        <time>2020-07-11T10:46:47.605Z</time>
      </trkpt>
      <trkpt lat="44.2919" lon="5.10255">
        <ele>286</ele>
        <time>2020-07-11T10:46:48.605Z</time>
      </trkpt>
      <trkpt lat="44.29198" lon="5.1025">
        <ele>285</ele>
        <time>2020-07-11T10:46:49.605Z</time>
      </trkpt>
      <trkpt lat="44.29206" lon="5.10246">
        <ele>285</ele>
        <time>2020-07-11T10:46:50.605Z</time>
      </trkpt>
      <trkpt lat="44.29214" lon="5.10241">
        <ele>285</ele>
        <time>2020-07-11T10:46:51.605Z</time>
      </trkpt>
      <trkpt lat="44.29223" lon="5.10237">
        <ele>285</ele>
        <time>2020-07-11T10:46:52.605Z</time>
      </trkpt>
      <trkpt lat="44.29231" lon="5.10232">
        <ele>284</ele>
        <time>2020-07-11T10:46:53.605Z</time>
      </trkpt>
      <trkpt lat="44.29239" lon="5.10227">
        <ele>284</ele>
        <time>2020-07-11T10:46:54.605Z</time>
      </trkpt>
      <trkpt lat="44.29247" lon="5.10223">
        <ele>284</ele>
        <time>2020-07-11T10:46:55.605Z</time>
      </trkpt>
      <trkpt lat="44.29255" lon="5.10219">
        <ele>283</ele>
        <time>2020-07-11T10:46:56.605Z</time>
      </trkpt>
      <trkpt lat="44.29263" lon="5.10215">
        <ele>283</ele>
        <time>2020-07-11T10:46:57.605Z</time>
      </trkpt>
      <trkpt lat="44.29271" lon="5.1021">
        <ele>283</ele>
        <time>2020-07-11T10:46:58.605Z</time>
      </trkpt>
      <trkpt lat="44.29279" lon="5.10205">
        <ele>282</ele>
        <time>2020-07-11T10:46:59.605Z</time>
      </trkpt>
      <trkpt lat="44.29287" lon="5.10201">
        <ele>282</ele>
        <time>2020-07-11T10:47:00.605Z</time>
      </trkpt>
      <trkpt lat="44.29295" lon="5.10196">
        <ele>282</ele>
        <time>2020-07-11T10:47:01.605Z</time>
      </trkpt>
      <trkpt lat="44.29303" lon="5.10191">
        <ele>282</ele>
        <time>2020-07-11T10:47:02.605Z</time>
      </trkpt>
      <trkpt lat="44.29312" lon="5.10186">
        <ele>281</ele>
        <time>2020-07-11T10:47:03.605Z</time>
      </trkpt>
      <trkpt lat="44.2932" lon="5.10182">
        <ele>281</ele>
        <time>2020-07-11T10:47:04.605Z</time>
      </trkpt>
      <trkpt lat="44.29328" lon="5.10177">
        <ele>282</ele>
        <time>2020-07-11T10:47:05.605Z</time>
      </trkpt>
      <trkpt lat="44.29336" lon="5.10173">
        <ele>281</ele>
        <time>2020-07-11T10:47:06.605Z</time>
      </trkpt>
      <trkpt lat="44.29344" lon="5.10168">
        <ele>281</ele>
        <time>2020-07-11T10:47:07.605Z</time>
      </trkpt>
      <trkpt lat="44.29352" lon="5.10163">
        <ele>281</ele>
        <time>2020-07-11T10:47:08.604Z</time>
      </trkpt>
      <trkpt lat="44.2936" lon="5.10159">
        <ele>281</ele>
        <time>2020-07-11T10:47:09.605Z</time>
      </trkpt>
      <trkpt lat="44.29368" lon="5.10155">
        <ele>281</ele>
        <time>2020-07-11T10:47:10.604Z</time>
      </trkpt>
      <trkpt lat="44.29376" lon="5.1015">
        <ele>281</ele>
        <time>2020-07-11T10:47:11.605Z</time>
      </trkpt>
      <trkpt lat="44.29384" lon="5.10146">
        <ele>281</ele>
        <time>2020-07-11T10:47:12.605Z</time>
      </trkpt>
      <trkpt lat="44.29391" lon="5.10141">
        <ele>281</ele>
        <time>2020-07-11T10:47:13.605Z</time>
      </trkpt>
      <trkpt lat="44.29399" lon="5.10137">
        <ele>281</ele>
        <time>2020-07-11T10:47:14.604Z</time>
      </trkpt>
      <trkpt lat="44.29407" lon="5.10133">
        <ele>281</ele>
        <time>2020-07-11T10:47:15.605Z</time>
      </trkpt>
      <trkpt lat="44.29414" lon="5.1013">
        <ele>280</ele>
        <time>2020-07-11T10:47:16.605Z</time>
      </trkpt>
      <trkpt lat="44.29422" lon="5.10127">
        <ele>280</ele>
        <time>2020-07-11T10:47:17.605Z</time>
      </trkpt>
      <trkpt lat="44.29431" lon="5.10125">
        <ele>279</ele>
        <time>2020-07-11T10:47:18.605Z</time>
      </trkpt>
      <trkpt lat="44.29439" lon="5.10124">
        <ele>279</ele>
        <time>2020-07-11T10:47:19.604Z</time>
      </trkpt>
      <trkpt lat="44.29447" lon="5.10122">
        <ele>279</ele>
        <time>2020-07-11T10:47:20.605Z</time>
      </trkpt>
      <trkpt lat="44.29455" lon="5.10121">
        <ele>278</ele>
        <time>2020-07-11T10:47:21.605Z</time>
      </trkpt>
      <trkpt lat="44.29464" lon="5.10121">
        <ele>278</ele>
        <time>2020-07-11T10:47:22.604Z</time>
      </trkpt>
      <trkpt lat="44.29472" lon="5.1012">
        <ele>277</ele>
        <time>2020-07-11T10:47:23.605Z</time>
      </trkpt>
      <trkpt lat="44.2948" lon="5.1012">
        <ele>277</ele>
        <time>2020-07-11T10:47:24.605Z</time>
      </trkpt>
      <trkpt lat="44.29488" lon="5.1012">
        <ele>277</ele>
        <time>2020-07-11T10:47:25.605Z</time>
      </trkpt>
      <trkpt lat="44.29496" lon="5.10119">
        <ele>277</ele>
        <time>2020-07-11T10:47:26.605Z</time>
      </trkpt>
      <trkpt lat="44.29504" lon="5.10119">
        <ele>277</ele>
        <time>2020-07-11T10:47:27.605Z</time>
      </trkpt>
      <trkpt lat="44.29512" lon="5.10119">
        <ele>277</ele>
        <time>2020-07-11T10:47:28.605Z</time>
      </trkpt>
      <trkpt lat="44.29521" lon="5.10119">
        <ele>277</ele>
        <time>2020-07-11T10:47:29.604Z</time>
      </trkpt>
      <trkpt lat="44.29529" lon="5.10119">
        <ele>277</ele>
        <time>2020-07-11T10:47:30.605Z</time>
      </trkpt>
      <trkpt lat="44.29537" lon="5.10119">
        <ele>277</ele>
        <time>2020-07-11T10:47:31.605Z</time>
      </trkpt>
      <trkpt lat="44.29545" lon="5.10119">
        <ele>276</ele>
        <time>2020-07-11T10:47:32.605Z</time>
      </trkpt>
      <trkpt lat="44.29554" lon="5.10119">
        <ele>276</ele>
        <time>2020-07-11T10:47:33.605Z</time>
      </trkpt>
      <trkpt lat="44.29562" lon="5.10119">
        <ele>276</ele>
        <time>2020-07-11T10:47:34.605Z</time>
      </trkpt>
      <trkpt lat="44.2957" lon="5.1012">
        <ele>276</ele>
        <time>2020-07-11T10:47:35.605Z</time>
      </trkpt>
      <trkpt lat="44.29579" lon="5.10121">
        <ele>276</ele>
        <time>2020-07-11T10:47:36.605Z</time>
      </trkpt>
      <trkpt lat="44.29587" lon="5.10122">
        <ele>277</ele>
        <time>2020-07-11T10:47:37.605Z</time>
      </trkpt>
      <trkpt lat="44.29596" lon="5.10123">
        <ele>277</ele>
        <time>2020-07-11T10:47:38.605Z</time>
      </trkpt>
      <trkpt lat="44.29604" lon="5.10124">
        <ele>277</ele>
        <time>2020-07-11T10:47:39.605Z</time>
      </trkpt>
      <trkpt lat="44.29613" lon="5.10125">
        <ele>277</ele>
        <time>2020-07-11T10:47:40.605Z</time>
      </trkpt>
      <trkpt lat="44.29622" lon="5.10126">
        <ele>277</ele>
        <time>2020-07-11T10:47:41.605Z</time>
      </trkpt>
      <trkpt lat="44.2963" lon="5.10128">
        <ele>277</ele>
        <time>2020-07-11T10:47:42.605Z</time>
      </trkpt>
      <trkpt lat="44.29638" lon="5.1013">
        <ele>277</ele>
        <time>2020-07-11T10:47:43.605Z</time>
      </trkpt>
      <trkpt lat="44.29647" lon="5.10133">
        <ele>276</ele>
        <time>2020-07-11T10:47:44.605Z</time>
      </trkpt>
      <trkpt lat="44.29656" lon="5.10135">
        <ele>276</ele>
        <time>2020-07-11T10:47:45.605Z</time>
      </trkpt>
      <trkpt lat="44.29664" lon="5.10138">
        <ele>275</ele>
        <time>2020-07-11T10:47:46.605Z</time>
      </trkpt>
      <trkpt lat="44.29673" lon="5.10141">
        <ele>275</ele>
        <time>2020-07-11T10:47:47.605Z</time>
      </trkpt>
      <trkpt lat="44.29681" lon="5.10143">
        <ele>274</ele>
        <time>2020-07-11T10:47:48.605Z</time>
      </trkpt>
      <trkpt lat="44.29689" lon="5.10147">
        <ele>274</ele>
        <time>2020-07-11T10:47:49.605Z</time>
      </trkpt>
      <trkpt lat="44.29697" lon="5.1015">
        <ele>274</ele>
        <time>2020-07-11T10:47:50.605Z</time>
      </trkpt>
      <trkpt lat="44.29706" lon="5.10153">
        <ele>274</ele>
        <time>2020-07-11T10:47:51.605Z</time>
      </trkpt>
      <trkpt lat="44.29714" lon="5.10156">
        <ele>273</ele>
        <time>2020-07-11T10:47:52.605Z</time>
      </trkpt>
      <trkpt lat="44.29723" lon="5.10159">
        <ele>273</ele>
        <time>2020-07-11T10:47:53.605Z</time>
      </trkpt>
      <trkpt lat="44.29732" lon="5.10163">
        <ele>272</ele>
        <time>2020-07-11T10:47:54.605Z</time>
      </trkpt>
      <trkpt lat="44.29741" lon="5.10166">
        <ele>272</ele>
        <time>2020-07-11T10:47:55.605Z</time>
      </trkpt>
      <trkpt lat="44.2975" lon="5.10169">
        <ele>272</ele>
        <time>2020-07-11T10:47:56.605Z</time>
      </trkpt>
      <trkpt lat="44.29759" lon="5.10172">
        <ele>272</ele>
        <time>2020-07-11T10:47:57.605Z</time>
      </trkpt>
      <trkpt lat="44.29768" lon="5.10175">
        <ele>272</ele>
        <time>2020-07-11T10:47:58.605Z</time>
      </trkpt>
      <trkpt lat="44.29777" lon="5.10177">
        <ele>272</ele>
        <time>2020-07-11T10:47:59.605Z</time>
      </trkpt>
      <trkpt lat="44.29785" lon="5.10179">
        <ele>271</ele>
        <time>2020-07-11T10:48:00.605Z</time>
      </trkpt>
      <trkpt lat="44.29794" lon="5.10181">
        <ele>271</ele>
        <time>2020-07-11T10:48:01.604Z</time>
      </trkpt>
      <trkpt lat="44.29802" lon="5.10182">
        <ele>271</ele>
        <time>2020-07-11T10:48:02.605Z</time>
      </trkpt>
      <trkpt lat="44.29811" lon="5.10183">
        <ele>271</ele>
        <time>2020-07-11T10:48:03.605Z</time>
      </trkpt>
      <trkpt lat="44.29819" lon="5.10184">
        <ele>271</ele>
        <time>2020-07-11T10:48:04.605Z</time>
      </trkpt>
      <trkpt lat="44.29827" lon="5.10184">
        <ele>271</ele>
        <time>2020-07-11T10:48:05.604Z</time>
      </trkpt>
      <trkpt lat="44.29836" lon="5.10183">
        <ele>271</ele>
        <time>2020-07-11T10:48:06.605Z</time>
      </trkpt>
      <trkpt lat="44.29844" lon="5.10183">
        <ele>270</ele>
        <time>2020-07-11T10:48:07.605Z</time>
      </trkpt>
      <trkpt lat="44.29852" lon="5.10182">
        <ele>270</ele>
        <time>2020-07-11T10:48:08.605Z</time>
      </trkpt>
      <trkpt lat="44.2986" lon="5.10181">
        <ele>270</ele>
        <time>2020-07-11T10:48:09.605Z</time>
      </trkpt>
      <trkpt lat="44.29868" lon="5.1018">
        <ele>270</ele>
        <time>2020-07-11T10:48:10.605Z</time>
      </trkpt>
      <trkpt lat="44.29876" lon="5.10179">
        <ele>270</ele>
        <time>2020-07-11T10:48:11.605Z</time>
      </trkpt>
      <trkpt lat="44.29884" lon="5.10178">
        <ele>270</ele>
        <time>2020-07-11T10:48:12.604Z</time>
      </trkpt>
      <trkpt lat="44.29892" lon="5.10177">
        <ele>270</ele>
        <time>2020-07-11T10:48:13.605Z</time>
      </trkpt>
      <trkpt lat="44.299" lon="5.10176">
        <ele>270</ele>
        <time>2020-07-11T10:48:14.605Z</time>
      </trkpt>
      <trkpt lat="44.29908" lon="5.10175">
        <ele>269</ele>
        <time>2020-07-11T10:48:15.605Z</time>
      </trkpt>
      <trkpt lat="44.29916" lon="5.10174">
        <ele>269</ele>
        <time>2020-07-11T10:48:16.605Z</time>
      </trkpt>
      <trkpt lat="44.29925" lon="5.10173">
        <ele>269</ele>
        <time>2020-07-11T10:48:17.605Z</time>
      </trkpt>
      <trkpt lat="44.29932" lon="5.10172">
        <ele>269</ele>
        <time>2020-07-11T10:48:18.605Z</time>
      </trkpt>
      <trkpt lat="44.2994" lon="5.10171">
        <ele>269</ele>
        <time>2020-07-11T10:48:19.605Z</time>
      </trkpt>
      <trkpt lat="44.29948" lon="5.1017">
        <ele>270</ele>
        <time>2020-07-11T10:48:20.605Z</time>
      </trkpt>
      <trkpt lat="44.29956" lon="5.10169">
        <ele>270</ele>
        <time>2020-07-11T10:48:21.605Z</time>
      </trkpt>
      <trkpt lat="44.29964" lon="5.10168">
        <ele>269</ele>
        <time>2020-07-11T10:48:22.604Z</time>
      </trkpt>
      <trkpt lat="44.29972" lon="5.10167">
        <ele>269</ele>
        <time>2020-07-11T10:48:23.604Z</time>
      </trkpt>
      <trkpt lat="44.2998" lon="5.10165">
        <ele>269</ele>
        <time>2020-07-11T10:48:24.605Z</time>
      </trkpt>
      <trkpt lat="44.29988" lon="5.10164">
        <ele>269</ele>
        <time>2020-07-11T10:48:25.605Z</time>
      </trkpt>
      <trkpt lat="44.29996" lon="5.10163">
        <ele>268</ele>
        <time>2020-07-11T10:48:26.605Z</time>
      </trkpt>
      <trkpt lat="44.30004" lon="5.10162">
        <ele>268</ele>
        <time>2020-07-11T10:48:27.605Z</time>
      </trkpt>
      <trkpt lat="44.30012" lon="5.10162">
        <ele>268</ele>
        <time>2020-07-11T10:48:28.605Z</time>
      </trkpt>
      <trkpt lat="44.30021" lon="5.10161">
        <ele>267</ele>
        <time>2020-07-11T10:48:29.605Z</time>
      </trkpt>
      <trkpt lat="44.30029" lon="5.1016">
        <ele>268</ele>
        <time>2020-07-11T10:48:30.604Z</time>
      </trkpt>
      <trkpt lat="44.30037" lon="5.10159">
        <ele>268</ele>
        <time>2020-07-11T10:48:31.604Z</time>
      </trkpt>
      <trkpt lat="44.30045" lon="5.10158">
        <ele>268</ele>
        <time>2020-07-11T10:48:32.605Z</time>
      </trkpt>
      <trkpt lat="44.30053" lon="5.10157">
        <ele>268</ele>
        <time>2020-07-11T10:48:33.605Z</time>
      </trkpt>
      <trkpt lat="44.30061" lon="5.10156">
        <ele>268</ele>
        <time>2020-07-11T10:48:34.605Z</time>
      </trkpt>
      <trkpt lat="44.3007" lon="5.10155">
        <ele>268</ele>
        <time>2020-07-11T10:48:35.605Z</time>
      </trkpt>
      <trkpt lat="44.30078" lon="5.10154">
        <ele>268</ele>
        <time>2020-07-11T10:48:36.604Z</time>
      </trkpt>
      <trkpt lat="44.30086" lon="5.10153">
        <ele>268</ele>
        <time>2020-07-11T10:48:37.605Z</time>
      </trkpt>
      <trkpt lat="44.30094" lon="5.10152">
        <ele>268</ele>
        <time>2020-07-11T10:48:38.605Z</time>
      </trkpt>
      <trkpt lat="44.30102" lon="5.10151">
        <ele>268</ele>
        <time>2020-07-11T10:48:39.604Z</time>
      </trkpt>
      <trkpt lat="44.3011" lon="5.10149">
        <ele>268</ele>
        <time>2020-07-11T10:48:40.605Z</time>
      </trkpt>
      <trkpt lat="44.30118" lon="5.10147">
        <ele>268</ele>
        <time>2020-07-11T10:48:41.605Z</time>
      </trkpt>
      <trkpt lat="44.30126" lon="5.10145">
        <ele>268</ele>
        <time>2020-07-11T10:48:42.605Z</time>
      </trkpt>
      <trkpt lat="44.30134" lon="5.10142">
        <ele>268</ele>
        <time>2020-07-11T10:48:43.604Z</time>
      </trkpt>
      <trkpt lat="44.30142" lon="5.10139">
        <ele>267</ele>
        <time>2020-07-11T10:48:44.604Z</time>
      </trkpt>
      <trkpt lat="44.3015" lon="5.10136">
        <ele>267</ele>
        <time>2020-07-11T10:48:45.604Z</time>
      </trkpt>
      <trkpt lat="44.30158" lon="5.10133">
        <ele>268</ele>
        <time>2020-07-11T10:48:46.605Z</time>
      </trkpt>
      <trkpt lat="44.30166" lon="5.10129">
        <ele>268</ele>
        <time>2020-07-11T10:48:47.604Z</time>
      </trkpt>
      <trkpt lat="44.30174" lon="5.10126">
        <ele>268</ele>
        <time>2020-07-11T10:48:48.604Z</time>
      </trkpt>
      <trkpt lat="44.30183" lon="5.10122">
        <ele>268</ele>
        <time>2020-07-11T10:48:49.605Z</time>
      </trkpt>
      <trkpt lat="44.30191" lon="5.10119">
        <ele>268</ele>
        <time>2020-07-11T10:48:50.605Z</time>
      </trkpt>
      <trkpt lat="44.30199" lon="5.10116">
        <ele>268</ele>
        <time>2020-07-11T10:48:51.605Z</time>
      </trkpt>
      <trkpt lat="44.30207" lon="5.10112">
        <ele>268</ele>
        <time>2020-07-11T10:48:52.605Z</time>
      </trkpt>
      <trkpt lat="44.30215" lon="5.10109">
        <ele>268</ele>
        <time>2020-07-11T10:48:53.605Z</time>
      </trkpt>
      <trkpt lat="44.30223" lon="5.10106">
        <ele>267</ele>
        <time>2020-07-11T10:48:54.605Z</time>
      </trkpt>
      <trkpt lat="44.3023" lon="5.10102">
        <ele>267</ele>
        <time>2020-07-11T10:48:55.605Z</time>
      </trkpt>
      <trkpt lat="44.30238" lon="5.101">
        <ele>267</ele>
        <time>2020-07-11T10:48:56.605Z</time>
      </trkpt>
      <trkpt lat="44.30246" lon="5.10097">
        <ele>267</ele>
        <time>2020-07-11T10:48:57.604Z</time>
      </trkpt>
      <trkpt lat="44.30253" lon="5.10095">
        <ele>267</ele>
        <time>2020-07-11T10:48:58.605Z</time>
      </trkpt>
      <trkpt lat="44.30261" lon="5.10093">
        <ele>267</ele>
        <time>2020-07-11T10:48:59.605Z</time>
      </trkpt>
      <trkpt lat="44.30268" lon="5.10091">
        <ele>267</ele>
        <time>2020-07-11T10:49:00.605Z</time>
      </trkpt>
      <trkpt lat="44.30276" lon="5.10089">
        <ele>267</ele>
        <time>2020-07-11T10:49:01.605Z</time>
      </trkpt>
      <trkpt lat="44.30284" lon="5.10086">
        <ele>267</ele>
        <time>2020-07-11T10:49:02.605Z</time>
      </trkpt>
      <trkpt lat="44.30291" lon="5.10084">
        <ele>267</ele>
        <time>2020-07-11T10:49:03.604Z</time>
      </trkpt>
      <trkpt lat="44.30298" lon="5.10082">
        <ele>268</ele>
        <time>2020-07-11T10:49:04.604Z</time>
      </trkpt>
      <trkpt lat="44.30305" lon="5.1008">
        <ele>267</ele>
        <time>2020-07-11T10:49:05.605Z</time>
      </trkpt>
      <trkpt lat="44.30312" lon="5.10078">
        <ele>267</ele>
        <time>2020-07-11T10:49:06.605Z</time>
      </trkpt>
      <trkpt lat="44.3032" lon="5.10076">
        <ele>267</ele>
        <time>2020-07-11T10:49:07.605Z</time>
      </trkpt>
      <trkpt lat="44.30327" lon="5.10074">
        <ele>267</ele>
        <time>2020-07-11T10:49:08.605Z</time>
      </trkpt>
      <trkpt lat="44.30334" lon="5.10072">
        <ele>267</ele>
        <time>2020-07-11T10:49:09.605Z</time>
      </trkpt>
      <trkpt lat="44.30342" lon="5.1007">
        <ele>267</ele>
        <time>2020-07-11T10:49:10.605Z</time>
      </trkpt>
      <trkpt lat="44.3035" lon="5.10067">
        <ele>268</ele>
        <time>2020-07-11T10:49:11.605Z</time>
      </trkpt>
      <trkpt lat="44.30358" lon="5.10066">
        <ele>268</ele>
        <time>2020-07-11T10:49:12.605Z</time>
      </trkpt>
      <trkpt lat="44.30366" lon="5.10064">
        <ele>269</ele>
        <time>2020-07-11T10:49:13.605Z</time>
      </trkpt>
      <trkpt lat="44.30373" lon="5.10062">
        <ele>269</ele>
        <time>2020-07-11T10:49:14.605Z</time>
      </trkpt>
      <trkpt lat="44.30382" lon="5.10061">
        <ele>269</ele>
        <time>2020-07-11T10:49:15.605Z</time>
      </trkpt>
      <trkpt lat="44.3039" lon="5.10059">
        <ele>269</ele>
        <time>2020-07-11T10:49:16.604Z</time>
      </trkpt>
      <trkpt lat="44.30398" lon="5.10057">
        <ele>269</ele>
        <time>2020-07-11T10:49:17.604Z</time>
      </trkpt>
      <trkpt lat="44.30407" lon="5.10055">
        <ele>269</ele>
        <time>2020-07-11T10:49:18.605Z</time>
      </trkpt>
      <trkpt lat="44.30415" lon="5.10053">
        <ele>269</ele>
        <time>2020-07-11T10:49:19.604Z</time>
      </trkpt>
      <trkpt lat="44.30424" lon="5.10051">
        <ele>269</ele>
        <time>2020-07-11T10:49:20.604Z</time>
      </trkpt>
      <trkpt lat="44.30433" lon="5.10049">
        <ele>269</ele>
        <time>2020-07-11T10:49:21.605Z</time>
      </trkpt>
      <trkpt lat="44.30442" lon="5.10047">
        <ele>268</ele>
        <time>2020-07-11T10:49:22.604Z</time>
      </trkpt>
      <trkpt lat="44.30451" lon="5.10045">
        <ele>268</ele>
        <time>2020-07-11T10:49:23.605Z</time>
      </trkpt>
      <trkpt lat="44.30459" lon="5.10043">
        <ele>268</ele>
        <time>2020-07-11T10:49:24.605Z</time>
      </trkpt>
      <trkpt lat="44.30468" lon="5.10041">
        <ele>269</ele>
        <time>2020-07-11T10:49:25.605Z</time>
      </trkpt>
      <trkpt lat="44.30476" lon="5.10039">
        <ele>269</ele>
        <time>2020-07-11T10:49:26.604Z</time>
      </trkpt>
      <trkpt lat="44.30484" lon="5.10037">
        <ele>269</ele>
        <time>2020-07-11T10:49:27.605Z</time>
      </trkpt>
      <trkpt lat="44.30492" lon="5.10035">
        <ele>269</ele>
        <time>2020-07-11T10:49:28.605Z</time>
      </trkpt>
      <trkpt lat="44.30499" lon="5.10033">
        <ele>269</ele>
        <time>2020-07-11T10:49:29.605Z</time>
      </trkpt>
      <trkpt lat="44.30507" lon="5.10031">
        <ele>268</ele>
        <time>2020-07-11T10:49:30.605Z</time>
      </trkpt>
      <trkpt lat="44.30514" lon="5.10028">
        <ele>268</ele>
        <time>2020-07-11T10:49:31.605Z</time>
      </trkpt>
      <trkpt lat="44.3052" lon="5.10025">
        <ele>268</ele>
        <time>2020-07-11T10:49:32.605Z</time>
      </trkpt>
      <trkpt lat="44.30527" lon="5.10022">
        <ele>268</ele>
        <time>2020-07-11T10:49:33.604Z</time>
      </trkpt>
      <trkpt lat="44.30534" lon="5.1002">
        <ele>267</ele>
        <time>2020-07-11T10:49:34.605Z</time>
      </trkpt>
      <trkpt lat="44.30541" lon="5.10018">
        <ele>267</ele>
        <time>2020-07-11T10:49:35.604Z</time>
      </trkpt>
      <trkpt lat="44.30548" lon="5.10015">
        <ele>267</ele>
        <time>2020-07-11T10:49:36.605Z</time>
      </trkpt>
      <trkpt lat="44.30555" lon="5.10013">
        <ele>267</ele>
        <time>2020-07-11T10:49:37.605Z</time>
      </trkpt>
      <trkpt lat="44.30561" lon="5.10011">
        <ele>268</ele>
        <time>2020-07-11T10:49:38.604Z</time>
      </trkpt>
      <trkpt lat="44.30568" lon="5.10008">
        <ele>268</ele>
        <time>2020-07-11T10:49:39.605Z</time>
      </trkpt>
      <trkpt lat="44.30574" lon="5.10006">
        <ele>268</ele>
        <time>2020-07-11T10:49:40.605Z</time>
      </trkpt>
      <trkpt lat="44.30581" lon="5.10004">
        <ele>268</ele>
        <time>2020-07-11T10:49:41.605Z</time>
      </trkpt>
      <trkpt lat="44.30587" lon="5.10001">
        <ele>269</ele>
        <time>2020-07-11T10:49:42.605Z</time>
      </trkpt>
      <trkpt lat="44.30594" lon="5.09998">
        <ele>269</ele>
        <time>2020-07-11T10:49:43.605Z</time>
      </trkpt>
      <trkpt lat="44.30601" lon="5.09996">
        <ele>269</ele>
        <time>2020-07-11T10:49:44.605Z</time>
      </trkpt>
      <trkpt lat="44.30607" lon="5.09994">
        <ele>269</ele>
        <time>2020-07-11T10:49:45.605Z</time>
      </trkpt>
      <trkpt lat="44.30614" lon="5.09991">
        <ele>270</ele>
        <time>2020-07-11T10:49:46.605Z</time>
      </trkpt>
      <trkpt lat="44.30621" lon="5.09988">
        <ele>270</ele>
        <time>2020-07-11T10:49:47.605Z</time>
      </trkpt>
      <trkpt lat="44.30628" lon="5.09986">
        <ele>270</ele>
        <time>2020-07-11T10:49:48.605Z</time>
      </trkpt>
      <trkpt lat="44.30635" lon="5.09983">
        <ele>270</ele>
        <time>2020-07-11T10:49:49.604Z</time>
      </trkpt>
      <trkpt lat="44.30641" lon="5.09981">
        <ele>271</ele>
        <time>2020-07-11T10:49:50.604Z</time>
      </trkpt>
      <trkpt lat="44.30648" lon="5.09978">
        <ele>271</ele>
        <time>2020-07-11T10:49:51.605Z</time>
      </trkpt>
      <trkpt lat="44.30655" lon="5.09976">
        <ele>270</ele>
        <time>2020-07-11T10:49:52.605Z</time>
      </trkpt>
      <trkpt lat="44.30662" lon="5.09974">
        <ele>270</ele>
        <time>2020-07-11T10:49:53.605Z</time>
      </trkpt>
      <trkpt lat="44.30668" lon="5.09971">
        <ele>270</ele>
        <time>2020-07-11T10:49:54.605Z</time>
      </trkpt>
      <trkpt lat="44.30675" lon="5.09969">
        <ele>270</ele>
        <time>2020-07-11T10:49:55.605Z</time>
      </trkpt>
      <trkpt lat="44.30682" lon="5.09967">
        <ele>270</ele>
        <time>2020-07-11T10:49:56.605Z</time>
      </trkpt>
      <trkpt lat="44.30689" lon="5.09964">
        <ele>270</ele>
        <time>2020-07-11T10:49:57.605Z</time>
      </trkpt>
      <trkpt lat="44.30696" lon="5.09962">
        <ele>270</ele>
        <time>2020-07-11T10:49:58.604Z</time>
      </trkpt>
      <trkpt lat="44.30703" lon="5.09959">
        <ele>270</ele>
        <time>2020-07-11T10:49:59.605Z</time>
      </trkpt>
      <trkpt lat="44.3071" lon="5.09957">
        <ele>270</ele>
        <time>2020-07-11T10:50:00.604Z</time>
      </trkpt>
      <trkpt lat="44.30717" lon="5.09954">
        <ele>269</ele>
        <time>2020-07-11T10:50:01.605Z</time>
      </trkpt>
      <trkpt lat="44.30723" lon="5.09952">
        <ele>269</ele>
        <time>2020-07-11T10:50:02.605Z</time>
      </trkpt>
      <trkpt lat="44.3073" lon="5.09949">
        <ele>269</ele>
        <time>2020-07-11T10:50:03.605Z</time>
      </trkpt>
      <trkpt lat="44.30737" lon="5.09947">
        <ele>268</ele>
        <time>2020-07-11T10:50:04.604Z</time>
      </trkpt>
      <trkpt lat="44.30743" lon="5.09945">
        <ele>268</ele>
        <time>2020-07-11T10:50:05.605Z</time>
      </trkpt>
      <trkpt lat="44.30749" lon="5.09943">
        <ele>269</ele>
        <time>2020-07-11T10:50:06.605Z</time>
      </trkpt>
      <trkpt lat="44.30755" lon="5.09942">
        <ele>269</ele>
        <time>2020-07-11T10:50:07.604Z</time>
      </trkpt>
      <trkpt lat="44.30761" lon="5.09941">
        <ele>269</ele>
        <time>2020-07-11T10:50:08.605Z</time>
      </trkpt>
      <trkpt lat="44.30767" lon="5.0994">
        <ele>269</ele>
        <time>2020-07-11T10:50:09.604Z</time>
      </trkpt>
      <trkpt lat="44.30772" lon="5.09939">
        <ele>269</ele>
        <time>2020-07-11T10:50:10.605Z</time>
      </trkpt>
      <trkpt lat="44.30778" lon="5.09939">
        <ele>269</ele>
        <time>2020-07-11T10:50:11.605Z</time>
      </trkpt>
      <trkpt lat="44.30785" lon="5.09939">
        <ele>268</ele>
        <time>2020-07-11T10:50:12.605Z</time>
      </trkpt>
      <trkpt lat="44.3079" lon="5.09939">
        <ele>268</ele>
        <time>2020-07-11T10:50:13.605Z</time>
      </trkpt>
      <trkpt lat="44.30796" lon="5.09939">
        <ele>268</ele>
        <time>2020-07-11T10:50:14.605Z</time>
      </trkpt>
      <trkpt lat="44.30801" lon="5.0994">
        <ele>268</ele>
        <time>2020-07-11T10:50:15.604Z</time>
      </trkpt>
      <trkpt lat="44.30807" lon="5.0994">
        <ele>269</ele>
        <time>2020-07-11T10:50:16.605Z</time>
      </trkpt>
      <trkpt lat="44.30812" lon="5.0994">
        <ele>269</ele>
        <time>2020-07-11T10:50:17.605Z</time>
      </trkpt>
      <trkpt lat="44.30818" lon="5.0994">
        <ele>269</ele>
        <time>2020-07-11T10:50:18.605Z</time>
      </trkpt>
      <trkpt lat="44.30823" lon="5.09939">
        <ele>269</ele>
        <time>2020-07-11T10:50:19.605Z</time>
      </trkpt>
      <trkpt lat="44.30828" lon="5.09938">
        <ele>269</ele>
        <time>2020-07-11T10:50:20.605Z</time>
      </trkpt>
      <trkpt lat="44.30833" lon="5.09936">
        <ele>270</ele>
        <time>2020-07-11T10:50:21.605Z</time>
      </trkpt>
      <trkpt lat="44.30838" lon="5.09933">
        <ele>270</ele>
        <time>2020-07-11T10:50:22.604Z</time>
      </trkpt>
      <trkpt lat="44.30843" lon="5.0993">
        <ele>271</ele>
        <time>2020-07-11T10:50:23.605Z</time>
      </trkpt>
      <trkpt lat="44.30848" lon="5.09925">
        <ele>272</ele>
        <time>2020-07-11T10:50:24.605Z</time>
      </trkpt>
      <trkpt lat="44.30853" lon="5.0992">
        <ele>273</ele>
        <time>2020-07-11T10:50:25.605Z</time>
      </trkpt>
      <trkpt lat="44.30858" lon="5.09915">
        <ele>273</ele>
        <time>2020-07-11T10:50:26.604Z</time>
      </trkpt>
      <trkpt lat="44.30864" lon="5.09909">
        <ele>273</ele>
        <time>2020-07-11T10:50:27.604Z</time>
      </trkpt>
      <trkpt lat="44.30869" lon="5.09903">
        <ele>273</ele>
        <time>2020-07-11T10:50:28.605Z</time>
      </trkpt>
      <trkpt lat="44.30875" lon="5.09897">
        <ele>273</ele>
        <time>2020-07-11T10:50:29.605Z</time>
      </trkpt>
      <trkpt lat="44.3088" lon="5.09891">
        <ele>273</ele>
        <time>2020-07-11T10:50:30.605Z</time>
      </trkpt>
      <trkpt lat="44.30887" lon="5.09886">
        <ele>272</ele>
        <time>2020-07-11T10:50:31.604Z</time>
      </trkpt>
      <trkpt lat="44.30893" lon="5.09882">
        <ele>272</ele>
        <time>2020-07-11T10:50:32.605Z</time>
      </trkpt>
      <trkpt lat="44.30901" lon="5.0988">
        <ele>271</ele>
        <time>2020-07-11T10:50:33.605Z</time>
      </trkpt>
      <trkpt lat="44.30908" lon="5.09878">
        <ele>271</ele>
        <time>2020-07-11T10:50:34.604Z</time>
      </trkpt>
      <trkpt lat="44.30916" lon="5.09876">
        <ele>271</ele>
        <time>2020-07-11T10:50:35.605Z</time>
      </trkpt>
      <trkpt lat="44.30923" lon="5.09875">
        <ele>272</ele>
        <time>2020-07-11T10:50:36.604Z</time>
      </trkpt>
      <trkpt lat="44.30931" lon="5.09874">
        <ele>272</ele>
        <time>2020-07-11T10:50:37.605Z</time>
      </trkpt>
      <trkpt lat="44.30939" lon="5.09874">
        <ele>272</ele>
        <time>2020-07-11T10:50:38.605Z</time>
      </trkpt>
      <trkpt lat="44.30946" lon="5.09873">
        <ele>273</ele>
        <time>2020-07-11T10:50:39.604Z</time>
      </trkpt>
      <trkpt lat="44.30954" lon="5.09873">
        <ele>273</ele>
        <time>2020-07-11T10:50:40.605Z</time>
      </trkpt>
      <trkpt lat="44.30961" lon="5.09872">
        <ele>273</ele>
        <time>2020-07-11T10:50:41.605Z</time>
      </trkpt>
      <trkpt lat="44.30969" lon="5.09871">
        <ele>273</ele>
        <time>2020-07-11T10:50:42.604Z</time>
      </trkpt>
      <trkpt lat="44.30978" lon="5.0987">
        <ele>273</ele>
        <time>2020-07-11T10:50:43.605Z</time>
      </trkpt>
      <trkpt lat="44.30984" lon="5.09869">
        <ele>273</ele>
        <time>2020-07-11T10:50:44.605Z</time>
      </trkpt>
      <trkpt lat="44.30991" lon="5.09868">
        <ele>274</ele>
        <time>2020-07-11T10:50:45.605Z</time>
      </trkpt>
      <trkpt lat="44.30998" lon="5.09868">
        <ele>274</ele>
        <time>2020-07-11T10:50:46.605Z</time>
      </trkpt>
      <trkpt lat="44.31005" lon="5.0987">
        <ele>274</ele>
        <time>2020-07-11T10:50:47.605Z</time>
      </trkpt>
      <trkpt lat="44.31012" lon="5.09872">
        <ele>274</ele>
        <time>2020-07-11T10:50:48.605Z</time>
      </trkpt>
      <trkpt lat="44.3102" lon="5.09874">
        <ele>273</ele>
        <time>2020-07-11T10:50:49.605Z</time>
      </trkpt>
      <trkpt lat="44.31027" lon="5.09876">
        <ele>273</ele>
        <time>2020-07-11T10:50:50.605Z</time>
      </trkpt>
      <trkpt lat="44.31034" lon="5.09877">
        <ele>273</ele>
        <time>2020-07-11T10:50:51.605Z</time>
      </trkpt>
      <trkpt lat="44.31042" lon="5.09878">
        <ele>272</ele>
        <time>2020-07-11T10:50:52.605Z</time>
      </trkpt>
      <trkpt lat="44.3105" lon="5.09878">
        <ele>272</ele>
        <time>2020-07-11T10:50:53.605Z</time>
      </trkpt>
      <trkpt lat="44.31059" lon="5.09877">
        <ele>272</ele>
        <time>2020-07-11T10:50:54.605Z</time>
      </trkpt>
      <trkpt lat="44.31067" lon="5.09873">
        <ele>272</ele>
        <time>2020-07-11T10:50:55.605Z</time>
      </trkpt>
      <trkpt lat="44.31074" lon="5.09867">
        <ele>272</ele>
        <time>2020-07-11T10:50:56.604Z</time>
      </trkpt>
      <trkpt lat="44.31082" lon="5.09861">
        <ele>272</ele>
        <time>2020-07-11T10:50:57.605Z</time>
      </trkpt>
      <trkpt lat="44.31088" lon="5.09852">
        <ele>272</ele>
        <time>2020-07-11T10:50:58.605Z</time>
      </trkpt>
      <trkpt lat="44.31095" lon="5.09846">
        <ele>272</ele>
        <time>2020-07-11T10:50:59.605Z</time>
      </trkpt>
      <trkpt lat="44.31102" lon="5.09839">
        <ele>272</ele>
        <time>2020-07-11T10:51:00.604Z</time>
      </trkpt>
      <trkpt lat="44.31109" lon="5.09831">
        <ele>272</ele>
        <time>2020-07-11T10:51:01.604Z</time>
      </trkpt>
      <trkpt lat="44.31116" lon="5.09821">
        <ele>272</ele>
        <time>2020-07-11T10:51:02.605Z</time>
      </trkpt>
      <trkpt lat="44.31122" lon="5.09814">
        <ele>271</ele>
        <time>2020-07-11T10:51:03.605Z</time>
      </trkpt>
      <trkpt lat="44.31128" lon="5.09804">
        <ele>271</ele>
        <time>2020-07-11T10:51:04.605Z</time>
      </trkpt>
      <trkpt lat="44.31133" lon="5.09793">
        <ele>270</ele>
        <time>2020-07-11T10:51:05.605Z</time>
      </trkpt>
      <trkpt lat="44.31139" lon="5.09783">
        <ele>269</ele>
        <time>2020-07-11T10:51:06.605Z</time>
      </trkpt>
      <trkpt lat="44.31146" lon="5.09774">
        <ele>268</ele>
        <time>2020-07-11T10:51:07.605Z</time>
      </trkpt>
      <trkpt lat="44.31153" lon="5.09765">
        <ele>267</ele>
        <time>2020-07-11T10:51:08.605Z</time>
      </trkpt>
      <trkpt lat="44.3116" lon="5.09757">
        <ele>266</ele>
        <time>2020-07-11T10:51:09.604Z</time>
      </trkpt>
      <trkpt lat="44.31168" lon="5.0975">
        <ele>266</ele>
        <time>2020-07-11T10:51:10.605Z</time>
      </trkpt>
      <trkpt lat="44.31177" lon="5.09744">
        <ele>265</ele>
        <time>2020-07-11T10:51:11.605Z</time>
      </trkpt>
      <trkpt lat="44.31186" lon="5.0974">
        <ele>265</ele>
        <time>2020-07-11T10:51:12.605Z</time>
      </trkpt>
      <trkpt lat="44.31195" lon="5.09736">
        <ele>264</ele>
        <time>2020-07-11T10:51:13.605Z</time>
      </trkpt>
      <trkpt lat="44.31205" lon="5.09732">
        <ele>264</ele>
        <time>2020-07-11T10:51:14.604Z</time>
      </trkpt>
      <trkpt lat="44.31214" lon="5.09728">
        <ele>263</ele>
        <time>2020-07-11T10:51:15.605Z</time>
      </trkpt>
      <trkpt lat="44.31224" lon="5.09725">
        <ele>263</ele>
        <time>2020-07-11T10:51:16.605Z</time>
      </trkpt>
      <trkpt lat="44.31233" lon="5.09722">
        <ele>262</ele>
        <time>2020-07-11T10:51:17.605Z</time>
      </trkpt>
      <trkpt lat="44.31243" lon="5.09719">
        <ele>261</ele>
        <time>2020-07-11T10:51:18.605Z</time>
      </trkpt>
      <trkpt lat="44.31255" lon="5.09717">
        <ele>261</ele>
        <time>2020-07-11T10:51:19.605Z</time>
      </trkpt>
      <trkpt lat="44.31263" lon="5.09716">
        <ele>260</ele>
        <time>2020-07-11T10:51:20.604Z</time>
      </trkpt>
      <trkpt lat="44.31273" lon="5.09715">
        <ele>259</ele>
        <time>2020-07-11T10:51:21.604Z</time>
      </trkpt>
      <trkpt lat="44.31284" lon="5.09715">
        <ele>258</ele>
        <time>2020-07-11T10:51:22.605Z</time>
      </trkpt>
      <trkpt lat="44.31294" lon="5.09715">
        <ele>257</ele>
        <time>2020-07-11T10:51:23.605Z</time>
      </trkpt>
      <trkpt lat="44.31304" lon="5.09716">
        <ele>256</ele>
        <time>2020-07-11T10:51:24.604Z</time>
      </trkpt>
      <trkpt lat="44.31315" lon="5.09718">
        <ele>255</ele>
        <time>2020-07-11T10:51:25.605Z</time>
      </trkpt>
      <trkpt lat="44.31326" lon="5.0972">
        <ele>255</ele>
        <time>2020-07-11T10:51:26.605Z</time>
      </trkpt>
      <trkpt lat="44.31337" lon="5.09722">
        <ele>254</ele>
        <time>2020-07-11T10:51:27.605Z</time>
      </trkpt>
      <trkpt lat="44.31348" lon="5.09724">
        <ele>253</ele>
        <time>2020-07-11T10:51:28.604Z</time>
      </trkpt>
      <trkpt lat="44.31359" lon="5.09726">
        <ele>252</ele>
        <time>2020-07-11T10:51:29.605Z</time>
      </trkpt>
      <trkpt lat="44.31369" lon="5.09728">
        <ele>252</ele>
        <time>2020-07-11T10:51:30.604Z</time>
      </trkpt>
      <trkpt lat="44.3138" lon="5.09729">
        <ele>251</ele>
        <time>2020-07-11T10:51:31.605Z</time>
      </trkpt>
      <trkpt lat="44.3139" lon="5.09731">
        <ele>250</ele>
        <time>2020-07-11T10:51:32.605Z</time>
      </trkpt>
      <trkpt lat="44.31401" lon="5.09733">
        <ele>250</ele>
        <time>2020-07-11T10:51:33.605Z</time>
      </trkpt>
      <trkpt lat="44.31411" lon="5.09735">
        <ele>249</ele>
        <time>2020-07-11T10:51:34.605Z</time>
      </trkpt>
      <trkpt lat="44.31421" lon="5.09738">
        <ele>248</ele>
        <time>2020-07-11T10:51:35.605Z</time>
      </trkpt>
      <trkpt lat="44.31431" lon="5.09743">
        <ele>248</ele>
        <time>2020-07-11T10:51:36.605Z</time>
      </trkpt>
      <trkpt lat="44.3144" lon="5.09749">
        <ele>247</ele>
        <time>2020-07-11T10:51:37.605Z</time>
      </trkpt>
      <trkpt lat="44.31449" lon="5.09756">
        <ele>247</ele>
        <time>2020-07-11T10:51:38.605Z</time>
      </trkpt>
      <trkpt lat="44.31458" lon="5.09763">
        <ele>247</ele>
        <time>2020-07-11T10:51:39.605Z</time>
      </trkpt>
      <trkpt lat="44.31467" lon="5.0977">
        <ele>247</ele>
        <time>2020-07-11T10:51:40.605Z</time>
      </trkpt>
      <trkpt lat="44.31475" lon="5.09776">
        <ele>246</ele>
        <time>2020-07-11T10:51:41.605Z</time>
      </trkpt>
      <trkpt lat="44.31482" lon="5.09782">
        <ele>246</ele>
        <time>2020-07-11T10:51:42.605Z</time>
      </trkpt>
      <trkpt lat="44.3149" lon="5.09788">
        <ele>246</ele>
        <time>2020-07-11T10:51:43.605Z</time>
      </trkpt>
      <trkpt lat="44.31497" lon="5.09794">
        <ele>246</ele>
        <time>2020-07-11T10:51:44.605Z</time>
      </trkpt>
      <trkpt lat="44.31504" lon="5.09799">
        <ele>246</ele>
        <time>2020-07-11T10:51:45.605Z</time>
      </trkpt>
      <trkpt lat="44.31511" lon="5.09804">
        <ele>246</ele>
        <time>2020-07-11T10:51:46.605Z</time>
      </trkpt>
      <trkpt lat="44.31518" lon="5.09809">
        <ele>245</ele>
        <time>2020-07-11T10:51:47.604Z</time>
      </trkpt>
      <trkpt lat="44.31524" lon="5.09814">
        <ele>245</ele>
        <time>2020-07-11T10:51:48.605Z</time>
      </trkpt>
      <trkpt lat="44.31531" lon="5.09818">
        <ele>245</ele>
        <time>2020-07-11T10:51:49.605Z</time>
      </trkpt>
      <trkpt lat="44.31537" lon="5.09821">
        <ele>245</ele>
        <time>2020-07-11T10:51:50.605Z</time>
      </trkpt>
      <trkpt lat="44.31543" lon="5.09825">
        <ele>244</ele>
        <time>2020-07-11T10:51:51.604Z</time>
      </trkpt>
      <trkpt lat="44.31549" lon="5.0983">
        <ele>245</ele>
        <time>2020-07-11T10:51:52.604Z</time>
      </trkpt>
      <trkpt lat="44.31555" lon="5.09834">
        <ele>245</ele>
        <time>2020-07-11T10:51:53.605Z</time>
      </trkpt>
      <trkpt lat="44.31561" lon="5.09839">
        <ele>246</ele>
        <time>2020-07-11T10:51:54.605Z</time>
      </trkpt>
      <trkpt lat="44.31567" lon="5.09843">
        <ele>246</ele>
        <time>2020-07-11T10:51:55.605Z</time>
      </trkpt>
      <trkpt lat="44.31573" lon="5.09848">
        <ele>246</ele>
        <time>2020-07-11T10:51:56.604Z</time>
      </trkpt>
      <trkpt lat="44.31579" lon="5.09853">
        <ele>246</ele>
        <time>2020-07-11T10:51:57.605Z</time>
      </trkpt>
      <trkpt lat="44.31584" lon="5.09858">
        <ele>247</ele>
        <time>2020-07-11T10:51:58.605Z</time>
      </trkpt>
      <trkpt lat="44.3159" lon="5.09864">
        <ele>247</ele>
        <time>2020-07-11T10:51:59.605Z</time>
      </trkpt>
      <trkpt lat="44.31595" lon="5.09869">
        <ele>247</ele>
        <time>2020-07-11T10:52:00.604Z</time>
      </trkpt>
      <trkpt lat="44.316" lon="5.09874">
        <ele>247</ele>
        <time>2020-07-11T10:52:01.605Z</time>
      </trkpt>
      <trkpt lat="44.31606" lon="5.09879">
        <ele>247</ele>
        <time>2020-07-11T10:52:02.605Z</time>
      </trkpt>
      <trkpt lat="44.31611" lon="5.09884">
        <ele>246</ele>
        <time>2020-07-11T10:52:03.605Z</time>
      </trkpt>
      <trkpt lat="44.31616" lon="5.09889">
        <ele>246</ele>
        <time>2020-07-11T10:52:04.605Z</time>
      </trkpt>
      <trkpt lat="44.31621" lon="5.09893">
        <ele>246</ele>
        <time>2020-07-11T10:52:05.605Z</time>
      </trkpt>
      <trkpt lat="44.31627" lon="5.09898">
        <ele>247</ele>
        <time>2020-07-11T10:52:06.605Z</time>
      </trkpt>
      <trkpt lat="44.31632" lon="5.09903">
        <ele>247</ele>
        <time>2020-07-11T10:52:07.604Z</time>
      </trkpt>
      <trkpt lat="44.31637" lon="5.09907">
        <ele>247</ele>
        <time>2020-07-11T10:52:08.605Z</time>
      </trkpt>
      <trkpt lat="44.31642" lon="5.09911">
        <ele>247</ele>
        <time>2020-07-11T10:52:09.605Z</time>
      </trkpt>
      <trkpt lat="44.31647" lon="5.09915">
        <ele>247</ele>
        <time>2020-07-11T10:52:10.605Z</time>
      </trkpt>
      <trkpt lat="44.31653" lon="5.09919">
        <ele>247</ele>
        <time>2020-07-11T10:52:11.605Z</time>
      </trkpt>
      <trkpt lat="44.31658" lon="5.09923">
        <ele>247</ele>
        <time>2020-07-11T10:52:12.605Z</time>
      </trkpt>
      <trkpt lat="44.31663" lon="5.09926">
        <ele>247</ele>
        <time>2020-07-11T10:52:13.605Z</time>
      </trkpt>
      <trkpt lat="44.31669" lon="5.09928">
        <ele>247</ele>
        <time>2020-07-11T10:52:14.605Z</time>
      </trkpt>
      <trkpt lat="44.31674" lon="5.09931">
        <ele>248</ele>
        <time>2020-07-11T10:52:15.604Z</time>
      </trkpt>
      <trkpt lat="44.31681" lon="5.09933">
        <ele>248</ele>
        <time>2020-07-11T10:52:16.605Z</time>
      </trkpt>
      <trkpt lat="44.31687" lon="5.09934">
        <ele>248</ele>
        <time>2020-07-11T10:52:17.605Z</time>
      </trkpt>
      <trkpt lat="44.31693" lon="5.09934">
        <ele>249</ele>
        <time>2020-07-11T10:52:18.604Z</time>
      </trkpt>
      <trkpt lat="44.31699" lon="5.09934">
        <ele>249</ele>
        <time>2020-07-11T10:52:19.605Z</time>
      </trkpt>
      <trkpt lat="44.31705" lon="5.09933">
        <ele>249</ele>
        <time>2020-07-11T10:52:20.605Z</time>
      </trkpt>
      <trkpt lat="44.31711" lon="5.09933">
        <ele>250</ele>
        <time>2020-07-11T10:52:21.604Z</time>
      </trkpt>
      <trkpt lat="44.31718" lon="5.09932">
        <ele>250</ele>
        <time>2020-07-11T10:52:22.605Z</time>
      </trkpt>
      <trkpt lat="44.31724" lon="5.09931">
        <ele>251</ele>
        <time>2020-07-11T10:52:23.605Z</time>
      </trkpt>
      <trkpt lat="44.31731" lon="5.0993">
        <ele>251</ele>
        <time>2020-07-11T10:52:24.604Z</time>
      </trkpt>
      <trkpt lat="44.31737" lon="5.09929">
        <ele>252</ele>
        <time>2020-07-11T10:52:25.604Z</time>
      </trkpt>
      <trkpt lat="44.31744" lon="5.09927">
        <ele>252</ele>
        <time>2020-07-11T10:52:26.605Z</time>
      </trkpt>
      <trkpt lat="44.3175" lon="5.09926">
        <ele>253</ele>
        <time>2020-07-11T10:52:27.604Z</time>
      </trkpt>
      <trkpt lat="44.31757" lon="5.09925">
        <ele>253</ele>
        <time>2020-07-11T10:52:28.605Z</time>
      </trkpt>
      <trkpt lat="44.31763" lon="5.09923">
        <ele>254</ele>
        <time>2020-07-11T10:52:29.604Z</time>
      </trkpt>
      <trkpt lat="44.3177" lon="5.09922">
        <ele>254</ele>
        <time>2020-07-11T10:52:30.605Z</time>
      </trkpt>
      <trkpt lat="44.31776" lon="5.09922">
        <ele>255</ele>
        <time>2020-07-11T10:52:31.604Z</time>
      </trkpt>
      <trkpt lat="44.31783" lon="5.09921">
        <ele>256</ele>
        <time>2020-07-11T10:52:32.605Z</time>
      </trkpt>
      <trkpt lat="44.3179" lon="5.0992">
        <ele>256</ele>
        <time>2020-07-11T10:52:33.604Z</time>
      </trkpt>
      <trkpt lat="44.31796" lon="5.09919">
        <ele>256</ele>
        <time>2020-07-11T10:52:34.605Z</time>
      </trkpt>
      <trkpt lat="44.31803" lon="5.09918">
        <ele>256</ele>
        <time>2020-07-11T10:52:35.605Z</time>
      </trkpt>
      <trkpt lat="44.31809" lon="5.09918">
        <ele>256</ele>
        <time>2020-07-11T10:52:36.605Z</time>
      </trkpt>
      <trkpt lat="44.31816" lon="5.09917">
        <ele>256</ele>
        <time>2020-07-11T10:52:37.605Z</time>
      </trkpt>
      <trkpt lat="44.31823" lon="5.09916">
        <ele>255</ele>
        <time>2020-07-11T10:52:38.605Z</time>
      </trkpt>
      <trkpt lat="44.3183" lon="5.09915">
        <ele>255</ele>
        <time>2020-07-11T10:52:39.604Z</time>
      </trkpt>
      <trkpt lat="44.31836" lon="5.09914">
        <ele>254</ele>
        <time>2020-07-11T10:52:40.605Z</time>
      </trkpt>
      <trkpt lat="44.31843" lon="5.09913">
        <ele>254</ele>
        <time>2020-07-11T10:52:41.605Z</time>
      </trkpt>
      <trkpt lat="44.3185" lon="5.09912">
        <ele>254</ele>
        <time>2020-07-11T10:52:42.605Z</time>
      </trkpt>
      <trkpt lat="44.31857" lon="5.0991">
        <ele>253</ele>
        <time>2020-07-11T10:52:43.604Z</time>
      </trkpt>
      <trkpt lat="44.31863" lon="5.09909">
        <ele>253</ele>
        <time>2020-07-11T10:52:44.605Z</time>
      </trkpt>
      <trkpt lat="44.3187" lon="5.09908">
        <ele>252</ele>
        <time>2020-07-11T10:52:45.604Z</time>
      </trkpt>
      <trkpt lat="44.31877" lon="5.09907">
        <ele>252</ele>
        <time>2020-07-11T10:52:46.605Z</time>
      </trkpt>
      <trkpt lat="44.31884" lon="5.09906">
        <ele>252</ele>
        <time>2020-07-11T10:52:47.604Z</time>
      </trkpt>
      <trkpt lat="44.3189" lon="5.09905">
        <ele>252</ele>
        <time>2020-07-11T10:52:48.605Z</time>
      </trkpt>
      <trkpt lat="44.31897" lon="5.09904">
        <ele>252</ele>
        <time>2020-07-11T10:52:49.604Z</time>
      </trkpt>
      <trkpt lat="44.31904" lon="5.09903">
        <ele>252</ele>
        <time>2020-07-11T10:52:50.605Z</time>
      </trkpt>
      <trkpt lat="44.31911" lon="5.09902">
        <ele>252</ele>
        <time>2020-07-11T10:52:51.605Z</time>
      </trkpt>
      <trkpt lat="44.31917" lon="5.09901">
        <ele>252</ele>
        <time>2020-07-11T10:52:52.605Z</time>
      </trkpt>
      <trkpt lat="44.31924" lon="5.099">
        <ele>252</ele>
        <time>2020-07-11T10:52:53.605Z</time>
      </trkpt>
      <trkpt lat="44.31931" lon="5.09899">
        <ele>252</ele>
        <time>2020-07-11T10:52:54.605Z</time>
      </trkpt>
      <trkpt lat="44.31937" lon="5.09898">
        <ele>252</ele>
        <time>2020-07-11T10:52:55.605Z</time>
      </trkpt>
      <trkpt lat="44.31944" lon="5.09897">
        <ele>252</ele>
        <time>2020-07-11T10:52:56.605Z</time>
      </trkpt>
      <trkpt lat="44.31951" lon="5.09896">
        <ele>252</ele>
        <time>2020-07-11T10:52:57.605Z</time>
      </trkpt>
      <trkpt lat="44.31958" lon="5.09895">
        <ele>252</ele>
        <time>2020-07-11T10:52:58.605Z</time>
      </trkpt>
      <trkpt lat="44.31965" lon="5.09894">
        <ele>252</ele>
        <time>2020-07-11T10:52:59.605Z</time>
      </trkpt>
      <trkpt lat="44.31972" lon="5.09893">
        <ele>252</ele>
        <time>2020-07-11T10:53:00.605Z</time>
      </trkpt>
      <trkpt lat="44.31979" lon="5.09892">
        <ele>252</ele>
        <time>2020-07-11T10:53:01.604Z</time>
      </trkpt>
      <trkpt lat="44.31986" lon="5.09891">
        <ele>252</ele>
        <time>2020-07-11T10:53:02.605Z</time>
      </trkpt>
      <trkpt lat="44.31993" lon="5.0989">
        <ele>252</ele>
        <time>2020-07-11T10:53:03.605Z</time>
      </trkpt>
      <trkpt lat="44.32" lon="5.0989">
        <ele>251</ele>
        <time>2020-07-11T10:53:04.604Z</time>
      </trkpt>
      <trkpt lat="44.32008" lon="5.09889">
        <ele>251</ele>
        <time>2020-07-11T10:53:05.605Z</time>
      </trkpt>
      <trkpt lat="44.32015" lon="5.09888">
        <ele>251</ele>
        <time>2020-07-11T10:53:06.605Z</time>
      </trkpt>
      <trkpt lat="44.32021" lon="5.09887">
        <ele>251</ele>
        <time>2020-07-11T10:53:07.605Z</time>
      </trkpt>
      <trkpt lat="44.32029" lon="5.09887">
        <ele>252</ele>
        <time>2020-07-11T10:53:08.605Z</time>
      </trkpt>
      <trkpt lat="44.32036" lon="5.09887">
        <ele>252</ele>
        <time>2020-07-11T10:53:09.605Z</time>
      </trkpt>
      <trkpt lat="44.32042" lon="5.09886">
        <ele>253</ele>
        <time>2020-07-11T10:53:10.605Z</time>
      </trkpt>
      <trkpt lat="44.32049" lon="5.09886">
        <ele>254</ele>
        <time>2020-07-11T10:53:11.605Z</time>
      </trkpt>
      <trkpt lat="44.32056" lon="5.09886">
        <ele>255</ele>
        <time>2020-07-11T10:53:12.605Z</time>
      </trkpt>
      <trkpt lat="44.32063" lon="5.09886">
        <ele>255</ele>
        <time>2020-07-11T10:53:13.605Z</time>
      </trkpt>
      <trkpt lat="44.3207" lon="5.09888">
        <ele>255</ele>
        <time>2020-07-11T10:53:14.605Z</time>
      </trkpt>
      <trkpt lat="44.32076" lon="5.09889">
        <ele>255</ele>
        <time>2020-07-11T10:53:15.605Z</time>
      </trkpt>
      <trkpt lat="44.32083" lon="5.0989">
        <ele>255</ele>
        <time>2020-07-11T10:53:16.605Z</time>
      </trkpt>
      <trkpt lat="44.32091" lon="5.09892">
        <ele>255</ele>
        <time>2020-07-11T10:53:17.605Z</time>
      </trkpt>
      <trkpt lat="44.32098" lon="5.09894">
        <ele>254</ele>
        <time>2020-07-11T10:53:18.605Z</time>
      </trkpt>
      <trkpt lat="44.32105" lon="5.09896">
        <ele>254</ele>
        <time>2020-07-11T10:53:19.605Z</time>
      </trkpt>
      <trkpt lat="44.32113" lon="5.09898">
        <ele>254</ele>
        <time>2020-07-11T10:53:20.605Z</time>
      </trkpt>
      <trkpt lat="44.3212" lon="5.099">
        <ele>254</ele>
        <time>2020-07-11T10:53:21.605Z</time>
      </trkpt>
      <trkpt lat="44.32127" lon="5.09902">
        <ele>253</ele>
        <time>2020-07-11T10:53:22.605Z</time>
      </trkpt>
      <trkpt lat="44.32135" lon="5.09904">
        <ele>253</ele>
        <time>2020-07-11T10:53:23.605Z</time>
      </trkpt>
      <trkpt lat="44.32141" lon="5.09906">
        <ele>253</ele>
        <time>2020-07-11T10:53:24.605Z</time>
      </trkpt>
      <trkpt lat="44.32149" lon="5.09909">
        <ele>252</ele>
        <time>2020-07-11T10:53:25.605Z</time>
      </trkpt>
      <trkpt lat="44.32157" lon="5.09911">
        <ele>252</ele>
        <time>2020-07-11T10:53:26.605Z</time>
      </trkpt>
      <trkpt lat="44.32164" lon="5.09913">
        <ele>251</ele>
        <time>2020-07-11T10:53:27.605Z</time>
      </trkpt>
      <trkpt lat="44.32172" lon="5.09915">
        <ele>251</ele>
        <time>2020-07-11T10:53:28.605Z</time>
      </trkpt>
      <trkpt lat="44.32179" lon="5.09917">
        <ele>251</ele>
        <time>2020-07-11T10:53:29.605Z</time>
      </trkpt>
      <trkpt lat="44.32187" lon="5.0992">
        <ele>251</ele>
        <time>2020-07-11T10:53:30.605Z</time>
      </trkpt>
      <trkpt lat="44.32195" lon="5.09922">
        <ele>251</ele>
        <time>2020-07-11T10:53:31.605Z</time>
      </trkpt>
      <trkpt lat="44.32202" lon="5.09924">
        <ele>251</ele>
        <time>2020-07-11T10:53:32.604Z</time>
      </trkpt>
      <trkpt lat="44.3221" lon="5.09926">
        <ele>251</ele>
        <time>2020-07-11T10:53:33.605Z</time>
      </trkpt>
      <trkpt lat="44.32218" lon="5.09928">
        <ele>251</ele>
        <time>2020-07-11T10:53:34.604Z</time>
      </trkpt>
      <trkpt lat="44.32226" lon="5.0993">
        <ele>251</ele>
        <time>2020-07-11T10:53:35.604Z</time>
      </trkpt>
      <trkpt lat="44.32234" lon="5.09933">
        <ele>251</ele>
        <time>2020-07-11T10:53:36.604Z</time>
      </trkpt>
      <trkpt lat="44.32242" lon="5.09935">
        <ele>251</ele>
        <time>2020-07-11T10:53:37.604Z</time>
      </trkpt>
      <trkpt lat="44.3225" lon="5.09937">
        <ele>252</ele>
        <time>2020-07-11T10:53:38.605Z</time>
      </trkpt>
      <trkpt lat="44.32258" lon="5.09939">
        <ele>252</ele>
        <time>2020-07-11T10:53:39.605Z</time>
      </trkpt>
      <trkpt lat="44.32266" lon="5.09941">
        <ele>252</ele>
        <time>2020-07-11T10:53:40.604Z</time>
      </trkpt>
      <trkpt lat="44.32273" lon="5.09943">
        <ele>252</ele>
        <time>2020-07-11T10:53:41.604Z</time>
      </trkpt>
      <trkpt lat="44.32279" lon="5.09945">
        <ele>253</ele>
        <time>2020-07-11T10:53:42.605Z</time>
      </trkpt>
      <trkpt lat="44.32284" lon="5.09946">
        <ele>252</ele>
        <time>2020-07-11T10:53:43.605Z</time>
      </trkpt>
      <trkpt lat="44.32289" lon="5.09947">
        <ele>252</ele>
        <time>2020-07-11T10:53:44.604Z</time>
      </trkpt>
      <trkpt lat="44.32292" lon="5.09948">
        <ele>252</ele>
        <time>2020-07-11T10:53:45.605Z</time>
      </trkpt>
      <trkpt lat="44.32296" lon="5.09949">
        <ele>252</ele>
        <time>2020-07-11T10:53:46.605Z</time>
      </trkpt>
      <trkpt lat="44.32299" lon="5.0995">
        <ele>252</ele>
        <time>2020-07-11T10:53:47.605Z</time>
      </trkpt>
      <trkpt lat="44.32301" lon="5.09951">
        <ele>251</ele>
        <time>2020-07-11T10:53:48.605Z</time>
      </trkpt>
      <trkpt lat="44.32304" lon="5.09951">
        <ele>252</ele>
        <time>2020-07-11T10:53:49.605Z</time>
      </trkpt>
      <trkpt lat="44.32307" lon="5.09952">
        <ele>252</ele>
        <time>2020-07-11T10:53:50.605Z</time>
      </trkpt>
      <trkpt lat="44.32309" lon="5.09952">
        <ele>251</ele>
        <time>2020-07-11T10:53:51.604Z</time>
      </trkpt>
      <trkpt lat="44.3231" lon="5.09953">
        <ele>251</ele>
        <time>2020-07-11T10:53:52.605Z</time>
      </trkpt>
      <trkpt lat="44.32312" lon="5.09953">
        <ele>250</ele>
        <time>2020-07-11T10:53:53.605Z</time>
      </trkpt>
      <trkpt lat="44.32313" lon="5.09953">
        <ele>250</ele>
        <time>2020-07-11T10:53:54.605Z</time>
      </trkpt>
      <trkpt lat="44.32314" lon="5.09954">
        <ele>249</ele>
        <time>2020-07-11T10:53:55.604Z</time>
      </trkpt>
      <trkpt lat="44.32316" lon="5.09954">
        <ele>249</ele>
        <time>2020-07-11T10:53:56.605Z</time>
      </trkpt>
      <trkpt lat="44.32316" lon="5.09955">
        <ele>249</ele>
        <time>2020-07-11T10:53:57.604Z</time>
      </trkpt>
      <trkpt lat="44.32317" lon="5.09955">
        <ele>249</ele>
        <time>2020-07-11T10:53:58.605Z</time>
      </trkpt>
      <trkpt lat="44.32317" lon="5.09955">
        <ele>249</ele>
        <time>2020-07-11T10:53:59.604Z</time>
      </trkpt>
      <trkpt lat="44.32318" lon="5.09956">
        <ele>250</ele>
        <time>2020-07-11T10:54:00.604Z</time>
      </trkpt>
      <trkpt lat="44.32317" lon="5.09956">
        <ele>250</ele>
        <time>2020-07-11T10:54:01.605Z</time>
      </trkpt>
      <trkpt lat="44.32318" lon="5.09957">
        <ele>250</ele>
        <time>2020-07-11T10:54:02.605Z</time>
      </trkpt>
      <trkpt lat="44.32319" lon="5.09957">
        <ele>250</ele>
        <time>2020-07-11T10:54:03.604Z</time>
      </trkpt>
      <trkpt lat="44.3232" lon="5.09957">
        <ele>250</ele>
        <time>2020-07-11T10:54:04.605Z</time>
      </trkpt>
      <trkpt lat="44.32321" lon="5.09957">
        <ele>249</ele>
        <time>2020-07-11T10:54:05.604Z</time>
      </trkpt>
      <trkpt lat="44.32323" lon="5.09958">
        <ele>249</ele>
        <time>2020-07-11T10:54:06.605Z</time>
      </trkpt>
      <trkpt lat="44.32325" lon="5.09958">
        <ele>248</ele>
        <time>2020-07-11T10:54:07.604Z</time>
      </trkpt>
      <trkpt lat="44.32328" lon="5.09959">
        <ele>248</ele>
        <time>2020-07-11T10:54:08.604Z</time>
      </trkpt>
      <trkpt lat="44.3233" lon="5.0996">
        <ele>248</ele>
        <time>2020-07-11T10:54:09.605Z</time>
      </trkpt>
      <trkpt lat="44.32333" lon="5.09961">
        <ele>248</ele>
        <time>2020-07-11T10:54:10.605Z</time>
      </trkpt>
      <trkpt lat="44.32337" lon="5.09962">
        <ele>247</ele>
        <time>2020-07-11T10:54:11.605Z</time>
      </trkpt>
      <trkpt lat="44.32341" lon="5.09963">
        <ele>247</ele>
        <time>2020-07-11T10:54:12.604Z</time>
      </trkpt>
      <trkpt lat="44.32345" lon="5.09964">
        <ele>247</ele>
        <time>2020-07-11T10:54:13.605Z</time>
      </trkpt>
      <trkpt lat="44.3235" lon="5.09965">
        <ele>247</ele>
        <time>2020-07-11T10:54:14.605Z</time>
      </trkpt>
      <trkpt lat="44.32356" lon="5.09966">
        <ele>247</ele>
        <time>2020-07-11T10:54:15.605Z</time>
      </trkpt>
      <trkpt lat="44.32362" lon="5.09968">
        <ele>247</ele>
        <time>2020-07-11T10:54:16.605Z</time>
      </trkpt>
      <trkpt lat="44.32368" lon="5.0997">
        <ele>247</ele>
        <time>2020-07-11T10:54:17.605Z</time>
      </trkpt>
      <trkpt lat="44.32375" lon="5.09971">
        <ele>247</ele>
        <time>2020-07-11T10:54:18.605Z</time>
      </trkpt>
      <trkpt lat="44.32381" lon="5.09973">
        <ele>247</ele>
        <time>2020-07-11T10:54:19.604Z</time>
      </trkpt>
      <trkpt lat="44.32388" lon="5.09975">
        <ele>247</ele>
        <time>2020-07-11T10:54:20.605Z</time>
      </trkpt>
      <trkpt lat="44.32395" lon="5.09977">
        <ele>247</ele>
        <time>2020-07-11T10:54:21.605Z</time>
      </trkpt>
      <trkpt lat="44.32401" lon="5.09979">
        <ele>247</ele>
        <time>2020-07-11T10:54:22.605Z</time>
      </trkpt>
      <trkpt lat="44.32408" lon="5.0998">
        <ele>248</ele>
        <time>2020-07-11T10:54:23.605Z</time>
      </trkpt>
      <trkpt lat="44.32415" lon="5.09982">
        <ele>248</ele>
        <time>2020-07-11T10:54:24.604Z</time>
      </trkpt>
      <trkpt lat="44.32421" lon="5.09984">
        <ele>248</ele>
        <time>2020-07-11T10:54:25.605Z</time>
      </trkpt>
      <trkpt lat="44.32427" lon="5.09986">
        <ele>248</ele>
        <time>2020-07-11T10:54:26.605Z</time>
      </trkpt>
      <trkpt lat="44.32433" lon="5.09988">
        <ele>249</ele>
        <time>2020-07-11T10:54:27.605Z</time>
      </trkpt>
      <trkpt lat="44.32439" lon="5.09989">
        <ele>249</ele>
        <time>2020-07-11T10:54:28.605Z</time>
      </trkpt>
      <trkpt lat="44.32446" lon="5.09991">
        <ele>249</ele>
        <time>2020-07-11T10:54:29.605Z</time>
      </trkpt>
      <trkpt lat="44.32452" lon="5.09993">
        <ele>249</ele>
        <time>2020-07-11T10:54:30.605Z</time>
      </trkpt>
      <trkpt lat="44.32459" lon="5.09995">
        <ele>249</ele>
        <time>2020-07-11T10:54:31.605Z</time>
      </trkpt>
      <trkpt lat="44.32466" lon="5.09997">
        <ele>250</ele>
        <time>2020-07-11T10:54:32.605Z</time>
      </trkpt>
      <trkpt lat="44.32473" lon="5.09998">
        <ele>250</ele>
        <time>2020-07-11T10:54:33.605Z</time>
      </trkpt>
      <trkpt lat="44.3248" lon="5.1">
        <ele>250</ele>
        <time>2020-07-11T10:54:34.604Z</time>
      </trkpt>
      <trkpt lat="44.32487" lon="5.10002">
        <ele>250</ele>
        <time>2020-07-11T10:54:35.605Z</time>
      </trkpt>
      <trkpt lat="44.32494" lon="5.10004">
        <ele>250</ele>
        <time>2020-07-11T10:54:36.605Z</time>
      </trkpt>
      <trkpt lat="44.32502" lon="5.10006">
        <ele>250</ele>
        <time>2020-07-11T10:54:37.605Z</time>
      </trkpt>
      <trkpt lat="44.32509" lon="5.10008">
        <ele>250</ele>
        <time>2020-07-11T10:54:38.605Z</time>
      </trkpt>
      <trkpt lat="44.32516" lon="5.1001">
        <ele>250</ele>
        <time>2020-07-11T10:54:39.604Z</time>
      </trkpt>
      <trkpt lat="44.32524" lon="5.10013">
        <ele>250</ele>
        <time>2020-07-11T10:54:40.605Z</time>
      </trkpt>
      <trkpt lat="44.32531" lon="5.10016">
        <ele>250</ele>
        <time>2020-07-11T10:54:41.605Z</time>
      </trkpt>
      <trkpt lat="44.32538" lon="5.1002">
        <ele>249</ele>
        <time>2020-07-11T10:54:42.605Z</time>
      </trkpt>
      <trkpt lat="44.32545" lon="5.10024">
        <ele>249</ele>
        <time>2020-07-11T10:54:43.605Z</time>
      </trkpt>
      <trkpt lat="44.32552" lon="5.10028">
        <ele>249</ele>
        <time>2020-07-11T10:54:44.605Z</time>
      </trkpt>
      <trkpt lat="44.32558" lon="5.10033">
        <ele>249</ele>
        <time>2020-07-11T10:54:45.605Z</time>
      </trkpt>
      <trkpt lat="44.32565" lon="5.10039">
        <ele>249</ele>
        <time>2020-07-11T10:54:46.605Z</time>
      </trkpt>
      <trkpt lat="44.32571" lon="5.10045">
        <ele>249</ele>
        <time>2020-07-11T10:54:47.604Z</time>
      </trkpt>
      <trkpt lat="44.32577" lon="5.10051">
        <ele>249</ele>
        <time>2020-07-11T10:54:48.605Z</time>
      </trkpt>
      <trkpt lat="44.32584" lon="5.10058">
        <ele>248</ele>
        <time>2020-07-11T10:54:49.605Z</time>
      </trkpt>
      <trkpt lat="44.3259" lon="5.10065">
        <ele>249</ele>
        <time>2020-07-11T10:54:50.604Z</time>
      </trkpt>
      <trkpt lat="44.32596" lon="5.10071">
        <ele>249</ele>
        <time>2020-07-11T10:54:51.605Z</time>
      </trkpt>
      <trkpt lat="44.32603" lon="5.10077">
        <ele>249</ele>
        <time>2020-07-11T10:54:52.605Z</time>
      </trkpt>
      <trkpt lat="44.32609" lon="5.10084">
        <ele>249</ele>
        <time>2020-07-11T10:54:53.604Z</time>
      </trkpt>
      <trkpt lat="44.32616" lon="5.10092">
        <ele>248</ele>
        <time>2020-07-11T10:54:54.605Z</time>
      </trkpt>
      <trkpt lat="44.32621" lon="5.10097">
        <ele>248</ele>
        <time>2020-07-11T10:54:55.605Z</time>
      </trkpt>
      <trkpt lat="44.32627" lon="5.10103">
        <ele>248</ele>
        <time>2020-07-11T10:54:56.605Z</time>
      </trkpt>
      <trkpt lat="44.32634" lon="5.10109">
        <ele>247</ele>
        <time>2020-07-11T10:54:57.604Z</time>
      </trkpt>
      <trkpt lat="44.3264" lon="5.10116">
        <ele>247</ele>
        <time>2020-07-11T10:54:58.605Z</time>
      </trkpt>
      <trkpt lat="44.32646" lon="5.10122">
        <ele>247</ele>
        <time>2020-07-11T10:54:59.605Z</time>
      </trkpt>
      <trkpt lat="44.32653" lon="5.10128">
        <ele>246</ele>
        <time>2020-07-11T10:55:00.604Z</time>
      </trkpt>
      <trkpt lat="44.32659" lon="5.10134">
        <ele>246</ele>
        <time>2020-07-11T10:55:01.605Z</time>
      </trkpt>
      <trkpt lat="44.32665" lon="5.10141">
        <ele>246</ele>
        <time>2020-07-11T10:55:02.604Z</time>
      </trkpt>
      <trkpt lat="44.32672" lon="5.10147">
        <ele>246</ele>
        <time>2020-07-11T10:55:03.605Z</time>
      </trkpt>
      <trkpt lat="44.32678" lon="5.10154">
        <ele>246</ele>
        <time>2020-07-11T10:55:04.605Z</time>
      </trkpt>
      <trkpt lat="44.32685" lon="5.1016">
        <ele>246</ele>
        <time>2020-07-11T10:55:05.605Z</time>
      </trkpt>
      <trkpt lat="44.32692" lon="5.10167">
        <ele>246</ele>
        <time>2020-07-11T10:55:06.605Z</time>
      </trkpt>
      <trkpt lat="44.32698" lon="5.10173">
        <ele>246</ele>
        <time>2020-07-11T10:55:07.604Z</time>
      </trkpt>
      <trkpt lat="44.32705" lon="5.1018">
        <ele>246</ele>
        <time>2020-07-11T10:55:08.605Z</time>
      </trkpt>
      <trkpt lat="44.32712" lon="5.10187">
        <ele>246</ele>
        <time>2020-07-11T10:55:09.605Z</time>
      </trkpt>
      <trkpt lat="44.32719" lon="5.10194">
        <ele>246</ele>
        <time>2020-07-11T10:55:10.604Z</time>
      </trkpt>
      <trkpt lat="44.32726" lon="5.10201">
        <ele>247</ele>
        <time>2020-07-11T10:55:11.605Z</time>
      </trkpt>
      <trkpt lat="44.32733" lon="5.10208">
        <ele>247</ele>
        <time>2020-07-11T10:55:12.605Z</time>
      </trkpt>
      <trkpt lat="44.3274" lon="5.10215">
        <ele>248</ele>
        <time>2020-07-11T10:55:13.605Z</time>
      </trkpt>
      <trkpt lat="44.32747" lon="5.10223">
        <ele>248</ele>
        <time>2020-07-11T10:55:14.605Z</time>
      </trkpt>
      <trkpt lat="44.32754" lon="5.10229">
        <ele>248</ele>
        <time>2020-07-11T10:55:15.605Z</time>
      </trkpt>
      <trkpt lat="44.3276" lon="5.10237">
        <ele>248</ele>
        <time>2020-07-11T10:55:16.605Z</time>
      </trkpt>
      <trkpt lat="44.32767" lon="5.10244">
        <ele>248</ele>
        <time>2020-07-11T10:55:17.605Z</time>
      </trkpt>
      <trkpt lat="44.32774" lon="5.1025">
        <ele>248</ele>
        <time>2020-07-11T10:55:18.605Z</time>
      </trkpt>
      <trkpt lat="44.32781" lon="5.10257">
        <ele>248</ele>
        <time>2020-07-11T10:55:19.604Z</time>
      </trkpt>
      <trkpt lat="44.32787" lon="5.10264">
        <ele>247</ele>
        <time>2020-07-11T10:55:20.605Z</time>
      </trkpt>
      <trkpt lat="44.32794" lon="5.1027">
        <ele>247</ele>
        <time>2020-07-11T10:55:21.605Z</time>
      </trkpt>
      <trkpt lat="44.328" lon="5.10277">
        <ele>247</ele>
        <time>2020-07-11T10:55:22.605Z</time>
      </trkpt>
      <trkpt lat="44.32807" lon="5.10284">
        <ele>247</ele>
        <time>2020-07-11T10:55:23.604Z</time>
      </trkpt>
      <trkpt lat="44.32814" lon="5.1029">
        <ele>247</ele>
        <time>2020-07-11T10:55:24.604Z</time>
      </trkpt>
      <trkpt lat="44.3282" lon="5.10296">
        <ele>247</ele>
        <time>2020-07-11T10:55:25.604Z</time>
      </trkpt>
      <trkpt lat="44.32826" lon="5.10303">
        <ele>247</ele>
        <time>2020-07-11T10:55:26.605Z</time>
      </trkpt>
      <trkpt lat="44.32833" lon="5.10309">
        <ele>247</ele>
        <time>2020-07-11T10:55:27.605Z</time>
      </trkpt>
      <trkpt lat="44.32839" lon="5.10316">
        <ele>247</ele>
        <time>2020-07-11T10:55:28.604Z</time>
      </trkpt>
      <trkpt lat="44.32845" lon="5.10322">
        <ele>246</ele>
        <time>2020-07-11T10:55:29.605Z</time>
      </trkpt>
      <trkpt lat="44.32851" lon="5.10329">
        <ele>246</ele>
        <time>2020-07-11T10:55:30.605Z</time>
      </trkpt>
      <trkpt lat="44.32857" lon="5.10335">
        <ele>246</ele>
        <time>2020-07-11T10:55:31.605Z</time>
      </trkpt>
      <trkpt lat="44.32864" lon="5.10341">
        <ele>245</ele>
        <time>2020-07-11T10:55:32.605Z</time>
      </trkpt>
      <trkpt lat="44.3287" lon="5.10348">
        <ele>246</ele>
        <time>2020-07-11T10:55:33.605Z</time>
      </trkpt>
      <trkpt lat="44.32877" lon="5.10355">
        <ele>246</ele>
        <time>2020-07-11T10:55:34.605Z</time>
      </trkpt>
      <trkpt lat="44.32884" lon="5.10361">
        <ele>246</ele>
        <time>2020-07-11T10:55:35.605Z</time>
      </trkpt>
      <trkpt lat="44.32891" lon="5.10368">
        <ele>246</ele>
        <time>2020-07-11T10:55:36.605Z</time>
      </trkpt>
      <trkpt lat="44.32897" lon="5.10375">
        <ele>246</ele>
        <time>2020-07-11T10:55:37.604Z</time>
      </trkpt>
      <trkpt lat="44.32903" lon="5.10381">
        <ele>245</ele>
        <time>2020-07-11T10:55:38.605Z</time>
      </trkpt>
      <trkpt lat="44.3291" lon="5.10388">
        <ele>245</ele>
        <time>2020-07-11T10:55:39.605Z</time>
      </trkpt>
      <trkpt lat="44.32916" lon="5.10394">
        <ele>245</ele>
        <time>2020-07-11T10:55:40.605Z</time>
      </trkpt>
      <trkpt lat="44.32923" lon="5.10401">
        <ele>245</ele>
        <time>2020-07-11T10:55:41.604Z</time>
      </trkpt>
      <trkpt lat="44.32929" lon="5.10407">
        <ele>245</ele>
        <time>2020-07-11T10:55:42.605Z</time>
      </trkpt>
      <trkpt lat="44.32936" lon="5.10414">
        <ele>245</ele>
        <time>2020-07-11T10:55:43.605Z</time>
      </trkpt>
      <trkpt lat="44.32942" lon="5.10421">
        <ele>245</ele>
        <time>2020-07-11T10:55:44.605Z</time>
      </trkpt>
      <trkpt lat="44.32948" lon="5.10427">
        <ele>244</ele>
        <time>2020-07-11T10:55:45.605Z</time>
      </trkpt>
      <trkpt lat="44.32955" lon="5.10434">
        <ele>244</ele>
        <time>2020-07-11T10:55:46.604Z</time>
      </trkpt>
      <trkpt lat="44.32962" lon="5.10441">
        <ele>245</ele>
        <time>2020-07-11T10:55:47.605Z</time>
      </trkpt>
      <trkpt lat="44.32968" lon="5.10448">
        <ele>245</ele>
        <time>2020-07-11T10:55:48.604Z</time>
      </trkpt>
      <trkpt lat="44.32975" lon="5.10455">
        <ele>245</ele>
        <time>2020-07-11T10:55:49.605Z</time>
      </trkpt>
      <trkpt lat="44.32981" lon="5.10462">
        <ele>246</ele>
        <time>2020-07-11T10:55:50.604Z</time>
      </trkpt>
      <trkpt lat="44.32988" lon="5.10469">
        <ele>246</ele>
        <time>2020-07-11T10:55:51.605Z</time>
      </trkpt>
      <trkpt lat="44.32994" lon="5.10475">
        <ele>246</ele>
        <time>2020-07-11T10:55:52.605Z</time>
      </trkpt>
      <trkpt lat="44.33" lon="5.10482">
        <ele>246</ele>
        <time>2020-07-11T10:55:53.605Z</time>
      </trkpt>
      <trkpt lat="44.33006" lon="5.10489">
        <ele>246</ele>
        <time>2020-07-11T10:55:54.605Z</time>
      </trkpt>
      <trkpt lat="44.33012" lon="5.10496">
        <ele>246</ele>
        <time>2020-07-11T10:55:55.605Z</time>
      </trkpt>
      <trkpt lat="44.33018" lon="5.10503">
        <ele>246</ele>
        <time>2020-07-11T10:55:56.604Z</time>
      </trkpt>
      <trkpt lat="44.33024" lon="5.1051">
        <ele>246</ele>
        <time>2020-07-11T10:55:57.605Z</time>
      </trkpt>
      <trkpt lat="44.3303" lon="5.10516">
        <ele>246</ele>
        <time>2020-07-11T10:55:58.605Z</time>
      </trkpt>
      <trkpt lat="44.33037" lon="5.10523">
        <ele>246</ele>
        <time>2020-07-11T10:55:59.605Z</time>
      </trkpt>
      <trkpt lat="44.33044" lon="5.1053">
        <ele>246</ele>
        <time>2020-07-11T10:56:00.605Z</time>
      </trkpt>
      <trkpt lat="44.3305" lon="5.10537">
        <ele>246</ele>
        <time>2020-07-11T10:56:01.605Z</time>
      </trkpt>
      <trkpt lat="44.33057" lon="5.10544">
        <ele>246</ele>
        <time>2020-07-11T10:56:02.605Z</time>
      </trkpt>
      <trkpt lat="44.33063" lon="5.10551">
        <ele>246</ele>
        <time>2020-07-11T10:56:03.604Z</time>
      </trkpt>
      <trkpt lat="44.33069" lon="5.10558">
        <ele>246</ele>
        <time>2020-07-11T10:56:04.605Z</time>
      </trkpt>
      <trkpt lat="44.33076" lon="5.10565">
        <ele>246</ele>
        <time>2020-07-11T10:56:05.605Z</time>
      </trkpt>
      <trkpt lat="44.33083" lon="5.10572">
        <ele>246</ele>
        <time>2020-07-11T10:56:06.604Z</time>
      </trkpt>
      <trkpt lat="44.33089" lon="5.10579">
        <ele>246</ele>
        <time>2020-07-11T10:56:07.604Z</time>
      </trkpt>
      <trkpt lat="44.33095" lon="5.10586">
        <ele>246</ele>
        <time>2020-07-11T10:56:08.605Z</time>
      </trkpt>
      <trkpt lat="44.33102" lon="5.10592">
        <ele>246</ele>
        <time>2020-07-11T10:56:09.605Z</time>
      </trkpt>
      <trkpt lat="44.33108" lon="5.10599">
        <ele>246</ele>
        <time>2020-07-11T10:56:10.605Z</time>
      </trkpt>
      <trkpt lat="44.33114" lon="5.10606">
        <ele>246</ele>
        <time>2020-07-11T10:56:11.604Z</time>
      </trkpt>
      <trkpt lat="44.3312" lon="5.10613">
        <ele>246</ele>
        <time>2020-07-11T10:56:12.605Z</time>
      </trkpt>
      <trkpt lat="44.33127" lon="5.10619">
        <ele>245</ele>
        <time>2020-07-11T10:56:13.605Z</time>
      </trkpt>
      <trkpt lat="44.33133" lon="5.10626">
        <ele>245</ele>
        <time>2020-07-11T10:56:14.604Z</time>
      </trkpt>
      <trkpt lat="44.33139" lon="5.10633">
        <ele>244</ele>
        <time>2020-07-11T10:56:15.605Z</time>
      </trkpt>
      <trkpt lat="44.33145" lon="5.1064">
        <ele>244</ele>
        <time>2020-07-11T10:56:16.605Z</time>
      </trkpt>
      <trkpt lat="44.33151" lon="5.10647">
        <ele>244</ele>
        <time>2020-07-11T10:56:17.604Z</time>
      </trkpt>
      <trkpt lat="44.33157" lon="5.10654">
        <ele>243</ele>
        <time>2020-07-11T10:56:18.605Z</time>
      </trkpt>
      <trkpt lat="44.33163" lon="5.10661">
        <ele>243</ele>
        <time>2020-07-11T10:56:19.605Z</time>
      </trkpt>
      <trkpt lat="44.33169" lon="5.10668">
        <ele>243</ele>
        <time>2020-07-11T10:56:20.605Z</time>
      </trkpt>
      <trkpt lat="44.33174" lon="5.10676">
        <ele>243</ele>
        <time>2020-07-11T10:56:21.605Z</time>
      </trkpt>
      <trkpt lat="44.3318" lon="5.10684">
        <ele>244</ele>
        <time>2020-07-11T10:56:22.605Z</time>
      </trkpt>
      <trkpt lat="44.33186" lon="5.10691">
        <ele>245</ele>
        <time>2020-07-11T10:56:23.605Z</time>
      </trkpt>
      <trkpt lat="44.33192" lon="5.10699">
        <ele>245</ele>
        <time>2020-07-11T10:56:24.605Z</time>
      </trkpt>
      <trkpt lat="44.33198" lon="5.10706">
        <ele>245</ele>
        <time>2020-07-11T10:56:25.605Z</time>
      </trkpt>
      <trkpt lat="44.33203" lon="5.10714">
        <ele>245</ele>
        <time>2020-07-11T10:56:26.605Z</time>
      </trkpt>
      <trkpt lat="44.33209" lon="5.10722">
        <ele>245</ele>
        <time>2020-07-11T10:56:27.605Z</time>
      </trkpt>
      <trkpt lat="44.33215" lon="5.10729">
        <ele>245</ele>
        <time>2020-07-11T10:56:28.604Z</time>
      </trkpt>
      <trkpt lat="44.3322" lon="5.10736">
        <ele>245</ele>
        <time>2020-07-11T10:56:29.605Z</time>
      </trkpt>
      <trkpt lat="44.33226" lon="5.10744">
        <ele>245</ele>
        <time>2020-07-11T10:56:30.605Z</time>
      </trkpt>
      <trkpt lat="44.33232" lon="5.10752">
        <ele>245</ele>
        <time>2020-07-11T10:56:31.605Z</time>
      </trkpt>
      <trkpt lat="44.33238" lon="5.10759">
        <ele>245</ele>
        <time>2020-07-11T10:56:32.605Z</time>
      </trkpt>
      <trkpt lat="44.33243" lon="5.10766">
        <ele>245</ele>
        <time>2020-07-11T10:56:33.605Z</time>
      </trkpt>
      <trkpt lat="44.33249" lon="5.10773">
        <ele>245</ele>
        <time>2020-07-11T10:56:34.605Z</time>
      </trkpt>
      <trkpt lat="44.33254" lon="5.10781">
        <ele>245</ele>
        <time>2020-07-11T10:56:35.605Z</time>
      </trkpt>
      <trkpt lat="44.3326" lon="5.10788">
        <ele>245</ele>
        <time>2020-07-11T10:56:36.605Z</time>
      </trkpt>
      <trkpt lat="44.33265" lon="5.10796">
        <ele>245</ele>
        <time>2020-07-11T10:56:37.605Z</time>
      </trkpt>
      <trkpt lat="44.3327" lon="5.10803">
        <ele>245</ele>
        <time>2020-07-11T10:56:38.604Z</time>
      </trkpt>
      <trkpt lat="44.33275" lon="5.1081">
        <ele>245</ele>
        <time>2020-07-11T10:56:39.605Z</time>
      </trkpt>
      <trkpt lat="44.3328" lon="5.10818">
        <ele>246</ele>
        <time>2020-07-11T10:56:40.605Z</time>
      </trkpt>
      <trkpt lat="44.33286" lon="5.10825">
        <ele>246</ele>
        <time>2020-07-11T10:56:41.605Z</time>
      </trkpt>
      <trkpt lat="44.3329" lon="5.10833">
        <ele>246</ele>
        <time>2020-07-11T10:56:42.605Z</time>
      </trkpt>
      <trkpt lat="44.33295" lon="5.1084">
        <ele>246</ele>
        <time>2020-07-11T10:56:43.605Z</time>
      </trkpt>
      <trkpt lat="44.333" lon="5.10848">
        <ele>246</ele>
        <time>2020-07-11T10:56:44.605Z</time>
      </trkpt>
      <trkpt lat="44.33305" lon="5.10855">
        <ele>246</ele>
        <time>2020-07-11T10:56:45.605Z</time>
      </trkpt>
      <trkpt lat="44.3331" lon="5.10863">
        <ele>246</ele>
        <time>2020-07-11T10:56:46.605Z</time>
      </trkpt>
      <trkpt lat="44.33316" lon="5.10869">
        <ele>245</ele>
        <time>2020-07-11T10:56:47.605Z</time>
      </trkpt>
      <trkpt lat="44.33321" lon="5.10876">
        <ele>245</ele>
        <time>2020-07-11T10:56:48.605Z</time>
      </trkpt>
      <trkpt lat="44.33327" lon="5.10883">
        <ele>244</ele>
        <time>2020-07-11T10:56:49.604Z</time>
      </trkpt>
      <trkpt lat="44.33333" lon="5.10889">
        <ele>244</ele>
        <time>2020-07-11T10:56:50.604Z</time>
      </trkpt>
      <trkpt lat="44.33339" lon="5.10895">
        <ele>244</ele>
        <time>2020-07-11T10:56:51.604Z</time>
      </trkpt>
      <trkpt lat="44.33345" lon="5.10902">
        <ele>244</ele>
        <time>2020-07-11T10:56:52.604Z</time>
      </trkpt>
      <trkpt lat="44.3335" lon="5.10908">
        <ele>244</ele>
        <time>2020-07-11T10:56:53.604Z</time>
      </trkpt>
      <trkpt lat="44.33356" lon="5.10913">
        <ele>244</ele>
        <time>2020-07-11T10:56:54.604Z</time>
      </trkpt>
      <trkpt lat="44.33362" lon="5.10919">
        <ele>243</ele>
        <time>2020-07-11T10:56:55.605Z</time>
      </trkpt>
      <trkpt lat="44.33368" lon="5.10925">
        <ele>243</ele>
        <time>2020-07-11T10:56:56.604Z</time>
      </trkpt>
      <trkpt lat="44.33374" lon="5.10931">
        <ele>243</ele>
        <time>2020-07-11T10:56:57.605Z</time>
      </trkpt>
      <trkpt lat="44.3338" lon="5.10936">
        <ele>243</ele>
        <time>2020-07-11T10:56:58.605Z</time>
      </trkpt>
      <trkpt lat="44.33386" lon="5.10942">
        <ele>244</ele>
        <time>2020-07-11T10:56:59.605Z</time>
      </trkpt>
      <trkpt lat="44.33392" lon="5.10948">
        <ele>244</ele>
        <time>2020-07-11T10:57:00.605Z</time>
      </trkpt>
      <trkpt lat="44.33398" lon="5.10954">
        <ele>244</ele>
        <time>2020-07-11T10:57:01.605Z</time>
      </trkpt>
      <trkpt lat="44.33404" lon="5.1096">
        <ele>244</ele>
        <time>2020-07-11T10:57:02.605Z</time>
      </trkpt>
      <trkpt lat="44.3341" lon="5.10966">
        <ele>244</ele>
        <time>2020-07-11T10:57:03.605Z</time>
      </trkpt>
      <trkpt lat="44.33415" lon="5.10972">
        <ele>244</ele>
        <time>2020-07-11T10:57:04.605Z</time>
      </trkpt>
      <trkpt lat="44.33421" lon="5.10979">
        <ele>244</ele>
        <time>2020-07-11T10:57:05.605Z</time>
      </trkpt>
      <trkpt lat="44.33427" lon="5.10985">
        <ele>244</ele>
        <time>2020-07-11T10:57:06.605Z</time>
      </trkpt>
      <trkpt lat="44.33432" lon="5.10992">
        <ele>245</ele>
        <time>2020-07-11T10:57:07.605Z</time>
      </trkpt>
      <trkpt lat="44.33437" lon="5.10999">
        <ele>245</ele>
        <time>2020-07-11T10:57:08.605Z</time>
      </trkpt>
      <trkpt lat="44.33442" lon="5.11005">
        <ele>246</ele>
        <time>2020-07-11T10:57:09.605Z</time>
      </trkpt>
      <trkpt lat="44.33447" lon="5.11012">
        <ele>246</ele>
        <time>2020-07-11T10:57:10.605Z</time>
      </trkpt>
      <trkpt lat="44.33452" lon="5.11018">
        <ele>246</ele>
        <time>2020-07-11T10:57:11.604Z</time>
      </trkpt>
      <trkpt lat="44.33457" lon="5.11025">
        <ele>247</ele>
        <time>2020-07-11T10:57:12.605Z</time>
      </trkpt>
      <trkpt lat="44.33463" lon="5.11031">
        <ele>247</ele>
        <time>2020-07-11T10:57:13.604Z</time>
      </trkpt>
      <trkpt lat="44.33468" lon="5.11036">
        <ele>247</ele>
        <time>2020-07-11T10:57:14.605Z</time>
      </trkpt>
      <trkpt lat="44.33474" lon="5.11041">
        <ele>247</ele>
        <time>2020-07-11T10:57:15.605Z</time>
      </trkpt>
      <trkpt lat="44.3348" lon="5.11045">
        <ele>248</ele>
        <time>2020-07-11T10:57:16.604Z</time>
      </trkpt>
      <trkpt lat="44.33487" lon="5.11049">
        <ele>248</ele>
        <time>2020-07-11T10:57:17.605Z</time>
      </trkpt>
      <trkpt lat="44.33494" lon="5.11052">
        <ele>248</ele>
        <time>2020-07-11T10:57:18.605Z</time>
      </trkpt>
      <trkpt lat="44.335" lon="5.11054">
        <ele>248</ele>
        <time>2020-07-11T10:57:19.605Z</time>
      </trkpt>
      <trkpt lat="44.33507" lon="5.11056">
        <ele>249</ele>
        <time>2020-07-11T10:57:20.605Z</time>
      </trkpt>
      <trkpt lat="44.33514" lon="5.11058">
        <ele>249</ele>
        <time>2020-07-11T10:57:21.605Z</time>
      </trkpt>
      <trkpt lat="44.33521" lon="5.1106">
        <ele>249</ele>
        <time>2020-07-11T10:57:22.604Z</time>
      </trkpt>
      <trkpt lat="44.33528" lon="5.11062">
        <ele>249</ele>
        <time>2020-07-11T10:57:23.605Z</time>
      </trkpt>
      <trkpt lat="44.33535" lon="5.11063">
        <ele>249</ele>
        <time>2020-07-11T10:57:24.605Z</time>
      </trkpt>
      <trkpt lat="44.33541" lon="5.11065">
        <ele>249</ele>
        <time>2020-07-11T10:57:25.605Z</time>
      </trkpt>
      <trkpt lat="44.33548" lon="5.11067">
        <ele>249</ele>
        <time>2020-07-11T10:57:26.605Z</time>
      </trkpt>
      <trkpt lat="44.33554" lon="5.11069">
        <ele>249</ele>
        <time>2020-07-11T10:57:27.605Z</time>
      </trkpt>
      <trkpt lat="44.33561" lon="5.11072">
        <ele>249</ele>
        <time>2020-07-11T10:57:28.604Z</time>
      </trkpt>
      <trkpt lat="44.33567" lon="5.11075">
        <ele>249</ele>
        <time>2020-07-11T10:57:29.605Z</time>
      </trkpt>
      <trkpt lat="44.33573" lon="5.11078">
        <ele>248</ele>
        <time>2020-07-11T10:57:30.604Z</time>
      </trkpt>
      <trkpt lat="44.33579" lon="5.11082">
        <ele>248</ele>
        <time>2020-07-11T10:57:31.605Z</time>
      </trkpt>
      <trkpt lat="44.33585" lon="5.11086">
        <ele>248</ele>
        <time>2020-07-11T10:57:32.605Z</time>
      </trkpt>
      <trkpt lat="44.33591" lon="5.1109">
        <ele>248</ele>
        <time>2020-07-11T10:57:33.605Z</time>
      </trkpt>
      <trkpt lat="44.33597" lon="5.11095">
        <ele>248</ele>
        <time>2020-07-11T10:57:34.605Z</time>
      </trkpt>
      <trkpt lat="44.33603" lon="5.11099">
        <ele>248</ele>
        <time>2020-07-11T10:57:35.605Z</time>
      </trkpt>
      <trkpt lat="44.33609" lon="5.11105">
        <ele>248</ele>
        <time>2020-07-11T10:57:36.605Z</time>
      </trkpt>
      <trkpt lat="44.33614" lon="5.1111">
        <ele>248</ele>
        <time>2020-07-11T10:57:37.604Z</time>
      </trkpt>
      <trkpt lat="44.3362" lon="5.11116">
        <ele>248</ele>
        <time>2020-07-11T10:57:38.605Z</time>
      </trkpt>
      <trkpt lat="44.33625" lon="5.11122">
        <ele>249</ele>
        <time>2020-07-11T10:57:39.605Z</time>
      </trkpt>
      <trkpt lat="44.3363" lon="5.11128">
        <ele>249</ele>
        <time>2020-07-11T10:57:40.605Z</time>
      </trkpt>
      <trkpt lat="44.33635" lon="5.11135">
        <ele>249</ele>
        <time>2020-07-11T10:57:41.604Z</time>
      </trkpt>
      <trkpt lat="44.33641" lon="5.11141">
        <ele>250</ele>
        <time>2020-07-11T10:57:42.604Z</time>
      </trkpt>
      <trkpt lat="44.33646" lon="5.11148">
        <ele>250</ele>
        <time>2020-07-11T10:57:43.605Z</time>
      </trkpt>
      <trkpt lat="44.33651" lon="5.11154">
        <ele>251</ele>
        <time>2020-07-11T10:57:44.605Z</time>
      </trkpt>
      <trkpt lat="44.33656" lon="5.11161">
        <ele>251</ele>
        <time>2020-07-11T10:57:45.605Z</time>
      </trkpt>
      <trkpt lat="44.3366" lon="5.11169">
        <ele>251</ele>
        <time>2020-07-11T10:57:46.604Z</time>
      </trkpt>
      <trkpt lat="44.33664" lon="5.11177">
        <ele>251</ele>
        <time>2020-07-11T10:57:47.605Z</time>
      </trkpt>
      <trkpt lat="44.33668" lon="5.11185">
        <ele>251</ele>
        <time>2020-07-11T10:57:48.605Z</time>
      </trkpt>
      <trkpt lat="44.33672" lon="5.11194">
        <ele>251</ele>
        <time>2020-07-11T10:57:49.604Z</time>
      </trkpt>
      <trkpt lat="44.33675" lon="5.11203">
        <ele>251</ele>
        <time>2020-07-11T10:57:50.605Z</time>
      </trkpt>
      <trkpt lat="44.33679" lon="5.11211">
        <ele>251</ele>
        <time>2020-07-11T10:57:51.605Z</time>
      </trkpt>
      <trkpt lat="44.33683" lon="5.1122">
        <ele>251</ele>
        <time>2020-07-11T10:57:52.605Z</time>
      </trkpt>
      <trkpt lat="44.33686" lon="5.11229">
        <ele>251</ele>
        <time>2020-07-11T10:57:53.605Z</time>
      </trkpt>
      <trkpt lat="44.3369" lon="5.11238">
        <ele>252</ele>
        <time>2020-07-11T10:57:54.605Z</time>
      </trkpt>
      <trkpt lat="44.33693" lon="5.11247">
        <ele>252</ele>
        <time>2020-07-11T10:57:55.605Z</time>
      </trkpt>
      <trkpt lat="44.33697" lon="5.11255">
        <ele>252</ele>
        <time>2020-07-11T10:57:56.604Z</time>
      </trkpt>
      <trkpt lat="44.33701" lon="5.11264">
        <ele>252</ele>
        <time>2020-07-11T10:57:57.605Z</time>
      </trkpt>
      <trkpt lat="44.33705" lon="5.11273">
        <ele>252</ele>
        <time>2020-07-11T10:57:58.605Z</time>
      </trkpt>
      <trkpt lat="44.33708" lon="5.11282">
        <ele>252</ele>
        <time>2020-07-11T10:57:59.605Z</time>
      </trkpt>
      <trkpt lat="44.33712" lon="5.11291">
        <ele>253</ele>
        <time>2020-07-11T10:58:00.605Z</time>
      </trkpt>
      <trkpt lat="44.33715" lon="5.113">
        <ele>253</ele>
        <time>2020-07-11T10:58:01.604Z</time>
      </trkpt>
      <trkpt lat="44.33719" lon="5.11309">
        <ele>253</ele>
        <time>2020-07-11T10:58:02.605Z</time>
      </trkpt>
      <trkpt lat="44.33723" lon="5.11318">
        <ele>253</ele>
        <time>2020-07-11T10:58:03.604Z</time>
      </trkpt>
      <trkpt lat="44.33727" lon="5.11327">
        <ele>253</ele>
        <time>2020-07-11T10:58:04.605Z</time>
      </trkpt>
      <trkpt lat="44.33731" lon="5.11336">
        <ele>254</ele>
        <time>2020-07-11T10:58:05.605Z</time>
      </trkpt>
      <trkpt lat="44.33735" lon="5.11345">
        <ele>254</ele>
        <time>2020-07-11T10:58:06.604Z</time>
      </trkpt>
      <trkpt lat="44.33739" lon="5.11354">
        <ele>254</ele>
        <time>2020-07-11T10:58:07.605Z</time>
      </trkpt>
      <trkpt lat="44.33743" lon="5.11362">
        <ele>254</ele>
        <time>2020-07-11T10:58:08.605Z</time>
      </trkpt>
      <trkpt lat="44.33747" lon="5.11371">
        <ele>254</ele>
        <time>2020-07-11T10:58:09.605Z</time>
      </trkpt>
      <trkpt lat="44.33751" lon="5.11379">
        <ele>254</ele>
        <time>2020-07-11T10:58:10.604Z</time>
      </trkpt>
      <trkpt lat="44.33755" lon="5.11388">
        <ele>254</ele>
        <time>2020-07-11T10:58:11.604Z</time>
      </trkpt>
      <trkpt lat="44.33759" lon="5.11396">
        <ele>253</ele>
        <time>2020-07-11T10:58:12.604Z</time>
      </trkpt>
      <trkpt lat="44.33765" lon="5.11403">
        <ele>253</ele>
        <time>2020-07-11T10:58:13.604Z</time>
      </trkpt>
      <trkpt lat="44.3377" lon="5.1141">
        <ele>253</ele>
        <time>2020-07-11T10:58:14.604Z</time>
      </trkpt>
      <trkpt lat="44.33776" lon="5.11416">
        <ele>253</ele>
        <time>2020-07-11T10:58:15.605Z</time>
      </trkpt>
      <trkpt lat="44.33781" lon="5.11421">
        <ele>253</ele>
        <time>2020-07-11T10:58:16.605Z</time>
      </trkpt>
      <trkpt lat="44.33788" lon="5.11427">
        <ele>253</ele>
        <time>2020-07-11T10:58:17.604Z</time>
      </trkpt>
      <trkpt lat="44.33795" lon="5.11431">
        <ele>253</ele>
        <time>2020-07-11T10:58:18.604Z</time>
      </trkpt>
      <trkpt lat="44.33801" lon="5.11435">
        <ele>253</ele>
        <time>2020-07-11T10:58:19.604Z</time>
      </trkpt>
      <trkpt lat="44.33808" lon="5.11438">
        <ele>253</ele>
        <time>2020-07-11T10:58:20.604Z</time>
      </trkpt>
      <trkpt lat="44.33815" lon="5.1144">
        <ele>253</ele>
        <time>2020-07-11T10:58:21.605Z</time>
      </trkpt>
      <trkpt lat="44.33822" lon="5.11443">
        <ele>253</ele>
        <time>2020-07-11T10:58:22.605Z</time>
      </trkpt>
      <trkpt lat="44.33829" lon="5.11446">
        <ele>253</ele>
        <time>2020-07-11T10:58:23.605Z</time>
      </trkpt>
      <trkpt lat="44.33837" lon="5.11449">
        <ele>253</ele>
        <time>2020-07-11T10:58:24.605Z</time>
      </trkpt>
      <trkpt lat="44.33845" lon="5.11451">
        <ele>253</ele>
        <time>2020-07-11T10:58:25.605Z</time>
      </trkpt>
      <trkpt lat="44.33853" lon="5.11454">
        <ele>253</ele>
        <time>2020-07-11T10:58:26.604Z</time>
      </trkpt>
      <trkpt lat="44.33861" lon="5.11457">
        <ele>253</ele>
        <time>2020-07-11T10:58:27.605Z</time>
      </trkpt>
      <trkpt lat="44.33868" lon="5.11459">
        <ele>253</ele>
        <time>2020-07-11T10:58:28.605Z</time>
      </trkpt>
      <trkpt lat="44.33876" lon="5.11461">
        <ele>253</ele>
        <time>2020-07-11T10:58:29.605Z</time>
      </trkpt>
      <trkpt lat="44.33883" lon="5.11464">
        <ele>252</ele>
        <time>2020-07-11T10:58:30.605Z</time>
      </trkpt>
      <trkpt lat="44.33891" lon="5.11466">
        <ele>253</ele>
        <time>2020-07-11T10:58:31.605Z</time>
      </trkpt>
      <trkpt lat="44.33898" lon="5.11469">
        <ele>253</ele>
        <time>2020-07-11T10:58:32.605Z</time>
      </trkpt>
      <trkpt lat="44.33904" lon="5.11473">
        <ele>253</ele>
        <time>2020-07-11T10:58:33.605Z</time>
      </trkpt>
      <trkpt lat="44.33911" lon="5.11477">
        <ele>253</ele>
        <time>2020-07-11T10:58:34.605Z</time>
      </trkpt>
      <trkpt lat="44.33919" lon="5.11482">
        <ele>253</ele>
        <time>2020-07-11T10:58:35.604Z</time>
      </trkpt>
      <trkpt lat="44.33925" lon="5.11487">
        <ele>253</ele>
        <time>2020-07-11T10:58:36.605Z</time>
      </trkpt>
      <trkpt lat="44.33932" lon="5.11493">
        <ele>253</ele>
        <time>2020-07-11T10:58:37.605Z</time>
      </trkpt>
      <trkpt lat="44.33938" lon="5.11499">
        <ele>253</ele>
        <time>2020-07-11T10:58:38.605Z</time>
      </trkpt>
      <trkpt lat="44.33945" lon="5.11505">
        <ele>253</ele>
        <time>2020-07-11T10:58:39.605Z</time>
      </trkpt>
      <trkpt lat="44.33951" lon="5.11511">
        <ele>253</ele>
        <time>2020-07-11T10:58:40.604Z</time>
      </trkpt>
      <trkpt lat="44.33958" lon="5.11517">
        <ele>254</ele>
        <time>2020-07-11T10:58:41.605Z</time>
      </trkpt>
      <trkpt lat="44.33965" lon="5.11522">
        <ele>254</ele>
        <time>2020-07-11T10:58:42.605Z</time>
      </trkpt>
      <trkpt lat="44.33971" lon="5.11528">
        <ele>254</ele>
        <time>2020-07-11T10:58:43.605Z</time>
      </trkpt>
      <trkpt lat="44.33977" lon="5.11534">
        <ele>254</ele>
        <time>2020-07-11T10:58:44.605Z</time>
      </trkpt>
      <trkpt lat="44.33984" lon="5.1154">
        <ele>253</ele>
        <time>2020-07-11T10:58:45.604Z</time>
      </trkpt>
      <trkpt lat="44.3399" lon="5.11546">
        <ele>254</ele>
        <time>2020-07-11T10:58:46.605Z</time>
      </trkpt>
      <trkpt lat="44.33997" lon="5.11551">
        <ele>253</ele>
        <time>2020-07-11T10:58:47.605Z</time>
      </trkpt>
      <trkpt lat="44.34003" lon="5.11557">
        <ele>254</ele>
        <time>2020-07-11T10:58:48.604Z</time>
      </trkpt>
      <trkpt lat="44.3401" lon="5.11563">
        <ele>254</ele>
        <time>2020-07-11T10:58:49.604Z</time>
      </trkpt>
      <trkpt lat="44.34017" lon="5.11569">
        <ele>254</ele>
        <time>2020-07-11T10:58:50.605Z</time>
      </trkpt>
      <trkpt lat="44.34023" lon="5.11575">
        <ele>254</ele>
        <time>2020-07-11T10:58:51.605Z</time>
      </trkpt>
      <trkpt lat="44.3403" lon="5.11581">
        <ele>254</ele>
        <time>2020-07-11T10:58:52.605Z</time>
      </trkpt>
      <trkpt lat="44.34036" lon="5.11587">
        <ele>253</ele>
        <time>2020-07-11T10:58:53.605Z</time>
      </trkpt>
      <trkpt lat="44.34043" lon="5.11593">
        <ele>253</ele>
        <time>2020-07-11T10:58:54.605Z</time>
      </trkpt>
      <trkpt lat="44.3405" lon="5.11599">
        <ele>253</ele>
        <time>2020-07-11T10:58:55.605Z</time>
      </trkpt>
      <trkpt lat="44.34056" lon="5.11605">
        <ele>253</ele>
        <time>2020-07-11T10:58:56.605Z</time>
      </trkpt>
      <trkpt lat="44.34063" lon="5.11611">
        <ele>253</ele>
        <time>2020-07-11T10:58:57.604Z</time>
      </trkpt>
      <trkpt lat="44.34068" lon="5.11615">
        <ele>253</ele>
        <time>2020-07-11T10:58:58.605Z</time>
      </trkpt>
      <trkpt lat="44.34076" lon="5.11622">
        <ele>253</ele>
        <time>2020-07-11T10:58:59.604Z</time>
      </trkpt>
      <trkpt lat="44.34083" lon="5.11628">
        <ele>253</ele>
        <time>2020-07-11T10:59:00.605Z</time>
      </trkpt>
      <trkpt lat="44.34089" lon="5.11634">
        <ele>253</ele>
        <time>2020-07-11T10:59:01.605Z</time>
      </trkpt>
      <trkpt lat="44.34095" lon="5.11639">
        <ele>253</ele>
        <time>2020-07-11T10:59:02.605Z</time>
      </trkpt>
      <trkpt lat="44.341" lon="5.11644">
        <ele>252</ele>
        <time>2020-07-11T10:59:03.604Z</time>
      </trkpt>
      <trkpt lat="44.34108" lon="5.11651">
        <ele>252</ele>
        <time>2020-07-11T10:59:04.604Z</time>
      </trkpt>
      <trkpt lat="44.34114" lon="5.11656">
        <ele>252</ele>
        <time>2020-07-11T10:59:05.605Z</time>
      </trkpt>
      <trkpt lat="44.3412" lon="5.11662">
        <ele>252</ele>
        <time>2020-07-11T10:59:06.605Z</time>
      </trkpt>
      <trkpt lat="44.34127" lon="5.11667">
        <ele>252</ele>
        <time>2020-07-11T10:59:07.605Z</time>
      </trkpt>
      <trkpt lat="44.34133" lon="5.11673">
        <ele>252</ele>
        <time>2020-07-11T10:59:08.605Z</time>
      </trkpt>
      <trkpt lat="44.34139" lon="5.11678">
        <ele>252</ele>
        <time>2020-07-11T10:59:09.605Z</time>
      </trkpt>
      <trkpt lat="44.34145" lon="5.11684">
        <ele>252</ele>
        <time>2020-07-11T10:59:10.605Z</time>
      </trkpt>
      <trkpt lat="44.34151" lon="5.11689">
        <ele>252</ele>
        <time>2020-07-11T10:59:11.605Z</time>
      </trkpt>
      <trkpt lat="44.34157" lon="5.11695">
        <ele>252</ele>
        <time>2020-07-11T10:59:12.604Z</time>
      </trkpt>
      <trkpt lat="44.34163" lon="5.117">
        <ele>252</ele>
        <time>2020-07-11T10:59:13.605Z</time>
      </trkpt>
      <trkpt lat="44.34169" lon="5.11706">
        <ele>253</ele>
        <time>2020-07-11T10:59:14.604Z</time>
      </trkpt>
      <trkpt lat="44.34175" lon="5.11712">
        <ele>253</ele>
        <time>2020-07-11T10:59:15.604Z</time>
      </trkpt>
      <trkpt lat="44.34181" lon="5.11718">
        <ele>253</ele>
        <time>2020-07-11T10:59:16.605Z</time>
      </trkpt>
      <trkpt lat="44.34188" lon="5.11724">
        <ele>253</ele>
        <time>2020-07-11T10:59:17.604Z</time>
      </trkpt>
      <trkpt lat="44.34194" lon="5.11729">
        <ele>253</ele>
        <time>2020-07-11T10:59:18.605Z</time>
      </trkpt>
      <trkpt lat="44.342" lon="5.11735">
        <ele>252</ele>
        <time>2020-07-11T10:59:19.605Z</time>
      </trkpt>
      <trkpt lat="44.34207" lon="5.11741">
        <ele>252</ele>
        <time>2020-07-11T10:59:20.605Z</time>
      </trkpt>
      <trkpt lat="44.34213" lon="5.11747">
        <ele>253</ele>
        <time>2020-07-11T10:59:21.604Z</time>
      </trkpt>
      <trkpt lat="44.3422" lon="5.11753">
        <ele>253</ele>
        <time>2020-07-11T10:59:22.605Z</time>
      </trkpt>
      <trkpt lat="44.34226" lon="5.11758">
        <ele>253</ele>
        <time>2020-07-11T10:59:23.604Z</time>
      </trkpt>
      <trkpt lat="44.34233" lon="5.11763">
        <ele>253</ele>
        <time>2020-07-11T10:59:24.605Z</time>
      </trkpt>
      <trkpt lat="44.3424" lon="5.11769">
        <ele>253</ele>
        <time>2020-07-11T10:59:25.605Z</time>
      </trkpt>
      <trkpt lat="44.34248" lon="5.11774">
        <ele>253</ele>
        <time>2020-07-11T10:59:26.604Z</time>
      </trkpt>
      <trkpt lat="44.34255" lon="5.1178">
        <ele>253</ele>
        <time>2020-07-11T10:59:27.604Z</time>
      </trkpt>
      <trkpt lat="44.34263" lon="5.11785">
        <ele>253</ele>
        <time>2020-07-11T10:59:28.604Z</time>
      </trkpt>
      <trkpt lat="44.34271" lon="5.11791">
        <ele>253</ele>
        <time>2020-07-11T10:59:29.605Z</time>
      </trkpt>
      <trkpt lat="44.34278" lon="5.11797">
        <ele>252</ele>
        <time>2020-07-11T10:59:30.605Z</time>
      </trkpt>
      <trkpt lat="44.34286" lon="5.11802">
        <ele>251</ele>
        <time>2020-07-11T10:59:31.605Z</time>
      </trkpt>
      <trkpt lat="44.34293" lon="5.11808">
        <ele>251</ele>
        <time>2020-07-11T10:59:32.605Z</time>
      </trkpt>
      <trkpt lat="44.34301" lon="5.11815">
        <ele>251</ele>
        <time>2020-07-11T10:59:33.604Z</time>
      </trkpt>
      <trkpt lat="44.34308" lon="5.11821">
        <ele>251</ele>
        <time>2020-07-11T10:59:34.605Z</time>
      </trkpt>
      <trkpt lat="44.34315" lon="5.11829">
        <ele>251</ele>
        <time>2020-07-11T10:59:35.605Z</time>
      </trkpt>
      <trkpt lat="44.34321" lon="5.11836">
        <ele>251</ele>
        <time>2020-07-11T10:59:36.605Z</time>
      </trkpt>
      <trkpt lat="44.34328" lon="5.11843">
        <ele>251</ele>
        <time>2020-07-11T10:59:37.605Z</time>
      </trkpt>
      <trkpt lat="44.34334" lon="5.11851">
        <ele>252</ele>
        <time>2020-07-11T10:59:38.605Z</time>
      </trkpt>
      <trkpt lat="44.3434" lon="5.11859">
        <ele>252</ele>
        <time>2020-07-11T10:59:39.605Z</time>
      </trkpt>
      <trkpt lat="44.34347" lon="5.11866">
        <ele>252</ele>
        <time>2020-07-11T10:59:40.605Z</time>
      </trkpt>
      <trkpt lat="44.34353" lon="5.11874">
        <ele>253</ele>
        <time>2020-07-11T10:59:41.605Z</time>
      </trkpt>
      <trkpt lat="44.34359" lon="5.11881">
        <ele>254</ele>
        <time>2020-07-11T10:59:42.605Z</time>
      </trkpt>
      <trkpt lat="44.34365" lon="5.11889">
        <ele>254</ele>
        <time>2020-07-11T10:59:43.604Z</time>
      </trkpt>
      <trkpt lat="44.34371" lon="5.11897">
        <ele>255</ele>
        <time>2020-07-11T10:59:44.605Z</time>
      </trkpt>
      <trkpt lat="44.34378" lon="5.11904">
        <ele>255</ele>
        <time>2020-07-11T10:59:45.604Z</time>
      </trkpt>
      <trkpt lat="44.34384" lon="5.11912">
        <ele>255</ele>
        <time>2020-07-11T10:59:46.604Z</time>
      </trkpt>
      <trkpt lat="44.3439" lon="5.1192">
        <ele>255</ele>
        <time>2020-07-11T10:59:47.605Z</time>
      </trkpt>
      <trkpt lat="44.34396" lon="5.11927">
        <ele>255</ele>
        <time>2020-07-11T10:59:48.605Z</time>
      </trkpt>
      <trkpt lat="44.34402" lon="5.11935">
        <ele>254</ele>
        <time>2020-07-11T10:59:49.605Z</time>
      </trkpt>
      <trkpt lat="44.34408" lon="5.11942">
        <ele>254</ele>
        <time>2020-07-11T10:59:50.604Z</time>
      </trkpt>
      <trkpt lat="44.34414" lon="5.11949">
        <ele>254</ele>
        <time>2020-07-11T10:59:51.604Z</time>
      </trkpt>
      <trkpt lat="44.3442" lon="5.11956">
        <ele>254</ele>
        <time>2020-07-11T10:59:52.605Z</time>
      </trkpt>
      <trkpt lat="44.34427" lon="5.11962">
        <ele>254</ele>
        <time>2020-07-11T10:59:53.605Z</time>
      </trkpt>
      <trkpt lat="44.34433" lon="5.11967">
        <ele>255</ele>
        <time>2020-07-11T10:59:54.605Z</time>
      </trkpt>
      <trkpt lat="44.3444" lon="5.11973">
        <ele>256</ele>
        <time>2020-07-11T10:59:55.605Z</time>
      </trkpt>
      <trkpt lat="44.34447" lon="5.11977">
        <ele>256</ele>
        <time>2020-07-11T10:59:56.605Z</time>
      </trkpt>
      <trkpt lat="44.34455" lon="5.11982">
        <ele>256</ele>
        <time>2020-07-11T10:59:57.605Z</time>
      </trkpt>
      <trkpt lat="44.34462" lon="5.11986">
        <ele>256</ele>
        <time>2020-07-11T10:59:58.605Z</time>
      </trkpt>
      <trkpt lat="44.34469" lon="5.1199">
        <ele>257</ele>
        <time>2020-07-11T10:59:59.604Z</time>
      </trkpt>
      <trkpt lat="44.34476" lon="5.11994">
        <ele>257</ele>
        <time>2020-07-11T11:00:00.605Z</time>
      </trkpt>
      <trkpt lat="44.34484" lon="5.11998">
        <ele>258</ele>
        <time>2020-07-11T11:00:01.605Z</time>
      </trkpt>
      <trkpt lat="44.34491" lon="5.12002">
        <ele>258</ele>
        <time>2020-07-11T11:00:02.605Z</time>
      </trkpt>
      <trkpt lat="44.34498" lon="5.12006">
        <ele>258</ele>
        <time>2020-07-11T11:00:03.605Z</time>
      </trkpt>
      <trkpt lat="44.34506" lon="5.12011">
        <ele>259</ele>
        <time>2020-07-11T11:00:04.604Z</time>
      </trkpt>
      <trkpt lat="44.34513" lon="5.12015">
        <ele>259</ele>
        <time>2020-07-11T11:00:05.605Z</time>
      </trkpt>
      <trkpt lat="44.3452" lon="5.12019">
        <ele>259</ele>
        <time>2020-07-11T11:00:06.605Z</time>
      </trkpt>
      <trkpt lat="44.34528" lon="5.12022">
        <ele>260</ele>
        <time>2020-07-11T11:00:07.604Z</time>
      </trkpt>
      <trkpt lat="44.34535" lon="5.12025">
        <ele>260</ele>
        <time>2020-07-11T11:00:08.604Z</time>
      </trkpt>
      <trkpt lat="44.34543" lon="5.12028">
        <ele>260</ele>
        <time>2020-07-11T11:00:09.605Z</time>
      </trkpt>
      <trkpt lat="44.34552" lon="5.12031">
        <ele>261</ele>
        <time>2020-07-11T11:00:10.605Z</time>
      </trkpt>
      <trkpt lat="44.34558" lon="5.12034">
        <ele>261</ele>
        <time>2020-07-11T11:00:11.605Z</time>
      </trkpt>
      <trkpt lat="44.34565" lon="5.12037">
        <ele>262</ele>
        <time>2020-07-11T11:00:12.605Z</time>
      </trkpt>
      <trkpt lat="44.34573" lon="5.1204">
        <ele>262</ele>
        <time>2020-07-11T11:00:13.605Z</time>
      </trkpt>
      <trkpt lat="44.3458" lon="5.12043">
        <ele>262</ele>
        <time>2020-07-11T11:00:14.604Z</time>
      </trkpt>
      <trkpt lat="44.34588" lon="5.12045">
        <ele>262</ele>
        <time>2020-07-11T11:00:15.604Z</time>
      </trkpt>
      <trkpt lat="44.34596" lon="5.12048">
        <ele>263</ele>
        <time>2020-07-11T11:00:16.605Z</time>
      </trkpt>
      <trkpt lat="44.34604" lon="5.12049">
        <ele>263</ele>
        <time>2020-07-11T11:00:17.604Z</time>
      </trkpt>
      <trkpt lat="44.34612" lon="5.12051">
        <ele>264</ele>
        <time>2020-07-11T11:00:18.605Z</time>
      </trkpt>
      <trkpt lat="44.34619" lon="5.12053">
        <ele>264</ele>
        <time>2020-07-11T11:00:19.605Z</time>
      </trkpt>
      <trkpt lat="44.34627" lon="5.12055">
        <ele>265</ele>
        <time>2020-07-11T11:00:20.604Z</time>
      </trkpt>
      <trkpt lat="44.34635" lon="5.12057">
        <ele>266</ele>
        <time>2020-07-11T11:00:21.605Z</time>
      </trkpt>
      <trkpt lat="44.34642" lon="5.12059">
        <ele>266</ele>
        <time>2020-07-11T11:00:22.605Z</time>
      </trkpt>
      <trkpt lat="44.3465" lon="5.12062">
        <ele>266</ele>
        <time>2020-07-11T11:00:23.604Z</time>
      </trkpt>
      <trkpt lat="44.34657" lon="5.12065">
        <ele>266</ele>
        <time>2020-07-11T11:00:24.604Z</time>
      </trkpt>
      <trkpt lat="44.34664" lon="5.12069">
        <ele>265</ele>
        <time>2020-07-11T11:00:25.604Z</time>
      </trkpt>
      <trkpt lat="44.34671" lon="5.12073">
        <ele>265</ele>
        <time>2020-07-11T11:00:26.604Z</time>
      </trkpt>
      <trkpt lat="44.34677" lon="5.12079">
        <ele>264</ele>
        <time>2020-07-11T11:00:27.605Z</time>
      </trkpt>
      <trkpt lat="44.34682" lon="5.12087">
        <ele>264</ele>
        <time>2020-07-11T11:00:28.605Z</time>
      </trkpt>
      <trkpt lat="44.34685" lon="5.12096">
        <ele>264</ele>
        <time>2020-07-11T11:00:29.605Z</time>
      </trkpt>
      <trkpt lat="44.34687" lon="5.12106">
        <ele>264</ele>
        <time>2020-07-11T11:00:30.605Z</time>
      </trkpt>
      <trkpt lat="44.34686" lon="5.12117">
        <ele>263</ele>
        <time>2020-07-11T11:00:31.605Z</time>
      </trkpt>
      <trkpt lat="44.34684" lon="5.12127">
        <ele>263</ele>
        <time>2020-07-11T11:00:32.605Z</time>
      </trkpt>
      <trkpt lat="44.34682" lon="5.12138">
        <ele>263</ele>
        <time>2020-07-11T11:00:33.605Z</time>
      </trkpt>
      <trkpt lat="44.3468" lon="5.12148">
        <ele>262</ele>
        <time>2020-07-11T11:00:34.605Z</time>
      </trkpt>
      <trkpt lat="44.34678" lon="5.12159">
        <ele>262</ele>
        <time>2020-07-11T11:00:35.605Z</time>
      </trkpt>
      <trkpt lat="44.34676" lon="5.1217">
        <ele>262</ele>
        <time>2020-07-11T11:00:36.605Z</time>
      </trkpt>
      <trkpt lat="44.34675" lon="5.12181">
        <ele>262</ele>
        <time>2020-07-11T11:00:37.605Z</time>
      </trkpt>
      <trkpt lat="44.34675" lon="5.12192">
        <ele>261</ele>
        <time>2020-07-11T11:00:38.604Z</time>
      </trkpt>
      <trkpt lat="44.34675" lon="5.12203">
        <ele>260</ele>
        <time>2020-07-11T11:00:39.605Z</time>
      </trkpt>
      <trkpt lat="44.34676" lon="5.12214">
        <ele>260</ele>
        <time>2020-07-11T11:00:40.605Z</time>
      </trkpt>
      <trkpt lat="44.34677" lon="5.12225">
        <ele>259</ele>
        <time>2020-07-11T11:00:41.605Z</time>
      </trkpt>
      <trkpt lat="44.34678" lon="5.12236">
        <ele>259</ele>
        <time>2020-07-11T11:00:42.605Z</time>
      </trkpt>
      <trkpt lat="44.3468" lon="5.12247">
        <ele>258</ele>
        <time>2020-07-11T11:00:43.605Z</time>
      </trkpt>
      <trkpt lat="44.34683" lon="5.12258">
        <ele>258</ele>
        <time>2020-07-11T11:00:44.604Z</time>
      </trkpt>
      <trkpt lat="44.34687" lon="5.12269">
        <ele>258</ele>
        <time>2020-07-11T11:00:45.605Z</time>
      </trkpt>
      <trkpt lat="44.3469" lon="5.1228">
        <ele>258</ele>
        <time>2020-07-11T11:00:46.605Z</time>
      </trkpt>
      <trkpt lat="44.34694" lon="5.1229">
        <ele>257</ele>
        <time>2020-07-11T11:00:47.605Z</time>
      </trkpt>
      <trkpt lat="44.34699" lon="5.123">
        <ele>257</ele>
        <time>2020-07-11T11:00:48.605Z</time>
      </trkpt>
      <trkpt lat="44.34704" lon="5.1231">
        <ele>257</ele>
        <time>2020-07-11T11:00:49.604Z</time>
      </trkpt>
      <trkpt lat="44.34709" lon="5.1232">
        <ele>257</ele>
        <time>2020-07-11T11:00:50.605Z</time>
      </trkpt>
      <trkpt lat="44.34714" lon="5.12329">
        <ele>257</ele>
        <time>2020-07-11T11:00:51.604Z</time>
      </trkpt>
      <trkpt lat="44.3472" lon="5.12338">
        <ele>257</ele>
        <time>2020-07-11T11:00:52.605Z</time>
      </trkpt>
      <trkpt lat="44.34726" lon="5.12347">
        <ele>257</ele>
        <time>2020-07-11T11:00:53.605Z</time>
      </trkpt>
      <trkpt lat="44.34732" lon="5.12357">
        <ele>258</ele>
        <time>2020-07-11T11:00:54.605Z</time>
      </trkpt>
      <trkpt lat="44.34738" lon="5.12366">
        <ele>258</ele>
        <time>2020-07-11T11:00:55.605Z</time>
      </trkpt>
      <trkpt lat="44.34744" lon="5.12374">
        <ele>258</ele>
        <time>2020-07-11T11:00:56.605Z</time>
      </trkpt>
      <trkpt lat="44.34751" lon="5.12382">
        <ele>258</ele>
        <time>2020-07-11T11:00:57.605Z</time>
      </trkpt>
      <trkpt lat="44.34756" lon="5.1239">
        <ele>258</ele>
        <time>2020-07-11T11:00:58.605Z</time>
      </trkpt>
      <trkpt lat="44.34762" lon="5.12399">
        <ele>258</ele>
        <time>2020-07-11T11:00:59.605Z</time>
      </trkpt>
      <trkpt lat="44.34767" lon="5.12407">
        <ele>258</ele>
        <time>2020-07-11T11:01:00.605Z</time>
      </trkpt>
      <trkpt lat="44.34773" lon="5.12415">
        <ele>258</ele>
        <time>2020-07-11T11:01:01.605Z</time>
      </trkpt>
      <trkpt lat="44.34778" lon="5.12423">
        <ele>258</ele>
        <time>2020-07-11T11:01:02.604Z</time>
      </trkpt>
      <trkpt lat="44.34784" lon="5.1243">
        <ele>258</ele>
        <time>2020-07-11T11:01:03.605Z</time>
      </trkpt>
      <trkpt lat="44.3479" lon="5.12438">
        <ele>257</ele>
        <time>2020-07-11T11:01:04.605Z</time>
      </trkpt>
      <trkpt lat="44.34796" lon="5.12445">
        <ele>257</ele>
        <time>2020-07-11T11:01:05.605Z</time>
      </trkpt>
      <trkpt lat="44.34802" lon="5.12452">
        <ele>257</ele>
        <time>2020-07-11T11:01:06.604Z</time>
      </trkpt>
      <trkpt lat="44.34808" lon="5.12459">
        <ele>257</ele>
        <time>2020-07-11T11:01:07.605Z</time>
      </trkpt>
      <trkpt lat="44.34815" lon="5.12466">
        <ele>257</ele>
        <time>2020-07-11T11:01:08.604Z</time>
      </trkpt>
      <trkpt lat="44.34821" lon="5.12472">
        <ele>257</ele>
        <time>2020-07-11T11:01:09.605Z</time>
      </trkpt>
      <trkpt lat="44.34828" lon="5.12478">
        <ele>257</ele>
        <time>2020-07-11T11:01:10.605Z</time>
      </trkpt>
      <trkpt lat="44.34835" lon="5.12484">
        <ele>257</ele>
        <time>2020-07-11T11:01:11.605Z</time>
      </trkpt>
      <trkpt lat="44.34842" lon="5.12489">
        <ele>257</ele>
        <time>2020-07-11T11:01:12.605Z</time>
      </trkpt>
      <trkpt lat="44.34849" lon="5.12495">
        <ele>257</ele>
        <time>2020-07-11T11:01:13.605Z</time>
      </trkpt>
      <trkpt lat="44.34856" lon="5.125">
        <ele>257</ele>
        <time>2020-07-11T11:01:14.605Z</time>
      </trkpt>
      <trkpt lat="44.34863" lon="5.12505">
        <ele>257</ele>
        <time>2020-07-11T11:01:15.605Z</time>
      </trkpt>
      <trkpt lat="44.34871" lon="5.1251">
        <ele>258</ele>
        <time>2020-07-11T11:01:16.604Z</time>
      </trkpt>
      <trkpt lat="44.34878" lon="5.12513">
        <ele>258</ele>
        <time>2020-07-11T11:01:17.605Z</time>
      </trkpt>
      <trkpt lat="44.34886" lon="5.12517">
        <ele>258</ele>
        <time>2020-07-11T11:01:18.605Z</time>
      </trkpt>
      <trkpt lat="44.34893" lon="5.12521">
        <ele>257</ele>
        <time>2020-07-11T11:01:19.605Z</time>
      </trkpt>
      <trkpt lat="44.34901" lon="5.12524">
        <ele>257</ele>
        <time>2020-07-11T11:01:20.604Z</time>
      </trkpt>
      <trkpt lat="44.34909" lon="5.12528">
        <ele>256</ele>
        <time>2020-07-11T11:01:21.604Z</time>
      </trkpt>
      <trkpt lat="44.34917" lon="5.12531">
        <ele>256</ele>
        <time>2020-07-11T11:01:22.605Z</time>
      </trkpt>
      <trkpt lat="44.34925" lon="5.12534">
        <ele>256</ele>
        <time>2020-07-11T11:01:23.605Z</time>
      </trkpt>
      <trkpt lat="44.34933" lon="5.12537">
        <ele>256</ele>
        <time>2020-07-11T11:01:24.605Z</time>
      </trkpt>
      <trkpt lat="44.3494" lon="5.12539">
        <ele>256</ele>
        <time>2020-07-11T11:01:25.604Z</time>
      </trkpt>
      <trkpt lat="44.34949" lon="5.12542">
        <ele>256</ele>
        <time>2020-07-11T11:01:26.604Z</time>
      </trkpt>
      <trkpt lat="44.34957" lon="5.12545">
        <ele>256</ele>
        <time>2020-07-11T11:01:27.605Z</time>
      </trkpt>
      <trkpt lat="44.34964" lon="5.12548">
        <ele>256</ele>
        <time>2020-07-11T11:01:28.605Z</time>
      </trkpt>
      <trkpt lat="44.34972" lon="5.1255">
        <ele>256</ele>
        <time>2020-07-11T11:01:29.605Z</time>
      </trkpt>
      <trkpt lat="44.3498" lon="5.12553">
        <ele>256</ele>
        <time>2020-07-11T11:01:30.605Z</time>
      </trkpt>
      <trkpt lat="44.34987" lon="5.12556">
        <ele>256</ele>
        <time>2020-07-11T11:01:31.605Z</time>
      </trkpt>
      <trkpt lat="44.34995" lon="5.12559">
        <ele>256</ele>
        <time>2020-07-11T11:01:32.605Z</time>
      </trkpt>
      <trkpt lat="44.35002" lon="5.12561">
        <ele>256</ele>
        <time>2020-07-11T11:01:33.604Z</time>
      </trkpt>
      <trkpt lat="44.35009" lon="5.12564">
        <ele>255</ele>
        <time>2020-07-11T11:01:34.605Z</time>
      </trkpt>
      <trkpt lat="44.35017" lon="5.12566">
        <ele>255</ele>
        <time>2020-07-11T11:01:35.605Z</time>
      </trkpt>
      <trkpt lat="44.35024" lon="5.12569">
        <ele>255</ele>
        <time>2020-07-11T11:01:36.605Z</time>
      </trkpt>
      <trkpt lat="44.35031" lon="5.12571">
        <ele>255</ele>
        <time>2020-07-11T11:01:37.605Z</time>
      </trkpt>
      <trkpt lat="44.35039" lon="5.12574">
        <ele>255</ele>
        <time>2020-07-11T11:01:38.604Z</time>
      </trkpt>
      <trkpt lat="44.35046" lon="5.12577">
        <ele>255</ele>
        <time>2020-07-11T11:01:39.605Z</time>
      </trkpt>
      <trkpt lat="44.35053" lon="5.1258">
        <ele>255</ele>
        <time>2020-07-11T11:01:40.605Z</time>
      </trkpt>
      <trkpt lat="44.3506" lon="5.12583">
        <ele>255</ele>
        <time>2020-07-11T11:01:41.604Z</time>
      </trkpt>
      <trkpt lat="44.35067" lon="5.12586">
        <ele>255</ele>
        <time>2020-07-11T11:01:42.605Z</time>
      </trkpt>
      <trkpt lat="44.35074" lon="5.12589">
        <ele>255</ele>
        <time>2020-07-11T11:01:43.604Z</time>
      </trkpt>
      <trkpt lat="44.3508" lon="5.12592">
        <ele>255</ele>
        <time>2020-07-11T11:01:44.605Z</time>
      </trkpt>
      <trkpt lat="44.35087" lon="5.12596">
        <ele>255</ele>
        <time>2020-07-11T11:01:45.605Z</time>
      </trkpt>
      <trkpt lat="44.35093" lon="5.126">
        <ele>256</ele>
        <time>2020-07-11T11:01:46.604Z</time>
      </trkpt>
      <trkpt lat="44.35099" lon="5.12604">
        <ele>256</ele>
        <time>2020-07-11T11:01:47.605Z</time>
      </trkpt>
      <trkpt lat="44.35105" lon="5.12609">
        <ele>256</ele>
        <time>2020-07-11T11:01:48.604Z</time>
      </trkpt>
      <trkpt lat="44.35111" lon="5.12613">
        <ele>255</ele>
        <time>2020-07-11T11:01:49.605Z</time>
      </trkpt>
      <trkpt lat="44.35116" lon="5.12618">
        <ele>255</ele>
        <time>2020-07-11T11:01:50.605Z</time>
      </trkpt>
      <trkpt lat="44.35122" lon="5.12624">
        <ele>255</ele>
        <time>2020-07-11T11:01:51.605Z</time>
      </trkpt>
      <trkpt lat="44.35127" lon="5.12629">
        <ele>255</ele>
        <time>2020-07-11T11:01:52.605Z</time>
      </trkpt>
      <trkpt lat="44.35133" lon="5.12635">
        <ele>255</ele>
        <time>2020-07-11T11:01:53.605Z</time>
      </trkpt>
      <trkpt lat="44.35138" lon="5.12641">
        <ele>255</ele>
        <time>2020-07-11T11:01:54.604Z</time>
      </trkpt>
      <trkpt lat="44.35143" lon="5.12647">
        <ele>255</ele>
        <time>2020-07-11T11:01:55.605Z</time>
      </trkpt>
      <trkpt lat="44.35148" lon="5.12654">
        <ele>254</ele>
        <time>2020-07-11T11:01:56.605Z</time>
      </trkpt>
      <trkpt lat="44.35153" lon="5.12661">
        <ele>255</ele>
        <time>2020-07-11T11:01:57.605Z</time>
      </trkpt>
      <trkpt lat="44.35158" lon="5.12668">
        <ele>254</ele>
        <time>2020-07-11T11:01:58.605Z</time>
      </trkpt>
      <trkpt lat="44.35163" lon="5.12675">
        <ele>254</ele>
        <time>2020-07-11T11:01:59.604Z</time>
      </trkpt>
      <trkpt lat="44.35167" lon="5.12683">
        <ele>254</ele>
        <time>2020-07-11T11:02:00.605Z</time>
      </trkpt>
      <trkpt lat="44.35171" lon="5.1269">
        <ele>254</ele>
        <time>2020-07-11T11:02:01.604Z</time>
      </trkpt>
      <trkpt lat="44.35176" lon="5.12698">
        <ele>255</ele>
        <time>2020-07-11T11:02:02.605Z</time>
      </trkpt>
      <trkpt lat="44.35179" lon="5.12705">
        <ele>255</ele>
        <time>2020-07-11T11:02:03.605Z</time>
      </trkpt>
      <trkpt lat="44.35183" lon="5.12715">
        <ele>255</ele>
        <time>2020-07-11T11:02:04.605Z</time>
      </trkpt>
      <trkpt lat="44.35187" lon="5.12724">
        <ele>255</ele>
        <time>2020-07-11T11:02:05.605Z</time>
      </trkpt>
      <trkpt lat="44.35191" lon="5.12733">
        <ele>255</ele>
        <time>2020-07-11T11:02:06.605Z</time>
      </trkpt>
      <trkpt lat="44.35194" lon="5.12742">
        <ele>256</ele>
        <time>2020-07-11T11:02:07.605Z</time>
      </trkpt>
      <trkpt lat="44.35198" lon="5.12752">
        <ele>256</ele>
        <time>2020-07-11T11:02:08.605Z</time>
      </trkpt>
      <trkpt lat="44.352" lon="5.12759">
        <ele>256</ele>
        <time>2020-07-11T11:02:09.605Z</time>
      </trkpt>
      <trkpt lat="44.35203" lon="5.1277">
        <ele>256</ele>
        <time>2020-07-11T11:02:10.605Z</time>
      </trkpt>
      <trkpt lat="44.35205" lon="5.1278">
        <ele>256</ele>
        <time>2020-07-11T11:02:11.604Z</time>
      </trkpt>
      <trkpt lat="44.35208" lon="5.1279">
        <ele>257</ele>
        <time>2020-07-11T11:02:12.604Z</time>
      </trkpt>
      <trkpt lat="44.3521" lon="5.12799">
        <ele>257</ele>
        <time>2020-07-11T11:02:13.605Z</time>
      </trkpt>
      <trkpt lat="44.35211" lon="5.12809">
        <ele>257</ele>
        <time>2020-07-11T11:02:14.605Z</time>
      </trkpt>
      <trkpt lat="44.35213" lon="5.12818">
        <ele>258</ele>
        <time>2020-07-11T11:02:15.605Z</time>
      </trkpt>
      <trkpt lat="44.35214" lon="5.12828">
        <ele>258</ele>
        <time>2020-07-11T11:02:16.605Z</time>
      </trkpt>
      <trkpt lat="44.35216" lon="5.12838">
        <ele>259</ele>
        <time>2020-07-11T11:02:17.605Z</time>
      </trkpt>
      <trkpt lat="44.35216" lon="5.12848">
        <ele>259</ele>
        <time>2020-07-11T11:02:18.605Z</time>
      </trkpt>
      <trkpt lat="44.35217" lon="5.12858">
        <ele>260</ele>
        <time>2020-07-11T11:02:19.605Z</time>
      </trkpt>
      <trkpt lat="44.35217" lon="5.12868">
        <ele>260</ele>
        <time>2020-07-11T11:02:20.605Z</time>
      </trkpt>
      <trkpt lat="44.35218" lon="5.12878">
        <ele>260</ele>
        <time>2020-07-11T11:02:21.605Z</time>
      </trkpt>
      <trkpt lat="44.35218" lon="5.12888">
        <ele>260</ele>
        <time>2020-07-11T11:02:22.605Z</time>
      </trkpt>
      <trkpt lat="44.35217" lon="5.12898">
        <ele>260</ele>
        <time>2020-07-11T11:02:23.604Z</time>
      </trkpt>
      <trkpt lat="44.35217" lon="5.12907">
        <ele>260</ele>
        <time>2020-07-11T11:02:24.605Z</time>
      </trkpt>
      <trkpt lat="44.35216" lon="5.12917">
        <ele>260</ele>
        <time>2020-07-11T11:02:25.605Z</time>
      </trkpt>
      <trkpt lat="44.35214" lon="5.12927">
        <ele>260</ele>
        <time>2020-07-11T11:02:26.605Z</time>
      </trkpt>
      <trkpt lat="44.35213" lon="5.12936">
        <ele>259</ele>
        <time>2020-07-11T11:02:27.604Z</time>
      </trkpt>
      <trkpt lat="44.35211" lon="5.12944">
        <ele>259</ele>
        <time>2020-07-11T11:02:28.604Z</time>
      </trkpt>
      <trkpt lat="44.35208" lon="5.12952">
        <ele>259</ele>
        <time>2020-07-11T11:02:29.605Z</time>
      </trkpt>
      <trkpt lat="44.35205" lon="5.12962">
        <ele>259</ele>
        <time>2020-07-11T11:02:30.605Z</time>
      </trkpt>
      <trkpt lat="44.35203" lon="5.1297">
        <ele>259</ele>
        <time>2020-07-11T11:02:31.604Z</time>
      </trkpt>
      <trkpt lat="44.35204" lon="5.12978">
        <ele>259</ele>
        <time>2020-07-11T11:02:32.605Z</time>
      </trkpt>
      <trkpt lat="44.35206" lon="5.12986">
        <ele>259</ele>
        <time>2020-07-11T11:02:33.605Z</time>
      </trkpt>
      <trkpt lat="44.35208" lon="5.12994">
        <ele>260</ele>
        <time>2020-07-11T11:02:34.605Z</time>
      </trkpt>
      <trkpt lat="44.35212" lon="5.13002">
        <ele>260</ele>
        <time>2020-07-11T11:02:35.604Z</time>
      </trkpt>
      <trkpt lat="44.35215" lon="5.13011">
        <ele>260</ele>
        <time>2020-07-11T11:02:36.605Z</time>
      </trkpt>
      <trkpt lat="44.35218" lon="5.1302">
        <ele>260</ele>
        <time>2020-07-11T11:02:37.605Z</time>
      </trkpt>
      <trkpt lat="44.3522" lon="5.1303">
        <ele>260</ele>
        <time>2020-07-11T11:02:38.605Z</time>
      </trkpt>
      <trkpt lat="44.35223" lon="5.1304">
        <ele>260</ele>
        <time>2020-07-11T11:02:39.604Z</time>
      </trkpt>
      <trkpt lat="44.35225" lon="5.1305">
        <ele>260</ele>
        <time>2020-07-11T11:02:40.604Z</time>
      </trkpt>
      <trkpt lat="44.35227" lon="5.1306">
        <ele>260</ele>
        <time>2020-07-11T11:02:41.604Z</time>
      </trkpt>
      <trkpt lat="44.35229" lon="5.13071">
        <ele>260</ele>
        <time>2020-07-11T11:02:42.604Z</time>
      </trkpt>
      <trkpt lat="44.35231" lon="5.13081">
        <ele>260</ele>
        <time>2020-07-11T11:02:43.605Z</time>
      </trkpt>
      <trkpt lat="44.35233" lon="5.13091">
        <ele>260</ele>
        <time>2020-07-11T11:02:44.604Z</time>
      </trkpt>
      <trkpt lat="44.35235" lon="5.13102">
        <ele>260</ele>
        <time>2020-07-11T11:02:45.605Z</time>
      </trkpt>
      <trkpt lat="44.35237" lon="5.13112">
        <ele>260</ele>
        <time>2020-07-11T11:02:46.605Z</time>
      </trkpt>
      <trkpt lat="44.35239" lon="5.1312">
        <ele>260</ele>
        <time>2020-07-11T11:02:47.605Z</time>
      </trkpt>
      <trkpt lat="44.35242" lon="5.13132">
        <ele>260</ele>
        <time>2020-07-11T11:02:48.605Z</time>
      </trkpt>
      <trkpt lat="44.35244" lon="5.13143">
        <ele>261</ele>
        <time>2020-07-11T11:02:49.605Z</time>
      </trkpt>
      <trkpt lat="44.35246" lon="5.13153">
        <ele>261</ele>
        <time>2020-07-11T11:02:50.604Z</time>
      </trkpt>
      <trkpt lat="44.35249" lon="5.13163">
        <ele>262</ele>
        <time>2020-07-11T11:02:51.604Z</time>
      </trkpt>
      <trkpt lat="44.35251" lon="5.13173">
        <ele>262</ele>
        <time>2020-07-11T11:02:52.605Z</time>
      </trkpt>
      <trkpt lat="44.35254" lon="5.13183">
        <ele>262</ele>
        <time>2020-07-11T11:02:53.605Z</time>
      </trkpt>
      <trkpt lat="44.35256" lon="5.13193">
        <ele>262</ele>
        <time>2020-07-11T11:02:54.605Z</time>
      </trkpt>
      <trkpt lat="44.35259" lon="5.13203">
        <ele>262</ele>
        <time>2020-07-11T11:02:55.605Z</time>
      </trkpt>
      <trkpt lat="44.35261" lon="5.13213">
        <ele>262</ele>
        <time>2020-07-11T11:02:56.605Z</time>
      </trkpt>
      <trkpt lat="44.35264" lon="5.13223">
        <ele>262</ele>
        <time>2020-07-11T11:02:57.604Z</time>
      </trkpt>
      <trkpt lat="44.35267" lon="5.13232">
        <ele>262</ele>
        <time>2020-07-11T11:02:58.605Z</time>
      </trkpt>
      <trkpt lat="44.35269" lon="5.13242">
        <ele>262</ele>
        <time>2020-07-11T11:02:59.605Z</time>
      </trkpt>
      <trkpt lat="44.35272" lon="5.13251">
        <ele>262</ele>
        <time>2020-07-11T11:03:00.605Z</time>
      </trkpt>
      <trkpt lat="44.35274" lon="5.13261">
        <ele>262</ele>
        <time>2020-07-11T11:03:01.605Z</time>
      </trkpt>
      <trkpt lat="44.35276" lon="5.13268">
        <ele>262</ele>
        <time>2020-07-11T11:03:02.604Z</time>
      </trkpt>
      <trkpt lat="44.35279" lon="5.1328">
        <ele>263</ele>
        <time>2020-07-11T11:03:03.605Z</time>
      </trkpt>
      <trkpt lat="44.35281" lon="5.13289">
        <ele>263</ele>
        <time>2020-07-11T11:03:04.605Z</time>
      </trkpt>
      <trkpt lat="44.35284" lon="5.13298">
        <ele>263</ele>
        <time>2020-07-11T11:03:05.605Z</time>
      </trkpt>
      <trkpt lat="44.35286" lon="5.13306">
        <ele>263</ele>
        <time>2020-07-11T11:03:06.605Z</time>
      </trkpt>
      <trkpt lat="44.35288" lon="5.13317">
        <ele>263</ele>
        <time>2020-07-11T11:03:07.604Z</time>
      </trkpt>
      <trkpt lat="44.35291" lon="5.13327">
        <ele>263</ele>
        <time>2020-07-11T11:03:08.605Z</time>
      </trkpt>
      <trkpt lat="44.35293" lon="5.13336">
        <ele>263</ele>
        <time>2020-07-11T11:03:09.605Z</time>
      </trkpt>
      <trkpt lat="44.35296" lon="5.13346">
        <ele>264</ele>
        <time>2020-07-11T11:03:10.605Z</time>
      </trkpt>
      <trkpt lat="44.35299" lon="5.13355">
        <ele>264</ele>
        <time>2020-07-11T11:03:11.604Z</time>
      </trkpt>
      <trkpt lat="44.35301" lon="5.13365">
        <ele>265</ele>
        <time>2020-07-11T11:03:12.605Z</time>
      </trkpt>
      <trkpt lat="44.35304" lon="5.13374">
        <ele>265</ele>
        <time>2020-07-11T11:03:13.605Z</time>
      </trkpt>
      <trkpt lat="44.35306" lon="5.13383">
        <ele>266</ele>
        <time>2020-07-11T11:03:14.605Z</time>
      </trkpt>
      <trkpt lat="44.35308" lon="5.13393">
        <ele>266</ele>
        <time>2020-07-11T11:03:15.604Z</time>
      </trkpt>
      <trkpt lat="44.35311" lon="5.13402">
        <ele>266</ele>
        <time>2020-07-11T11:03:16.604Z</time>
      </trkpt>
      <trkpt lat="44.35313" lon="5.13412">
        <ele>266</ele>
        <time>2020-07-11T11:03:17.605Z</time>
      </trkpt>
      <trkpt lat="44.35316" lon="5.13422">
        <ele>266</ele>
        <time>2020-07-11T11:03:18.605Z</time>
      </trkpt>
      <trkpt lat="44.35318" lon="5.13432">
        <ele>266</ele>
        <time>2020-07-11T11:03:19.604Z</time>
      </trkpt>
      <trkpt lat="44.3532" lon="5.13442">
        <ele>266</ele>
        <time>2020-07-11T11:03:20.605Z</time>
      </trkpt>
      <trkpt lat="44.35322" lon="5.13451">
        <ele>265</ele>
        <time>2020-07-11T11:03:21.605Z</time>
      </trkpt>
      <trkpt lat="44.35325" lon="5.13461">
        <ele>265</ele>
        <time>2020-07-11T11:03:22.605Z</time>
      </trkpt>
      <trkpt lat="44.35327" lon="5.13471">
        <ele>265</ele>
        <time>2020-07-11T11:03:23.605Z</time>
      </trkpt>
      <trkpt lat="44.35329" lon="5.13481">
        <ele>265</ele>
        <time>2020-07-11T11:03:24.605Z</time>
      </trkpt>
      <trkpt lat="44.35332" lon="5.1349">
        <ele>265</ele>
        <time>2020-07-11T11:03:25.605Z</time>
      </trkpt>
      <trkpt lat="44.35334" lon="5.135">
        <ele>265</ele>
        <time>2020-07-11T11:03:26.605Z</time>
      </trkpt>
      <trkpt lat="44.35336" lon="5.13507">
        <ele>265</ele>
        <time>2020-07-11T11:03:27.605Z</time>
      </trkpt>
      <trkpt lat="44.3534" lon="5.13517">
        <ele>265</ele>
        <time>2020-07-11T11:03:28.604Z</time>
      </trkpt>
      <trkpt lat="44.35343" lon="5.13526">
        <ele>265</ele>
        <time>2020-07-11T11:03:29.605Z</time>
      </trkpt>
      <trkpt lat="44.35347" lon="5.13534">
        <ele>265</ele>
        <time>2020-07-11T11:03:30.604Z</time>
      </trkpt>
      <trkpt lat="44.3535" lon="5.13541">
        <ele>265</ele>
        <time>2020-07-11T11:03:31.605Z</time>
      </trkpt>
      <trkpt lat="44.35355" lon="5.13551">
        <ele>265</ele>
        <time>2020-07-11T11:03:32.605Z</time>
      </trkpt>
      <trkpt lat="44.35359" lon="5.1356">
        <ele>265</ele>
        <time>2020-07-11T11:03:33.604Z</time>
      </trkpt>
      <trkpt lat="44.35364" lon="5.13567">
        <ele>265</ele>
        <time>2020-07-11T11:03:34.605Z</time>
      </trkpt>
      <trkpt lat="44.35368" lon="5.13575">
        <ele>265</ele>
        <time>2020-07-11T11:03:35.605Z</time>
      </trkpt>
      <trkpt lat="44.35374" lon="5.13582">
        <ele>265</ele>
        <time>2020-07-11T11:03:36.605Z</time>
      </trkpt>
      <trkpt lat="44.3538" lon="5.13589">
        <ele>265</ele>
        <time>2020-07-11T11:03:37.604Z</time>
      </trkpt>
      <trkpt lat="44.35385" lon="5.13595">
        <ele>265</ele>
        <time>2020-07-11T11:03:38.604Z</time>
      </trkpt>
      <trkpt lat="44.35391" lon="5.13602">
        <ele>266</ele>
        <time>2020-07-11T11:03:39.605Z</time>
      </trkpt>
      <trkpt lat="44.35397" lon="5.13608">
        <ele>266</ele>
        <time>2020-07-11T11:03:40.605Z</time>
      </trkpt>
      <trkpt lat="44.35403" lon="5.13615">
        <ele>266</ele>
        <time>2020-07-11T11:03:41.605Z</time>
      </trkpt>
      <trkpt lat="44.35409" lon="5.13621">
        <ele>266</ele>
        <time>2020-07-11T11:03:42.605Z</time>
      </trkpt>
      <trkpt lat="44.35415" lon="5.13628">
        <ele>266</ele>
        <time>2020-07-11T11:03:43.605Z</time>
      </trkpt>
      <trkpt lat="44.35421" lon="5.13634">
        <ele>267</ele>
        <time>2020-07-11T11:03:44.605Z</time>
      </trkpt>
      <trkpt lat="44.35427" lon="5.1364">
        <ele>267</ele>
        <time>2020-07-11T11:03:45.604Z</time>
      </trkpt>
      <trkpt lat="44.35433" lon="5.13647">
        <ele>268</ele>
        <time>2020-07-11T11:03:46.604Z</time>
      </trkpt>
      <trkpt lat="44.35439" lon="5.13653">
        <ele>268</ele>
        <time>2020-07-11T11:03:47.605Z</time>
      </trkpt>
      <trkpt lat="44.35446" lon="5.13659">
        <ele>269</ele>
        <time>2020-07-11T11:03:48.605Z</time>
      </trkpt>
      <trkpt lat="44.35452" lon="5.13664">
        <ele>269</ele>
        <time>2020-07-11T11:03:49.605Z</time>
      </trkpt>
      <trkpt lat="44.35458" lon="5.1367">
        <ele>269</ele>
        <time>2020-07-11T11:03:50.605Z</time>
      </trkpt>
      <trkpt lat="44.35464" lon="5.13676">
        <ele>269</ele>
        <time>2020-07-11T11:03:51.605Z</time>
      </trkpt>
      <trkpt lat="44.3547" lon="5.13682">
        <ele>269</ele>
        <time>2020-07-11T11:03:52.605Z</time>
      </trkpt>
      <trkpt lat="44.35476" lon="5.13688">
        <ele>269</ele>
        <time>2020-07-11T11:03:53.605Z</time>
      </trkpt>
      <trkpt lat="44.35482" lon="5.13694">
        <ele>269</ele>
        <time>2020-07-11T11:03:54.605Z</time>
      </trkpt>
      <trkpt lat="44.35488" lon="5.13701">
        <ele>270</ele>
        <time>2020-07-11T11:03:55.605Z</time>
      </trkpt>
      <trkpt lat="44.35494" lon="5.13708">
        <ele>270</ele>
        <time>2020-07-11T11:03:56.605Z</time>
      </trkpt>
      <trkpt lat="44.35499" lon="5.13715">
        <ele>270</ele>
        <time>2020-07-11T11:03:57.605Z</time>
      </trkpt>
      <trkpt lat="44.35504" lon="5.13723">
        <ele>271</ele>
        <time>2020-07-11T11:03:58.605Z</time>
      </trkpt>
      <trkpt lat="44.35509" lon="5.13731">
        <ele>271</ele>
        <time>2020-07-11T11:03:59.605Z</time>
      </trkpt>
      <trkpt lat="44.35514" lon="5.13739">
        <ele>271</ele>
        <time>2020-07-11T11:04:00.605Z</time>
      </trkpt>
      <trkpt lat="44.35518" lon="5.13748">
        <ele>272</ele>
        <time>2020-07-11T11:04:01.604Z</time>
      </trkpt>
      <trkpt lat="44.35522" lon="5.13756">
        <ele>272</ele>
        <time>2020-07-11T11:04:02.605Z</time>
      </trkpt>
      <trkpt lat="44.35527" lon="5.13765">
        <ele>272</ele>
        <time>2020-07-11T11:04:03.605Z</time>
      </trkpt>
      <trkpt lat="44.35531" lon="5.13773">
        <ele>272</ele>
        <time>2020-07-11T11:04:04.605Z</time>
      </trkpt>
      <trkpt lat="44.35535" lon="5.13782">
        <ele>271</ele>
        <time>2020-07-11T11:04:05.605Z</time>
      </trkpt>
      <trkpt lat="44.35538" lon="5.13791">
        <ele>271</ele>
        <time>2020-07-11T11:04:06.604Z</time>
      </trkpt>
      <trkpt lat="44.35542" lon="5.13799">
        <ele>270</ele>
        <time>2020-07-11T11:04:07.605Z</time>
      </trkpt>
      <trkpt lat="44.35546" lon="5.13808">
        <ele>270</ele>
        <time>2020-07-11T11:04:08.605Z</time>
      </trkpt>
      <trkpt lat="44.3555" lon="5.13816">
        <ele>269</ele>
        <time>2020-07-11T11:04:09.605Z</time>
      </trkpt>
      <trkpt lat="44.35554" lon="5.13825">
        <ele>269</ele>
        <time>2020-07-11T11:04:10.605Z</time>
      </trkpt>
      <trkpt lat="44.35557" lon="5.13833">
        <ele>269</ele>
        <time>2020-07-11T11:04:11.605Z</time>
      </trkpt>
      <trkpt lat="44.35561" lon="5.13842">
        <ele>269</ele>
        <time>2020-07-11T11:04:12.605Z</time>
      </trkpt>
      <trkpt lat="44.35565" lon="5.13851">
        <ele>269</ele>
        <time>2020-07-11T11:04:13.604Z</time>
      </trkpt>
      <trkpt lat="44.35569" lon="5.13859">
        <ele>269</ele>
        <time>2020-07-11T11:04:14.605Z</time>
      </trkpt>
      <trkpt lat="44.35572" lon="5.13866">
        <ele>269</ele>
        <time>2020-07-11T11:04:15.605Z</time>
      </trkpt>
      <trkpt lat="44.35576" lon="5.13875">
        <ele>270</ele>
        <time>2020-07-11T11:04:16.604Z</time>
      </trkpt>
      <trkpt lat="44.3558" lon="5.13885">
        <ele>270</ele>
        <time>2020-07-11T11:04:17.604Z</time>
      </trkpt>
      <trkpt lat="44.35584" lon="5.13893">
        <ele>271</ele>
        <time>2020-07-11T11:04:18.604Z</time>
      </trkpt>
      <trkpt lat="44.35588" lon="5.13902">
        <ele>271</ele>
        <time>2020-07-11T11:04:19.605Z</time>
      </trkpt>
      <trkpt lat="44.35592" lon="5.13911">
        <ele>272</ele>
        <time>2020-07-11T11:04:20.605Z</time>
      </trkpt>
      <trkpt lat="44.35596" lon="5.13919">
        <ele>272</ele>
        <time>2020-07-11T11:04:21.604Z</time>
      </trkpt>
      <trkpt lat="44.356" lon="5.13928">
        <ele>272</ele>
        <time>2020-07-11T11:04:22.605Z</time>
      </trkpt>
      <trkpt lat="44.35604" lon="5.13937">
        <ele>272</ele>
        <time>2020-07-11T11:04:23.605Z</time>
      </trkpt>
      <trkpt lat="44.35608" lon="5.13946">
        <ele>273</ele>
        <time>2020-07-11T11:04:24.605Z</time>
      </trkpt>
      <trkpt lat="44.35612" lon="5.13954">
        <ele>273</ele>
        <time>2020-07-11T11:04:25.605Z</time>
      </trkpt>
      <trkpt lat="44.35615" lon="5.13962">
        <ele>272</ele>
        <time>2020-07-11T11:04:26.605Z</time>
      </trkpt>
      <trkpt lat="44.35619" lon="5.13971">
        <ele>272</ele>
        <time>2020-07-11T11:04:27.604Z</time>
      </trkpt>
      <trkpt lat="44.35623" lon="5.13979">
        <ele>272</ele>
        <time>2020-07-11T11:04:28.604Z</time>
      </trkpt>
      <trkpt lat="44.35628" lon="5.13987">
        <ele>272</ele>
        <time>2020-07-11T11:04:29.604Z</time>
      </trkpt>
      <trkpt lat="44.35633" lon="5.13995">
        <ele>272</ele>
        <time>2020-07-11T11:04:30.604Z</time>
      </trkpt>
      <trkpt lat="44.35637" lon="5.14003">
        <ele>272</ele>
        <time>2020-07-11T11:04:31.605Z</time>
      </trkpt>
      <trkpt lat="44.35642" lon="5.14011">
        <ele>272</ele>
        <time>2020-07-11T11:04:32.604Z</time>
      </trkpt>
      <trkpt lat="44.35647" lon="5.14018">
        <ele>273</ele>
        <time>2020-07-11T11:04:33.605Z</time>
      </trkpt>
      <trkpt lat="44.3565" lon="5.14024">
        <ele>273</ele>
        <time>2020-07-11T11:04:34.605Z</time>
      </trkpt>
      <trkpt lat="44.35656" lon="5.14033">
        <ele>273</ele>
        <time>2020-07-11T11:04:35.604Z</time>
      </trkpt>
      <trkpt lat="44.3566" lon="5.14039">
        <ele>273</ele>
        <time>2020-07-11T11:04:36.605Z</time>
      </trkpt>
      <trkpt lat="44.35666" lon="5.14047">
        <ele>274</ele>
        <time>2020-07-11T11:04:37.604Z</time>
      </trkpt>
      <trkpt lat="44.35671" lon="5.14054">
        <ele>274</ele>
        <time>2020-07-11T11:04:38.605Z</time>
      </trkpt>
      <trkpt lat="44.35676" lon="5.14061">
        <ele>275</ele>
        <time>2020-07-11T11:04:39.605Z</time>
      </trkpt>
      <trkpt lat="44.3568" lon="5.14067">
        <ele>275</ele>
        <time>2020-07-11T11:04:40.605Z</time>
      </trkpt>
      <trkpt lat="44.35685" lon="5.14073">
        <ele>276</ele>
        <time>2020-07-11T11:04:41.604Z</time>
      </trkpt>
      <trkpt lat="44.35689" lon="5.14079">
        <ele>276</ele>
        <time>2020-07-11T11:04:42.604Z</time>
      </trkpt>
      <trkpt lat="44.35693" lon="5.14085">
        <ele>276</ele>
        <time>2020-07-11T11:04:43.605Z</time>
      </trkpt>
      <trkpt lat="44.35698" lon="5.1409">
        <ele>276</ele>
        <time>2020-07-11T11:04:44.605Z</time>
      </trkpt>
      <trkpt lat="44.35702" lon="5.14096">
        <ele>276</ele>
        <time>2020-07-11T11:04:45.604Z</time>
      </trkpt>
      <trkpt lat="44.35706" lon="5.14102">
        <ele>276</ele>
        <time>2020-07-11T11:04:46.604Z</time>
      </trkpt>
      <trkpt lat="44.35711" lon="5.14108">
        <ele>276</ele>
        <time>2020-07-11T11:04:47.605Z</time>
      </trkpt>
      <trkpt lat="44.35715" lon="5.14114">
        <ele>276</ele>
        <time>2020-07-11T11:04:48.605Z</time>
      </trkpt>
      <trkpt lat="44.3572" lon="5.1412">
        <ele>276</ele>
        <time>2020-07-11T11:04:49.605Z</time>
      </trkpt>
      <trkpt lat="44.35725" lon="5.14126">
        <ele>276</ele>
        <time>2020-07-11T11:04:50.604Z</time>
      </trkpt>
      <trkpt lat="44.3573" lon="5.14132">
        <ele>276</ele>
        <time>2020-07-11T11:04:51.604Z</time>
      </trkpt>
      <trkpt lat="44.35735" lon="5.14138">
        <ele>276</ele>
        <time>2020-07-11T11:04:52.604Z</time>
      </trkpt>
      <trkpt lat="44.3574" lon="5.14144">
        <ele>276</ele>
        <time>2020-07-11T11:04:53.605Z</time>
      </trkpt>
      <trkpt lat="44.35745" lon="5.1415">
        <ele>276</ele>
        <time>2020-07-11T11:04:54.605Z</time>
      </trkpt>
      <trkpt lat="44.3575" lon="5.14157">
        <ele>276</ele>
        <time>2020-07-11T11:04:55.605Z</time>
      </trkpt>
      <trkpt lat="44.35755" lon="5.14164">
        <ele>276</ele>
        <time>2020-07-11T11:04:56.605Z</time>
      </trkpt>
      <trkpt lat="44.35759" lon="5.14171">
        <ele>276</ele>
        <time>2020-07-11T11:04:57.604Z</time>
      </trkpt>
      <trkpt lat="44.35763" lon="5.14177">
        <ele>276</ele>
        <time>2020-07-11T11:04:58.605Z</time>
      </trkpt>
      <trkpt lat="44.35766" lon="5.14185">
        <ele>275</ele>
        <time>2020-07-11T11:04:59.605Z</time>
      </trkpt>
      <trkpt lat="44.35771" lon="5.14195">
        <ele>275</ele>
        <time>2020-07-11T11:05:00.604Z</time>
      </trkpt>
      <trkpt lat="44.35774" lon="5.14203">
        <ele>275</ele>
        <time>2020-07-11T11:05:01.605Z</time>
      </trkpt>
      <trkpt lat="44.35779" lon="5.14209">
        <ele>274</ele>
        <time>2020-07-11T11:05:02.604Z</time>
      </trkpt>
      <trkpt lat="44.35784" lon="5.14215">
        <ele>274</ele>
        <time>2020-07-11T11:05:03.605Z</time>
      </trkpt>
      <trkpt lat="44.3579" lon="5.14218">
        <ele>274</ele>
        <time>2020-07-11T11:05:04.605Z</time>
      </trkpt>
      <trkpt lat="44.35797" lon="5.14222">
        <ele>274</ele>
        <time>2020-07-11T11:05:05.604Z</time>
      </trkpt>
      <trkpt lat="44.35803" lon="5.14225">
        <ele>274</ele>
        <time>2020-07-11T11:05:06.604Z</time>
      </trkpt>
      <trkpt lat="44.35809" lon="5.14229">
        <ele>274</ele>
        <time>2020-07-11T11:05:07.604Z</time>
      </trkpt>
      <trkpt lat="44.35816" lon="5.14233">
        <ele>274</ele>
        <time>2020-07-11T11:05:08.605Z</time>
      </trkpt>
      <trkpt lat="44.35821" lon="5.14238">
        <ele>273</ele>
        <time>2020-07-11T11:05:09.605Z</time>
      </trkpt>
      <trkpt lat="44.35827" lon="5.14243">
        <ele>274</ele>
        <time>2020-07-11T11:05:10.604Z</time>
      </trkpt>
      <trkpt lat="44.35832" lon="5.14248">
        <ele>274</ele>
        <time>2020-07-11T11:05:11.604Z</time>
      </trkpt>
      <trkpt lat="44.35838" lon="5.14253">
        <ele>274</ele>
        <time>2020-07-11T11:05:12.604Z</time>
      </trkpt>
      <trkpt lat="44.35843" lon="5.14258">
        <ele>274</ele>
        <time>2020-07-11T11:05:13.605Z</time>
      </trkpt>
      <trkpt lat="44.35847" lon="5.14262">
        <ele>274</ele>
        <time>2020-07-11T11:05:14.604Z</time>
      </trkpt>
      <trkpt lat="44.35853" lon="5.14268">
        <ele>273</ele>
        <time>2020-07-11T11:05:15.604Z</time>
      </trkpt>
      <trkpt lat="44.35858" lon="5.14274">
        <ele>273</ele>
        <time>2020-07-11T11:05:16.604Z</time>
      </trkpt>
      <trkpt lat="44.35863" lon="5.1428">
        <ele>273</ele>
        <time>2020-07-11T11:05:17.604Z</time>
      </trkpt>
      <trkpt lat="44.35867" lon="5.14284">
        <ele>273</ele>
        <time>2020-07-11T11:05:18.605Z</time>
      </trkpt>
      <trkpt lat="44.35873" lon="5.14292">
        <ele>273</ele>
        <time>2020-07-11T11:05:19.604Z</time>
      </trkpt>
      <trkpt lat="44.35878" lon="5.14298">
        <ele>273</ele>
        <time>2020-07-11T11:05:20.604Z</time>
      </trkpt>
      <trkpt lat="44.35882" lon="5.14304">
        <ele>273</ele>
        <time>2020-07-11T11:05:21.604Z</time>
      </trkpt>
      <trkpt lat="44.35887" lon="5.14311">
        <ele>273</ele>
        <time>2020-07-11T11:05:22.604Z</time>
      </trkpt>
      <trkpt lat="44.35892" lon="5.14318">
        <ele>273</ele>
        <time>2020-07-11T11:05:23.604Z</time>
      </trkpt>
      <trkpt lat="44.35895" lon="5.14324">
        <ele>273</ele>
        <time>2020-07-11T11:05:24.604Z</time>
      </trkpt>
      <trkpt lat="44.359" lon="5.14333">
        <ele>273</ele>
        <time>2020-07-11T11:05:25.604Z</time>
      </trkpt>
      <trkpt lat="44.35904" lon="5.14341">
        <ele>273</ele>
        <time>2020-07-11T11:05:26.604Z</time>
      </trkpt>
      <trkpt lat="44.35908" lon="5.14349">
        <ele>273</ele>
        <time>2020-07-11T11:05:27.604Z</time>
      </trkpt>
      <trkpt lat="44.35913" lon="5.14357">
        <ele>273</ele>
        <time>2020-07-11T11:05:28.605Z</time>
      </trkpt>
      <trkpt lat="44.35917" lon="5.14365">
        <ele>274</ele>
        <time>2020-07-11T11:05:29.605Z</time>
      </trkpt>
      <trkpt lat="44.3592" lon="5.14372">
        <ele>274</ele>
        <time>2020-07-11T11:05:30.604Z</time>
      </trkpt>
      <trkpt lat="44.35924" lon="5.14379">
        <ele>274</ele>
        <time>2020-07-11T11:05:31.604Z</time>
      </trkpt>
      <trkpt lat="44.35927" lon="5.14385">
        <ele>274</ele>
        <time>2020-07-11T11:05:32.604Z</time>
      </trkpt>
      <trkpt lat="44.35931" lon="5.14392">
        <ele>275</ele>
        <time>2020-07-11T11:05:33.605Z</time>
      </trkpt>
      <trkpt lat="44.35934" lon="5.14397">
        <ele>275</ele>
        <time>2020-07-11T11:05:34.604Z</time>
      </trkpt>
      <trkpt lat="44.35937" lon="5.14404">
        <ele>274</ele>
        <time>2020-07-11T11:05:35.605Z</time>
      </trkpt>
      <trkpt lat="44.35936" lon="5.14416">
        <ele>274</ele>
        <time>2020-07-11T11:05:36.604Z</time>
      </trkpt>
      <trkpt lat="44.35935" lon="5.14426">
        <ele>274</ele>
        <time>2020-07-11T11:05:37.604Z</time>
      </trkpt>
      <trkpt lat="44.35935" lon="5.1444">
        <ele>273</ele>
        <time>2020-07-11T11:05:38.605Z</time>
      </trkpt>
      <trkpt lat="44.35934" lon="5.14452">
        <ele>274</ele>
        <time>2020-07-11T11:05:39.604Z</time>
      </trkpt>
      <trkpt lat="44.35933" lon="5.14465">
        <ele>274</ele>
        <time>2020-07-11T11:05:40.604Z</time>
      </trkpt>
      <trkpt lat="44.35932" lon="5.14477">
        <ele>274</ele>
        <time>2020-07-11T11:05:41.604Z</time>
      </trkpt>
      <trkpt lat="44.35931" lon="5.1449">
        <ele>274</ele>
        <time>2020-07-11T11:05:42.605Z</time>
      </trkpt>
      <trkpt lat="44.3593" lon="5.14503">
        <ele>274</ele>
        <time>2020-07-11T11:05:43.604Z</time>
      </trkpt>
      <trkpt lat="44.35928" lon="5.14516">
        <ele>275</ele>
        <time>2020-07-11T11:05:44.604Z</time>
      </trkpt>
      <trkpt lat="44.35927" lon="5.14529">
        <ele>275</ele>
        <time>2020-07-11T11:05:45.605Z</time>
      </trkpt>
      <trkpt lat="44.35926" lon="5.14543">
        <ele>275</ele>
        <time>2020-07-11T11:05:46.605Z</time>
      </trkpt>
      <trkpt lat="44.35925" lon="5.14556">
        <ele>275</ele>
        <time>2020-07-11T11:05:47.605Z</time>
      </trkpt>
      <trkpt lat="44.35924" lon="5.1457">
        <ele>275</ele>
        <time>2020-07-11T11:05:48.605Z</time>
      </trkpt>
      <trkpt lat="44.35923" lon="5.14583">
        <ele>274</ele>
        <time>2020-07-11T11:05:49.605Z</time>
      </trkpt>
      <trkpt lat="44.35923" lon="5.14597">
        <ele>274</ele>
        <time>2020-07-11T11:05:50.605Z</time>
      </trkpt>
      <trkpt lat="44.35923" lon="5.14611">
        <ele>274</ele>
        <time>2020-07-11T11:05:51.605Z</time>
      </trkpt>
      <trkpt lat="44.35924" lon="5.14625">
        <ele>274</ele>
        <time>2020-07-11T11:05:52.605Z</time>
      </trkpt>
      <trkpt lat="44.35926" lon="5.1464">
        <ele>274</ele>
        <time>2020-07-11T11:05:53.605Z</time>
      </trkpt>
      <trkpt lat="44.35928" lon="5.14654">
        <ele>274</ele>
        <time>2020-07-11T11:05:54.605Z</time>
      </trkpt>
      <trkpt lat="44.3593" lon="5.14667">
        <ele>273</ele>
        <time>2020-07-11T11:05:55.605Z</time>
      </trkpt>
      <trkpt lat="44.35934" lon="5.1468">
        <ele>273</ele>
        <time>2020-07-11T11:05:56.605Z</time>
      </trkpt>
      <trkpt lat="44.35938" lon="5.14692">
        <ele>273</ele>
        <time>2020-07-11T11:05:57.605Z</time>
      </trkpt>
      <trkpt lat="44.35943" lon="5.14703">
        <ele>272</ele>
        <time>2020-07-11T11:05:58.605Z</time>
      </trkpt>
      <trkpt lat="44.35948" lon="5.14714">
        <ele>272</ele>
        <time>2020-07-11T11:05:59.605Z</time>
      </trkpt>
      <trkpt lat="44.35953" lon="5.14725">
        <ele>272</ele>
        <time>2020-07-11T11:06:00.604Z</time>
      </trkpt>
      <trkpt lat="44.35959" lon="5.14736">
        <ele>272</ele>
        <time>2020-07-11T11:06:01.605Z</time>
      </trkpt>
      <trkpt lat="44.35964" lon="5.14744">
        <ele>272</ele>
        <time>2020-07-11T11:06:02.605Z</time>
      </trkpt>
      <trkpt lat="44.3597" lon="5.14757">
        <ele>272</ele>
        <time>2020-07-11T11:06:03.605Z</time>
      </trkpt>
      <trkpt lat="44.35976" lon="5.14767">
        <ele>271</ele>
        <time>2020-07-11T11:06:04.605Z</time>
      </trkpt>
      <trkpt lat="44.35982" lon="5.14777">
        <ele>271</ele>
        <time>2020-07-11T11:06:05.605Z</time>
      </trkpt>
      <trkpt lat="44.35987" lon="5.14787">
        <ele>270</ele>
        <time>2020-07-11T11:06:06.605Z</time>
      </trkpt>
      <trkpt lat="44.35993" lon="5.14797">
        <ele>270</ele>
        <time>2020-07-11T11:06:07.605Z</time>
      </trkpt>
      <trkpt lat="44.35999" lon="5.14806">
        <ele>269</ele>
        <time>2020-07-11T11:06:08.605Z</time>
      </trkpt>
      <trkpt lat="44.36004" lon="5.14816">
        <ele>269</ele>
        <time>2020-07-11T11:06:09.605Z</time>
      </trkpt>
      <trkpt lat="44.36009" lon="5.14825">
        <ele>270</ele>
        <time>2020-07-11T11:06:10.605Z</time>
      </trkpt>
      <trkpt lat="44.36015" lon="5.14835">
        <ele>270</ele>
        <time>2020-07-11T11:06:11.604Z</time>
      </trkpt>
      <trkpt lat="44.3602" lon="5.14844">
        <ele>270</ele>
        <time>2020-07-11T11:06:12.605Z</time>
      </trkpt>
      <trkpt lat="44.36026" lon="5.14853">
        <ele>270</ele>
        <time>2020-07-11T11:06:13.605Z</time>
      </trkpt>
      <trkpt lat="44.36031" lon="5.14862">
        <ele>270</ele>
        <time>2020-07-11T11:06:14.605Z</time>
      </trkpt>
      <trkpt lat="44.36036" lon="5.1487">
        <ele>269</ele>
        <time>2020-07-11T11:06:15.605Z</time>
      </trkpt>
      <trkpt lat="44.36041" lon="5.14879">
        <ele>269</ele>
        <time>2020-07-11T11:06:16.605Z</time>
      </trkpt>
      <trkpt lat="44.36047" lon="5.14887">
        <ele>269</ele>
        <time>2020-07-11T11:06:17.604Z</time>
      </trkpt>
      <trkpt lat="44.36053" lon="5.14896">
        <ele>268</ele>
        <time>2020-07-11T11:06:18.605Z</time>
      </trkpt>
      <trkpt lat="44.36058" lon="5.14904">
        <ele>268</ele>
        <time>2020-07-11T11:06:19.604Z</time>
      </trkpt>
      <trkpt lat="44.36064" lon="5.14911">
        <ele>267</ele>
        <time>2020-07-11T11:06:20.605Z</time>
      </trkpt>
      <trkpt lat="44.3607" lon="5.14919">
        <ele>268</ele>
        <time>2020-07-11T11:06:21.605Z</time>
      </trkpt>
      <trkpt lat="44.36076" lon="5.14927">
        <ele>268</ele>
        <time>2020-07-11T11:06:22.605Z</time>
      </trkpt>
      <trkpt lat="44.36082" lon="5.14934">
        <ele>268</ele>
        <time>2020-07-11T11:06:23.605Z</time>
      </trkpt>
      <trkpt lat="44.36088" lon="5.14941">
        <ele>268</ele>
        <time>2020-07-11T11:06:24.604Z</time>
      </trkpt>
      <trkpt lat="44.36095" lon="5.14948">
        <ele>269</ele>
        <time>2020-07-11T11:06:25.605Z</time>
      </trkpt>
      <trkpt lat="44.36101" lon="5.14956">
        <ele>269</ele>
        <time>2020-07-11T11:06:26.605Z</time>
      </trkpt>
      <trkpt lat="44.36108" lon="5.14963">
        <ele>269</ele>
        <time>2020-07-11T11:06:27.604Z</time>
      </trkpt>
      <trkpt lat="44.36114" lon="5.1497">
        <ele>269</ele>
        <time>2020-07-11T11:06:28.605Z</time>
      </trkpt>
      <trkpt lat="44.36121" lon="5.14977">
        <ele>269</ele>
        <time>2020-07-11T11:06:29.605Z</time>
      </trkpt>
      <trkpt lat="44.36127" lon="5.14984">
        <ele>269</ele>
        <time>2020-07-11T11:06:30.605Z</time>
      </trkpt>
      <trkpt lat="44.36134" lon="5.1499">
        <ele>270</ele>
        <time>2020-07-11T11:06:31.604Z</time>
      </trkpt>
      <trkpt lat="44.36141" lon="5.14997">
        <ele>270</ele>
        <time>2020-07-11T11:06:32.605Z</time>
      </trkpt>
      <trkpt lat="44.36148" lon="5.15003">
        <ele>270</ele>
        <time>2020-07-11T11:06:33.605Z</time>
      </trkpt>
      <trkpt lat="44.36155" lon="5.15009">
        <ele>270</ele>
        <time>2020-07-11T11:06:34.605Z</time>
      </trkpt>
      <trkpt lat="44.36161" lon="5.15015">
        <ele>270</ele>
        <time>2020-07-11T11:06:35.604Z</time>
      </trkpt>
      <trkpt lat="44.36167" lon="5.15021">
        <ele>271</ele>
        <time>2020-07-11T11:06:36.604Z</time>
      </trkpt>
      <trkpt lat="44.36174" lon="5.15026">
        <ele>271</ele>
        <time>2020-07-11T11:06:37.605Z</time>
      </trkpt>
      <trkpt lat="44.3618" lon="5.15032">
        <ele>271</ele>
        <time>2020-07-11T11:06:38.605Z</time>
      </trkpt>
      <trkpt lat="44.36186" lon="5.15037">
        <ele>272</ele>
        <time>2020-07-11T11:06:39.605Z</time>
      </trkpt>
      <trkpt lat="44.36192" lon="5.15043">
        <ele>272</ele>
        <time>2020-07-11T11:06:40.605Z</time>
      </trkpt>
      <trkpt lat="44.36199" lon="5.15049">
        <ele>272</ele>
        <time>2020-07-11T11:06:41.605Z</time>
      </trkpt>
      <trkpt lat="44.36205" lon="5.15055">
        <ele>272</ele>
        <time>2020-07-11T11:06:42.605Z</time>
      </trkpt>
      <trkpt lat="44.36211" lon="5.15061">
        <ele>271</ele>
        <time>2020-07-11T11:06:43.605Z</time>
      </trkpt>
      <trkpt lat="44.36218" lon="5.15066">
        <ele>272</ele>
        <time>2020-07-11T11:06:44.604Z</time>
      </trkpt>
      <trkpt lat="44.36224" lon="5.15072">
        <ele>272</ele>
        <time>2020-07-11T11:06:45.605Z</time>
      </trkpt>
      <trkpt lat="44.3623" lon="5.15078">
        <ele>272</ele>
        <time>2020-07-11T11:06:46.605Z</time>
      </trkpt>
      <trkpt lat="44.36236" lon="5.15084">
        <ele>272</ele>
        <time>2020-07-11T11:06:47.605Z</time>
      </trkpt>
      <trkpt lat="44.36242" lon="5.15091">
        <ele>272</ele>
        <time>2020-07-11T11:06:48.605Z</time>
      </trkpt>
      <trkpt lat="44.36248" lon="5.15097">
        <ele>271</ele>
        <time>2020-07-11T11:06:49.605Z</time>
      </trkpt>
      <trkpt lat="44.36254" lon="5.15103">
        <ele>271</ele>
        <time>2020-07-11T11:06:50.605Z</time>
      </trkpt>
      <trkpt lat="44.3626" lon="5.1511">
        <ele>271</ele>
        <time>2020-07-11T11:06:51.605Z</time>
      </trkpt>
      <trkpt lat="44.36265" lon="5.15115">
        <ele>272</ele>
        <time>2020-07-11T11:06:52.604Z</time>
      </trkpt>
      <trkpt lat="44.36271" lon="5.15123">
        <ele>272</ele>
        <time>2020-07-11T11:06:53.605Z</time>
      </trkpt>
      <trkpt lat="44.36277" lon="5.1513">
        <ele>272</ele>
        <time>2020-07-11T11:06:54.604Z</time>
      </trkpt>
      <trkpt lat="44.36282" lon="5.15136">
        <ele>273</ele>
        <time>2020-07-11T11:06:55.605Z</time>
      </trkpt>
      <trkpt lat="44.36288" lon="5.15143">
        <ele>274</ele>
        <time>2020-07-11T11:06:56.605Z</time>
      </trkpt>
      <trkpt lat="44.36292" lon="5.15148">
        <ele>274</ele>
        <time>2020-07-11T11:06:57.604Z</time>
      </trkpt>
      <trkpt lat="44.36299" lon="5.15156">
        <ele>274</ele>
        <time>2020-07-11T11:06:58.604Z</time>
      </trkpt>
      <trkpt lat="44.36304" lon="5.15162">
        <ele>273</ele>
        <time>2020-07-11T11:06:59.605Z</time>
      </trkpt>
      <trkpt lat="44.3631" lon="5.15168">
        <ele>273</ele>
        <time>2020-07-11T11:07:00.605Z</time>
      </trkpt>
      <trkpt lat="44.36315" lon="5.15175">
        <ele>273</ele>
        <time>2020-07-11T11:07:01.605Z</time>
      </trkpt>
      <trkpt lat="44.36319" lon="5.15181">
        <ele>273</ele>
        <time>2020-07-11T11:07:02.605Z</time>
      </trkpt>
      <trkpt lat="44.36326" lon="5.15189">
        <ele>273</ele>
        <time>2020-07-11T11:07:03.604Z</time>
      </trkpt>
      <trkpt lat="44.36332" lon="5.15195">
        <ele>273</ele>
        <time>2020-07-11T11:07:04.604Z</time>
      </trkpt>
      <trkpt lat="44.36337" lon="5.15202">
        <ele>273</ele>
        <time>2020-07-11T11:07:05.605Z</time>
      </trkpt>
      <trkpt lat="44.36343" lon="5.15209">
        <ele>273</ele>
        <time>2020-07-11T11:07:06.605Z</time>
      </trkpt>
      <trkpt lat="44.36348" lon="5.15215">
        <ele>273</ele>
        <time>2020-07-11T11:07:07.604Z</time>
      </trkpt>
      <trkpt lat="44.36354" lon="5.15222">
        <ele>273</ele>
        <time>2020-07-11T11:07:08.604Z</time>
      </trkpt>
      <trkpt lat="44.36359" lon="5.15229">
        <ele>273</ele>
        <time>2020-07-11T11:07:09.605Z</time>
      </trkpt>
      <trkpt lat="44.36365" lon="5.15236">
        <ele>273</ele>
        <time>2020-07-11T11:07:10.605Z</time>
      </trkpt>
      <trkpt lat="44.36371" lon="5.15242">
        <ele>273</ele>
        <time>2020-07-11T11:07:11.605Z</time>
      </trkpt>
      <trkpt lat="44.36376" lon="5.15249">
        <ele>273</ele>
        <time>2020-07-11T11:07:12.604Z</time>
      </trkpt>
      <trkpt lat="44.36382" lon="5.15256">
        <ele>274</ele>
        <time>2020-07-11T11:07:13.604Z</time>
      </trkpt>
      <trkpt lat="44.36388" lon="5.15263">
        <ele>274</ele>
        <time>2020-07-11T11:07:14.605Z</time>
      </trkpt>
      <trkpt lat="44.36393" lon="5.1527">
        <ele>274</ele>
        <time>2020-07-11T11:07:15.605Z</time>
      </trkpt>
      <trkpt lat="44.36399" lon="5.15276">
        <ele>274</ele>
        <time>2020-07-11T11:07:16.605Z</time>
      </trkpt>
      <trkpt lat="44.36404" lon="5.15283">
        <ele>275</ele>
        <time>2020-07-11T11:07:17.605Z</time>
      </trkpt>
      <trkpt lat="44.3641" lon="5.15291">
        <ele>275</ele>
        <time>2020-07-11T11:07:18.605Z</time>
      </trkpt>
      <trkpt lat="44.36416" lon="5.15297">
        <ele>275</ele>
        <time>2020-07-11T11:07:19.605Z</time>
      </trkpt>
      <trkpt lat="44.36422" lon="5.15304">
        <ele>275</ele>
        <time>2020-07-11T11:07:20.605Z</time>
      </trkpt>
      <trkpt lat="44.36426" lon="5.1531">
        <ele>276</ele>
        <time>2020-07-11T11:07:21.605Z</time>
      </trkpt>
      <trkpt lat="44.36433" lon="5.15318">
        <ele>276</ele>
        <time>2020-07-11T11:07:22.605Z</time>
      </trkpt>
      <trkpt lat="44.36439" lon="5.15325">
        <ele>275</ele>
        <time>2020-07-11T11:07:23.605Z</time>
      </trkpt>
      <trkpt lat="44.36446" lon="5.15331">
        <ele>275</ele>
        <time>2020-07-11T11:07:24.604Z</time>
      </trkpt>
      <trkpt lat="44.36452" lon="5.15337">
        <ele>275</ele>
        <time>2020-07-11T11:07:25.605Z</time>
      </trkpt>
      <trkpt lat="44.36458" lon="5.15343">
        <ele>274</ele>
        <time>2020-07-11T11:07:26.605Z</time>
      </trkpt>
      <trkpt lat="44.36465" lon="5.15349">
        <ele>274</ele>
        <time>2020-07-11T11:07:27.605Z</time>
      </trkpt>
      <trkpt lat="44.36471" lon="5.15353">
        <ele>273</ele>
        <time>2020-07-11T11:07:28.605Z</time>
      </trkpt>
      <trkpt lat="44.36478" lon="5.15358">
        <ele>273</ele>
        <time>2020-07-11T11:07:29.605Z</time>
      </trkpt>
      <trkpt lat="44.36485" lon="5.15361">
        <ele>273</ele>
        <time>2020-07-11T11:07:30.605Z</time>
      </trkpt>
      <trkpt lat="44.36492" lon="5.15364">
        <ele>273</ele>
        <time>2020-07-11T11:07:31.605Z</time>
      </trkpt>
      <trkpt lat="44.36499" lon="5.15367">
        <ele>273</ele>
        <time>2020-07-11T11:07:32.605Z</time>
      </trkpt>
      <trkpt lat="44.36506" lon="5.15369">
        <ele>274</ele>
        <time>2020-07-11T11:07:33.605Z</time>
      </trkpt>
      <trkpt lat="44.36513" lon="5.1537">
        <ele>273</ele>
        <time>2020-07-11T11:07:34.604Z</time>
      </trkpt>
      <trkpt lat="44.3652" lon="5.1537">
        <ele>273</ele>
        <time>2020-07-11T11:07:35.605Z</time>
      </trkpt>
      <trkpt lat="44.36527" lon="5.15371">
        <ele>273</ele>
        <time>2020-07-11T11:07:36.605Z</time>
      </trkpt>
      <trkpt lat="44.36534" lon="5.1537">
        <ele>273</ele>
        <time>2020-07-11T11:07:37.605Z</time>
      </trkpt>
      <trkpt lat="44.36541" lon="5.1537">
        <ele>273</ele>
        <time>2020-07-11T11:07:38.605Z</time>
      </trkpt>
      <trkpt lat="44.36547" lon="5.15369">
        <ele>273</ele>
        <time>2020-07-11T11:07:39.605Z</time>
      </trkpt>
      <trkpt lat="44.36554" lon="5.15367">
        <ele>273</ele>
        <time>2020-07-11T11:07:40.605Z</time>
      </trkpt>
      <trkpt lat="44.36558" lon="5.15365">
        <ele>273</ele>
        <time>2020-07-11T11:07:41.605Z</time>
      </trkpt>
      <trkpt lat="44.36565" lon="5.15362">
        <ele>274</ele>
        <time>2020-07-11T11:07:42.605Z</time>
      </trkpt>
      <trkpt lat="44.36571" lon="5.1536">
        <ele>274</ele>
        <time>2020-07-11T11:07:43.605Z</time>
      </trkpt>
      <trkpt lat="44.36576" lon="5.15357">
        <ele>274</ele>
        <time>2020-07-11T11:07:44.605Z</time>
      </trkpt>
      <trkpt lat="44.36581" lon="5.15353">
        <ele>274</ele>
        <time>2020-07-11T11:07:45.605Z</time>
      </trkpt>
      <trkpt lat="44.36586" lon="5.1535">
        <ele>275</ele>
        <time>2020-07-11T11:07:46.605Z</time>
      </trkpt>
      <trkpt lat="44.3659" lon="5.15346">
        <ele>275</ele>
        <time>2020-07-11T11:07:47.604Z</time>
      </trkpt>
      <trkpt lat="44.36595" lon="5.15342">
        <ele>275</ele>
        <time>2020-07-11T11:07:48.605Z</time>
      </trkpt>
      <trkpt lat="44.36599" lon="5.15337">
        <ele>275</ele>
        <time>2020-07-11T11:07:49.605Z</time>
      </trkpt>
      <trkpt lat="44.36603" lon="5.15333">
        <ele>275</ele>
        <time>2020-07-11T11:07:50.605Z</time>
      </trkpt>
      <trkpt lat="44.36608" lon="5.15329">
        <ele>275</ele>
        <time>2020-07-11T11:07:51.605Z</time>
      </trkpt>
      <trkpt lat="44.36612" lon="5.15324">
        <ele>276</ele>
        <time>2020-07-11T11:07:52.605Z</time>
      </trkpt>
      <trkpt lat="44.36616" lon="5.15319">
        <ele>276</ele>
        <time>2020-07-11T11:07:53.605Z</time>
      </trkpt>
      <trkpt lat="44.36619" lon="5.15313">
        <ele>277</ele>
        <time>2020-07-11T11:07:54.604Z</time>
      </trkpt>
      <trkpt lat="44.36623" lon="5.15308">
        <ele>277</ele>
        <time>2020-07-11T11:07:55.605Z</time>
      </trkpt>
      <trkpt lat="44.36626" lon="5.15302">
        <ele>277</ele>
        <time>2020-07-11T11:07:56.604Z</time>
      </trkpt>
      <trkpt lat="44.36629" lon="5.15297">
        <ele>278</ele>
        <time>2020-07-11T11:07:57.605Z</time>
      </trkpt>
      <trkpt lat="44.36632" lon="5.15291">
        <ele>278</ele>
        <time>2020-07-11T11:07:58.605Z</time>
      </trkpt>
      <trkpt lat="44.36635" lon="5.15285">
        <ele>279</ele>
        <time>2020-07-11T11:07:59.605Z</time>
      </trkpt>
      <trkpt lat="44.36638" lon="5.15279">
        <ele>279</ele>
        <time>2020-07-11T11:08:00.605Z</time>
      </trkpt>
      <trkpt lat="44.36641" lon="5.15273">
        <ele>279</ele>
        <time>2020-07-11T11:08:01.605Z</time>
      </trkpt>
      <trkpt lat="44.36644" lon="5.15267">
        <ele>279</ele>
        <time>2020-07-11T11:08:02.605Z</time>
      </trkpt>
      <trkpt lat="44.36647" lon="5.15261">
        <ele>279</ele>
        <time>2020-07-11T11:08:03.605Z</time>
      </trkpt>
      <trkpt lat="44.36649" lon="5.15255">
        <ele>279</ele>
        <time>2020-07-11T11:08:04.604Z</time>
      </trkpt>
      <trkpt lat="44.36652" lon="5.1525">
        <ele>279</ele>
        <time>2020-07-11T11:08:05.604Z</time>
      </trkpt>
      <trkpt lat="44.36654" lon="5.15244">
        <ele>279</ele>
        <time>2020-07-11T11:08:06.604Z</time>
      </trkpt>
      <trkpt lat="44.36656" lon="5.15239">
        <ele>279</ele>
        <time>2020-07-11T11:08:07.604Z</time>
      </trkpt>
      <trkpt lat="44.36659" lon="5.15233">
        <ele>279</ele>
        <time>2020-07-11T11:08:08.605Z</time>
      </trkpt>
      <trkpt lat="44.36661" lon="5.15228">
        <ele>280</ele>
        <time>2020-07-11T11:08:09.604Z</time>
      </trkpt>
      <trkpt lat="44.36664" lon="5.15223">
        <ele>280</ele>
        <time>2020-07-11T11:08:10.605Z</time>
      </trkpt>
      <trkpt lat="44.36666" lon="5.15217">
        <ele>281</ele>
        <time>2020-07-11T11:08:11.605Z</time>
      </trkpt>
      <trkpt lat="44.36669" lon="5.15211">
        <ele>282</ele>
        <time>2020-07-11T11:08:12.605Z</time>
      </trkpt>
      <trkpt lat="44.36671" lon="5.15205">
        <ele>282</ele>
        <time>2020-07-11T11:08:13.605Z</time>
      </trkpt>
      <trkpt lat="44.36674" lon="5.15199">
        <ele>282</ele>
        <time>2020-07-11T11:08:14.604Z</time>
      </trkpt>
      <trkpt lat="44.36676" lon="5.15193">
        <ele>282</ele>
        <time>2020-07-11T11:08:15.605Z</time>
      </trkpt>
      <trkpt lat="44.36679" lon="5.15187">
        <ele>282</ele>
        <time>2020-07-11T11:08:16.604Z</time>
      </trkpt>
      <trkpt lat="44.36682" lon="5.15182">
        <ele>282</ele>
        <time>2020-07-11T11:08:17.604Z</time>
      </trkpt>
      <trkpt lat="44.36684" lon="5.15177">
        <ele>282</ele>
        <time>2020-07-11T11:08:18.605Z</time>
      </trkpt>
      <trkpt lat="44.36687" lon="5.15171">
        <ele>282</ele>
        <time>2020-07-11T11:08:19.605Z</time>
      </trkpt>
      <trkpt lat="44.3669" lon="5.15166">
        <ele>282</ele>
        <time>2020-07-11T11:08:20.605Z</time>
      </trkpt>
      <trkpt lat="44.36692" lon="5.1516">
        <ele>282</ele>
        <time>2020-07-11T11:08:21.605Z</time>
      </trkpt>
      <trkpt lat="44.36695" lon="5.15154">
        <ele>282</ele>
        <time>2020-07-11T11:08:22.604Z</time>
      </trkpt>
      <trkpt lat="44.36698" lon="5.15149">
        <ele>283</ele>
        <time>2020-07-11T11:08:23.605Z</time>
      </trkpt>
      <trkpt lat="44.36701" lon="5.15144">
        <ele>283</ele>
        <time>2020-07-11T11:08:24.605Z</time>
      </trkpt>
      <trkpt lat="44.36704" lon="5.15138">
        <ele>283</ele>
        <time>2020-07-11T11:08:25.605Z</time>
      </trkpt>
      <trkpt lat="44.36707" lon="5.15133">
        <ele>284</ele>
        <time>2020-07-11T11:08:26.605Z</time>
      </trkpt>
      <trkpt lat="44.36711" lon="5.15128">
        <ele>285</ele>
        <time>2020-07-11T11:08:27.605Z</time>
      </trkpt>
      <trkpt lat="44.36715" lon="5.15122">
        <ele>285</ele>
        <time>2020-07-11T11:08:28.605Z</time>
      </trkpt>
      <trkpt lat="44.36719" lon="5.15118">
        <ele>286</ele>
        <time>2020-07-11T11:08:29.605Z</time>
      </trkpt>
      <trkpt lat="44.36725" lon="5.15112">
        <ele>286</ele>
        <time>2020-07-11T11:08:30.605Z</time>
      </trkpt>
      <trkpt lat="44.36729" lon="5.15109">
        <ele>287</ele>
        <time>2020-07-11T11:08:31.605Z</time>
      </trkpt>
      <trkpt lat="44.36736" lon="5.15104">
        <ele>287</ele>
        <time>2020-07-11T11:08:32.604Z</time>
      </trkpt>
      <trkpt lat="44.36741" lon="5.151">
        <ele>287</ele>
        <time>2020-07-11T11:08:33.605Z</time>
      </trkpt>
      <trkpt lat="44.36746" lon="5.15097">
        <ele>287</ele>
        <time>2020-07-11T11:08:34.605Z</time>
      </trkpt>
      <trkpt lat="44.36752" lon="5.15094">
        <ele>287</ele>
        <time>2020-07-11T11:08:35.605Z</time>
      </trkpt>
      <trkpt lat="44.36758" lon="5.15091">
        <ele>287</ele>
        <time>2020-07-11T11:08:36.605Z</time>
      </trkpt>
      <trkpt lat="44.36766" lon="5.15088">
        <ele>288</ele>
        <time>2020-07-11T11:08:37.605Z</time>
      </trkpt>
      <trkpt lat="44.36772" lon="5.15087">
        <ele>288</ele>
        <time>2020-07-11T11:08:38.605Z</time>
      </trkpt>
      <trkpt lat="44.36779" lon="5.15086">
        <ele>288</ele>
        <time>2020-07-11T11:08:39.605Z</time>
      </trkpt>
      <trkpt lat="44.36786" lon="5.15086">
        <ele>289</ele>
        <time>2020-07-11T11:08:40.604Z</time>
      </trkpt>
      <trkpt lat="44.36793" lon="5.15086">
        <ele>290</ele>
        <time>2020-07-11T11:08:41.604Z</time>
      </trkpt>
      <trkpt lat="44.368" lon="5.15086">
        <ele>290</ele>
        <time>2020-07-11T11:08:42.605Z</time>
      </trkpt>
      <trkpt lat="44.36808" lon="5.15085">
        <ele>290</ele>
        <time>2020-07-11T11:08:43.605Z</time>
      </trkpt>
      <trkpt lat="44.36816" lon="5.15085">
        <ele>291</ele>
        <time>2020-07-11T11:08:44.605Z</time>
      </trkpt>
      <trkpt lat="44.36822" lon="5.15084">
        <ele>291</ele>
        <time>2020-07-11T11:08:45.605Z</time>
      </trkpt>
      <trkpt lat="44.36829" lon="5.15082">
        <ele>292</ele>
        <time>2020-07-11T11:08:46.604Z</time>
      </trkpt>
      <trkpt lat="44.36837" lon="5.1508">
        <ele>292</ele>
        <time>2020-07-11T11:08:47.605Z</time>
      </trkpt>
      <trkpt lat="44.36846" lon="5.15078">
        <ele>292</ele>
        <time>2020-07-11T11:08:48.605Z</time>
      </trkpt>
      <trkpt lat="44.36853" lon="5.15076">
        <ele>292</ele>
        <time>2020-07-11T11:08:49.605Z</time>
      </trkpt>
      <trkpt lat="44.3686" lon="5.15075">
        <ele>292</ele>
        <time>2020-07-11T11:08:50.604Z</time>
      </trkpt>
      <trkpt lat="44.36868" lon="5.15074">
        <ele>292</ele>
        <time>2020-07-11T11:08:51.605Z</time>
      </trkpt>
      <trkpt lat="44.36876" lon="5.15074">
        <ele>292</ele>
        <time>2020-07-11T11:08:52.605Z</time>
      </trkpt>
      <trkpt lat="44.36884" lon="5.15074">
        <ele>291</ele>
        <time>2020-07-11T11:08:53.605Z</time>
      </trkpt>
      <trkpt lat="44.36892" lon="5.15075">
        <ele>291</ele>
        <time>2020-07-11T11:08:54.605Z</time>
      </trkpt>
      <trkpt lat="44.369" lon="5.15077">
        <ele>290</ele>
        <time>2020-07-11T11:08:55.604Z</time>
      </trkpt>
      <trkpt lat="44.36908" lon="5.15078">
        <ele>290</ele>
        <time>2020-07-11T11:08:56.605Z</time>
      </trkpt>
      <trkpt lat="44.36916" lon="5.1508">
        <ele>290</ele>
        <time>2020-07-11T11:08:57.605Z</time>
      </trkpt>
      <trkpt lat="44.36924" lon="5.15083">
        <ele>290</ele>
        <time>2020-07-11T11:08:58.605Z</time>
      </trkpt>
      <trkpt lat="44.36932" lon="5.15085">
        <ele>289</ele>
        <time>2020-07-11T11:08:59.605Z</time>
      </trkpt>
      <trkpt lat="44.3694" lon="5.15087">
        <ele>289</ele>
        <time>2020-07-11T11:09:00.605Z</time>
      </trkpt>
      <trkpt lat="44.36948" lon="5.15089">
        <ele>289</ele>
        <time>2020-07-11T11:09:01.605Z</time>
      </trkpt>
      <trkpt lat="44.36957" lon="5.15092">
        <ele>289</ele>
        <time>2020-07-11T11:09:02.605Z</time>
      </trkpt>
      <trkpt lat="44.36964" lon="5.15094">
        <ele>288</ele>
        <time>2020-07-11T11:09:03.605Z</time>
      </trkpt>
      <trkpt lat="44.36972" lon="5.15096">
        <ele>288</ele>
        <time>2020-07-11T11:09:04.605Z</time>
      </trkpt>
      <trkpt lat="44.3698" lon="5.15098">
        <ele>289</ele>
        <time>2020-07-11T11:09:05.605Z</time>
      </trkpt>
      <trkpt lat="44.36988" lon="5.15101">
        <ele>289</ele>
        <time>2020-07-11T11:09:06.605Z</time>
      </trkpt>
      <trkpt lat="44.36996" lon="5.15103">
        <ele>288</ele>
        <time>2020-07-11T11:09:07.605Z</time>
      </trkpt>
      <trkpt lat="44.37004" lon="5.15106">
        <ele>288</ele>
        <time>2020-07-11T11:09:08.605Z</time>
      </trkpt>
      <trkpt lat="44.37014" lon="5.15109">
        <ele>287</ele>
        <time>2020-07-11T11:09:09.605Z</time>
      </trkpt>
      <trkpt lat="44.3702" lon="5.15111">
        <ele>287</ele>
        <time>2020-07-11T11:09:10.605Z</time>
      </trkpt>
      <trkpt lat="44.37028" lon="5.15114">
        <ele>287</ele>
        <time>2020-07-11T11:09:11.604Z</time>
      </trkpt>
      <trkpt lat="44.37035" lon="5.15117">
        <ele>287</ele>
        <time>2020-07-11T11:09:12.605Z</time>
      </trkpt>
      <trkpt lat="44.37043" lon="5.1512">
        <ele>287</ele>
        <time>2020-07-11T11:09:13.605Z</time>
      </trkpt>
      <trkpt lat="44.37053" lon="5.15124">
        <ele>287</ele>
        <time>2020-07-11T11:09:14.605Z</time>
      </trkpt>
      <trkpt lat="44.37059" lon="5.15127">
        <ele>287</ele>
        <time>2020-07-11T11:09:15.605Z</time>
      </trkpt>
      <trkpt lat="44.37067" lon="5.1513">
        <ele>287</ele>
        <time>2020-07-11T11:09:16.605Z</time>
      </trkpt>
      <trkpt lat="44.37077" lon="5.15135">
        <ele>287</ele>
        <time>2020-07-11T11:09:17.605Z</time>
      </trkpt>
      <trkpt lat="44.37085" lon="5.15139">
        <ele>287</ele>
        <time>2020-07-11T11:09:18.605Z</time>
      </trkpt>
      <trkpt lat="44.37091" lon="5.15143">
        <ele>287</ele>
        <time>2020-07-11T11:09:19.605Z</time>
      </trkpt>
      <trkpt lat="44.37099" lon="5.15148">
        <ele>287</ele>
        <time>2020-07-11T11:09:20.604Z</time>
      </trkpt>
      <trkpt lat="44.37107" lon="5.15154">
        <ele>287</ele>
        <time>2020-07-11T11:09:21.604Z</time>
      </trkpt>
      <trkpt lat="44.37115" lon="5.15163">
        <ele>287</ele>
        <time>2020-07-11T11:09:22.605Z</time>
      </trkpt>
      <trkpt lat="44.37122" lon="5.15171">
        <ele>286</ele>
        <time>2020-07-11T11:09:23.604Z</time>
      </trkpt>
      <trkpt lat="44.37128" lon="5.15179">
        <ele>286</ele>
        <time>2020-07-11T11:09:24.605Z</time>
      </trkpt>
      <trkpt lat="44.37133" lon="5.15187">
        <ele>285</ele>
        <time>2020-07-11T11:09:25.604Z</time>
      </trkpt>
      <trkpt lat="44.37138" lon="5.15195">
        <ele>285</ele>
        <time>2020-07-11T11:09:26.605Z</time>
      </trkpt>
      <trkpt lat="44.37144" lon="5.15206">
        <ele>285</ele>
        <time>2020-07-11T11:09:27.605Z</time>
      </trkpt>
      <trkpt lat="44.37149" lon="5.15216">
        <ele>285</ele>
        <time>2020-07-11T11:09:28.605Z</time>
      </trkpt>
      <trkpt lat="44.37152" lon="5.15224">
        <ele>285</ele>
        <time>2020-07-11T11:09:29.605Z</time>
      </trkpt>
      <trkpt lat="44.37156" lon="5.15235">
        <ele>285</ele>
        <time>2020-07-11T11:09:30.604Z</time>
      </trkpt>
      <trkpt lat="44.37159" lon="5.15245">
        <ele>285</ele>
        <time>2020-07-11T11:09:31.605Z</time>
      </trkpt>
      <trkpt lat="44.37163" lon="5.15258">
        <ele>285</ele>
        <time>2020-07-11T11:09:32.604Z</time>
      </trkpt>
      <trkpt lat="44.37166" lon="5.15269">
        <ele>284</ele>
        <time>2020-07-11T11:09:33.605Z</time>
      </trkpt>
      <trkpt lat="44.37169" lon="5.1528">
        <ele>284</ele>
        <time>2020-07-11T11:09:34.605Z</time>
      </trkpt>
      <trkpt lat="44.37171" lon="5.15288">
        <ele>284</ele>
        <time>2020-07-11T11:09:35.604Z</time>
      </trkpt>
      <trkpt lat="44.37174" lon="5.15301">
        <ele>284</ele>
        <time>2020-07-11T11:09:36.605Z</time>
      </trkpt>
      <trkpt lat="44.37177" lon="5.15312">
        <ele>284</ele>
        <time>2020-07-11T11:09:37.604Z</time>
      </trkpt>
      <trkpt lat="44.37179" lon="5.15322">
        <ele>284</ele>
        <time>2020-07-11T11:09:38.604Z</time>
      </trkpt>
      <trkpt lat="44.37182" lon="5.15332">
        <ele>284</ele>
        <time>2020-07-11T11:09:39.605Z</time>
      </trkpt>
      <trkpt lat="44.37185" lon="5.15342">
        <ele>284</ele>
        <time>2020-07-11T11:09:40.605Z</time>
      </trkpt>
      <trkpt lat="44.37187" lon="5.15351">
        <ele>284</ele>
        <time>2020-07-11T11:09:41.605Z</time>
      </trkpt>
      <trkpt lat="44.37191" lon="5.15363">
        <ele>284</ele>
        <time>2020-07-11T11:09:42.605Z</time>
      </trkpt>
      <trkpt lat="44.37193" lon="5.15374">
        <ele>284</ele>
        <time>2020-07-11T11:09:43.604Z</time>
      </trkpt>
      <trkpt lat="44.37195" lon="5.15384">
        <ele>284</ele>
        <time>2020-07-11T11:09:44.605Z</time>
      </trkpt>
      <trkpt lat="44.37196" lon="5.15393">
        <ele>285</ele>
        <time>2020-07-11T11:09:45.605Z</time>
      </trkpt>
      <trkpt lat="44.37199" lon="5.15406">
        <ele>285</ele>
        <time>2020-07-11T11:09:46.605Z</time>
      </trkpt>
      <trkpt lat="44.372" lon="5.15416">
        <ele>285</ele>
        <time>2020-07-11T11:09:47.605Z</time>
      </trkpt>
      <trkpt lat="44.37202" lon="5.15426">
        <ele>286</ele>
        <time>2020-07-11T11:09:48.605Z</time>
      </trkpt>
      <trkpt lat="44.37203" lon="5.15437">
        <ele>286</ele>
        <time>2020-07-11T11:09:49.604Z</time>
      </trkpt>
      <trkpt lat="44.37204" lon="5.15446">
        <ele>286</ele>
        <time>2020-07-11T11:09:50.604Z</time>
      </trkpt>
      <trkpt lat="44.37205" lon="5.15456">
        <ele>286</ele>
        <time>2020-07-11T11:09:51.605Z</time>
      </trkpt>
      <trkpt lat="44.37207" lon="5.15467">
        <ele>286</ele>
        <time>2020-07-11T11:09:52.605Z</time>
      </trkpt>
      <trkpt lat="44.37208" lon="5.15477">
        <ele>286</ele>
        <time>2020-07-11T11:09:53.604Z</time>
      </trkpt>
      <trkpt lat="44.37209" lon="5.15488">
        <ele>285</ele>
        <time>2020-07-11T11:09:54.604Z</time>
      </trkpt>
      <trkpt lat="44.3721" lon="5.15498">
        <ele>285</ele>
        <time>2020-07-11T11:09:55.605Z</time>
      </trkpt>
      <trkpt lat="44.37211" lon="5.15508">
        <ele>285</ele>
        <time>2020-07-11T11:09:56.605Z</time>
      </trkpt>
      <trkpt lat="44.37213" lon="5.15519">
        <ele>286</ele>
        <time>2020-07-11T11:09:57.605Z</time>
      </trkpt>
      <trkpt lat="44.37215" lon="5.15529">
        <ele>286</ele>
        <time>2020-07-11T11:09:58.605Z</time>
      </trkpt>
      <trkpt lat="44.37217" lon="5.15539">
        <ele>286</ele>
        <time>2020-07-11T11:09:59.605Z</time>
      </trkpt>
      <trkpt lat="44.3722" lon="5.15549">
        <ele>286</ele>
        <time>2020-07-11T11:10:00.605Z</time>
      </trkpt>
      <trkpt lat="44.37222" lon="5.15559">
        <ele>287</ele>
        <time>2020-07-11T11:10:01.605Z</time>
      </trkpt>
      <trkpt lat="44.37224" lon="5.1557">
        <ele>287</ele>
        <time>2020-07-11T11:10:02.605Z</time>
      </trkpt>
      <trkpt lat="44.37226" lon="5.1558">
        <ele>288</ele>
        <time>2020-07-11T11:10:03.604Z</time>
      </trkpt>
      <trkpt lat="44.37229" lon="5.15591">
        <ele>288</ele>
        <time>2020-07-11T11:10:04.604Z</time>
      </trkpt>
      <trkpt lat="44.3723" lon="5.15602">
        <ele>289</ele>
        <time>2020-07-11T11:10:05.605Z</time>
      </trkpt>
      <trkpt lat="44.37232" lon="5.15613">
        <ele>289</ele>
        <time>2020-07-11T11:10:06.605Z</time>
      </trkpt>
      <trkpt lat="44.37233" lon="5.15624">
        <ele>289</ele>
        <time>2020-07-11T11:10:07.605Z</time>
      </trkpt>
      <trkpt lat="44.37235" lon="5.15634">
        <ele>289</ele>
        <time>2020-07-11T11:10:08.605Z</time>
      </trkpt>
      <trkpt lat="44.37236" lon="5.15645">
        <ele>289</ele>
        <time>2020-07-11T11:10:09.604Z</time>
      </trkpt>
      <trkpt lat="44.37238" lon="5.15655">
        <ele>288</ele>
        <time>2020-07-11T11:10:10.604Z</time>
      </trkpt>
      <trkpt lat="44.37239" lon="5.15665">
        <ele>288</ele>
        <time>2020-07-11T11:10:11.605Z</time>
      </trkpt>
      <trkpt lat="44.37241" lon="5.15675">
        <ele>288</ele>
        <time>2020-07-11T11:10:12.604Z</time>
      </trkpt>
      <trkpt lat="44.37244" lon="5.15685">
        <ele>288</ele>
        <time>2020-07-11T11:10:13.605Z</time>
      </trkpt>
      <trkpt lat="44.37246" lon="5.15694">
        <ele>288</ele>
        <time>2020-07-11T11:10:14.605Z</time>
      </trkpt>
      <trkpt lat="44.37248" lon="5.15704">
        <ele>288</ele>
        <time>2020-07-11T11:10:15.605Z</time>
      </trkpt>
      <trkpt lat="44.3725" lon="5.15713">
        <ele>288</ele>
        <time>2020-07-11T11:10:16.605Z</time>
      </trkpt>
      <trkpt lat="44.37251" lon="5.15723">
        <ele>288</ele>
        <time>2020-07-11T11:10:17.605Z</time>
      </trkpt>
      <trkpt lat="44.37253" lon="5.15735">
        <ele>288</ele>
        <time>2020-07-11T11:10:18.605Z</time>
      </trkpt>
      <trkpt lat="44.37253" lon="5.15743">
        <ele>288</ele>
        <time>2020-07-11T11:10:19.605Z</time>
      </trkpt>
      <trkpt lat="44.37254" lon="5.15754">
        <ele>288</ele>
        <time>2020-07-11T11:10:20.605Z</time>
      </trkpt>
      <trkpt lat="44.37254" lon="5.15763">
        <ele>288</ele>
        <time>2020-07-11T11:10:21.605Z</time>
      </trkpt>
      <trkpt lat="44.37254" lon="5.15773">
        <ele>288</ele>
        <time>2020-07-11T11:10:22.605Z</time>
      </trkpt>
      <trkpt lat="44.37254" lon="5.15783">
        <ele>288</ele>
        <time>2020-07-11T11:10:23.604Z</time>
      </trkpt>
      <trkpt lat="44.37254" lon="5.15793">
        <ele>288</ele>
        <time>2020-07-11T11:10:24.605Z</time>
      </trkpt>
      <trkpt lat="44.37254" lon="5.15803">
        <ele>288</ele>
        <time>2020-07-11T11:10:25.605Z</time>
      </trkpt>
      <trkpt lat="44.37255" lon="5.15816">
        <ele>287</ele>
        <time>2020-07-11T11:10:26.604Z</time>
      </trkpt>
      <trkpt lat="44.37256" lon="5.15824">
        <ele>287</ele>
        <time>2020-07-11T11:10:27.604Z</time>
      </trkpt>
      <trkpt lat="44.37258" lon="5.15835">
        <ele>287</ele>
        <time>2020-07-11T11:10:28.605Z</time>
      </trkpt>
      <trkpt lat="44.37259" lon="5.15846">
        <ele>287</ele>
        <time>2020-07-11T11:10:29.605Z</time>
      </trkpt>
      <trkpt lat="44.37261" lon="5.15858">
        <ele>286</ele>
        <time>2020-07-11T11:10:30.605Z</time>
      </trkpt>
      <trkpt lat="44.37262" lon="5.1587">
        <ele>286</ele>
        <time>2020-07-11T11:10:31.605Z</time>
      </trkpt>
      <trkpt lat="44.37263" lon="5.15881">
        <ele>286</ele>
        <time>2020-07-11T11:10:32.604Z</time>
      </trkpt>
      <trkpt lat="44.37265" lon="5.15896">
        <ele>286</ele>
        <time>2020-07-11T11:10:33.605Z</time>
      </trkpt>
      <trkpt lat="44.37266" lon="5.15908">
        <ele>286</ele>
        <time>2020-07-11T11:10:34.605Z</time>
      </trkpt>
      <trkpt lat="44.37268" lon="5.15917">
        <ele>286</ele>
        <time>2020-07-11T11:10:35.605Z</time>
      </trkpt>
      <trkpt lat="44.37269" lon="5.15931">
        <ele>286</ele>
        <time>2020-07-11T11:10:36.605Z</time>
      </trkpt>
      <trkpt lat="44.3727" lon="5.1594">
        <ele>286</ele>
        <time>2020-07-11T11:10:37.605Z</time>
      </trkpt>
      <trkpt lat="44.37271" lon="5.15952">
        <ele>286</ele>
        <time>2020-07-11T11:10:38.605Z</time>
      </trkpt>
      <trkpt lat="44.37272" lon="5.15963">
        <ele>286</ele>
        <time>2020-07-11T11:10:39.605Z</time>
      </trkpt>
      <trkpt lat="44.37273" lon="5.15975">
        <ele>286</ele>
        <time>2020-07-11T11:10:40.605Z</time>
      </trkpt>
      <trkpt lat="44.37273" lon="5.15987">
        <ele>287</ele>
        <time>2020-07-11T11:10:41.605Z</time>
      </trkpt>
      <trkpt lat="44.37272" lon="5.15998">
        <ele>287</ele>
        <time>2020-07-11T11:10:42.605Z</time>
      </trkpt>
      <trkpt lat="44.3727" lon="5.1601">
        <ele>287</ele>
        <time>2020-07-11T11:10:43.605Z</time>
      </trkpt>
      <trkpt lat="44.37269" lon="5.16023">
        <ele>288</ele>
        <time>2020-07-11T11:10:44.604Z</time>
      </trkpt>
      <trkpt lat="44.37268" lon="5.16034">
        <ele>288</ele>
        <time>2020-07-11T11:10:45.605Z</time>
      </trkpt>
      <trkpt lat="44.37269" lon="5.16045">
        <ele>288</ele>
        <time>2020-07-11T11:10:46.604Z</time>
      </trkpt>
      <trkpt lat="44.3727" lon="5.16056">
        <ele>289</ele>
        <time>2020-07-11T11:10:47.605Z</time>
      </trkpt>
      <trkpt lat="44.37271" lon="5.16067">
        <ele>289</ele>
        <time>2020-07-11T11:10:48.604Z</time>
      </trkpt>
      <trkpt lat="44.37272" lon="5.16077">
        <ele>289</ele>
        <time>2020-07-11T11:10:49.605Z</time>
      </trkpt>
      <trkpt lat="44.37274" lon="5.16088">
        <ele>289</ele>
        <time>2020-07-11T11:10:50.605Z</time>
      </trkpt>
      <trkpt lat="44.37275" lon="5.16099">
        <ele>289</ele>
        <time>2020-07-11T11:10:51.605Z</time>
      </trkpt>
      <trkpt lat="44.37275" lon="5.16107">
        <ele>289</ele>
        <time>2020-07-11T11:10:52.605Z</time>
      </trkpt>
      <trkpt lat="44.37276" lon="5.16117">
        <ele>289</ele>
        <time>2020-07-11T11:10:53.605Z</time>
      </trkpt>
      <trkpt lat="44.37277" lon="5.16127">
        <ele>289</ele>
        <time>2020-07-11T11:10:54.604Z</time>
      </trkpt>
      <trkpt lat="44.37278" lon="5.1614">
        <ele>290</ele>
        <time>2020-07-11T11:10:55.605Z</time>
      </trkpt>
      <trkpt lat="44.37278" lon="5.1615">
        <ele>290</ele>
        <time>2020-07-11T11:10:56.604Z</time>
      </trkpt>
      <trkpt lat="44.37278" lon="5.1616">
        <ele>290</ele>
        <time>2020-07-11T11:10:57.605Z</time>
      </trkpt>
      <trkpt lat="44.37278" lon="5.16171">
        <ele>290</ele>
        <time>2020-07-11T11:10:58.604Z</time>
      </trkpt>
      <trkpt lat="44.37278" lon="5.16181">
        <ele>291</ele>
        <time>2020-07-11T11:10:59.605Z</time>
      </trkpt>
      <trkpt lat="44.37277" lon="5.16192">
        <ele>291</ele>
        <time>2020-07-11T11:11:00.605Z</time>
      </trkpt>
      <trkpt lat="44.37276" lon="5.16202">
        <ele>291</ele>
        <time>2020-07-11T11:11:01.605Z</time>
      </trkpt>
      <trkpt lat="44.37275" lon="5.16213">
        <ele>292</ele>
        <time>2020-07-11T11:11:02.605Z</time>
      </trkpt>
      <trkpt lat="44.37275" lon="5.16223">
        <ele>292</ele>
        <time>2020-07-11T11:11:03.605Z</time>
      </trkpt>
      <trkpt lat="44.37274" lon="5.16231">
        <ele>292</ele>
        <time>2020-07-11T11:11:04.605Z</time>
      </trkpt>
      <trkpt lat="44.37273" lon="5.16242">
        <ele>292</ele>
        <time>2020-07-11T11:11:05.605Z</time>
      </trkpt>
      <trkpt lat="44.37272" lon="5.16254">
        <ele>292</ele>
        <time>2020-07-11T11:11:06.605Z</time>
      </trkpt>
      <trkpt lat="44.37272" lon="5.16264">
        <ele>292</ele>
        <time>2020-07-11T11:11:07.605Z</time>
      </trkpt>
      <trkpt lat="44.37273" lon="5.16274">
        <ele>292</ele>
        <time>2020-07-11T11:11:08.604Z</time>
      </trkpt>
      <trkpt lat="44.37273" lon="5.16282">
        <ele>292</ele>
        <time>2020-07-11T11:11:09.605Z</time>
      </trkpt>
      <trkpt lat="44.37274" lon="5.16293">
        <ele>292</ele>
        <time>2020-07-11T11:11:10.605Z</time>
      </trkpt>
      <trkpt lat="44.37275" lon="5.16303">
        <ele>291</ele>
        <time>2020-07-11T11:11:11.605Z</time>
      </trkpt>
      <trkpt lat="44.37276" lon="5.16314">
        <ele>291</ele>
        <time>2020-07-11T11:11:12.604Z</time>
      </trkpt>
      <trkpt lat="44.37278" lon="5.16324">
        <ele>291</ele>
        <time>2020-07-11T11:11:13.605Z</time>
      </trkpt>
      <trkpt lat="44.3728" lon="5.16334">
        <ele>291</ele>
        <time>2020-07-11T11:11:14.604Z</time>
      </trkpt>
      <trkpt lat="44.37282" lon="5.16345">
        <ele>291</ele>
        <time>2020-07-11T11:11:15.605Z</time>
      </trkpt>
      <trkpt lat="44.37284" lon="5.16355">
        <ele>291</ele>
        <time>2020-07-11T11:11:16.605Z</time>
      </trkpt>
      <trkpt lat="44.37287" lon="5.16364">
        <ele>291</ele>
        <time>2020-07-11T11:11:17.605Z</time>
      </trkpt>
      <trkpt lat="44.3729" lon="5.16374">
        <ele>291</ele>
        <time>2020-07-11T11:11:18.604Z</time>
      </trkpt>
      <trkpt lat="44.37293" lon="5.16384">
        <ele>291</ele>
        <time>2020-07-11T11:11:19.605Z</time>
      </trkpt>
      <trkpt lat="44.37297" lon="5.16392">
        <ele>291</ele>
        <time>2020-07-11T11:11:20.605Z</time>
      </trkpt>
      <trkpt lat="44.37301" lon="5.16401">
        <ele>290</ele>
        <time>2020-07-11T11:11:21.605Z</time>
      </trkpt>
      <trkpt lat="44.37305" lon="5.1641">
        <ele>289</ele>
        <time>2020-07-11T11:11:22.605Z</time>
      </trkpt>
      <trkpt lat="44.37309" lon="5.16419">
        <ele>289</ele>
        <time>2020-07-11T11:11:23.604Z</time>
      </trkpt>
      <trkpt lat="44.37314" lon="5.16428">
        <ele>288</ele>
        <time>2020-07-11T11:11:24.605Z</time>
      </trkpt>
      <trkpt lat="44.37319" lon="5.16436">
        <ele>288</ele>
        <time>2020-07-11T11:11:25.605Z</time>
      </trkpt>
      <trkpt lat="44.37324" lon="5.16445">
        <ele>289</ele>
        <time>2020-07-11T11:11:26.605Z</time>
      </trkpt>
      <trkpt lat="44.3733" lon="5.16452">
        <ele>289</ele>
        <time>2020-07-11T11:11:27.605Z</time>
      </trkpt>
      <trkpt lat="44.37336" lon="5.1646">
        <ele>289</ele>
        <time>2020-07-11T11:11:28.605Z</time>
      </trkpt>
      <trkpt lat="44.37341" lon="5.16467">
        <ele>289</ele>
        <time>2020-07-11T11:11:29.605Z</time>
      </trkpt>
      <trkpt lat="44.37346" lon="5.16473">
        <ele>289</ele>
        <time>2020-07-11T11:11:30.605Z</time>
      </trkpt>
      <trkpt lat="44.37354" lon="5.16481">
        <ele>289</ele>
        <time>2020-07-11T11:11:31.605Z</time>
      </trkpt>
      <trkpt lat="44.3736" lon="5.16487">
        <ele>289</ele>
        <time>2020-07-11T11:11:32.605Z</time>
      </trkpt>
      <trkpt lat="44.37367" lon="5.16493">
        <ele>289</ele>
        <time>2020-07-11T11:11:33.604Z</time>
      </trkpt>
      <trkpt lat="44.37373" lon="5.16499">
        <ele>289</ele>
        <time>2020-07-11T11:11:34.605Z</time>
      </trkpt>
      <trkpt lat="44.37379" lon="5.16503">
        <ele>290</ele>
        <time>2020-07-11T11:11:35.604Z</time>
      </trkpt>
      <trkpt lat="44.37387" lon="5.16509">
        <ele>290</ele>
        <time>2020-07-11T11:11:36.605Z</time>
      </trkpt>
      <trkpt lat="44.37394" lon="5.16514">
        <ele>290</ele>
        <time>2020-07-11T11:11:37.605Z</time>
      </trkpt>
      <trkpt lat="44.37401" lon="5.16519">
        <ele>290</ele>
        <time>2020-07-11T11:11:38.605Z</time>
      </trkpt>
      <trkpt lat="44.37408" lon="5.16524">
        <ele>290</ele>
        <time>2020-07-11T11:11:39.605Z</time>
      </trkpt>
      <trkpt lat="44.37415" lon="5.16529">
        <ele>290</ele>
        <time>2020-07-11T11:11:40.604Z</time>
      </trkpt>
      <trkpt lat="44.37422" lon="5.16535">
        <ele>290</ele>
        <time>2020-07-11T11:11:41.604Z</time>
      </trkpt>
      <trkpt lat="44.37428" lon="5.16542">
        <ele>291</ele>
        <time>2020-07-11T11:11:42.605Z</time>
      </trkpt>
      <trkpt lat="44.37433" lon="5.16549">
        <ele>291</ele>
        <time>2020-07-11T11:11:43.605Z</time>
      </trkpt>
      <trkpt lat="44.37438" lon="5.16557">
        <ele>292</ele>
        <time>2020-07-11T11:11:44.605Z</time>
      </trkpt>
      <trkpt lat="44.37443" lon="5.16565">
        <ele>292</ele>
        <time>2020-07-11T11:11:45.605Z</time>
      </trkpt>
      <trkpt lat="44.37448" lon="5.16573">
        <ele>292</ele>
        <time>2020-07-11T11:11:46.605Z</time>
      </trkpt>
      <trkpt lat="44.37452" lon="5.16582">
        <ele>292</ele>
        <time>2020-07-11T11:11:47.604Z</time>
      </trkpt>
      <trkpt lat="44.37456" lon="5.1659">
        <ele>292</ele>
        <time>2020-07-11T11:11:48.605Z</time>
      </trkpt>
      <trkpt lat="44.37461" lon="5.16598">
        <ele>292</ele>
        <time>2020-07-11T11:11:49.605Z</time>
      </trkpt>
      <trkpt lat="44.37465" lon="5.16606">
        <ele>292</ele>
        <time>2020-07-11T11:11:50.605Z</time>
      </trkpt>
      <trkpt lat="44.3747" lon="5.16613">
        <ele>292</ele>
        <time>2020-07-11T11:11:51.605Z</time>
      </trkpt>
      <trkpt lat="44.37475" lon="5.1662">
        <ele>292</ele>
        <time>2020-07-11T11:11:52.605Z</time>
      </trkpt>
      <trkpt lat="44.3748" lon="5.16626">
        <ele>292</ele>
        <time>2020-07-11T11:11:53.605Z</time>
      </trkpt>
      <trkpt lat="44.37485" lon="5.16632">
        <ele>292</ele>
        <time>2020-07-11T11:11:54.604Z</time>
      </trkpt>
      <trkpt lat="44.37489" lon="5.16637">
        <ele>291</ele>
        <time>2020-07-11T11:11:55.604Z</time>
      </trkpt>
      <trkpt lat="44.37496" lon="5.16644">
        <ele>291</ele>
        <time>2020-07-11T11:11:56.605Z</time>
      </trkpt>
      <trkpt lat="44.37502" lon="5.16649">
        <ele>291</ele>
        <time>2020-07-11T11:11:57.605Z</time>
      </trkpt>
      <trkpt lat="44.37507" lon="5.16654">
        <ele>292</ele>
        <time>2020-07-11T11:11:58.605Z</time>
      </trkpt>
      <trkpt lat="44.37513" lon="5.16659">
        <ele>292</ele>
        <time>2020-07-11T11:11:59.605Z</time>
      </trkpt>
      <trkpt lat="44.37519" lon="5.16664">
        <ele>292</ele>
        <time>2020-07-11T11:12:00.604Z</time>
      </trkpt>
      <trkpt lat="44.37524" lon="5.16669">
        <ele>292</ele>
        <time>2020-07-11T11:12:01.605Z</time>
      </trkpt>
      <trkpt lat="44.3753" lon="5.16675">
        <ele>292</ele>
        <time>2020-07-11T11:12:02.605Z</time>
      </trkpt>
      <trkpt lat="44.37536" lon="5.1668">
        <ele>292</ele>
        <time>2020-07-11T11:12:03.604Z</time>
      </trkpt>
      <trkpt lat="44.37541" lon="5.16686">
        <ele>292</ele>
        <time>2020-07-11T11:12:04.605Z</time>
      </trkpt>
      <trkpt lat="44.37547" lon="5.16692">
        <ele>292</ele>
        <time>2020-07-11T11:12:05.605Z</time>
      </trkpt>
      <trkpt lat="44.37553" lon="5.16699">
        <ele>292</ele>
        <time>2020-07-11T11:12:06.605Z</time>
      </trkpt>
      <trkpt lat="44.37558" lon="5.16705">
        <ele>292</ele>
        <time>2020-07-11T11:12:07.604Z</time>
      </trkpt>
      <trkpt lat="44.37563" lon="5.16711">
        <ele>292</ele>
        <time>2020-07-11T11:12:08.605Z</time>
      </trkpt>
      <trkpt lat="44.37569" lon="5.16717">
        <ele>292</ele>
        <time>2020-07-11T11:12:09.605Z</time>
      </trkpt>
      <trkpt lat="44.37574" lon="5.16723">
        <ele>292</ele>
        <time>2020-07-11T11:12:10.605Z</time>
      </trkpt>
      <trkpt lat="44.3758" lon="5.16728">
        <ele>291</ele>
        <time>2020-07-11T11:12:11.605Z</time>
      </trkpt>
      <trkpt lat="44.37585" lon="5.16734">
        <ele>291</ele>
        <time>2020-07-11T11:12:12.604Z</time>
      </trkpt>
      <trkpt lat="44.37591" lon="5.16739">
        <ele>291</ele>
        <time>2020-07-11T11:12:13.605Z</time>
      </trkpt>
      <trkpt lat="44.37596" lon="5.16745">
        <ele>290</ele>
        <time>2020-07-11T11:12:14.604Z</time>
      </trkpt>
      <trkpt lat="44.37602" lon="5.16751">
        <ele>290</ele>
        <time>2020-07-11T11:12:15.604Z</time>
      </trkpt>
      <trkpt lat="44.37607" lon="5.16756">
        <ele>291</ele>
        <time>2020-07-11T11:12:16.605Z</time>
      </trkpt>
      <trkpt lat="44.37613" lon="5.16761">
        <ele>291</ele>
        <time>2020-07-11T11:12:17.605Z</time>
      </trkpt>
      <trkpt lat="44.3762" lon="5.16765">
        <ele>291</ele>
        <time>2020-07-11T11:12:18.605Z</time>
      </trkpt>
      <trkpt lat="44.37627" lon="5.16769">
        <ele>291</ele>
        <time>2020-07-11T11:12:19.605Z</time>
      </trkpt>
      <trkpt lat="44.37633" lon="5.16773">
        <ele>292</ele>
        <time>2020-07-11T11:12:20.605Z</time>
      </trkpt>
      <trkpt lat="44.37639" lon="5.16778">
        <ele>293</ele>
        <time>2020-07-11T11:12:21.605Z</time>
      </trkpt>
      <trkpt lat="44.37645" lon="5.16782">
        <ele>293</ele>
        <time>2020-07-11T11:12:22.605Z</time>
      </trkpt>
      <trkpt lat="44.3765" lon="5.16788">
        <ele>294</ele>
        <time>2020-07-11T11:12:23.605Z</time>
      </trkpt>
      <trkpt lat="44.37655" lon="5.16794">
        <ele>294</ele>
        <time>2020-07-11T11:12:24.605Z</time>
      </trkpt>
      <trkpt lat="44.37659" lon="5.16801">
        <ele>294</ele>
        <time>2020-07-11T11:12:25.604Z</time>
      </trkpt>
      <trkpt lat="44.37663" lon="5.1681">
        <ele>294</ele>
        <time>2020-07-11T11:12:26.605Z</time>
      </trkpt>
      <trkpt lat="44.37667" lon="5.16818">
        <ele>294</ele>
        <time>2020-07-11T11:12:27.605Z</time>
      </trkpt>
      <trkpt lat="44.3767" lon="5.16827">
        <ele>295</ele>
        <time>2020-07-11T11:12:28.605Z</time>
      </trkpt>
      <trkpt lat="44.37672" lon="5.16835">
        <ele>295</ele>
        <time>2020-07-11T11:12:29.605Z</time>
      </trkpt>
      <trkpt lat="44.37675" lon="5.16844">
        <ele>295</ele>
        <time>2020-07-11T11:12:30.605Z</time>
      </trkpt>
      <trkpt lat="44.37676" lon="5.16853">
        <ele>295</ele>
        <time>2020-07-11T11:12:31.605Z</time>
      </trkpt>
      <trkpt lat="44.37679" lon="5.16862">
        <ele>295</ele>
        <time>2020-07-11T11:12:32.604Z</time>
      </trkpt>
      <trkpt lat="44.37681" lon="5.16871">
        <ele>295</ele>
        <time>2020-07-11T11:12:33.604Z</time>
      </trkpt>
      <trkpt lat="44.37684" lon="5.1688">
        <ele>295</ele>
        <time>2020-07-11T11:12:34.604Z</time>
      </trkpt>
      <trkpt lat="44.37686" lon="5.16889">
        <ele>296</ele>
        <time>2020-07-11T11:12:35.605Z</time>
      </trkpt>
      <trkpt lat="44.37688" lon="5.16897">
        <ele>296</ele>
        <time>2020-07-11T11:12:36.605Z</time>
      </trkpt>
      <trkpt lat="44.3769" lon="5.16905">
        <ele>296</ele>
        <time>2020-07-11T11:12:37.604Z</time>
      </trkpt>
      <trkpt lat="44.37693" lon="5.16913">
        <ele>296</ele>
        <time>2020-07-11T11:12:38.605Z</time>
      </trkpt>
      <trkpt lat="44.37695" lon="5.1692">
        <ele>296</ele>
        <time>2020-07-11T11:12:39.604Z</time>
      </trkpt>
      <trkpt lat="44.37698" lon="5.1693">
        <ele>296</ele>
        <time>2020-07-11T11:12:40.605Z</time>
      </trkpt>
      <trkpt lat="44.377" lon="5.16937">
        <ele>296</ele>
        <time>2020-07-11T11:12:41.604Z</time>
      </trkpt>
      <trkpt lat="44.37702" lon="5.16947">
        <ele>296</ele>
        <time>2020-07-11T11:12:42.605Z</time>
      </trkpt>
      <trkpt lat="44.37704" lon="5.16955">
        <ele>296</ele>
        <time>2020-07-11T11:12:43.605Z</time>
      </trkpt>
      <trkpt lat="44.37707" lon="5.16963">
        <ele>296</ele>
        <time>2020-07-11T11:12:44.605Z</time>
      </trkpt>
      <trkpt lat="44.37709" lon="5.16971">
        <ele>296</ele>
        <time>2020-07-11T11:12:45.605Z</time>
      </trkpt>
      <trkpt lat="44.3771" lon="5.16978">
        <ele>296</ele>
        <time>2020-07-11T11:12:46.605Z</time>
      </trkpt>
      <trkpt lat="44.37713" lon="5.16987">
        <ele>296</ele>
        <time>2020-07-11T11:12:47.605Z</time>
      </trkpt>
      <trkpt lat="44.37715" lon="5.16995">
        <ele>296</ele>
        <time>2020-07-11T11:12:48.604Z</time>
      </trkpt>
      <trkpt lat="44.37717" lon="5.17002">
        <ele>296</ele>
        <time>2020-07-11T11:12:49.604Z</time>
      </trkpt>
      <trkpt lat="44.37719" lon="5.17009">
        <ele>296</ele>
        <time>2020-07-11T11:12:50.604Z</time>
      </trkpt>
      <trkpt lat="44.37722" lon="5.17016">
        <ele>297</ele>
        <time>2020-07-11T11:12:51.605Z</time>
      </trkpt>
      <trkpt lat="44.37725" lon="5.17023">
        <ele>297</ele>
        <time>2020-07-11T11:12:52.604Z</time>
      </trkpt>
      <trkpt lat="44.37727" lon="5.17029">
        <ele>297</ele>
        <time>2020-07-11T11:12:53.605Z</time>
      </trkpt>
      <trkpt lat="44.3773" lon="5.17036">
        <ele>298</ele>
        <time>2020-07-11T11:12:54.605Z</time>
      </trkpt>
      <trkpt lat="44.37732" lon="5.17043">
        <ele>298</ele>
        <time>2020-07-11T11:12:55.604Z</time>
      </trkpt>
      <trkpt lat="44.37733" lon="5.17049">
        <ele>298</ele>
        <time>2020-07-11T11:12:56.605Z</time>
      </trkpt>
      <trkpt lat="44.37735" lon="5.17056">
        <ele>298</ele>
        <time>2020-07-11T11:12:57.605Z</time>
      </trkpt>
      <trkpt lat="44.37738" lon="5.17062">
        <ele>298</ele>
        <time>2020-07-11T11:12:58.604Z</time>
      </trkpt>
      <trkpt lat="44.37741" lon="5.17066">
        <ele>298</ele>
        <time>2020-07-11T11:12:59.605Z</time>
      </trkpt>
      <trkpt lat="44.37745" lon="5.17068">
        <ele>298</ele>
        <time>2020-07-11T11:13:00.605Z</time>
      </trkpt>
      <trkpt lat="44.37749" lon="5.17068">
        <ele>299</ele>
        <time>2020-07-11T11:13:01.605Z</time>
      </trkpt>
      <trkpt lat="44.37753" lon="5.17066">
        <ele>299</ele>
        <time>2020-07-11T11:13:02.605Z</time>
      </trkpt>
      <trkpt lat="44.37757" lon="5.17062">
        <ele>299</ele>
        <time>2020-07-11T11:13:03.605Z</time>
      </trkpt>
      <trkpt lat="44.37758" lon="5.17055">
        <ele>299</ele>
        <time>2020-07-11T11:13:04.604Z</time>
      </trkpt>
      <trkpt lat="44.37758" lon="5.17048">
        <ele>299</ele>
        <time>2020-07-11T11:13:05.605Z</time>
      </trkpt>
      <trkpt lat="44.37758" lon="5.1704">
        <ele>299</ele>
        <time>2020-07-11T11:13:06.604Z</time>
      </trkpt>
      <trkpt lat="44.37757" lon="5.17035">
        <ele>299</ele>
        <time>2020-07-11T11:13:07.605Z</time>
      </trkpt>
      <trkpt lat="44.37758" lon="5.17027">
        <ele>299</ele>
        <time>2020-07-11T11:13:08.605Z</time>
      </trkpt>
      <trkpt lat="44.37759" lon="5.17021">
        <ele>299</ele>
        <time>2020-07-11T11:13:09.605Z</time>
      </trkpt>
      <trkpt lat="44.37761" lon="5.17017">
        <ele>299</ele>
        <time>2020-07-11T11:13:10.605Z</time>
      </trkpt>
      <trkpt lat="44.37762" lon="5.17014">
        <ele>299</ele>
        <time>2020-07-11T11:13:11.605Z</time>
      </trkpt>
      <trkpt lat="44.37765" lon="5.17013">
        <ele>300</ele>
        <time>2020-07-11T11:13:12.605Z</time>
      </trkpt>
      <trkpt lat="44.37767" lon="5.17013">
        <ele>300</ele>
        <time>2020-07-11T11:13:13.605Z</time>
      </trkpt>
      <trkpt lat="44.37769" lon="5.17012">
        <ele>301</ele>
        <time>2020-07-11T11:13:14.605Z</time>
      </trkpt>
      <trkpt lat="44.37772" lon="5.17013">
        <ele>302</ele>
        <time>2020-07-11T11:13:15.605Z</time>
      </trkpt>
      <trkpt lat="44.37774" lon="5.17013">
        <ele>302</ele>
        <time>2020-07-11T11:13:16.604Z</time>
      </trkpt>
      <trkpt lat="44.37776" lon="5.17013">
        <ele>302</ele>
        <time>2020-07-11T11:13:17.605Z</time>
      </trkpt>
      <trkpt lat="44.37779" lon="5.17014">
        <ele>302</ele>
        <time>2020-07-11T11:13:18.605Z</time>
      </trkpt>
      <trkpt lat="44.37782" lon="5.17015">
        <ele>302</ele>
        <time>2020-07-11T11:13:19.605Z</time>
      </trkpt>
      <trkpt lat="44.37785" lon="5.17016">
        <ele>302</ele>
        <time>2020-07-11T11:13:20.605Z</time>
      </trkpt>
      <trkpt lat="44.37788" lon="5.17017">
        <ele>302</ele>
        <time>2020-07-11T11:13:21.605Z</time>
      </trkpt>
      <trkpt lat="44.3779" lon="5.17018">
        <ele>303</ele>
        <time>2020-07-11T11:13:22.605Z</time>
      </trkpt>
      <trkpt lat="44.37793" lon="5.17019">
        <ele>303</ele>
        <time>2020-07-11T11:13:23.605Z</time>
      </trkpt>
      <trkpt lat="44.37795" lon="5.1702">
        <ele>303</ele>
        <time>2020-07-11T11:13:24.605Z</time>
      </trkpt>
      <trkpt lat="44.37799" lon="5.17021">
        <ele>303</ele>
        <time>2020-07-11T11:13:25.605Z</time>
      </trkpt>
      <trkpt lat="44.37802" lon="5.17022">
        <ele>304</ele>
        <time>2020-07-11T11:13:26.605Z</time>
      </trkpt>
      <trkpt lat="44.37805" lon="5.17022">
        <ele>304</ele>
        <time>2020-07-11T11:13:27.605Z</time>
      </trkpt>
      <trkpt lat="44.37807" lon="5.17022">
        <ele>304</ele>
        <time>2020-07-11T11:13:28.605Z</time>
      </trkpt>
      <trkpt lat="44.3781" lon="5.17021">
        <ele>305</ele>
        <time>2020-07-11T11:13:29.605Z</time>
      </trkpt>
      <trkpt lat="44.37813" lon="5.1702">
        <ele>305</ele>
        <time>2020-07-11T11:13:30.604Z</time>
      </trkpt>
      <trkpt lat="44.37815" lon="5.17018">
        <ele>305</ele>
        <time>2020-07-11T11:13:31.605Z</time>
      </trkpt>
      <trkpt lat="44.37818" lon="5.17017">
        <ele>305</ele>
        <time>2020-07-11T11:13:32.604Z</time>
      </trkpt>
      <trkpt lat="44.37821" lon="5.17016">
        <ele>306</ele>
        <time>2020-07-11T11:13:33.605Z</time>
      </trkpt>
      <trkpt lat="44.37823" lon="5.17014">
        <ele>306</ele>
        <time>2020-07-11T11:13:34.604Z</time>
      </trkpt>
      <trkpt lat="44.37825" lon="5.17012">
        <ele>306</ele>
        <time>2020-07-11T11:13:35.605Z</time>
      </trkpt>
      <trkpt lat="44.37827" lon="5.1701">
        <ele>306</ele>
        <time>2020-07-11T11:13:36.605Z</time>
      </trkpt>
      <trkpt lat="44.37829" lon="5.17008">
        <ele>306</ele>
        <time>2020-07-11T11:13:37.604Z</time>
      </trkpt>
      <trkpt lat="44.37831" lon="5.17005">
        <ele>306</ele>
        <time>2020-07-11T11:13:38.605Z</time>
      </trkpt>
      <trkpt lat="44.37833" lon="5.17003">
        <ele>306</ele>
        <time>2020-07-11T11:13:39.605Z</time>
      </trkpt>
      <trkpt lat="44.37835" lon="5.17001">
        <ele>306</ele>
        <time>2020-07-11T11:13:40.604Z</time>
      </trkpt>
      <trkpt lat="44.37837" lon="5.16999">
        <ele>306</ele>
        <time>2020-07-11T11:13:41.604Z</time>
      </trkpt>
      <trkpt lat="44.37839" lon="5.16997">
        <ele>306</ele>
        <time>2020-07-11T11:13:42.605Z</time>
      </trkpt>
      <trkpt lat="44.37841" lon="5.16996">
        <ele>305</ele>
        <time>2020-07-11T11:13:43.605Z</time>
      </trkpt>
      <trkpt lat="44.37843" lon="5.16994">
        <ele>306</ele>
        <time>2020-07-11T11:13:44.605Z</time>
      </trkpt>
      <trkpt lat="44.37845" lon="5.16993">
        <ele>306</ele>
        <time>2020-07-11T11:13:45.605Z</time>
      </trkpt>
      <trkpt lat="44.37847" lon="5.16992">
        <ele>306</ele>
        <time>2020-07-11T11:13:46.605Z</time>
      </trkpt>
      <trkpt lat="44.37849" lon="5.1699">
        <ele>306</ele>
        <time>2020-07-11T11:13:47.605Z</time>
      </trkpt>
      <trkpt lat="44.3785" lon="5.16989">
        <ele>306</ele>
        <time>2020-07-11T11:13:48.604Z</time>
      </trkpt>
      <trkpt lat="44.37852" lon="5.16987">
        <ele>306</ele>
        <time>2020-07-11T11:13:49.605Z</time>
      </trkpt>
      <trkpt lat="44.37854" lon="5.16986">
        <ele>307</ele>
        <time>2020-07-11T11:13:50.605Z</time>
      </trkpt>
      <trkpt lat="44.37856" lon="5.16984">
        <ele>307</ele>
        <time>2020-07-11T11:13:51.605Z</time>
      </trkpt>
      <trkpt lat="44.37858" lon="5.16982">
        <ele>307</ele>
        <time>2020-07-11T11:13:52.605Z</time>
      </trkpt>
      <trkpt lat="44.37861" lon="5.1698">
        <ele>307</ele>
        <time>2020-07-11T11:13:53.605Z</time>
      </trkpt>
      <trkpt lat="44.37863" lon="5.16978">
        <ele>307</ele>
        <time>2020-07-11T11:13:54.605Z</time>
      </trkpt>
      <trkpt lat="44.37865" lon="5.16977">
        <ele>307</ele>
        <time>2020-07-11T11:13:55.605Z</time>
      </trkpt>
      <trkpt lat="44.37868" lon="5.16975">
        <ele>307</ele>
        <time>2020-07-11T11:13:56.605Z</time>
      </trkpt>
      <trkpt lat="44.3787" lon="5.16973">
        <ele>307</ele>
        <time>2020-07-11T11:13:57.605Z</time>
      </trkpt>
      <trkpt lat="44.37873" lon="5.16972">
        <ele>308</ele>
        <time>2020-07-11T11:13:58.605Z</time>
      </trkpt>
      <trkpt lat="44.37875" lon="5.1697">
        <ele>308</ele>
        <time>2020-07-11T11:13:59.605Z</time>
      </trkpt>
      <trkpt lat="44.37877" lon="5.16969">
        <ele>308</ele>
        <time>2020-07-11T11:14:00.605Z</time>
      </trkpt>
      <trkpt lat="44.3788" lon="5.16967">
        <ele>309</ele>
        <time>2020-07-11T11:14:01.605Z</time>
      </trkpt>
      <trkpt lat="44.37882" lon="5.16966">
        <ele>309</ele>
        <time>2020-07-11T11:14:02.605Z</time>
      </trkpt>
      <trkpt lat="44.37885" lon="5.16965">
        <ele>309</ele>
        <time>2020-07-11T11:14:03.605Z</time>
      </trkpt>
      <trkpt lat="44.37888" lon="5.16964">
        <ele>310</ele>
        <time>2020-07-11T11:14:04.604Z</time>
      </trkpt>
      <trkpt lat="44.3789" lon="5.16963">
        <ele>310</ele>
        <time>2020-07-11T11:14:05.605Z</time>
      </trkpt>
      <trkpt lat="44.37893" lon="5.16962">
        <ele>310</ele>
        <time>2020-07-11T11:14:06.605Z</time>
      </trkpt>
      <trkpt lat="44.37896" lon="5.16961">
        <ele>310</ele>
        <time>2020-07-11T11:14:07.605Z</time>
      </trkpt>
      <trkpt lat="44.37899" lon="5.1696">
        <ele>310</ele>
        <time>2020-07-11T11:14:08.605Z</time>
      </trkpt>
      <trkpt lat="44.37901" lon="5.1696">
        <ele>310</ele>
        <time>2020-07-11T11:14:09.605Z</time>
      </trkpt>
      <trkpt lat="44.37904" lon="5.16959">
        <ele>310</ele>
        <time>2020-07-11T11:14:10.605Z</time>
      </trkpt>
      <trkpt lat="44.37907" lon="5.16958">
        <ele>310</ele>
        <time>2020-07-11T11:14:11.605Z</time>
      </trkpt>
      <trkpt lat="44.37909" lon="5.16957">
        <ele>310</ele>
        <time>2020-07-11T11:14:12.605Z</time>
      </trkpt>
      <trkpt lat="44.37912" lon="5.16956">
        <ele>311</ele>
        <time>2020-07-11T11:14:13.605Z</time>
      </trkpt>
      <trkpt lat="44.37914" lon="5.16955">
        <ele>311</ele>
        <time>2020-07-11T11:14:14.604Z</time>
      </trkpt>
      <trkpt lat="44.37917" lon="5.16954">
        <ele>311</ele>
        <time>2020-07-11T11:14:15.605Z</time>
      </trkpt>
      <trkpt lat="44.3792" lon="5.16954">
        <ele>311</ele>
        <time>2020-07-11T11:14:16.604Z</time>
      </trkpt>
      <trkpt lat="44.37922" lon="5.16953">
        <ele>311</ele>
        <time>2020-07-11T11:14:17.605Z</time>
      </trkpt>
      <trkpt lat="44.37925" lon="5.16952">
        <ele>311</ele>
        <time>2020-07-11T11:14:18.604Z</time>
      </trkpt>
      <trkpt lat="44.37928" lon="5.16952">
        <ele>311</ele>
        <time>2020-07-11T11:14:19.605Z</time>
      </trkpt>
      <trkpt lat="44.3793" lon="5.16951">
        <ele>311</ele>
        <time>2020-07-11T11:14:20.605Z</time>
      </trkpt>
      <trkpt lat="44.37933" lon="5.1695">
        <ele>311</ele>
        <time>2020-07-11T11:14:21.604Z</time>
      </trkpt>
      <trkpt lat="44.37936" lon="5.16949">
        <ele>311</ele>
        <time>2020-07-11T11:14:22.605Z</time>
      </trkpt>
      <trkpt lat="44.37939" lon="5.16948">
        <ele>311</ele>
        <time>2020-07-11T11:14:23.605Z</time>
      </trkpt>
      <trkpt lat="44.37942" lon="5.16947">
        <ele>311</ele>
        <time>2020-07-11T11:14:24.605Z</time>
      </trkpt>
      <trkpt lat="44.37944" lon="5.16945">
        <ele>312</ele>
        <time>2020-07-11T11:14:25.605Z</time>
      </trkpt>
      <trkpt lat="44.37947" lon="5.16944">
        <ele>312</ele>
        <time>2020-07-11T11:14:26.604Z</time>
      </trkpt>
      <trkpt lat="44.37949" lon="5.16943">
        <ele>313</ele>
        <time>2020-07-11T11:14:27.605Z</time>
      </trkpt>
      <trkpt lat="44.37952" lon="5.16942">
        <ele>314</ele>
        <time>2020-07-11T11:14:28.605Z</time>
      </trkpt>
      <trkpt lat="44.37954" lon="5.1694">
        <ele>315</ele>
        <time>2020-07-11T11:14:29.605Z</time>
      </trkpt>
      <trkpt lat="44.37956" lon="5.16939">
        <ele>316</ele>
        <time>2020-07-11T11:14:30.605Z</time>
      </trkpt>
      <trkpt lat="44.37959" lon="5.16938">
        <ele>317</ele>
        <time>2020-07-11T11:14:31.605Z</time>
      </trkpt>
      <trkpt lat="44.37961" lon="5.16937">
        <ele>317</ele>
        <time>2020-07-11T11:14:32.605Z</time>
      </trkpt>
      <trkpt lat="44.37963" lon="5.16936">
        <ele>318</ele>
        <time>2020-07-11T11:14:33.605Z</time>
      </trkpt>
      <trkpt lat="44.37965" lon="5.16935">
        <ele>318</ele>
        <time>2020-07-11T11:14:34.605Z</time>
      </trkpt>
      <trkpt lat="44.37967" lon="5.16934">
        <ele>318</ele>
        <time>2020-07-11T11:14:35.605Z</time>
      </trkpt>
      <trkpt lat="44.37969" lon="5.16933">
        <ele>317</ele>
        <time>2020-07-11T11:14:36.604Z</time>
      </trkpt>
      <trkpt lat="44.3797" lon="5.16933">
        <ele>317</ele>
        <time>2020-07-11T11:14:37.604Z</time>
      </trkpt>
      <trkpt lat="44.37971" lon="5.16932">
        <ele>316</ele>
        <time>2020-07-11T11:14:38.605Z</time>
      </trkpt>
      <trkpt lat="44.37971" lon="5.16932">
        <ele>315</ele>
        <time>2020-07-11T11:14:39.604Z</time>
      </trkpt>
      <trkpt lat="44.37971" lon="5.16932">
        <ele>315</ele>
        <time>2020-07-11T11:14:40.605Z</time>
      </trkpt>
      <trkpt lat="44.3797" lon="5.16932">
        <ele>315</ele>
        <time>2020-07-11T11:14:41.605Z</time>
      </trkpt>
    </trkseg>
  </trk>
</gpx>